<?xml version='1.0' encoding='UTF-8'?>
<gpx version="1.1" creator="https://www.komoot.de" xmlns="http://www.topografix.com/GPX/1/1" xmlns:xsi="http://www.w3.org/2001/XMLSchema-instance" xsi:schemaLocation="http://www.topografix.com/GPX/1/1 http://www.topografix.com/GPX/1/1/gpx.xsd">
  <metadata>
    <name>Day 5: Maison bel canto to Pouzin</name>
    <author>
      <link href="https://www.komoot.de">
        <text>komoot</text>
        <type>text/html</type>
      </link>
    </author>
  </metadata>
  <trk>
    <name>Day 5: Maison bel canto to Pouzin</name>
    <trkseg>
      <trkpt lat="45.070614" lon="5.243409">
        <ele>252.099723</ele>
        <time>2017-06-05T06:42:05.000Z</time>
      </trkpt>
      <trkpt lat="45.070590" lon="5.243542">
        <ele>252.099723</ele>
        <time>2017-06-05T06:42:09.000Z</time>
      </trkpt>
      <trkpt lat="45.070534" lon="5.243393">
        <ele>252.099723</ele>
        <time>2017-06-05T06:55:48.000Z</time>
      </trkpt>
      <trkpt lat="45.070460" lon="5.243281">
        <ele>252.099723</ele>
        <time>2017-06-05T06:55:51.000Z</time>
      </trkpt>
      <trkpt lat="45.070366" lon="5.243213">
        <ele>252.099723</ele>
        <time>2017-06-05T06:55:54.000Z</time>
      </trkpt>
      <trkpt lat="45.070270" lon="5.243287">
        <ele>252.099723</ele>
        <time>2017-06-05T06:55:57.000Z</time>
      </trkpt>
      <trkpt lat="45.070206" lon="5.243430">
        <ele>252.099723</ele>
        <time>2017-06-05T06:56:00.000Z</time>
      </trkpt>
      <trkpt lat="45.070133" lon="5.243536">
        <ele>252.099723</ele>
        <time>2017-06-05T06:56:03.000Z</time>
      </trkpt>
      <trkpt lat="45.070050" lon="5.243664">
        <ele>252.099723</ele>
        <time>2017-06-05T06:56:06.000Z</time>
      </trkpt>
      <trkpt lat="45.069970" lon="5.243792">
        <ele>251.690364</ele>
        <time>2017-06-05T06:56:09.000Z</time>
      </trkpt>
      <trkpt lat="45.069862" lon="5.243870">
        <ele>251.228986</ele>
        <time>2017-06-05T06:56:12.000Z</time>
      </trkpt>
      <trkpt lat="45.069775" lon="5.243928">
        <ele>250.863039</ele>
        <time>2017-06-05T06:56:14.000Z</time>
      </trkpt>
      <trkpt lat="45.069650" lon="5.243960">
        <ele>250.379631</ele>
        <time>2017-06-05T06:56:17.000Z</time>
      </trkpt>
      <trkpt lat="45.069546" lon="5.243919">
        <ele>249.968798</ele>
        <time>2017-06-05T06:56:19.000Z</time>
      </trkpt>
      <trkpt lat="45.069443" lon="5.243876">
        <ele>249.560142</ele>
        <time>2017-06-05T06:56:21.000Z</time>
      </trkpt>
      <trkpt lat="45.069336" lon="5.243828">
        <ele>249.132999</ele>
        <time>2017-06-05T06:56:23.000Z</time>
      </trkpt>
      <trkpt lat="45.069220" lon="5.243778">
        <ele>248.671552</ele>
        <time>2017-06-05T06:56:25.000Z</time>
      </trkpt>
      <trkpt lat="45.069103" lon="5.243733">
        <ele>248.210166</ele>
        <time>2017-06-05T06:56:27.000Z</time>
      </trkpt>
      <trkpt lat="45.068990" lon="5.243689">
        <ele>247.764172</ele>
        <time>2017-06-05T06:56:29.000Z</time>
      </trkpt>
      <trkpt lat="45.068870" lon="5.243640">
        <ele>247.288894</ele>
        <time>2017-06-05T06:56:31.000Z</time>
      </trkpt>
      <trkpt lat="45.068745" lon="5.243601">
        <ele>246.801786</ele>
        <time>2017-06-05T06:56:33.000Z</time>
      </trkpt>
      <trkpt lat="45.068610" lon="5.243557">
        <ele>246.274599</ele>
        <time>2017-06-05T06:56:35.000Z</time>
      </trkpt>
      <trkpt lat="45.068466" lon="5.243508">
        <ele>245.710994</ele>
        <time>2017-06-05T06:56:37.000Z</time>
      </trkpt>
      <trkpt lat="45.068317" lon="5.243448">
        <ele>245.152225</ele>
        <time>2017-06-05T06:56:39.000Z</time>
      </trkpt>
      <trkpt lat="45.068160" lon="5.243392">
        <ele>244.678105</ele>
        <time>2017-06-05T06:56:41.000Z</time>
      </trkpt>
      <trkpt lat="45.068010" lon="5.243335">
        <ele>244.223303</ele>
        <time>2017-06-05T06:56:43.000Z</time>
      </trkpt>
      <trkpt lat="45.067852" lon="5.243284">
        <ele>243.748748</ele>
        <time>2017-06-05T06:56:45.000Z</time>
      </trkpt>
      <trkpt lat="45.067703" lon="5.243227">
        <ele>243.296774</ele>
        <time>2017-06-05T06:56:47.000Z</time>
      </trkpt>
      <trkpt lat="45.067554" lon="5.243166">
        <ele>242.842572</ele>
        <time>2017-06-05T06:56:49.000Z</time>
      </trkpt>
      <trkpt lat="45.067413" lon="5.243107">
        <ele>242.412017</ele>
        <time>2017-06-05T06:56:51.000Z</time>
      </trkpt>
      <trkpt lat="45.067265" lon="5.243050">
        <ele>241.962869</ele>
        <time>2017-06-05T06:56:53.000Z</time>
      </trkpt>
      <trkpt lat="45.067116" lon="5.242996">
        <ele>241.512473</ele>
        <time>2017-06-05T06:56:55.000Z</time>
      </trkpt>
      <trkpt lat="45.066975" lon="5.242944">
        <ele>241.085794</ele>
        <time>2017-06-05T06:56:57.000Z</time>
      </trkpt>
      <trkpt lat="45.066837" lon="5.242902">
        <ele>240.672447</ele>
        <time>2017-06-05T06:56:59.000Z</time>
      </trkpt>
      <trkpt lat="45.066696" lon="5.242853">
        <ele>240.247290</ele>
        <time>2017-06-05T06:57:01.000Z</time>
      </trkpt>
      <trkpt lat="45.066563" lon="5.242800">
        <ele>239.997123</ele>
        <time>2017-06-05T06:57:03.000Z</time>
      </trkpt>
      <trkpt lat="45.066433" lon="5.242746">
        <ele>240.022745</ele>
        <time>2017-06-05T06:57:05.000Z</time>
      </trkpt>
      <trkpt lat="45.066296" lon="5.242694">
        <ele>240.049569</ele>
        <time>2017-06-05T06:57:07.000Z</time>
      </trkpt>
      <trkpt lat="45.066166" lon="5.242652">
        <ele>240.074787</ele>
        <time>2017-06-05T06:57:09.000Z</time>
      </trkpt>
      <trkpt lat="45.066025" lon="5.242605">
        <ele>240.102182</ele>
        <time>2017-06-05T06:57:11.000Z</time>
      </trkpt>
      <trkpt lat="45.065900" lon="5.242549">
        <ele>240.126977</ele>
        <time>2017-06-05T06:57:13.000Z</time>
      </trkpt>
      <trkpt lat="45.065796" lon="5.242499">
        <ele>240.147749</ele>
        <time>2017-06-05T06:57:15.000Z</time>
      </trkpt>
      <trkpt lat="45.065704" lon="5.242454">
        <ele>240.166157</ele>
        <time>2017-06-05T06:57:17.000Z</time>
      </trkpt>
      <trkpt lat="45.065598" lon="5.242343">
        <ele>240.191091</ele>
        <time>2017-06-05T06:57:20.000Z</time>
      </trkpt>
      <trkpt lat="45.065514" lon="5.242210">
        <ele>240.214923</ele>
        <time>2017-06-05T06:57:23.000Z</time>
      </trkpt>
      <trkpt lat="45.065470" lon="5.242062">
        <ele>240.236372</ele>
        <time>2017-06-05T06:57:26.000Z</time>
      </trkpt>
      <trkpt lat="45.065434" lon="5.241923">
        <ele>240.256148</ele>
        <time>2017-06-05T06:57:29.000Z</time>
      </trkpt>
      <trkpt lat="45.065400" lon="5.241791">
        <ele>240.274916</ele>
        <time>2017-06-05T06:57:32.000Z</time>
      </trkpt>
      <trkpt lat="45.065370" lon="5.241657">
        <ele>240.293693</ele>
        <time>2017-06-05T06:57:35.000Z</time>
      </trkpt>
      <trkpt lat="45.065334" lon="5.241516">
        <ele>240.313720</ele>
        <time>2017-06-05T06:57:38.000Z</time>
      </trkpt>
      <trkpt lat="45.065304" lon="5.241378">
        <ele>240.240600</ele>
        <time>2017-06-05T06:57:41.000Z</time>
      </trkpt>
      <trkpt lat="45.065266" lon="5.241255">
        <ele>239.933126</ele>
        <time>2017-06-05T06:57:44.000Z</time>
      </trkpt>
      <trkpt lat="45.065247" lon="5.241113">
        <ele>239.602123</ele>
        <time>2017-06-05T06:57:48.000Z</time>
      </trkpt>
      <trkpt lat="45.065330" lon="5.241026">
        <ele>239.267254</ele>
        <time>2017-06-05T06:57:52.000Z</time>
      </trkpt>
      <trkpt lat="45.065426" lon="5.240957">
        <ele>238.918146</ele>
        <time>2017-06-05T06:57:55.000Z</time>
      </trkpt>
      <trkpt lat="45.065525" lon="5.240890">
        <ele>238.562337</ele>
        <time>2017-06-05T06:57:59.000Z</time>
      </trkpt>
      <trkpt lat="45.065643" lon="5.240840">
        <ele>238.162938</ele>
        <time>2017-06-05T06:58:03.000Z</time>
      </trkpt>
      <trkpt lat="45.065742" lon="5.240774">
        <ele>237.808110</ele>
        <time>2017-06-05T06:58:05.000Z</time>
      </trkpt>
      <trkpt lat="45.065826" lon="5.240690">
        <ele>237.474641</ele>
        <time>2017-06-05T06:58:07.000Z</time>
      </trkpt>
      <trkpt lat="45.065937" lon="5.240561">
        <ele>237.008983</ele>
        <time>2017-06-05T06:58:09.000Z</time>
      </trkpt>
      <trkpt lat="45.066020" lon="5.240364">
        <ele>236.483629</ele>
        <time>2017-06-05T06:58:11.000Z</time>
      </trkpt>
      <trkpt lat="45.066055" lon="5.240140">
        <ele>235.958211</ele>
        <time>2017-06-05T06:58:13.000Z</time>
      </trkpt>
      <trkpt lat="45.066113" lon="5.239911">
        <ele>235.401044</ele>
        <time>2017-06-05T06:58:15.000Z</time>
      </trkpt>
      <trkpt lat="45.066162" lon="5.239687">
        <ele>234.863989</ele>
        <time>2017-06-05T06:58:17.000Z</time>
      </trkpt>
      <trkpt lat="45.066220" lon="5.239483">
        <ele>234.473608</ele>
        <time>2017-06-05T06:58:19.000Z</time>
      </trkpt>
      <trkpt lat="45.066277" lon="5.239289">
        <ele>234.395429</ele>
        <time>2017-06-05T06:58:21.000Z</time>
      </trkpt>
      <trkpt lat="45.066360" lon="5.239112">
        <ele>234.316378</ele>
        <time>2017-06-05T06:58:23.000Z</time>
      </trkpt>
      <trkpt lat="45.066480" lon="5.239013">
        <ele>234.243212</ele>
        <time>2017-06-05T06:58:25.000Z</time>
      </trkpt>
      <trkpt lat="45.066612" lon="5.238904">
        <ele>234.162711</ele>
        <time>2017-06-05T06:58:27.000Z</time>
      </trkpt>
      <trkpt lat="45.066685" lon="5.238754">
        <ele>234.094934</ele>
        <time>2017-06-05T06:58:29.000Z</time>
      </trkpt>
      <trkpt lat="45.066723" lon="5.238549">
        <ele>234.016075</ele>
        <time>2017-06-05T06:58:31.000Z</time>
      </trkpt>
      <trkpt lat="45.066727" lon="5.238333">
        <ele>233.935680</ele>
        <time>2017-06-05T06:58:33.000Z</time>
      </trkpt>
      <trkpt lat="45.066780" lon="5.238167">
        <ele>233.867898</ele>
        <time>2017-06-05T06:58:35.000Z</time>
      </trkpt>
      <trkpt lat="45.066850" lon="5.238049">
        <ele>233.810561</ele>
        <time>2017-06-05T06:58:37.000Z</time>
      </trkpt>
      <trkpt lat="45.066933" lon="5.237948">
        <ele>233.752907</ele>
        <time>2017-06-05T06:58:39.000Z</time>
      </trkpt>
      <trkpt lat="45.066994" lon="5.237792">
        <ele>233.686561</ele>
        <time>2017-06-05T06:58:42.000Z</time>
      </trkpt>
      <trkpt lat="45.066986" lon="5.237611">
        <ele>233.619085</ele>
        <time>2017-06-05T06:58:45.000Z</time>
      </trkpt>
      <trkpt lat="45.066948" lon="5.237486">
        <ele>233.568450</ele>
        <time>2017-06-05T06:58:47.000Z</time>
      </trkpt>
      <trkpt lat="45.066900" lon="5.237369">
        <ele>233.710525</ele>
        <time>2017-06-05T06:58:49.000Z</time>
      </trkpt>
      <trkpt lat="45.066875" lon="5.237243">
        <ele>233.974823</ele>
        <time>2017-06-05T06:58:51.000Z</time>
      </trkpt>
      <trkpt lat="45.066853" lon="5.237107">
        <ele>234.256578</ele>
        <time>2017-06-05T06:58:53.000Z</time>
      </trkpt>
      <trkpt lat="45.066830" lon="5.236980">
        <ele>234.521343</ele>
        <time>2017-06-05T06:58:55.000Z</time>
      </trkpt>
      <trkpt lat="45.066803" lon="5.236804">
        <ele>234.885052</ele>
        <time>2017-06-05T06:58:58.000Z</time>
      </trkpt>
      <trkpt lat="45.066788" lon="5.236625">
        <ele>235.249066</ele>
        <time>2017-06-05T06:59:01.000Z</time>
      </trkpt>
      <trkpt lat="45.066760" lon="5.236451">
        <ele>235.609453</ele>
        <time>2017-06-05T06:59:04.000Z</time>
      </trkpt>
      <trkpt lat="45.066750" lon="5.236316">
        <ele>235.883573</ele>
        <time>2017-06-05T06:59:06.000Z</time>
      </trkpt>
      <trkpt lat="45.066750" lon="5.236143">
        <ele>236.232936</ele>
        <time>2017-06-05T06:59:09.000Z</time>
      </trkpt>
      <trkpt lat="45.066772" lon="5.235966">
        <ele>236.595869</ele>
        <time>2017-06-05T06:59:12.000Z</time>
      </trkpt>
      <trkpt lat="45.066803" lon="5.235786">
        <ele>236.970019</ele>
        <time>2017-06-05T06:59:15.000Z</time>
      </trkpt>
      <trkpt lat="45.066807" lon="5.235624">
        <ele>237.297367</ele>
        <time>2017-06-05T06:59:18.000Z</time>
      </trkpt>
      <trkpt lat="45.066800" lon="5.235475">
        <ele>237.598928</ele>
        <time>2017-06-05T06:59:21.000Z</time>
      </trkpt>
      <trkpt lat="45.066795" lon="5.235345">
        <ele>237.861844</ele>
        <time>2017-06-05T06:59:24.000Z</time>
      </trkpt>
      <trkpt lat="45.066795" lon="5.235213">
        <ele>238.128410</ele>
        <time>2017-06-05T06:59:27.000Z</time>
      </trkpt>
      <trkpt lat="45.066826" lon="5.235087">
        <ele>238.397855</ele>
        <time>2017-06-05T06:59:30.000Z</time>
      </trkpt>
      <trkpt lat="45.066875" lon="5.234936">
        <ele>238.706292</ele>
        <time>2017-06-05T06:59:33.000Z</time>
      </trkpt>
      <trkpt lat="45.066933" lon="5.234808">
        <ele>238.817819</ele>
        <time>2017-06-05T06:59:36.000Z</time>
      </trkpt>
      <trkpt lat="45.066970" lon="5.234668">
        <ele>238.927441</ele>
        <time>2017-06-05T06:59:39.000Z</time>
      </trkpt>
      <trkpt lat="45.067024" lon="5.234534">
        <ele>239.040580</ele>
        <time>2017-06-05T06:59:42.000Z</time>
      </trkpt>
      <trkpt lat="45.067097" lon="5.234401">
        <ele>239.164105</ele>
        <time>2017-06-05T06:59:45.000Z</time>
      </trkpt>
      <trkpt lat="45.067165" lon="5.234272">
        <ele>239.282151</ele>
        <time>2017-06-05T06:59:48.000Z</time>
      </trkpt>
      <trkpt lat="45.067226" lon="5.234114">
        <ele>239.414202</ele>
        <time>2017-06-05T06:59:51.000Z</time>
      </trkpt>
      <trkpt lat="45.067290" lon="5.233962">
        <ele>239.543975</ele>
        <time>2017-06-05T06:59:54.000Z</time>
      </trkpt>
      <trkpt lat="45.067364" lon="5.233808">
        <ele>239.680570</ele>
        <time>2017-06-05T06:59:57.000Z</time>
      </trkpt>
      <trkpt lat="45.067430" lon="5.233663">
        <ele>239.807075</ele>
        <time>2017-06-05T07:00:00.000Z</time>
      </trkpt>
      <trkpt lat="45.067500" lon="5.233520">
        <ele>239.934669</ele>
        <time>2017-06-05T07:00:03.000Z</time>
      </trkpt>
      <trkpt lat="45.067554" lon="5.233393">
        <ele>240.043379</ele>
        <time>2017-06-05T07:00:06.000Z</time>
      </trkpt>
      <trkpt lat="45.067616" lon="5.233277">
        <ele>240.150060</ele>
        <time>2017-06-05T07:00:09.000Z</time>
      </trkpt>
      <trkpt lat="45.067684" lon="5.233167">
        <ele>240.257263</ele>
        <time>2017-06-05T07:00:12.000Z</time>
      </trkpt>
      <trkpt lat="45.067760" lon="5.233059">
        <ele>240.369067</ele>
        <time>2017-06-05T07:00:15.000Z</time>
      </trkpt>
      <trkpt lat="45.067840" lon="5.232956">
        <ele>240.481340</ele>
        <time>2017-06-05T07:00:18.000Z</time>
      </trkpt>
      <trkpt lat="45.067920" lon="5.232860">
        <ele>240.635341</ele>
        <time>2017-06-05T07:00:21.000Z</time>
      </trkpt>
      <trkpt lat="45.067997" lon="5.232779">
        <ele>240.876119</ele>
        <time>2017-06-05T07:00:24.000Z</time>
      </trkpt>
      <trkpt lat="45.068077" lon="5.232695">
        <ele>241.126112</ele>
        <time>2017-06-05T07:00:27.000Z</time>
      </trkpt>
      <trkpt lat="45.068160" lon="5.232607">
        <ele>241.386381</ele>
        <time>2017-06-05T07:00:30.000Z</time>
      </trkpt>
      <trkpt lat="45.068240" lon="5.232519">
        <ele>241.640662</ele>
        <time>2017-06-05T07:00:33.000Z</time>
      </trkpt>
      <trkpt lat="45.068317" lon="5.232428">
        <ele>241.892414</ele>
        <time>2017-06-05T07:00:36.000Z</time>
      </trkpt>
      <trkpt lat="45.068382" lon="5.232337">
        <ele>242.121854</ele>
        <time>2017-06-05T07:00:39.000Z</time>
      </trkpt>
      <trkpt lat="45.068474" lon="5.232269">
        <ele>242.382349</ele>
        <time>2017-06-05T07:00:42.000Z</time>
      </trkpt>
      <trkpt lat="45.068580" lon="5.232217">
        <ele>242.663930</ele>
        <time>2017-06-05T07:00:45.000Z</time>
      </trkpt>
      <trkpt lat="45.068670" lon="5.232156">
        <ele>242.914383</ele>
        <time>2017-06-05T07:00:48.000Z</time>
      </trkpt>
      <trkpt lat="45.068756" lon="5.232096">
        <ele>243.155029</ele>
        <time>2017-06-05T07:00:51.000Z</time>
      </trkpt>
      <trkpt lat="45.068860" lon="5.232020">
        <ele>243.448790</ele>
        <time>2017-06-05T07:00:55.000Z</time>
      </trkpt>
      <trkpt lat="45.068935" lon="5.231949">
        <ele>243.675243</ele>
        <time>2017-06-05T07:00:58.000Z</time>
      </trkpt>
      <trkpt lat="45.069008" lon="5.231871">
        <ele>243.904795</ele>
        <time>2017-06-05T07:01:01.000Z</time>
      </trkpt>
      <trkpt lat="45.069070" lon="5.231780">
        <ele>244.128942</ele>
        <time>2017-06-05T07:01:04.000Z</time>
      </trkpt>
      <trkpt lat="45.069134" lon="5.231682">
        <ele>244.365558</ele>
        <time>2017-06-05T07:01:07.000Z</time>
      </trkpt>
      <trkpt lat="45.069190" lon="5.231582">
        <ele>244.591796</ele>
        <time>2017-06-05T07:01:10.000Z</time>
      </trkpt>
      <trkpt lat="45.069240" lon="5.231469">
        <ele>244.828181</ele>
        <time>2017-06-05T07:01:13.000Z</time>
      </trkpt>
      <trkpt lat="45.069298" lon="5.231348">
        <ele>245.091577</ele>
        <time>2017-06-05T07:01:16.000Z</time>
      </trkpt>
      <trkpt lat="45.069350" lon="5.231223">
        <ele>245.423280</ele>
        <time>2017-06-05T07:01:19.000Z</time>
      </trkpt>
      <trkpt lat="45.069405" lon="5.231094">
        <ele>245.767813</ele>
        <time>2017-06-05T07:01:22.000Z</time>
      </trkpt>
      <trkpt lat="45.069454" lon="5.230961">
        <ele>246.110801</ele>
        <time>2017-06-05T07:01:25.000Z</time>
      </trkpt>
      <trkpt lat="45.069523" lon="5.230834">
        <ele>246.477163</ele>
        <time>2017-06-05T07:01:28.000Z</time>
      </trkpt>
      <trkpt lat="45.069595" lon="5.230715">
        <ele>246.835444</ele>
        <time>2017-06-05T07:01:31.000Z</time>
      </trkpt>
      <trkpt lat="45.069680" lon="5.230602">
        <ele>247.212910</ele>
        <time>2017-06-05T07:01:34.000Z</time>
      </trkpt>
      <trkpt lat="45.069756" lon="5.230495">
        <ele>247.559886</ele>
        <time>2017-06-05T07:01:37.000Z</time>
      </trkpt>
      <trkpt lat="45.069824" lon="5.230390">
        <ele>247.885618</ele>
        <time>2017-06-05T07:01:40.000Z</time>
      </trkpt>
      <trkpt lat="45.069897" lon="5.230279">
        <ele>248.232412</ele>
        <time>2017-06-05T07:01:43.000Z</time>
      </trkpt>
      <trkpt lat="45.069973" lon="5.230158">
        <ele>248.602653</ele>
        <time>2017-06-05T07:01:46.000Z</time>
      </trkpt>
      <trkpt lat="45.070045" lon="5.230055">
        <ele>248.934008</ele>
        <time>2017-06-05T07:01:49.000Z</time>
      </trkpt>
      <trkpt lat="45.070118" lon="5.229940">
        <ele>249.287548</ele>
        <time>2017-06-05T07:01:52.000Z</time>
      </trkpt>
      <trkpt lat="45.070198" lon="5.229827">
        <ele>249.653379</ele>
        <time>2017-06-05T07:01:55.000Z</time>
      </trkpt>
      <trkpt lat="45.070274" lon="5.229709">
        <ele>250.018523</ele>
        <time>2017-06-05T07:01:58.000Z</time>
      </trkpt>
      <trkpt lat="45.070354" lon="5.229593">
        <ele>250.389230</ele>
        <time>2017-06-05T07:02:01.000Z</time>
      </trkpt>
      <trkpt lat="45.070442" lon="5.229487">
        <ele>250.763268</ele>
        <time>2017-06-05T07:02:04.000Z</time>
      </trkpt>
      <trkpt lat="45.070540" lon="5.229373">
        <ele>250.983881</ele>
        <time>2017-06-05T07:02:07.000Z</time>
      </trkpt>
      <trkpt lat="45.070630" lon="5.229277">
        <ele>251.099157</ele>
        <time>2017-06-05T07:02:10.000Z</time>
      </trkpt>
      <trkpt lat="45.070717" lon="5.229185">
        <ele>251.210243</ele>
        <time>2017-06-05T07:02:13.000Z</time>
      </trkpt>
      <trkpt lat="45.070797" lon="5.229076">
        <ele>251.323823</ele>
        <time>2017-06-05T07:02:16.000Z</time>
      </trkpt>
      <trkpt lat="45.070880" lon="5.228968">
        <ele>251.439143</ele>
        <time>2017-06-05T07:02:19.000Z</time>
      </trkpt>
      <trkpt lat="45.070972" lon="5.228869">
        <ele>251.557358</ele>
        <time>2017-06-05T07:02:22.000Z</time>
      </trkpt>
      <trkpt lat="45.071056" lon="5.228769">
        <ele>251.669630</ele>
        <time>2017-06-05T07:02:25.000Z</time>
      </trkpt>
      <trkpt lat="45.071136" lon="5.228673">
        <ele>251.776911</ele>
        <time>2017-06-05T07:02:28.000Z</time>
      </trkpt>
      <trkpt lat="45.071228" lon="5.228571">
        <ele>251.896450</ele>
        <time>2017-06-05T07:02:31.000Z</time>
      </trkpt>
      <trkpt lat="45.071323" lon="5.228462">
        <ele>252.021540</ele>
        <time>2017-06-05T07:02:34.000Z</time>
      </trkpt>
      <trkpt lat="45.071415" lon="5.228357">
        <ele>252.142427</ele>
        <time>2017-06-05T07:02:37.000Z</time>
      </trkpt>
      <trkpt lat="45.071514" lon="5.228254">
        <ele>252.268108</ele>
        <time>2017-06-05T07:02:40.000Z</time>
      </trkpt>
      <trkpt lat="45.071606" lon="5.228138">
        <ele>252.394134</ele>
        <time>2017-06-05T07:02:43.000Z</time>
      </trkpt>
      <trkpt lat="45.071705" lon="5.228013">
        <ele>252.529833</ele>
        <time>2017-06-05T07:02:46.000Z</time>
      </trkpt>
      <trkpt lat="45.071796" lon="5.227894">
        <ele>252.656557</ele>
        <time>2017-06-05T07:02:49.000Z</time>
      </trkpt>
      <trkpt lat="45.071870" lon="5.227813">
        <ele>252.734383</ele>
        <time>2017-06-05T07:02:51.000Z</time>
      </trkpt>
      <trkpt lat="45.071968" lon="5.227698">
        <ele>252.719721</ele>
        <time>2017-06-05T07:02:54.000Z</time>
      </trkpt>
      <trkpt lat="45.072070" lon="5.227579">
        <ele>252.704497</ele>
        <time>2017-06-05T07:02:57.000Z</time>
      </trkpt>
      <trkpt lat="45.072180" lon="5.227468">
        <ele>252.688937</ele>
        <time>2017-06-05T07:03:00.000Z</time>
      </trkpt>
      <trkpt lat="45.072280" lon="5.227366">
        <ele>252.674740</ele>
        <time>2017-06-05T07:03:03.000Z</time>
      </trkpt>
      <trkpt lat="45.072384" lon="5.227257">
        <ele>252.659835</ele>
        <time>2017-06-05T07:03:06.000Z</time>
      </trkpt>
      <trkpt lat="45.072480" lon="5.227149">
        <ele>252.645711</ele>
        <time>2017-06-05T07:03:09.000Z</time>
      </trkpt>
      <trkpt lat="45.072556" lon="5.227088">
        <ele>252.635647</ele>
        <time>2017-06-05T07:03:11.000Z</time>
      </trkpt>
      <trkpt lat="45.072640" lon="5.227016">
        <ele>252.624336</ele>
        <time>2017-06-05T07:03:13.000Z</time>
      </trkpt>
      <trkpt lat="45.072750" lon="5.226908">
        <ele>252.608917</ele>
        <time>2017-06-05T07:03:16.000Z</time>
      </trkpt>
      <trkpt lat="45.072870" lon="5.226819">
        <ele>252.593312</ele>
        <time>2017-06-05T07:03:19.000Z</time>
      </trkpt>
      <trkpt lat="45.072956" lon="5.226736">
        <ele>252.581323</ele>
        <time>2017-06-05T07:03:21.000Z</time>
      </trkpt>
      <trkpt lat="45.073032" lon="5.226672">
        <ele>252.571137</ele>
        <time>2017-06-05T07:03:23.000Z</time>
      </trkpt>
      <trkpt lat="45.073112" lon="5.226598">
        <ele>252.560129</ele>
        <time>2017-06-05T07:03:25.000Z</time>
      </trkpt>
      <trkpt lat="45.073200" lon="5.226522">
        <ele>252.548256</ele>
        <time>2017-06-05T07:03:27.000Z</time>
      </trkpt>
      <trkpt lat="45.073288" lon="5.226457">
        <ele>252.536822</ele>
        <time>2017-06-05T07:03:29.000Z</time>
      </trkpt>
      <trkpt lat="45.073370" lon="5.226383">
        <ele>252.437897</ele>
        <time>2017-06-05T07:03:31.000Z</time>
      </trkpt>
      <trkpt lat="45.073452" lon="5.226313">
        <ele>252.140160</ele>
        <time>2017-06-05T07:03:33.000Z</time>
      </trkpt>
      <trkpt lat="45.073530" lon="5.226236">
        <ele>251.844490</ele>
        <time>2017-06-05T07:03:35.000Z</time>
      </trkpt>
      <trkpt lat="45.073647" lon="5.226141">
        <ele>251.425102</ele>
        <time>2017-06-05T07:03:38.000Z</time>
      </trkpt>
      <trkpt lat="45.073727" lon="5.226065">
        <ele>251.125538</ele>
        <time>2017-06-05T07:03:40.000Z</time>
      </trkpt>
      <trkpt lat="45.073837" lon="5.225985">
        <ele>250.741009</ele>
        <time>2017-06-05T07:03:43.000Z</time>
      </trkpt>
      <trkpt lat="45.073960" lon="5.225904">
        <ele>250.319193</ele>
        <time>2017-06-05T07:03:46.000Z</time>
      </trkpt>
      <trkpt lat="45.074050" lon="5.225860">
        <ele>250.023121</ele>
        <time>2017-06-05T07:03:48.000Z</time>
      </trkpt>
      <trkpt lat="45.074146" lon="5.225828">
        <ele>249.716442</ele>
        <time>2017-06-05T07:03:50.000Z</time>
      </trkpt>
      <trkpt lat="45.074238" lon="5.225806">
        <ele>249.426311</ele>
        <time>2017-06-05T07:03:52.000Z</time>
      </trkpt>
      <trkpt lat="45.074345" lon="5.225794">
        <ele>249.092544</ele>
        <time>2017-06-05T07:03:54.000Z</time>
      </trkpt>
      <trkpt lat="45.074463" lon="5.225789">
        <ele>248.725450</ele>
        <time>2017-06-05T07:03:56.000Z</time>
      </trkpt>
      <trkpt lat="45.074585" lon="5.225777">
        <ele>248.345167</ele>
        <time>2017-06-05T07:03:58.000Z</time>
      </trkpt>
      <trkpt lat="45.074734" lon="5.225762">
        <ele>247.880671</ele>
        <time>2017-06-05T07:04:00.000Z</time>
      </trkpt>
      <trkpt lat="45.074910" lon="5.225776">
        <ele>247.332522</ele>
        <time>2017-06-05T07:04:02.000Z</time>
      </trkpt>
      <trkpt lat="45.075010" lon="5.225791">
        <ele>247.019825</ele>
        <time>2017-06-05T07:04:03.000Z</time>
      </trkpt>
      <trkpt lat="45.075104" lon="5.225810">
        <ele>246.829052</ele>
        <time>2017-06-05T07:04:04.000Z</time>
      </trkpt>
      <trkpt lat="45.075207" lon="5.225830">
        <ele>246.665550</ele>
        <time>2017-06-05T07:04:05.000Z</time>
      </trkpt>
      <trkpt lat="45.075306" lon="5.225837">
        <ele>246.509660</ele>
        <time>2017-06-05T07:04:06.000Z</time>
      </trkpt>
      <trkpt lat="45.075405" lon="5.225843">
        <ele>246.353822</ele>
        <time>2017-06-05T07:04:07.000Z</time>
      </trkpt>
      <trkpt lat="45.075510" lon="5.225844">
        <ele>246.188686</ele>
        <time>2017-06-05T07:04:08.000Z</time>
      </trkpt>
      <trkpt lat="45.075607" lon="5.225843">
        <ele>246.036132</ele>
        <time>2017-06-05T07:04:09.000Z</time>
      </trkpt>
      <trkpt lat="45.075700" lon="5.225845">
        <ele>245.889856</ele>
        <time>2017-06-05T07:04:10.000Z</time>
      </trkpt>
      <trkpt lat="45.075880" lon="5.225874">
        <ele>245.604946</ele>
        <time>2017-06-05T07:04:12.000Z</time>
      </trkpt>
      <trkpt lat="45.075966" lon="5.225899">
        <ele>245.466875</ele>
        <time>2017-06-05T07:04:13.000Z</time>
      </trkpt>
      <trkpt lat="45.076134" lon="5.225950">
        <ele>245.196661</ele>
        <time>2017-06-05T07:04:15.000Z</time>
      </trkpt>
      <trkpt lat="45.076270" lon="5.226001">
        <ele>244.975404</ele>
        <time>2017-06-05T07:04:17.000Z</time>
      </trkpt>
      <trkpt lat="45.076390" lon="5.225975">
        <ele>244.784486</ele>
        <time>2017-06-05T07:04:19.000Z</time>
      </trkpt>
      <trkpt lat="45.076477" lon="5.225887">
        <ele>244.616343</ele>
        <time>2017-06-05T07:04:21.000Z</time>
      </trkpt>
      <trkpt lat="45.076530" lon="5.225774">
        <ele>244.465690</ele>
        <time>2017-06-05T07:04:23.000Z</time>
      </trkpt>
      <trkpt lat="45.076576" lon="5.225642">
        <ele>244.302216</ele>
        <time>2017-06-05T07:04:25.000Z</time>
      </trkpt>
      <trkpt lat="45.076546" lon="5.225502">
        <ele>244.139736</ele>
        <time>2017-06-05T07:04:27.000Z</time>
      </trkpt>
      <trkpt lat="45.076470" lon="5.225362">
        <ele>244.250524</ele>
        <time>2017-06-05T07:04:29.000Z</time>
      </trkpt>
      <trkpt lat="45.076416" lon="5.225241">
        <ele>244.389665</ele>
        <time>2017-06-05T07:04:31.000Z</time>
      </trkpt>
      <trkpt lat="45.076366" lon="5.225121">
        <ele>244.525106</ele>
        <time>2017-06-05T07:04:33.000Z</time>
      </trkpt>
      <trkpt lat="45.076310" lon="5.225005">
        <ele>244.661699</ele>
        <time>2017-06-05T07:04:35.000Z</time>
      </trkpt>
      <trkpt lat="45.076260" lon="5.224884">
        <ele>244.797978</ele>
        <time>2017-06-05T07:04:37.000Z</time>
      </trkpt>
      <trkpt lat="45.076250" lon="5.224725">
        <ele>244.953151</ele>
        <time>2017-06-05T07:04:40.000Z</time>
      </trkpt>
      <trkpt lat="45.076283" lon="5.224603">
        <ele>245.080147</ele>
        <time>2017-06-05T07:04:43.000Z</time>
      </trkpt>
      <trkpt lat="45.076378" lon="5.224511">
        <ele>245.238575</ele>
        <time>2017-06-05T07:04:46.000Z</time>
      </trkpt>
      <trkpt lat="45.076496" lon="5.224458">
        <ele>245.408984</ele>
        <time>2017-06-05T07:04:49.000Z</time>
      </trkpt>
      <trkpt lat="45.076620" lon="5.224404">
        <ele>245.587566</ele>
        <time>2017-06-05T07:04:52.000Z</time>
      </trkpt>
      <trkpt lat="45.076740" lon="5.224343">
        <ele>245.763073</ele>
        <time>2017-06-05T07:04:55.000Z</time>
      </trkpt>
      <trkpt lat="45.076878" lon="5.224299">
        <ele>245.957794</ele>
        <time>2017-06-05T07:04:58.000Z</time>
      </trkpt>
      <trkpt lat="45.076992" lon="5.224261">
        <ele>246.119010</ele>
        <time>2017-06-05T07:05:01.000Z</time>
      </trkpt>
      <trkpt lat="45.077087" lon="5.224212">
        <ele>246.258188</ele>
        <time>2017-06-05T07:05:04.000Z</time>
      </trkpt>
      <trkpt lat="45.077183" lon="5.224171">
        <ele>246.396217</ele>
        <time>2017-06-05T07:05:29.000Z</time>
      </trkpt>
      <trkpt lat="45.077267" lon="5.224111">
        <ele>246.525724</ele>
        <time>2017-06-05T07:05:32.000Z</time>
      </trkpt>
      <trkpt lat="45.077360" lon="5.224067">
        <ele>246.497869</ele>
        <time>2017-06-05T07:05:35.000Z</time>
      </trkpt>
      <trkpt lat="45.077465" lon="5.224019">
        <ele>246.330565</ele>
        <time>2017-06-05T07:05:39.000Z</time>
      </trkpt>
      <trkpt lat="45.077553" lon="5.223986">
        <ele>246.192529</ele>
        <time>2017-06-05T07:05:42.000Z</time>
      </trkpt>
      <trkpt lat="45.077667" lon="5.223963">
        <ele>246.017923</ele>
        <time>2017-06-05T07:05:45.000Z</time>
      </trkpt>
      <trkpt lat="45.077778" lon="5.223945">
        <ele>245.848511</ele>
        <time>2017-06-05T07:05:47.000Z</time>
      </trkpt>
      <trkpt lat="45.077870" lon="5.223908">
        <ele>245.703493</ele>
        <time>2017-06-05T07:05:49.000Z</time>
      </trkpt>
      <trkpt lat="45.077970" lon="5.223873">
        <ele>245.547299</ele>
        <time>2017-06-05T07:05:51.000Z</time>
      </trkpt>
      <trkpt lat="45.078083" lon="5.223846">
        <ele>245.373532</ele>
        <time>2017-06-05T07:05:53.000Z</time>
      </trkpt>
      <trkpt lat="45.078194" lon="5.223801">
        <ele>245.198460</ele>
        <time>2017-06-05T07:05:55.000Z</time>
      </trkpt>
      <trkpt lat="45.078297" lon="5.223715">
        <ele>245.017153</ele>
        <time>2017-06-05T07:05:57.000Z</time>
      </trkpt>
      <trkpt lat="45.078373" lon="5.223591">
        <ele>244.841345</ele>
        <time>2017-06-05T07:05:59.000Z</time>
      </trkpt>
      <trkpt lat="45.078438" lon="5.223461">
        <ele>244.670788</ele>
        <time>2017-06-05T07:06:01.000Z</time>
      </trkpt>
      <trkpt lat="45.078500" lon="5.223314">
        <ele>244.487452</ele>
        <time>2017-06-05T07:06:03.000Z</time>
      </trkpt>
      <trkpt lat="45.078550" lon="5.223176">
        <ele>244.321376</ele>
        <time>2017-06-05T07:06:05.000Z</time>
      </trkpt>
      <trkpt lat="45.078598" lon="5.223039">
        <ele>244.157621</ele>
        <time>2017-06-05T07:06:07.000Z</time>
      </trkpt>
      <trkpt lat="45.078663" lon="5.222916">
        <ele>243.993125</ele>
        <time>2017-06-05T07:06:09.000Z</time>
      </trkpt>
      <trkpt lat="45.078705" lon="5.222784">
        <ele>243.834726</ele>
        <time>2017-06-05T07:06:11.000Z</time>
      </trkpt>
      <trkpt lat="45.078754" lon="5.222651">
        <ele>243.643617</ele>
        <time>2017-06-05T07:06:13.000Z</time>
      </trkpt>
      <trkpt lat="45.078800" lon="5.222536">
        <ele>243.475240</ele>
        <time>2017-06-05T07:06:15.000Z</time>
      </trkpt>
      <trkpt lat="45.078857" lon="5.222415">
        <ele>243.289940</ele>
        <time>2017-06-05T07:06:17.000Z</time>
      </trkpt>
      <trkpt lat="45.078910" lon="5.222294">
        <ele>243.108545</ele>
        <time>2017-06-05T07:06:19.000Z</time>
      </trkpt>
      <trkpt lat="45.078968" lon="5.222168">
        <ele>242.916934</ele>
        <time>2017-06-05T07:06:21.000Z</time>
      </trkpt>
      <trkpt lat="45.079025" lon="5.222045">
        <ele>242.729509</ele>
        <time>2017-06-05T07:06:23.000Z</time>
      </trkpt>
      <trkpt lat="45.079082" lon="5.221918">
        <ele>242.537803</ele>
        <time>2017-06-05T07:06:25.000Z</time>
      </trkpt>
      <trkpt lat="45.079113" lon="5.221764">
        <ele>242.333801</ele>
        <time>2017-06-05T07:06:27.000Z</time>
      </trkpt>
      <trkpt lat="45.079147" lon="5.221622">
        <ele>242.142785</ele>
        <time>2017-06-05T07:06:29.000Z</time>
      </trkpt>
      <trkpt lat="45.079178" lon="5.221480">
        <ele>241.953437</ele>
        <time>2017-06-05T07:06:31.000Z</time>
      </trkpt>
      <trkpt lat="45.079227" lon="5.221345">
        <ele>241.760066</ele>
        <time>2017-06-05T07:06:33.000Z</time>
      </trkpt>
      <trkpt lat="45.079285" lon="5.221221">
        <ele>241.570585</ele>
        <time>2017-06-05T07:06:35.000Z</time>
      </trkpt>
      <trkpt lat="45.079338" lon="5.221082">
        <ele>241.369342</ele>
        <time>2017-06-05T07:06:37.000Z</time>
      </trkpt>
      <trkpt lat="45.079372" lon="5.220927">
        <ele>241.162574</ele>
        <time>2017-06-05T07:06:39.000Z</time>
      </trkpt>
      <trkpt lat="45.079384" lon="5.220781">
        <ele>240.975324</ele>
        <time>2017-06-05T07:06:41.000Z</time>
      </trkpt>
      <trkpt lat="45.079414" lon="5.220646">
        <ele>240.795028</ele>
        <time>2017-06-05T07:06:43.000Z</time>
      </trkpt>
      <trkpt lat="45.079450" lon="5.220497">
        <ele>240.604547</ele>
        <time>2017-06-05T07:06:45.000Z</time>
      </trkpt>
      <trkpt lat="45.079464" lon="5.220342">
        <ele>240.527573</ele>
        <time>2017-06-05T07:06:47.000Z</time>
      </trkpt>
      <trkpt lat="45.079494" lon="5.220183">
        <ele>240.446503</ele>
        <time>2017-06-05T07:06:49.000Z</time>
      </trkpt>
      <trkpt lat="45.079525" lon="5.220018">
        <ele>240.362398</ele>
        <time>2017-06-05T07:06:51.000Z</time>
      </trkpt>
      <trkpt lat="45.079570" lon="5.219853">
        <ele>240.275269</ele>
        <time>2017-06-05T07:06:53.000Z</time>
      </trkpt>
      <trkpt lat="45.079617" lon="5.219685">
        <ele>240.186255</ele>
        <time>2017-06-05T07:06:55.000Z</time>
      </trkpt>
      <trkpt lat="45.079662" lon="5.219529">
        <ele>240.103247</ele>
        <time>2017-06-05T07:06:57.000Z</time>
      </trkpt>
      <trkpt lat="45.079704" lon="5.219373">
        <ele>240.021006</ele>
        <time>2017-06-05T07:06:59.000Z</time>
      </trkpt>
      <trkpt lat="45.079740" lon="5.219214">
        <ele>239.938757</ele>
        <time>2017-06-05T07:07:01.000Z</time>
      </trkpt>
      <trkpt lat="45.079780" lon="5.219067">
        <ele>239.861156</ele>
        <time>2017-06-05T07:07:03.000Z</time>
      </trkpt>
      <trkpt lat="45.079800" lon="5.218915">
        <ele>239.784993</ele>
        <time>2017-06-05T07:07:05.000Z</time>
      </trkpt>
      <trkpt lat="45.079800" lon="5.218751">
        <ele>239.704209</ele>
        <time>2017-06-05T07:07:07.000Z</time>
      </trkpt>
      <trkpt lat="45.079826" lon="5.218593">
        <ele>239.624294</ele>
        <time>2017-06-05T07:07:09.000Z</time>
      </trkpt>
      <trkpt lat="45.079900" lon="5.218476">
        <ele>239.546923</ele>
        <time>2017-06-05T07:07:11.000Z</time>
      </trkpt>
      <trkpt lat="45.079987" lon="5.218397">
        <ele>239.474827</ele>
        <time>2017-06-05T07:07:13.000Z</time>
      </trkpt>
      <trkpt lat="45.080067" lon="5.218307">
        <ele>239.403554</ele>
        <time>2017-06-05T07:07:15.000Z</time>
      </trkpt>
      <trkpt lat="45.080130" lon="5.218186">
        <ele>239.344967</ele>
        <time>2017-06-05T07:07:17.000Z</time>
      </trkpt>
      <trkpt lat="45.080173" lon="5.218057">
        <ele>239.315391</ele>
        <time>2017-06-05T07:07:19.000Z</time>
      </trkpt>
      <trkpt lat="45.080208" lon="5.217918">
        <ele>239.284795</ele>
        <time>2017-06-05T07:07:21.000Z</time>
      </trkpt>
      <trkpt lat="45.080246" lon="5.217783">
        <ele>239.254664</ele>
        <time>2017-06-05T07:07:23.000Z</time>
      </trkpt>
      <trkpt lat="45.080280" lon="5.217641">
        <ele>239.223576</ele>
        <time>2017-06-05T07:07:25.000Z</time>
      </trkpt>
      <trkpt lat="45.080320" lon="5.217504">
        <ele>239.192840</ele>
        <time>2017-06-05T07:07:27.000Z</time>
      </trkpt>
      <trkpt lat="45.080357" lon="5.217361">
        <ele>239.161264</ele>
        <time>2017-06-05T07:07:29.000Z</time>
      </trkpt>
      <trkpt lat="45.080400" lon="5.217224">
        <ele>239.130180</ele>
        <time>2017-06-05T07:07:31.000Z</time>
      </trkpt>
      <trkpt lat="45.080452" lon="5.217088">
        <ele>239.098115</ele>
        <time>2017-06-05T07:07:33.000Z</time>
      </trkpt>
      <trkpt lat="45.080517" lon="5.216965">
        <ele>239.066263</ele>
        <time>2017-06-05T07:07:35.000Z</time>
      </trkpt>
      <trkpt lat="45.080585" lon="5.216842">
        <ele>239.033875</ele>
        <time>2017-06-05T07:07:37.000Z</time>
      </trkpt>
      <trkpt lat="45.080650" lon="5.216715">
        <ele>239.001355</ele>
        <time>2017-06-05T07:07:39.000Z</time>
      </trkpt>
      <trkpt lat="45.080708" lon="5.216588">
        <ele>238.969997</ele>
        <time>2017-06-05T07:07:41.000Z</time>
      </trkpt>
      <trkpt lat="45.080750" lon="5.216447">
        <ele>238.938269</ele>
        <time>2017-06-05T07:07:43.000Z</time>
      </trkpt>
      <trkpt lat="45.080795" lon="5.216308">
        <ele>238.906566</ele>
        <time>2017-06-05T07:07:45.000Z</time>
      </trkpt>
      <trkpt lat="45.080840" lon="5.216166">
        <ele>238.874297</ele>
        <time>2017-06-05T07:07:47.000Z</time>
      </trkpt>
      <trkpt lat="45.080887" lon="5.216024">
        <ele>238.841782</ele>
        <time>2017-06-05T07:07:49.000Z</time>
      </trkpt>
      <trkpt lat="45.080936" lon="5.215884">
        <ele>238.845400</ele>
        <time>2017-06-05T07:07:51.000Z</time>
      </trkpt>
      <trkpt lat="45.080986" lon="5.215751">
        <ele>238.874305</ele>
        <time>2017-06-05T07:07:53.000Z</time>
      </trkpt>
      <trkpt lat="45.081028" lon="5.215622">
        <ele>238.901555</ele>
        <time>2017-06-05T07:07:55.000Z</time>
      </trkpt>
      <trkpt lat="45.081070" lon="5.215502">
        <ele>238.927248</ele>
        <time>2017-06-05T07:07:57.000Z</time>
      </trkpt>
      <trkpt lat="45.081116" lon="5.215383">
        <ele>238.953272</ele>
        <time>2017-06-05T07:07:59.000Z</time>
      </trkpt>
      <trkpt lat="45.081165" lon="5.215256">
        <ele>238.981035</ele>
        <time>2017-06-05T07:08:01.000Z</time>
      </trkpt>
      <trkpt lat="45.081210" lon="5.215128">
        <ele>239.008464</ele>
        <time>2017-06-05T07:08:03.000Z</time>
      </trkpt>
      <trkpt lat="45.081257" lon="5.215003">
        <ele>239.035631</ele>
        <time>2017-06-05T07:08:05.000Z</time>
      </trkpt>
      <trkpt lat="45.081300" lon="5.214882">
        <ele>239.061616</ele>
        <time>2017-06-05T07:08:07.000Z</time>
      </trkpt>
      <trkpt lat="45.081326" lon="5.214738">
        <ele>239.090129</ele>
        <time>2017-06-05T07:08:09.000Z</time>
      </trkpt>
      <trkpt lat="45.081352" lon="5.214591">
        <ele>239.119199</ele>
        <time>2017-06-05T07:08:11.000Z</time>
      </trkpt>
      <trkpt lat="45.081400" lon="5.214372">
        <ele>239.163187</ele>
        <time>2017-06-05T07:08:14.000Z</time>
      </trkpt>
      <trkpt lat="45.081467" lon="5.214220">
        <ele>239.197561</ele>
        <time>2017-06-05T07:08:16.000Z</time>
      </trkpt>
      <trkpt lat="45.081540" lon="5.214095">
        <ele>239.228678</ele>
        <time>2017-06-05T07:08:18.000Z</time>
      </trkpt>
      <trkpt lat="45.081604" lon="5.213965">
        <ele>239.259079</ele>
        <time>2017-06-05T07:08:20.000Z</time>
      </trkpt>
      <trkpt lat="45.081670" lon="5.213829">
        <ele>239.290735</ele>
        <time>2017-06-05T07:08:22.000Z</time>
      </trkpt>
      <trkpt lat="45.081720" lon="5.213691">
        <ele>239.329027</ele>
        <time>2017-06-05T07:08:24.000Z</time>
      </trkpt>
      <trkpt lat="45.081770" lon="5.213551">
        <ele>239.427642</ele>
        <time>2017-06-05T07:08:26.000Z</time>
      </trkpt>
      <trkpt lat="45.081825" lon="5.213406">
        <ele>239.531101</ele>
        <time>2017-06-05T07:08:28.000Z</time>
      </trkpt>
      <trkpt lat="45.081880" lon="5.213267">
        <ele>239.631254</ele>
        <time>2017-06-05T07:08:30.000Z</time>
      </trkpt>
      <trkpt lat="45.081940" lon="5.213126">
        <ele>239.734731</ele>
        <time>2017-06-05T07:08:32.000Z</time>
      </trkpt>
      <trkpt lat="45.082000" lon="5.212992">
        <ele>239.834465</ele>
        <time>2017-06-05T07:08:34.000Z</time>
      </trkpt>
      <trkpt lat="45.082040" lon="5.212840">
        <ele>239.936425</ele>
        <time>2017-06-05T07:08:36.000Z</time>
      </trkpt>
      <trkpt lat="45.082050" lon="5.212695">
        <ele>240.028000</ele>
        <time>2017-06-05T07:08:38.000Z</time>
      </trkpt>
      <trkpt lat="45.081997" lon="5.212589">
        <ele>240.109640</ele>
        <time>2017-06-05T07:08:40.000Z</time>
      </trkpt>
      <trkpt lat="45.081898" lon="5.212541">
        <ele>240.202790</ele>
        <time>2017-06-05T07:08:42.000Z</time>
      </trkpt>
      <trkpt lat="45.081783" lon="5.212489">
        <ele>240.310253</ele>
        <time>2017-06-05T07:08:44.000Z</time>
      </trkpt>
      <trkpt lat="45.081660" lon="5.212429">
        <ele>240.426059</ele>
        <time>2017-06-05T07:08:46.000Z</time>
      </trkpt>
      <trkpt lat="45.081528" lon="5.212352">
        <ele>240.553142</ele>
        <time>2017-06-05T07:08:48.000Z</time>
      </trkpt>
      <trkpt lat="45.081380" lon="5.212290">
        <ele>240.690533</ele>
        <time>2017-06-05T07:08:50.000Z</time>
      </trkpt>
      <trkpt lat="45.081240" lon="5.212240">
        <ele>240.819061</ele>
        <time>2017-06-05T07:08:52.000Z</time>
      </trkpt>
      <trkpt lat="45.081116" lon="5.212196">
        <ele>240.985436</ele>
        <time>2017-06-05T07:08:54.000Z</time>
      </trkpt>
      <trkpt lat="45.081017" lon="5.212146">
        <ele>241.407321</ele>
        <time>2017-06-05T07:08:56.000Z</time>
      </trkpt>
      <trkpt lat="45.080933" lon="5.212091">
        <ele>241.778776</ele>
        <time>2017-06-05T07:08:58.000Z</time>
      </trkpt>
      <trkpt lat="45.080826" lon="5.212050">
        <ele>242.223703</ele>
        <time>2017-06-05T07:09:01.000Z</time>
      </trkpt>
      <trkpt lat="45.080727" lon="5.212003">
        <ele>242.642808</ele>
        <time>2017-06-05T07:09:04.000Z</time>
      </trkpt>
      <trkpt lat="45.080627" lon="5.211953">
        <ele>243.068477</ele>
        <time>2017-06-05T07:09:07.000Z</time>
      </trkpt>
      <trkpt lat="45.080532" lon="5.211910">
        <ele>243.468796</ele>
        <time>2017-06-05T07:09:10.000Z</time>
      </trkpt>
      <trkpt lat="45.080486" lon="5.211764">
        <ele>243.921920</ele>
        <time>2017-06-05T07:09:14.000Z</time>
      </trkpt>
      <trkpt lat="45.080520" lon="5.211645">
        <ele>244.285759</ele>
        <time>2017-06-05T07:09:17.000Z</time>
      </trkpt>
      <trkpt lat="45.080560" lon="5.211493">
        <ele>244.745509</ele>
        <time>2017-06-05T07:09:21.000Z</time>
      </trkpt>
      <trkpt lat="45.080600" lon="5.211376">
        <ele>245.113938</ele>
        <time>2017-06-05T07:09:25.000Z</time>
      </trkpt>
      <trkpt lat="45.080658" lon="5.211250">
        <ele>245.540234</ele>
        <time>2017-06-05T07:10:54.000Z</time>
      </trkpt>
      <trkpt lat="45.080700" lon="5.211122">
        <ele>245.940272</ele>
        <time>2017-06-05T07:10:57.000Z</time>
      </trkpt>
      <trkpt lat="45.080746" lon="5.210964">
        <ele>246.424652</ele>
        <time>2017-06-05T07:11:00.000Z</time>
      </trkpt>
      <trkpt lat="45.080803" lon="5.210808">
        <ele>246.922480</ele>
        <time>2017-06-05T07:11:03.000Z</time>
      </trkpt>
      <trkpt lat="45.080850" lon="5.210688">
        <ele>247.311404</ele>
        <time>2017-06-05T07:11:06.000Z</time>
      </trkpt>
      <trkpt lat="45.080894" lon="5.210563">
        <ele>247.707263</ele>
        <time>2017-06-05T07:11:14.000Z</time>
      </trkpt>
      <trkpt lat="45.080944" lon="5.210435">
        <ele>248.121856</ele>
        <time>2017-06-05T07:11:20.000Z</time>
      </trkpt>
      <trkpt lat="45.080980" lon="5.210293">
        <ele>248.163621</ele>
        <time>2017-06-05T07:11:25.000Z</time>
      </trkpt>
      <trkpt lat="45.081020" lon="5.210175">
        <ele>248.187240</ele>
        <time>2017-06-05T07:11:28.000Z</time>
      </trkpt>
      <trkpt lat="45.081060" lon="5.210038">
        <ele>248.213990</ele>
        <time>2017-06-05T07:11:31.000Z</time>
      </trkpt>
      <trkpt lat="45.081127" lon="5.209915">
        <ele>248.242020</ele>
        <time>2017-06-05T07:11:35.000Z</time>
      </trkpt>
      <trkpt lat="45.081210" lon="5.209854">
        <ele>248.265916</ele>
        <time>2017-06-05T07:11:40.000Z</time>
      </trkpt>
      <trkpt lat="45.081314" lon="5.209714">
        <ele>248.302582</ele>
        <time>2017-06-05T07:12:35.000Z</time>
      </trkpt>
      <trkpt lat="45.081380" lon="5.209625">
        <ele>248.325871</ele>
        <time>2017-06-05T07:12:38.000Z</time>
      </trkpt>
      <trkpt lat="45.081448" lon="5.209522">
        <ele>248.351314</ele>
        <time>2017-06-05T07:12:41.000Z</time>
      </trkpt>
      <trkpt lat="45.081520" lon="5.209409">
        <ele>248.378778</ele>
        <time>2017-06-05T07:12:44.000Z</time>
      </trkpt>
      <trkpt lat="45.081585" lon="5.209319">
        <ele>248.402007</ele>
        <time>2017-06-05T07:12:47.000Z</time>
      </trkpt>
      <trkpt lat="45.081654" lon="5.209217">
        <ele>248.427495</ele>
        <time>2017-06-05T07:12:50.000Z</time>
      </trkpt>
      <trkpt lat="45.081726" lon="5.209097">
        <ele>248.455909</ele>
        <time>2017-06-05T07:12:53.000Z</time>
      </trkpt>
      <trkpt lat="45.081818" lon="5.208965">
        <ele>248.489375</ele>
        <time>2017-06-05T07:12:56.000Z</time>
      </trkpt>
      <trkpt lat="45.081905" lon="5.208829">
        <ele>248.522488</ele>
        <time>2017-06-05T07:12:59.000Z</time>
      </trkpt>
      <trkpt lat="45.081985" lon="5.208681">
        <ele>248.556119</ele>
        <time>2017-06-05T07:13:02.000Z</time>
      </trkpt>
      <trkpt lat="45.082058" lon="5.208534">
        <ele>248.588546</ele>
        <time>2017-06-05T07:13:05.000Z</time>
      </trkpt>
      <trkpt lat="45.082138" lon="5.208387">
        <ele>248.621981</ele>
        <time>2017-06-05T07:13:08.000Z</time>
      </trkpt>
      <trkpt lat="45.082210" lon="5.208239">
        <ele>248.654342</ele>
        <time>2017-06-05T07:13:11.000Z</time>
      </trkpt>
      <trkpt lat="45.082287" lon="5.208097">
        <ele>248.686579</ele>
        <time>2017-06-05T07:13:14.000Z</time>
      </trkpt>
      <trkpt lat="45.082336" lon="5.207990">
        <ele>248.709542</ele>
        <time>2017-06-05T07:13:16.000Z</time>
      </trkpt>
      <trkpt lat="45.082386" lon="5.207877">
        <ele>248.733553</ele>
        <time>2017-06-05T07:13:18.000Z</time>
      </trkpt>
      <trkpt lat="45.082428" lon="5.207737">
        <ele>248.760942</ele>
        <time>2017-06-05T07:13:20.000Z</time>
      </trkpt>
      <trkpt lat="45.082460" lon="5.207582">
        <ele>248.790019</ele>
        <time>2017-06-05T07:13:22.000Z</time>
      </trkpt>
      <trkpt lat="45.082480" lon="5.207426">
        <ele>248.818566</ele>
        <time>2017-06-05T07:13:24.000Z</time>
      </trkpt>
      <trkpt lat="45.082504" lon="5.207258">
        <ele>248.849428</ele>
        <time>2017-06-05T07:13:26.000Z</time>
      </trkpt>
      <trkpt lat="45.082527" lon="5.207103">
        <ele>248.877946</ele>
        <time>2017-06-05T07:13:28.000Z</time>
      </trkpt>
      <trkpt lat="45.082554" lon="5.206950">
        <ele>248.906342</ele>
        <time>2017-06-05T07:13:30.000Z</time>
      </trkpt>
      <trkpt lat="45.082580" lon="5.206795">
        <ele>248.935027</ele>
        <time>2017-06-05T07:13:32.000Z</time>
      </trkpt>
      <trkpt lat="45.082603" lon="5.206654">
        <ele>248.961083</ele>
        <time>2017-06-05T07:13:34.000Z</time>
      </trkpt>
      <trkpt lat="45.082634" lon="5.206521">
        <ele>248.986301</ele>
        <time>2017-06-05T07:13:36.000Z</time>
      </trkpt>
      <trkpt lat="45.082664" lon="5.206393">
        <ele>249.010584</ele>
        <time>2017-06-05T07:13:38.000Z</time>
      </trkpt>
      <trkpt lat="45.082700" lon="5.206256">
        <ele>249.036904</ele>
        <time>2017-06-05T07:13:40.000Z</time>
      </trkpt>
      <trkpt lat="45.082720" lon="5.206107">
        <ele>249.034479</ele>
        <time>2017-06-05T07:13:42.000Z</time>
      </trkpt>
      <trkpt lat="45.082730" lon="5.205955">
        <ele>248.966293</ele>
        <time>2017-06-05T07:13:44.000Z</time>
      </trkpt>
      <trkpt lat="45.082737" lon="5.205793">
        <ele>248.893799</ele>
        <time>2017-06-05T07:13:46.000Z</time>
      </trkpt>
      <trkpt lat="45.082740" lon="5.205633">
        <ele>248.822309</ele>
        <time>2017-06-05T07:13:48.000Z</time>
      </trkpt>
      <trkpt lat="45.082737" lon="5.205491">
        <ele>248.758855</ele>
        <time>2017-06-05T07:13:50.000Z</time>
      </trkpt>
      <trkpt lat="45.082726" lon="5.205343">
        <ele>248.692385</ele>
        <time>2017-06-05T07:13:52.000Z</time>
      </trkpt>
      <trkpt lat="45.082710" lon="5.205193">
        <ele>248.624626</ele>
        <time>2017-06-05T07:13:54.000Z</time>
      </trkpt>
      <trkpt lat="45.082703" lon="5.205059">
        <ele>248.564610</ele>
        <time>2017-06-05T07:13:56.000Z</time>
      </trkpt>
      <trkpt lat="45.082695" lon="5.204921">
        <ele>248.502764</ele>
        <time>2017-06-05T07:13:58.000Z</time>
      </trkpt>
      <trkpt lat="45.082684" lon="5.204786">
        <ele>248.442065</ele>
        <time>2017-06-05T07:14:00.000Z</time>
      </trkpt>
      <trkpt lat="45.082672" lon="5.204646">
        <ele>248.379074</ele>
        <time>2017-06-05T07:14:02.000Z</time>
      </trkpt>
      <trkpt lat="45.082664" lon="5.204506">
        <ele>248.316337</ele>
        <time>2017-06-05T07:14:04.000Z</time>
      </trkpt>
      <trkpt lat="45.082660" lon="5.204357">
        <ele>248.249737</ele>
        <time>2017-06-05T07:14:06.000Z</time>
      </trkpt>
      <trkpt lat="45.082657" lon="5.204213">
        <ele>248.185390</ele>
        <time>2017-06-05T07:14:08.000Z</time>
      </trkpt>
      <trkpt lat="45.082650" lon="5.204063">
        <ele>248.118246</ele>
        <time>2017-06-05T07:14:10.000Z</time>
      </trkpt>
      <trkpt lat="45.082645" lon="5.203910">
        <ele>248.049834</ele>
        <time>2017-06-05T07:14:12.000Z</time>
      </trkpt>
      <trkpt lat="45.082653" lon="5.203762">
        <ele>247.983535</ele>
        <time>2017-06-05T07:14:14.000Z</time>
      </trkpt>
      <trkpt lat="45.082664" lon="5.203607">
        <ele>247.920061</ele>
        <time>2017-06-05T07:14:16.000Z</time>
      </trkpt>
      <trkpt lat="45.082670" lon="5.203462">
        <ele>247.956126</ele>
        <time>2017-06-05T07:14:18.000Z</time>
      </trkpt>
      <trkpt lat="45.082672" lon="5.203323">
        <ele>247.990646</ele>
        <time>2017-06-05T07:14:20.000Z</time>
      </trkpt>
      <trkpt lat="45.082653" lon="5.203190">
        <ele>248.024339</ele>
        <time>2017-06-05T07:14:22.000Z</time>
      </trkpt>
      <trkpt lat="45.082634" lon="5.203061">
        <ele>248.057059</ele>
        <time>2017-06-05T07:14:24.000Z</time>
      </trkpt>
      <trkpt lat="45.082607" lon="5.202894">
        <ele>248.099598</ele>
        <time>2017-06-05T07:14:27.000Z</time>
      </trkpt>
      <trkpt lat="45.082600" lon="5.202734">
        <ele>248.139401</ele>
        <time>2017-06-05T07:14:30.000Z</time>
      </trkpt>
      <trkpt lat="45.082573" lon="5.202548">
        <ele>248.186551</ele>
        <time>2017-06-05T07:14:33.000Z</time>
      </trkpt>
      <trkpt lat="45.082542" lon="5.202411">
        <ele>248.222271</ele>
        <time>2017-06-05T07:14:35.000Z</time>
      </trkpt>
      <trkpt lat="45.082500" lon="5.202272">
        <ele>248.259812</ele>
        <time>2017-06-05T07:14:37.000Z</time>
      </trkpt>
      <trkpt lat="45.082460" lon="5.202116">
        <ele>248.301022</ele>
        <time>2017-06-05T07:14:39.000Z</time>
      </trkpt>
      <trkpt lat="45.082436" lon="5.201963">
        <ele>248.339937</ele>
        <time>2017-06-05T07:14:41.000Z</time>
      </trkpt>
      <trkpt lat="45.082430" lon="5.201828">
        <ele>248.373524</ele>
        <time>2017-06-05T07:14:43.000Z</time>
      </trkpt>
      <trkpt lat="45.082430" lon="5.201689">
        <ele>248.408038</ele>
        <time>2017-06-05T07:14:45.000Z</time>
      </trkpt>
      <trkpt lat="45.082428" lon="5.201546">
        <ele>248.443551</ele>
        <time>2017-06-05T07:14:47.000Z</time>
      </trkpt>
      <trkpt lat="45.082420" lon="5.201399">
        <ele>248.480159</ele>
        <time>2017-06-05T07:14:49.000Z</time>
      </trkpt>
      <trkpt lat="45.082410" lon="5.201252">
        <ele>248.516828</ele>
        <time>2017-06-05T07:14:51.000Z</time>
      </trkpt>
      <trkpt lat="45.082390" lon="5.201098">
        <ele>248.558846</ele>
        <time>2017-06-05T07:14:53.000Z</time>
      </trkpt>
      <trkpt lat="45.082382" lon="5.200938">
        <ele>248.622123</ele>
        <time>2017-06-05T07:14:55.000Z</time>
      </trkpt>
      <trkpt lat="45.082375" lon="5.200789">
        <ele>248.681032</ele>
        <time>2017-06-05T07:14:57.000Z</time>
      </trkpt>
      <trkpt lat="45.082382" lon="5.200629">
        <ele>248.744273</ele>
        <time>2017-06-05T07:14:59.000Z</time>
      </trkpt>
      <trkpt lat="45.082394" lon="5.200471">
        <ele>248.806962</ele>
        <time>2017-06-05T07:15:01.000Z</time>
      </trkpt>
      <trkpt lat="45.082410" lon="5.200320">
        <ele>248.867198</ele>
        <time>2017-06-05T07:15:03.000Z</time>
      </trkpt>
      <trkpt lat="45.082424" lon="5.200170">
        <ele>248.926887</ele>
        <time>2017-06-05T07:15:05.000Z</time>
      </trkpt>
      <trkpt lat="45.082440" lon="5.200021">
        <ele>248.986342</ele>
        <time>2017-06-05T07:15:07.000Z</time>
      </trkpt>
      <trkpt lat="45.082440" lon="5.199865">
        <ele>249.047883</ele>
        <time>2017-06-05T07:15:09.000Z</time>
      </trkpt>
      <trkpt lat="45.082430" lon="5.199705">
        <ele>249.111249</ele>
        <time>2017-06-05T07:15:11.000Z</time>
      </trkpt>
      <trkpt lat="45.082417" lon="5.199540">
        <ele>249.176744</ele>
        <time>2017-06-05T07:15:13.000Z</time>
      </trkpt>
      <trkpt lat="45.082394" lon="5.199391">
        <ele>249.236912</ele>
        <time>2017-06-05T07:15:15.000Z</time>
      </trkpt>
      <trkpt lat="45.082360" lon="5.199256">
        <ele>249.293455</ele>
        <time>2017-06-05T07:15:17.000Z</time>
      </trkpt>
      <trkpt lat="45.082290" lon="5.199163">
        <ele>249.347079</ele>
        <time>2017-06-05T07:15:19.000Z</time>
      </trkpt>
      <trkpt lat="45.082200" lon="5.199092">
        <ele>249.404637</ele>
        <time>2017-06-05T07:15:21.000Z</time>
      </trkpt>
      <trkpt lat="45.082092" lon="5.199033">
        <ele>249.469310</ele>
        <time>2017-06-05T07:15:23.000Z</time>
      </trkpt>
      <trkpt lat="45.081990" lon="5.198967">
        <ele>249.531964</ele>
        <time>2017-06-05T07:15:25.000Z</time>
      </trkpt>
      <trkpt lat="45.081898" lon="5.198898">
        <ele>249.657001</ele>
        <time>2017-06-05T07:15:27.000Z</time>
      </trkpt>
      <trkpt lat="45.081810" lon="5.198841">
        <ele>249.814829</ele>
        <time>2017-06-05T07:15:29.000Z</time>
      </trkpt>
      <trkpt lat="45.081700" lon="5.198769">
        <ele>250.012475</ele>
        <time>2017-06-05T07:15:32.000Z</time>
      </trkpt>
      <trkpt lat="45.081590" lon="5.198690">
        <ele>250.213636</ele>
        <time>2017-06-05T07:15:35.000Z</time>
      </trkpt>
      <trkpt lat="45.081497" lon="5.198628">
        <ele>250.381285</ele>
        <time>2017-06-05T07:15:38.000Z</time>
      </trkpt>
      <trkpt lat="45.081420" lon="5.198544">
        <ele>250.539811</ele>
        <time>2017-06-05T07:15:41.000Z</time>
      </trkpt>
      <trkpt lat="45.081364" lon="5.198399">
        <ele>250.730148</ele>
        <time>2017-06-05T07:15:45.000Z</time>
      </trkpt>
      <trkpt lat="45.081345" lon="5.198265">
        <ele>250.887551</ele>
        <time>2017-06-05T07:15:48.000Z</time>
      </trkpt>
      <trkpt lat="45.081367" lon="5.198116">
        <ele>251.062860</ele>
        <time>2017-06-05T07:15:51.000Z</time>
      </trkpt>
      <trkpt lat="45.081406" lon="5.197972">
        <ele>251.240479</ele>
        <time>2017-06-05T07:15:54.000Z</time>
      </trkpt>
      <trkpt lat="45.081450" lon="5.197812">
        <ele>251.438225</ele>
        <time>2017-06-05T07:15:57.000Z</time>
      </trkpt>
      <trkpt lat="45.081497" lon="5.197650">
        <ele>251.639928</ele>
        <time>2017-06-05T07:16:00.000Z</time>
      </trkpt>
      <trkpt lat="45.081540" lon="5.197479">
        <ele>251.848977</ele>
        <time>2017-06-05T07:16:03.000Z</time>
      </trkpt>
      <trkpt lat="45.081596" lon="5.197303">
        <ele>252.071296</ele>
        <time>2017-06-05T07:16:06.000Z</time>
      </trkpt>
      <trkpt lat="45.081635" lon="5.197179">
        <ele>252.227627</ele>
        <time>2017-06-05T07:16:08.000Z</time>
      </trkpt>
      <trkpt lat="45.081673" lon="5.197045">
        <ele>252.393929</ele>
        <time>2017-06-05T07:16:10.000Z</time>
      </trkpt>
      <trkpt lat="45.081710" lon="5.196921">
        <ele>252.457728</ele>
        <time>2017-06-05T07:16:12.000Z</time>
      </trkpt>
      <trkpt lat="45.081753" lon="5.196787">
        <ele>252.369815</ele>
        <time>2017-06-05T07:16:14.000Z</time>
      </trkpt>
      <trkpt lat="45.081787" lon="5.196663">
        <ele>252.290364</ele>
        <time>2017-06-05T07:16:16.000Z</time>
      </trkpt>
      <trkpt lat="45.081820" lon="5.196531">
        <ele>252.206728</ele>
        <time>2017-06-05T07:16:18.000Z</time>
      </trkpt>
      <trkpt lat="45.081860" lon="5.196401">
        <ele>252.122030</ele>
        <time>2017-06-05T07:16:20.000Z</time>
      </trkpt>
      <trkpt lat="45.081898" lon="5.196266">
        <ele>252.035226</ele>
        <time>2017-06-05T07:16:22.000Z</time>
      </trkpt>
      <trkpt lat="45.081940" lon="5.196136">
        <ele>251.949838</ele>
        <time>2017-06-05T07:16:24.000Z</time>
      </trkpt>
      <trkpt lat="45.081978" lon="5.195992">
        <ele>251.858020</ele>
        <time>2017-06-05T07:16:26.000Z</time>
      </trkpt>
      <trkpt lat="45.082012" lon="5.195842">
        <ele>251.763926</ele>
        <time>2017-06-05T07:16:28.000Z</time>
      </trkpt>
      <trkpt lat="45.082035" lon="5.195691">
        <ele>251.671662</ele>
        <time>2017-06-05T07:16:30.000Z</time>
      </trkpt>
      <trkpt lat="45.082027" lon="5.195541">
        <ele>251.581816</ele>
        <time>2017-06-05T07:16:32.000Z</time>
      </trkpt>
      <trkpt lat="45.082000" lon="5.195397">
        <ele>251.492827</ele>
        <time>2017-06-05T07:16:34.000Z</time>
      </trkpt>
      <trkpt lat="45.081966" lon="5.195248">
        <ele>251.399301</ele>
        <time>2017-06-05T07:16:36.000Z</time>
      </trkpt>
      <trkpt lat="45.081924" lon="5.195098">
        <ele>251.302923</ele>
        <time>2017-06-05T07:16:38.000Z</time>
      </trkpt>
      <trkpt lat="45.081886" lon="5.194955">
        <ele>251.211664</ele>
        <time>2017-06-05T07:16:40.000Z</time>
      </trkpt>
      <trkpt lat="45.081852" lon="5.194802">
        <ele>251.115861</ele>
        <time>2017-06-05T07:16:42.000Z</time>
      </trkpt>
      <trkpt lat="45.081810" lon="5.194665">
        <ele>251.026654</ele>
        <time>2017-06-05T07:16:44.000Z</time>
      </trkpt>
      <trkpt lat="45.081768" lon="5.194530">
        <ele>250.974929</ele>
        <time>2017-06-05T07:16:46.000Z</time>
      </trkpt>
      <trkpt lat="45.081722" lon="5.194391">
        <ele>250.998714</ele>
        <time>2017-06-05T07:16:48.000Z</time>
      </trkpt>
      <trkpt lat="45.081680" lon="5.194262">
        <ele>251.020723</ele>
        <time>2017-06-05T07:16:50.000Z</time>
      </trkpt>
      <trkpt lat="45.081640" lon="5.194138">
        <ele>251.041845</ele>
        <time>2017-06-05T07:16:52.000Z</time>
      </trkpt>
      <trkpt lat="45.081596" lon="5.194013">
        <ele>251.063485</ele>
        <time>2017-06-05T07:16:54.000Z</time>
      </trkpt>
      <trkpt lat="45.081543" lon="5.193890">
        <ele>251.085811</ele>
        <time>2017-06-05T07:16:56.000Z</time>
      </trkpt>
      <trkpt lat="45.081490" lon="5.193772">
        <ele>251.107479</ele>
        <time>2017-06-05T07:16:58.000Z</time>
      </trkpt>
      <trkpt lat="45.081436" lon="5.193655">
        <ele>251.129136</ele>
        <time>2017-06-05T07:17:00.000Z</time>
      </trkpt>
      <trkpt lat="45.081387" lon="5.193538">
        <ele>251.150212</ele>
        <time>2017-06-05T07:17:02.000Z</time>
      </trkpt>
      <trkpt lat="45.081333" lon="5.193426">
        <ele>251.171225</ele>
        <time>2017-06-05T07:17:04.000Z</time>
      </trkpt>
      <trkpt lat="45.081257" lon="5.193257">
        <ele>251.202269</ele>
        <time>2017-06-05T07:17:07.000Z</time>
      </trkpt>
      <trkpt lat="45.081210" lon="5.193148">
        <ele>251.222057</ele>
        <time>2017-06-05T07:17:09.000Z</time>
      </trkpt>
      <trkpt lat="45.081160" lon="5.193037">
        <ele>251.242457</ele>
        <time>2017-06-05T07:17:11.000Z</time>
      </trkpt>
      <trkpt lat="45.081104" lon="5.192926">
        <ele>251.263594</ele>
        <time>2017-06-05T07:17:13.000Z</time>
      </trkpt>
      <trkpt lat="45.081055" lon="5.192810">
        <ele>251.284537</ele>
        <time>2017-06-05T07:17:15.000Z</time>
      </trkpt>
      <trkpt lat="45.080980" lon="5.192654">
        <ele>251.313778</ele>
        <time>2017-06-05T07:17:18.000Z</time>
      </trkpt>
      <trkpt lat="45.080902" lon="5.192511">
        <ele>251.341776</ele>
        <time>2017-06-05T07:17:21.000Z</time>
      </trkpt>
      <trkpt lat="45.080833" lon="5.192420">
        <ele>251.360654</ele>
        <time>2017-06-05T07:17:23.000Z</time>
      </trkpt>
      <trkpt lat="45.080770" lon="5.192318">
        <ele>251.275628</ele>
        <time>2017-06-05T07:17:25.000Z</time>
      </trkpt>
      <trkpt lat="45.080704" lon="5.192212">
        <ele>251.186956</ele>
        <time>2017-06-05T07:17:27.000Z</time>
      </trkpt>
      <trkpt lat="45.080640" lon="5.192111">
        <ele>251.101810</ele>
        <time>2017-06-05T07:17:29.000Z</time>
      </trkpt>
      <trkpt lat="45.080550" lon="5.191969">
        <ele>250.982088</ele>
        <time>2017-06-05T07:17:32.000Z</time>
      </trkpt>
      <trkpt lat="45.080486" lon="5.191876">
        <ele>250.900609</ele>
        <time>2017-06-05T07:17:34.000Z</time>
      </trkpt>
      <trkpt lat="45.080395" lon="5.191758">
        <ele>250.790974</ele>
        <time>2017-06-05T07:17:37.000Z</time>
      </trkpt>
      <trkpt lat="45.080307" lon="5.191652">
        <ele>250.688321</ele>
        <time>2017-06-05T07:17:40.000Z</time>
      </trkpt>
      <trkpt lat="45.080204" lon="5.191536">
        <ele>250.571386</ele>
        <time>2017-06-05T07:17:43.000Z</time>
      </trkpt>
      <trkpt lat="45.080130" lon="5.191452">
        <ele>250.487116</ele>
        <time>2017-06-05T07:17:45.000Z</time>
      </trkpt>
      <trkpt lat="45.080048" lon="5.191360">
        <ele>250.394159</ele>
        <time>2017-06-05T07:17:47.000Z</time>
      </trkpt>
      <trkpt lat="45.079967" lon="5.191258">
        <ele>250.297846</ele>
        <time>2017-06-05T07:17:49.000Z</time>
      </trkpt>
      <trkpt lat="45.079887" lon="5.191140">
        <ele>250.195207</ele>
        <time>2017-06-05T07:17:51.000Z</time>
      </trkpt>
      <trkpt lat="45.079800" lon="5.191039">
        <ele>250.095247</ele>
        <time>2017-06-05T07:17:53.000Z</time>
      </trkpt>
      <trkpt lat="45.079716" lon="5.190920">
        <ele>249.989672</ele>
        <time>2017-06-05T07:17:55.000Z</time>
      </trkpt>
      <trkpt lat="45.079640" lon="5.190802">
        <ele>249.889462</ele>
        <time>2017-06-05T07:17:57.000Z</time>
      </trkpt>
      <trkpt lat="45.079575" lon="5.190693">
        <ele>249.799945</ele>
        <time>2017-06-05T07:17:59.000Z</time>
      </trkpt>
      <trkpt lat="45.079510" lon="5.190589">
        <ele>249.687806</ele>
        <time>2017-06-05T07:18:01.000Z</time>
      </trkpt>
      <trkpt lat="45.079445" lon="5.190486">
        <ele>249.558719</ele>
        <time>2017-06-05T07:18:03.000Z</time>
      </trkpt>
      <trkpt lat="45.079384" lon="5.190379">
        <ele>249.430210</ele>
        <time>2017-06-05T07:18:05.000Z</time>
      </trkpt>
      <trkpt lat="45.079320" lon="5.190271">
        <ele>249.298457</ele>
        <time>2017-06-05T07:18:07.000Z</time>
      </trkpt>
      <trkpt lat="45.079254" lon="5.190167">
        <ele>249.167790</ele>
        <time>2017-06-05T07:18:09.000Z</time>
      </trkpt>
      <trkpt lat="45.079190" lon="5.190054">
        <ele>249.032424</ele>
        <time>2017-06-05T07:18:11.000Z</time>
      </trkpt>
      <trkpt lat="45.079105" lon="5.189914">
        <ele>248.859888</ele>
        <time>2017-06-05T07:18:14.000Z</time>
      </trkpt>
      <trkpt lat="45.079044" lon="5.189815">
        <ele>248.737106</ele>
        <time>2017-06-05T07:18:16.000Z</time>
      </trkpt>
      <trkpt lat="45.078983" lon="5.189712">
        <ele>248.611483</ele>
        <time>2017-06-05T07:18:18.000Z</time>
      </trkpt>
      <trkpt lat="45.078920" lon="5.189599">
        <ele>248.476941</ele>
        <time>2017-06-05T07:18:20.000Z</time>
      </trkpt>
      <trkpt lat="45.078850" lon="5.189490">
        <ele>248.339258</ele>
        <time>2017-06-05T07:18:22.000Z</time>
      </trkpt>
      <trkpt lat="45.078790" lon="5.189378">
        <ele>248.207884</ele>
        <time>2017-06-05T07:18:24.000Z</time>
      </trkpt>
      <trkpt lat="45.078730" lon="5.189261">
        <ele>248.072759</ele>
        <time>2017-06-05T07:18:26.000Z</time>
      </trkpt>
      <trkpt lat="45.078674" lon="5.189157">
        <ele>247.950541</ele>
        <time>2017-06-05T07:18:28.000Z</time>
      </trkpt>
      <trkpt lat="45.078617" lon="5.189048">
        <ele>247.823792</ele>
        <time>2017-06-05T07:18:30.000Z</time>
      </trkpt>
      <trkpt lat="45.078568" lon="5.188941">
        <ele>247.704616</ele>
        <time>2017-06-05T07:18:32.000Z</time>
      </trkpt>
      <trkpt lat="45.078510" lon="5.188830">
        <ele>247.575577</ele>
        <time>2017-06-05T07:18:34.000Z</time>
      </trkpt>
      <trkpt lat="45.078450" lon="5.188710">
        <ele>247.438173</ele>
        <time>2017-06-05T07:18:36.000Z</time>
      </trkpt>
      <trkpt lat="45.078390" lon="5.188599">
        <ele>247.420951</ele>
        <time>2017-06-05T07:18:38.000Z</time>
      </trkpt>
      <trkpt lat="45.078327" lon="5.188483">
        <ele>247.488122</ele>
        <time>2017-06-05T07:18:40.000Z</time>
      </trkpt>
      <trkpt lat="45.078274" lon="5.188377">
        <ele>247.547737</ele>
        <time>2017-06-05T07:18:42.000Z</time>
      </trkpt>
      <trkpt lat="45.078194" lon="5.188225">
        <ele>247.634752</ele>
        <time>2017-06-05T07:18:45.000Z</time>
      </trkpt>
      <trkpt lat="45.078120" lon="5.188080">
        <ele>247.716869</ele>
        <time>2017-06-05T07:18:48.000Z</time>
      </trkpt>
      <trkpt lat="45.078033" lon="5.187940">
        <ele>247.802469</ele>
        <time>2017-06-05T07:18:51.000Z</time>
      </trkpt>
      <trkpt lat="45.077972" lon="5.187842">
        <ele>247.862432</ele>
        <time>2017-06-05T07:18:53.000Z</time>
      </trkpt>
      <trkpt lat="45.077908" lon="5.187752">
        <ele>247.921059</ele>
        <time>2017-06-05T07:18:55.000Z</time>
      </trkpt>
      <trkpt lat="45.077840" lon="5.187656">
        <ele>247.983472</ele>
        <time>2017-06-05T07:18:57.000Z</time>
      </trkpt>
      <trkpt lat="45.077766" lon="5.187556">
        <ele>248.049959</ele>
        <time>2017-06-05T07:18:59.000Z</time>
      </trkpt>
      <trkpt lat="45.077700" lon="5.187463">
        <ele>248.110479</ele>
        <time>2017-06-05T07:19:01.000Z</time>
      </trkpt>
      <trkpt lat="45.077630" lon="5.187367">
        <ele>248.173819</ele>
        <time>2017-06-05T07:19:03.000Z</time>
      </trkpt>
      <trkpt lat="45.077550" lon="5.187230">
        <ele>248.255418</ele>
        <time>2017-06-05T07:19:06.000Z</time>
      </trkpt>
      <trkpt lat="45.077496" lon="5.187058">
        <ele>248.341818</ele>
        <time>2017-06-05T07:19:09.000Z</time>
      </trkpt>
      <trkpt lat="45.077484" lon="5.186912">
        <ele>248.409285</ele>
        <time>2017-06-05T07:19:11.000Z</time>
      </trkpt>
      <trkpt lat="45.077460" lon="5.186775">
        <ele>248.474075</ele>
        <time>2017-06-05T07:19:13.000Z</time>
      </trkpt>
      <trkpt lat="45.077423" lon="5.186650">
        <ele>248.536287</ele>
        <time>2017-06-05T07:19:15.000Z</time>
      </trkpt>
      <trkpt lat="45.077362" lon="5.186493">
        <ele>248.324667</ele>
        <time>2017-06-05T07:19:18.000Z</time>
      </trkpt>
      <trkpt lat="45.077312" lon="5.186349">
        <ele>248.069405</ele>
        <time>2017-06-05T07:19:21.000Z</time>
      </trkpt>
      <trkpt lat="45.077297" lon="5.186199">
        <ele>247.828412</ele>
        <time>2017-06-05T07:19:25.000Z</time>
      </trkpt>
      <trkpt lat="45.077343" lon="5.186091">
        <ele>247.627779</ele>
        <time>2017-06-05T07:19:29.000Z</time>
      </trkpt>
      <trkpt lat="45.077390" lon="5.185960">
        <ele>247.394037</ele>
        <time>2017-06-05T07:19:32.000Z</time>
      </trkpt>
      <trkpt lat="45.077400" lon="5.185833">
        <ele>247.190760</ele>
        <time>2017-06-05T07:19:34.000Z</time>
      </trkpt>
      <trkpt lat="45.077420" lon="5.185690">
        <ele>246.958865</ele>
        <time>2017-06-05T07:19:36.000Z</time>
      </trkpt>
      <trkpt lat="45.077430" lon="5.185542">
        <ele>246.722360</ele>
        <time>2017-06-05T07:19:38.000Z</time>
      </trkpt>
      <trkpt lat="45.077435" lon="5.185389">
        <ele>246.478715</ele>
        <time>2017-06-05T07:19:40.000Z</time>
      </trkpt>
      <trkpt lat="45.077442" lon="5.185233">
        <ele>246.230058</ele>
        <time>2017-06-05T07:19:42.000Z</time>
      </trkpt>
      <trkpt lat="45.077450" lon="5.185081">
        <ele>245.987595</ele>
        <time>2017-06-05T07:19:44.000Z</time>
      </trkpt>
      <trkpt lat="45.077465" lon="5.184929">
        <ele>245.743452</ele>
        <time>2017-06-05T07:19:46.000Z</time>
      </trkpt>
      <trkpt lat="45.077480" lon="5.184792">
        <ele>245.522916</ele>
        <time>2017-06-05T07:19:48.000Z</time>
      </trkpt>
      <trkpt lat="45.077503" lon="5.184660">
        <ele>245.306640</ele>
        <time>2017-06-05T07:19:50.000Z</time>
      </trkpt>
      <trkpt lat="45.077538" lon="5.184526">
        <ele>245.079366</ele>
        <time>2017-06-05T07:19:52.000Z</time>
      </trkpt>
      <trkpt lat="45.077570" lon="5.184403">
        <ele>244.870848</ele>
        <time>2017-06-05T07:19:54.000Z</time>
      </trkpt>
      <trkpt lat="45.077633" lon="5.184230">
        <ele>244.561211</ele>
        <time>2017-06-05T07:19:57.000Z</time>
      </trkpt>
      <trkpt lat="45.077656" lon="5.184088">
        <ele>244.429294</ele>
        <time>2017-06-05T07:19:59.000Z</time>
      </trkpt>
      <trkpt lat="45.077680" lon="5.183952">
        <ele>244.336134</ele>
        <time>2017-06-05T07:20:01.000Z</time>
      </trkpt>
      <trkpt lat="45.077698" lon="5.183827">
        <ele>244.251353</ele>
        <time>2017-06-05T07:20:03.000Z</time>
      </trkpt>
      <trkpt lat="45.077717" lon="5.183689">
        <ele>244.157917</ele>
        <time>2017-06-05T07:20:05.000Z</time>
      </trkpt>
      <trkpt lat="45.077740" lon="5.183549">
        <ele>244.062393</ele>
        <time>2017-06-05T07:20:07.000Z</time>
      </trkpt>
      <trkpt lat="45.077763" lon="5.183425">
        <ele>243.977192</ele>
        <time>2017-06-05T07:20:09.000Z</time>
      </trkpt>
      <trkpt lat="45.077785" lon="5.183298">
        <ele>243.890290</ele>
        <time>2017-06-05T07:20:11.000Z</time>
      </trkpt>
      <trkpt lat="45.077810" lon="5.183166">
        <ele>243.799467</ele>
        <time>2017-06-05T07:20:13.000Z</time>
      </trkpt>
      <trkpt lat="45.077827" lon="5.183031">
        <ele>243.708335</ele>
        <time>2017-06-05T07:20:15.000Z</time>
      </trkpt>
      <trkpt lat="45.077847" lon="5.182899">
        <ele>243.618616</ele>
        <time>2017-06-05T07:20:17.000Z</time>
      </trkpt>
      <trkpt lat="45.077870" lon="5.182769">
        <ele>243.529553</ele>
        <time>2017-06-05T07:20:19.000Z</time>
      </trkpt>
      <trkpt lat="45.077892" lon="5.182577">
        <ele>243.400288</ele>
        <time>2017-06-05T07:20:22.000Z</time>
      </trkpt>
      <trkpt lat="45.077910" lon="5.182444">
        <ele>243.310293</ele>
        <time>2017-06-05T07:20:24.000Z</time>
      </trkpt>
      <trkpt lat="45.077927" lon="5.182312">
        <ele>243.221123</ele>
        <time>2017-06-05T07:20:26.000Z</time>
      </trkpt>
      <trkpt lat="45.077946" lon="5.182174">
        <ele>243.127687</ele>
        <time>2017-06-05T07:20:28.000Z</time>
      </trkpt>
      <trkpt lat="45.077960" lon="5.182030">
        <ele>243.031087</ele>
        <time>2017-06-05T07:20:30.000Z</time>
      </trkpt>
      <trkpt lat="45.077976" lon="5.181887">
        <ele>242.934869</ele>
        <time>2017-06-05T07:20:32.000Z</time>
      </trkpt>
      <trkpt lat="45.077990" lon="5.181747">
        <ele>242.840903</ele>
        <time>2017-06-05T07:20:34.000Z</time>
      </trkpt>
      <trkpt lat="45.078003" lon="5.181620">
        <ele>242.522224</ele>
        <time>2017-06-05T07:20:36.000Z</time>
      </trkpt>
      <trkpt lat="45.078020" lon="5.181486">
        <ele>242.030136</ele>
        <time>2017-06-05T07:20:38.000Z</time>
      </trkpt>
      <trkpt lat="45.078030" lon="5.181343">
        <ele>241.510745</ele>
        <time>2017-06-05T07:20:40.000Z</time>
      </trkpt>
      <trkpt lat="45.078050" lon="5.181166">
        <ele>240.862852</ele>
        <time>2017-06-05T07:20:43.000Z</time>
      </trkpt>
      <trkpt lat="45.078060" lon="5.181011">
        <ele>240.300283</ele>
        <time>2017-06-05T07:20:46.000Z</time>
      </trkpt>
      <trkpt lat="45.078070" lon="5.180812">
        <ele>239.579193</ele>
        <time>2017-06-05T07:20:49.000Z</time>
      </trkpt>
      <trkpt lat="45.078090" lon="5.180660">
        <ele>239.020344</ele>
        <time>2017-06-05T07:20:51.000Z</time>
      </trkpt>
      <trkpt lat="45.078117" lon="5.180513">
        <ele>238.471344</ele>
        <time>2017-06-05T07:20:53.000Z</time>
      </trkpt>
      <trkpt lat="45.078133" lon="5.180360">
        <ele>237.912306</ele>
        <time>2017-06-05T07:20:55.000Z</time>
      </trkpt>
      <trkpt lat="45.078156" lon="5.180200">
        <ele>237.322138</ele>
        <time>2017-06-05T07:20:57.000Z</time>
      </trkpt>
      <trkpt lat="45.078163" lon="5.180042">
        <ele>236.749936</ele>
        <time>2017-06-05T07:20:59.000Z</time>
      </trkpt>
      <trkpt lat="45.078156" lon="5.179888">
        <ele>236.192164</ele>
        <time>2017-06-05T07:21:01.000Z</time>
      </trkpt>
      <trkpt lat="45.078136" lon="5.179731">
        <ele>235.615540</ele>
        <time>2017-06-05T07:21:03.000Z</time>
      </trkpt>
      <trkpt lat="45.078102" lon="5.179570">
        <ele>235.008152</ele>
        <time>2017-06-05T07:21:05.000Z</time>
      </trkpt>
      <trkpt lat="45.078064" lon="5.179414">
        <ele>234.411696</ele>
        <time>2017-06-05T07:21:07.000Z</time>
      </trkpt>
      <trkpt lat="45.078033" lon="5.179282">
        <ele>233.908898</ele>
        <time>2017-06-05T07:21:09.000Z</time>
      </trkpt>
      <trkpt lat="45.077995" lon="5.179113">
        <ele>233.332073</ele>
        <time>2017-06-05T07:21:12.000Z</time>
      </trkpt>
      <trkpt lat="45.077960" lon="5.178970">
        <ele>232.890270</ele>
        <time>2017-06-05T07:21:15.000Z</time>
      </trkpt>
      <trkpt lat="45.077920" lon="5.178794">
        <ele>232.350545</ele>
        <time>2017-06-05T07:21:18.000Z</time>
      </trkpt>
      <trkpt lat="45.077892" lon="5.178667">
        <ele>231.962163</ele>
        <time>2017-06-05T07:21:20.000Z</time>
      </trkpt>
      <trkpt lat="45.077880" lon="5.178530">
        <ele>231.559174</ele>
        <time>2017-06-05T07:21:23.000Z</time>
      </trkpt>
      <trkpt lat="45.077866" lon="5.178330">
        <ele>230.972481</ele>
        <time>2017-06-05T07:21:26.000Z</time>
      </trkpt>
      <trkpt lat="45.077860" lon="5.178163">
        <ele>230.484351</ele>
        <time>2017-06-05T07:21:28.000Z</time>
      </trkpt>
      <trkpt lat="45.077870" lon="5.178001">
        <ele>230.009644</ele>
        <time>2017-06-05T07:21:30.000Z</time>
      </trkpt>
      <trkpt lat="45.077880" lon="5.177844">
        <ele>229.549476</ele>
        <time>2017-06-05T07:21:32.000Z</time>
      </trkpt>
      <trkpt lat="45.077880" lon="5.177695">
        <ele>229.114522</ele>
        <time>2017-06-05T07:21:34.000Z</time>
      </trkpt>
      <trkpt lat="45.077805" lon="5.177579">
        <ele>228.655400</ele>
        <time>2017-06-05T07:21:37.000Z</time>
      </trkpt>
      <trkpt lat="45.077690" lon="5.177510">
        <ele>228.139088</ele>
        <time>2017-06-05T07:21:40.000Z</time>
      </trkpt>
      <trkpt lat="45.077587" lon="5.177468">
        <ele>227.695993</ele>
        <time>2017-06-05T07:21:42.000Z</time>
      </trkpt>
      <trkpt lat="45.077484" lon="5.177434">
        <ele>227.258783</ele>
        <time>2017-06-05T07:21:44.000Z</time>
      </trkpt>
      <trkpt lat="45.077377" lon="5.177383">
        <ele>226.792070</ele>
        <time>2017-06-05T07:21:46.000Z</time>
      </trkpt>
      <trkpt lat="45.077274" lon="5.177329">
        <ele>226.338032</ele>
        <time>2017-06-05T07:21:48.000Z</time>
      </trkpt>
      <trkpt lat="45.077180" lon="5.177310">
        <ele>226.060863</ele>
        <time>2017-06-05T07:21:50.000Z</time>
      </trkpt>
      <trkpt lat="45.077053" lon="5.177310">
        <ele>225.810170</ele>
        <time>2017-06-05T07:21:53.000Z</time>
      </trkpt>
      <trkpt lat="45.076965" lon="5.177259">
        <ele>225.622477</ele>
        <time>2017-06-05T07:21:57.000Z</time>
      </trkpt>
      <trkpt lat="45.076920" lon="5.177387">
        <ele>225.423165</ele>
        <time>2017-06-05T07:22:12.000Z</time>
      </trkpt>
      <trkpt lat="45.076862" lon="5.177537">
        <ele>225.184782</ele>
        <time>2017-06-05T07:22:16.000Z</time>
      </trkpt>
      <trkpt lat="45.076828" lon="5.177679">
        <ele>224.975775</ele>
        <time>2017-06-05T07:22:19.000Z</time>
      </trkpt>
      <trkpt lat="45.076756" lon="5.177794">
        <ele>224.761540</ele>
        <time>2017-06-05T07:22:22.000Z</time>
      </trkpt>
      <trkpt lat="45.076694" lon="5.177890">
        <ele>224.580197</ele>
        <time>2017-06-05T07:22:25.000Z</time>
      </trkpt>
      <trkpt lat="45.076588" lon="5.177857">
        <ele>224.365960</ele>
        <time>2017-06-05T07:22:29.000Z</time>
      </trkpt>
      <trkpt lat="45.076504" lon="5.177790">
        <ele>224.175653</ele>
        <time>2017-06-05T07:22:32.000Z</time>
      </trkpt>
      <trkpt lat="45.076420" lon="5.177686">
        <ele>223.955403</ele>
        <time>2017-06-05T07:22:35.000Z</time>
      </trkpt>
      <trkpt lat="45.076317" lon="5.177581">
        <ele>223.704882</ele>
        <time>2017-06-05T07:22:38.000Z</time>
      </trkpt>
      <trkpt lat="45.076230" lon="5.177467">
        <ele>223.470905</ele>
        <time>2017-06-05T07:22:41.000Z</time>
      </trkpt>
      <trkpt lat="45.076120" lon="5.177360">
        <ele>223.207476</ele>
        <time>2017-06-05T07:22:44.000Z</time>
      </trkpt>
      <trkpt lat="45.076030" lon="5.177311">
        <ele>223.017142</ele>
        <time>2017-06-05T07:22:46.000Z</time>
      </trkpt>
      <trkpt lat="45.075912" lon="5.177267">
        <ele>222.776274</ele>
        <time>2017-06-05T07:22:49.000Z</time>
      </trkpt>
      <trkpt lat="45.075817" lon="5.177231">
        <ele>222.597878</ele>
        <time>2017-06-05T07:22:51.000Z</time>
      </trkpt>
      <trkpt lat="45.075718" lon="5.177210">
        <ele>222.492561</ele>
        <time>2017-06-05T07:22:53.000Z</time>
      </trkpt>
      <trkpt lat="45.075610" lon="5.177183">
        <ele>222.377179</ele>
        <time>2017-06-05T07:22:55.000Z</time>
      </trkpt>
      <trkpt lat="45.075512" lon="5.177159">
        <ele>222.272546</ele>
        <time>2017-06-05T07:22:57.000Z</time>
      </trkpt>
      <trkpt lat="45.075413" lon="5.177129">
        <ele>222.166032</ele>
        <time>2017-06-05T07:22:59.000Z</time>
      </trkpt>
      <trkpt lat="45.075320" lon="5.177099">
        <ele>222.065683</ele>
        <time>2017-06-05T07:23:01.000Z</time>
      </trkpt>
      <trkpt lat="45.075226" lon="5.177072">
        <ele>221.964774</ele>
        <time>2017-06-05T07:23:03.000Z</time>
      </trkpt>
      <trkpt lat="45.075127" lon="5.177045">
        <ele>221.858704</ele>
        <time>2017-06-05T07:23:05.000Z</time>
      </trkpt>
      <trkpt lat="45.075030" lon="5.177015">
        <ele>221.754247</ele>
        <time>2017-06-05T07:23:07.000Z</time>
      </trkpt>
      <trkpt lat="45.074930" lon="5.176982">
        <ele>221.646221</ele>
        <time>2017-06-05T07:23:09.000Z</time>
      </trkpt>
      <trkpt lat="45.074830" lon="5.176941">
        <ele>221.536692</ele>
        <time>2017-06-05T07:23:11.000Z</time>
      </trkpt>
      <trkpt lat="45.074726" lon="5.176896">
        <ele>221.422282</ele>
        <time>2017-06-05T07:23:13.000Z</time>
      </trkpt>
      <trkpt lat="45.074627" lon="5.176857">
        <ele>221.314172</ele>
        <time>2017-06-05T07:23:15.000Z</time>
      </trkpt>
      <trkpt lat="45.074528" lon="5.176816">
        <ele>221.205653</ele>
        <time>2017-06-05T07:23:17.000Z</time>
      </trkpt>
      <trkpt lat="45.074436" lon="5.176771">
        <ele>221.103251</ele>
        <time>2017-06-05T07:23:19.000Z</time>
      </trkpt>
      <trkpt lat="45.074352" lon="5.176721">
        <ele>221.007386</ele>
        <time>2017-06-05T07:23:21.000Z</time>
      </trkpt>
      <trkpt lat="45.074260" lon="5.176686">
        <ele>220.907163</ele>
        <time>2017-06-05T07:23:23.000Z</time>
      </trkpt>
      <trkpt lat="45.074135" lon="5.176659">
        <ele>220.774133</ele>
        <time>2017-06-05T07:23:26.000Z</time>
      </trkpt>
      <trkpt lat="45.074020" lon="5.176602">
        <ele>220.620104</ele>
        <time>2017-06-05T07:23:29.000Z</time>
      </trkpt>
      <trkpt lat="45.073906" lon="5.176537">
        <ele>220.447738</ele>
        <time>2017-06-05T07:23:32.000Z</time>
      </trkpt>
      <trkpt lat="45.073810" lon="5.176495">
        <ele>220.306813</ele>
        <time>2017-06-05T07:23:34.000Z</time>
      </trkpt>
      <trkpt lat="45.073720" lon="5.176439">
        <ele>220.168934</ele>
        <time>2017-06-05T07:23:36.000Z</time>
      </trkpt>
      <trkpt lat="45.073612" lon="5.176339">
        <ele>219.987949</ele>
        <time>2017-06-05T07:23:39.000Z</time>
      </trkpt>
      <trkpt lat="45.073530" lon="5.176256">
        <ele>219.846579</ele>
        <time>2017-06-05T07:23:41.000Z</time>
      </trkpt>
      <trkpt lat="45.073433" lon="5.176178">
        <ele>219.690125</ele>
        <time>2017-06-05T07:23:43.000Z</time>
      </trkpt>
      <trkpt lat="45.073364" lon="5.176064">
        <ele>219.541412</ele>
        <time>2017-06-05T07:23:45.000Z</time>
      </trkpt>
      <trkpt lat="45.073296" lon="5.175956">
        <ele>219.398097</ele>
        <time>2017-06-05T07:23:47.000Z</time>
      </trkpt>
      <trkpt lat="45.073210" lon="5.175887">
        <ele>219.259461</ele>
        <time>2017-06-05T07:23:49.000Z</time>
      </trkpt>
      <trkpt lat="45.073116" lon="5.175821">
        <ele>219.112303</ele>
        <time>2017-06-05T07:23:51.000Z</time>
      </trkpt>
      <trkpt lat="45.073010" lon="5.175760">
        <ele>218.951824</ele>
        <time>2017-06-05T07:23:53.000Z</time>
      </trkpt>
      <trkpt lat="45.072914" lon="5.175700">
        <ele>218.804647</ele>
        <time>2017-06-05T07:23:55.000Z</time>
      </trkpt>
      <trkpt lat="45.072803" lon="5.175677">
        <ele>218.647305</ele>
        <time>2017-06-05T07:23:57.000Z</time>
      </trkpt>
      <trkpt lat="45.072700" lon="5.175660">
        <ele>218.501864</ele>
        <time>2017-06-05T07:23:59.000Z</time>
      </trkpt>
      <trkpt lat="45.072600" lon="5.175610">
        <ele>218.353122</ele>
        <time>2017-06-05T07:24:01.000Z</time>
      </trkpt>
      <trkpt lat="45.072510" lon="5.175550">
        <ele>218.213602</ele>
        <time>2017-06-05T07:24:03.000Z</time>
      </trkpt>
      <trkpt lat="45.072426" lon="5.175472">
        <ele>218.477792</ele>
        <time>2017-06-05T07:24:05.000Z</time>
      </trkpt>
      <trkpt lat="45.072334" lon="5.175404">
        <ele>218.792469</ele>
        <time>2017-06-05T07:24:07.000Z</time>
      </trkpt>
      <trkpt lat="45.072243" lon="5.175332">
        <ele>219.108551</ele>
        <time>2017-06-05T07:24:09.000Z</time>
      </trkpt>
      <trkpt lat="45.072136" lon="5.175260">
        <ele>219.467765</ele>
        <time>2017-06-05T07:24:11.000Z</time>
      </trkpt>
      <trkpt lat="45.072020" lon="5.175212">
        <ele>219.834208</ele>
        <time>2017-06-05T07:24:13.000Z</time>
      </trkpt>
      <trkpt lat="45.071907" lon="5.175171">
        <ele>220.187914</ele>
        <time>2017-06-05T07:24:15.000Z</time>
      </trkpt>
      <trkpt lat="45.071790" lon="5.175115">
        <ele>220.562398</ele>
        <time>2017-06-05T07:24:17.000Z</time>
      </trkpt>
      <trkpt lat="45.071660" lon="5.175088">
        <ele>220.960799</ele>
        <time>2017-06-05T07:24:19.000Z</time>
      </trkpt>
      <trkpt lat="45.071545" lon="5.175089">
        <ele>221.309507</ele>
        <time>2017-06-05T07:24:21.000Z</time>
      </trkpt>
      <trkpt lat="45.071445" lon="5.175102">
        <ele>221.614000</ele>
        <time>2017-06-05T07:24:23.000Z</time>
      </trkpt>
      <trkpt lat="45.071340" lon="5.175148">
        <ele>221.947269</ele>
        <time>2017-06-05T07:24:26.000Z</time>
      </trkpt>
      <trkpt lat="45.071247" lon="5.175176">
        <ele>222.235566</ele>
        <time>2017-06-05T07:24:28.000Z</time>
      </trkpt>
      <trkpt lat="45.071163" lon="5.175225">
        <ele>222.511036</ele>
        <time>2017-06-05T07:24:31.000Z</time>
      </trkpt>
      <trkpt lat="45.071110" lon="5.175346">
        <ele>222.815937</ele>
        <time>2017-06-05T07:24:36.000Z</time>
      </trkpt>
      <trkpt lat="45.071160" lon="5.175465">
        <ele>223.112454</ele>
        <time>2017-06-05T07:24:41.000Z</time>
      </trkpt>
      <trkpt lat="45.071194" lon="5.175588">
        <ele>223.395305</ele>
        <time>2017-06-05T07:24:46.000Z</time>
      </trkpt>
      <trkpt lat="45.071117" lon="5.175664">
        <ele>223.750767</ele>
        <time>2017-06-05T07:24:51.000Z</time>
      </trkpt>
      <trkpt lat="45.071037" lon="5.175722">
        <ele>224.787429</ele>
        <time>2017-06-05T07:24:55.000Z</time>
      </trkpt>
      <trkpt lat="45.070960" lon="5.175791">
        <ele>225.838479</ele>
        <time>2017-06-05T07:25:00.000Z</time>
      </trkpt>
      <trkpt lat="45.070995" lon="5.175917">
        <ele>226.941394</ele>
        <time>2017-06-05T07:25:06.000Z</time>
      </trkpt>
      <trkpt lat="45.071056" lon="5.176021">
        <ele>228.042635</ele>
        <time>2017-06-05T07:25:13.000Z</time>
      </trkpt>
      <trkpt lat="45.071110" lon="5.176132">
        <ele>229.140587</ele>
        <time>2017-06-05T07:25:19.000Z</time>
      </trkpt>
      <trkpt lat="45.071030" lon="5.176221">
        <ele>230.314063</ele>
        <time>2017-06-05T07:25:26.000Z</time>
      </trkpt>
      <trkpt lat="45.070970" lon="5.176330">
        <ele>231.439809</ele>
        <time>2017-06-05T07:25:33.000Z</time>
      </trkpt>
      <trkpt lat="45.071003" lon="5.176448">
        <ele>232.473639</ele>
        <time>2017-06-05T07:25:39.000Z</time>
      </trkpt>
      <trkpt lat="45.071045" lon="5.176562">
        <ele>233.521030</ele>
        <time>2017-06-05T07:25:44.000Z</time>
      </trkpt>
      <trkpt lat="45.071070" lon="5.176706">
        <ele>234.728954</ele>
        <time>2017-06-05T07:25:50.000Z</time>
      </trkpt>
      <trkpt lat="45.071053" lon="5.176856">
        <ele>235.966462</ele>
        <time>2017-06-05T07:25:56.000Z</time>
      </trkpt>
      <trkpt lat="45.071102" lon="5.176962">
        <ele>236.998445</ele>
        <time>2017-06-05T07:26:04.000Z</time>
      </trkpt>
      <trkpt lat="45.071045" lon="5.176852">
        <ele>238.109812</ele>
        <time>2017-06-05T07:26:13.000Z</time>
      </trkpt>
      <trkpt lat="45.070988" lon="5.176743">
        <ele>239.214622</ele>
        <time>2017-06-05T07:26:22.000Z</time>
      </trkpt>
      <trkpt lat="45.070927" lon="5.176615">
        <ele>240.472476</ele>
        <time>2017-06-05T07:26:28.000Z</time>
      </trkpt>
      <trkpt lat="45.070866" lon="5.176489">
        <ele>241.716860</ele>
        <time>2017-06-05T07:26:33.000Z</time>
      </trkpt>
      <trkpt lat="45.070810" lon="5.176368">
        <ele>242.895299</ele>
        <time>2017-06-05T07:26:39.000Z</time>
      </trkpt>
      <trkpt lat="45.070760" lon="5.176234">
        <ele>244.129833</ele>
        <time>2017-06-05T07:26:45.000Z</time>
      </trkpt>
      <trkpt lat="45.070717" lon="5.176094">
        <ele>244.497801</ele>
        <time>2017-06-05T07:26:50.000Z</time>
      </trkpt>
      <trkpt lat="45.070675" lon="5.175962">
        <ele>244.615562</ele>
        <time>2017-06-05T07:26:55.000Z</time>
      </trkpt>
      <trkpt lat="45.070650" lon="5.175837">
        <ele>244.721235</ele>
        <time>2017-06-05T07:26:59.000Z</time>
      </trkpt>
      <trkpt lat="45.070620" lon="5.175695">
        <ele>244.841794</ele>
        <time>2017-06-05T07:27:05.000Z</time>
      </trkpt>
      <trkpt lat="45.070595" lon="5.175573">
        <ele>244.945120</ele>
        <time>2017-06-05T07:27:09.000Z</time>
      </trkpt>
      <trkpt lat="45.070557" lon="5.175427">
        <ele>245.071683</ele>
        <time>2017-06-05T07:27:13.000Z</time>
      </trkpt>
      <trkpt lat="45.070530" lon="5.175303">
        <ele>245.177229</ele>
        <time>2017-06-05T07:27:16.000Z</time>
      </trkpt>
      <trkpt lat="45.070500" lon="5.175145">
        <ele>245.310309</ele>
        <time>2017-06-05T07:27:20.000Z</time>
      </trkpt>
      <trkpt lat="45.070454" lon="5.175016">
        <ele>245.427853</ele>
        <time>2017-06-05T07:27:23.000Z</time>
      </trkpt>
      <trkpt lat="45.070404" lon="5.174895">
        <ele>245.541883</ele>
        <time>2017-06-05T07:27:26.000Z</time>
      </trkpt>
      <trkpt lat="45.070347" lon="5.174784">
        <ele>245.653514</ele>
        <time>2017-06-05T07:27:29.000Z</time>
      </trkpt>
      <trkpt lat="45.070282" lon="5.174661">
        <ele>245.778470</ele>
        <time>2017-06-05T07:27:32.000Z</time>
      </trkpt>
      <trkpt lat="45.070200" lon="5.174552">
        <ele>245.908007</ele>
        <time>2017-06-05T07:27:35.000Z</time>
      </trkpt>
      <trkpt lat="45.070130" lon="5.174453">
        <ele>246.021956</ele>
        <time>2017-06-05T07:27:38.000Z</time>
      </trkpt>
      <trkpt lat="45.070050" lon="5.174367">
        <ele>246.137640</ele>
        <time>2017-06-05T07:27:41.000Z</time>
      </trkpt>
      <trkpt lat="45.069973" lon="5.174275">
        <ele>246.253677</ele>
        <time>2017-06-05T07:27:44.000Z</time>
      </trkpt>
      <trkpt lat="45.069900" lon="5.174181">
        <ele>246.367321</ele>
        <time>2017-06-05T07:27:47.000Z</time>
      </trkpt>
      <trkpt lat="45.069817" lon="5.174069">
        <ele>246.444150</ele>
        <time>2017-06-05T07:27:50.000Z</time>
      </trkpt>
      <trkpt lat="45.069730" lon="5.173951">
        <ele>246.300727</ele>
        <time>2017-06-05T07:27:53.000Z</time>
      </trkpt>
      <trkpt lat="45.069640" lon="5.173835">
        <ele>246.155840</ele>
        <time>2017-06-05T07:27:56.000Z</time>
      </trkpt>
      <trkpt lat="45.069557" lon="5.173719">
        <ele>246.017003</ele>
        <time>2017-06-05T07:27:59.000Z</time>
      </trkpt>
      <trkpt lat="45.069473" lon="5.173608">
        <ele>245.880217</ele>
        <time>2017-06-05T07:28:02.000Z</time>
      </trkpt>
      <trkpt lat="45.069397" lon="5.173493">
        <ele>245.747797</ele>
        <time>2017-06-05T07:28:05.000Z</time>
      </trkpt>
      <trkpt lat="45.069300" lon="5.173380">
        <ele>245.598258</ele>
        <time>2017-06-05T07:28:08.000Z</time>
      </trkpt>
      <trkpt lat="45.069200" lon="5.173279">
        <ele>245.452025</ele>
        <time>2017-06-05T07:28:11.000Z</time>
      </trkpt>
      <trkpt lat="45.069088" lon="5.173185">
        <ele>245.297026</ele>
        <time>2017-06-05T07:28:14.000Z</time>
      </trkpt>
      <trkpt lat="45.069010" lon="5.173116">
        <ele>245.187535</ele>
        <time>2017-06-05T07:28:16.000Z</time>
      </trkpt>
      <trkpt lat="45.068930" lon="5.173053">
        <ele>245.078556</ele>
        <time>2017-06-05T07:28:18.000Z</time>
      </trkpt>
      <trkpt lat="45.068810" lon="5.172967">
        <ele>244.918440</ele>
        <time>2017-06-05T07:28:21.000Z</time>
      </trkpt>
      <trkpt lat="45.068726" lon="5.172911">
        <ele>244.807908</ele>
        <time>2017-06-05T07:28:23.000Z</time>
      </trkpt>
      <trkpt lat="45.068640" lon="5.172854">
        <ele>244.694864</ele>
        <time>2017-06-05T07:28:25.000Z</time>
      </trkpt>
      <trkpt lat="45.068560" lon="5.172790">
        <ele>244.585474</ele>
        <time>2017-06-05T07:28:27.000Z</time>
      </trkpt>
      <trkpt lat="45.068480" lon="5.172722">
        <ele>244.474391</ele>
        <time>2017-06-05T07:28:29.000Z</time>
      </trkpt>
      <trkpt lat="45.068405" lon="5.172643">
        <ele>244.363106</ele>
        <time>2017-06-05T07:28:31.000Z</time>
      </trkpt>
      <trkpt lat="45.068300" lon="5.172521">
        <ele>244.111011</ele>
        <time>2017-06-05T07:28:34.000Z</time>
      </trkpt>
      <trkpt lat="45.068233" lon="5.172434">
        <ele>243.927264</ele>
        <time>2017-06-05T07:28:36.000Z</time>
      </trkpt>
      <trkpt lat="45.068157" lon="5.172326">
        <ele>243.709627</ele>
        <time>2017-06-05T07:28:38.000Z</time>
      </trkpt>
      <trkpt lat="45.068090" lon="5.172229">
        <ele>243.515946</ele>
        <time>2017-06-05T07:28:40.000Z</time>
      </trkpt>
      <trkpt lat="45.068010" lon="5.172134">
        <ele>243.304908</ele>
        <time>2017-06-05T07:28:42.000Z</time>
      </trkpt>
      <trkpt lat="45.067932" lon="5.172046">
        <ele>243.103324</ele>
        <time>2017-06-05T07:28:44.000Z</time>
      </trkpt>
      <trkpt lat="45.067852" lon="5.171944">
        <ele>242.885730</ele>
        <time>2017-06-05T07:28:46.000Z</time>
      </trkpt>
      <trkpt lat="45.067776" lon="5.171839">
        <ele>242.671105</ele>
        <time>2017-06-05T07:28:48.000Z</time>
      </trkpt>
      <trkpt lat="45.067696" lon="5.171750">
        <ele>242.465466</ele>
        <time>2017-06-05T07:28:50.000Z</time>
      </trkpt>
      <trkpt lat="45.067620" lon="5.171652">
        <ele>242.257697</ele>
        <time>2017-06-05T07:28:52.000Z</time>
      </trkpt>
      <trkpt lat="45.067540" lon="5.171556">
        <ele>242.045738</ele>
        <time>2017-06-05T07:28:54.000Z</time>
      </trkpt>
      <trkpt lat="45.067467" lon="5.171467">
        <ele>241.851027</ele>
        <time>2017-06-05T07:28:56.000Z</time>
      </trkpt>
      <trkpt lat="45.067390" lon="5.171395">
        <ele>241.664517</ele>
        <time>2017-06-05T07:28:58.000Z</time>
      </trkpt>
      <trkpt lat="45.067307" lon="5.171333">
        <ele>241.474840</ele>
        <time>2017-06-05T07:29:00.000Z</time>
      </trkpt>
      <trkpt lat="45.067210" lon="5.171274">
        <ele>241.261457</ele>
        <time>2017-06-05T07:29:02.000Z</time>
      </trkpt>
      <trkpt lat="45.067116" lon="5.171213">
        <ele>241.052458</ele>
        <time>2017-06-05T07:29:04.000Z</time>
      </trkpt>
      <trkpt lat="45.067030" lon="5.171121">
        <ele>240.834597</ele>
        <time>2017-06-05T07:29:06.000Z</time>
      </trkpt>
      <trkpt lat="45.066956" lon="5.171005">
        <ele>240.576081</ele>
        <time>2017-06-05T07:29:08.000Z</time>
      </trkpt>
      <trkpt lat="45.066890" lon="5.170872">
        <ele>240.246382</ele>
        <time>2017-06-05T07:29:10.000Z</time>
      </trkpt>
      <trkpt lat="45.066840" lon="5.170715">
        <ele>239.897057</ele>
        <time>2017-06-05T07:29:12.000Z</time>
      </trkpt>
      <trkpt lat="45.066784" lon="5.170564">
        <ele>239.551122</ele>
        <time>2017-06-05T07:29:14.000Z</time>
      </trkpt>
      <trkpt lat="45.066700" lon="5.170385">
        <ele>239.115213</ele>
        <time>2017-06-05T07:29:16.000Z</time>
      </trkpt>
      <trkpt lat="45.066624" lon="5.170191">
        <ele>238.665236</ele>
        <time>2017-06-05T07:29:18.000Z</time>
      </trkpt>
      <trkpt lat="45.066578" lon="5.169949">
        <ele>238.156910</ele>
        <time>2017-06-05T07:29:20.000Z</time>
      </trkpt>
      <trkpt lat="45.066560" lon="5.169821">
        <ele>237.892186</ele>
        <time>2017-06-05T07:29:21.000Z</time>
      </trkpt>
      <trkpt lat="45.066532" lon="5.169693">
        <ele>237.620390</ele>
        <time>2017-06-05T07:29:22.000Z</time>
      </trkpt>
      <trkpt lat="45.066498" lon="5.169562">
        <ele>237.337304</ele>
        <time>2017-06-05T07:29:23.000Z</time>
      </trkpt>
      <trkpt lat="45.066470" lon="5.169436">
        <ele>237.069380</ele>
        <time>2017-06-05T07:29:24.000Z</time>
      </trkpt>
      <trkpt lat="45.066420" lon="5.169195">
        <ele>236.559894</ele>
        <time>2017-06-05T07:29:26.000Z</time>
      </trkpt>
      <trkpt lat="45.066395" lon="5.169074">
        <ele>236.304177</ele>
        <time>2017-06-05T07:29:27.000Z</time>
      </trkpt>
      <trkpt lat="45.066340" lon="5.168841">
        <ele>235.805875</ele>
        <time>2017-06-05T07:29:29.000Z</time>
      </trkpt>
      <trkpt lat="45.066290" lon="5.168615">
        <ele>235.379624</ele>
        <time>2017-06-05T07:29:31.000Z</time>
      </trkpt>
      <trkpt lat="45.066242" lon="5.168390">
        <ele>235.029012</ele>
        <time>2017-06-05T07:29:33.000Z</time>
      </trkpt>
      <trkpt lat="45.066193" lon="5.168180">
        <ele>234.699100</ele>
        <time>2017-06-05T07:29:35.000Z</time>
      </trkpt>
      <trkpt lat="45.066147" lon="5.167980">
        <ele>234.385337</ele>
        <time>2017-06-05T07:29:37.000Z</time>
      </trkpt>
      <trkpt lat="45.066100" lon="5.167783">
        <ele>234.075156</ele>
        <time>2017-06-05T07:29:39.000Z</time>
      </trkpt>
      <trkpt lat="45.066055" lon="5.167584">
        <ele>233.763461</ele>
        <time>2017-06-05T07:29:41.000Z</time>
      </trkpt>
      <trkpt lat="45.066013" lon="5.167399">
        <ele>233.473587</ele>
        <time>2017-06-05T07:29:43.000Z</time>
      </trkpt>
      <trkpt lat="45.065968" lon="5.167217">
        <ele>233.185940</ele>
        <time>2017-06-05T07:29:45.000Z</time>
      </trkpt>
      <trkpt lat="45.065920" lon="5.167043">
        <ele>232.907285</ele>
        <time>2017-06-05T07:29:47.000Z</time>
      </trkpt>
      <trkpt lat="45.065884" lon="5.166866">
        <ele>232.632521</ele>
        <time>2017-06-05T07:29:49.000Z</time>
      </trkpt>
      <trkpt lat="45.065850" lon="5.166690">
        <ele>232.360334</ele>
        <time>2017-06-05T07:29:51.000Z</time>
      </trkpt>
      <trkpt lat="45.065820" lon="5.166513">
        <ele>232.088803</ele>
        <time>2017-06-05T07:29:53.000Z</time>
      </trkpt>
      <trkpt lat="45.065784" lon="5.166326">
        <ele>231.799674</ele>
        <time>2017-06-05T07:29:55.000Z</time>
      </trkpt>
      <trkpt lat="45.065735" lon="5.166141">
        <ele>231.338636</ele>
        <time>2017-06-05T07:29:57.000Z</time>
      </trkpt>
      <trkpt lat="45.065670" lon="5.165966">
        <ele>230.826950</ele>
        <time>2017-06-05T07:29:59.000Z</time>
      </trkpt>
      <trkpt lat="45.065610" lon="5.165793">
        <ele>230.328180</ele>
        <time>2017-06-05T07:30:01.000Z</time>
      </trkpt>
      <trkpt lat="45.065536" lon="5.165631">
        <ele>229.828901</ele>
        <time>2017-06-05T07:30:03.000Z</time>
      </trkpt>
      <trkpt lat="45.065445" lon="5.165459">
        <ele>229.272749</ele>
        <time>2017-06-05T07:30:05.000Z</time>
      </trkpt>
      <trkpt lat="45.065350" lon="5.165301">
        <ele>228.735764</ele>
        <time>2017-06-05T07:30:07.000Z</time>
      </trkpt>
      <trkpt lat="45.065266" lon="5.165141">
        <ele>228.219838</ele>
        <time>2017-06-05T07:30:09.000Z</time>
      </trkpt>
      <trkpt lat="45.065178" lon="5.164990">
        <ele>227.713212</ele>
        <time>2017-06-05T07:30:11.000Z</time>
      </trkpt>
      <trkpt lat="45.065070" lon="5.164893">
        <ele>227.244590</ele>
        <time>2017-06-05T07:30:13.000Z</time>
      </trkpt>
      <trkpt lat="45.064953" lon="5.164848">
        <ele>226.800361</ele>
        <time>2017-06-05T07:30:15.000Z</time>
      </trkpt>
      <trkpt lat="45.064842" lon="5.164817">
        <ele>226.385815</ele>
        <time>2017-06-05T07:30:17.000Z</time>
      </trkpt>
      <trkpt lat="45.064735" lon="5.164788">
        <ele>225.986644</ele>
        <time>2017-06-05T07:30:19.000Z</time>
      </trkpt>
      <trkpt lat="45.064620" lon="5.164743">
        <ele>225.549482</ele>
        <time>2017-06-05T07:30:21.000Z</time>
      </trkpt>
      <trkpt lat="45.064518" lon="5.164691">
        <ele>225.152260</ele>
        <time>2017-06-05T07:30:23.000Z</time>
      </trkpt>
      <trkpt lat="45.064410" lon="5.164630">
        <ele>225.055070</ele>
        <time>2017-06-05T07:30:25.000Z</time>
      </trkpt>
      <trkpt lat="45.064300" lon="5.164568">
        <ele>224.965240</ele>
        <time>2017-06-05T07:30:27.000Z</time>
      </trkpt>
      <trkpt lat="45.064198" lon="5.164506">
        <ele>224.881020</ele>
        <time>2017-06-05T07:30:29.000Z</time>
      </trkpt>
      <trkpt lat="45.064090" lon="5.164460">
        <ele>224.795450</ele>
        <time>2017-06-05T07:30:31.000Z</time>
      </trkpt>
      <trkpt lat="45.063970" lon="5.164453">
        <ele>224.704327</ele>
        <time>2017-06-05T07:30:33.000Z</time>
      </trkpt>
      <trkpt lat="45.063828" lon="5.164477">
        <ele>224.595823</ele>
        <time>2017-06-05T07:30:35.000Z</time>
      </trkpt>
      <trkpt lat="45.063694" lon="5.164512">
        <ele>224.492439</ele>
        <time>2017-06-05T07:30:37.000Z</time>
      </trkpt>
      <trkpt lat="45.063550" lon="5.164512">
        <ele>224.383183</ele>
        <time>2017-06-05T07:30:39.000Z</time>
      </trkpt>
      <trkpt lat="45.063416" lon="5.164496">
        <ele>224.281154</ele>
        <time>2017-06-05T07:30:41.000Z</time>
      </trkpt>
      <trkpt lat="45.063297" lon="5.164446">
        <ele>224.186974</ele>
        <time>2017-06-05T07:30:43.000Z</time>
      </trkpt>
      <trkpt lat="45.063198" lon="5.164392">
        <ele>224.106479</ele>
        <time>2017-06-05T07:30:45.000Z</time>
      </trkpt>
      <trkpt lat="45.063107" lon="5.164343">
        <ele>224.032610</ele>
        <time>2017-06-05T07:30:47.000Z</time>
      </trkpt>
      <trkpt lat="45.062996" lon="5.164293">
        <ele>223.944232</ele>
        <time>2017-06-05T07:30:50.000Z</time>
      </trkpt>
      <trkpt lat="45.062890" lon="5.164263">
        <ele>223.862216</ele>
        <time>2017-06-05T07:30:53.000Z</time>
      </trkpt>
      <trkpt lat="45.062780" lon="5.164235">
        <ele>223.777419</ele>
        <time>2017-06-05T07:30:56.000Z</time>
      </trkpt>
      <trkpt lat="45.062653" lon="5.164176">
        <ele>223.933999</ele>
        <time>2017-06-05T07:30:59.000Z</time>
      </trkpt>
      <trkpt lat="45.062557" lon="5.164137">
        <ele>224.053183</ele>
        <time>2017-06-05T07:31:01.000Z</time>
      </trkpt>
      <trkpt lat="45.062430" lon="5.164090">
        <ele>224.209830</ele>
        <time>2017-06-05T07:31:04.000Z</time>
      </trkpt>
      <trkpt lat="45.062344" lon="5.164060">
        <ele>224.315527</ele>
        <time>2017-06-05T07:31:06.000Z</time>
      </trkpt>
      <trkpt lat="45.062218" lon="5.164012">
        <ele>224.471237</ele>
        <time>2017-06-05T07:31:09.000Z</time>
      </trkpt>
      <trkpt lat="45.062126" lon="5.163976">
        <ele>224.585141</ele>
        <time>2017-06-05T07:31:11.000Z</time>
      </trkpt>
      <trkpt lat="45.062000" lon="5.163950">
        <ele>224.737091</ele>
        <time>2017-06-05T07:31:14.000Z</time>
      </trkpt>
      <trkpt lat="45.061867" lon="5.163934">
        <ele>224.896378</ele>
        <time>2017-06-05T07:31:17.000Z</time>
      </trkpt>
      <trkpt lat="45.061733" lon="5.163906">
        <ele>225.058019</ele>
        <time>2017-06-05T07:31:20.000Z</time>
      </trkpt>
      <trkpt lat="45.061634" lon="5.163884">
        <ele>225.177606</ele>
        <time>2017-06-05T07:31:22.000Z</time>
      </trkpt>
      <trkpt lat="45.061535" lon="5.163875">
        <ele>225.295991</ele>
        <time>2017-06-05T07:31:24.000Z</time>
      </trkpt>
      <trkpt lat="45.061430" lon="5.163878">
        <ele>225.421318</ele>
        <time>2017-06-05T07:31:26.000Z</time>
      </trkpt>
      <trkpt lat="45.061317" lon="5.163879">
        <ele>225.556168</ele>
        <time>2017-06-05T07:31:29.000Z</time>
      </trkpt>
      <trkpt lat="45.061214" lon="5.163869">
        <ele>225.679371</ele>
        <time>2017-06-05T07:31:32.000Z</time>
      </trkpt>
      <trkpt lat="45.061092" lon="5.163860">
        <ele>225.825157</ele>
        <time>2017-06-05T07:31:35.000Z</time>
      </trkpt>
      <trkpt lat="45.060997" lon="5.163858">
        <ele>225.886945</ele>
        <time>2017-06-05T07:31:37.000Z</time>
      </trkpt>
      <trkpt lat="45.060894" lon="5.163851">
        <ele>225.609542</ele>
        <time>2017-06-05T07:31:39.000Z</time>
      </trkpt>
      <trkpt lat="45.060802" lon="5.163850">
        <ele>225.362041</ele>
        <time>2017-06-05T07:31:41.000Z</time>
      </trkpt>
      <trkpt lat="45.060707" lon="5.163853">
        <ele>225.106414</ele>
        <time>2017-06-05T07:31:43.000Z</time>
      </trkpt>
      <trkpt lat="45.060600" lon="5.163873">
        <ele>224.816072</ele>
        <time>2017-06-05T07:31:45.000Z</time>
      </trkpt>
      <trkpt lat="45.060510" lon="5.163896">
        <ele>224.570046</ele>
        <time>2017-06-05T07:31:47.000Z</time>
      </trkpt>
      <trkpt lat="45.060417" lon="5.163917">
        <ele>224.316700</ele>
        <time>2017-06-05T07:31:49.000Z</time>
      </trkpt>
      <trkpt lat="45.060280" lon="5.163940">
        <ele>223.945569</ele>
        <time>2017-06-05T07:31:52.000Z</time>
      </trkpt>
      <trkpt lat="45.060184" lon="5.163948">
        <ele>223.686868</ele>
        <time>2017-06-05T07:31:54.000Z</time>
      </trkpt>
      <trkpt lat="45.060060" lon="5.163962">
        <ele>223.352232</ele>
        <time>2017-06-05T07:31:57.000Z</time>
      </trkpt>
      <trkpt lat="45.059960" lon="5.163961">
        <ele>223.083211</ele>
        <time>2017-06-05T07:31:59.000Z</time>
      </trkpt>
      <trkpt lat="45.059864" lon="5.163955">
        <ele>222.824706</ele>
        <time>2017-06-05T07:32:01.000Z</time>
      </trkpt>
      <trkpt lat="45.059720" lon="5.163965">
        <ele>222.436860</ele>
        <time>2017-06-05T07:32:04.000Z</time>
      </trkpt>
      <trkpt lat="45.059600" lon="5.163971">
        <ele>222.113842</ele>
        <time>2017-06-05T07:32:06.000Z</time>
      </trkpt>
      <trkpt lat="45.059494" lon="5.163962">
        <ele>221.828175</ele>
        <time>2017-06-05T07:32:08.000Z</time>
      </trkpt>
      <trkpt lat="45.059387" lon="5.163945">
        <ele>221.538523</ele>
        <time>2017-06-05T07:32:10.000Z</time>
      </trkpt>
      <trkpt lat="45.059273" lon="5.163941">
        <ele>221.231753</ele>
        <time>2017-06-05T07:32:12.000Z</time>
      </trkpt>
      <trkpt lat="45.059143" lon="5.163942">
        <ele>220.732442</ele>
        <time>2017-06-05T07:32:14.000Z</time>
      </trkpt>
      <trkpt lat="45.058983" lon="5.163916">
        <ele>219.978442</ele>
        <time>2017-06-05T07:32:16.000Z</time>
      </trkpt>
      <trkpt lat="45.058826" lon="5.163916">
        <ele>219.243405</ele>
        <time>2017-06-05T07:32:18.000Z</time>
      </trkpt>
      <trkpt lat="45.058640" lon="5.163884">
        <ele>218.366191</ele>
        <time>2017-06-05T07:32:20.000Z</time>
      </trkpt>
      <trkpt lat="45.058537" lon="5.163860">
        <ele>217.877482</ele>
        <time>2017-06-05T07:32:21.000Z</time>
      </trkpt>
      <trkpt lat="45.058437" lon="5.163841">
        <ele>217.405108</ele>
        <time>2017-06-05T07:32:22.000Z</time>
      </trkpt>
      <trkpt lat="45.058334" lon="5.163815">
        <ele>216.915281</ele>
        <time>2017-06-05T07:32:23.000Z</time>
      </trkpt>
      <trkpt lat="45.058230" lon="5.163793">
        <ele>216.422972</ele>
        <time>2017-06-05T07:32:24.000Z</time>
      </trkpt>
      <trkpt lat="45.058130" lon="5.163775">
        <ele>215.951027</ele>
        <time>2017-06-05T07:32:25.000Z</time>
      </trkpt>
      <trkpt lat="45.058033" lon="5.163763">
        <ele>215.495165</ele>
        <time>2017-06-05T07:32:26.000Z</time>
      </trkpt>
      <trkpt lat="45.057860" lon="5.163733">
        <ele>214.679167</ele>
        <time>2017-06-05T07:32:28.000Z</time>
      </trkpt>
      <trkpt lat="45.057697" lon="5.163732">
        <ele>213.916033</ele>
        <time>2017-06-05T07:32:30.000Z</time>
      </trkpt>
      <trkpt lat="45.057545" lon="5.163711">
        <ele>213.201024</ele>
        <time>2017-06-05T07:32:32.000Z</time>
      </trkpt>
      <trkpt lat="45.057426" lon="5.163680">
        <ele>212.666820</ele>
        <time>2017-06-05T07:32:34.000Z</time>
      </trkpt>
      <trkpt lat="45.057285" lon="5.163641">
        <ele>212.750027</ele>
        <time>2017-06-05T07:32:36.000Z</time>
      </trkpt>
      <trkpt lat="45.057148" lon="5.163591">
        <ele>212.831966</ele>
        <time>2017-06-05T07:32:38.000Z</time>
      </trkpt>
      <trkpt lat="45.057022" lon="5.163572">
        <ele>212.905354</ele>
        <time>2017-06-05T07:32:40.000Z</time>
      </trkpt>
      <trkpt lat="45.056904" lon="5.163549">
        <ele>212.974340</ele>
        <time>2017-06-05T07:32:42.000Z</time>
      </trkpt>
      <trkpt lat="45.056805" lon="5.163521">
        <ele>213.032810</ele>
        <time>2017-06-05T07:32:44.000Z</time>
      </trkpt>
      <trkpt lat="45.056680" lon="5.163489">
        <ele>213.106380</ele>
        <time>2017-06-05T07:32:47.000Z</time>
      </trkpt>
      <trkpt lat="45.056572" lon="5.163464">
        <ele>213.169760</ele>
        <time>2017-06-05T07:32:49.000Z</time>
      </trkpt>
      <trkpt lat="45.056484" lon="5.163425">
        <ele>213.223166</ele>
        <time>2017-06-05T07:32:51.000Z</time>
      </trkpt>
      <trkpt lat="45.056374" lon="5.163368">
        <ele>213.291008</ele>
        <time>2017-06-05T07:32:54.000Z</time>
      </trkpt>
      <trkpt lat="45.056324" lon="5.163249">
        <ele>213.347655</ele>
        <time>2017-06-05T07:32:57.000Z</time>
      </trkpt>
      <trkpt lat="45.056340" lon="5.163092">
        <ele>213.412553</ele>
        <time>2017-06-05T07:33:00.000Z</time>
      </trkpt>
      <trkpt lat="45.056355" lon="5.162935">
        <ele>213.477371</ele>
        <time>2017-06-05T07:33:03.000Z</time>
      </trkpt>
      <trkpt lat="45.056366" lon="5.162782">
        <ele>213.540291</ele>
        <time>2017-06-05T07:33:06.000Z</time>
      </trkpt>
      <trkpt lat="45.056377" lon="5.162629">
        <ele>213.603210</ele>
        <time>2017-06-05T07:33:09.000Z</time>
      </trkpt>
      <trkpt lat="45.056385" lon="5.162483">
        <ele>213.663122</ele>
        <time>2017-06-05T07:33:12.000Z</time>
      </trkpt>
      <trkpt lat="45.056396" lon="5.162332">
        <ele>213.873527</ele>
        <time>2017-06-05T07:33:15.000Z</time>
      </trkpt>
      <trkpt lat="45.056404" lon="5.162173">
        <ele>214.416263</ele>
        <time>2017-06-05T07:33:18.000Z</time>
      </trkpt>
      <trkpt lat="45.056404" lon="5.162010">
        <ele>214.971247</ele>
        <time>2017-06-05T07:33:21.000Z</time>
      </trkpt>
      <trkpt lat="45.056416" lon="5.161852">
        <ele>215.512307</ele>
        <time>2017-06-05T07:33:24.000Z</time>
      </trkpt>
      <trkpt lat="45.056427" lon="5.161701">
        <ele>216.029160</ele>
        <time>2017-06-05T07:33:27.000Z</time>
      </trkpt>
      <trkpt lat="45.056442" lon="5.161553">
        <ele>216.538231</ele>
        <time>2017-06-05T07:33:30.000Z</time>
      </trkpt>
      <trkpt lat="45.056454" lon="5.161418">
        <ele>217.001505</ele>
        <time>2017-06-05T07:33:33.000Z</time>
      </trkpt>
      <trkpt lat="45.056473" lon="5.161273">
        <ele>217.503623</ele>
        <time>2017-06-05T07:33:37.000Z</time>
      </trkpt>
      <trkpt lat="45.056570" lon="5.161257">
        <ele>217.974314</ele>
        <time>2017-06-05T07:33:41.000Z</time>
      </trkpt>
      <trkpt lat="45.056670" lon="5.161250">
        <ele>218.456890</ele>
        <time>2017-06-05T07:33:45.000Z</time>
      </trkpt>
      <trkpt lat="45.056780" lon="5.161253">
        <ele>218.987175</ele>
        <time>2017-06-05T07:33:49.000Z</time>
      </trkpt>
      <trkpt lat="45.056885" lon="5.161239">
        <ele>219.495501</ele>
        <time>2017-06-05T07:33:53.000Z</time>
      </trkpt>
      <trkpt lat="45.056984" lon="5.161233">
        <ele>219.973106</ele>
        <time>2017-06-05T07:33:57.000Z</time>
      </trkpt>
      <trkpt lat="45.057080" lon="5.161215">
        <ele>220.439855</ele>
        <time>2017-06-05T07:34:01.000Z</time>
      </trkpt>
      <trkpt lat="45.057175" lon="5.161204">
        <ele>220.899272</ele>
        <time>2017-06-05T07:34:05.000Z</time>
      </trkpt>
      <trkpt lat="45.057266" lon="5.161180">
        <ele>221.345427</ele>
        <time>2017-06-05T07:34:09.000Z</time>
      </trkpt>
      <trkpt lat="45.057373" lon="5.161137">
        <ele>221.881532</ele>
        <time>2017-06-05T07:34:14.000Z</time>
      </trkpt>
      <trkpt lat="45.057480" lon="5.161109">
        <ele>222.406773</ele>
        <time>2017-06-05T07:34:19.000Z</time>
      </trkpt>
      <trkpt lat="45.057570" lon="5.161091">
        <ele>222.855579</ele>
        <time>2017-06-05T07:34:23.000Z</time>
      </trkpt>
      <trkpt lat="45.057674" lon="5.161040">
        <ele>223.399039</ele>
        <time>2017-06-05T07:34:28.000Z</time>
      </trkpt>
      <trkpt lat="45.057766" lon="5.161018">
        <ele>223.859743</ele>
        <time>2017-06-05T07:34:32.000Z</time>
      </trkpt>
      <trkpt lat="45.057854" lon="5.160986">
        <ele>224.308367</ele>
        <time>2017-06-05T07:34:36.000Z</time>
      </trkpt>
      <trkpt lat="45.057953" lon="5.160937">
        <ele>224.826216</ele>
        <time>2017-06-05T07:34:41.000Z</time>
      </trkpt>
      <trkpt lat="45.058050" lon="5.160882">
        <ele>225.342164</ele>
        <time>2017-06-05T07:34:46.000Z</time>
      </trkpt>
      <trkpt lat="45.058130" lon="5.160816">
        <ele>225.799364</ele>
        <time>2017-06-05T07:34:50.000Z</time>
      </trkpt>
      <trkpt lat="45.058205" lon="5.160751">
        <ele>226.233579</ele>
        <time>2017-06-05T07:34:54.000Z</time>
      </trkpt>
      <trkpt lat="45.058285" lon="5.160690">
        <ele>226.682251</ele>
        <time>2017-06-05T07:34:58.000Z</time>
      </trkpt>
      <trkpt lat="45.058376" lon="5.160640">
        <ele>227.164240</ele>
        <time>2017-06-05T07:35:02.000Z</time>
      </trkpt>
      <trkpt lat="45.058464" lon="5.160584">
        <ele>227.640640</ele>
        <time>2017-06-05T07:35:06.000Z</time>
      </trkpt>
      <trkpt lat="45.058556" lon="5.160550">
        <ele>228.110133</ele>
        <time>2017-06-05T07:35:10.000Z</time>
      </trkpt>
      <trkpt lat="45.058650" lon="5.160501">
        <ele>228.604743</ele>
        <time>2017-06-05T07:35:15.000Z</time>
      </trkpt>
      <trkpt lat="45.058746" lon="5.160467">
        <ele>229.093372</ele>
        <time>2017-06-05T07:35:21.000Z</time>
      </trkpt>
      <trkpt lat="45.058838" lon="5.160433">
        <ele>229.562865</ele>
        <time>2017-06-05T07:35:26.000Z</time>
      </trkpt>
      <trkpt lat="45.058933" lon="5.160408">
        <ele>230.039982</ele>
        <time>2017-06-05T07:35:30.000Z</time>
      </trkpt>
      <trkpt lat="45.059044" lon="5.160384">
        <ele>230.594423</ele>
        <time>2017-06-05T07:35:34.000Z</time>
      </trkpt>
      <trkpt lat="45.059155" lon="5.160364">
        <ele>231.146930</ele>
        <time>2017-06-05T07:35:38.000Z</time>
      </trkpt>
      <trkpt lat="45.059265" lon="5.160347">
        <ele>231.464316</ele>
        <time>2017-06-05T07:35:42.000Z</time>
      </trkpt>
      <trkpt lat="45.059383" lon="5.160317">
        <ele>231.746749</ele>
        <time>2017-06-05T07:35:46.000Z</time>
      </trkpt>
      <trkpt lat="45.059470" lon="5.160253">
        <ele>231.977724</ele>
        <time>2017-06-05T07:35:49.000Z</time>
      </trkpt>
      <trkpt lat="45.059555" lon="5.160136">
        <ele>232.257018</ele>
        <time>2017-06-05T07:35:52.000Z</time>
      </trkpt>
      <trkpt lat="45.059647" lon="5.160007">
        <ele>232.562068</ele>
        <time>2017-06-05T07:35:55.000Z</time>
      </trkpt>
      <trkpt lat="45.059730" lon="5.159874">
        <ele>232.857392</ele>
        <time>2017-06-05T07:35:58.000Z</time>
      </trkpt>
      <trkpt lat="45.059820" lon="5.159757">
        <ele>233.145247</ele>
        <time>2017-06-05T07:36:01.000Z</time>
      </trkpt>
      <trkpt lat="45.059917" lon="5.159632">
        <ele>233.454256</ele>
        <time>2017-06-05T07:36:04.000Z</time>
      </trkpt>
      <trkpt lat="45.059990" lon="5.159548">
        <ele>233.675873</ele>
        <time>2017-06-05T07:36:06.000Z</time>
      </trkpt>
      <trkpt lat="45.060080" lon="5.159426">
        <ele>233.969419</ele>
        <time>2017-06-05T07:36:09.000Z</time>
      </trkpt>
      <trkpt lat="45.060160" lon="5.159302">
        <ele>234.248877</ele>
        <time>2017-06-05T07:36:12.000Z</time>
      </trkpt>
      <trkpt lat="45.060238" lon="5.159172">
        <ele>234.532714</ele>
        <time>2017-06-05T07:36:15.000Z</time>
      </trkpt>
      <trkpt lat="45.060318" lon="5.159048">
        <ele>234.812171</ele>
        <time>2017-06-05T07:36:18.000Z</time>
      </trkpt>
      <trkpt lat="45.060394" lon="5.158927">
        <ele>235.081612</ele>
        <time>2017-06-05T07:36:21.000Z</time>
      </trkpt>
      <trkpt lat="45.060467" lon="5.158799">
        <ele>235.355370</ele>
        <time>2017-06-05T07:36:24.000Z</time>
      </trkpt>
      <trkpt lat="45.060535" lon="5.158664">
        <ele>235.502337</ele>
        <time>2017-06-05T07:36:27.000Z</time>
      </trkpt>
      <trkpt lat="45.060600" lon="5.158537">
        <ele>235.520577</ele>
        <time>2017-06-05T07:36:30.000Z</time>
      </trkpt>
      <trkpt lat="45.060670" lon="5.158410">
        <ele>235.539312</ele>
        <time>2017-06-05T07:36:33.000Z</time>
      </trkpt>
      <trkpt lat="45.060734" lon="5.158271">
        <ele>235.558609</ele>
        <time>2017-06-05T07:36:36.000Z</time>
      </trkpt>
      <trkpt lat="45.060806" lon="5.158130">
        <ele>235.578843</ele>
        <time>2017-06-05T07:36:39.000Z</time>
      </trkpt>
      <trkpt lat="45.060883" lon="5.157989">
        <ele>235.599571</ele>
        <time>2017-06-05T07:36:42.000Z</time>
      </trkpt>
      <trkpt lat="45.060963" lon="5.157843">
        <ele>235.621061</ele>
        <time>2017-06-05T07:36:45.000Z</time>
      </trkpt>
      <trkpt lat="45.061035" lon="5.157678">
        <ele>235.643617</ele>
        <time>2017-06-05T07:36:48.000Z</time>
      </trkpt>
      <trkpt lat="45.061104" lon="5.157524">
        <ele>235.664827</ele>
        <time>2017-06-05T07:36:51.000Z</time>
      </trkpt>
      <trkpt lat="45.061170" lon="5.157385">
        <ele>235.684306</ele>
        <time>2017-06-05T07:36:54.000Z</time>
      </trkpt>
      <trkpt lat="45.061237" lon="5.157241">
        <ele>235.704360</ele>
        <time>2017-06-05T07:36:57.000Z</time>
      </trkpt>
      <trkpt lat="45.061314" lon="5.157083">
        <ele>235.726684</ele>
        <time>2017-06-05T07:37:00.000Z</time>
      </trkpt>
      <trkpt lat="45.061386" lon="5.156927">
        <ele>235.748357</ele>
        <time>2017-06-05T07:37:03.000Z</time>
      </trkpt>
      <trkpt lat="45.061440" lon="5.156816">
        <ele>235.764032</ele>
        <time>2017-06-05T07:37:05.000Z</time>
      </trkpt>
      <trkpt lat="45.061497" lon="5.156711">
        <ele>235.779433</ele>
        <time>2017-06-05T07:37:07.000Z</time>
      </trkpt>
      <trkpt lat="45.061570" lon="5.156556">
        <ele>235.883283</ele>
        <time>2017-06-05T07:37:10.000Z</time>
      </trkpt>
      <trkpt lat="45.061640" lon="5.156427">
        <ele>236.028547</ele>
        <time>2017-06-05T07:37:13.000Z</time>
      </trkpt>
      <trkpt lat="45.061714" lon="5.156277">
        <ele>236.191930</ele>
        <time>2017-06-05T07:37:16.000Z</time>
      </trkpt>
      <trkpt lat="45.061794" lon="5.156124">
        <ele>236.361918</ele>
        <time>2017-06-05T07:37:19.000Z</time>
      </trkpt>
      <trkpt lat="45.061870" lon="5.155984">
        <ele>236.519592</ele>
        <time>2017-06-05T07:37:22.000Z</time>
      </trkpt>
      <trkpt lat="45.061940" lon="5.155846">
        <ele>236.671307</ele>
        <time>2017-06-05T07:37:25.000Z</time>
      </trkpt>
      <trkpt lat="45.062016" lon="5.155713">
        <ele>236.824072</ele>
        <time>2017-06-05T07:37:28.000Z</time>
      </trkpt>
      <trkpt lat="45.062073" lon="5.155591">
        <ele>236.954692</ele>
        <time>2017-06-05T07:37:31.000Z</time>
      </trkpt>
      <trkpt lat="45.061985" lon="5.155493">
        <ele>237.096239</ele>
        <time>2017-06-05T07:37:36.000Z</time>
      </trkpt>
      <trkpt lat="45.061913" lon="5.155415">
        <ele>237.210855</ele>
        <time>2017-06-05T07:37:50.000Z</time>
      </trkpt>
      <trkpt lat="45.061840" lon="5.155316">
        <ele>237.338655</ele>
        <time>2017-06-05T07:39:48.000Z</time>
      </trkpt>
      <trkpt lat="45.061768" lon="5.155205">
        <ele>237.473230</ele>
        <time>2017-06-05T07:39:52.000Z</time>
      </trkpt>
      <trkpt lat="45.061700" lon="5.155103">
        <ele>237.598477</ele>
        <time>2017-06-05T07:39:55.000Z</time>
      </trkpt>
      <trkpt lat="45.061630" lon="5.154996">
        <ele>237.728713</ele>
        <time>2017-06-05T07:39:58.000Z</time>
      </trkpt>
      <trkpt lat="45.061554" lon="5.154887">
        <ele>237.865482</ele>
        <time>2017-06-05T07:40:01.000Z</time>
      </trkpt>
      <trkpt lat="45.061474" lon="5.154783">
        <ele>238.002792</ele>
        <time>2017-06-05T07:40:04.000Z</time>
      </trkpt>
      <trkpt lat="45.061398" lon="5.154676">
        <ele>238.030517</ele>
        <time>2017-06-05T07:40:07.000Z</time>
      </trkpt>
      <trkpt lat="45.061333" lon="5.154575">
        <ele>237.978580</ele>
        <time>2017-06-05T07:40:10.000Z</time>
      </trkpt>
      <trkpt lat="45.061264" lon="5.154476">
        <ele>237.925714</ele>
        <time>2017-06-05T07:40:13.000Z</time>
      </trkpt>
      <trkpt lat="45.061190" lon="5.154347">
        <ele>237.862546</ele>
        <time>2017-06-05T07:40:16.000Z</time>
      </trkpt>
      <trkpt lat="45.061108" lon="5.154231">
        <ele>237.800165</ele>
        <time>2017-06-05T07:40:19.000Z</time>
      </trkpt>
      <trkpt lat="45.061035" lon="5.154100">
        <ele>237.736740</ele>
        <time>2017-06-05T07:40:22.000Z</time>
      </trkpt>
      <trkpt lat="45.060955" lon="5.153991">
        <ele>237.676990</ele>
        <time>2017-06-05T07:40:25.000Z</time>
      </trkpt>
      <trkpt lat="45.060880" lon="5.153891">
        <ele>237.621548</ele>
        <time>2017-06-05T07:40:28.000Z</time>
      </trkpt>
      <trkpt lat="45.060800" lon="5.153785">
        <ele>237.562583</ele>
        <time>2017-06-05T07:40:31.000Z</time>
      </trkpt>
      <trkpt lat="45.060720" lon="5.153660">
        <ele>237.498466</ele>
        <time>2017-06-05T07:40:34.000Z</time>
      </trkpt>
      <trkpt lat="45.060640" lon="5.153534">
        <ele>237.434067</ele>
        <time>2017-06-05T07:40:37.000Z</time>
      </trkpt>
      <trkpt lat="45.060560" lon="5.153420">
        <ele>237.372984</ele>
        <time>2017-06-05T07:40:40.000Z</time>
      </trkpt>
      <trkpt lat="45.060450" lon="5.153371">
        <ele>237.310928</ele>
        <time>2017-06-05T07:40:43.000Z</time>
      </trkpt>
      <trkpt lat="45.060350" lon="5.153462">
        <ele>237.246955</ele>
        <time>2017-06-05T07:40:46.000Z</time>
      </trkpt>
      <trkpt lat="45.060290" lon="5.153560">
        <ele>237.197658</ele>
        <time>2017-06-05T07:40:48.000Z</time>
      </trkpt>
      <trkpt lat="45.060230" lon="5.153656">
        <ele>237.148933</ele>
        <time>2017-06-05T07:40:50.000Z</time>
      </trkpt>
      <trkpt lat="45.060160" lon="5.153743">
        <ele>237.098807</ele>
        <time>2017-06-05T07:40:52.000Z</time>
      </trkpt>
      <trkpt lat="45.060085" lon="5.153821">
        <ele>237.040081</ele>
        <time>2017-06-05T07:40:54.000Z</time>
      </trkpt>
      <trkpt lat="45.060000" lon="5.153891">
        <ele>236.977230</ele>
        <time>2017-06-05T07:40:56.000Z</time>
      </trkpt>
      <trkpt lat="45.059914" lon="5.153951">
        <ele>236.915951</ele>
        <time>2017-06-05T07:40:58.000Z</time>
      </trkpt>
      <trkpt lat="45.059826" lon="5.154009">
        <ele>236.853908</ele>
        <time>2017-06-05T07:41:00.000Z</time>
      </trkpt>
      <trkpt lat="45.059730" lon="5.154066">
        <ele>236.787372</ele>
        <time>2017-06-05T07:41:02.000Z</time>
      </trkpt>
      <trkpt lat="45.059640" lon="5.154121">
        <ele>236.724717</ele>
        <time>2017-06-05T07:41:04.000Z</time>
      </trkpt>
      <trkpt lat="45.059547" lon="5.154178">
        <ele>236.659945</ele>
        <time>2017-06-05T07:41:06.000Z</time>
      </trkpt>
      <trkpt lat="45.059460" lon="5.154235">
        <ele>236.598672</ele>
        <time>2017-06-05T07:41:08.000Z</time>
      </trkpt>
      <trkpt lat="45.059380" lon="5.154296">
        <ele>236.540595</ele>
        <time>2017-06-05T07:41:10.000Z</time>
      </trkpt>
      <trkpt lat="45.059260" lon="5.154375">
        <ele>236.456009</ele>
        <time>2017-06-05T07:41:13.000Z</time>
      </trkpt>
      <trkpt lat="45.059155" lon="5.154437">
        <ele>236.383295</ele>
        <time>2017-06-05T07:41:16.000Z</time>
      </trkpt>
      <trkpt lat="45.059044" lon="5.154395">
        <ele>236.309858</ele>
        <time>2017-06-05T07:41:19.000Z</time>
      </trkpt>
      <trkpt lat="45.058952" lon="5.154323">
        <ele>236.242669</ele>
        <time>2017-06-05T07:41:21.000Z</time>
      </trkpt>
      <trkpt lat="45.058870" lon="5.154236">
        <ele>236.177174</ele>
        <time>2017-06-05T07:41:23.000Z</time>
      </trkpt>
      <trkpt lat="45.058784" lon="5.154152">
        <ele>236.110393</ele>
        <time>2017-06-05T07:41:25.000Z</time>
      </trkpt>
      <trkpt lat="45.058697" lon="5.154074">
        <ele>236.044573</ele>
        <time>2017-06-05T07:41:27.000Z</time>
      </trkpt>
      <trkpt lat="45.058610" lon="5.153988">
        <ele>235.976753</ele>
        <time>2017-06-05T07:41:29.000Z</time>
      </trkpt>
      <trkpt lat="45.058517" lon="5.153906">
        <ele>235.944926</ele>
        <time>2017-06-05T07:41:31.000Z</time>
      </trkpt>
      <trkpt lat="45.058434" lon="5.153819">
        <ele>235.944496</ele>
        <time>2017-06-05T07:41:33.000Z</time>
      </trkpt>
      <trkpt lat="45.058353" lon="5.153726">
        <ele>235.944062</ele>
        <time>2017-06-05T07:41:35.000Z</time>
      </trkpt>
      <trkpt lat="45.058273" lon="5.153641">
        <ele>235.943645</ele>
        <time>2017-06-05T07:41:37.000Z</time>
      </trkpt>
      <trkpt lat="45.058190" lon="5.153553">
        <ele>235.943214</ele>
        <time>2017-06-05T07:41:39.000Z</time>
      </trkpt>
      <trkpt lat="45.058110" lon="5.153463">
        <ele>235.942788</ele>
        <time>2017-06-05T07:41:41.000Z</time>
      </trkpt>
      <trkpt lat="45.058033" lon="5.153381">
        <ele>235.942387</ele>
        <time>2017-06-05T07:41:43.000Z</time>
      </trkpt>
      <trkpt lat="45.057945" lon="5.153309">
        <ele>235.941964</ele>
        <time>2017-06-05T07:41:45.000Z</time>
      </trkpt>
      <trkpt lat="45.057865" lon="5.153231">
        <ele>235.941560</ele>
        <time>2017-06-05T07:41:47.000Z</time>
      </trkpt>
      <trkpt lat="45.057780" lon="5.153161">
        <ele>235.941150</ele>
        <time>2017-06-05T07:41:49.000Z</time>
      </trkpt>
      <trkpt lat="45.057705" lon="5.153091">
        <ele>235.940777</ele>
        <time>2017-06-05T07:41:51.000Z</time>
      </trkpt>
      <trkpt lat="45.057625" lon="5.153025">
        <ele>235.940391</ele>
        <time>2017-06-05T07:41:53.000Z</time>
      </trkpt>
      <trkpt lat="45.057514" lon="5.152918">
        <ele>235.939832</ele>
        <time>2017-06-05T07:41:56.000Z</time>
      </trkpt>
      <trkpt lat="45.057434" lon="5.152848">
        <ele>235.939441</ele>
        <time>2017-06-05T07:41:58.000Z</time>
      </trkpt>
      <trkpt lat="45.057327" lon="5.152742">
        <ele>235.938897</ele>
        <time>2017-06-05T07:42:01.000Z</time>
      </trkpt>
      <trkpt lat="45.057266" lon="5.152649">
        <ele>235.938524</ele>
        <time>2017-06-05T07:42:03.000Z</time>
      </trkpt>
      <trkpt lat="45.057266" lon="5.152522">
        <ele>235.938151</ele>
        <time>2017-06-05T07:42:05.000Z</time>
      </trkpt>
      <trkpt lat="45.057340" lon="5.152414">
        <ele>235.937708</ele>
        <time>2017-06-05T07:42:08.000Z</time>
      </trkpt>
      <trkpt lat="45.057415" lon="5.152338">
        <ele>235.896426</ele>
        <time>2017-06-05T07:42:11.000Z</time>
      </trkpt>
      <trkpt lat="45.057510" lon="5.152278">
        <ele>235.847484</ele>
        <time>2017-06-05T07:42:14.000Z</time>
      </trkpt>
      <trkpt lat="45.057632" lon="5.152203">
        <ele>235.784907</ele>
        <time>2017-06-05T07:42:17.000Z</time>
      </trkpt>
      <trkpt lat="45.057724" lon="5.152147">
        <ele>235.737792</ele>
        <time>2017-06-05T07:42:19.000Z</time>
      </trkpt>
      <trkpt lat="45.057820" lon="5.152104">
        <ele>235.690419</ele>
        <time>2017-06-05T07:42:21.000Z</time>
      </trkpt>
      <trkpt lat="45.057920" lon="5.152071">
        <ele>235.642110</ele>
        <time>2017-06-05T07:42:23.000Z</time>
      </trkpt>
      <trkpt lat="45.058014" lon="5.152043">
        <ele>235.596916</ele>
        <time>2017-06-05T07:42:25.000Z</time>
      </trkpt>
      <trkpt lat="45.058130" lon="5.151996">
        <ele>235.540150</ele>
        <time>2017-06-05T07:42:28.000Z</time>
      </trkpt>
      <trkpt lat="45.058240" lon="5.151918">
        <ele>235.482268</ele>
        <time>2017-06-05T07:42:31.000Z</time>
      </trkpt>
      <trkpt lat="45.058342" lon="5.151826">
        <ele>235.425366</ele>
        <time>2017-06-05T07:42:34.000Z</time>
      </trkpt>
      <trkpt lat="45.058434" lon="5.151727">
        <ele>235.370997</ele>
        <time>2017-06-05T07:42:37.000Z</time>
      </trkpt>
      <trkpt lat="45.058514" lon="5.151630">
        <ele>235.321441</ele>
        <time>2017-06-05T07:42:40.000Z</time>
      </trkpt>
      <trkpt lat="45.058600" lon="5.151537">
        <ele>235.270525</ele>
        <time>2017-06-05T07:42:43.000Z</time>
      </trkpt>
      <trkpt lat="45.058690" lon="5.151442">
        <ele>235.217707</ele>
        <time>2017-06-05T07:42:46.000Z</time>
      </trkpt>
      <trkpt lat="45.058770" lon="5.151351">
        <ele>235.169424</ele>
        <time>2017-06-05T07:42:49.000Z</time>
      </trkpt>
      <trkpt lat="45.058810" lon="5.151197">
        <ele>235.114894</ele>
        <time>2017-06-05T07:42:53.000Z</time>
      </trkpt>
      <trkpt lat="45.058743" lon="5.151055">
        <ele>235.069866</ele>
        <time>2017-06-05T07:42:56.000Z</time>
      </trkpt>
      <trkpt lat="45.058670" lon="5.150975">
        <ele>235.041713</ele>
        <time>2017-06-05T07:42:58.000Z</time>
      </trkpt>
      <trkpt lat="45.058560" lon="5.150860">
        <ele>235.000011</ele>
        <time>2017-06-05T07:43:01.000Z</time>
      </trkpt>
      <trkpt lat="45.058460" lon="5.150761">
        <ele>234.962798</ele>
        <time>2017-06-05T07:43:04.000Z</time>
      </trkpt>
      <trkpt lat="45.058372" lon="5.150649">
        <ele>234.926710</ele>
        <time>2017-06-05T07:43:07.000Z</time>
      </trkpt>
      <trkpt lat="45.058277" lon="5.150552">
        <ele>234.890989</ele>
        <time>2017-06-05T07:43:10.000Z</time>
      </trkpt>
      <trkpt lat="45.058190" lon="5.150440">
        <ele>234.855127</ele>
        <time>2017-06-05T07:43:13.000Z</time>
      </trkpt>
      <trkpt lat="45.058117" lon="5.150361">
        <ele>234.827105</ele>
        <time>2017-06-05T07:43:15.000Z</time>
      </trkpt>
      <trkpt lat="45.058040" lon="5.150282">
        <ele>234.798105</ele>
        <time>2017-06-05T07:43:17.000Z</time>
      </trkpt>
      <trkpt lat="45.057970" lon="5.150201">
        <ele>234.770533</ele>
        <time>2017-06-05T07:43:19.000Z</time>
      </trkpt>
      <trkpt lat="45.057896" lon="5.150118">
        <ele>234.741741</ele>
        <time>2017-06-05T07:43:21.000Z</time>
      </trkpt>
      <trkpt lat="45.057804" lon="5.150013">
        <ele>234.705702</ele>
        <time>2017-06-05T07:43:24.000Z</time>
      </trkpt>
      <trkpt lat="45.057730" lon="5.149924">
        <ele>234.676090</ele>
        <time>2017-06-05T07:43:27.000Z</time>
      </trkpt>
      <trkpt lat="45.057644" lon="5.149835">
        <ele>234.643602</ele>
        <time>2017-06-05T07:43:31.000Z</time>
      </trkpt>
      <trkpt lat="45.057560" lon="5.149746">
        <ele>234.611605</ele>
        <time>2017-06-05T07:43:34.000Z</time>
      </trkpt>
      <trkpt lat="45.057460" lon="5.149633">
        <ele>234.572585</ele>
        <time>2017-06-05T07:43:37.000Z</time>
      </trkpt>
      <trkpt lat="45.057358" lon="5.149520">
        <ele>234.555755</ele>
        <time>2017-06-05T07:43:40.000Z</time>
      </trkpt>
      <trkpt lat="45.057285" lon="5.149433">
        <ele>234.593548</ele>
        <time>2017-06-05T07:43:42.000Z</time>
      </trkpt>
      <trkpt lat="45.057213" lon="5.149347">
        <ele>234.630858</ele>
        <time>2017-06-05T07:43:44.000Z</time>
      </trkpt>
      <trkpt lat="45.057137" lon="5.149261">
        <ele>234.669392</ele>
        <time>2017-06-05T07:43:46.000Z</time>
      </trkpt>
      <trkpt lat="45.057068" lon="5.149168">
        <ele>234.707124</ele>
        <time>2017-06-05T07:43:48.000Z</time>
      </trkpt>
      <trkpt lat="45.056988" lon="5.149085">
        <ele>234.746406</ele>
        <time>2017-06-05T07:43:50.000Z</time>
      </trkpt>
      <trkpt lat="45.056880" lon="5.148971">
        <ele>234.799761</ele>
        <time>2017-06-05T07:43:53.000Z</time>
      </trkpt>
      <trkpt lat="45.056774" lon="5.148858">
        <ele>234.852315</ele>
        <time>2017-06-05T07:43:56.000Z</time>
      </trkpt>
      <trkpt lat="45.056680" lon="5.148757">
        <ele>234.899053</ele>
        <time>2017-06-05T07:43:59.000Z</time>
      </trkpt>
      <trkpt lat="45.056595" lon="5.148642">
        <ele>234.945619</ele>
        <time>2017-06-05T07:44:02.000Z</time>
      </trkpt>
      <trkpt lat="45.056572" lon="5.148489">
        <ele>234.989382</ele>
        <time>2017-06-05T07:44:05.000Z</time>
      </trkpt>
      <trkpt lat="45.056590" lon="5.148325">
        <ele>235.035815</ele>
        <time>2017-06-05T07:44:08.000Z</time>
      </trkpt>
      <trkpt lat="45.056644" lon="5.148176">
        <ele>235.082667</ele>
        <time>2017-06-05T07:44:11.000Z</time>
      </trkpt>
      <trkpt lat="45.056713" lon="5.148049">
        <ele>235.127492</ele>
        <time>2017-06-05T07:44:14.000Z</time>
      </trkpt>
      <trkpt lat="45.056774" lon="5.147916">
        <ele>235.171856</ele>
        <time>2017-06-05T07:44:17.000Z</time>
      </trkpt>
      <trkpt lat="45.056843" lon="5.147784">
        <ele>235.217797</ele>
        <time>2017-06-05T07:44:20.000Z</time>
      </trkpt>
      <trkpt lat="45.056908" lon="5.147662">
        <ele>235.245853</ele>
        <time>2017-06-05T07:44:23.000Z</time>
      </trkpt>
      <trkpt lat="45.056973" lon="5.147532">
        <ele>235.165730</ele>
        <time>2017-06-05T07:44:26.000Z</time>
      </trkpt>
      <trkpt lat="45.057040" lon="5.147406">
        <ele>235.086393</ele>
        <time>2017-06-05T07:44:29.000Z</time>
      </trkpt>
      <trkpt lat="45.057102" lon="5.147291">
        <ele>235.013617</ele>
        <time>2017-06-05T07:44:32.000Z</time>
      </trkpt>
      <trkpt lat="45.057180" lon="5.147165">
        <ele>234.929336</ele>
        <time>2017-06-05T07:44:36.000Z</time>
      </trkpt>
      <trkpt lat="45.057247" lon="5.147039">
        <ele>234.849999</ele>
        <time>2017-06-05T07:44:40.000Z</time>
      </trkpt>
      <trkpt lat="45.057312" lon="5.146924">
        <ele>234.775907</ele>
        <time>2017-06-05T07:44:43.000Z</time>
      </trkpt>
      <trkpt lat="45.057384" lon="5.146783">
        <ele>234.688384</ele>
        <time>2017-06-05T07:44:46.000Z</time>
      </trkpt>
      <trkpt lat="45.057438" lon="5.146648">
        <ele>234.610339</ele>
        <time>2017-06-05T07:44:49.000Z</time>
      </trkpt>
      <trkpt lat="45.057407" lon="5.146485">
        <ele>234.525420</ele>
        <time>2017-06-05T07:44:52.000Z</time>
      </trkpt>
      <trkpt lat="45.057346" lon="5.146388">
        <ele>234.460089</ele>
        <time>2017-06-05T07:44:54.000Z</time>
      </trkpt>
      <trkpt lat="45.057274" lon="5.146300">
        <ele>234.392347</ele>
        <time>2017-06-05T07:44:56.000Z</time>
      </trkpt>
      <trkpt lat="45.057205" lon="5.146210">
        <ele>234.325531</ele>
        <time>2017-06-05T07:44:58.000Z</time>
      </trkpt>
      <trkpt lat="45.057140" lon="5.146117">
        <ele>234.259717</ele>
        <time>2017-06-05T07:45:00.000Z</time>
      </trkpt>
      <trkpt lat="45.057050" lon="5.145986">
        <ele>234.167788</ele>
        <time>2017-06-05T07:45:03.000Z</time>
      </trkpt>
      <trkpt lat="45.056946" lon="5.145859">
        <ele>234.069976</ele>
        <time>2017-06-05T07:45:06.000Z</time>
      </trkpt>
      <trkpt lat="45.056885" lon="5.145766">
        <ele>234.006133</ele>
        <time>2017-06-05T07:45:08.000Z</time>
      </trkpt>
      <trkpt lat="45.056778" lon="5.145647">
        <ele>233.966888</ele>
        <time>2017-06-05T07:45:11.000Z</time>
      </trkpt>
      <trkpt lat="45.056680" lon="5.145544">
        <ele>233.956870</ele>
        <time>2017-06-05T07:45:14.000Z</time>
      </trkpt>
      <trkpt lat="45.056576" lon="5.145430">
        <ele>233.946075</ele>
        <time>2017-06-05T07:45:17.000Z</time>
      </trkpt>
      <trkpt lat="45.056477" lon="5.145320">
        <ele>233.935746</ele>
        <time>2017-06-05T07:45:20.000Z</time>
      </trkpt>
      <trkpt lat="45.056377" lon="5.145202">
        <ele>233.925061</ele>
        <time>2017-06-05T07:45:23.000Z</time>
      </trkpt>
      <trkpt lat="45.056286" lon="5.145073">
        <ele>233.914491</ele>
        <time>2017-06-05T07:45:26.000Z</time>
      </trkpt>
      <trkpt lat="45.056183" lon="5.144949">
        <ele>233.903394</ele>
        <time>2017-06-05T07:45:29.000Z</time>
      </trkpt>
      <trkpt lat="45.056107" lon="5.144866">
        <ele>233.895515</ele>
        <time>2017-06-05T07:45:31.000Z</time>
      </trkpt>
      <trkpt lat="45.056000" lon="5.144758">
        <ele>233.884730</ele>
        <time>2017-06-05T07:45:34.000Z</time>
      </trkpt>
      <trkpt lat="45.055885" lon="5.144654">
        <ele>233.873530</ele>
        <time>2017-06-05T07:45:37.000Z</time>
      </trkpt>
      <trkpt lat="45.055810" lon="5.144588">
        <ele>233.866281</ele>
        <time>2017-06-05T07:45:39.000Z</time>
      </trkpt>
      <trkpt lat="45.055730" lon="5.144522">
        <ele>233.858682</ele>
        <time>2017-06-05T07:45:41.000Z</time>
      </trkpt>
      <trkpt lat="45.055645" lon="5.144454">
        <ele>233.850669</ele>
        <time>2017-06-05T07:45:43.000Z</time>
      </trkpt>
      <trkpt lat="45.055565" lon="5.144379">
        <ele>233.842793</ele>
        <time>2017-06-05T07:45:45.000Z</time>
      </trkpt>
      <trkpt lat="45.055480" lon="5.144293">
        <ele>233.834218</ele>
        <time>2017-06-05T07:45:47.000Z</time>
      </trkpt>
      <trkpt lat="45.055410" lon="5.144211">
        <ele>233.826723</ele>
        <time>2017-06-05T07:45:49.000Z</time>
      </trkpt>
      <trkpt lat="45.055330" lon="5.144129">
        <ele>233.798478</ele>
        <time>2017-06-05T07:45:51.000Z</time>
      </trkpt>
      <trkpt lat="45.055225" lon="5.144010">
        <ele>233.760014</ele>
        <time>2017-06-05T07:45:54.000Z</time>
      </trkpt>
      <trkpt lat="45.055145" lon="5.143930">
        <ele>233.732004</ele>
        <time>2017-06-05T07:45:56.000Z</time>
      </trkpt>
      <trkpt lat="45.055073" lon="5.143828">
        <ele>233.702875</ele>
        <time>2017-06-05T07:45:58.000Z</time>
      </trkpt>
      <trkpt lat="45.055004" lon="5.143732">
        <ele>233.675208</ele>
        <time>2017-06-05T07:46:00.000Z</time>
      </trkpt>
      <trkpt lat="45.054935" lon="5.143627">
        <ele>233.646238</ele>
        <time>2017-06-05T07:46:02.000Z</time>
      </trkpt>
      <trkpt lat="45.054880" lon="5.143527">
        <ele>233.620636</ele>
        <time>2017-06-05T07:46:04.000Z</time>
      </trkpt>
      <trkpt lat="45.054810" lon="5.143426">
        <ele>233.592053</ele>
        <time>2017-06-05T07:46:06.000Z</time>
      </trkpt>
      <trkpt lat="45.054720" lon="5.143290">
        <ele>233.554407</ele>
        <time>2017-06-05T07:46:09.000Z</time>
      </trkpt>
      <trkpt lat="45.054650" lon="5.143199">
        <ele>233.527229</ele>
        <time>2017-06-05T07:46:11.000Z</time>
      </trkpt>
      <trkpt lat="45.054585" lon="5.143100">
        <ele>233.499925</ele>
        <time>2017-06-05T07:46:13.000Z</time>
      </trkpt>
      <trkpt lat="45.054523" lon="5.142986">
        <ele>233.470861</ele>
        <time>2017-06-05T07:46:15.000Z</time>
      </trkpt>
      <trkpt lat="45.054480" lon="5.142861">
        <ele>233.442774</ele>
        <time>2017-06-05T07:46:17.000Z</time>
      </trkpt>
      <trkpt lat="45.054455" lon="5.142727">
        <ele>233.414776</ele>
        <time>2017-06-05T07:46:19.000Z</time>
      </trkpt>
      <trkpt lat="45.054436" lon="5.142590">
        <ele>233.386572</ele>
        <time>2017-06-05T07:46:21.000Z</time>
      </trkpt>
      <trkpt lat="45.054413" lon="5.142460">
        <ele>233.359499</ele>
        <time>2017-06-05T07:46:23.000Z</time>
      </trkpt>
      <trkpt lat="45.054398" lon="5.142328">
        <ele>233.332490</ele>
        <time>2017-06-05T07:46:25.000Z</time>
      </trkpt>
      <trkpt lat="45.054375" lon="5.142158">
        <ele>233.328340</ele>
        <time>2017-06-05T07:46:28.000Z</time>
      </trkpt>
      <trkpt lat="45.054348" lon="5.142016">
        <ele>233.360060</ele>
        <time>2017-06-05T07:46:31.000Z</time>
      </trkpt>
      <trkpt lat="45.054325" lon="5.141877">
        <ele>233.390855</ele>
        <time>2017-06-05T07:46:34.000Z</time>
      </trkpt>
      <trkpt lat="45.054306" lon="5.141706">
        <ele>233.428193</ele>
        <time>2017-06-05T07:46:37.000Z</time>
      </trkpt>
      <trkpt lat="45.054276" lon="5.141523">
        <ele>233.468716</ele>
        <time>2017-06-05T07:46:40.000Z</time>
      </trkpt>
      <trkpt lat="45.054256" lon="5.141387">
        <ele>233.498680</ele>
        <time>2017-06-05T07:46:42.000Z</time>
      </trkpt>
      <trkpt lat="45.054237" lon="5.141250">
        <ele>233.528796</ele>
        <time>2017-06-05T07:46:44.000Z</time>
      </trkpt>
      <trkpt lat="45.054210" lon="5.141109">
        <ele>233.560308</ele>
        <time>2017-06-05T07:46:46.000Z</time>
      </trkpt>
      <trkpt lat="45.054190" lon="5.140977">
        <ele>233.589428</ele>
        <time>2017-06-05T07:46:48.000Z</time>
      </trkpt>
      <trkpt lat="45.054170" lon="5.140848">
        <ele>233.617916</ele>
        <time>2017-06-05T07:46:50.000Z</time>
      </trkpt>
      <trkpt lat="45.054146" lon="5.140714">
        <ele>233.647735</ele>
        <time>2017-06-05T07:46:52.000Z</time>
      </trkpt>
      <trkpt lat="45.054130" lon="5.140584">
        <ele>233.676199</ele>
        <time>2017-06-05T07:46:54.000Z</time>
      </trkpt>
      <trkpt lat="45.054115" lon="5.140451">
        <ele>233.705251</ele>
        <time>2017-06-05T07:46:56.000Z</time>
      </trkpt>
      <trkpt lat="45.054092" lon="5.140319">
        <ele>233.734577</ele>
        <time>2017-06-05T07:46:58.000Z</time>
      </trkpt>
      <trkpt lat="45.054066" lon="5.140194">
        <ele>233.762684</ele>
        <time>2017-06-05T07:47:00.000Z</time>
      </trkpt>
      <trkpt lat="45.054040" lon="5.140009">
        <ele>233.803372</ele>
        <time>2017-06-05T07:47:03.000Z</time>
      </trkpt>
      <trkpt lat="45.054012" lon="5.139882">
        <ele>233.832069</ele>
        <time>2017-06-05T07:47:05.000Z</time>
      </trkpt>
      <trkpt lat="45.053997" lon="5.139750">
        <ele>233.860908</ele>
        <time>2017-06-05T07:47:07.000Z</time>
      </trkpt>
      <trkpt lat="45.053978" lon="5.139613">
        <ele>233.790718</ele>
        <time>2017-06-05T07:47:09.000Z</time>
      </trkpt>
      <trkpt lat="45.053960" lon="5.139477">
        <ele>233.718733</ele>
        <time>2017-06-05T07:47:11.000Z</time>
      </trkpt>
      <trkpt lat="45.053940" lon="5.139331">
        <ele>233.641362</ele>
        <time>2017-06-05T07:47:13.000Z</time>
      </trkpt>
      <trkpt lat="45.053913" lon="5.139185">
        <ele>233.562847</ele>
        <time>2017-06-05T07:47:15.000Z</time>
      </trkpt>
      <trkpt lat="45.053890" lon="5.139041">
        <ele>233.486040</ele>
        <time>2017-06-05T07:47:17.000Z</time>
      </trkpt>
      <trkpt lat="45.053867" lon="5.138909">
        <ele>233.415310</ele>
        <time>2017-06-05T07:47:19.000Z</time>
      </trkpt>
      <trkpt lat="45.053850" lon="5.138776">
        <ele>233.344993</ele>
        <time>2017-06-05T07:47:21.000Z</time>
      </trkpt>
      <trkpt lat="45.053825" lon="5.138637">
        <ele>233.270372</ele>
        <time>2017-06-05T07:47:23.000Z</time>
      </trkpt>
      <trkpt lat="45.053806" lon="5.138498">
        <ele>233.196716</ele>
        <time>2017-06-05T07:47:25.000Z</time>
      </trkpt>
      <trkpt lat="45.053783" lon="5.138365">
        <ele>233.125481</ele>
        <time>2017-06-05T07:47:27.000Z</time>
      </trkpt>
      <trkpt lat="45.053764" lon="5.138224">
        <ele>233.050803</ele>
        <time>2017-06-05T07:47:29.000Z</time>
      </trkpt>
      <trkpt lat="45.053740" lon="5.138081">
        <ele>232.974337</ele>
        <time>2017-06-05T07:47:31.000Z</time>
      </trkpt>
      <trkpt lat="45.053722" lon="5.137941">
        <ele>232.900306</ele>
        <time>2017-06-05T07:47:33.000Z</time>
      </trkpt>
      <trkpt lat="45.053696" lon="5.137804">
        <ele>232.826505</ele>
        <time>2017-06-05T07:47:35.000Z</time>
      </trkpt>
      <trkpt lat="45.053677" lon="5.137663">
        <ele>232.751827</ele>
        <time>2017-06-05T07:47:37.000Z</time>
      </trkpt>
      <trkpt lat="45.053654" lon="5.137521">
        <ele>232.676035</ele>
        <time>2017-06-05T07:47:39.000Z</time>
      </trkpt>
      <trkpt lat="45.053630" lon="5.137377">
        <ele>232.599062</ele>
        <time>2017-06-05T07:47:41.000Z</time>
      </trkpt>
      <trkpt lat="45.053616" lon="5.137243">
        <ele>232.530302</ele>
        <time>2017-06-05T07:47:43.000Z</time>
      </trkpt>
      <trkpt lat="45.053596" lon="5.137105">
        <ele>232.471854</ele>
        <time>2017-06-05T07:47:45.000Z</time>
      </trkpt>
      <trkpt lat="45.053574" lon="5.136963">
        <ele>232.411538</ele>
        <time>2017-06-05T07:47:47.000Z</time>
      </trkpt>
      <trkpt lat="45.053550" lon="5.136822">
        <ele>232.351364</ele>
        <time>2017-06-05T07:47:49.000Z</time>
      </trkpt>
      <trkpt lat="45.053528" lon="5.136674">
        <ele>232.288614</ele>
        <time>2017-06-05T07:47:51.000Z</time>
      </trkpt>
      <trkpt lat="45.053510" lon="5.136533">
        <ele>232.229166</ele>
        <time>2017-06-05T07:47:53.000Z</time>
      </trkpt>
      <trkpt lat="45.053493" lon="5.136396">
        <ele>232.171455</ele>
        <time>2017-06-05T07:47:55.000Z</time>
      </trkpt>
      <trkpt lat="45.053470" lon="5.136257">
        <ele>232.112223</ele>
        <time>2017-06-05T07:47:57.000Z</time>
      </trkpt>
      <trkpt lat="45.053450" lon="5.136119">
        <ele>232.053775</ele>
        <time>2017-06-05T07:47:59.000Z</time>
      </trkpt>
      <trkpt lat="45.053420" lon="5.135976">
        <ele>231.991883</ele>
        <time>2017-06-05T07:48:01.000Z</time>
      </trkpt>
      <trkpt lat="45.053400" lon="5.135838">
        <ele>231.933435</ele>
        <time>2017-06-05T07:48:03.000Z</time>
      </trkpt>
      <trkpt lat="45.053375" lon="5.135700">
        <ele>231.874326</ele>
        <time>2017-06-05T07:48:05.000Z</time>
      </trkpt>
      <trkpt lat="45.053352" lon="5.135563">
        <ele>231.815902</ele>
        <time>2017-06-05T07:48:07.000Z</time>
      </trkpt>
      <trkpt lat="45.053333" lon="5.135435">
        <ele>231.761635</ele>
        <time>2017-06-05T07:48:09.000Z</time>
      </trkpt>
      <trkpt lat="45.053318" lon="5.135305">
        <ele>231.706984</ele>
        <time>2017-06-05T07:48:11.000Z</time>
      </trkpt>
      <trkpt lat="45.053300" lon="5.135173">
        <ele>231.651206</ele>
        <time>2017-06-05T07:48:13.000Z</time>
      </trkpt>
      <trkpt lat="45.053276" lon="5.135039">
        <ele>231.593851</ele>
        <time>2017-06-05T07:48:15.000Z</time>
      </trkpt>
      <trkpt lat="45.053246" lon="5.134911">
        <ele>231.537897</ele>
        <time>2017-06-05T07:48:17.000Z</time>
      </trkpt>
      <trkpt lat="45.053204" lon="5.134784">
        <ele>231.480669</ele>
        <time>2017-06-05T07:48:19.000Z</time>
      </trkpt>
      <trkpt lat="45.053154" lon="5.134662">
        <ele>231.479124</ele>
        <time>2017-06-05T07:48:21.000Z</time>
      </trkpt>
      <trkpt lat="45.053104" lon="5.134542">
        <ele>231.477598</ele>
        <time>2017-06-05T07:48:23.000Z</time>
      </trkpt>
      <trkpt lat="45.053050" lon="5.134417">
        <ele>231.475993</ele>
        <time>2017-06-05T07:48:25.000Z</time>
      </trkpt>
      <trkpt lat="45.052998" lon="5.134280">
        <ele>231.474290</ele>
        <time>2017-06-05T07:48:27.000Z</time>
      </trkpt>
      <trkpt lat="45.052950" lon="5.134150">
        <ele>231.472683</ele>
        <time>2017-06-05T07:48:29.000Z</time>
      </trkpt>
      <trkpt lat="45.052910" lon="5.134001">
        <ele>231.470937</ele>
        <time>2017-06-05T07:48:31.000Z</time>
      </trkpt>
      <trkpt lat="45.052880" lon="5.133859">
        <ele>231.469314</ele>
        <time>2017-06-05T07:48:33.000Z</time>
      </trkpt>
      <trkpt lat="45.052860" lon="5.133712">
        <ele>231.467674</ele>
        <time>2017-06-05T07:48:35.000Z</time>
      </trkpt>
      <trkpt lat="45.052850" lon="5.133560">
        <ele>231.466002</ele>
        <time>2017-06-05T07:48:37.000Z</time>
      </trkpt>
      <trkpt lat="45.052850" lon="5.133404">
        <ele>231.464293</ele>
        <time>2017-06-05T07:48:39.000Z</time>
      </trkpt>
      <trkpt lat="45.052853" lon="5.133254">
        <ele>231.462649</ele>
        <time>2017-06-05T07:48:41.000Z</time>
      </trkpt>
      <trkpt lat="45.052856" lon="5.133105">
        <ele>231.461016</ele>
        <time>2017-06-05T07:48:43.000Z</time>
      </trkpt>
      <trkpt lat="45.052853" lon="5.132954">
        <ele>231.459362</ele>
        <time>2017-06-05T07:48:45.000Z</time>
      </trkpt>
      <trkpt lat="45.052853" lon="5.132803">
        <ele>231.457708</ele>
        <time>2017-06-05T07:48:47.000Z</time>
      </trkpt>
      <trkpt lat="45.052853" lon="5.132657">
        <ele>231.456108</ele>
        <time>2017-06-05T07:48:49.000Z</time>
      </trkpt>
      <trkpt lat="45.052856" lon="5.132510">
        <ele>231.454498</ele>
        <time>2017-06-05T07:48:51.000Z</time>
      </trkpt>
      <trkpt lat="45.052853" lon="5.132367">
        <ele>231.452931</ele>
        <time>2017-06-05T07:48:53.000Z</time>
      </trkpt>
      <trkpt lat="45.052856" lon="5.132228">
        <ele>231.448298</ele>
        <time>2017-06-05T07:48:55.000Z</time>
      </trkpt>
      <trkpt lat="45.052860" lon="5.132092">
        <ele>231.443493</ele>
        <time>2017-06-05T07:48:57.000Z</time>
      </trkpt>
      <trkpt lat="45.052856" lon="5.131951">
        <ele>231.438513</ele>
        <time>2017-06-05T07:48:59.000Z</time>
      </trkpt>
      <trkpt lat="45.052856" lon="5.131811">
        <ele>231.433572</ele>
        <time>2017-06-05T07:49:01.000Z</time>
      </trkpt>
      <trkpt lat="45.052853" lon="5.131659">
        <ele>231.428205</ele>
        <time>2017-06-05T07:49:03.000Z</time>
      </trkpt>
      <trkpt lat="45.052845" lon="5.131513">
        <ele>231.423037</ele>
        <time>2017-06-05T07:49:05.000Z</time>
      </trkpt>
      <trkpt lat="45.052830" lon="5.131361">
        <ele>231.417620</ele>
        <time>2017-06-05T07:49:07.000Z</time>
      </trkpt>
      <trkpt lat="45.052810" lon="5.131217">
        <ele>231.412441</ele>
        <time>2017-06-05T07:49:09.000Z</time>
      </trkpt>
      <trkpt lat="45.052795" lon="5.131082">
        <ele>231.407617</ele>
        <time>2017-06-05T07:49:11.000Z</time>
      </trkpt>
      <trkpt lat="45.052790" lon="5.130942">
        <ele>231.402670</ele>
        <time>2017-06-05T07:49:13.000Z</time>
      </trkpt>
      <trkpt lat="45.052788" lon="5.130798">
        <ele>231.397587</ele>
        <time>2017-06-05T07:49:15.000Z</time>
      </trkpt>
      <trkpt lat="45.052780" lon="5.130660">
        <ele>231.392700</ele>
        <time>2017-06-05T07:49:17.000Z</time>
      </trkpt>
      <trkpt lat="45.052780" lon="5.130526">
        <ele>231.387971</ele>
        <time>2017-06-05T07:49:19.000Z</time>
      </trkpt>
      <trkpt lat="45.052788" lon="5.130395">
        <ele>231.383330</ele>
        <time>2017-06-05T07:49:21.000Z</time>
      </trkpt>
      <trkpt lat="45.052803" lon="5.130252">
        <ele>231.378228</ele>
        <time>2017-06-05T07:49:23.000Z</time>
      </trkpt>
      <trkpt lat="45.052803" lon="5.130104">
        <ele>231.373004</ele>
        <time>2017-06-05T07:49:25.000Z</time>
      </trkpt>
      <trkpt lat="45.052810" lon="5.129947">
        <ele>231.367452</ele>
        <time>2017-06-05T07:49:27.000Z</time>
      </trkpt>
      <trkpt lat="45.052810" lon="5.129807">
        <ele>231.367023</ele>
        <time>2017-06-05T07:49:29.000Z</time>
      </trkpt>
      <trkpt lat="45.052814" lon="5.129668">
        <ele>231.412694</ele>
        <time>2017-06-05T07:49:31.000Z</time>
      </trkpt>
      <trkpt lat="45.052822" lon="5.129529">
        <ele>231.458478</ele>
        <time>2017-06-05T07:49:33.000Z</time>
      </trkpt>
      <trkpt lat="45.052826" lon="5.129384">
        <ele>231.506117</ele>
        <time>2017-06-05T07:49:35.000Z</time>
      </trkpt>
      <trkpt lat="45.052822" lon="5.129247">
        <ele>231.551132</ele>
        <time>2017-06-05T07:49:37.000Z</time>
      </trkpt>
      <trkpt lat="45.052826" lon="5.129108">
        <ele>231.596802</ele>
        <time>2017-06-05T07:49:39.000Z</time>
      </trkpt>
      <trkpt lat="45.052830" lon="5.128962">
        <ele>231.644769</ele>
        <time>2017-06-05T07:49:41.000Z</time>
      </trkpt>
      <trkpt lat="45.052834" lon="5.128815">
        <ele>231.693064</ele>
        <time>2017-06-05T07:49:43.000Z</time>
      </trkpt>
      <trkpt lat="45.052834" lon="5.128675">
        <ele>231.739025</ele>
        <time>2017-06-05T07:49:45.000Z</time>
      </trkpt>
      <trkpt lat="45.052840" lon="5.128535">
        <ele>231.785071</ele>
        <time>2017-06-05T07:49:47.000Z</time>
      </trkpt>
      <trkpt lat="45.052845" lon="5.128392">
        <ele>231.832075</ele>
        <time>2017-06-05T07:49:49.000Z</time>
      </trkpt>
      <trkpt lat="45.052850" lon="5.128254">
        <ele>231.877439</ele>
        <time>2017-06-05T07:49:51.000Z</time>
      </trkpt>
      <trkpt lat="45.052845" lon="5.128122">
        <ele>231.920836</ele>
        <time>2017-06-05T07:49:53.000Z</time>
      </trkpt>
      <trkpt lat="45.052845" lon="5.127988">
        <ele>231.964827</ele>
        <time>2017-06-05T07:49:55.000Z</time>
      </trkpt>
      <trkpt lat="45.052845" lon="5.127798">
        <ele>232.027203</ele>
        <time>2017-06-05T07:49:58.000Z</time>
      </trkpt>
      <trkpt lat="45.052853" lon="5.127608">
        <ele>232.089689</ele>
        <time>2017-06-05T07:50:01.000Z</time>
      </trkpt>
      <trkpt lat="45.052860" lon="5.127474">
        <ele>232.133801</ele>
        <time>2017-06-05T07:50:03.000Z</time>
      </trkpt>
      <trkpt lat="45.052860" lon="5.127329">
        <ele>232.181404</ele>
        <time>2017-06-05T07:50:05.000Z</time>
      </trkpt>
      <trkpt lat="45.052853" lon="5.127185">
        <ele>232.221874</ele>
        <time>2017-06-05T07:50:07.000Z</time>
      </trkpt>
      <trkpt lat="45.052850" lon="5.127048">
        <ele>232.256499</ele>
        <time>2017-06-05T07:50:09.000Z</time>
      </trkpt>
      <trkpt lat="45.052845" lon="5.126898">
        <ele>232.294433</ele>
        <time>2017-06-05T07:50:11.000Z</time>
      </trkpt>
      <trkpt lat="45.052845" lon="5.126764">
        <ele>232.328283</ele>
        <time>2017-06-05T07:50:13.000Z</time>
      </trkpt>
      <trkpt lat="45.052845" lon="5.126611">
        <ele>232.366933</ele>
        <time>2017-06-05T07:50:15.000Z</time>
      </trkpt>
      <trkpt lat="45.052845" lon="5.126454">
        <ele>232.406594</ele>
        <time>2017-06-05T07:50:17.000Z</time>
      </trkpt>
      <trkpt lat="45.052850" lon="5.126300">
        <ele>232.445537</ele>
        <time>2017-06-05T07:50:19.000Z</time>
      </trkpt>
      <trkpt lat="45.052853" lon="5.126149">
        <ele>232.483697</ele>
        <time>2017-06-05T07:50:21.000Z</time>
      </trkpt>
      <trkpt lat="45.052850" lon="5.125994">
        <ele>232.522867</ele>
        <time>2017-06-05T07:50:23.000Z</time>
      </trkpt>
      <trkpt lat="45.052850" lon="5.125852">
        <ele>232.558738</ele>
        <time>2017-06-05T07:50:25.000Z</time>
      </trkpt>
      <trkpt lat="45.052860" lon="5.125716">
        <ele>232.593279</ele>
        <time>2017-06-05T07:50:27.000Z</time>
      </trkpt>
      <trkpt lat="45.052870" lon="5.125587">
        <ele>232.626062</ele>
        <time>2017-06-05T07:50:29.000Z</time>
      </trkpt>
      <trkpt lat="45.052880" lon="5.125457">
        <ele>232.659096</ele>
        <time>2017-06-05T07:50:31.000Z</time>
      </trkpt>
      <trkpt lat="45.052876" lon="5.125321">
        <ele>232.693481</ele>
        <time>2017-06-05T07:50:33.000Z</time>
      </trkpt>
      <trkpt lat="45.052880" lon="5.125140">
        <ele>232.739227</ele>
        <time>2017-06-05T07:50:36.000Z</time>
      </trkpt>
      <trkpt lat="45.052887" lon="5.125002">
        <ele>232.774177</ele>
        <time>2017-06-05T07:50:38.000Z</time>
      </trkpt>
      <trkpt lat="45.052902" lon="5.124868">
        <ele>232.808450</ele>
        <time>2017-06-05T07:50:40.000Z</time>
      </trkpt>
      <trkpt lat="45.052920" lon="5.124737">
        <ele>232.841346</ele>
        <time>2017-06-05T07:50:42.000Z</time>
      </trkpt>
      <trkpt lat="45.052933" lon="5.124602">
        <ele>232.743790</ele>
        <time>2017-06-05T07:50:44.000Z</time>
      </trkpt>
      <trkpt lat="45.052944" lon="5.124462">
        <ele>232.642930</ele>
        <time>2017-06-05T07:50:46.000Z</time>
      </trkpt>
      <trkpt lat="45.052963" lon="5.124321">
        <ele>232.540152</ele>
        <time>2017-06-05T07:50:48.000Z</time>
      </trkpt>
      <trkpt lat="45.052982" lon="5.124169">
        <ele>232.429628</ele>
        <time>2017-06-05T07:50:50.000Z</time>
      </trkpt>
      <trkpt lat="45.052998" lon="5.124017">
        <ele>232.319592</ele>
        <time>2017-06-05T07:50:52.000Z</time>
      </trkpt>
      <trkpt lat="45.053005" lon="5.123860">
        <ele>232.206954</ele>
        <time>2017-06-05T07:50:54.000Z</time>
      </trkpt>
      <trkpt lat="45.053000" lon="5.123703">
        <ele>232.094426</ele>
        <time>2017-06-05T07:50:56.000Z</time>
      </trkpt>
      <trkpt lat="45.052998" lon="5.123537">
        <ele>231.975551</ele>
        <time>2017-06-05T07:50:58.000Z</time>
      </trkpt>
      <trkpt lat="45.052998" lon="5.123375">
        <ele>231.859557</ele>
        <time>2017-06-05T07:51:00.000Z</time>
      </trkpt>
      <trkpt lat="45.053000" lon="5.123226">
        <ele>231.752852</ele>
        <time>2017-06-05T07:51:02.000Z</time>
      </trkpt>
      <trkpt lat="45.052998" lon="5.123090">
        <ele>231.655453</ele>
        <time>2017-06-05T07:51:04.000Z</time>
      </trkpt>
      <trkpt lat="45.053000" lon="5.122950">
        <ele>231.555190</ele>
        <time>2017-06-05T07:51:06.000Z</time>
      </trkpt>
      <trkpt lat="45.052998" lon="5.122809">
        <ele>231.454212</ele>
        <time>2017-06-05T07:51:08.000Z</time>
      </trkpt>
      <trkpt lat="45.052994" lon="5.122673">
        <ele>231.356750</ele>
        <time>2017-06-05T07:51:10.000Z</time>
      </trkpt>
      <trkpt lat="45.052990" lon="5.122533">
        <ele>231.256426</ele>
        <time>2017-06-05T07:51:12.000Z</time>
      </trkpt>
      <trkpt lat="45.052982" lon="5.122387">
        <ele>231.151574</ele>
        <time>2017-06-05T07:51:14.000Z</time>
      </trkpt>
      <trkpt lat="45.052980" lon="5.122243">
        <ele>231.048449</ele>
        <time>2017-06-05T07:51:16.000Z</time>
      </trkpt>
      <trkpt lat="45.052967" lon="5.122096">
        <ele>230.989210</ele>
        <time>2017-06-05T07:51:18.000Z</time>
      </trkpt>
      <trkpt lat="45.052967" lon="5.121951">
        <ele>230.948876</ele>
        <time>2017-06-05T07:51:20.000Z</time>
      </trkpt>
      <trkpt lat="45.052963" lon="5.121813">
        <ele>230.910458</ele>
        <time>2017-06-05T07:51:22.000Z</time>
      </trkpt>
      <trkpt lat="45.052960" lon="5.121675">
        <ele>230.872053</ele>
        <time>2017-06-05T07:51:24.000Z</time>
      </trkpt>
      <trkpt lat="45.052956" lon="5.121542">
        <ele>230.835024</ele>
        <time>2017-06-05T07:51:26.000Z</time>
      </trkpt>
      <trkpt lat="45.052950" lon="5.121402">
        <ele>230.796010</ele>
        <time>2017-06-05T07:51:28.000Z</time>
      </trkpt>
      <trkpt lat="45.052956" lon="5.121262">
        <ele>230.756995</ele>
        <time>2017-06-05T07:51:30.000Z</time>
      </trkpt>
      <trkpt lat="45.052963" lon="5.121119">
        <ele>230.717123</ele>
        <time>2017-06-05T07:51:32.000Z</time>
      </trkpt>
      <trkpt lat="45.052970" lon="5.120976">
        <ele>230.677250</ele>
        <time>2017-06-05T07:51:34.000Z</time>
      </trkpt>
      <trkpt lat="45.052998" lon="5.120832">
        <ele>230.635705</ele>
        <time>2017-06-05T07:51:36.000Z</time>
      </trkpt>
      <trkpt lat="45.053030" lon="5.120700">
        <ele>230.596886</ele>
        <time>2017-06-05T07:51:38.000Z</time>
      </trkpt>
      <trkpt lat="45.053066" lon="5.120569">
        <ele>230.557787</ele>
        <time>2017-06-05T07:51:40.000Z</time>
      </trkpt>
      <trkpt lat="45.053110" lon="5.120432">
        <ele>230.515925</ele>
        <time>2017-06-05T07:51:42.000Z</time>
      </trkpt>
      <trkpt lat="45.053150" lon="5.120300">
        <ele>230.475973</ele>
        <time>2017-06-05T07:51:44.000Z</time>
      </trkpt>
      <trkpt lat="45.053192" lon="5.120168">
        <ele>230.435703</ele>
        <time>2017-06-05T07:51:46.000Z</time>
      </trkpt>
      <trkpt lat="45.053230" lon="5.120049">
        <ele>230.399377</ele>
        <time>2017-06-05T07:51:48.000Z</time>
      </trkpt>
      <trkpt lat="45.053270" lon="5.119912">
        <ele>230.358143</ele>
        <time>2017-06-05T07:51:50.000Z</time>
      </trkpt>
      <trkpt lat="45.053314" lon="5.119781">
        <ele>230.317795</ele>
        <time>2017-06-05T07:51:52.000Z</time>
      </trkpt>
      <trkpt lat="45.053345" lon="5.119647">
        <ele>230.313191</ele>
        <time>2017-06-05T07:51:54.000Z</time>
      </trkpt>
      <trkpt lat="45.053380" lon="5.119511">
        <ele>230.316236</ele>
        <time>2017-06-05T07:51:56.000Z</time>
      </trkpt>
      <trkpt lat="45.053413" lon="5.119375">
        <ele>230.319260</ele>
        <time>2017-06-05T07:51:58.000Z</time>
      </trkpt>
      <trkpt lat="45.053430" lon="5.119237">
        <ele>230.322207</ele>
        <time>2017-06-05T07:52:00.000Z</time>
      </trkpt>
      <trkpt lat="45.053440" lon="5.119094">
        <ele>230.325229</ele>
        <time>2017-06-05T07:52:02.000Z</time>
      </trkpt>
      <trkpt lat="45.053430" lon="5.118958">
        <ele>230.328105</ele>
        <time>2017-06-05T07:52:04.000Z</time>
      </trkpt>
      <trkpt lat="45.053402" lon="5.118830">
        <ele>230.330923</ele>
        <time>2017-06-05T07:52:06.000Z</time>
      </trkpt>
      <trkpt lat="45.053380" lon="5.118692">
        <ele>230.333899</ele>
        <time>2017-06-05T07:52:08.000Z</time>
      </trkpt>
      <trkpt lat="45.053356" lon="5.118551">
        <ele>230.336950</ele>
        <time>2017-06-05T07:52:10.000Z</time>
      </trkpt>
      <trkpt lat="45.053330" lon="5.118413">
        <ele>230.339954</ele>
        <time>2017-06-05T07:52:12.000Z</time>
      </trkpt>
      <trkpt lat="45.053307" lon="5.118280">
        <ele>230.342834</ele>
        <time>2017-06-05T07:52:14.000Z</time>
      </trkpt>
      <trkpt lat="45.053284" lon="5.118146">
        <ele>230.345734</ele>
        <time>2017-06-05T07:52:16.000Z</time>
      </trkpt>
      <trkpt lat="45.053253" lon="5.117963">
        <ele>230.349692</ele>
        <time>2017-06-05T07:52:19.000Z</time>
      </trkpt>
      <trkpt lat="45.053238" lon="5.117837">
        <ele>230.352380</ele>
        <time>2017-06-05T07:52:21.000Z</time>
      </trkpt>
      <trkpt lat="45.053207" lon="5.117657">
        <ele>230.356277</ele>
        <time>2017-06-05T07:52:24.000Z</time>
      </trkpt>
      <trkpt lat="45.053180" lon="5.117486">
        <ele>230.359962</ele>
        <time>2017-06-05T07:52:27.000Z</time>
      </trkpt>
      <trkpt lat="45.053158" lon="5.117326">
        <ele>230.363391</ele>
        <time>2017-06-05T07:52:30.000Z</time>
      </trkpt>
      <trkpt lat="45.053135" lon="5.117146">
        <ele>230.451974</ele>
        <time>2017-06-05T07:52:33.000Z</time>
      </trkpt>
      <trkpt lat="45.053097" lon="5.116962">
        <ele>230.572658</ele>
        <time>2017-06-05T07:52:36.000Z</time>
      </trkpt>
      <trkpt lat="45.053078" lon="5.116828">
        <ele>230.658699</ele>
        <time>2017-06-05T07:52:38.000Z</time>
      </trkpt>
      <trkpt lat="45.053062" lon="5.116698">
        <ele>230.741773</ele>
        <time>2017-06-05T07:52:40.000Z</time>
      </trkpt>
      <trkpt lat="45.053040" lon="5.116571">
        <ele>230.824093</ele>
        <time>2017-06-05T07:52:42.000Z</time>
      </trkpt>
      <trkpt lat="45.053010" lon="5.116389">
        <ele>230.941748</ele>
        <time>2017-06-05T07:52:45.000Z</time>
      </trkpt>
      <trkpt lat="45.052990" lon="5.116263">
        <ele>231.023048</ele>
        <time>2017-06-05T07:52:47.000Z</time>
      </trkpt>
      <trkpt lat="45.052960" lon="5.116089">
        <ele>231.135803</ele>
        <time>2017-06-05T07:52:50.000Z</time>
      </trkpt>
      <trkpt lat="45.052937" lon="5.115926">
        <ele>231.240446</ele>
        <time>2017-06-05T07:52:53.000Z</time>
      </trkpt>
      <trkpt lat="45.052910" lon="5.115737">
        <ele>231.361838</ele>
        <time>2017-06-05T07:52:56.000Z</time>
      </trkpt>
      <trkpt lat="45.052890" lon="5.115609">
        <ele>231.444367</ele>
        <time>2017-06-05T07:52:58.000Z</time>
      </trkpt>
      <trkpt lat="45.052868" lon="5.115428">
        <ele>231.559989</ele>
        <time>2017-06-05T07:53:01.000Z</time>
      </trkpt>
      <trkpt lat="45.052834" lon="5.115257">
        <ele>231.671824</ele>
        <time>2017-06-05T07:53:04.000Z</time>
      </trkpt>
      <trkpt lat="45.052803" lon="5.115080">
        <ele>231.786626</ele>
        <time>2017-06-05T07:53:07.000Z</time>
      </trkpt>
      <trkpt lat="45.052788" lon="5.114902">
        <ele>231.899480</ele>
        <time>2017-06-05T07:53:10.000Z</time>
      </trkpt>
      <trkpt lat="45.052765" lon="5.114727">
        <ele>231.831566</ele>
        <time>2017-06-05T07:53:13.000Z</time>
      </trkpt>
      <trkpt lat="45.052746" lon="5.114596">
        <ele>231.574498</ele>
        <time>2017-06-05T07:53:15.000Z</time>
      </trkpt>
      <trkpt lat="45.052727" lon="5.114456">
        <ele>231.300460</ele>
        <time>2017-06-05T07:53:17.000Z</time>
      </trkpt>
      <trkpt lat="45.052696" lon="5.114268">
        <ele>230.929360</ele>
        <time>2017-06-05T07:53:20.000Z</time>
      </trkpt>
      <trkpt lat="45.052677" lon="5.114142">
        <ele>230.681698</ele>
        <time>2017-06-05T07:53:22.000Z</time>
      </trkpt>
      <trkpt lat="45.052666" lon="5.113951">
        <ele>230.313327</ele>
        <time>2017-06-05T07:53:25.000Z</time>
      </trkpt>
      <trkpt lat="45.052666" lon="5.113817">
        <ele>230.055743</ele>
        <time>2017-06-05T07:53:27.000Z</time>
      </trkpt>
      <trkpt lat="45.052680" lon="5.113679">
        <ele>229.787749</ele>
        <time>2017-06-05T07:53:29.000Z</time>
      </trkpt>
      <trkpt lat="45.052685" lon="5.113537">
        <ele>229.514448</ele>
        <time>2017-06-05T07:53:31.000Z</time>
      </trkpt>
      <trkpt lat="45.052708" lon="5.113390">
        <ele>229.225027</ele>
        <time>2017-06-05T07:53:33.000Z</time>
      </trkpt>
      <trkpt lat="45.052734" lon="5.113229">
        <ele>228.907559</ele>
        <time>2017-06-05T07:53:35.000Z</time>
      </trkpt>
      <trkpt lat="45.052760" lon="5.113048">
        <ele>228.552510</ele>
        <time>2017-06-05T07:53:37.000Z</time>
      </trkpt>
      <trkpt lat="45.052776" lon="5.112859">
        <ele>228.186603</ele>
        <time>2017-06-05T07:53:39.000Z</time>
      </trkpt>
      <trkpt lat="45.052780" lon="5.112670">
        <ele>227.823132</ele>
        <time>2017-06-05T07:53:41.000Z</time>
      </trkpt>
      <trkpt lat="45.052784" lon="5.112478">
        <ele>227.453896</ele>
        <time>2017-06-05T07:53:43.000Z</time>
      </trkpt>
      <trkpt lat="45.052795" lon="5.112276">
        <ele>227.069970</ele>
        <time>2017-06-05T07:53:45.000Z</time>
      </trkpt>
      <trkpt lat="45.052773" lon="5.112053">
        <ele>226.915563</ele>
        <time>2017-06-05T07:53:47.000Z</time>
      </trkpt>
      <trkpt lat="45.052708" lon="5.111843">
        <ele>226.758339</ele>
        <time>2017-06-05T07:53:49.000Z</time>
      </trkpt>
      <trkpt lat="45.052616" lon="5.111674">
        <ele>226.612030</ele>
        <time>2017-06-05T07:53:51.000Z</time>
      </trkpt>
      <trkpt lat="45.052540" lon="5.111520">
        <ele>226.483207</ele>
        <time>2017-06-05T07:53:53.000Z</time>
      </trkpt>
      <trkpt lat="45.052464" lon="5.111379">
        <ele>226.361586</ele>
        <time>2017-06-05T07:53:55.000Z</time>
      </trkpt>
      <trkpt lat="45.052433" lon="5.111244">
        <ele>226.264241</ele>
        <time>2017-06-05T07:53:57.000Z</time>
      </trkpt>
      <trkpt lat="45.052433" lon="5.111080">
        <ele>226.151777</ele>
        <time>2017-06-05T07:54:00.000Z</time>
      </trkpt>
      <trkpt lat="45.052430" lon="5.110940">
        <ele>226.055726</ele>
        <time>2017-06-05T07:54:06.000Z</time>
      </trkpt>
      <trkpt lat="45.052350" lon="5.110859">
        <ele>225.960250</ele>
        <time>2017-06-05T07:54:11.000Z</time>
      </trkpt>
      <trkpt lat="45.052303" lon="5.110723">
        <ele>225.856425</ele>
        <time>2017-06-05T07:54:15.000Z</time>
      </trkpt>
      <trkpt lat="45.052258" lon="5.110576">
        <ele>225.746562</ele>
        <time>2017-06-05T07:54:19.000Z</time>
      </trkpt>
      <trkpt lat="45.052204" lon="5.110471">
        <ele>225.657498</ele>
        <time>2017-06-05T07:54:22.000Z</time>
      </trkpt>
      <trkpt lat="45.052143" lon="5.110344">
        <ele>225.552184</ele>
        <time>2017-06-05T07:54:26.000Z</time>
      </trkpt>
      <trkpt lat="45.052070" lon="5.110231">
        <ele>225.447179</ele>
        <time>2017-06-05T07:54:30.000Z</time>
      </trkpt>
      <trkpt lat="45.052000" lon="5.110118">
        <ele>225.344116</ele>
        <time>2017-06-05T07:54:35.000Z</time>
      </trkpt>
      <trkpt lat="45.051930" lon="5.110002">
        <ele>225.484759</ele>
        <time>2017-06-05T07:54:40.000Z</time>
      </trkpt>
      <trkpt lat="45.051860" lon="5.109887">
        <ele>225.672121</ele>
        <time>2017-06-05T07:54:45.000Z</time>
      </trkpt>
      <trkpt lat="45.051792" lon="5.109770">
        <ele>225.859121</ele>
        <time>2017-06-05T07:54:50.000Z</time>
      </trkpt>
      <trkpt lat="45.051716" lon="5.109659">
        <ele>226.049913</ele>
        <time>2017-06-05T07:54:55.000Z</time>
      </trkpt>
      <trkpt lat="45.051655" lon="5.109549">
        <ele>226.222517</ele>
        <time>2017-06-05T07:54:59.000Z</time>
      </trkpt>
      <trkpt lat="45.051590" lon="5.109429">
        <ele>226.409157</ele>
        <time>2017-06-05T07:55:03.000Z</time>
      </trkpt>
      <trkpt lat="45.051575" lon="5.109302">
        <ele>226.568087</ele>
        <time>2017-06-05T07:55:06.000Z</time>
      </trkpt>
      <trkpt lat="45.051563" lon="5.109159">
        <ele>226.745831</ele>
        <time>2017-06-05T07:55:09.000Z</time>
      </trkpt>
      <trkpt lat="45.051556" lon="5.109014">
        <ele>226.925221</ele>
        <time>2017-06-05T07:55:12.000Z</time>
      </trkpt>
      <trkpt lat="45.051514" lon="5.108892">
        <ele>227.092731</ele>
        <time>2017-06-05T07:55:15.000Z</time>
      </trkpt>
      <trkpt lat="45.051450" lon="5.108773">
        <ele>227.277330</ele>
        <time>2017-06-05T07:55:18.000Z</time>
      </trkpt>
      <trkpt lat="45.051414" lon="5.108634">
        <ele>227.460062</ele>
        <time>2017-06-05T07:55:21.000Z</time>
      </trkpt>
      <trkpt lat="45.051403" lon="5.108488">
        <ele>227.641291</ele>
        <time>2017-06-05T07:55:24.000Z</time>
      </trkpt>
      <trkpt lat="45.051400" lon="5.108354">
        <ele>227.806769</ele>
        <time>2017-06-05T07:55:27.000Z</time>
      </trkpt>
      <trkpt lat="45.051376" lon="5.108188">
        <ele>228.015909</ele>
        <time>2017-06-05T07:55:31.000Z</time>
      </trkpt>
      <trkpt lat="45.051365" lon="5.108061">
        <ele>228.173838</ele>
        <time>2017-06-05T07:55:34.000Z</time>
      </trkpt>
      <trkpt lat="45.051353" lon="5.107900">
        <ele>228.373662</ele>
        <time>2017-06-05T07:55:38.000Z</time>
      </trkpt>
      <trkpt lat="45.051342" lon="5.107769">
        <ele>228.436962</ele>
        <time>2017-06-05T07:55:41.000Z</time>
      </trkpt>
      <trkpt lat="45.051340" lon="5.107613">
        <ele>228.343237</ele>
        <time>2017-06-05T07:55:45.000Z</time>
      </trkpt>
      <trkpt lat="45.051330" lon="5.107479">
        <ele>228.262294</ele>
        <time>2017-06-05T07:55:49.000Z</time>
      </trkpt>
      <trkpt lat="45.051247" lon="5.107411">
        <ele>228.180751</ele>
        <time>2017-06-05T07:55:53.000Z</time>
      </trkpt>
      <trkpt lat="45.051160" lon="5.107387">
        <ele>228.105383</ele>
        <time>2017-06-05T07:55:56.000Z</time>
      </trkpt>
      <trkpt lat="45.051067" lon="5.107369">
        <ele>228.025570</ele>
        <time>2017-06-05T07:55:59.000Z</time>
      </trkpt>
      <trkpt lat="45.050960" lon="5.107348">
        <ele>227.933719</ele>
        <time>2017-06-05T07:56:03.000Z</time>
      </trkpt>
      <trkpt lat="45.050850" lon="5.107339">
        <ele>227.840030</ele>
        <time>2017-06-05T07:56:08.000Z</time>
      </trkpt>
      <trkpt lat="45.050766" lon="5.107426">
        <ele>227.751527</ele>
        <time>2017-06-05T07:56:14.000Z</time>
      </trkpt>
      <trkpt lat="45.050740" lon="5.107574">
        <ele>227.659914</ele>
        <time>2017-06-05T07:56:18.000Z</time>
      </trkpt>
      <trkpt lat="45.050724" lon="5.107727">
        <ele>227.567003</ele>
        <time>2017-06-05T07:56:22.000Z</time>
      </trkpt>
      <trkpt lat="45.050710" lon="5.107854">
        <ele>227.489789</ele>
        <time>2017-06-05T07:56:25.000Z</time>
      </trkpt>
      <trkpt lat="45.050690" lon="5.107992">
        <ele>227.405164</ele>
        <time>2017-06-05T07:56:28.000Z</time>
      </trkpt>
      <trkpt lat="45.050674" lon="5.108131">
        <ele>227.320564</ele>
        <time>2017-06-05T07:56:31.000Z</time>
      </trkpt>
      <trkpt lat="45.050660" lon="5.108260">
        <ele>227.242163</ele>
        <time>2017-06-05T07:56:34.000Z</time>
      </trkpt>
      <trkpt lat="45.050636" lon="5.108388">
        <ele>227.162609</ele>
        <time>2017-06-05T07:56:37.000Z</time>
      </trkpt>
      <trkpt lat="45.050620" lon="5.108521">
        <ele>227.081564</ele>
        <time>2017-06-05T07:56:40.000Z</time>
      </trkpt>
      <trkpt lat="45.050600" lon="5.108650">
        <ele>227.002227</ele>
        <time>2017-06-05T07:56:43.000Z</time>
      </trkpt>
      <trkpt lat="45.050575" lon="5.108805">
        <ele>226.922729</ele>
        <time>2017-06-05T07:56:46.000Z</time>
      </trkpt>
      <trkpt lat="45.050540" lon="5.108964">
        <ele>226.870561</ele>
        <time>2017-06-05T07:56:49.000Z</time>
      </trkpt>
      <trkpt lat="45.050434" lon="5.109036">
        <ele>226.818430</ele>
        <time>2017-06-05T07:56:52.000Z</time>
      </trkpt>
      <trkpt lat="45.050312" lon="5.108968">
        <ele>226.760293</ele>
        <time>2017-06-05T07:56:56.000Z</time>
      </trkpt>
      <trkpt lat="45.050224" lon="5.108910">
        <ele>226.717252</ele>
        <time>2017-06-05T07:56:57.000Z</time>
      </trkpt>
      <trkpt lat="45.050130" lon="5.108865">
        <ele>226.673254</ele>
        <time>2017-06-05T07:56:59.000Z</time>
      </trkpt>
      <trkpt lat="45.050040" lon="5.108830">
        <ele>226.631870</ele>
        <time>2017-06-05T07:57:01.000Z</time>
      </trkpt>
      <trkpt lat="45.049920" lon="5.108783">
        <ele>226.576663</ele>
        <time>2017-06-05T07:57:04.000Z</time>
      </trkpt>
      <trkpt lat="45.049830" lon="5.108751">
        <ele>226.535518</ele>
        <time>2017-06-05T07:57:06.000Z</time>
      </trkpt>
      <trkpt lat="45.049706" lon="5.108668">
        <ele>226.474700</ele>
        <time>2017-06-05T07:57:09.000Z</time>
      </trkpt>
      <trkpt lat="45.049630" lon="5.108585">
        <ele>226.432137</ele>
        <time>2017-06-05T07:57:11.000Z</time>
      </trkpt>
      <trkpt lat="45.049545" lon="5.108526">
        <ele>226.390161</ele>
        <time>2017-06-05T07:57:13.000Z</time>
      </trkpt>
      <trkpt lat="45.049460" lon="5.108464">
        <ele>226.347763</ele>
        <time>2017-06-05T07:57:15.000Z</time>
      </trkpt>
      <trkpt lat="45.049380" lon="5.108388">
        <ele>226.305043</ele>
        <time>2017-06-05T07:57:17.000Z</time>
      </trkpt>
      <trkpt lat="45.049267" lon="5.108290">
        <ele>226.246283</ele>
        <time>2017-06-05T07:57:20.000Z</time>
      </trkpt>
      <trkpt lat="45.049180" lon="5.108241">
        <ele>226.204766</ele>
        <time>2017-06-05T07:57:22.000Z</time>
      </trkpt>
      <trkpt lat="45.049088" lon="5.108206">
        <ele>226.162526</ele>
        <time>2017-06-05T07:57:24.000Z</time>
      </trkpt>
      <trkpt lat="45.048992" lon="5.108181">
        <ele>226.152187</ele>
        <time>2017-06-05T07:57:26.000Z</time>
      </trkpt>
      <trkpt lat="45.048893" lon="5.108160">
        <ele>226.170227</ele>
        <time>2017-06-05T07:57:28.000Z</time>
      </trkpt>
      <trkpt lat="45.048790" lon="5.108147">
        <ele>226.188862</ele>
        <time>2017-06-05T07:57:30.000Z</time>
      </trkpt>
      <trkpt lat="45.048690" lon="5.108147">
        <ele>226.206882</ele>
        <time>2017-06-05T07:57:32.000Z</time>
      </trkpt>
      <trkpt lat="45.048590" lon="5.108156">
        <ele>226.224939</ele>
        <time>2017-06-05T07:57:34.000Z</time>
      </trkpt>
      <trkpt lat="45.048492" lon="5.108204">
        <ele>226.243626</ele>
        <time>2017-06-05T07:57:36.000Z</time>
      </trkpt>
      <trkpt lat="45.048400" lon="5.108266">
        <ele>226.261988</ele>
        <time>2017-06-05T07:57:38.000Z</time>
      </trkpt>
      <trkpt lat="45.048317" lon="5.108334">
        <ele>226.279270</ele>
        <time>2017-06-05T07:57:40.000Z</time>
      </trkpt>
      <trkpt lat="45.048218" lon="5.108337">
        <ele>226.297114</ele>
        <time>2017-06-05T07:57:42.000Z</time>
      </trkpt>
      <trkpt lat="45.048120" lon="5.108305">
        <ele>226.315238</ele>
        <time>2017-06-05T07:57:44.000Z</time>
      </trkpt>
      <trkpt lat="45.048023" lon="5.108269">
        <ele>226.333309</ele>
        <time>2017-06-05T07:57:46.000Z</time>
      </trkpt>
      <trkpt lat="45.047928" lon="5.108237">
        <ele>226.350906</ele>
        <time>2017-06-05T07:57:48.000Z</time>
      </trkpt>
      <trkpt lat="45.047832" lon="5.108242">
        <ele>226.368218</ele>
        <time>2017-06-05T07:57:50.000Z</time>
      </trkpt>
      <trkpt lat="45.047703" lon="5.108288">
        <ele>226.392190</ele>
        <time>2017-06-05T07:57:53.000Z</time>
      </trkpt>
      <trkpt lat="45.047600" lon="5.108293">
        <ele>226.410762</ele>
        <time>2017-06-05T07:57:55.000Z</time>
      </trkpt>
      <trkpt lat="45.047512" lon="5.108271">
        <ele>226.426866</ele>
        <time>2017-06-05T07:57:57.000Z</time>
      </trkpt>
      <trkpt lat="45.047417" lon="5.108243">
        <ele>226.444352</ele>
        <time>2017-06-05T07:57:59.000Z</time>
      </trkpt>
      <trkpt lat="45.047314" lon="5.108228">
        <ele>226.463011</ele>
        <time>2017-06-05T07:58:01.000Z</time>
      </trkpt>
      <trkpt lat="45.047210" lon="5.108234">
        <ele>226.407030</ele>
        <time>2017-06-05T07:58:03.000Z</time>
      </trkpt>
      <trkpt lat="45.047100" lon="5.108249">
        <ele>226.327571</ele>
        <time>2017-06-05T07:58:05.000Z</time>
      </trkpt>
      <trkpt lat="45.047000" lon="5.108249">
        <ele>226.255668</ele>
        <time>2017-06-05T07:58:07.000Z</time>
      </trkpt>
      <trkpt lat="45.046906" lon="5.108237">
        <ele>226.187805</ele>
        <time>2017-06-05T07:58:09.000Z</time>
      </trkpt>
      <trkpt lat="45.046806" lon="5.108199">
        <ele>226.113356</ele>
        <time>2017-06-05T07:58:11.000Z</time>
      </trkpt>
      <trkpt lat="45.046707" lon="5.108176">
        <ele>226.041219</ele>
        <time>2017-06-05T07:58:13.000Z</time>
      </trkpt>
      <trkpt lat="45.046608" lon="5.108165">
        <ele>225.969816</ele>
        <time>2017-06-05T07:58:15.000Z</time>
      </trkpt>
      <trkpt lat="45.046510" lon="5.108159">
        <ele>225.899286</ele>
        <time>2017-06-05T07:58:17.000Z</time>
      </trkpt>
      <trkpt lat="45.046406" lon="5.108141">
        <ele>225.823950</ele>
        <time>2017-06-05T07:58:19.000Z</time>
      </trkpt>
      <trkpt lat="45.046310" lon="5.108086">
        <ele>225.749482</ele>
        <time>2017-06-05T07:58:21.000Z</time>
      </trkpt>
      <trkpt lat="45.046220" lon="5.107999">
        <ele>225.671117</ele>
        <time>2017-06-05T07:58:23.000Z</time>
      </trkpt>
      <trkpt lat="45.046127" lon="5.107914">
        <ele>225.591517</ele>
        <time>2017-06-05T07:58:25.000Z</time>
      </trkpt>
      <trkpt lat="45.046036" lon="5.107813">
        <ele>225.508366</ele>
        <time>2017-06-05T07:58:27.000Z</time>
      </trkpt>
      <trkpt lat="45.045937" lon="5.107707">
        <ele>225.419108</ele>
        <time>2017-06-05T07:58:29.000Z</time>
      </trkpt>
      <trkpt lat="45.045845" lon="5.107612">
        <ele>225.337223</ele>
        <time>2017-06-05T07:58:31.000Z</time>
      </trkpt>
      <trkpt lat="45.045753" lon="5.107512">
        <ele>225.253816</ele>
        <time>2017-06-05T07:58:33.000Z</time>
      </trkpt>
      <trkpt lat="45.045666" lon="5.107423">
        <ele>225.176631</ele>
        <time>2017-06-05T07:58:35.000Z</time>
      </trkpt>
      <trkpt lat="45.045574" lon="5.107336">
        <ele>225.015818</ele>
        <time>2017-06-05T07:58:37.000Z</time>
      </trkpt>
      <trkpt lat="45.045486" lon="5.107243">
        <ele>224.852910</ele>
        <time>2017-06-05T07:58:39.000Z</time>
      </trkpt>
      <trkpt lat="45.045400" lon="5.107139">
        <ele>224.685120</ele>
        <time>2017-06-05T07:58:41.000Z</time>
      </trkpt>
      <trkpt lat="45.045310" lon="5.107042">
        <ele>224.517319</ele>
        <time>2017-06-05T07:58:43.000Z</time>
      </trkpt>
      <trkpt lat="45.045227" lon="5.106939">
        <ele>224.353580</ele>
        <time>2017-06-05T07:58:45.000Z</time>
      </trkpt>
      <trkpt lat="45.045140" lon="5.106842">
        <ele>224.189297</ele>
        <time>2017-06-05T07:58:47.000Z</time>
      </trkpt>
      <trkpt lat="45.045055" lon="5.106743">
        <ele>224.026010</ele>
        <time>2017-06-05T07:58:49.000Z</time>
      </trkpt>
      <trkpt lat="45.044968" lon="5.106631">
        <ele>223.851561</ele>
        <time>2017-06-05T07:58:51.000Z</time>
      </trkpt>
      <trkpt lat="45.044876" lon="5.106512">
        <ele>223.666689</ele>
        <time>2017-06-05T07:58:53.000Z</time>
      </trkpt>
      <trkpt lat="45.044792" lon="5.106391">
        <ele>223.488905</ele>
        <time>2017-06-05T07:58:55.000Z</time>
      </trkpt>
      <trkpt lat="45.044720" lon="5.106270">
        <ele>223.323109</ele>
        <time>2017-06-05T07:58:57.000Z</time>
      </trkpt>
      <trkpt lat="45.044643" lon="5.106143">
        <ele>223.147718</ele>
        <time>2017-06-05T07:58:59.000Z</time>
      </trkpt>
      <trkpt lat="45.044567" lon="5.106022">
        <ele>222.978039</ele>
        <time>2017-06-05T07:59:01.000Z</time>
      </trkpt>
      <trkpt lat="45.044490" lon="5.105908">
        <ele>222.812749</ele>
        <time>2017-06-05T07:59:03.000Z</time>
      </trkpt>
      <trkpt lat="45.044420" lon="5.105799">
        <ele>222.658373</ele>
        <time>2017-06-05T07:59:05.000Z</time>
      </trkpt>
      <trkpt lat="45.044346" lon="5.105685">
        <ele>222.510075</ele>
        <time>2017-06-05T07:59:07.000Z</time>
      </trkpt>
      <trkpt lat="45.044277" lon="5.105559">
        <ele>222.590966</ele>
        <time>2017-06-05T07:59:09.000Z</time>
      </trkpt>
      <trkpt lat="45.044210" lon="5.105447">
        <ele>222.665433</ele>
        <time>2017-06-05T07:59:11.000Z</time>
      </trkpt>
      <trkpt lat="45.044140" lon="5.105331">
        <ele>222.742841</ele>
        <time>2017-06-05T07:59:13.000Z</time>
      </trkpt>
      <trkpt lat="45.044067" lon="5.105214">
        <ele>222.822045</ele>
        <time>2017-06-05T07:59:15.000Z</time>
      </trkpt>
      <trkpt lat="45.043995" lon="5.105086">
        <ele>222.905065</ele>
        <time>2017-06-05T07:59:17.000Z</time>
      </trkpt>
      <trkpt lat="45.043922" lon="5.104965">
        <ele>222.985802</ele>
        <time>2017-06-05T07:59:19.000Z</time>
      </trkpt>
      <trkpt lat="45.043846" lon="5.104852">
        <ele>223.064966</ele>
        <time>2017-06-05T07:59:21.000Z</time>
      </trkpt>
      <trkpt lat="45.043766" lon="5.104752">
        <ele>223.141620</ele>
        <time>2017-06-05T07:59:23.000Z</time>
      </trkpt>
      <trkpt lat="45.043680" lon="5.104649">
        <ele>223.222529</ele>
        <time>2017-06-05T07:59:25.000Z</time>
      </trkpt>
      <trkpt lat="45.043587" lon="5.104555">
        <ele>223.304603</ele>
        <time>2017-06-05T07:59:27.000Z</time>
      </trkpt>
      <trkpt lat="45.043503" lon="5.104459">
        <ele>223.382142</ele>
        <time>2017-06-05T07:59:29.000Z</time>
      </trkpt>
      <trkpt lat="45.043423" lon="5.104364">
        <ele>223.457141</ele>
        <time>2017-06-05T07:59:31.000Z</time>
      </trkpt>
      <trkpt lat="45.043343" lon="5.104278">
        <ele>223.529289</ele>
        <time>2017-06-05T07:59:33.000Z</time>
      </trkpt>
      <trkpt lat="45.043260" lon="5.104196">
        <ele>223.601984</ele>
        <time>2017-06-05T07:59:35.000Z</time>
      </trkpt>
      <trkpt lat="45.043180" lon="5.104087">
        <ele>223.681735</ele>
        <time>2017-06-05T07:59:37.000Z</time>
      </trkpt>
      <trkpt lat="45.043100" lon="5.103976">
        <ele>223.762193</ele>
        <time>2017-06-05T07:59:39.000Z</time>
      </trkpt>
      <trkpt lat="45.043026" lon="5.103865">
        <ele>223.725426</ele>
        <time>2017-06-05T07:59:41.000Z</time>
      </trkpt>
      <trkpt lat="45.042960" lon="5.103754">
        <ele>223.600640</ele>
        <time>2017-06-05T07:59:43.000Z</time>
      </trkpt>
      <trkpt lat="45.042892" lon="5.103653">
        <ele>223.480639</ele>
        <time>2017-06-05T07:59:45.000Z</time>
      </trkpt>
      <trkpt lat="45.042828" lon="5.103544">
        <ele>223.358735</ele>
        <time>2017-06-05T07:59:47.000Z</time>
      </trkpt>
      <trkpt lat="45.042763" lon="5.103442">
        <ele>223.240586</ele>
        <time>2017-06-05T07:59:49.000Z</time>
      </trkpt>
      <trkpt lat="45.042700" lon="5.103334">
        <ele>223.120120</ele>
        <time>2017-06-05T07:59:51.000Z</time>
      </trkpt>
      <trkpt lat="45.042633" lon="5.103224">
        <ele>222.995199</ele>
        <time>2017-06-05T07:59:53.000Z</time>
      </trkpt>
      <trkpt lat="45.042560" lon="5.103112">
        <ele>222.864132</ele>
        <time>2017-06-05T07:59:55.000Z</time>
      </trkpt>
      <trkpt lat="45.042477" lon="5.102999">
        <ele>222.723928</ele>
        <time>2017-06-05T07:59:57.000Z</time>
      </trkpt>
      <trkpt lat="45.042390" lon="5.102894">
        <ele>222.584736</ele>
        <time>2017-06-05T07:59:59.000Z</time>
      </trkpt>
      <trkpt lat="45.042297" lon="5.102802">
        <ele>222.446605</ele>
        <time>2017-06-05T08:00:01.000Z</time>
      </trkpt>
      <trkpt lat="45.042206" lon="5.102705">
        <ele>222.307919</ele>
        <time>2017-06-05T08:00:03.000Z</time>
      </trkpt>
      <trkpt lat="45.042110" lon="5.102597">
        <ele>222.158627</ele>
        <time>2017-06-05T08:00:05.000Z</time>
      </trkpt>
      <trkpt lat="45.042010" lon="5.102490">
        <ele>222.006013</ele>
        <time>2017-06-05T08:00:07.000Z</time>
      </trkpt>
      <trkpt lat="45.041916" lon="5.102378">
        <ele>221.856426</ele>
        <time>2017-06-05T08:00:09.000Z</time>
      </trkpt>
      <trkpt lat="45.041817" lon="5.102274">
        <ele>221.706334</ele>
        <time>2017-06-05T08:00:11.000Z</time>
      </trkpt>
      <trkpt lat="45.041720" lon="5.102177">
        <ele>221.600935</ele>
        <time>2017-06-05T08:00:13.000Z</time>
      </trkpt>
      <trkpt lat="45.041620" lon="5.102087">
        <ele>221.579833</ele>
        <time>2017-06-05T08:00:15.000Z</time>
      </trkpt>
      <trkpt lat="45.041523" lon="5.102015">
        <ele>221.560329</ele>
        <time>2017-06-05T08:00:17.000Z</time>
      </trkpt>
      <trkpt lat="45.041430" lon="5.101927">
        <ele>221.540408</ele>
        <time>2017-06-05T08:00:19.000Z</time>
      </trkpt>
      <trkpt lat="45.041344" lon="5.101849">
        <ele>221.522220</ele>
        <time>2017-06-05T08:00:21.000Z</time>
      </trkpt>
      <trkpt lat="45.041260" lon="5.101769">
        <ele>221.504191</ele>
        <time>2017-06-05T08:00:23.000Z</time>
      </trkpt>
      <trkpt lat="45.041180" lon="5.101688">
        <ele>221.486675</ele>
        <time>2017-06-05T08:00:25.000Z</time>
      </trkpt>
      <trkpt lat="45.041100" lon="5.101603">
        <ele>221.468862</ele>
        <time>2017-06-05T08:00:27.000Z</time>
      </trkpt>
      <trkpt lat="45.041023" lon="5.101519">
        <ele>221.451550</ele>
        <time>2017-06-05T08:00:29.000Z</time>
      </trkpt>
      <trkpt lat="45.040950" lon="5.101438">
        <ele>221.435033</ele>
        <time>2017-06-05T08:00:31.000Z</time>
      </trkpt>
      <trkpt lat="45.040850" lon="5.101308">
        <ele>221.410854</ele>
        <time>2017-06-05T08:00:34.000Z</time>
      </trkpt>
      <trkpt lat="45.040780" lon="5.101219">
        <ele>221.394098</ele>
        <time>2017-06-05T08:00:36.000Z</time>
      </trkpt>
      <trkpt lat="45.040680" lon="5.101099">
        <ele>221.370752</ele>
        <time>2017-06-05T08:00:39.000Z</time>
      </trkpt>
      <trkpt lat="45.040585" lon="5.100976">
        <ele>221.347824</ele>
        <time>2017-06-05T08:00:42.000Z</time>
      </trkpt>
      <trkpt lat="45.040510" lon="5.100842">
        <ele>221.326315</ele>
        <time>2017-06-05T08:00:45.000Z</time>
      </trkpt>
      <trkpt lat="45.040436" lon="5.100680">
        <ele>221.302044</ele>
        <time>2017-06-05T08:00:48.000Z</time>
      </trkpt>
      <trkpt lat="45.040400" lon="5.100498">
        <ele>221.241246</ele>
        <time>2017-06-05T08:00:51.000Z</time>
      </trkpt>
      <trkpt lat="45.040413" lon="5.100367">
        <ele>221.156959</ele>
        <time>2017-06-05T08:00:53.000Z</time>
      </trkpt>
      <trkpt lat="45.040443" lon="5.100177">
        <ele>221.032912</ele>
        <time>2017-06-05T08:00:56.000Z</time>
      </trkpt>
      <trkpt lat="45.040466" lon="5.100050">
        <ele>220.949377</ele>
        <time>2017-06-05T08:00:58.000Z</time>
      </trkpt>
      <trkpt lat="45.040485" lon="5.099923">
        <ele>220.866663</ele>
        <time>2017-06-05T08:01:00.000Z</time>
      </trkpt>
      <trkpt lat="45.040497" lon="5.099795">
        <ele>220.784391</ele>
        <time>2017-06-05T08:01:02.000Z</time>
      </trkpt>
      <trkpt lat="45.040510" lon="5.099623">
        <ele>220.674174</ele>
        <time>2017-06-05T08:01:05.000Z</time>
      </trkpt>
      <trkpt lat="45.040520" lon="5.099456">
        <ele>220.567386</ele>
        <time>2017-06-05T08:01:08.000Z</time>
      </trkpt>
      <trkpt lat="45.040535" lon="5.099322">
        <ele>220.480942</ele>
        <time>2017-06-05T08:01:11.000Z</time>
      </trkpt>
      <trkpt lat="45.040550" lon="5.099195">
        <ele>220.398900</ele>
        <time>2017-06-05T08:01:15.000Z</time>
      </trkpt>
      <trkpt lat="45.040546" lon="5.098953">
        <ele>220.244664</ele>
        <time>2017-06-05T08:09:28.000Z</time>
      </trkpt>
      <trkpt lat="45.040565" lon="5.098828">
        <ele>220.163197</ele>
        <time>2017-06-05T08:09:32.000Z</time>
      </trkpt>
      <trkpt lat="45.040580" lon="5.098691">
        <ele>220.074864</ele>
        <time>2017-06-05T08:09:36.000Z</time>
      </trkpt>
      <trkpt lat="45.040600" lon="5.098533">
        <ele>219.972590</ele>
        <time>2017-06-05T08:09:40.000Z</time>
      </trkpt>
      <trkpt lat="45.040620" lon="5.098408">
        <ele>219.890928</ele>
        <time>2017-06-05T08:09:43.000Z</time>
      </trkpt>
      <trkpt lat="45.040650" lon="5.098255">
        <ele>219.789759</ele>
        <time>2017-06-05T08:09:46.000Z</time>
      </trkpt>
      <trkpt lat="45.040660" lon="5.098093">
        <ele>219.686145</ele>
        <time>2017-06-05T08:09:49.000Z</time>
      </trkpt>
      <trkpt lat="45.040676" lon="5.097910">
        <ele>219.481903</ele>
        <time>2017-06-05T08:09:52.000Z</time>
      </trkpt>
      <trkpt lat="45.040684" lon="5.097776">
        <ele>219.319461</ele>
        <time>2017-06-05T08:09:54.000Z</time>
      </trkpt>
      <trkpt lat="45.040688" lon="5.097647">
        <ele>219.163485</ele>
        <time>2017-06-05T08:09:56.000Z</time>
      </trkpt>
      <trkpt lat="45.040695" lon="5.097515">
        <ele>219.003587</ele>
        <time>2017-06-05T08:09:58.000Z</time>
      </trkpt>
      <trkpt lat="45.040714" lon="5.097375">
        <ele>218.831383</ele>
        <time>2017-06-05T08:10:00.000Z</time>
      </trkpt>
      <trkpt lat="45.040730" lon="5.097228">
        <ele>218.651721</ele>
        <time>2017-06-05T08:10:02.000Z</time>
      </trkpt>
      <trkpt lat="45.040726" lon="5.097066">
        <ele>218.455913</ele>
        <time>2017-06-05T08:10:04.000Z</time>
      </trkpt>
      <trkpt lat="45.040714" lon="5.096904">
        <ele>218.259153</ele>
        <time>2017-06-05T08:10:06.000Z</time>
      </trkpt>
      <trkpt lat="45.040703" lon="5.096757">
        <ele>218.080591</ele>
        <time>2017-06-05T08:10:08.000Z</time>
      </trkpt>
      <trkpt lat="45.040695" lon="5.096619">
        <ele>217.913334</ele>
        <time>2017-06-05T08:10:10.000Z</time>
      </trkpt>
      <trkpt lat="45.040690" lon="5.096483">
        <ele>217.748831</ele>
        <time>2017-06-05T08:10:12.000Z</time>
      </trkpt>
      <trkpt lat="45.040695" lon="5.096351">
        <ele>217.589152</ele>
        <time>2017-06-05T08:10:14.000Z</time>
      </trkpt>
      <trkpt lat="45.040700" lon="5.096215">
        <ele>217.424649</ele>
        <time>2017-06-05T08:10:16.000Z</time>
      </trkpt>
      <trkpt lat="45.040700" lon="5.096074">
        <ele>217.254328</ele>
        <time>2017-06-05T08:10:18.000Z</time>
      </trkpt>
      <trkpt lat="45.040695" lon="5.095931">
        <ele>217.081380</ele>
        <time>2017-06-05T08:10:20.000Z</time>
      </trkpt>
      <trkpt lat="45.040695" lon="5.095786">
        <ele>216.906227</ele>
        <time>2017-06-05T08:10:22.000Z</time>
      </trkpt>
      <trkpt lat="45.040700" lon="5.095643">
        <ele>216.733278</ele>
        <time>2017-06-05T08:10:24.000Z</time>
      </trkpt>
      <trkpt lat="45.040710" lon="5.095499">
        <ele>216.642205</ele>
        <time>2017-06-05T08:10:26.000Z</time>
      </trkpt>
      <trkpt lat="45.040720" lon="5.095361">
        <ele>216.910358</ele>
        <time>2017-06-05T08:10:28.000Z</time>
      </trkpt>
      <trkpt lat="45.040737" lon="5.095214">
        <ele>217.198290</ele>
        <time>2017-06-05T08:10:30.000Z</time>
      </trkpt>
      <trkpt lat="45.040756" lon="5.095075">
        <ele>217.471958</ele>
        <time>2017-06-05T08:10:32.000Z</time>
      </trkpt>
      <trkpt lat="45.040780" lon="5.094926">
        <ele>217.767364</ele>
        <time>2017-06-05T08:10:34.000Z</time>
      </trkpt>
      <trkpt lat="45.040810" lon="5.094785">
        <ele>218.052004</ele>
        <time>2017-06-05T08:10:36.000Z</time>
      </trkpt>
      <trkpt lat="45.040874" lon="5.094672">
        <ele>218.331940</ele>
        <time>2017-06-05T08:10:38.000Z</time>
      </trkpt>
      <trkpt lat="45.040970" lon="5.094579">
        <ele>218.650195</ele>
        <time>2017-06-05T08:10:40.000Z</time>
      </trkpt>
      <trkpt lat="45.041060" lon="5.094520">
        <ele>218.921532</ele>
        <time>2017-06-05T08:10:42.000Z</time>
      </trkpt>
      <trkpt lat="45.041157" lon="5.094431">
        <ele>219.237775</ele>
        <time>2017-06-05T08:10:45.000Z</time>
      </trkpt>
      <trkpt lat="45.041252" lon="5.094352">
        <ele>219.539203</ele>
        <time>2017-06-05T08:10:49.000Z</time>
      </trkpt>
      <trkpt lat="45.041344" lon="5.094297">
        <ele>219.812414</ele>
        <time>2017-06-05T08:10:53.000Z</time>
      </trkpt>
      <trkpt lat="45.041460" lon="5.094316">
        <ele>220.131864</ele>
        <time>2017-06-05T08:10:57.000Z</time>
      </trkpt>
      <trkpt lat="45.041515" lon="5.094415">
        <ele>220.375295</ele>
        <time>2017-06-05T08:11:00.000Z</time>
      </trkpt>
      <trkpt lat="45.041584" lon="5.094512">
        <ele>220.641350</ele>
        <time>2017-06-05T08:11:04.000Z</time>
      </trkpt>
      <trkpt lat="45.041656" lon="5.094625">
        <ele>220.935467</ele>
        <time>2017-06-05T08:11:10.000Z</time>
      </trkpt>
      <trkpt lat="45.041720" lon="5.094715">
        <ele>221.182282</ele>
        <time>2017-06-05T08:11:14.000Z</time>
      </trkpt>
      <trkpt lat="45.041786" lon="5.094803">
        <ele>221.430340</ele>
        <time>2017-06-05T08:11:18.000Z</time>
      </trkpt>
      <trkpt lat="45.041855" lon="5.094917">
        <ele>221.532574</ele>
        <time>2017-06-05T08:11:22.000Z</time>
      </trkpt>
      <trkpt lat="45.041927" lon="5.095037">
        <ele>221.563785</ele>
        <time>2017-06-05T08:11:26.000Z</time>
      </trkpt>
      <trkpt lat="45.041990" lon="5.095150">
        <ele>221.592322</ele>
        <time>2017-06-05T08:11:29.000Z</time>
      </trkpt>
      <trkpt lat="45.042053" lon="5.095264">
        <ele>221.621015</ele>
        <time>2017-06-05T08:11:32.000Z</time>
      </trkpt>
      <trkpt lat="45.042118" lon="5.095376">
        <ele>221.649749</ele>
        <time>2017-06-05T08:11:35.000Z</time>
      </trkpt>
      <trkpt lat="45.042194" lon="5.095482">
        <ele>221.679689</ele>
        <time>2017-06-05T08:11:38.000Z</time>
      </trkpt>
      <trkpt lat="45.042290" lon="5.095600">
        <ele>221.715366</ele>
        <time>2017-06-05T08:11:41.000Z</time>
      </trkpt>
      <trkpt lat="45.042380" lon="5.095685">
        <ele>221.745725</ele>
        <time>2017-06-05T08:11:44.000Z</time>
      </trkpt>
      <trkpt lat="45.042496" lon="5.095697">
        <ele>221.778359</ele>
        <time>2017-06-05T08:11:47.000Z</time>
      </trkpt>
      <trkpt lat="45.042576" lon="5.095601">
        <ele>221.807789</ele>
        <time>2017-06-05T08:11:50.000Z</time>
      </trkpt>
      <trkpt lat="45.042583" lon="5.095457">
        <ele>221.836405</ele>
        <time>2017-06-05T08:11:53.000Z</time>
      </trkpt>
      <trkpt lat="45.042550" lon="5.095282">
        <ele>221.872314</ele>
        <time>2017-06-05T08:11:56.000Z</time>
      </trkpt>
      <trkpt lat="45.042515" lon="5.095135">
        <ele>221.903067</ele>
        <time>2017-06-05T08:11:59.000Z</time>
      </trkpt>
      <trkpt lat="45.042530" lon="5.094991">
        <ele>221.931925</ele>
        <time>2017-06-05T08:12:03.000Z</time>
      </trkpt>
      <trkpt lat="45.042435" lon="5.094897">
        <ele>221.964449</ele>
        <time>2017-06-05T08:12:07.000Z</time>
      </trkpt>
      <trkpt lat="45.042340" lon="5.094840">
        <ele>221.993401</ele>
        <time>2017-06-05T08:12:09.000Z</time>
      </trkpt>
      <trkpt lat="45.042236" lon="5.094785">
        <ele>221.868414</ele>
        <time>2017-06-05T08:12:11.000Z</time>
      </trkpt>
      <trkpt lat="45.042090" lon="5.094766">
        <ele>221.178433</ele>
        <time>2017-06-05T08:12:13.000Z</time>
      </trkpt>
      <trkpt lat="45.041965" lon="5.094652">
        <ele>220.478615</ele>
        <time>2017-06-05T08:12:15.000Z</time>
      </trkpt>
      <trkpt lat="45.041830" lon="5.094475">
        <ele>219.612567</ele>
        <time>2017-06-05T08:12:17.000Z</time>
      </trkpt>
      <trkpt lat="45.041750" lon="5.094388">
        <ele>219.137770</ele>
        <time>2017-06-05T08:12:18.000Z</time>
      </trkpt>
      <trkpt lat="45.041680" lon="5.094311">
        <ele>218.720543</ele>
        <time>2017-06-05T08:12:19.000Z</time>
      </trkpt>
      <trkpt lat="45.041565" lon="5.094163">
        <ele>217.989043</ele>
        <time>2017-06-05T08:12:21.000Z</time>
      </trkpt>
      <trkpt lat="45.041492" lon="5.094002">
        <ele>217.352930</ele>
        <time>2017-06-05T08:12:23.000Z</time>
      </trkpt>
      <trkpt lat="45.041440" lon="5.093858">
        <ele>216.815183</ele>
        <time>2017-06-05T08:12:25.000Z</time>
      </trkpt>
      <trkpt lat="45.041412" lon="5.093682">
        <ele>216.215285</ele>
        <time>2017-06-05T08:12:27.000Z</time>
      </trkpt>
      <trkpt lat="45.041416" lon="5.093452">
        <ele>215.450241</ele>
        <time>2017-06-05T08:12:29.000Z</time>
      </trkpt>
      <trkpt lat="45.041416" lon="5.093238">
        <ele>214.738633</ele>
        <time>2017-06-05T08:12:31.000Z</time>
      </trkpt>
      <trkpt lat="45.041405" lon="5.093043">
        <ele>214.088142</ele>
        <time>2017-06-05T08:12:33.000Z</time>
      </trkpt>
      <trkpt lat="45.041397" lon="5.092868">
        <ele>213.538338</ele>
        <time>2017-06-05T08:12:35.000Z</time>
      </trkpt>
      <trkpt lat="45.041380" lon="5.092719">
        <ele>213.398069</ele>
        <time>2017-06-05T08:12:37.000Z</time>
      </trkpt>
      <trkpt lat="45.041367" lon="5.092579">
        <ele>213.266840</ele>
        <time>2017-06-05T08:12:39.000Z</time>
      </trkpt>
      <trkpt lat="45.041355" lon="5.092401">
        <ele>213.100663</ele>
        <time>2017-06-05T08:12:42.000Z</time>
      </trkpt>
      <trkpt lat="45.041378" lon="5.092232">
        <ele>212.940714</ele>
        <time>2017-06-05T08:12:45.000Z</time>
      </trkpt>
      <trkpt lat="45.041410" lon="5.092085">
        <ele>212.797762</ele>
        <time>2017-06-05T08:12:48.000Z</time>
      </trkpt>
      <trkpt lat="45.041440" lon="5.091942">
        <ele>212.659129</ele>
        <time>2017-06-05T08:12:51.000Z</time>
      </trkpt>
      <trkpt lat="45.041480" lon="5.091811">
        <ele>212.526502</ele>
        <time>2017-06-05T08:12:54.000Z</time>
      </trkpt>
      <trkpt lat="45.041500" lon="5.091653">
        <ele>212.377325</ele>
        <time>2017-06-05T08:12:58.000Z</time>
      </trkpt>
      <trkpt lat="45.041515" lon="5.091524">
        <ele>212.255826</ele>
        <time>2017-06-05T08:13:01.000Z</time>
      </trkpt>
      <trkpt lat="45.041540" lon="5.091398">
        <ele>212.134197</ele>
        <time>2017-06-05T08:13:04.000Z</time>
      </trkpt>
      <trkpt lat="45.041580" lon="5.091237">
        <ele>211.975591</ele>
        <time>2017-06-05T08:13:08.000Z</time>
      </trkpt>
      <trkpt lat="45.041595" lon="5.091070">
        <ele>211.819139</ele>
        <time>2017-06-05T08:13:11.000Z</time>
      </trkpt>
      <trkpt lat="45.041610" lon="5.090912">
        <ele>211.670981</ele>
        <time>2017-06-05T08:13:14.000Z</time>
      </trkpt>
      <trkpt lat="45.041615" lon="5.090734">
        <ele>211.505425</ele>
        <time>2017-06-05T08:13:17.000Z</time>
      </trkpt>
      <trkpt lat="45.041595" lon="5.090578">
        <ele>211.358078</ele>
        <time>2017-06-05T08:13:19.000Z</time>
      </trkpt>
      <trkpt lat="45.041607" lon="5.090430">
        <ele>211.219631</ele>
        <time>2017-06-05T08:13:21.000Z</time>
      </trkpt>
      <trkpt lat="45.041626" lon="5.090281">
        <ele>211.302197</ele>
        <time>2017-06-05T08:13:23.000Z</time>
      </trkpt>
      <trkpt lat="45.041637" lon="5.090127">
        <ele>211.459488</ele>
        <time>2017-06-05T08:13:25.000Z</time>
      </trkpt>
      <trkpt lat="45.041640" lon="5.089986">
        <ele>211.602836</ele>
        <time>2017-06-05T08:13:27.000Z</time>
      </trkpt>
      <trkpt lat="45.041656" lon="5.089843">
        <ele>211.749963</ele>
        <time>2017-06-05T08:13:29.000Z</time>
      </trkpt>
      <trkpt lat="45.041656" lon="5.089678">
        <ele>211.917635</ele>
        <time>2017-06-05T08:13:31.000Z</time>
      </trkpt>
      <trkpt lat="45.041653" lon="5.089518">
        <ele>212.080283</ele>
        <time>2017-06-05T08:13:33.000Z</time>
      </trkpt>
      <trkpt lat="45.041664" lon="5.089363">
        <ele>212.238585</ele>
        <time>2017-06-05T08:13:35.000Z</time>
      </trkpt>
      <trkpt lat="45.041702" lon="5.089229">
        <ele>212.385312</ele>
        <time>2017-06-05T08:13:37.000Z</time>
      </trkpt>
      <trkpt lat="45.041720" lon="5.089105">
        <ele>212.513952</ele>
        <time>2017-06-05T08:13:39.000Z</time>
      </trkpt>
      <trkpt lat="45.041733" lon="5.088971">
        <ele>212.651399</ele>
        <time>2017-06-05T08:13:41.000Z</time>
      </trkpt>
      <trkpt lat="45.041737" lon="5.088841">
        <ele>212.783629</ele>
        <time>2017-06-05T08:13:43.000Z</time>
      </trkpt>
      <trkpt lat="45.041767" lon="5.088672">
        <ele>212.960702</ele>
        <time>2017-06-05T08:13:46.000Z</time>
      </trkpt>
      <trkpt lat="45.041790" lon="5.088500">
        <ele>213.138589</ele>
        <time>2017-06-05T08:13:49.000Z</time>
      </trkpt>
      <trkpt lat="45.041824" lon="5.088331">
        <ele>213.317151</ele>
        <time>2017-06-05T08:13:52.000Z</time>
      </trkpt>
      <trkpt lat="45.041850" lon="5.088184">
        <ele>213.471140</ele>
        <time>2017-06-05T08:13:55.000Z</time>
      </trkpt>
      <trkpt lat="45.041860" lon="5.088040">
        <ele>213.618176</ele>
        <time>2017-06-05T08:13:58.000Z</time>
      </trkpt>
      <trkpt lat="45.041870" lon="5.087912">
        <ele>213.749041</ele>
        <time>2017-06-05T08:14:01.000Z</time>
      </trkpt>
      <trkpt lat="45.041893" lon="5.087751">
        <ele>213.787204</ele>
        <time>2017-06-05T08:14:05.000Z</time>
      </trkpt>
      <trkpt lat="45.041897" lon="5.087596">
        <ele>213.803543</ele>
        <time>2017-06-05T08:14:09.000Z</time>
      </trkpt>
      <trkpt lat="45.041910" lon="5.087459">
        <ele>213.818104</ele>
        <time>2017-06-05T08:14:12.000Z</time>
      </trkpt>
      <trkpt lat="45.041885" lon="5.087290">
        <ele>213.836293</ele>
        <time>2017-06-05T08:14:15.000Z</time>
      </trkpt>
      <trkpt lat="45.041860" lon="5.087157">
        <ele>213.850790</ele>
        <time>2017-06-05T08:14:17.000Z</time>
      </trkpt>
      <trkpt lat="45.041820" lon="5.087030">
        <ele>213.865438</ele>
        <time>2017-06-05T08:14:19.000Z</time>
      </trkpt>
      <trkpt lat="45.041798" lon="5.086906">
        <ele>213.878905</ele>
        <time>2017-06-05T08:14:21.000Z</time>
      </trkpt>
      <trkpt lat="45.041763" lon="5.086786">
        <ele>213.892581</ele>
        <time>2017-06-05T08:14:23.000Z</time>
      </trkpt>
      <trkpt lat="45.041710" lon="5.086626">
        <ele>213.911196</ele>
        <time>2017-06-05T08:14:26.000Z</time>
      </trkpt>
      <trkpt lat="45.041664" lon="5.086492">
        <ele>213.926890</ele>
        <time>2017-06-05T08:14:30.000Z</time>
      </trkpt>
      <trkpt lat="45.041620" lon="5.086355">
        <ele>213.942742</ele>
        <time>2017-06-05T08:14:35.000Z</time>
      </trkpt>
      <trkpt lat="45.041603" lon="5.086226">
        <ele>213.956566</ele>
        <time>2017-06-05T08:14:39.000Z</time>
      </trkpt>
      <trkpt lat="45.041570" lon="5.086067">
        <ele>213.974023</ele>
        <time>2017-06-05T08:14:44.000Z</time>
      </trkpt>
      <trkpt lat="45.041542" lon="5.085921">
        <ele>213.989959</ele>
        <time>2017-06-05T08:14:48.000Z</time>
      </trkpt>
      <trkpt lat="45.041508" lon="5.085785">
        <ele>214.005156</ele>
        <time>2017-06-05T08:14:52.000Z</time>
      </trkpt>
      <trkpt lat="45.041480" lon="5.085650">
        <ele>214.019977</ele>
        <time>2017-06-05T08:14:58.000Z</time>
      </trkpt>
      <trkpt lat="45.041462" lon="5.085486">
        <ele>214.037461</ele>
        <time>2017-06-05T08:18:24.000Z</time>
      </trkpt>
      <trkpt lat="45.041477" lon="5.085349">
        <ele>213.929431</ele>
        <time>2017-06-05T08:18:28.000Z</time>
      </trkpt>
      <trkpt lat="45.041477" lon="5.085194">
        <ele>213.773167</ele>
        <time>2017-06-05T08:18:32.000Z</time>
      </trkpt>
      <trkpt lat="45.041490" lon="5.085022">
        <ele>213.598774</ele>
        <time>2017-06-05T08:18:36.000Z</time>
      </trkpt>
      <trkpt lat="45.041504" lon="5.084861">
        <ele>213.435236</ele>
        <time>2017-06-05T08:18:39.000Z</time>
      </trkpt>
      <trkpt lat="45.041520" lon="5.084710">
        <ele>213.281301</ele>
        <time>2017-06-05T08:18:42.000Z</time>
      </trkpt>
      <trkpt lat="45.041508" lon="5.084565">
        <ele>213.134119</ele>
        <time>2017-06-05T08:18:45.000Z</time>
      </trkpt>
      <trkpt lat="45.041492" lon="5.084401">
        <ele>212.967212</ele>
        <time>2017-06-05T08:18:48.000Z</time>
      </trkpt>
      <trkpt lat="45.041460" lon="5.084235">
        <ele>212.793741</ele>
        <time>2017-06-05T08:18:51.000Z</time>
      </trkpt>
      <trkpt lat="45.041420" lon="5.084117">
        <ele>212.661797</ele>
        <time>2017-06-05T08:18:53.000Z</time>
      </trkpt>
      <trkpt lat="45.041380" lon="5.083997">
        <ele>212.528032</ele>
        <time>2017-06-05T08:18:55.000Z</time>
      </trkpt>
      <trkpt lat="45.041336" lon="5.083878">
        <ele>212.392628</ele>
        <time>2017-06-05T08:18:57.000Z</time>
      </trkpt>
      <trkpt lat="45.041294" lon="5.083751">
        <ele>212.251261</ele>
        <time>2017-06-05T08:18:59.000Z</time>
      </trkpt>
      <trkpt lat="45.041267" lon="5.083616">
        <ele>212.109812</ele>
        <time>2017-06-05T08:19:01.000Z</time>
      </trkpt>
      <trkpt lat="45.041240" lon="5.083474">
        <ele>211.961560</ele>
        <time>2017-06-05T08:19:05.000Z</time>
      </trkpt>
      <trkpt lat="45.041195" lon="5.083355">
        <ele>211.825489</ele>
        <time>2017-06-05T08:19:18.000Z</time>
      </trkpt>
      <trkpt lat="45.041245" lon="5.083498">
        <ele>211.664636</ele>
        <time>2017-06-05T08:19:30.000Z</time>
      </trkpt>
      <trkpt lat="45.041290" lon="5.083613">
        <ele>211.532106</ele>
        <time>2017-06-05T08:19:35.000Z</time>
      </trkpt>
      <trkpt lat="45.041320" lon="5.083761">
        <ele>210.976518</ele>
        <time>2017-06-05T08:19:39.000Z</time>
      </trkpt>
      <trkpt lat="45.041230" lon="5.083777">
        <ele>210.314586</ele>
        <time>2017-06-05T08:19:47.000Z</time>
      </trkpt>
      <trkpt lat="45.041080" lon="5.083707">
        <ele>209.161992</ele>
        <time>2017-06-05T08:19:51.000Z</time>
      </trkpt>
      <trkpt lat="45.040962" lon="5.083602">
        <ele>208.144825</ele>
        <time>2017-06-05T08:19:53.000Z</time>
      </trkpt>
      <trkpt lat="45.040848" lon="5.083451">
        <ele>207.005388</ele>
        <time>2017-06-05T08:19:55.000Z</time>
      </trkpt>
      <trkpt lat="45.040770" lon="5.083259">
        <ele>205.863395</ele>
        <time>2017-06-05T08:19:57.000Z</time>
      </trkpt>
      <trkpt lat="45.040714" lon="5.083076">
        <ele>204.835083</ele>
        <time>2017-06-05T08:19:59.000Z</time>
      </trkpt>
      <trkpt lat="45.040650" lon="5.082883">
        <ele>203.735754</ele>
        <time>2017-06-05T08:20:01.000Z</time>
      </trkpt>
      <trkpt lat="45.040592" lon="5.082700">
        <ele>202.701553</ele>
        <time>2017-06-05T08:20:03.000Z</time>
      </trkpt>
      <trkpt lat="45.040540" lon="5.082522">
        <ele>201.708360</ele>
        <time>2017-06-05T08:20:05.000Z</time>
      </trkpt>
      <trkpt lat="45.040497" lon="5.082330">
        <ele>200.669787</ele>
        <time>2017-06-05T08:20:07.000Z</time>
      </trkpt>
      <trkpt lat="45.040440" lon="5.082150">
        <ele>199.652686</ele>
        <time>2017-06-05T08:20:09.000Z</time>
      </trkpt>
      <trkpt lat="45.040390" lon="5.081948">
        <ele>198.549026</ele>
        <time>2017-06-05T08:20:11.000Z</time>
      </trkpt>
      <trkpt lat="45.040350" lon="5.081751">
        <ele>198.189786</ele>
        <time>2017-06-05T08:20:13.000Z</time>
      </trkpt>
      <trkpt lat="45.040330" lon="5.081564">
        <ele>198.008898</ele>
        <time>2017-06-05T08:20:15.000Z</time>
      </trkpt>
      <trkpt lat="45.040310" lon="5.081395">
        <ele>197.845010</ele>
        <time>2017-06-05T08:20:17.000Z</time>
      </trkpt>
      <trkpt lat="45.040270" lon="5.081234">
        <ele>197.681785</ele>
        <time>2017-06-05T08:20:19.000Z</time>
      </trkpt>
      <trkpt lat="45.040234" lon="5.081056">
        <ele>197.504705</ele>
        <time>2017-06-05T08:20:21.000Z</time>
      </trkpt>
      <trkpt lat="45.040184" lon="5.080857">
        <ele>197.302702</ele>
        <time>2017-06-05T08:20:23.000Z</time>
      </trkpt>
      <trkpt lat="45.040134" lon="5.080660">
        <ele>197.102499</ele>
        <time>2017-06-05T08:20:25.000Z</time>
      </trkpt>
      <trkpt lat="45.040090" lon="5.080453">
        <ele>196.895755</ele>
        <time>2017-06-05T08:20:27.000Z</time>
      </trkpt>
      <trkpt lat="45.040060" lon="5.080258">
        <ele>196.704882</ele>
        <time>2017-06-05T08:20:29.000Z</time>
      </trkpt>
      <trkpt lat="45.040024" lon="5.080080">
        <ele>196.527801</ele>
        <time>2017-06-05T08:20:31.000Z</time>
      </trkpt>
      <trkpt lat="45.040005" lon="5.079910">
        <ele>196.363187</ele>
        <time>2017-06-05T08:20:33.000Z</time>
      </trkpt>
      <trkpt lat="45.039980" lon="5.079748">
        <ele>196.204593</ele>
        <time>2017-06-05T08:20:35.000Z</time>
      </trkpt>
      <trkpt lat="45.039967" lon="5.079582">
        <ele>196.044853</ele>
        <time>2017-06-05T08:20:37.000Z</time>
      </trkpt>
      <trkpt lat="45.039940" lon="5.079419">
        <ele>195.973632</ele>
        <time>2017-06-05T08:20:39.000Z</time>
      </trkpt>
      <trkpt lat="45.039920" lon="5.079274">
        <ele>196.259698</ele>
        <time>2017-06-05T08:20:41.000Z</time>
      </trkpt>
      <trkpt lat="45.039900" lon="5.079141">
        <ele>196.522996</ele>
        <time>2017-06-05T08:20:43.000Z</time>
      </trkpt>
      <trkpt lat="45.039870" lon="5.078958">
        <ele>196.886755</ele>
        <time>2017-06-05T08:20:46.000Z</time>
      </trkpt>
      <trkpt lat="45.039850" lon="5.078779">
        <ele>197.237664</ele>
        <time>2017-06-05T08:20:49.000Z</time>
      </trkpt>
      <trkpt lat="45.039830" lon="5.078642">
        <ele>197.508543</ele>
        <time>2017-06-05T08:20:51.000Z</time>
      </trkpt>
      <trkpt lat="45.039810" lon="5.078512">
        <ele>197.766163</ele>
        <time>2017-06-05T08:20:53.000Z</time>
      </trkpt>
      <trkpt lat="45.039800" lon="5.078381">
        <ele>198.021298</ele>
        <time>2017-06-05T08:20:55.000Z</time>
      </trkpt>
      <trkpt lat="45.039776" lon="5.078250">
        <ele>198.283344</ele>
        <time>2017-06-05T08:20:57.000Z</time>
      </trkpt>
      <trkpt lat="45.039764" lon="5.078124">
        <ele>198.529528</ele>
        <time>2017-06-05T08:20:59.000Z</time>
      </trkpt>
      <trkpt lat="45.039753" lon="5.077938">
        <ele>198.890945</ele>
        <time>2017-06-05T08:21:02.000Z</time>
      </trkpt>
      <trkpt lat="45.039734" lon="5.077797">
        <ele>199.168888</ele>
        <time>2017-06-05T08:21:04.000Z</time>
      </trkpt>
      <trkpt lat="45.039720" lon="5.077658">
        <ele>199.440758</ele>
        <time>2017-06-05T08:21:06.000Z</time>
      </trkpt>
      <trkpt lat="45.039707" lon="5.077519">
        <ele>199.712256</ele>
        <time>2017-06-05T08:21:08.000Z</time>
      </trkpt>
      <trkpt lat="45.039700" lon="5.077385">
        <ele>199.972432</ele>
        <time>2017-06-05T08:21:10.000Z</time>
      </trkpt>
      <trkpt lat="45.039673" lon="5.077202">
        <ele>200.334423</ele>
        <time>2017-06-05T08:21:13.000Z</time>
      </trkpt>
      <trkpt lat="45.039650" lon="5.077077">
        <ele>200.584536</ele>
        <time>2017-06-05T08:21:15.000Z</time>
      </trkpt>
      <trkpt lat="45.039620" lon="5.076910">
        <ele>200.834679</ele>
        <time>2017-06-05T08:21:18.000Z</time>
      </trkpt>
      <trkpt lat="45.039623" lon="5.076783">
        <ele>200.807733</ele>
        <time>2017-06-05T08:21:21.000Z</time>
      </trkpt>
      <trkpt lat="45.039585" lon="5.076651">
        <ele>200.777508</ele>
        <time>2017-06-05T08:21:25.000Z</time>
      </trkpt>
      <trkpt lat="45.039555" lon="5.076484">
        <ele>200.740968</ele>
        <time>2017-06-05T08:21:28.000Z</time>
      </trkpt>
      <trkpt lat="45.039520" lon="5.076360">
        <ele>200.712653</ele>
        <time>2017-06-05T08:21:30.000Z</time>
      </trkpt>
      <trkpt lat="45.039494" lon="5.076227">
        <ele>200.683390</ele>
        <time>2017-06-05T08:21:32.000Z</time>
      </trkpt>
      <trkpt lat="45.039467" lon="5.076047">
        <ele>200.644370</ele>
        <time>2017-06-05T08:21:35.000Z</time>
      </trkpt>
      <trkpt lat="45.039448" lon="5.075862">
        <ele>200.604727</ele>
        <time>2017-06-05T08:21:38.000Z</time>
      </trkpt>
      <trkpt lat="45.039440" lon="5.075735">
        <ele>200.577689</ele>
        <time>2017-06-05T08:21:40.000Z</time>
      </trkpt>
      <trkpt lat="45.039425" lon="5.075548">
        <ele>200.537780</ele>
        <time>2017-06-05T08:21:43.000Z</time>
      </trkpt>
      <trkpt lat="45.039406" lon="5.075413">
        <ele>200.508590</ele>
        <time>2017-06-05T08:21:45.000Z</time>
      </trkpt>
      <trkpt lat="45.039380" lon="5.075282">
        <ele>200.479736</ele>
        <time>2017-06-05T08:21:47.000Z</time>
      </trkpt>
      <trkpt lat="45.039364" lon="5.075143">
        <ele>200.449872</ele>
        <time>2017-06-05T08:21:49.000Z</time>
      </trkpt>
      <trkpt lat="45.039368" lon="5.074977">
        <ele>200.414650</ele>
        <time>2017-06-05T08:21:52.000Z</time>
      </trkpt>
      <trkpt lat="45.039364" lon="5.074805">
        <ele>200.378156</ele>
        <time>2017-06-05T08:21:54.000Z</time>
      </trkpt>
      <trkpt lat="45.039368" lon="5.074655">
        <ele>200.346325</ele>
        <time>2017-06-05T08:21:56.000Z</time>
      </trkpt>
      <trkpt lat="45.039368" lon="5.074514">
        <ele>200.316426</ele>
        <time>2017-06-05T08:21:58.000Z</time>
      </trkpt>
      <trkpt lat="45.039368" lon="5.074367">
        <ele>200.266000</ele>
        <time>2017-06-05T08:22:00.000Z</time>
      </trkpt>
      <trkpt lat="45.039345" lon="5.074227">
        <ele>200.202732</ele>
        <time>2017-06-05T08:22:02.000Z</time>
      </trkpt>
      <trkpt lat="45.039333" lon="5.074038">
        <ele>200.119204</ele>
        <time>2017-06-05T08:22:05.000Z</time>
      </trkpt>
      <trkpt lat="45.039337" lon="5.073899">
        <ele>200.057970</ele>
        <time>2017-06-05T08:22:07.000Z</time>
      </trkpt>
      <trkpt lat="45.039314" lon="5.073708">
        <ele>199.972685</ele>
        <time>2017-06-05T08:22:10.000Z</time>
      </trkpt>
      <trkpt lat="45.039330" lon="5.073577">
        <ele>199.914167</ele>
        <time>2017-06-05T08:22:12.000Z</time>
      </trkpt>
      <trkpt lat="45.039350" lon="5.073441">
        <ele>199.853021</ele>
        <time>2017-06-05T08:22:14.000Z</time>
      </trkpt>
      <trkpt lat="45.039326" lon="5.073295">
        <ele>199.787040</ele>
        <time>2017-06-05T08:22:16.000Z</time>
      </trkpt>
      <trkpt lat="45.039307" lon="5.073149">
        <ele>199.721694</ele>
        <time>2017-06-05T08:22:18.000Z</time>
      </trkpt>
      <trkpt lat="45.039307" lon="5.073021">
        <ele>199.665351</ele>
        <time>2017-06-05T08:22:20.000Z</time>
      </trkpt>
      <trkpt lat="45.039318" lon="5.072830">
        <ele>199.581000</ele>
        <time>2017-06-05T08:22:23.000Z</time>
      </trkpt>
      <trkpt lat="45.039320" lon="5.072691">
        <ele>199.519803</ele>
        <time>2017-06-05T08:22:25.000Z</time>
      </trkpt>
      <trkpt lat="45.039318" lon="5.072558">
        <ele>199.461247</ele>
        <time>2017-06-05T08:22:27.000Z</time>
      </trkpt>
      <trkpt lat="45.039314" lon="5.072430">
        <ele>199.404850</ele>
        <time>2017-06-05T08:22:29.000Z</time>
      </trkpt>
      <trkpt lat="45.039303" lon="5.072260">
        <ele>199.329707</ele>
        <time>2017-06-05T08:22:32.000Z</time>
      </trkpt>
      <trkpt lat="45.039300" lon="5.072124">
        <ele>199.269814</ele>
        <time>2017-06-05T08:22:35.000Z</time>
      </trkpt>
      <trkpt lat="45.039310" lon="5.071975">
        <ele>199.203933</ele>
        <time>2017-06-05T08:22:40.000Z</time>
      </trkpt>
      <trkpt lat="45.039320" lon="5.071818">
        <ele>199.130614</ele>
        <time>2017-06-05T08:22:45.000Z</time>
      </trkpt>
      <trkpt lat="45.039320" lon="5.071689">
        <ele>199.069198</ele>
        <time>2017-06-05T08:22:48.000Z</time>
      </trkpt>
      <trkpt lat="45.039320" lon="5.071516">
        <ele>198.986834</ele>
        <time>2017-06-05T08:22:51.000Z</time>
      </trkpt>
      <trkpt lat="45.039330" lon="5.071353">
        <ele>198.908938</ele>
        <time>2017-06-05T08:22:54.000Z</time>
      </trkpt>
      <trkpt lat="45.039340" lon="5.071196">
        <ele>198.833889</ele>
        <time>2017-06-05T08:22:57.000Z</time>
      </trkpt>
      <trkpt lat="45.039356" lon="5.071031">
        <ele>198.754597</ele>
        <time>2017-06-05T08:23:00.000Z</time>
      </trkpt>
      <trkpt lat="45.039368" lon="5.070903">
        <ele>198.693123</ele>
        <time>2017-06-05T08:23:02.000Z</time>
      </trkpt>
      <trkpt lat="45.039394" lon="5.070705">
        <ele>198.597242</ele>
        <time>2017-06-05T08:23:04.000Z</time>
      </trkpt>
      <trkpt lat="45.039410" lon="5.070557">
        <ele>198.525961</ele>
        <time>2017-06-05T08:23:06.000Z</time>
      </trkpt>
      <trkpt lat="45.039436" lon="5.070387">
        <ele>198.443151</ele>
        <time>2017-06-05T08:23:09.000Z</time>
      </trkpt>
      <trkpt lat="45.039450" lon="5.070200">
        <ele>198.353623</ele>
        <time>2017-06-05T08:23:12.000Z</time>
      </trkpt>
      <trkpt lat="45.039460" lon="5.070068">
        <ele>198.290419</ele>
        <time>2017-06-05T08:23:14.000Z</time>
      </trkpt>
      <trkpt lat="45.039482" lon="5.069879">
        <ele>198.199224</ele>
        <time>2017-06-05T08:23:17.000Z</time>
      </trkpt>
      <trkpt lat="45.039524" lon="5.069754">
        <ele>198.133328</ele>
        <time>2017-06-05T08:23:19.000Z</time>
      </trkpt>
      <trkpt lat="45.039562" lon="5.069562">
        <ele>198.038400</ele>
        <time>2017-06-05T08:23:22.000Z</time>
      </trkpt>
      <trkpt lat="45.039577" lon="5.069420">
        <ele>197.970080</ele>
        <time>2017-06-05T08:23:24.000Z</time>
      </trkpt>
      <trkpt lat="45.039597" lon="5.069289">
        <ele>197.909060</ele>
        <time>2017-06-05T08:23:26.000Z</time>
      </trkpt>
      <trkpt lat="45.039616" lon="5.069164">
        <ele>197.850845</ele>
        <time>2017-06-05T08:23:28.000Z</time>
      </trkpt>
      <trkpt lat="45.039642" lon="5.068989">
        <ele>197.769426</ele>
        <time>2017-06-05T08:23:31.000Z</time>
      </trkpt>
      <trkpt lat="45.039665" lon="5.068861">
        <ele>197.709293</ele>
        <time>2017-06-05T08:23:33.000Z</time>
      </trkpt>
      <trkpt lat="45.039692" lon="5.068698">
        <ele>197.633068</ele>
        <time>2017-06-05T08:23:36.000Z</time>
      </trkpt>
      <trkpt lat="45.039722" lon="5.068569">
        <ele>197.571235</ele>
        <time>2017-06-05T08:23:38.000Z</time>
      </trkpt>
      <trkpt lat="45.039753" lon="5.068449">
        <ele>197.513063</ele>
        <time>2017-06-05T08:23:40.000Z</time>
      </trkpt>
      <trkpt lat="45.039795" lon="5.068317">
        <ele>197.447152</ele>
        <time>2017-06-05T08:23:43.000Z</time>
      </trkpt>
      <trkpt lat="45.039837" lon="5.068191">
        <ele>197.383721</ele>
        <time>2017-06-05T08:23:45.000Z</time>
      </trkpt>
      <trkpt lat="45.039850" lon="5.068063">
        <ele>197.324845</ele>
        <time>2017-06-05T08:23:47.000Z</time>
      </trkpt>
      <trkpt lat="45.039867" lon="5.067930">
        <ele>197.263307</ele>
        <time>2017-06-05T08:23:49.000Z</time>
      </trkpt>
      <trkpt lat="45.039910" lon="5.067780">
        <ele>197.189607</ele>
        <time>2017-06-05T08:23:51.000Z</time>
      </trkpt>
      <trkpt lat="45.039955" lon="5.067637">
        <ele>197.118335</ele>
        <time>2017-06-05T08:23:53.000Z</time>
      </trkpt>
      <trkpt lat="45.040005" lon="5.067503">
        <ele>197.049341</ele>
        <time>2017-06-05T08:23:55.000Z</time>
      </trkpt>
      <trkpt lat="45.040040" lon="5.067376">
        <ele>196.987277</ele>
        <time>2017-06-05T08:23:57.000Z</time>
      </trkpt>
      <trkpt lat="45.040073" lon="5.067236">
        <ele>196.920083</ele>
        <time>2017-06-05T08:23:59.000Z</time>
      </trkpt>
      <trkpt lat="45.040108" lon="5.067101">
        <ele>196.854611</ele>
        <time>2017-06-05T08:24:01.000Z</time>
      </trkpt>
      <trkpt lat="45.040154" lon="5.066927">
        <ele>196.790925</ele>
        <time>2017-06-05T08:24:04.000Z</time>
      </trkpt>
      <trkpt lat="45.040190" lon="5.066794">
        <ele>196.758409</ele>
        <time>2017-06-05T08:24:06.000Z</time>
      </trkpt>
      <trkpt lat="45.040220" lon="5.066672">
        <ele>196.728918</ele>
        <time>2017-06-05T08:24:08.000Z</time>
      </trkpt>
      <trkpt lat="45.040257" lon="5.066551">
        <ele>196.698817</ele>
        <time>2017-06-05T08:24:10.000Z</time>
      </trkpt>
      <trkpt lat="45.040287" lon="5.066361">
        <ele>196.654369</ele>
        <time>2017-06-05T08:24:13.000Z</time>
      </trkpt>
      <trkpt lat="45.040314" lon="5.066226">
        <ele>196.622337</ele>
        <time>2017-06-05T08:24:15.000Z</time>
      </trkpt>
      <trkpt lat="45.040344" lon="5.066087">
        <ele>196.589156</ele>
        <time>2017-06-05T08:24:17.000Z</time>
      </trkpt>
      <trkpt lat="45.040375" lon="5.065959">
        <ele>196.558264</ele>
        <time>2017-06-05T08:24:19.000Z</time>
      </trkpt>
      <trkpt lat="45.040410" lon="5.065827">
        <ele>196.526076</ele>
        <time>2017-06-05T08:24:21.000Z</time>
      </trkpt>
      <trkpt lat="45.040447" lon="5.065705">
        <ele>196.495766</ele>
        <time>2017-06-05T08:24:23.000Z</time>
      </trkpt>
      <trkpt lat="45.040493" lon="5.065529">
        <ele>196.452924</ele>
        <time>2017-06-05T08:24:26.000Z</time>
      </trkpt>
      <trkpt lat="45.040524" lon="5.065410">
        <ele>196.423968</ele>
        <time>2017-06-05T08:24:28.000Z</time>
      </trkpt>
      <trkpt lat="45.040554" lon="5.065288">
        <ele>196.394477</ele>
        <time>2017-06-05T08:24:30.000Z</time>
      </trkpt>
      <trkpt lat="45.040590" lon="5.065166">
        <ele>196.364293</ele>
        <time>2017-06-05T08:24:32.000Z</time>
      </trkpt>
      <trkpt lat="45.040630" lon="5.065034">
        <ele>196.331502</ele>
        <time>2017-06-05T08:24:34.000Z</time>
      </trkpt>
      <trkpt lat="45.040670" lon="5.064901">
        <ele>196.298502</ele>
        <time>2017-06-05T08:24:36.000Z</time>
      </trkpt>
      <trkpt lat="45.040695" lon="5.064768">
        <ele>196.267082</ele>
        <time>2017-06-05T08:24:38.000Z</time>
      </trkpt>
      <trkpt lat="45.040737" lon="5.064583">
        <ele>196.209570</ele>
        <time>2017-06-05T08:24:41.000Z</time>
      </trkpt>
      <trkpt lat="45.040780" lon="5.064406">
        <ele>196.097354</ele>
        <time>2017-06-05T08:24:44.000Z</time>
      </trkpt>
      <trkpt lat="45.040810" lon="5.064282">
        <ele>196.018774</ele>
        <time>2017-06-05T08:24:46.000Z</time>
      </trkpt>
      <trkpt lat="45.040840" lon="5.064145">
        <ele>195.932783</ele>
        <time>2017-06-05T08:24:48.000Z</time>
      </trkpt>
      <trkpt lat="45.040886" lon="5.064012">
        <ele>195.844005</ele>
        <time>2017-06-05T08:24:50.000Z</time>
      </trkpt>
      <trkpt lat="45.040913" lon="5.063877">
        <ele>195.759887</ele>
        <time>2017-06-05T08:24:52.000Z</time>
      </trkpt>
      <trkpt lat="45.040943" lon="5.063730">
        <ele>195.668153</ele>
        <time>2017-06-05T08:24:54.000Z</time>
      </trkpt>
      <trkpt lat="45.040977" lon="5.063602">
        <ele>195.586169</ele>
        <time>2017-06-05T08:24:56.000Z</time>
      </trkpt>
      <trkpt lat="45.041010" lon="5.063423">
        <ele>195.475259</ele>
        <time>2017-06-05T08:24:59.000Z</time>
      </trkpt>
      <trkpt lat="45.041042" lon="5.063280">
        <ele>195.385328</ele>
        <time>2017-06-05T08:25:01.000Z</time>
      </trkpt>
      <trkpt lat="45.041080" lon="5.063142">
        <ele>195.296531</ele>
        <time>2017-06-05T08:25:03.000Z</time>
      </trkpt>
      <trkpt lat="45.041122" lon="5.063006">
        <ele>195.207547</ele>
        <time>2017-06-05T08:25:05.000Z</time>
      </trkpt>
      <trkpt lat="45.041145" lon="5.062866">
        <ele>195.121373</ele>
        <time>2017-06-05T08:25:07.000Z</time>
      </trkpt>
      <trkpt lat="45.041160" lon="5.062717">
        <ele>195.031140</ele>
        <time>2017-06-05T08:25:09.000Z</time>
      </trkpt>
      <trkpt lat="45.041172" lon="5.062584">
        <ele>194.950754</ele>
        <time>2017-06-05T08:25:11.000Z</time>
      </trkpt>
      <trkpt lat="45.041218" lon="5.062400">
        <ele>194.833738</ele>
        <time>2017-06-05T08:25:14.000Z</time>
      </trkpt>
      <trkpt lat="45.041237" lon="5.062265">
        <ele>194.751211</ele>
        <time>2017-06-05T08:25:16.000Z</time>
      </trkpt>
      <trkpt lat="45.041237" lon="5.062135">
        <ele>194.742391</ele>
        <time>2017-06-05T08:25:18.000Z</time>
      </trkpt>
      <trkpt lat="45.041260" lon="5.062009">
        <ele>194.836023</ele>
        <time>2017-06-05T08:25:20.000Z</time>
      </trkpt>
      <trkpt lat="45.041283" lon="5.061881">
        <ele>194.931048</ele>
        <time>2017-06-05T08:25:22.000Z</time>
      </trkpt>
      <trkpt lat="45.041290" lon="5.061748">
        <ele>195.027005</ele>
        <time>2017-06-05T08:25:24.000Z</time>
      </trkpt>
      <trkpt lat="45.041294" lon="5.061620">
        <ele>195.119190</ele>
        <time>2017-06-05T08:25:26.000Z</time>
      </trkpt>
      <trkpt lat="45.041320" lon="5.061441">
        <ele>195.250671</ele>
        <time>2017-06-05T08:25:29.000Z</time>
      </trkpt>
      <trkpt lat="45.041348" lon="5.061282">
        <ele>195.368569</ele>
        <time>2017-06-05T08:25:32.000Z</time>
      </trkpt>
      <trkpt lat="45.041370" lon="5.061114">
        <ele>195.491501</ele>
        <time>2017-06-05T08:25:35.000Z</time>
      </trkpt>
      <trkpt lat="45.041416" lon="5.060986">
        <ele>195.594822</ele>
        <time>2017-06-05T08:25:37.000Z</time>
      </trkpt>
      <trkpt lat="45.041440" lon="5.060857">
        <ele>195.690800</ele>
        <time>2017-06-05T08:25:39.000Z</time>
      </trkpt>
      <trkpt lat="45.041477" lon="5.060728">
        <ele>195.790968</ele>
        <time>2017-06-05T08:25:41.000Z</time>
      </trkpt>
      <trkpt lat="45.041492" lon="5.060578">
        <ele>195.899967</ele>
        <time>2017-06-05T08:25:43.000Z</time>
      </trkpt>
      <trkpt lat="45.041530" lon="5.060391">
        <ele>196.039964</ele>
        <time>2017-06-05T08:25:46.000Z</time>
      </trkpt>
      <trkpt lat="45.041557" lon="5.060267">
        <ele>196.133320</ele>
        <time>2017-06-05T08:25:48.000Z</time>
      </trkpt>
      <trkpt lat="45.041560" lon="5.060102">
        <ele>196.252074</ele>
        <time>2017-06-05T08:25:51.000Z</time>
      </trkpt>
      <trkpt lat="45.041588" lon="5.059933">
        <ele>196.376965</ele>
        <time>2017-06-05T08:25:54.000Z</time>
      </trkpt>
      <trkpt lat="45.041590" lon="5.059800">
        <ele>196.472678</ele>
        <time>2017-06-05T08:25:56.000Z</time>
      </trkpt>
      <trkpt lat="45.041610" lon="5.059632">
        <ele>196.642166</ele>
        <time>2017-06-05T08:25:59.000Z</time>
      </trkpt>
      <trkpt lat="45.041607" lon="5.059495">
        <ele>196.819048</ele>
        <time>2017-06-05T08:26:01.000Z</time>
      </trkpt>
      <trkpt lat="45.041610" lon="5.059361">
        <ele>196.992060</ele>
        <time>2017-06-05T08:26:03.000Z</time>
      </trkpt>
      <trkpt lat="45.041656" lon="5.059199">
        <ele>197.217369</ele>
        <time>2017-06-05T08:26:06.000Z</time>
      </trkpt>
      <trkpt lat="45.041680" lon="5.059039">
        <ele>197.428449</ele>
        <time>2017-06-05T08:26:09.000Z</time>
      </trkpt>
      <trkpt lat="45.041700" lon="5.058874">
        <ele>197.644490</ele>
        <time>2017-06-05T08:26:12.000Z</time>
      </trkpt>
      <trkpt lat="45.041725" lon="5.058716">
        <ele>197.853436</ele>
        <time>2017-06-05T08:26:15.000Z</time>
      </trkpt>
      <trkpt lat="45.041737" lon="5.058554">
        <ele>198.063641</ele>
        <time>2017-06-05T08:26:18.000Z</time>
      </trkpt>
      <trkpt lat="45.041763" lon="5.058428">
        <ele>198.233034</ele>
        <time>2017-06-05T08:26:21.000Z</time>
      </trkpt>
      <trkpt lat="45.041763" lon="5.058291">
        <ele>198.409831</ele>
        <time>2017-06-05T08:26:24.000Z</time>
      </trkpt>
      <trkpt lat="45.041782" lon="5.058147">
        <ele>198.598873</ele>
        <time>2017-06-05T08:26:27.000Z</time>
      </trkpt>
      <trkpt lat="45.041782" lon="5.057994">
        <ele>198.796318</ele>
        <time>2017-06-05T08:26:30.000Z</time>
      </trkpt>
      <trkpt lat="45.041756" lon="5.057848">
        <ele>198.990621</ele>
        <time>2017-06-05T08:26:32.000Z</time>
      </trkpt>
      <trkpt lat="45.041740" lon="5.057717">
        <ele>199.162182</ele>
        <time>2017-06-05T08:26:35.000Z</time>
      </trkpt>
      <trkpt lat="45.041750" lon="5.057585">
        <ele>199.333502</ele>
        <time>2017-06-05T08:26:38.000Z</time>
      </trkpt>
      <trkpt lat="45.041767" lon="5.057415">
        <ele>199.555071</ele>
        <time>2017-06-05T08:26:42.000Z</time>
      </trkpt>
      <trkpt lat="45.041748" lon="5.057261">
        <ele>199.756813</ele>
        <time>2017-06-05T08:26:45.000Z</time>
      </trkpt>
      <trkpt lat="45.041737" lon="5.057089">
        <ele>199.716572</ele>
        <time>2017-06-05T08:26:48.000Z</time>
      </trkpt>
      <trkpt lat="45.041763" lon="5.056959">
        <ele>199.601632</ele>
        <time>2017-06-05T08:26:50.000Z</time>
      </trkpt>
      <trkpt lat="45.041780" lon="5.056827">
        <ele>199.487486</ele>
        <time>2017-06-05T08:26:52.000Z</time>
      </trkpt>
      <trkpt lat="45.041782" lon="5.056683">
        <ele>199.364957</ele>
        <time>2017-06-05T08:26:54.000Z</time>
      </trkpt>
      <trkpt lat="45.041782" lon="5.056542">
        <ele>199.245004</ele>
        <time>2017-06-05T08:26:56.000Z</time>
      </trkpt>
      <trkpt lat="45.041794" lon="5.056399">
        <ele>199.122494</ele>
        <time>2017-06-05T08:26:58.000Z</time>
      </trkpt>
      <trkpt lat="45.041813" lon="5.056242">
        <ele>198.986985</ele>
        <time>2017-06-05T08:27:00.000Z</time>
      </trkpt>
      <trkpt lat="45.041810" lon="5.056101">
        <ele>198.866978</ele>
        <time>2017-06-05T08:27:02.000Z</time>
      </trkpt>
      <trkpt lat="45.041830" lon="5.055948">
        <ele>198.734607</ele>
        <time>2017-06-05T08:27:04.000Z</time>
      </trkpt>
      <trkpt lat="45.041830" lon="5.055807">
        <ele>198.614654</ele>
        <time>2017-06-05T08:27:06.000Z</time>
      </trkpt>
      <trkpt lat="45.041840" lon="5.055652">
        <ele>198.482243</ele>
        <time>2017-06-05T08:27:08.000Z</time>
      </trkpt>
      <trkpt lat="45.041847" lon="5.055504">
        <ele>198.356053</ele>
        <time>2017-06-05T08:27:10.000Z</time>
      </trkpt>
      <trkpt lat="45.041862" lon="5.055353">
        <ele>198.226330</ele>
        <time>2017-06-05T08:27:12.000Z</time>
      </trkpt>
      <trkpt lat="45.041880" lon="5.055193">
        <ele>198.088498</ele>
        <time>2017-06-05T08:27:14.000Z</time>
      </trkpt>
      <trkpt lat="45.041910" lon="5.055035">
        <ele>197.949315</ele>
        <time>2017-06-05T08:27:16.000Z</time>
      </trkpt>
      <trkpt lat="45.041924" lon="5.054888">
        <ele>197.823127</ele>
        <time>2017-06-05T08:27:18.000Z</time>
      </trkpt>
      <trkpt lat="45.041940" lon="5.054749">
        <ele>197.703317</ele>
        <time>2017-06-05T08:27:20.000Z</time>
      </trkpt>
      <trkpt lat="45.041965" lon="5.054573">
        <ele>197.615569</ele>
        <time>2017-06-05T08:27:23.000Z</time>
      </trkpt>
      <trkpt lat="45.041980" lon="5.054445">
        <ele>197.573519</ele>
        <time>2017-06-05T08:27:25.000Z</time>
      </trkpt>
      <trkpt lat="45.041996" lon="5.054279">
        <ele>197.519222</ele>
        <time>2017-06-05T08:27:28.000Z</time>
      </trkpt>
      <trkpt lat="45.041996" lon="5.054129">
        <ele>197.470608</ele>
        <time>2017-06-05T08:27:32.000Z</time>
      </trkpt>
      <trkpt lat="45.042007" lon="5.053866">
        <ele>197.385223</ele>
        <time>2017-06-05T08:27:53.000Z</time>
      </trkpt>
      <trkpt lat="45.042023" lon="5.053711">
        <ele>197.334456</ele>
        <time>2017-06-05T08:27:56.000Z</time>
      </trkpt>
      <trkpt lat="45.042046" lon="5.053587">
        <ele>197.292907</ele>
        <time>2017-06-05T08:27:58.000Z</time>
      </trkpt>
      <trkpt lat="45.042072" lon="5.053404">
        <ele>197.232411</ele>
        <time>2017-06-05T08:28:01.000Z</time>
      </trkpt>
      <trkpt lat="45.042088" lon="5.053275">
        <ele>197.189964</ele>
        <time>2017-06-05T08:28:03.000Z</time>
      </trkpt>
      <trkpt lat="45.042084" lon="5.053105">
        <ele>197.134838</ele>
        <time>2017-06-05T08:28:06.000Z</time>
      </trkpt>
      <trkpt lat="45.042095" lon="5.052946">
        <ele>197.083062</ele>
        <time>2017-06-05T08:28:09.000Z</time>
      </trkpt>
      <trkpt lat="45.042100" lon="5.052806">
        <ele>197.037631</ele>
        <time>2017-06-05T08:28:12.000Z</time>
      </trkpt>
      <trkpt lat="45.042107" lon="5.052678">
        <ele>196.996024</ele>
        <time>2017-06-05T08:28:15.000Z</time>
      </trkpt>
      <trkpt lat="45.042114" lon="5.052526">
        <ele>196.946657</ele>
        <time>2017-06-05T08:28:19.000Z</time>
      </trkpt>
      <trkpt lat="45.042150" lon="5.052368">
        <ele>196.892855</ele>
        <time>2017-06-05T08:28:23.000Z</time>
      </trkpt>
      <trkpt lat="45.042175" lon="5.052247">
        <ele>196.851998</ele>
        <time>2017-06-05T08:28:26.000Z</time>
      </trkpt>
      <trkpt lat="45.042240" lon="5.052126">
        <ele>197.122421</ele>
        <time>2017-06-05T08:28:30.000Z</time>
      </trkpt>
      <trkpt lat="45.042248" lon="5.051967">
        <ele>197.664076</ele>
        <time>2017-06-05T08:28:34.000Z</time>
      </trkpt>
      <trkpt lat="45.042220" lon="5.051805">
        <ele>198.230787</ele>
        <time>2017-06-05T08:28:38.000Z</time>
      </trkpt>
      <trkpt lat="45.042236" lon="5.051669">
        <ele>198.699281</ele>
        <time>2017-06-05T08:28:43.000Z</time>
      </trkpt>
      <trkpt lat="45.042206" lon="5.051528">
        <ele>199.199654</ele>
        <time>2017-06-05T08:29:38.000Z</time>
      </trkpt>
      <trkpt lat="45.042187" lon="5.051386">
        <ele>199.690749</ele>
        <time>2017-06-05T08:29:43.000Z</time>
      </trkpt>
      <trkpt lat="45.042274" lon="5.051379">
        <ele>200.109816</ele>
        <time>2017-06-05T08:32:36.000Z</time>
      </trkpt>
      <trkpt lat="45.042370" lon="5.051368">
        <ele>200.572999</ele>
        <time>2017-06-05T08:32:41.000Z</time>
      </trkpt>
      <trkpt lat="45.042477" lon="5.051407">
        <ele>201.104362</ele>
        <time>2017-06-05T08:32:46.000Z</time>
      </trkpt>
      <trkpt lat="45.042587" lon="5.051439">
        <ele>201.644421</ele>
        <time>2017-06-05T08:32:50.000Z</time>
      </trkpt>
      <trkpt lat="45.042686" lon="5.051467">
        <ele>202.129935</ele>
        <time>2017-06-05T08:32:54.000Z</time>
      </trkpt>
      <trkpt lat="45.042774" lon="5.051499">
        <ele>202.566880</ele>
        <time>2017-06-05T08:32:58.000Z</time>
      </trkpt>
      <trkpt lat="45.042873" lon="5.051508">
        <ele>203.043961</ele>
        <time>2017-06-05T08:33:03.000Z</time>
      </trkpt>
      <trkpt lat="45.042920" lon="5.051395">
        <ele>203.489521</ele>
        <time>2017-06-05T08:33:08.000Z</time>
      </trkpt>
      <trkpt lat="45.042934" lon="5.051238">
        <ele>204.027237</ele>
        <time>2017-06-05T08:33:12.000Z</time>
      </trkpt>
      <trkpt lat="45.042934" lon="5.051089">
        <ele>204.533537</ele>
        <time>2017-06-05T08:33:16.000Z</time>
      </trkpt>
      <trkpt lat="45.042940" lon="5.050951">
        <ele>205.003346</ele>
        <time>2017-06-05T08:33:20.000Z</time>
      </trkpt>
      <trkpt lat="45.042946" lon="5.050815">
        <ele>205.466373</ele>
        <time>2017-06-05T08:33:25.000Z</time>
      </trkpt>
      <trkpt lat="45.042960" lon="5.050679">
        <ele>205.806235</ele>
        <time>2017-06-05T08:33:30.000Z</time>
      </trkpt>
      <trkpt lat="45.042980" lon="5.050550">
        <ele>206.129040</ele>
        <time>2017-06-05T08:33:34.000Z</time>
      </trkpt>
      <trkpt lat="45.043037" lon="5.050438">
        <ele>206.466411</ele>
        <time>2017-06-05T08:33:39.000Z</time>
      </trkpt>
      <trkpt lat="45.043140" lon="5.050362">
        <ele>206.868230</ele>
        <time>2017-06-05T08:33:43.000Z</time>
      </trkpt>
      <trkpt lat="45.043224" lon="5.050277">
        <ele>207.225439</ele>
        <time>2017-06-05T08:33:47.000Z</time>
      </trkpt>
      <trkpt lat="45.043300" lon="5.050198">
        <ele>207.551633</ele>
        <time>2017-06-05T08:33:51.000Z</time>
      </trkpt>
      <trkpt lat="45.043392" lon="5.050130">
        <ele>207.910671</ele>
        <time>2017-06-05T08:33:58.000Z</time>
      </trkpt>
      <trkpt lat="45.043500" lon="5.050077">
        <ele>208.306091</ele>
        <time>2017-06-05T08:34:05.000Z</time>
      </trkpt>
      <trkpt lat="45.043610" lon="5.050091">
        <ele>208.688144</ele>
        <time>2017-06-05T08:34:09.000Z</time>
      </trkpt>
      <trkpt lat="45.043710" lon="5.050137">
        <ele>209.051881</ele>
        <time>2017-06-05T08:34:13.000Z</time>
      </trkpt>
      <trkpt lat="45.043816" lon="5.050156">
        <ele>209.421490</ele>
        <time>2017-06-05T08:34:17.000Z</time>
      </trkpt>
      <trkpt lat="45.043920" lon="5.050123">
        <ele>209.790183</ele>
        <time>2017-06-05T08:34:22.000Z</time>
      </trkpt>
      <trkpt lat="45.044018" lon="5.050102">
        <ele>210.133053</ele>
        <time>2017-06-05T08:34:27.000Z</time>
      </trkpt>
      <trkpt lat="45.044100" lon="5.050046">
        <ele>210.448007</ele>
        <time>2017-06-05T08:34:32.000Z</time>
      </trkpt>
      <trkpt lat="45.044186" lon="5.049993">
        <ele>210.772483</ele>
        <time>2017-06-05T08:34:36.000Z</time>
      </trkpt>
      <trkpt lat="45.044273" lon="5.049910">
        <ele>211.135427</ele>
        <time>2017-06-05T08:34:41.000Z</time>
      </trkpt>
      <trkpt lat="45.044373" lon="5.049848">
        <ele>211.513087</ele>
        <time>2017-06-05T08:34:47.000Z</time>
      </trkpt>
      <trkpt lat="45.044460" lon="5.049800">
        <ele>211.931160</ele>
        <time>2017-06-05T08:34:52.000Z</time>
      </trkpt>
      <trkpt lat="45.044560" lon="5.049763">
        <ele>212.542837</ele>
        <time>2017-06-05T08:34:58.000Z</time>
      </trkpt>
      <trkpt lat="45.044670" lon="5.049737">
        <ele>213.202820</ele>
        <time>2017-06-05T08:35:03.000Z</time>
      </trkpt>
      <trkpt lat="45.044758" lon="5.049807">
        <ele>213.800210</ele>
        <time>2017-06-05T08:35:11.000Z</time>
      </trkpt>
      <trkpt lat="45.044853" lon="5.049834">
        <ele>214.373632</ele>
        <time>2017-06-05T08:35:19.000Z</time>
      </trkpt>
      <trkpt lat="45.044933" lon="5.049903">
        <ele>214.928046</ele>
        <time>2017-06-05T08:35:25.000Z</time>
      </trkpt>
      <trkpt lat="45.045030" lon="5.049957">
        <ele>215.544890</ele>
        <time>2017-06-05T08:35:33.000Z</time>
      </trkpt>
      <trkpt lat="45.045105" lon="5.050027">
        <ele>216.076551</ele>
        <time>2017-06-05T08:35:41.000Z</time>
      </trkpt>
      <trkpt lat="45.045197" lon="5.050067">
        <ele>216.646107</ele>
        <time>2017-06-05T08:36:09.000Z</time>
      </trkpt>
      <trkpt lat="45.045288" lon="5.050054">
        <ele>217.187371</ele>
        <time>2017-06-05T08:36:13.000Z</time>
      </trkpt>
      <trkpt lat="45.045383" lon="5.050022">
        <ele>217.765272</ele>
        <time>2017-06-05T08:36:17.000Z</time>
      </trkpt>
      <trkpt lat="45.045490" lon="5.050010">
        <ele>218.400471</ele>
        <time>2017-06-05T08:36:22.000Z</time>
      </trkpt>
      <trkpt lat="45.045593" lon="5.050035">
        <ele>219.018912</ele>
        <time>2017-06-05T08:36:27.000Z</time>
      </trkpt>
      <trkpt lat="45.045660" lon="5.050160">
        <ele>219.674945</ele>
        <time>2017-06-05T08:37:58.000Z</time>
      </trkpt>
      <trkpt lat="45.045673" lon="5.050317">
        <ele>220.335893</ele>
        <time>2017-06-05T08:38:03.000Z</time>
      </trkpt>
      <trkpt lat="45.045666" lon="5.050447">
        <ele>220.881030</ele>
        <time>2017-06-05T08:38:06.000Z</time>
      </trkpt>
      <trkpt lat="45.045670" lon="5.050593">
        <ele>221.491950</ele>
        <time>2017-06-05T08:38:10.000Z</time>
      </trkpt>
      <trkpt lat="45.045677" lon="5.050735">
        <ele>222.087130</ele>
        <time>2017-06-05T08:38:14.000Z</time>
      </trkpt>
      <trkpt lat="45.045690" lon="5.050885">
        <ele>222.405558</ele>
        <time>2017-06-05T08:38:18.000Z</time>
      </trkpt>
      <trkpt lat="45.045670" lon="5.051014">
        <ele>222.493078</ele>
        <time>2017-06-05T08:38:21.000Z</time>
      </trkpt>
      <trkpt lat="45.045620" lon="5.051180">
        <ele>222.612663</ele>
        <time>2017-06-05T08:38:24.000Z</time>
      </trkpt>
      <trkpt lat="45.045605" lon="5.051309">
        <ele>222.699300</ele>
        <time>2017-06-05T08:38:27.000Z</time>
      </trkpt>
      <trkpt lat="45.045597" lon="5.051462">
        <ele>222.800968</ele>
        <time>2017-06-05T08:38:31.000Z</time>
      </trkpt>
      <trkpt lat="45.045590" lon="5.051602">
        <ele>222.893976</ele>
        <time>2017-06-05T08:38:35.000Z</time>
      </trkpt>
      <trkpt lat="45.045578" lon="5.051742">
        <ele>222.987432</ele>
        <time>2017-06-05T08:38:39.000Z</time>
      </trkpt>
      <trkpt lat="45.045662" lon="5.051837">
        <ele>223.088282</ele>
        <time>2017-06-05T08:38:44.000Z</time>
      </trkpt>
      <trkpt lat="45.045765" lon="5.051871">
        <ele>223.187481</ele>
        <time>2017-06-05T08:38:48.000Z</time>
      </trkpt>
      <trkpt lat="45.045864" lon="5.051929">
        <ele>223.287976</ele>
        <time>2017-06-05T08:38:53.000Z</time>
      </trkpt>
      <trkpt lat="45.045963" lon="5.051916">
        <ele>223.381230</ele>
        <time>2017-06-05T08:39:03.000Z</time>
      </trkpt>
      <trkpt lat="45.045967" lon="5.051774">
        <ele>223.475406</ele>
        <time>2017-06-05T08:39:09.000Z</time>
      </trkpt>
      <trkpt lat="45.045950" lon="5.051641">
        <ele>223.564973</ele>
        <time>2017-06-05T08:39:13.000Z</time>
      </trkpt>
      <trkpt lat="45.045948" lon="5.051494">
        <ele>223.662405</ele>
        <time>2017-06-05T08:39:18.000Z</time>
      </trkpt>
      <trkpt lat="45.045925" lon="5.051350">
        <ele>223.760240</ele>
        <time>2017-06-05T08:39:24.000Z</time>
      </trkpt>
      <trkpt lat="45.045906" lon="5.051211">
        <ele>223.854061</ele>
        <time>2017-06-05T08:39:49.000Z</time>
      </trkpt>
      <trkpt lat="45.045900" lon="5.051082">
        <ele>223.939732</ele>
        <time>2017-06-05T08:39:59.000Z</time>
      </trkpt>
      <trkpt lat="45.045890" lon="5.050932">
        <ele>224.002982</ele>
        <time>2017-06-05T08:40:05.000Z</time>
      </trkpt>
      <trkpt lat="45.045876" lon="5.050794">
        <ele>223.537340</ele>
        <time>2017-06-05T08:40:10.000Z</time>
      </trkpt>
      <trkpt lat="45.045860" lon="5.050658">
        <ele>223.076850</ele>
        <time>2017-06-05T08:40:14.000Z</time>
      </trkpt>
      <trkpt lat="45.045853" lon="5.050527">
        <ele>222.638065</ele>
        <time>2017-06-05T08:40:18.000Z</time>
      </trkpt>
      <trkpt lat="45.045845" lon="5.050368">
        <ele>222.105665</ele>
        <time>2017-06-05T08:40:23.000Z</time>
      </trkpt>
      <trkpt lat="45.045850" lon="5.050230">
        <ele>221.644144</ele>
        <time>2017-06-05T08:40:29.000Z</time>
      </trkpt>
      <trkpt lat="45.045883" lon="5.050092">
        <ele>221.157545</ele>
        <time>2017-06-05T09:11:52.000Z</time>
      </trkpt>
      <trkpt lat="45.045800" lon="5.050002">
        <ele>220.663274</ele>
        <time>2017-06-05T09:11:58.000Z</time>
      </trkpt>
      <trkpt lat="45.045704" lon="5.049979">
        <ele>220.203006</ele>
        <time>2017-06-05T09:12:02.000Z</time>
      </trkpt>
      <trkpt lat="45.045610" lon="5.049973">
        <ele>219.758196</ele>
        <time>2017-06-05T09:12:07.000Z</time>
      </trkpt>
      <trkpt lat="45.045486" lon="5.049978">
        <ele>219.171784</ele>
        <time>2017-06-05T09:12:29.000Z</time>
      </trkpt>
      <trkpt lat="45.045400" lon="5.050013">
        <ele>218.748770</ele>
        <time>2017-06-05T09:12:33.000Z</time>
      </trkpt>
      <trkpt lat="45.045307" lon="5.050031">
        <ele>218.305048</ele>
        <time>2017-06-05T09:12:36.000Z</time>
      </trkpt>
      <trkpt lat="45.045197" lon="5.050027">
        <ele>217.784883</ele>
        <time>2017-06-05T09:12:40.000Z</time>
      </trkpt>
      <trkpt lat="45.045094" lon="5.049991">
        <ele>217.283353</ele>
        <time>2017-06-05T09:12:45.000Z</time>
      </trkpt>
      <trkpt lat="45.045002" lon="5.049995">
        <ele>216.848245</ele>
        <time>2017-06-05T09:12:50.000Z</time>
      </trkpt>
      <trkpt lat="45.044930" lon="5.049914">
        <ele>216.413461</ele>
        <time>2017-06-05T09:12:55.000Z</time>
      </trkpt>
      <trkpt lat="45.044950" lon="5.049773">
        <ele>215.933121</ele>
        <time>2017-06-05T09:13:02.000Z</time>
      </trkpt>
      <trkpt lat="45.044846" lon="5.049812">
        <ele>215.407467</ele>
        <time>2017-06-05T09:13:15.000Z</time>
      </trkpt>
      <trkpt lat="45.044773" lon="5.049731">
        <ele>214.898679</ele>
        <time>2017-06-05T09:13:21.000Z</time>
      </trkpt>
      <trkpt lat="45.044670" lon="5.049731">
        <ele>214.333723</ele>
        <time>2017-06-05T09:13:42.000Z</time>
      </trkpt>
      <trkpt lat="45.044575" lon="5.049776">
        <ele>213.784237</ele>
        <time>2017-06-05T09:13:46.000Z</time>
      </trkpt>
      <trkpt lat="45.044480" lon="5.049803">
        <ele>213.252759</ele>
        <time>2017-06-05T09:13:50.000Z</time>
      </trkpt>
      <trkpt lat="45.044388" lon="5.049869">
        <ele>212.687015</ele>
        <time>2017-06-05T09:13:54.000Z</time>
      </trkpt>
      <trkpt lat="45.044285" lon="5.049922">
        <ele>212.085879</ele>
        <time>2017-06-05T09:13:59.000Z</time>
      </trkpt>
      <trkpt lat="45.044193" lon="5.049961">
        <ele>211.559108</ele>
        <time>2017-06-05T09:14:02.000Z</time>
      </trkpt>
      <trkpt lat="45.044094" lon="5.050044">
        <ele>210.927970</ele>
        <time>2017-06-05T09:14:06.000Z</time>
      </trkpt>
      <trkpt lat="45.044018" lon="5.050114">
        <ele>210.430608</ele>
        <time>2017-06-05T09:14:11.000Z</time>
      </trkpt>
      <trkpt lat="45.043964" lon="5.049987">
        <ele>209.856170</ele>
        <time>2017-06-05T09:14:20.000Z</time>
      </trkpt>
      <trkpt lat="45.043945" lon="5.049824">
        <ele>209.215923</ele>
        <time>2017-06-05T09:14:24.000Z</time>
      </trkpt>
      <trkpt lat="45.043896" lon="5.049664">
        <ele>208.540100</ele>
        <time>2017-06-05T09:14:27.000Z</time>
      </trkpt>
      <trkpt lat="45.043816" lon="5.049514">
        <ele>207.811753</ele>
        <time>2017-06-05T09:14:30.000Z</time>
      </trkpt>
      <trkpt lat="45.043750" lon="5.049396">
        <ele>207.228499</ele>
        <time>2017-06-05T09:14:32.000Z</time>
      </trkpt>
      <trkpt lat="45.043716" lon="5.049233">
        <ele>206.569836</ele>
        <time>2017-06-05T09:14:35.000Z</time>
      </trkpt>
      <trkpt lat="45.043682" lon="5.049074">
        <ele>205.926025</ele>
        <time>2017-06-05T09:14:38.000Z</time>
      </trkpt>
      <trkpt lat="45.043667" lon="5.048926">
        <ele>205.585161</ele>
        <time>2017-06-05T09:14:41.000Z</time>
      </trkpt>
      <trkpt lat="45.043600" lon="5.048843">
        <ele>205.462280</ele>
        <time>2017-06-05T09:14:45.000Z</time>
      </trkpt>
      <trkpt lat="45.043434" lon="5.048961">
        <ele>205.205918</ele>
        <time>2017-06-05T09:15:15.000Z</time>
      </trkpt>
      <trkpt lat="45.043343" lon="5.049038">
        <ele>205.059599</ele>
        <time>2017-06-05T09:15:18.000Z</time>
      </trkpt>
      <trkpt lat="45.043232" lon="5.049110">
        <ele>204.891090</ele>
        <time>2017-06-05T09:15:21.000Z</time>
      </trkpt>
      <trkpt lat="45.043137" lon="5.049163">
        <ele>204.750166</ele>
        <time>2017-06-05T09:15:23.000Z</time>
      </trkpt>
      <trkpt lat="45.043026" lon="5.049204">
        <ele>204.591848</ele>
        <time>2017-06-05T09:15:26.000Z</time>
      </trkpt>
      <trkpt lat="45.042940" lon="5.049127">
        <ele>204.451407</ele>
        <time>2017-06-05T09:15:32.000Z</time>
      </trkpt>
      <trkpt lat="45.042923" lon="5.049002">
        <ele>204.327280</ele>
        <time>2017-06-05T09:15:37.000Z</time>
      </trkpt>
      <trkpt lat="45.042927" lon="5.048861">
        <ele>204.189678</ele>
        <time>2017-06-05T09:15:41.000Z</time>
      </trkpt>
      <trkpt lat="45.042904" lon="5.048720">
        <ele>204.048570</ele>
        <time>2017-06-05T09:15:45.000Z</time>
      </trkpt>
      <trkpt lat="45.042824" lon="5.048653">
        <ele>203.920283</ele>
        <time>2017-06-05T09:15:48.000Z</time>
      </trkpt>
      <trkpt lat="45.042730" lon="5.048638">
        <ele>203.789735</ele>
        <time>2017-06-05T09:15:50.000Z</time>
      </trkpt>
      <trkpt lat="45.042625" lon="5.048629">
        <ele>203.644563</ele>
        <time>2017-06-05T09:15:52.000Z</time>
      </trkpt>
      <trkpt lat="45.042522" lon="5.048620">
        <ele>203.502147</ele>
        <time>2017-06-05T09:15:54.000Z</time>
      </trkpt>
      <trkpt lat="45.042430" lon="5.048638">
        <ele>203.373974</ele>
        <time>2017-06-05T09:15:57.000Z</time>
      </trkpt>
      <trkpt lat="45.042336" lon="5.048657">
        <ele>203.242932</ele>
        <time>2017-06-05T09:16:01.000Z</time>
      </trkpt>
      <trkpt lat="45.042263" lon="5.048565">
        <ele>203.089556</ele>
        <time>2017-06-05T09:16:08.000Z</time>
      </trkpt>
      <trkpt lat="45.042168" lon="5.048569">
        <ele>202.926124</ele>
        <time>2017-06-05T09:16:16.000Z</time>
      </trkpt>
      <trkpt lat="45.042076" lon="5.048553">
        <ele>202.766733</ele>
        <time>2017-06-05T09:16:21.000Z</time>
      </trkpt>
      <trkpt lat="45.041985" lon="5.048545">
        <ele>202.609950</ele>
        <time>2017-06-05T09:16:25.000Z</time>
      </trkpt>
      <trkpt lat="45.041878" lon="5.048548">
        <ele>202.425919</ele>
        <time>2017-06-05T09:16:29.000Z</time>
      </trkpt>
      <trkpt lat="45.041775" lon="5.048548">
        <ele>202.248803</ele>
        <time>2017-06-05T09:16:33.000Z</time>
      </trkpt>
      <trkpt lat="45.041670" lon="5.048542">
        <ele>202.068100</ele>
        <time>2017-06-05T09:16:37.000Z</time>
      </trkpt>
      <trkpt lat="45.041573" lon="5.048529">
        <ele>201.900555</ele>
        <time>2017-06-05T09:16:41.000Z</time>
      </trkpt>
      <trkpt lat="45.041473" lon="5.048523">
        <ele>201.728443</ele>
        <time>2017-06-05T09:16:45.000Z</time>
      </trkpt>
      <trkpt lat="45.041367" lon="5.048518">
        <ele>201.546066</ele>
        <time>2017-06-05T09:16:50.000Z</time>
      </trkpt>
      <trkpt lat="45.041256" lon="5.048518">
        <ele>201.355193</ele>
        <time>2017-06-05T09:16:55.000Z</time>
      </trkpt>
      <trkpt lat="45.041164" lon="5.048512">
        <ele>201.196824</ele>
        <time>2017-06-05T09:16:59.000Z</time>
      </trkpt>
      <trkpt lat="45.041077" lon="5.048482">
        <ele>201.042844</ele>
        <time>2017-06-05T09:17:03.000Z</time>
      </trkpt>
      <trkpt lat="45.040990" lon="5.048410">
        <ele>200.869539</ele>
        <time>2017-06-05T09:17:11.000Z</time>
      </trkpt>
      <trkpt lat="45.040894" lon="5.048408">
        <ele>200.704442</ele>
        <time>2017-06-05T09:17:15.000Z</time>
      </trkpt>
      <trkpt lat="45.040794" lon="5.048420">
        <ele>200.531867</ele>
        <time>2017-06-05T09:17:20.000Z</time>
      </trkpt>
      <trkpt lat="45.040710" lon="5.048337">
        <ele>200.355700</ele>
        <time>2017-06-05T09:17:25.000Z</time>
      </trkpt>
      <trkpt lat="45.040672" lon="5.048178">
        <ele>200.151754</ele>
        <time>2017-06-05T09:17:28.000Z</time>
      </trkpt>
      <trkpt lat="45.040623" lon="5.048035">
        <ele>200.262653</ele>
        <time>2017-06-05T09:17:31.000Z</time>
      </trkpt>
      <trkpt lat="45.040590" lon="5.047905">
        <ele>200.482579</ele>
        <time>2017-06-05T09:17:33.000Z</time>
      </trkpt>
      <trkpt lat="45.040558" lon="5.047759">
        <ele>200.725954</ele>
        <time>2017-06-05T09:17:35.000Z</time>
      </trkpt>
      <trkpt lat="45.040524" lon="5.047607">
        <ele>200.979793</ele>
        <time>2017-06-05T09:17:37.000Z</time>
      </trkpt>
      <trkpt lat="45.040478" lon="5.047360">
        <ele>201.386476</ele>
        <time>2017-06-05T09:17:40.000Z</time>
      </trkpt>
      <trkpt lat="45.040436" lon="5.047211">
        <ele>201.641881</ele>
        <time>2017-06-05T09:17:42.000Z</time>
      </trkpt>
      <trkpt lat="45.040405" lon="5.047061">
        <ele>201.890704</ele>
        <time>2017-06-05T09:17:44.000Z</time>
      </trkpt>
      <trkpt lat="45.040356" lon="5.046925">
        <ele>202.133756</ele>
        <time>2017-06-05T09:17:46.000Z</time>
      </trkpt>
      <trkpt lat="45.040290" lon="5.046769">
        <ele>202.423244</ele>
        <time>2017-06-05T09:17:48.000Z</time>
      </trkpt>
      <trkpt lat="45.040234" lon="5.046596">
        <ele>202.726208</ele>
        <time>2017-06-05T09:17:50.000Z</time>
      </trkpt>
      <trkpt lat="45.040180" lon="5.046454">
        <ele>202.982952</ele>
        <time>2017-06-05T09:17:52.000Z</time>
      </trkpt>
      <trkpt lat="45.040120" lon="5.046304">
        <ele>203.257382</ele>
        <time>2017-06-05T09:17:54.000Z</time>
      </trkpt>
      <trkpt lat="45.040050" lon="5.046168">
        <ele>203.525266</ele>
        <time>2017-06-05T09:17:56.000Z</time>
      </trkpt>
      <trkpt lat="45.039993" lon="5.046031">
        <ele>203.778390</ele>
        <time>2017-06-05T09:17:58.000Z</time>
      </trkpt>
      <trkpt lat="45.039925" lon="5.045921">
        <ele>204.011087</ele>
        <time>2017-06-05T09:18:00.000Z</time>
      </trkpt>
      <trkpt lat="45.039875" lon="5.045787">
        <ele>203.873986</ele>
        <time>2017-06-05T09:18:03.000Z</time>
      </trkpt>
      <trkpt lat="45.039906" lon="5.045641">
        <ele>203.277481</ele>
        <time>2017-06-05T09:18:08.000Z</time>
      </trkpt>
      <trkpt lat="45.039948" lon="5.045526">
        <ele>202.770958</ele>
        <time>2017-06-05T09:18:11.000Z</time>
      </trkpt>
      <trkpt lat="45.039990" lon="5.045373">
        <ele>202.128709</ele>
        <time>2017-06-05T09:18:14.000Z</time>
      </trkpt>
      <trkpt lat="45.040024" lon="5.045227">
        <ele>201.527214</ele>
        <time>2017-06-05T09:18:17.000Z</time>
      </trkpt>
      <trkpt lat="45.040066" lon="5.045080">
        <ele>200.906791</ele>
        <time>2017-06-05T09:18:21.000Z</time>
      </trkpt>
      <trkpt lat="45.040096" lon="5.044946">
        <ele>200.356788</ele>
        <time>2017-06-05T09:18:24.000Z</time>
      </trkpt>
      <trkpt lat="45.040104" lon="5.044801">
        <ele>199.787704</ele>
        <time>2017-06-05T09:18:28.000Z</time>
      </trkpt>
      <trkpt lat="45.040160" lon="5.044655">
        <ele>199.137699</ele>
        <time>2017-06-05T09:18:34.000Z</time>
      </trkpt>
      <trkpt lat="45.040110" lon="5.044518">
        <ele>198.534365</ele>
        <time>2017-06-05T09:18:38.000Z</time>
      </trkpt>
      <trkpt lat="45.040020" lon="5.044417">
        <ele>197.898324</ele>
        <time>2017-06-05T09:18:42.000Z</time>
      </trkpt>
      <trkpt lat="45.039940" lon="5.044321">
        <ele>197.317514</ele>
        <time>2017-06-05T09:18:47.000Z</time>
      </trkpt>
      <trkpt lat="45.039840" lon="5.044228">
        <ele>196.654907</ele>
        <time>2017-06-05T09:18:52.000Z</time>
      </trkpt>
      <trkpt lat="45.039753" lon="5.044110">
        <ele>195.987624</ele>
        <time>2017-06-05T09:18:55.000Z</time>
      </trkpt>
      <trkpt lat="45.039658" lon="5.043985">
        <ele>195.269323</ele>
        <time>2017-06-05T09:18:58.000Z</time>
      </trkpt>
      <trkpt lat="45.039574" lon="5.043910">
        <ele>194.719342</ele>
        <time>2017-06-05T09:19:00.000Z</time>
      </trkpt>
      <trkpt lat="45.039480" lon="5.043844">
        <ele>194.169279</ele>
        <time>2017-06-05T09:19:03.000Z</time>
      </trkpt>
      <trkpt lat="45.039380" lon="5.043753">
        <ele>193.966425</ele>
        <time>2017-06-05T09:19:06.000Z</time>
      </trkpt>
      <trkpt lat="45.039270" lon="5.043650">
        <ele>193.741375</ele>
        <time>2017-06-05T09:19:09.000Z</time>
      </trkpt>
      <trkpt lat="45.039150" lon="5.043567">
        <ele>193.513481</ele>
        <time>2017-06-05T09:19:12.000Z</time>
      </trkpt>
      <trkpt lat="45.039024" lon="5.043509">
        <ele>193.287408</ele>
        <time>2017-06-05T09:19:15.000Z</time>
      </trkpt>
      <trkpt lat="45.038910" lon="5.043442">
        <ele>193.076790</ele>
        <time>2017-06-05T09:19:18.000Z</time>
      </trkpt>
      <trkpt lat="45.038810" lon="5.043375">
        <ele>192.888011</ele>
        <time>2017-06-05T09:19:21.000Z</time>
      </trkpt>
      <trkpt lat="45.038720" lon="5.043325">
        <ele>192.723040</ele>
        <time>2017-06-05T09:19:24.000Z</time>
      </trkpt>
      <trkpt lat="45.038612" lon="5.043286">
        <ele>192.532862</ele>
        <time>2017-06-05T09:19:27.000Z</time>
      </trkpt>
      <trkpt lat="45.038498" lon="5.043249">
        <ele>192.333302</ele>
        <time>2017-06-05T09:19:30.000Z</time>
      </trkpt>
      <trkpt lat="45.038395" lon="5.043264">
        <ele>192.156631</ele>
        <time>2017-06-05T09:19:34.000Z</time>
      </trkpt>
      <trkpt lat="45.038277" lon="5.043259">
        <ele>191.955205</ele>
        <time>2017-06-05T09:19:37.000Z</time>
      </trkpt>
      <trkpt lat="45.038177" lon="5.043218">
        <ele>191.777565</ele>
        <time>2017-06-05T09:19:39.000Z</time>
      </trkpt>
      <trkpt lat="45.038060" lon="5.043225">
        <ele>191.577757</ele>
        <time>2017-06-05T09:19:42.000Z</time>
      </trkpt>
      <trkpt lat="45.037940" lon="5.043230">
        <ele>191.372920</ele>
        <time>2017-06-05T09:19:45.000Z</time>
      </trkpt>
      <trkpt lat="45.037800" lon="5.043234">
        <ele>191.133999</ele>
        <time>2017-06-05T09:19:48.000Z</time>
      </trkpt>
      <trkpt lat="45.037700" lon="5.043255">
        <ele>191.066326</ele>
        <time>2017-06-05T09:19:50.000Z</time>
      </trkpt>
      <trkpt lat="45.037600" lon="5.043294">
        <ele>191.010857</ele>
        <time>2017-06-05T09:19:52.000Z</time>
      </trkpt>
      <trkpt lat="45.037506" lon="5.043336">
        <ele>190.958143</ele>
        <time>2017-06-05T09:19:54.000Z</time>
      </trkpt>
      <trkpt lat="45.037420" lon="5.043381">
        <ele>190.909110</ele>
        <time>2017-06-05T09:19:56.000Z</time>
      </trkpt>
      <trkpt lat="45.037310" lon="5.043433">
        <ele>190.847091</ele>
        <time>2017-06-05T09:19:59.000Z</time>
      </trkpt>
      <trkpt lat="45.037216" lon="5.043460">
        <ele>190.795799</ele>
        <time>2017-06-05T09:20:02.000Z</time>
      </trkpt>
      <trkpt lat="45.037110" lon="5.043512">
        <ele>190.735804</ele>
        <time>2017-06-05T09:20:05.000Z</time>
      </trkpt>
      <trkpt lat="45.037000" lon="5.043556">
        <ele>190.674676</ele>
        <time>2017-06-05T09:20:08.000Z</time>
      </trkpt>
      <trkpt lat="45.036907" lon="5.043600">
        <ele>190.622237</ele>
        <time>2017-06-05T09:20:11.000Z</time>
      </trkpt>
      <trkpt lat="45.036800" lon="5.043661">
        <ele>190.560549</ele>
        <time>2017-06-05T09:20:15.000Z</time>
      </trkpt>
      <trkpt lat="45.036705" lon="5.043721">
        <ele>190.504917</ele>
        <time>2017-06-05T09:20:18.000Z</time>
      </trkpt>
      <trkpt lat="45.036594" lon="5.043786">
        <ele>190.440677</ele>
        <time>2017-06-05T09:20:21.000Z</time>
      </trkpt>
      <trkpt lat="45.036490" lon="5.043840">
        <ele>190.381436</ele>
        <time>2017-06-05T09:20:24.000Z</time>
      </trkpt>
      <trkpt lat="45.036404" lon="5.043900">
        <ele>190.330161</ele>
        <time>2017-06-05T09:20:27.000Z</time>
      </trkpt>
      <trkpt lat="45.036316" lon="5.043969">
        <ele>190.276361</ele>
        <time>2017-06-05T09:20:31.000Z</time>
      </trkpt>
      <trkpt lat="45.036240" lon="5.044049">
        <ele>190.225708</ele>
        <time>2017-06-05T09:20:39.000Z</time>
      </trkpt>
      <trkpt lat="45.036144" lon="5.044079">
        <ele>190.173134</ele>
        <time>2017-06-05T09:20:44.000Z</time>
      </trkpt>
      <trkpt lat="45.036037" lon="5.044144">
        <ele>190.237822</ele>
        <time>2017-06-05T09:20:48.000Z</time>
      </trkpt>
      <trkpt lat="45.035940" lon="5.044204">
        <ele>190.354544</ele>
        <time>2017-06-05T09:20:51.000Z</time>
      </trkpt>
      <trkpt lat="45.035843" lon="5.044264">
        <ele>190.471266</ele>
        <time>2017-06-05T09:20:54.000Z</time>
      </trkpt>
      <trkpt lat="45.035748" lon="5.044317">
        <ele>190.583858</ele>
        <time>2017-06-05T09:20:57.000Z</time>
      </trkpt>
      <trkpt lat="45.035645" lon="5.044392">
        <ele>190.711577</ele>
        <time>2017-06-05T09:21:00.000Z</time>
      </trkpt>
      <trkpt lat="45.035553" lon="5.044465">
        <ele>190.827873</ele>
        <time>2017-06-05T09:21:03.000Z</time>
      </trkpt>
      <trkpt lat="45.035465" lon="5.044538">
        <ele>190.940343</ele>
        <time>2017-06-05T09:21:06.000Z</time>
      </trkpt>
      <trkpt lat="45.035366" lon="5.044629">
        <ele>191.070506</ele>
        <time>2017-06-05T09:21:10.000Z</time>
      </trkpt>
      <trkpt lat="45.035290" lon="5.044725">
        <ele>191.182831</ele>
        <time>2017-06-05T09:21:13.000Z</time>
      </trkpt>
      <trkpt lat="45.035206" lon="5.044797">
        <ele>191.291114</ele>
        <time>2017-06-05T09:21:16.000Z</time>
      </trkpt>
      <trkpt lat="45.035122" lon="5.044865">
        <ele>191.397815</ele>
        <time>2017-06-05T09:21:19.000Z</time>
      </trkpt>
      <trkpt lat="45.035020" lon="5.044971">
        <ele>191.537348</ele>
        <time>2017-06-05T09:21:22.000Z</time>
      </trkpt>
      <trkpt lat="45.034920" lon="5.045043">
        <ele>191.661058</ele>
        <time>2017-06-05T09:21:25.000Z</time>
      </trkpt>
      <trkpt lat="45.034840" lon="5.045104">
        <ele>191.761256</ele>
        <time>2017-06-05T09:21:27.000Z</time>
      </trkpt>
      <trkpt lat="45.034720" lon="5.045146">
        <ele>191.897553</ele>
        <time>2017-06-05T09:21:30.000Z</time>
      </trkpt>
      <trkpt lat="45.034603" lon="5.045207">
        <ele>192.035033</ele>
        <time>2017-06-05T09:21:33.000Z</time>
      </trkpt>
      <trkpt lat="45.034480" lon="5.045273">
        <ele>192.145319</ele>
        <time>2017-06-05T09:21:36.000Z</time>
      </trkpt>
      <trkpt lat="45.034344" lon="5.045309">
        <ele>192.178958</ele>
        <time>2017-06-05T09:21:39.000Z</time>
      </trkpt>
      <trkpt lat="45.034252" lon="5.045327">
        <ele>192.201539</ele>
        <time>2017-06-05T09:21:41.000Z</time>
      </trkpt>
      <trkpt lat="45.034134" lon="5.045360">
        <ele>192.230783</ele>
        <time>2017-06-05T09:21:44.000Z</time>
      </trkpt>
      <trkpt lat="45.034040" lon="5.045391">
        <ele>192.254250</ele>
        <time>2017-06-05T09:21:46.000Z</time>
      </trkpt>
      <trkpt lat="45.033940" lon="5.045434">
        <ele>192.279660</ele>
        <time>2017-06-05T09:21:49.000Z</time>
      </trkpt>
      <trkpt lat="45.033825" lon="5.045487">
        <ele>192.309066</ele>
        <time>2017-06-05T09:21:52.000Z</time>
      </trkpt>
      <trkpt lat="45.033740" lon="5.045543">
        <ele>192.331862</ele>
        <time>2017-06-05T09:21:55.000Z</time>
      </trkpt>
      <trkpt lat="45.033634" lon="5.045592">
        <ele>192.358974</ele>
        <time>2017-06-05T09:21:58.000Z</time>
      </trkpt>
      <trkpt lat="45.033540" lon="5.045638">
        <ele>192.383156</ele>
        <time>2017-06-05T09:22:01.000Z</time>
      </trkpt>
      <trkpt lat="45.033424" lon="5.045668">
        <ele>192.411826</ele>
        <time>2017-06-05T09:22:04.000Z</time>
      </trkpt>
      <trkpt lat="45.033330" lon="5.045683">
        <ele>192.434825</ele>
        <time>2017-06-05T09:22:06.000Z</time>
      </trkpt>
      <trkpt lat="45.033237" lon="5.045683">
        <ele>192.457436</ele>
        <time>2017-06-05T09:22:08.000Z</time>
      </trkpt>
      <trkpt lat="45.033140" lon="5.045693">
        <ele>192.481082</ele>
        <time>2017-06-05T09:22:10.000Z</time>
      </trkpt>
      <trkpt lat="45.033010" lon="5.045743">
        <ele>192.513836</ele>
        <time>2017-06-05T09:22:13.000Z</time>
      </trkpt>
      <trkpt lat="45.032910" lon="5.045772">
        <ele>192.538654</ele>
        <time>2017-06-05T09:22:17.000Z</time>
      </trkpt>
      <trkpt lat="45.033012" lon="5.045793">
        <ele>192.563715</ele>
        <time>2017-06-05T09:22:27.000Z</time>
      </trkpt>
      <trkpt lat="45.032974" lon="5.045633">
        <ele>192.484606</ele>
        <time>2017-06-05T09:24:09.000Z</time>
      </trkpt>
      <trkpt lat="45.032940" lon="5.045498">
        <ele>192.375628</ele>
        <time>2017-06-05T09:24:14.000Z</time>
      </trkpt>
      <trkpt lat="45.032913" lon="5.045336">
        <ele>192.249064</ele>
        <time>2017-06-05T09:24:17.000Z</time>
      </trkpt>
      <trkpt lat="45.032887" lon="5.045167">
        <ele>192.117547</ele>
        <time>2017-06-05T09:24:20.000Z</time>
      </trkpt>
      <trkpt lat="45.032864" lon="5.045003">
        <ele>191.990409</ele>
        <time>2017-06-05T09:24:23.000Z</time>
      </trkpt>
      <trkpt lat="45.032837" lon="5.044817">
        <ele>191.846022</ele>
        <time>2017-06-05T09:24:26.000Z</time>
      </trkpt>
      <trkpt lat="45.032814" lon="5.044692">
        <ele>191.747803</ele>
        <time>2017-06-05T09:24:28.000Z</time>
      </trkpt>
      <trkpt lat="45.032790" lon="5.044565">
        <ele>191.647839</ele>
        <time>2017-06-05T09:24:30.000Z</time>
      </trkpt>
      <trkpt lat="45.032770" lon="5.044442">
        <ele>191.551866</ele>
        <time>2017-06-05T09:24:32.000Z</time>
      </trkpt>
      <trkpt lat="45.032745" lon="5.044314">
        <ele>191.450886</ele>
        <time>2017-06-05T09:24:34.000Z</time>
      </trkpt>
      <trkpt lat="45.032726" lon="5.044188">
        <ele>191.352918</ele>
        <time>2017-06-05T09:24:36.000Z</time>
      </trkpt>
      <trkpt lat="45.032707" lon="5.044012">
        <ele>191.217535</ele>
        <time>2017-06-05T09:24:39.000Z</time>
      </trkpt>
      <trkpt lat="45.032690" lon="5.043835">
        <ele>191.081707</ele>
        <time>2017-06-05T09:24:42.000Z</time>
      </trkpt>
      <trkpt lat="45.032658" lon="5.043668">
        <ele>190.950134</ele>
        <time>2017-06-05T09:24:45.000Z</time>
      </trkpt>
      <trkpt lat="45.032646" lon="5.043539">
        <ele>190.851196</ele>
        <time>2017-06-05T09:24:47.000Z</time>
      </trkpt>
      <trkpt lat="45.032593" lon="5.043435">
        <ele>190.753697</ele>
        <time>2017-06-05T09:24:49.000Z</time>
      </trkpt>
      <trkpt lat="45.032497" lon="5.043383">
        <ele>190.643093</ele>
        <time>2017-06-05T09:24:51.000Z</time>
      </trkpt>
      <trkpt lat="45.032406" lon="5.043450">
        <ele>190.566088</ele>
        <time>2017-06-05T09:24:53.000Z</time>
      </trkpt>
      <trkpt lat="45.032300" lon="5.043529">
        <ele>190.478244</ele>
        <time>2017-06-05T09:24:55.000Z</time>
      </trkpt>
      <trkpt lat="45.032200" lon="5.043624">
        <ele>190.389928</ele>
        <time>2017-06-05T09:24:57.000Z</time>
      </trkpt>
      <trkpt lat="45.032104" lon="5.043704">
        <ele>190.308238</ele>
        <time>2017-06-05T09:24:59.000Z</time>
      </trkpt>
      <trkpt lat="45.032005" lon="5.043799">
        <ele>190.220530</ele>
        <time>2017-06-05T09:25:01.000Z</time>
      </trkpt>
      <trkpt lat="45.031902" lon="5.043869">
        <ele>190.136748</ele>
        <time>2017-06-05T09:25:03.000Z</time>
      </trkpt>
      <trkpt lat="45.031784" lon="5.043908">
        <ele>190.047898</ele>
        <time>2017-06-05T09:25:05.000Z</time>
      </trkpt>
      <trkpt lat="45.031677" lon="5.043890">
        <ele>189.968890</ele>
        <time>2017-06-05T09:25:07.000Z</time>
      </trkpt>
      <trkpt lat="45.031570" lon="5.043895">
        <ele>189.890391</ele>
        <time>2017-06-05T09:25:09.000Z</time>
      </trkpt>
      <trkpt lat="45.031475" lon="5.043912">
        <ele>189.820179</ele>
        <time>2017-06-05T09:25:11.000Z</time>
      </trkpt>
      <trkpt lat="45.031380" lon="5.043918">
        <ele>189.750453</ele>
        <time>2017-06-05T09:25:13.000Z</time>
      </trkpt>
      <trkpt lat="45.031284" lon="5.043891">
        <ele>189.678686</ele>
        <time>2017-06-05T09:25:15.000Z</time>
      </trkpt>
      <trkpt lat="45.031200" lon="5.043826">
        <ele>189.608486</ele>
        <time>2017-06-05T09:25:17.000Z</time>
      </trkpt>
      <trkpt lat="45.031113" lon="5.043749">
        <ele>189.533244</ele>
        <time>2017-06-05T09:25:19.000Z</time>
      </trkpt>
      <trkpt lat="45.031017" lon="5.043653">
        <ele>189.447049</ele>
        <time>2017-06-05T09:25:21.000Z</time>
      </trkpt>
      <trkpt lat="45.030920" lon="5.043568">
        <ele>189.363391</ele>
        <time>2017-06-05T09:25:23.000Z</time>
      </trkpt>
      <trkpt lat="45.030815" lon="5.043469">
        <ele>189.296443</ele>
        <time>2017-06-05T09:25:25.000Z</time>
      </trkpt>
      <trkpt lat="45.030704" lon="5.043410">
        <ele>189.256026</ele>
        <time>2017-06-05T09:25:27.000Z</time>
      </trkpt>
      <trkpt lat="45.030590" lon="5.043355">
        <ele>189.214972</ele>
        <time>2017-06-05T09:25:29.000Z</time>
      </trkpt>
      <trkpt lat="45.030506" lon="5.043296">
        <ele>189.183006</ele>
        <time>2017-06-05T09:25:31.000Z</time>
      </trkpt>
      <trkpt lat="45.030403" lon="5.043241">
        <ele>189.145481</ele>
        <time>2017-06-05T09:25:33.000Z</time>
      </trkpt>
      <trkpt lat="45.030296" lon="5.043189">
        <ele>189.106918</ele>
        <time>2017-06-05T09:25:35.000Z</time>
      </trkpt>
      <trkpt lat="45.030197" lon="5.043128">
        <ele>189.070113</ele>
        <time>2017-06-05T09:25:37.000Z</time>
      </trkpt>
      <trkpt lat="45.030087" lon="5.043047">
        <ele>189.027845</ele>
        <time>2017-06-05T09:25:39.000Z</time>
      </trkpt>
      <trkpt lat="45.029987" lon="5.042954">
        <ele>188.987056</ele>
        <time>2017-06-05T09:25:41.000Z</time>
      </trkpt>
      <trkpt lat="45.029877" lon="5.042862">
        <ele>188.943502</ele>
        <time>2017-06-05T09:25:43.000Z</time>
      </trkpt>
      <trkpt lat="45.029766" lon="5.042777">
        <ele>188.900481</ele>
        <time>2017-06-05T09:25:45.000Z</time>
      </trkpt>
      <trkpt lat="45.029675" lon="5.042686">
        <ele>188.862499</ele>
        <time>2017-06-05T09:25:47.000Z</time>
      </trkpt>
      <trkpt lat="45.029600" lon="5.042592">
        <ele>188.828347</ele>
        <time>2017-06-05T09:25:49.000Z</time>
      </trkpt>
      <trkpt lat="45.029507" lon="5.042480">
        <ele>188.786720</ele>
        <time>2017-06-05T09:25:51.000Z</time>
      </trkpt>
      <trkpt lat="45.029423" lon="5.042365">
        <ele>188.746880</ele>
        <time>2017-06-05T09:25:53.000Z</time>
      </trkpt>
      <trkpt lat="45.029354" lon="5.042234">
        <ele>188.707522</ele>
        <time>2017-06-05T09:25:55.000Z</time>
      </trkpt>
      <trkpt lat="45.029297" lon="5.042116">
        <ele>188.657299</ele>
        <time>2017-06-05T09:25:57.000Z</time>
      </trkpt>
      <trkpt lat="45.029240" lon="5.041983">
        <ele>188.601614</ele>
        <time>2017-06-05T09:25:59.000Z</time>
      </trkpt>
      <trkpt lat="45.029167" lon="5.041865">
        <ele>188.545470</ele>
        <time>2017-06-05T09:26:01.000Z</time>
      </trkpt>
      <trkpt lat="45.029076" lon="5.041751">
        <ele>188.483902</ele>
        <time>2017-06-05T09:26:04.000Z</time>
      </trkpt>
      <trkpt lat="45.029000" lon="5.041606">
        <ele>188.419273</ele>
        <time>2017-06-05T09:26:07.000Z</time>
      </trkpt>
      <trkpt lat="45.028930" lon="5.041441">
        <ele>188.350375</ele>
        <time>2017-06-05T09:26:09.000Z</time>
      </trkpt>
      <trkpt lat="45.028843" lon="5.041270">
        <ele>188.274942</ele>
        <time>2017-06-05T09:26:11.000Z</time>
      </trkpt>
      <trkpt lat="45.028763" lon="5.041134">
        <ele>188.211595</ele>
        <time>2017-06-05T09:26:13.000Z</time>
      </trkpt>
      <trkpt lat="45.028700" lon="5.041003">
        <ele>188.154867</ele>
        <time>2017-06-05T09:26:15.000Z</time>
      </trkpt>
      <trkpt lat="45.028640" lon="5.040860">
        <ele>188.095329</ele>
        <time>2017-06-05T09:26:17.000Z</time>
      </trkpt>
      <trkpt lat="45.028580" lon="5.040714">
        <ele>188.034865</ele>
        <time>2017-06-05T09:26:19.000Z</time>
      </trkpt>
      <trkpt lat="45.028515" lon="5.040546">
        <ele>187.966295</ele>
        <time>2017-06-05T09:26:21.000Z</time>
      </trkpt>
      <trkpt lat="45.028454" lon="5.040377">
        <ele>187.898357</ele>
        <time>2017-06-05T09:26:23.000Z</time>
      </trkpt>
      <trkpt lat="45.028397" lon="5.040220">
        <ele>187.835166</ele>
        <time>2017-06-05T09:26:25.000Z</time>
      </trkpt>
      <trkpt lat="45.028340" lon="5.040066">
        <ele>187.790539</ele>
        <time>2017-06-05T09:26:27.000Z</time>
      </trkpt>
      <trkpt lat="45.028286" lon="5.039924">
        <ele>187.780045</ele>
        <time>2017-06-05T09:26:29.000Z</time>
      </trkpt>
      <trkpt lat="45.028244" lon="5.039791">
        <ele>187.770564</ele>
        <time>2017-06-05T09:26:31.000Z</time>
      </trkpt>
      <trkpt lat="45.028233" lon="5.039638">
        <ele>187.760555</ele>
        <time>2017-06-05T09:26:33.000Z</time>
      </trkpt>
      <trkpt lat="45.028230" lon="5.039478">
        <ele>187.750138</ele>
        <time>2017-06-05T09:26:35.000Z</time>
      </trkpt>
      <trkpt lat="45.028225" lon="5.039323">
        <ele>187.740040</ele>
        <time>2017-06-05T09:26:37.000Z</time>
      </trkpt>
      <trkpt lat="45.028202" lon="5.039159">
        <ele>187.729158</ele>
        <time>2017-06-05T09:26:39.000Z</time>
      </trkpt>
      <trkpt lat="45.028180" lon="5.038995">
        <ele>187.718294</ele>
        <time>2017-06-05T09:26:41.000Z</time>
      </trkpt>
      <trkpt lat="45.028164" lon="5.038853">
        <ele>187.708935</ele>
        <time>2017-06-05T09:26:43.000Z</time>
      </trkpt>
      <trkpt lat="45.028133" lon="5.038712">
        <ele>187.699325</ele>
        <time>2017-06-05T09:26:45.000Z</time>
      </trkpt>
      <trkpt lat="45.028107" lon="5.038540">
        <ele>187.687878</ele>
        <time>2017-06-05T09:26:47.000Z</time>
      </trkpt>
      <trkpt lat="45.028080" lon="5.038386">
        <ele>187.677551</ele>
        <time>2017-06-05T09:26:49.000Z</time>
      </trkpt>
      <trkpt lat="45.028053" lon="5.038216">
        <ele>187.666211</ele>
        <time>2017-06-05T09:26:51.000Z</time>
      </trkpt>
      <trkpt lat="45.028027" lon="5.038052">
        <ele>187.655272</ele>
        <time>2017-06-05T09:26:53.000Z</time>
      </trkpt>
      <trkpt lat="45.028020" lon="5.037896">
        <ele>187.645099</ele>
        <time>2017-06-05T09:26:55.000Z</time>
      </trkpt>
      <trkpt lat="45.028040" lon="5.037748">
        <ele>187.635292</ele>
        <time>2017-06-05T09:26:57.000Z</time>
      </trkpt>
      <trkpt lat="45.028053" lon="5.037583">
        <ele>187.667494</ele>
        <time>2017-06-05T09:26:59.000Z</time>
      </trkpt>
      <trkpt lat="45.028040" lon="5.037425">
        <ele>187.759853</ele>
        <time>2017-06-05T09:27:01.000Z</time>
      </trkpt>
      <trkpt lat="45.028010" lon="5.037273">
        <ele>187.851485</ele>
        <time>2017-06-05T09:27:03.000Z</time>
      </trkpt>
      <trkpt lat="45.027980" lon="5.037125">
        <ele>187.940883</ele>
        <time>2017-06-05T09:27:05.000Z</time>
      </trkpt>
      <trkpt lat="45.027954" lon="5.036954">
        <ele>188.042442</ele>
        <time>2017-06-05T09:27:07.000Z</time>
      </trkpt>
      <trkpt lat="45.027916" lon="5.036785">
        <ele>188.145414</ele>
        <time>2017-06-05T09:27:09.000Z</time>
      </trkpt>
      <trkpt lat="45.027885" lon="5.036623">
        <ele>188.242863</ele>
        <time>2017-06-05T09:27:11.000Z</time>
      </trkpt>
      <trkpt lat="45.027866" lon="5.036457">
        <ele>188.340503</ele>
        <time>2017-06-05T09:27:13.000Z</time>
      </trkpt>
      <trkpt lat="45.027843" lon="5.036301">
        <ele>188.433031</ele>
        <time>2017-06-05T09:27:15.000Z</time>
      </trkpt>
      <trkpt lat="45.027836" lon="5.036151">
        <ele>188.520315</ele>
        <time>2017-06-05T09:27:17.000Z</time>
      </trkpt>
      <trkpt lat="45.027843" lon="5.035982">
        <ele>188.618610</ele>
        <time>2017-06-05T09:27:19.000Z</time>
      </trkpt>
      <trkpt lat="45.027824" lon="5.035814">
        <ele>188.717397</ele>
        <time>2017-06-05T09:27:21.000Z</time>
      </trkpt>
      <trkpt lat="45.027798" lon="5.035657">
        <ele>188.811025</ele>
        <time>2017-06-05T09:27:23.000Z</time>
      </trkpt>
      <trkpt lat="45.027770" lon="5.035491">
        <ele>188.910116</ele>
        <time>2017-06-05T09:27:25.000Z</time>
      </trkpt>
      <trkpt lat="45.027760" lon="5.035303">
        <ele>189.019584</ele>
        <time>2017-06-05T09:27:27.000Z</time>
      </trkpt>
      <trkpt lat="45.027756" lon="5.035169">
        <ele>189.097457</ele>
        <time>2017-06-05T09:27:29.000Z</time>
      </trkpt>
      <trkpt lat="45.027756" lon="5.035022">
        <ele>189.095382</ele>
        <time>2017-06-05T09:27:31.000Z</time>
      </trkpt>
      <trkpt lat="45.027767" lon="5.034859">
        <ele>189.081576</ele>
        <time>2017-06-05T09:27:33.000Z</time>
      </trkpt>
      <trkpt lat="45.027767" lon="5.034693">
        <ele>189.067579</ele>
        <time>2017-06-05T09:27:35.000Z</time>
      </trkpt>
      <trkpt lat="45.027767" lon="5.034524">
        <ele>189.053330</ele>
        <time>2017-06-05T09:27:37.000Z</time>
      </trkpt>
      <trkpt lat="45.027763" lon="5.034349">
        <ele>189.038567</ele>
        <time>2017-06-05T09:27:39.000Z</time>
      </trkpt>
      <trkpt lat="45.027770" lon="5.034192">
        <ele>189.025303</ele>
        <time>2017-06-05T09:27:41.000Z</time>
      </trkpt>
      <trkpt lat="45.027780" lon="5.034029">
        <ele>189.011508</ele>
        <time>2017-06-05T09:27:43.000Z</time>
      </trkpt>
      <trkpt lat="45.027775" lon="5.033876">
        <ele>188.998594</ele>
        <time>2017-06-05T09:27:45.000Z</time>
      </trkpt>
      <trkpt lat="45.027780" lon="5.033734">
        <ele>188.986606</ele>
        <time>2017-06-05T09:27:47.000Z</time>
      </trkpt>
      <trkpt lat="45.027790" lon="5.033592">
        <ele>188.974574</ele>
        <time>2017-06-05T09:27:49.000Z</time>
      </trkpt>
      <trkpt lat="45.027798" lon="5.033457">
        <ele>188.963152</ele>
        <time>2017-06-05T09:27:51.000Z</time>
      </trkpt>
      <trkpt lat="45.027800" lon="5.033313">
        <ele>188.951008</ele>
        <time>2017-06-05T09:27:53.000Z</time>
      </trkpt>
      <trkpt lat="45.027817" lon="5.033136">
        <ele>188.935947</ele>
        <time>2017-06-05T09:27:55.000Z</time>
      </trkpt>
      <trkpt lat="45.027850" lon="5.032965">
        <ele>188.921001</ele>
        <time>2017-06-05T09:27:57.000Z</time>
      </trkpt>
      <trkpt lat="45.027870" lon="5.032810">
        <ele>188.907716</ele>
        <time>2017-06-05T09:27:59.000Z</time>
      </trkpt>
      <trkpt lat="45.027878" lon="5.032638">
        <ele>188.893182</ele>
        <time>2017-06-05T09:28:01.000Z</time>
      </trkpt>
      <trkpt lat="45.027893" lon="5.032450">
        <ele>188.962213</ele>
        <time>2017-06-05T09:28:03.000Z</time>
      </trkpt>
      <trkpt lat="45.027916" lon="5.032300">
        <ele>189.024280</ele>
        <time>2017-06-05T09:28:05.000Z</time>
      </trkpt>
      <trkpt lat="45.027943" lon="5.032162">
        <ele>189.082183</ele>
        <time>2017-06-05T09:28:07.000Z</time>
      </trkpt>
      <trkpt lat="45.027943" lon="5.032008">
        <ele>189.144457</ele>
        <time>2017-06-05T09:28:09.000Z</time>
      </trkpt>
      <trkpt lat="45.027960" lon="5.031851">
        <ele>189.208684</ele>
        <time>2017-06-05T09:28:11.000Z</time>
      </trkpt>
      <trkpt lat="45.028004" lon="5.031678">
        <ele>189.283033</ele>
        <time>2017-06-05T09:28:14.000Z</time>
      </trkpt>
      <trkpt lat="45.028030" lon="5.031491">
        <ele>189.360100</ele>
        <time>2017-06-05T09:28:17.000Z</time>
      </trkpt>
      <trkpt lat="45.028060" lon="5.031303">
        <ele>189.438036</ele>
        <time>2017-06-05T09:28:20.000Z</time>
      </trkpt>
      <trkpt lat="45.028088" lon="5.031166">
        <ele>189.495705</ele>
        <time>2017-06-05T09:28:22.000Z</time>
      </trkpt>
      <trkpt lat="45.028107" lon="5.030973">
        <ele>189.574502</ele>
        <time>2017-06-05T09:28:24.000Z</time>
      </trkpt>
      <trkpt lat="45.028133" lon="5.030788">
        <ele>189.650776</ele>
        <time>2017-06-05T09:28:27.000Z</time>
      </trkpt>
      <trkpt lat="45.028160" lon="5.030656">
        <ele>189.706344</ele>
        <time>2017-06-05T09:28:29.000Z</time>
      </trkpt>
      <trkpt lat="45.028210" lon="5.030488">
        <ele>189.780056</ele>
        <time>2017-06-05T09:28:32.000Z</time>
      </trkpt>
      <trkpt lat="45.028236" lon="5.030345">
        <ele>189.839764</ele>
        <time>2017-06-05T09:28:35.000Z</time>
      </trkpt>
      <trkpt lat="45.028270" lon="5.030181">
        <ele>189.908876</ele>
        <time>2017-06-05T09:28:38.000Z</time>
      </trkpt>
      <trkpt lat="45.028300" lon="5.030024">
        <ele>190.082167</ele>
        <time>2017-06-05T09:28:40.000Z</time>
      </trkpt>
      <trkpt lat="45.028336" lon="5.029822">
        <ele>190.335232</ele>
        <time>2017-06-05T09:28:43.000Z</time>
      </trkpt>
      <trkpt lat="45.028374" lon="5.029701">
        <ele>190.496077</ele>
        <time>2017-06-05T09:28:45.000Z</time>
      </trkpt>
      <trkpt lat="45.028410" lon="5.029540">
        <ele>190.701210</ele>
        <time>2017-06-05T09:28:47.000Z</time>
      </trkpt>
      <trkpt lat="45.028450" lon="5.029382">
        <ele>190.905085</ele>
        <time>2017-06-05T09:28:49.000Z</time>
      </trkpt>
      <trkpt lat="45.028477" lon="5.029252">
        <ele>191.069683</ele>
        <time>2017-06-05T09:28:51.000Z</time>
      </trkpt>
      <trkpt lat="45.028510" lon="5.029120">
        <ele>191.239768</ele>
        <time>2017-06-05T09:28:53.000Z</time>
      </trkpt>
      <trkpt lat="45.028553" lon="5.028949">
        <ele>191.460249</ele>
        <time>2017-06-05T09:28:56.000Z</time>
      </trkpt>
      <trkpt lat="45.028587" lon="5.028822">
        <ele>191.625222</ele>
        <time>2017-06-05T09:28:58.000Z</time>
      </trkpt>
      <trkpt lat="45.028625" lon="5.028668">
        <ele>191.823370</ele>
        <time>2017-06-05T09:29:00.000Z</time>
      </trkpt>
      <trkpt lat="45.028664" lon="5.028523">
        <ele>192.011834</ele>
        <time>2017-06-05T09:29:02.000Z</time>
      </trkpt>
      <trkpt lat="45.028700" lon="5.028388">
        <ele>192.187112</ele>
        <time>2017-06-05T09:29:04.000Z</time>
      </trkpt>
      <trkpt lat="45.028740" lon="5.028220">
        <ele>192.402462</ele>
        <time>2017-06-05T09:29:07.000Z</time>
      </trkpt>
      <trkpt lat="45.028763" lon="5.028041">
        <ele>192.623468</ele>
        <time>2017-06-05T09:29:10.000Z</time>
      </trkpt>
      <trkpt lat="45.028810" lon="5.027871">
        <ele>192.845216</ele>
        <time>2017-06-05T09:29:13.000Z</time>
      </trkpt>
      <trkpt lat="45.028854" lon="5.027700">
        <ele>193.053939</ele>
        <time>2017-06-05T09:29:16.000Z</time>
      </trkpt>
      <trkpt lat="45.028880" lon="5.027521">
        <ele>193.225002</ele>
        <time>2017-06-05T09:29:19.000Z</time>
      </trkpt>
      <trkpt lat="45.028920" lon="5.027348">
        <ele>193.395392</ele>
        <time>2017-06-05T09:29:22.000Z</time>
      </trkpt>
      <trkpt lat="45.028930" lon="5.027215">
        <ele>193.520596</ele>
        <time>2017-06-05T09:29:24.000Z</time>
      </trkpt>
      <trkpt lat="45.028960" lon="5.027073">
        <ele>193.659333</ele>
        <time>2017-06-05T09:29:26.000Z</time>
      </trkpt>
      <trkpt lat="45.028988" lon="5.026942">
        <ele>193.787447</ele>
        <time>2017-06-05T09:29:28.000Z</time>
      </trkpt>
      <trkpt lat="45.029030" lon="5.026812">
        <ele>193.921251</ele>
        <time>2017-06-05T09:29:30.000Z</time>
      </trkpt>
      <trkpt lat="45.029064" lon="5.026666">
        <ele>194.065149</ele>
        <time>2017-06-05T09:29:32.000Z</time>
      </trkpt>
      <trkpt lat="45.029076" lon="5.026504">
        <ele>194.217626</ele>
        <time>2017-06-05T09:29:34.000Z</time>
      </trkpt>
      <trkpt lat="45.029102" lon="5.026367">
        <ele>194.350414</ele>
        <time>2017-06-05T09:29:36.000Z</time>
      </trkpt>
      <trkpt lat="45.029130" lon="5.026227">
        <ele>194.486614</ele>
        <time>2017-06-05T09:29:38.000Z</time>
      </trkpt>
      <trkpt lat="45.029170" lon="5.026057">
        <ele>194.654337</ele>
        <time>2017-06-05T09:29:41.000Z</time>
      </trkpt>
      <trkpt lat="45.029213" lon="5.025942">
        <ele>194.776125</ele>
        <time>2017-06-05T09:29:43.000Z</time>
      </trkpt>
      <trkpt lat="45.029250" lon="5.025814">
        <ele>194.905579</ele>
        <time>2017-06-05T09:29:45.000Z</time>
      </trkpt>
      <trkpt lat="45.029278" lon="5.025676">
        <ele>195.039977</ele>
        <time>2017-06-05T09:29:47.000Z</time>
      </trkpt>
      <trkpt lat="45.029316" lon="5.025548">
        <ele>195.169939</ele>
        <time>2017-06-05T09:29:49.000Z</time>
      </trkpt>
      <trkpt lat="45.029350" lon="5.025409">
        <ele>195.307628</ele>
        <time>2017-06-05T09:29:51.000Z</time>
      </trkpt>
      <trkpt lat="45.029396" lon="5.025292">
        <ele>195.359415</ele>
        <time>2017-06-05T09:29:53.000Z</time>
      </trkpt>
      <trkpt lat="45.029450" lon="5.025161">
        <ele>195.227757</ele>
        <time>2017-06-05T09:29:55.000Z</time>
      </trkpt>
      <trkpt lat="45.029503" lon="5.025027">
        <ele>195.094447</ele>
        <time>2017-06-05T09:29:57.000Z</time>
      </trkpt>
      <trkpt lat="45.029552" lon="5.024889">
        <ele>194.960373</ele>
        <time>2017-06-05T09:29:59.000Z</time>
      </trkpt>
      <trkpt lat="45.029600" lon="5.024757">
        <ele>194.831498</ele>
        <time>2017-06-05T09:30:01.000Z</time>
      </trkpt>
      <trkpt lat="45.029640" lon="5.024632">
        <ele>194.712375</ele>
        <time>2017-06-05T09:30:03.000Z</time>
      </trkpt>
      <trkpt lat="45.029667" lon="5.024510">
        <ele>194.601390</ele>
        <time>2017-06-05T09:30:05.000Z</time>
      </trkpt>
      <trkpt lat="45.029694" lon="5.024384">
        <ele>194.487086</ele>
        <time>2017-06-05T09:30:07.000Z</time>
      </trkpt>
      <trkpt lat="45.029716" lon="5.024260">
        <ele>194.376096</ele>
        <time>2017-06-05T09:30:09.000Z</time>
      </trkpt>
      <trkpt lat="45.029770" lon="5.024081">
        <ele>194.207133</ele>
        <time>2017-06-05T09:30:12.000Z</time>
      </trkpt>
      <trkpt lat="45.029808" lon="5.023951">
        <ele>194.085002</ele>
        <time>2017-06-05T09:30:14.000Z</time>
      </trkpt>
      <trkpt lat="45.029842" lon="5.023830">
        <ele>193.971959</ele>
        <time>2017-06-05T09:30:16.000Z</time>
      </trkpt>
      <trkpt lat="45.029900" lon="5.023654">
        <ele>193.803372</ele>
        <time>2017-06-05T09:30:19.000Z</time>
      </trkpt>
      <trkpt lat="45.029945" lon="5.023518">
        <ele>193.673006</ele>
        <time>2017-06-05T09:30:21.000Z</time>
      </trkpt>
      <trkpt lat="45.029990" lon="5.023386">
        <ele>193.545776</ele>
        <time>2017-06-05T09:30:23.000Z</time>
      </trkpt>
      <trkpt lat="45.030030" lon="5.023252">
        <ele>193.419494</ele>
        <time>2017-06-05T09:30:25.000Z</time>
      </trkpt>
      <trkpt lat="45.030064" lon="5.023128">
        <ele>193.304027</ele>
        <time>2017-06-05T09:30:27.000Z</time>
      </trkpt>
      <trkpt lat="45.030100" lon="5.023006">
        <ele>193.189253</ele>
        <time>2017-06-05T09:30:29.000Z</time>
      </trkpt>
      <trkpt lat="45.030144" lon="5.022889">
        <ele>193.091928</ele>
        <time>2017-06-05T09:30:31.000Z</time>
      </trkpt>
      <trkpt lat="45.030186" lon="5.022759">
        <ele>192.987625</ele>
        <time>2017-06-05T09:30:33.000Z</time>
      </trkpt>
      <trkpt lat="45.030212" lon="5.022621">
        <ele>192.883410</ele>
        <time>2017-06-05T09:30:35.000Z</time>
      </trkpt>
      <trkpt lat="45.030266" lon="5.022518">
        <ele>192.789829</ele>
        <time>2017-06-05T09:30:37.000Z</time>
      </trkpt>
      <trkpt lat="45.030340" lon="5.022372">
        <ele>192.658728</ele>
        <time>2017-06-05T09:30:40.000Z</time>
      </trkpt>
      <trkpt lat="45.030390" lon="5.022201">
        <ele>192.523693</ele>
        <time>2017-06-05T09:30:43.000Z</time>
      </trkpt>
      <trkpt lat="45.030440" lon="5.022043">
        <ele>192.397371</ele>
        <time>2017-06-05T09:30:46.000Z</time>
      </trkpt>
      <trkpt lat="45.030490" lon="5.021872">
        <ele>192.262336</ele>
        <time>2017-06-05T09:30:49.000Z</time>
      </trkpt>
      <trkpt lat="45.030537" lon="5.021697">
        <ele>192.125730</ele>
        <time>2017-06-05T09:30:52.000Z</time>
      </trkpt>
      <trkpt lat="45.030567" lon="5.021569">
        <ele>192.027327</ele>
        <time>2017-06-05T09:30:54.000Z</time>
      </trkpt>
      <trkpt lat="45.030620" lon="5.021396">
        <ele>191.889740</ele>
        <time>2017-06-05T09:30:57.000Z</time>
      </trkpt>
      <trkpt lat="45.030678" lon="5.021285">
        <ele>191.789011</ele>
        <time>2017-06-05T09:30:59.000Z</time>
      </trkpt>
      <trkpt lat="45.030727" lon="5.021180">
        <ele>191.697197</ele>
        <time>2017-06-05T09:31:01.000Z</time>
      </trkpt>
      <trkpt lat="45.030790" lon="5.021057">
        <ele>191.586352</ele>
        <time>2017-06-05T09:31:05.000Z</time>
      </trkpt>
      <trkpt lat="45.030830" lon="5.020898">
        <ele>191.463200</ele>
        <time>2017-06-05T09:32:30.000Z</time>
      </trkpt>
      <trkpt lat="45.030853" lon="5.020740">
        <ele>191.345489</ele>
        <time>2017-06-05T09:32:34.000Z</time>
      </trkpt>
      <trkpt lat="45.030865" lon="5.020605">
        <ele>191.348951</ele>
        <time>2017-06-05T09:32:36.000Z</time>
      </trkpt>
      <trkpt lat="45.030914" lon="5.020456">
        <ele>191.379106</ele>
        <time>2017-06-05T09:32:39.000Z</time>
      </trkpt>
      <trkpt lat="45.030990" lon="5.020291">
        <ele>191.415245</ele>
        <time>2017-06-05T09:32:42.000Z</time>
      </trkpt>
      <trkpt lat="45.031060" lon="5.020128">
        <ele>191.450242</ele>
        <time>2017-06-05T09:32:45.000Z</time>
      </trkpt>
      <trkpt lat="45.031128" lon="5.019972">
        <ele>191.483873</ele>
        <time>2017-06-05T09:32:48.000Z</time>
      </trkpt>
      <trkpt lat="45.031174" lon="5.019862">
        <ele>191.507326</ele>
        <time>2017-06-05T09:32:50.000Z</time>
      </trkpt>
      <trkpt lat="45.031230" lon="5.019723">
        <ele>191.536684</ele>
        <time>2017-06-05T09:32:53.000Z</time>
      </trkpt>
      <trkpt lat="45.031284" lon="5.019574">
        <ele>191.567409</ele>
        <time>2017-06-05T09:32:56.000Z</time>
      </trkpt>
      <trkpt lat="45.031350" lon="5.019408">
        <ele>191.602357</ele>
        <time>2017-06-05T09:32:59.000Z</time>
      </trkpt>
      <trkpt lat="45.031410" lon="5.019241">
        <ele>191.636732</ele>
        <time>2017-06-05T09:33:02.000Z</time>
      </trkpt>
      <trkpt lat="45.031460" lon="5.019077">
        <ele>191.669505</ele>
        <time>2017-06-05T09:33:05.000Z</time>
      </trkpt>
      <trkpt lat="45.031520" lon="5.018913">
        <ele>191.703390</ele>
        <time>2017-06-05T09:33:08.000Z</time>
      </trkpt>
      <trkpt lat="45.031593" lon="5.018815">
        <ele>191.729516</ele>
        <time>2017-06-05T09:33:10.000Z</time>
      </trkpt>
      <trkpt lat="45.031662" lon="5.018715">
        <ele>191.755160</ele>
        <time>2017-06-05T09:33:12.000Z</time>
      </trkpt>
      <trkpt lat="45.031723" lon="5.018604">
        <ele>191.780960</ele>
        <time>2017-06-05T09:33:14.000Z</time>
      </trkpt>
      <trkpt lat="45.031776" lon="5.018487">
        <ele>191.778976</ele>
        <time>2017-06-05T09:33:16.000Z</time>
      </trkpt>
      <trkpt lat="45.031830" lon="5.018363">
        <ele>191.739921</ele>
        <time>2017-06-05T09:33:18.000Z</time>
      </trkpt>
      <trkpt lat="45.031883" lon="5.018246">
        <ele>191.702658</ele>
        <time>2017-06-05T09:33:20.000Z</time>
      </trkpt>
      <trkpt lat="45.031944" lon="5.018124">
        <ele>191.662586</ele>
        <time>2017-06-05T09:33:22.000Z</time>
      </trkpt>
      <trkpt lat="45.032010" lon="5.018010">
        <ele>191.623071</ele>
        <time>2017-06-05T09:33:24.000Z</time>
      </trkpt>
      <trkpt lat="45.032080" lon="5.017897">
        <ele>191.582779</ele>
        <time>2017-06-05T09:33:26.000Z</time>
      </trkpt>
      <trkpt lat="45.032146" lon="5.017776">
        <ele>191.541795</ele>
        <time>2017-06-05T09:33:28.000Z</time>
      </trkpt>
      <trkpt lat="45.032207" lon="5.017647">
        <ele>191.500177</ele>
        <time>2017-06-05T09:33:30.000Z</time>
      </trkpt>
      <trkpt lat="45.032265" lon="5.017508">
        <ele>191.456895</ele>
        <time>2017-06-05T09:33:32.000Z</time>
      </trkpt>
      <trkpt lat="45.032322" lon="5.017373">
        <ele>191.414728</ele>
        <time>2017-06-05T09:33:34.000Z</time>
      </trkpt>
      <trkpt lat="45.032387" lon="5.017246">
        <ele>191.372683</ele>
        <time>2017-06-05T09:33:36.000Z</time>
      </trkpt>
      <trkpt lat="45.032448" lon="5.017128">
        <ele>191.333482</ele>
        <time>2017-06-05T09:33:38.000Z</time>
      </trkpt>
      <trkpt lat="45.032510" lon="5.017017">
        <ele>191.295545</ele>
        <time>2017-06-05T09:33:40.000Z</time>
      </trkpt>
      <trkpt lat="45.032566" lon="5.016907">
        <ele>191.259194</ele>
        <time>2017-06-05T09:33:42.000Z</time>
      </trkpt>
      <trkpt lat="45.032620" lon="5.016797">
        <ele>191.223282</ele>
        <time>2017-06-05T09:33:44.000Z</time>
      </trkpt>
      <trkpt lat="45.032677" lon="5.016697">
        <ele>191.188834</ele>
        <time>2017-06-05T09:33:46.000Z</time>
      </trkpt>
      <trkpt lat="45.032740" lon="5.016604">
        <ele>191.154292</ele>
        <time>2017-06-05T09:33:48.000Z</time>
      </trkpt>
      <trkpt lat="45.032814" lon="5.016518">
        <ele>191.117960</ele>
        <time>2017-06-05T09:33:50.000Z</time>
      </trkpt>
      <trkpt lat="45.032875" lon="5.016388">
        <ele>191.288641</ele>
        <time>2017-06-05T09:33:52.000Z</time>
      </trkpt>
      <trkpt lat="45.032930" lon="5.016238">
        <ele>191.505384</ele>
        <time>2017-06-05T09:33:54.000Z</time>
      </trkpt>
      <trkpt lat="45.032980" lon="5.016086">
        <ele>191.720423</ele>
        <time>2017-06-05T09:33:56.000Z</time>
      </trkpt>
      <trkpt lat="45.033035" lon="5.015926">
        <ele>191.948627</ele>
        <time>2017-06-05T09:33:58.000Z</time>
      </trkpt>
      <trkpt lat="45.033085" lon="5.015769">
        <ele>192.169496</ele>
        <time>2017-06-05T09:34:00.000Z</time>
      </trkpt>
      <trkpt lat="45.033140" lon="5.015613">
        <ele>192.393098</ele>
        <time>2017-06-05T09:34:02.000Z</time>
      </trkpt>
      <trkpt lat="45.033190" lon="5.015470">
        <ele>192.597729</ele>
        <time>2017-06-05T09:34:04.000Z</time>
      </trkpt>
      <trkpt lat="45.033234" lon="5.015342">
        <ele>192.780292</ele>
        <time>2017-06-05T09:34:06.000Z</time>
      </trkpt>
      <trkpt lat="45.033283" lon="5.015233">
        <ele>192.945982</ele>
        <time>2017-06-05T09:34:08.000Z</time>
      </trkpt>
      <trkpt lat="45.033413" lon="5.015192">
        <ele>193.187709</ele>
        <time>2017-06-05T09:34:11.000Z</time>
      </trkpt>
      <trkpt lat="45.033527" lon="5.015241">
        <ele>193.403943</ele>
        <time>2017-06-05T09:34:14.000Z</time>
      </trkpt>
      <trkpt lat="45.033634" lon="5.015235">
        <ele>193.598290</ele>
        <time>2017-06-05T09:34:17.000Z</time>
      </trkpt>
      <trkpt lat="45.033710" lon="5.015135">
        <ele>193.786639</ele>
        <time>2017-06-05T09:34:20.000Z</time>
      </trkpt>
      <trkpt lat="45.033760" lon="5.015012">
        <ele>193.968634</ele>
        <time>2017-06-05T09:34:23.000Z</time>
      </trkpt>
      <trkpt lat="45.033813" lon="5.014890">
        <ele>194.152309</ele>
        <time>2017-06-05T09:34:27.000Z</time>
      </trkpt>
      <trkpt lat="45.033867" lon="5.014773">
        <ele>194.331539</ele>
        <time>2017-06-05T09:34:30.000Z</time>
      </trkpt>
      <trkpt lat="45.033928" lon="5.014623">
        <ele>194.519675</ele>
        <time>2017-06-05T09:34:33.000Z</time>
      </trkpt>
      <trkpt lat="45.033990" lon="5.014466">
        <ele>194.706075</ele>
        <time>2017-06-05T09:34:36.000Z</time>
      </trkpt>
      <trkpt lat="45.034046" lon="5.014319">
        <ele>194.879156</ele>
        <time>2017-06-05T09:34:39.000Z</time>
      </trkpt>
      <trkpt lat="45.034100" lon="5.014193">
        <ele>195.031882</ele>
        <time>2017-06-05T09:34:42.000Z</time>
      </trkpt>
      <trkpt lat="45.034160" lon="5.014072">
        <ele>195.185082</ele>
        <time>2017-06-05T09:34:45.000Z</time>
      </trkpt>
      <trkpt lat="45.034214" lon="5.013948">
        <ele>195.336040</ele>
        <time>2017-06-05T09:34:47.000Z</time>
      </trkpt>
      <trkpt lat="45.034270" lon="5.013795">
        <ele>195.514618</ele>
        <time>2017-06-05T09:34:49.000Z</time>
      </trkpt>
      <trkpt lat="45.034290" lon="5.013651">
        <ele>195.666717</ele>
        <time>2017-06-05T09:34:51.000Z</time>
      </trkpt>
      <trkpt lat="45.034294" lon="5.013483">
        <ele>195.840933</ele>
        <time>2017-06-05T09:34:54.000Z</time>
      </trkpt>
      <trkpt lat="45.034306" lon="5.013353">
        <ele>195.976812</ele>
        <time>2017-06-05T09:34:57.000Z</time>
      </trkpt>
      <trkpt lat="45.034310" lon="5.013216">
        <ele>196.118922</ele>
        <time>2017-06-05T09:35:00.000Z</time>
      </trkpt>
      <trkpt lat="45.034320" lon="5.013054">
        <ele>196.287460</ele>
        <time>2017-06-05T09:35:03.000Z</time>
      </trkpt>
      <trkpt lat="45.034340" lon="5.012909">
        <ele>196.440576</ele>
        <time>2017-06-05T09:35:05.000Z</time>
      </trkpt>
      <trkpt lat="45.034370" lon="5.012745">
        <ele>196.616150</ele>
        <time>2017-06-05T09:35:07.000Z</time>
      </trkpt>
      <trkpt lat="45.034424" lon="5.012574">
        <ele>196.810267</ele>
        <time>2017-06-05T09:35:09.000Z</time>
      </trkpt>
      <trkpt lat="45.034480" lon="5.012457">
        <ele>196.956723</ele>
        <time>2017-06-05T09:35:11.000Z</time>
      </trkpt>
      <trkpt lat="45.034527" lon="5.012333">
        <ele>196.981986</ele>
        <time>2017-06-05T09:35:14.000Z</time>
      </trkpt>
      <trkpt lat="45.034542" lon="5.012178">
        <ele>196.920579</ele>
        <time>2017-06-05T09:35:17.000Z</time>
      </trkpt>
      <trkpt lat="45.034584" lon="5.011969">
        <ele>196.835292</ele>
        <time>2017-06-05T09:35:20.000Z</time>
      </trkpt>
      <trkpt lat="45.034622" lon="5.011831">
        <ele>196.777159</ele>
        <time>2017-06-05T09:35:22.000Z</time>
      </trkpt>
      <trkpt lat="45.034664" lon="5.011657">
        <ele>196.704988</ele>
        <time>2017-06-05T09:35:25.000Z</time>
      </trkpt>
      <trkpt lat="45.034714" lon="5.011500">
        <ele>196.637395</ele>
        <time>2017-06-05T09:35:28.000Z</time>
      </trkpt>
      <trkpt lat="45.034756" lon="5.011335">
        <ele>196.568557</ele>
        <time>2017-06-05T09:35:31.000Z</time>
      </trkpt>
      <trkpt lat="45.034794" lon="5.011166">
        <ele>196.498946</ele>
        <time>2017-06-05T09:35:34.000Z</time>
      </trkpt>
      <trkpt lat="45.034836" lon="5.011020">
        <ele>196.437074</ele>
        <time>2017-06-05T09:35:37.000Z</time>
      </trkpt>
      <trkpt lat="45.034855" lon="5.010895">
        <ele>196.386888</ele>
        <time>2017-06-05T09:35:39.000Z</time>
      </trkpt>
      <trkpt lat="45.034860" lon="5.010740">
        <ele>196.325986</ele>
        <time>2017-06-05T09:35:41.000Z</time>
      </trkpt>
      <trkpt lat="45.034866" lon="5.010609">
        <ele>196.274459</ele>
        <time>2017-06-05T09:35:43.000Z</time>
      </trkpt>
      <trkpt lat="45.034870" lon="5.010460">
        <ele>196.215933</ele>
        <time>2017-06-05T09:35:45.000Z</time>
      </trkpt>
      <trkpt lat="45.034890" lon="5.010279">
        <ele>196.144026</ele>
        <time>2017-06-05T09:35:48.000Z</time>
      </trkpt>
      <trkpt lat="45.034885" lon="5.010096">
        <ele>196.072143</ele>
        <time>2017-06-05T09:35:51.000Z</time>
      </trkpt>
      <trkpt lat="45.034863" lon="5.009920">
        <ele>196.003516</ele>
        <time>2017-06-05T09:35:53.000Z</time>
      </trkpt>
      <trkpt lat="45.034798" lon="5.009697">
        <ele>195.919089</ele>
        <time>2017-06-05T09:35:55.000Z</time>
      </trkpt>
      <trkpt lat="45.034770" lon="5.009574">
        <ele>195.873861</ele>
        <time>2017-06-05T09:35:56.000Z</time>
      </trkpt>
      <trkpt lat="45.034748" lon="5.009337">
        <ele>195.790200</ele>
        <time>2017-06-05T09:35:58.000Z</time>
      </trkpt>
      <trkpt lat="45.034782" lon="5.009134">
        <ele>195.717182</ele>
        <time>2017-06-05T09:36:00.000Z</time>
      </trkpt>
      <trkpt lat="45.034863" lon="5.008986">
        <ele>195.651665</ele>
        <time>2017-06-05T09:36:02.000Z</time>
      </trkpt>
      <trkpt lat="45.034900" lon="5.008836">
        <ele>195.596060</ele>
        <time>2017-06-05T09:36:06.000Z</time>
      </trkpt>
      <trkpt lat="45.034943" lon="5.008642">
        <ele>195.524900</ele>
        <time>2017-06-05T09:36:08.000Z</time>
      </trkpt>
      <trkpt lat="45.034970" lon="5.008470">
        <ele>195.463234</ele>
        <time>2017-06-05T09:36:10.000Z</time>
      </trkpt>
      <trkpt lat="45.034960" lon="5.008292">
        <ele>195.400738</ele>
        <time>2017-06-05T09:36:12.000Z</time>
      </trkpt>
      <trkpt lat="45.034950" lon="5.008106">
        <ele>195.335451</ele>
        <time>2017-06-05T09:36:14.000Z</time>
      </trkpt>
      <trkpt lat="45.034943" lon="5.007928">
        <ele>195.273056</ele>
        <time>2017-06-05T09:36:16.000Z</time>
      </trkpt>
      <trkpt lat="45.034943" lon="5.007743">
        <ele>195.208307</ele>
        <time>2017-06-05T09:36:18.000Z</time>
      </trkpt>
      <trkpt lat="45.034946" lon="5.007573">
        <ele>195.148790</ele>
        <time>2017-06-05T09:36:20.000Z</time>
      </trkpt>
      <trkpt lat="45.034943" lon="5.007413">
        <ele>195.428178</ele>
        <time>2017-06-05T09:36:22.000Z</time>
      </trkpt>
      <trkpt lat="45.034940" lon="5.007264">
        <ele>195.914336</ele>
        <time>2017-06-05T09:36:24.000Z</time>
      </trkpt>
      <trkpt lat="45.034935" lon="5.007102">
        <ele>196.443200</ele>
        <time>2017-06-05T09:36:26.000Z</time>
      </trkpt>
      <trkpt lat="45.034916" lon="5.006927">
        <ele>197.020657</ele>
        <time>2017-06-05T09:36:28.000Z</time>
      </trkpt>
      <trkpt lat="45.034912" lon="5.006752">
        <ele>197.591715</ele>
        <time>2017-06-05T09:36:30.000Z</time>
      </trkpt>
      <trkpt lat="45.034916" lon="5.006620">
        <ele>198.022626</ele>
        <time>2017-06-05T09:36:32.000Z</time>
      </trkpt>
      <trkpt lat="45.034930" lon="5.006485">
        <ele>198.467642</ele>
        <time>2017-06-05T09:36:35.000Z</time>
      </trkpt>
      <trkpt lat="45.034958" lon="5.006346">
        <ele>198.939047</ele>
        <time>2017-06-05T09:36:39.000Z</time>
      </trkpt>
      <trkpt lat="45.034966" lon="5.006188">
        <ele>199.455682</ele>
        <time>2017-06-05T09:36:43.000Z</time>
      </trkpt>
      <trkpt lat="45.034950" lon="5.006049">
        <ele>199.915003</ele>
        <time>2017-06-05T09:36:47.000Z</time>
      </trkpt>
      <trkpt lat="45.034950" lon="5.005916">
        <ele>200.348780</ele>
        <time>2017-06-05T09:36:51.000Z</time>
      </trkpt>
      <trkpt lat="45.034935" lon="5.005776">
        <ele>200.810606</ele>
        <time>2017-06-05T09:36:55.000Z</time>
      </trkpt>
      <trkpt lat="45.034920" lon="5.005623">
        <ele>201.314392</ele>
        <time>2017-06-05T09:36:59.000Z</time>
      </trkpt>
      <trkpt lat="45.034912" lon="5.005477">
        <ele>201.791998</ele>
        <time>2017-06-05T09:37:03.000Z</time>
      </trkpt>
      <trkpt lat="45.034916" lon="5.005333">
        <ele>202.262015</ele>
        <time>2017-06-05T09:37:07.000Z</time>
      </trkpt>
      <trkpt lat="45.034912" lon="5.005206">
        <ele>202.676634</ele>
        <time>2017-06-05T09:37:10.000Z</time>
      </trkpt>
      <trkpt lat="45.034900" lon="5.005065">
        <ele>203.139827</ele>
        <time>2017-06-05T09:37:13.000Z</time>
      </trkpt>
      <trkpt lat="45.034885" lon="5.004931">
        <ele>203.435225</ele>
        <time>2017-06-05T09:37:16.000Z</time>
      </trkpt>
      <trkpt lat="45.034860" lon="5.004792">
        <ele>203.461528</ele>
        <time>2017-06-05T09:37:19.000Z</time>
      </trkpt>
      <trkpt lat="45.034832" lon="5.004660">
        <ele>203.486801</ele>
        <time>2017-06-05T09:37:22.000Z</time>
      </trkpt>
      <trkpt lat="45.034805" lon="5.004520">
        <ele>203.513414</ele>
        <time>2017-06-05T09:37:25.000Z</time>
      </trkpt>
      <trkpt lat="45.034770" lon="5.004373">
        <ele>203.541860</ele>
        <time>2017-06-05T09:37:28.000Z</time>
      </trkpt>
      <trkpt lat="45.034737" lon="5.004233">
        <ele>203.568924</ele>
        <time>2017-06-05T09:37:31.000Z</time>
      </trkpt>
      <trkpt lat="45.034710" lon="5.004096">
        <ele>203.595006</ele>
        <time>2017-06-05T09:37:34.000Z</time>
      </trkpt>
      <trkpt lat="45.034683" lon="5.003971">
        <ele>203.618976</ele>
        <time>2017-06-05T09:37:37.000Z</time>
      </trkpt>
      <trkpt lat="45.034664" lon="5.003803">
        <ele>203.650177</ele>
        <time>2017-06-05T09:37:41.000Z</time>
      </trkpt>
      <trkpt lat="45.034660" lon="5.003671">
        <ele>203.674406</ele>
        <time>2017-06-05T09:37:44.000Z</time>
      </trkpt>
      <trkpt lat="45.034645" lon="5.003524">
        <ele>203.701643</ele>
        <time>2017-06-05T09:37:47.000Z</time>
      </trkpt>
      <trkpt lat="45.034600" lon="5.003385">
        <ele>203.729680</ele>
        <time>2017-06-05T09:37:50.000Z</time>
      </trkpt>
      <trkpt lat="45.034546" lon="5.003227">
        <ele>203.761866</ele>
        <time>2017-06-05T09:37:53.000Z</time>
      </trkpt>
      <trkpt lat="45.034504" lon="5.003073">
        <ele>203.792137</ele>
        <time>2017-06-05T09:37:56.000Z</time>
      </trkpt>
      <trkpt lat="45.034473" lon="5.002925">
        <ele>203.820445</ele>
        <time>2017-06-05T09:37:59.000Z</time>
      </trkpt>
      <trkpt lat="45.034447" lon="5.002764">
        <ele>203.850731</ele>
        <time>2017-06-05T09:38:02.000Z</time>
      </trkpt>
      <trkpt lat="45.034424" lon="5.002611">
        <ele>203.879416</ele>
        <time>2017-06-05T09:38:05.000Z</time>
      </trkpt>
      <trkpt lat="45.034380" lon="5.002443">
        <ele>203.755403</ele>
        <time>2017-06-05T09:38:08.000Z</time>
      </trkpt>
      <trkpt lat="45.034344" lon="5.002299">
        <ele>203.552901</ele>
        <time>2017-06-05T09:38:11.000Z</time>
      </trkpt>
      <trkpt lat="45.034290" lon="5.002147">
        <ele>203.327356</ele>
        <time>2017-06-05T09:38:14.000Z</time>
      </trkpt>
      <trkpt lat="45.034256" lon="5.001988">
        <ele>203.107122</ele>
        <time>2017-06-05T09:38:17.000Z</time>
      </trkpt>
      <trkpt lat="45.034230" lon="5.001837">
        <ele>202.901076</ele>
        <time>2017-06-05T09:38:20.000Z</time>
      </trkpt>
      <trkpt lat="45.034210" lon="5.001669">
        <ele>202.675212</ele>
        <time>2017-06-05T09:38:23.000Z</time>
      </trkpt>
      <trkpt lat="45.034187" lon="5.001519">
        <ele>202.471721</ele>
        <time>2017-06-05T09:38:25.000Z</time>
      </trkpt>
      <trkpt lat="45.034145" lon="5.001352">
        <ele>202.236717</ele>
        <time>2017-06-05T09:38:27.000Z</time>
      </trkpt>
      <trkpt lat="45.034090" lon="5.001179">
        <ele>201.985221</ele>
        <time>2017-06-05T09:38:29.000Z</time>
      </trkpt>
      <trkpt lat="45.034030" lon="5.001012">
        <ele>201.736849</ele>
        <time>2017-06-05T09:38:31.000Z</time>
      </trkpt>
      <trkpt lat="45.033970" lon="5.000848">
        <ele>201.492015</ele>
        <time>2017-06-05T09:38:33.000Z</time>
      </trkpt>
      <trkpt lat="45.033905" lon="5.000697">
        <ele>201.257611</ele>
        <time>2017-06-05T09:38:35.000Z</time>
      </trkpt>
      <trkpt lat="45.033844" lon="5.000543">
        <ele>201.023559</ele>
        <time>2017-06-05T09:38:37.000Z</time>
      </trkpt>
      <trkpt lat="45.033780" lon="5.000382">
        <ele>200.778660</ele>
        <time>2017-06-05T09:38:39.000Z</time>
      </trkpt>
      <trkpt lat="45.033726" lon="5.000228">
        <ele>200.550740</ele>
        <time>2017-06-05T09:38:41.000Z</time>
      </trkpt>
      <trkpt lat="45.033672" lon="5.000070">
        <ele>200.526159</ele>
        <time>2017-06-05T09:38:43.000Z</time>
      </trkpt>
      <trkpt lat="45.033627" lon="4.999908">
        <ele>200.534475</ele>
        <time>2017-06-05T09:38:45.000Z</time>
      </trkpt>
      <trkpt lat="45.033596" lon="4.999750">
        <ele>200.542310</ele>
        <time>2017-06-05T09:38:47.000Z</time>
      </trkpt>
      <trkpt lat="45.033580" lon="4.999600">
        <ele>200.549558</ele>
        <time>2017-06-05T09:38:49.000Z</time>
      </trkpt>
      <trkpt lat="45.033566" lon="4.999445">
        <ele>200.557024</ele>
        <time>2017-06-05T09:38:51.000Z</time>
      </trkpt>
      <trkpt lat="45.033554" lon="4.999291">
        <ele>200.564426</ele>
        <time>2017-06-05T09:38:53.000Z</time>
      </trkpt>
      <trkpt lat="45.033558" lon="4.999131">
        <ele>200.572076</ele>
        <time>2017-06-05T09:38:55.000Z</time>
      </trkpt>
      <trkpt lat="45.033558" lon="4.998971">
        <ele>200.579720</ele>
        <time>2017-06-05T09:38:57.000Z</time>
      </trkpt>
      <trkpt lat="45.033540" lon="4.998812">
        <ele>200.587414</ele>
        <time>2017-06-05T09:38:59.000Z</time>
      </trkpt>
      <trkpt lat="45.033500" lon="4.998661">
        <ele>200.595119</ele>
        <time>2017-06-05T09:39:01.000Z</time>
      </trkpt>
      <trkpt lat="45.033460" lon="4.998511">
        <ele>200.602779</ele>
        <time>2017-06-05T09:39:03.000Z</time>
      </trkpt>
      <trkpt lat="45.033424" lon="4.998369">
        <ele>200.609987</ele>
        <time>2017-06-05T09:39:05.000Z</time>
      </trkpt>
      <trkpt lat="45.033398" lon="4.998225">
        <ele>200.617088</ele>
        <time>2017-06-05T09:39:07.000Z</time>
      </trkpt>
      <trkpt lat="45.033375" lon="4.998059">
        <ele>200.625170</ele>
        <time>2017-06-05T09:39:09.000Z</time>
      </trkpt>
      <trkpt lat="45.033363" lon="4.997897">
        <ele>200.632953</ele>
        <time>2017-06-05T09:39:11.000Z</time>
      </trkpt>
      <trkpt lat="45.033356" lon="4.997731">
        <ele>200.639947</ele>
        <time>2017-06-05T09:39:13.000Z</time>
      </trkpt>
      <trkpt lat="45.033350" lon="4.997574">
        <ele>200.628357</ele>
        <time>2017-06-05T09:39:15.000Z</time>
      </trkpt>
      <trkpt lat="45.033348" lon="4.997426">
        <ele>200.617444</ele>
        <time>2017-06-05T09:39:17.000Z</time>
      </trkpt>
      <trkpt lat="45.033356" lon="4.997287">
        <ele>200.607164</ele>
        <time>2017-06-05T09:39:19.000Z</time>
      </trkpt>
      <trkpt lat="45.033370" lon="4.997100">
        <ele>200.593301</ele>
        <time>2017-06-05T09:39:22.000Z</time>
      </trkpt>
      <trkpt lat="45.033386" lon="4.996970">
        <ele>200.583574</ele>
        <time>2017-06-05T09:39:24.000Z</time>
      </trkpt>
      <trkpt lat="45.033405" lon="4.996836">
        <ele>200.573499</ele>
        <time>2017-06-05T09:39:26.000Z</time>
      </trkpt>
      <trkpt lat="45.033436" lon="4.996698">
        <ele>200.562824</ele>
        <time>2017-06-05T09:39:28.000Z</time>
      </trkpt>
      <trkpt lat="45.033463" lon="4.996559">
        <ele>200.552197</ele>
        <time>2017-06-05T09:39:30.000Z</time>
      </trkpt>
      <trkpt lat="45.033490" lon="4.996419">
        <ele>200.541499</ele>
        <time>2017-06-05T09:39:32.000Z</time>
      </trkpt>
      <trkpt lat="45.033520" lon="4.996276">
        <ele>200.530503</ele>
        <time>2017-06-05T09:39:34.000Z</time>
      </trkpt>
      <trkpt lat="45.033550" lon="4.996144">
        <ele>200.520281</ele>
        <time>2017-06-05T09:39:36.000Z</time>
      </trkpt>
      <trkpt lat="45.033577" lon="4.996011">
        <ele>200.510081</ele>
        <time>2017-06-05T09:39:38.000Z</time>
      </trkpt>
      <trkpt lat="45.033604" lon="4.995875">
        <ele>200.499667</ele>
        <time>2017-06-05T09:39:40.000Z</time>
      </trkpt>
      <trkpt lat="45.033630" lon="4.995738">
        <ele>200.489210</ele>
        <time>2017-06-05T09:39:42.000Z</time>
      </trkpt>
      <trkpt lat="45.033657" lon="4.995591">
        <ele>200.478013</ele>
        <time>2017-06-05T09:39:44.000Z</time>
      </trkpt>
      <trkpt lat="45.033688" lon="4.995444">
        <ele>200.466705</ele>
        <time>2017-06-05T09:39:46.000Z</time>
      </trkpt>
      <trkpt lat="45.033722" lon="4.995291">
        <ele>200.454881</ele>
        <time>2017-06-05T09:39:48.000Z</time>
      </trkpt>
      <trkpt lat="45.033752" lon="4.995144">
        <ele>200.510684</ele>
        <time>2017-06-05T09:39:50.000Z</time>
      </trkpt>
      <trkpt lat="45.033787" lon="4.995004">
        <ele>200.578706</ele>
        <time>2017-06-05T09:39:52.000Z</time>
      </trkpt>
      <trkpt lat="45.033820" lon="4.994855">
        <ele>200.650229</ele>
        <time>2017-06-05T09:39:54.000Z</time>
      </trkpt>
      <trkpt lat="45.033860" lon="4.994709">
        <ele>200.721954</ele>
        <time>2017-06-05T09:39:56.000Z</time>
      </trkpt>
      <trkpt lat="45.033890" lon="4.994579">
        <ele>200.784595</ele>
        <time>2017-06-05T09:39:58.000Z</time>
      </trkpt>
      <trkpt lat="45.033913" lon="4.994437">
        <ele>200.851325</ele>
        <time>2017-06-05T09:40:00.000Z</time>
      </trkpt>
      <trkpt lat="45.033943" lon="4.994300">
        <ele>200.917021</ele>
        <time>2017-06-05T09:40:02.000Z</time>
      </trkpt>
      <trkpt lat="45.033974" lon="4.994171">
        <ele>200.979433</ele>
        <time>2017-06-05T09:40:04.000Z</time>
      </trkpt>
      <trkpt lat="45.034008" lon="4.994045">
        <ele>201.041211</ele>
        <time>2017-06-05T09:40:06.000Z</time>
      </trkpt>
      <trkpt lat="45.034060" lon="4.993869">
        <ele>201.128590</ele>
        <time>2017-06-05T09:40:09.000Z</time>
      </trkpt>
      <trkpt lat="45.034120" lon="4.993710">
        <ele>201.211153</ele>
        <time>2017-06-05T09:40:12.000Z</time>
      </trkpt>
      <trkpt lat="45.034203" lon="4.993507">
        <ele>201.318578</ele>
        <time>2017-06-05T09:42:05.000Z</time>
      </trkpt>
      <trkpt lat="45.034270" lon="4.993371">
        <ele>201.394516</ele>
        <time>2017-06-05T09:42:09.000Z</time>
      </trkpt>
      <trkpt lat="45.034320" lon="4.993261">
        <ele>201.454424</ele>
        <time>2017-06-05T09:42:12.000Z</time>
      </trkpt>
      <trkpt lat="45.034374" lon="4.993145">
        <ele>201.518050</ele>
        <time>2017-06-05T09:42:15.000Z</time>
      </trkpt>
      <trkpt lat="45.034430" lon="4.993015">
        <ele>201.587786</ele>
        <time>2017-06-05T09:42:18.000Z</time>
      </trkpt>
      <trkpt lat="45.034490" lon="4.992878">
        <ele>201.504654</ele>
        <time>2017-06-05T09:42:21.000Z</time>
      </trkpt>
      <trkpt lat="45.034546" lon="4.992753">
        <ele>201.324376</ele>
        <time>2017-06-05T09:42:24.000Z</time>
      </trkpt>
      <trkpt lat="45.034600" lon="4.992628">
        <ele>201.145920</ele>
        <time>2017-06-05T09:42:27.000Z</time>
      </trkpt>
      <trkpt lat="45.034653" lon="4.992500">
        <ele>200.965214</ele>
        <time>2017-06-05T09:42:30.000Z</time>
      </trkpt>
      <trkpt lat="45.034700" lon="4.992378">
        <ele>200.795961</ele>
        <time>2017-06-05T09:42:33.000Z</time>
      </trkpt>
      <trkpt lat="45.034760" lon="4.992245">
        <ele>200.603761</ele>
        <time>2017-06-05T09:42:36.000Z</time>
      </trkpt>
      <trkpt lat="45.034810" lon="4.992104">
        <ele>200.411602</ele>
        <time>2017-06-05T09:42:39.000Z</time>
      </trkpt>
      <trkpt lat="45.034850" lon="4.991945">
        <ele>200.206022</ele>
        <time>2017-06-05T09:42:42.000Z</time>
      </trkpt>
      <trkpt lat="45.034904" lon="4.991777">
        <ele>199.981213</ele>
        <time>2017-06-05T09:42:45.000Z</time>
      </trkpt>
      <trkpt lat="45.034940" lon="4.991656">
        <ele>199.821297</ele>
        <time>2017-06-05T09:42:47.000Z</time>
      </trkpt>
      <trkpt lat="45.034977" lon="4.991525">
        <ele>199.649457</ele>
        <time>2017-06-05T09:42:49.000Z</time>
      </trkpt>
      <trkpt lat="45.035020" lon="4.991392">
        <ele>199.471304</ele>
        <time>2017-06-05T09:42:51.000Z</time>
      </trkpt>
      <trkpt lat="45.035057" lon="4.991251">
        <ele>199.288097</ele>
        <time>2017-06-05T09:42:53.000Z</time>
      </trkpt>
      <trkpt lat="45.035095" lon="4.991119">
        <ele>199.114483</ele>
        <time>2017-06-05T09:42:55.000Z</time>
      </trkpt>
      <trkpt lat="45.035130" lon="4.990991">
        <ele>198.947306</ele>
        <time>2017-06-05T09:42:57.000Z</time>
      </trkpt>
      <trkpt lat="45.035168" lon="4.990876">
        <ele>198.792671</ele>
        <time>2017-06-05T09:42:59.000Z</time>
      </trkpt>
      <trkpt lat="45.035206" lon="4.990759">
        <ele>198.635827</ele>
        <time>2017-06-05T09:43:01.000Z</time>
      </trkpt>
      <trkpt lat="45.035244" lon="4.990636">
        <ele>198.433016</ele>
        <time>2017-06-05T09:43:03.000Z</time>
      </trkpt>
      <trkpt lat="45.035280" lon="4.990502">
        <ele>198.109718</ele>
        <time>2017-06-05T09:43:05.000Z</time>
      </trkpt>
      <trkpt lat="45.035320" lon="4.990354">
        <ele>197.752372</ele>
        <time>2017-06-05T09:43:07.000Z</time>
      </trkpt>
      <trkpt lat="45.035366" lon="4.990195">
        <ele>197.364910</ele>
        <time>2017-06-05T09:43:09.000Z</time>
      </trkpt>
      <trkpt lat="45.035416" lon="4.990026">
        <ele>196.951728</ele>
        <time>2017-06-05T09:43:11.000Z</time>
      </trkpt>
      <trkpt lat="45.035470" lon="4.989842">
        <ele>196.502412</ele>
        <time>2017-06-05T09:43:13.000Z</time>
      </trkpt>
      <trkpt lat="45.035522" lon="4.989641">
        <ele>196.019698</ele>
        <time>2017-06-05T09:43:15.000Z</time>
      </trkpt>
      <trkpt lat="45.035576" lon="4.989425">
        <ele>195.502994</ele>
        <time>2017-06-05T09:43:17.000Z</time>
      </trkpt>
      <trkpt lat="45.035630" lon="4.989208">
        <ele>194.984163</ele>
        <time>2017-06-05T09:43:19.000Z</time>
      </trkpt>
      <trkpt lat="45.035680" lon="4.988993">
        <ele>194.473719</ele>
        <time>2017-06-05T09:43:21.000Z</time>
      </trkpt>
      <trkpt lat="45.035730" lon="4.988781">
        <ele>193.969696</ele>
        <time>2017-06-05T09:43:23.000Z</time>
      </trkpt>
      <trkpt lat="45.035786" lon="4.988570">
        <ele>193.461401</ele>
        <time>2017-06-05T09:43:25.000Z</time>
      </trkpt>
      <trkpt lat="45.035843" lon="4.988372">
        <ele>192.979246</ele>
        <time>2017-06-05T09:43:27.000Z</time>
      </trkpt>
      <trkpt lat="45.035910" lon="4.988190">
        <ele>192.720172</ele>
        <time>2017-06-05T09:43:29.000Z</time>
      </trkpt>
      <trkpt lat="45.035984" lon="4.988022">
        <ele>192.620846</ele>
        <time>2017-06-05T09:43:31.000Z</time>
      </trkpt>
      <trkpt lat="45.036050" lon="4.987851">
        <ele>192.523086</ele>
        <time>2017-06-05T09:43:33.000Z</time>
      </trkpt>
      <trkpt lat="45.036118" lon="4.987689">
        <ele>192.428547</ele>
        <time>2017-06-05T09:43:35.000Z</time>
      </trkpt>
      <trkpt lat="45.036186" lon="4.987534">
        <ele>192.337010</ele>
        <time>2017-06-05T09:43:37.000Z</time>
      </trkpt>
      <trkpt lat="45.036247" lon="4.987384">
        <ele>192.250177</ele>
        <time>2017-06-05T09:43:39.000Z</time>
      </trkpt>
      <trkpt lat="45.036297" lon="4.987244">
        <ele>192.171473</ele>
        <time>2017-06-05T09:43:41.000Z</time>
      </trkpt>
      <trkpt lat="45.036343" lon="4.987113">
        <ele>192.098079</ele>
        <time>2017-06-05T09:43:43.000Z</time>
      </trkpt>
      <trkpt lat="45.036385" lon="4.986985">
        <ele>192.027271</ele>
        <time>2017-06-05T09:43:45.000Z</time>
      </trkpt>
      <trkpt lat="45.036430" lon="4.986872">
        <ele>191.962193</ele>
        <time>2017-06-05T09:43:47.000Z</time>
      </trkpt>
      <trkpt lat="45.036495" lon="4.986721">
        <ele>191.873481</ele>
        <time>2017-06-05T09:43:50.000Z</time>
      </trkpt>
      <trkpt lat="45.036560" lon="4.986557">
        <ele>191.779139</ele>
        <time>2017-06-05T09:43:53.000Z</time>
      </trkpt>
      <trkpt lat="45.036610" lon="4.986438">
        <ele>191.709676</ele>
        <time>2017-06-05T09:43:55.000Z</time>
      </trkpt>
      <trkpt lat="45.036660" lon="4.986326">
        <ele>191.643207</ele>
        <time>2017-06-05T09:43:57.000Z</time>
      </trkpt>
      <trkpt lat="45.036690" lon="4.986206">
        <ele>191.579343</ele>
        <time>2017-06-05T09:43:59.000Z</time>
      </trkpt>
      <trkpt lat="45.036740" lon="4.986095">
        <ele>191.513298</ele>
        <time>2017-06-05T09:44:01.000Z</time>
      </trkpt>
      <trkpt lat="45.036800" lon="4.985977">
        <ele>191.402454</ele>
        <time>2017-06-05T09:44:03.000Z</time>
      </trkpt>
      <trkpt lat="45.036835" lon="4.985849">
        <ele>191.290837</ele>
        <time>2017-06-05T09:44:05.000Z</time>
      </trkpt>
      <trkpt lat="45.036892" lon="4.985732">
        <ele>191.175267</ele>
        <time>2017-06-05T09:44:07.000Z</time>
      </trkpt>
      <trkpt lat="45.036945" lon="4.985618">
        <ele>191.064292</ele>
        <time>2017-06-05T09:44:09.000Z</time>
      </trkpt>
      <trkpt lat="45.037010" lon="4.985451">
        <ele>190.909242</ele>
        <time>2017-06-05T09:44:12.000Z</time>
      </trkpt>
      <trkpt lat="45.037060" lon="4.985340">
        <ele>190.802192</ele>
        <time>2017-06-05T09:44:14.000Z</time>
      </trkpt>
      <trkpt lat="45.037094" lon="4.985220">
        <ele>190.697051</ele>
        <time>2017-06-05T09:44:16.000Z</time>
      </trkpt>
      <trkpt lat="45.037110" lon="4.985094">
        <ele>190.592942</ele>
        <time>2017-06-05T09:44:18.000Z</time>
      </trkpt>
      <trkpt lat="45.037130" lon="4.984969">
        <ele>190.488714</ele>
        <time>2017-06-05T09:44:20.000Z</time>
      </trkpt>
      <trkpt lat="45.037167" lon="4.984796">
        <ele>190.341721</ele>
        <time>2017-06-05T09:44:23.000Z</time>
      </trkpt>
      <trkpt lat="45.037186" lon="4.984625">
        <ele>190.200948</ele>
        <time>2017-06-05T09:44:26.000Z</time>
      </trkpt>
      <trkpt lat="45.037200" lon="4.984463">
        <ele>190.068222</ele>
        <time>2017-06-05T09:44:29.000Z</time>
      </trkpt>
      <trkpt lat="45.037228" lon="4.984316">
        <ele>189.944409</ele>
        <time>2017-06-05T09:44:32.000Z</time>
      </trkpt>
      <trkpt lat="45.037250" lon="4.984185">
        <ele>189.834908</ele>
        <time>2017-06-05T09:44:35.000Z</time>
      </trkpt>
      <trkpt lat="45.037266" lon="4.984022">
        <ele>189.701078</ele>
        <time>2017-06-05T09:44:38.000Z</time>
      </trkpt>
      <trkpt lat="45.037292" lon="4.983841">
        <ele>189.550871</ele>
        <time>2017-06-05T09:44:41.000Z</time>
      </trkpt>
      <trkpt lat="45.037315" lon="4.983717">
        <ele>189.446614</ele>
        <time>2017-06-05T09:44:43.000Z</time>
      </trkpt>
      <trkpt lat="45.037334" lon="4.983577">
        <ele>189.274737</ele>
        <time>2017-06-05T09:44:45.000Z</time>
      </trkpt>
      <trkpt lat="45.037365" lon="4.983457">
        <ele>189.113155</ele>
        <time>2017-06-05T09:44:47.000Z</time>
      </trkpt>
      <trkpt lat="45.037407" lon="4.983279">
        <ele>188.875829</ele>
        <time>2017-06-05T09:44:50.000Z</time>
      </trkpt>
      <trkpt lat="45.037445" lon="4.983117">
        <ele>188.659963</ele>
        <time>2017-06-05T09:44:53.000Z</time>
      </trkpt>
      <trkpt lat="45.037430" lon="4.982960">
        <ele>188.459606</ele>
        <time>2017-06-05T09:44:56.000Z</time>
      </trkpt>
      <trkpt lat="45.037342" lon="4.982878">
        <ele>188.271040</ele>
        <time>2017-06-05T09:44:59.000Z</time>
      </trkpt>
      <trkpt lat="45.037247" lon="4.982799">
        <ele>188.073841</ele>
        <time>2017-06-05T09:45:02.000Z</time>
      </trkpt>
      <trkpt lat="45.037136" lon="4.982711">
        <ele>187.846139</ele>
        <time>2017-06-05T09:45:05.000Z</time>
      </trkpt>
      <trkpt lat="45.037037" lon="4.982623">
        <ele>187.636910</ele>
        <time>2017-06-05T09:45:08.000Z</time>
      </trkpt>
      <trkpt lat="45.036930" lon="4.982525">
        <ele>187.408809</ele>
        <time>2017-06-05T09:45:11.000Z</time>
      </trkpt>
      <trkpt lat="45.036842" lon="4.982462">
        <ele>187.232312</ele>
        <time>2017-06-05T09:45:13.000Z</time>
      </trkpt>
      <trkpt lat="45.036740" lon="4.982365">
        <ele>187.012378</ele>
        <time>2017-06-05T09:45:16.000Z</time>
      </trkpt>
      <trkpt lat="45.036633" lon="4.982274">
        <ele>186.788963</ele>
        <time>2017-06-05T09:45:19.000Z</time>
      </trkpt>
      <trkpt lat="45.036530" lon="4.982187">
        <ele>186.574288</ele>
        <time>2017-06-05T09:45:22.000Z</time>
      </trkpt>
      <trkpt lat="45.036430" lon="4.982095">
        <ele>186.360826</ele>
        <time>2017-06-05T09:45:25.000Z</time>
      </trkpt>
      <trkpt lat="45.036320" lon="4.981987">
        <ele>186.302131</ele>
        <time>2017-06-05T09:45:28.000Z</time>
      </trkpt>
      <trkpt lat="45.036240" lon="4.981917">
        <ele>186.467404</ele>
        <time>2017-06-05T09:45:30.000Z</time>
      </trkpt>
      <trkpt lat="45.036120" lon="4.981829">
        <ele>186.704892</ele>
        <time>2017-06-05T09:45:33.000Z</time>
      </trkpt>
      <trkpt lat="45.036034" lon="4.981766">
        <ele>186.875053</ele>
        <time>2017-06-05T09:45:35.000Z</time>
      </trkpt>
      <trkpt lat="45.035930" lon="4.981737">
        <ele>187.061309</ele>
        <time>2017-06-05T09:45:37.000Z</time>
      </trkpt>
      <trkpt lat="45.035843" lon="4.981775">
        <ele>187.221297</ele>
        <time>2017-06-05T09:45:39.000Z</time>
      </trkpt>
      <trkpt lat="45.035755" lon="4.981865">
        <ele>187.412081</ele>
        <time>2017-06-05T09:45:41.000Z</time>
      </trkpt>
      <trkpt lat="45.035680" lon="4.981952">
        <ele>187.582486</ele>
        <time>2017-06-05T09:45:43.000Z</time>
      </trkpt>
      <trkpt lat="45.035610" lon="4.982052">
        <ele>187.757264</ele>
        <time>2017-06-05T09:45:45.000Z</time>
      </trkpt>
      <trkpt lat="45.035550" lon="4.982151">
        <ele>187.919211</ele>
        <time>2017-06-05T09:45:47.000Z</time>
      </trkpt>
      <trkpt lat="45.035492" lon="4.982259">
        <ele>188.087647</ele>
        <time>2017-06-05T09:45:49.000Z</time>
      </trkpt>
      <trkpt lat="45.035423" lon="4.982382">
        <ele>188.282650</ele>
        <time>2017-06-05T09:45:51.000Z</time>
      </trkpt>
      <trkpt lat="45.035347" lon="4.982483">
        <ele>188.465850</ele>
        <time>2017-06-05T09:45:53.000Z</time>
      </trkpt>
      <trkpt lat="45.035290" lon="4.982595">
        <ele>188.637234</ele>
        <time>2017-06-05T09:45:55.000Z</time>
      </trkpt>
      <trkpt lat="45.035233" lon="4.982696">
        <ele>188.797734</ele>
        <time>2017-06-05T09:45:57.000Z</time>
      </trkpt>
      <trkpt lat="45.035126" lon="4.982791">
        <ele>189.019690</ele>
        <time>2017-06-05T09:46:00.000Z</time>
      </trkpt>
      <trkpt lat="45.035027" lon="4.982751">
        <ele>189.200598</ele>
        <time>2017-06-05T09:46:03.000Z</time>
      </trkpt>
      <trkpt lat="45.035010" lon="4.982599">
        <ele>189.432998</ele>
        <time>2017-06-05T09:46:06.000Z</time>
      </trkpt>
      <trkpt lat="45.035004" lon="4.982440">
        <ele>190.067026</ele>
        <time>2017-06-05T09:46:09.000Z</time>
      </trkpt>
      <trkpt lat="45.034990" lon="4.982277">
        <ele>190.720855</ele>
        <time>2017-06-05T09:46:12.000Z</time>
      </trkpt>
      <trkpt lat="45.034996" lon="4.982112">
        <ele>191.378742</ele>
        <time>2017-06-05T09:46:15.000Z</time>
      </trkpt>
      <trkpt lat="45.035000" lon="4.981952">
        <ele>192.016248</ele>
        <time>2017-06-05T09:46:18.000Z</time>
      </trkpt>
      <trkpt lat="45.035010" lon="4.981810">
        <ele>192.584481</ele>
        <time>2017-06-05T09:46:21.000Z</time>
      </trkpt>
      <trkpt lat="45.035023" lon="4.981662">
        <ele>193.178341</ele>
        <time>2017-06-05T09:46:24.000Z</time>
      </trkpt>
      <trkpt lat="45.035057" lon="4.981505">
        <ele>193.832198</ele>
        <time>2017-06-05T09:46:27.000Z</time>
      </trkpt>
      <trkpt lat="45.035110" lon="4.981350">
        <ele>194.517850</ele>
        <time>2017-06-05T09:46:30.000Z</time>
      </trkpt>
      <trkpt lat="45.035156" lon="4.981200">
        <ele>195.168953</ele>
        <time>2017-06-05T09:46:33.000Z</time>
      </trkpt>
      <trkpt lat="45.035200" lon="4.981046">
        <ele>195.830390</ele>
        <time>2017-06-05T09:46:36.000Z</time>
      </trkpt>
      <trkpt lat="45.035233" lon="4.980900">
        <ele>196.440762</ele>
        <time>2017-06-05T09:46:39.000Z</time>
      </trkpt>
      <trkpt lat="45.035270" lon="4.980757">
        <ele>197.047142</ele>
        <time>2017-06-05T09:46:42.000Z</time>
      </trkpt>
      <trkpt lat="45.035300" lon="4.980610">
        <ele>197.656402</ele>
        <time>2017-06-05T09:46:45.000Z</time>
      </trkpt>
      <trkpt lat="45.035330" lon="4.980469">
        <ele>198.242745</ele>
        <time>2017-06-05T09:46:48.000Z</time>
      </trkpt>
      <trkpt lat="45.035362" lon="4.980333">
        <ele>198.813513</ele>
        <time>2017-06-05T09:46:51.000Z</time>
      </trkpt>
      <trkpt lat="45.035393" lon="4.980204">
        <ele>199.356065</ele>
        <time>2017-06-05T09:46:54.000Z</time>
      </trkpt>
      <trkpt lat="45.035430" lon="4.980080">
        <ele>199.639216</ele>
        <time>2017-06-05T09:46:57.000Z</time>
      </trkpt>
      <trkpt lat="45.035477" lon="4.979951">
        <ele>199.836836</ele>
        <time>2017-06-05T09:47:01.000Z</time>
      </trkpt>
      <trkpt lat="45.035538" lon="4.979820">
        <ele>200.050450</ele>
        <time>2017-06-05T09:47:05.000Z</time>
      </trkpt>
      <trkpt lat="45.035590" lon="4.979697">
        <ele>200.245611</ele>
        <time>2017-06-05T09:47:08.000Z</time>
      </trkpt>
      <trkpt lat="45.035645" lon="4.979576">
        <ele>200.441507</ele>
        <time>2017-06-05T09:47:11.000Z</time>
      </trkpt>
      <trkpt lat="45.035698" lon="4.979465">
        <ele>200.623912</ele>
        <time>2017-06-05T09:47:14.000Z</time>
      </trkpt>
      <trkpt lat="45.035763" lon="4.979328">
        <ele>200.848597</ele>
        <time>2017-06-05T09:47:18.000Z</time>
      </trkpt>
      <trkpt lat="45.035810" lon="4.979214">
        <ele>201.028306</ele>
        <time>2017-06-05T09:47:21.000Z</time>
      </trkpt>
      <trkpt lat="45.035862" lon="4.979085">
        <ele>201.230521</ele>
        <time>2017-06-05T09:47:24.000Z</time>
      </trkpt>
      <trkpt lat="45.035910" lon="4.978967">
        <ele>201.415909</ele>
        <time>2017-06-05T09:47:27.000Z</time>
      </trkpt>
      <trkpt lat="45.035960" lon="4.978819">
        <ele>201.639272</ele>
        <time>2017-06-05T09:47:30.000Z</time>
      </trkpt>
      <trkpt lat="45.036026" lon="4.978691">
        <ele>201.855021</ele>
        <time>2017-06-05T09:47:33.000Z</time>
      </trkpt>
      <trkpt lat="45.036102" lon="4.978562">
        <ele>202.083703</ele>
        <time>2017-06-05T09:47:36.000Z</time>
      </trkpt>
      <trkpt lat="45.036175" lon="4.978427">
        <ele>202.315162</ele>
        <time>2017-06-05T09:47:39.000Z</time>
      </trkpt>
      <trkpt lat="45.036243" lon="4.978294">
        <ele>202.538683</ele>
        <time>2017-06-05T09:47:42.000Z</time>
      </trkpt>
      <trkpt lat="45.036310" lon="4.978140">
        <ele>202.784923</ele>
        <time>2017-06-05T09:47:45.000Z</time>
      </trkpt>
      <trkpt lat="45.036392" lon="4.977993">
        <ele>202.932049</ele>
        <time>2017-06-05T09:47:48.000Z</time>
      </trkpt>
      <trkpt lat="45.036457" lon="4.977839">
        <ele>202.779710</ele>
        <time>2017-06-05T09:47:51.000Z</time>
      </trkpt>
      <trkpt lat="45.036522" lon="4.977702">
        <ele>202.639570</ele>
        <time>2017-06-05T09:47:54.000Z</time>
      </trkpt>
      <trkpt lat="45.036606" lon="4.977558">
        <ele>202.480992</ele>
        <time>2017-06-05T09:47:57.000Z</time>
      </trkpt>
      <trkpt lat="45.036667" lon="4.977406">
        <ele>202.332541</ele>
        <time>2017-06-05T09:48:00.000Z</time>
      </trkpt>
      <trkpt lat="45.036730" lon="4.977246">
        <ele>202.176990</ele>
        <time>2017-06-05T09:48:03.000Z</time>
      </trkpt>
      <trkpt lat="45.036777" lon="4.977134">
        <ele>202.066366</ele>
        <time>2017-06-05T09:48:05.000Z</time>
      </trkpt>
      <trkpt lat="45.036820" lon="4.977020">
        <ele>201.956622</ele>
        <time>2017-06-05T09:48:07.000Z</time>
      </trkpt>
      <trkpt lat="45.036854" lon="4.976901">
        <ele>201.847612</ele>
        <time>2017-06-05T09:48:09.000Z</time>
      </trkpt>
      <trkpt lat="45.036900" lon="4.976782">
        <ele>201.732419</ele>
        <time>2017-06-05T09:48:11.000Z</time>
      </trkpt>
      <trkpt lat="45.036953" lon="4.976610">
        <ele>201.573064</ele>
        <time>2017-06-05T09:48:14.000Z</time>
      </trkpt>
      <trkpt lat="45.037000" lon="4.976484">
        <ele>201.452065</ele>
        <time>2017-06-05T09:48:16.000Z</time>
      </trkpt>
      <trkpt lat="45.037052" lon="4.976357">
        <ele>201.327413</ele>
        <time>2017-06-05T09:48:18.000Z</time>
      </trkpt>
      <trkpt lat="45.037098" lon="4.976224">
        <ele>201.201659</ele>
        <time>2017-06-05T09:48:20.000Z</time>
      </trkpt>
      <trkpt lat="45.037148" lon="4.976088">
        <ele>201.071465</ele>
        <time>2017-06-05T09:48:22.000Z</time>
      </trkpt>
      <trkpt lat="45.037197" lon="4.975954">
        <ele>200.943331</ele>
        <time>2017-06-05T09:48:24.000Z</time>
      </trkpt>
      <trkpt lat="45.037240" lon="4.975815">
        <ele>200.814470</ele>
        <time>2017-06-05T09:48:26.000Z</time>
      </trkpt>
      <trkpt lat="45.037277" lon="4.975681">
        <ele>200.738534</ele>
        <time>2017-06-05T09:48:28.000Z</time>
      </trkpt>
      <trkpt lat="45.037304" lon="4.975549">
        <ele>200.666959</ele>
        <time>2017-06-05T09:48:30.000Z</time>
      </trkpt>
      <trkpt lat="45.037340" lon="4.975412">
        <ele>200.590828</ele>
        <time>2017-06-05T09:48:32.000Z</time>
      </trkpt>
      <trkpt lat="45.037373" lon="4.975278">
        <ele>200.516916</ele>
        <time>2017-06-05T09:48:34.000Z</time>
      </trkpt>
      <trkpt lat="45.037403" lon="4.975142">
        <ele>200.442709</ele>
        <time>2017-06-05T09:48:36.000Z</time>
      </trkpt>
      <trkpt lat="45.037426" lon="4.975007">
        <ele>200.370379</ele>
        <time>2017-06-05T09:48:38.000Z</time>
      </trkpt>
      <trkpt lat="45.037450" lon="4.974879">
        <ele>200.301403</ele>
        <time>2017-06-05T09:48:40.000Z</time>
      </trkpt>
      <trkpt lat="45.037476" lon="4.974749">
        <ele>200.231032</ele>
        <time>2017-06-05T09:48:42.000Z</time>
      </trkpt>
      <trkpt lat="45.037506" lon="4.974614">
        <ele>200.157322</ele>
        <time>2017-06-05T09:48:44.000Z</time>
      </trkpt>
      <trkpt lat="45.037537" lon="4.974471">
        <ele>200.079414</ele>
        <time>2017-06-05T09:48:46.000Z</time>
      </trkpt>
      <trkpt lat="45.037570" lon="4.974330">
        <ele>200.002050</ele>
        <time>2017-06-05T09:48:48.000Z</time>
      </trkpt>
      <trkpt lat="45.037613" lon="4.974194">
        <ele>199.924447</ele>
        <time>2017-06-05T09:48:50.000Z</time>
      </trkpt>
      <trkpt lat="45.037650" lon="4.974056">
        <ele>199.847570</ele>
        <time>2017-06-05T09:48:52.000Z</time>
      </trkpt>
      <trkpt lat="45.037685" lon="4.973925">
        <ele>199.774624</ele>
        <time>2017-06-05T09:48:54.000Z</time>
      </trkpt>
      <trkpt lat="45.037716" lon="4.973784">
        <ele>199.697712</ele>
        <time>2017-06-05T09:48:56.000Z</time>
      </trkpt>
      <trkpt lat="45.037746" lon="4.973647">
        <ele>199.623007</ele>
        <time>2017-06-05T09:48:58.000Z</time>
      </trkpt>
      <trkpt lat="45.037785" lon="4.973512">
        <ele>199.547043</ele>
        <time>2017-06-05T09:49:00.000Z</time>
      </trkpt>
      <trkpt lat="45.037830" lon="4.973391">
        <ele>199.482937</ele>
        <time>2017-06-05T09:49:02.000Z</time>
      </trkpt>
      <trkpt lat="45.037880" lon="4.973268">
        <ele>199.460017</ele>
        <time>2017-06-05T09:49:04.000Z</time>
      </trkpt>
      <trkpt lat="45.037920" lon="4.973136">
        <ele>199.436819</ele>
        <time>2017-06-05T09:49:06.000Z</time>
      </trkpt>
      <trkpt lat="45.037956" lon="4.972997">
        <ele>199.412907</ele>
        <time>2017-06-05T09:49:08.000Z</time>
      </trkpt>
      <trkpt lat="45.037994" lon="4.972853">
        <ele>199.388079</ele>
        <time>2017-06-05T09:49:10.000Z</time>
      </trkpt>
      <trkpt lat="45.038033" lon="4.972710">
        <ele>199.363321</ele>
        <time>2017-06-05T09:49:12.000Z</time>
      </trkpt>
      <trkpt lat="45.038074" lon="4.972574">
        <ele>199.339438</ele>
        <time>2017-06-05T09:49:14.000Z</time>
      </trkpt>
      <trkpt lat="45.038116" lon="4.972436">
        <ele>199.315169</ele>
        <time>2017-06-05T09:49:16.000Z</time>
      </trkpt>
      <trkpt lat="45.038166" lon="4.972299">
        <ele>199.290264</ele>
        <time>2017-06-05T09:49:18.000Z</time>
      </trkpt>
      <trkpt lat="45.038208" lon="4.972163">
        <ele>199.266291</ele>
        <time>2017-06-05T09:49:20.000Z</time>
      </trkpt>
      <trkpt lat="45.038254" lon="4.972022">
        <ele>199.241206</ele>
        <time>2017-06-05T09:49:22.000Z</time>
      </trkpt>
      <trkpt lat="45.038303" lon="4.971891">
        <ele>199.217266</ele>
        <time>2017-06-05T09:49:24.000Z</time>
      </trkpt>
      <trkpt lat="45.038360" lon="4.971774">
        <ele>199.194312</ele>
        <time>2017-06-05T09:49:26.000Z</time>
      </trkpt>
      <trkpt lat="45.038425" lon="4.971664">
        <ele>199.171151</ele>
        <time>2017-06-05T09:49:28.000Z</time>
      </trkpt>
      <trkpt lat="45.038494" lon="4.971543">
        <ele>199.146037</ele>
        <time>2017-06-05T09:49:30.000Z</time>
      </trkpt>
      <trkpt lat="45.038560" lon="4.971418">
        <ele>199.120834</ele>
        <time>2017-06-05T09:49:32.000Z</time>
      </trkpt>
      <trkpt lat="45.038616" lon="4.971288">
        <ele>199.096242</ele>
        <time>2017-06-05T09:49:34.000Z</time>
      </trkpt>
      <trkpt lat="45.038660" lon="4.971158">
        <ele>199.066945</ele>
        <time>2017-06-05T09:49:36.000Z</time>
      </trkpt>
      <trkpt lat="45.038704" lon="4.971028">
        <ele>198.975216</ele>
        <time>2017-06-05T09:49:38.000Z</time>
      </trkpt>
      <trkpt lat="45.038742" lon="4.970894">
        <ele>198.883330</ele>
        <time>2017-06-05T09:49:40.000Z</time>
      </trkpt>
      <trkpt lat="45.038784" lon="4.970752">
        <ele>198.785367</ele>
        <time>2017-06-05T09:49:42.000Z</time>
      </trkpt>
      <trkpt lat="45.038822" lon="4.970605">
        <ele>198.685756</ele>
        <time>2017-06-05T09:49:44.000Z</time>
      </trkpt>
      <trkpt lat="45.038857" lon="4.970460">
        <ele>198.588246</ele>
        <time>2017-06-05T09:49:46.000Z</time>
      </trkpt>
      <trkpt lat="45.038870" lon="4.970305">
        <ele>198.488915</ele>
        <time>2017-06-05T09:49:48.000Z</time>
      </trkpt>
      <trkpt lat="45.038883" lon="4.970154">
        <ele>198.392111</ele>
        <time>2017-06-05T09:49:50.000Z</time>
      </trkpt>
      <trkpt lat="45.038895" lon="4.969993">
        <ele>198.289086</ele>
        <time>2017-06-05T09:49:52.000Z</time>
      </trkpt>
      <trkpt lat="45.038920" lon="4.969832">
        <ele>198.184184</ele>
        <time>2017-06-05T09:49:54.000Z</time>
      </trkpt>
      <trkpt lat="45.038950" lon="4.969679">
        <ele>198.083139</ele>
        <time>2017-06-05T09:49:56.000Z</time>
      </trkpt>
      <trkpt lat="45.038990" lon="4.969527">
        <ele>197.979920</ele>
        <time>2017-06-05T09:49:58.000Z</time>
      </trkpt>
      <trkpt lat="45.039030" lon="4.969382">
        <ele>197.880863</ele>
        <time>2017-06-05T09:50:00.000Z</time>
      </trkpt>
      <trkpt lat="45.039063" lon="4.969233">
        <ele>197.781494</ele>
        <time>2017-06-05T09:50:02.000Z</time>
      </trkpt>
      <trkpt lat="45.039097" lon="4.969080">
        <ele>197.679427</ele>
        <time>2017-06-05T09:50:04.000Z</time>
      </trkpt>
      <trkpt lat="45.039130" lon="4.968929">
        <ele>197.578844</ele>
        <time>2017-06-05T09:50:06.000Z</time>
      </trkpt>
      <trkpt lat="45.039158" lon="4.968774">
        <ele>197.477033</ele>
        <time>2017-06-05T09:50:08.000Z</time>
      </trkpt>
      <trkpt lat="45.039192" lon="4.968626">
        <ele>197.491968</ele>
        <time>2017-06-05T09:50:10.000Z</time>
      </trkpt>
      <trkpt lat="45.039227" lon="4.968475">
        <ele>197.540185</ele>
        <time>2017-06-05T09:50:12.000Z</time>
      </trkpt>
      <trkpt lat="45.039270" lon="4.968335">
        <ele>197.586502</ele>
        <time>2017-06-05T09:50:14.000Z</time>
      </trkpt>
      <trkpt lat="45.039303" lon="4.968190">
        <ele>197.632722</ele>
        <time>2017-06-05T09:50:16.000Z</time>
      </trkpt>
      <trkpt lat="45.039340" lon="4.968041">
        <ele>197.680641</ele>
        <time>2017-06-05T09:50:18.000Z</time>
      </trkpt>
      <trkpt lat="45.039370" lon="4.967896">
        <ele>197.726482</ele>
        <time>2017-06-05T09:50:20.000Z</time>
      </trkpt>
      <trkpt lat="45.039402" lon="4.967752">
        <ele>197.772283</ele>
        <time>2017-06-05T09:50:22.000Z</time>
      </trkpt>
      <trkpt lat="45.039433" lon="4.967612">
        <ele>197.816797</ele>
        <time>2017-06-05T09:50:24.000Z</time>
      </trkpt>
      <trkpt lat="45.039463" lon="4.967468">
        <ele>197.862348</ele>
        <time>2017-06-05T09:50:26.000Z</time>
      </trkpt>
      <trkpt lat="45.039497" lon="4.967327">
        <ele>197.907551</ele>
        <time>2017-06-05T09:50:28.000Z</time>
      </trkpt>
      <trkpt lat="45.039536" lon="4.967189">
        <ele>197.952647</ele>
        <time>2017-06-05T09:50:30.000Z</time>
      </trkpt>
      <trkpt lat="45.039570" lon="4.967056">
        <ele>197.995560</ele>
        <time>2017-06-05T09:50:32.000Z</time>
      </trkpt>
      <trkpt lat="45.039604" lon="4.966906">
        <ele>198.043356</ele>
        <time>2017-06-05T09:50:34.000Z</time>
      </trkpt>
      <trkpt lat="45.039640" lon="4.966768">
        <ele>198.087988</ele>
        <time>2017-06-05T09:50:36.000Z</time>
      </trkpt>
      <trkpt lat="45.039670" lon="4.966623">
        <ele>198.133830</ele>
        <time>2017-06-05T09:50:38.000Z</time>
      </trkpt>
      <trkpt lat="45.039700" lon="4.966475">
        <ele>198.180546</ele>
        <time>2017-06-05T09:50:40.000Z</time>
      </trkpt>
      <trkpt lat="45.039726" lon="4.966322">
        <ele>198.226480</ele>
        <time>2017-06-05T09:50:42.000Z</time>
      </trkpt>
      <trkpt lat="45.039750" lon="4.966171">
        <ele>198.168531</ele>
        <time>2017-06-05T09:50:44.000Z</time>
      </trkpt>
      <trkpt lat="45.039772" lon="4.966029">
        <ele>198.114101</ele>
        <time>2017-06-05T09:50:46.000Z</time>
      </trkpt>
      <trkpt lat="45.039800" lon="4.965879">
        <ele>198.056013</ele>
        <time>2017-06-05T09:50:48.000Z</time>
      </trkpt>
      <trkpt lat="45.039818" lon="4.965729">
        <ele>197.999047</ele>
        <time>2017-06-05T09:50:50.000Z</time>
      </trkpt>
      <trkpt lat="45.039845" lon="4.965577">
        <ele>197.940366</ele>
        <time>2017-06-05T09:50:52.000Z</time>
      </trkpt>
      <trkpt lat="45.039875" lon="4.965427">
        <ele>197.881998</ele>
        <time>2017-06-05T09:50:54.000Z</time>
      </trkpt>
      <trkpt lat="45.039898" lon="4.965275">
        <ele>197.823797</ele>
        <time>2017-06-05T09:50:56.000Z</time>
      </trkpt>
      <trkpt lat="45.039913" lon="4.965125">
        <ele>197.767076</ele>
        <time>2017-06-05T09:50:58.000Z</time>
      </trkpt>
      <trkpt lat="45.039932" lon="4.964970">
        <ele>197.708175</ele>
        <time>2017-06-05T09:51:00.000Z</time>
      </trkpt>
      <trkpt lat="45.039950" lon="4.964821">
        <ele>197.651578</ele>
        <time>2017-06-05T09:51:02.000Z</time>
      </trkpt>
      <trkpt lat="45.039974" lon="4.964671">
        <ele>197.593995</ele>
        <time>2017-06-05T09:51:04.000Z</time>
      </trkpt>
      <trkpt lat="45.039990" lon="4.964517">
        <ele>197.535716</ele>
        <time>2017-06-05T09:51:06.000Z</time>
      </trkpt>
      <trkpt lat="45.040005" lon="4.964365">
        <ele>197.478253</ele>
        <time>2017-06-05T09:51:08.000Z</time>
      </trkpt>
      <trkpt lat="45.040020" lon="4.964217">
        <ele>197.422273</ele>
        <time>2017-06-05T09:51:10.000Z</time>
      </trkpt>
      <trkpt lat="45.040030" lon="4.964072">
        <ele>197.367726</ele>
        <time>2017-06-05T09:51:12.000Z</time>
      </trkpt>
      <trkpt lat="45.040050" lon="4.963932">
        <ele>197.314248</ele>
        <time>2017-06-05T09:51:14.000Z</time>
      </trkpt>
      <trkpt lat="45.040060" lon="4.963789">
        <ele>197.244148</ele>
        <time>2017-06-05T09:51:16.000Z</time>
      </trkpt>
      <trkpt lat="45.040066" lon="4.963645">
        <ele>197.127238</ele>
        <time>2017-06-05T09:51:18.000Z</time>
      </trkpt>
      <trkpt lat="45.040066" lon="4.963505">
        <ele>197.013773</ele>
        <time>2017-06-05T09:51:20.000Z</time>
      </trkpt>
      <trkpt lat="45.040070" lon="4.963361">
        <ele>196.896976</ele>
        <time>2017-06-05T09:51:22.000Z</time>
      </trkpt>
      <trkpt lat="45.040070" lon="4.963218">
        <ele>196.781079</ele>
        <time>2017-06-05T09:51:24.000Z</time>
      </trkpt>
      <trkpt lat="45.040073" lon="4.963078">
        <ele>196.667561</ele>
        <time>2017-06-05T09:51:26.000Z</time>
      </trkpt>
      <trkpt lat="45.040073" lon="4.962940">
        <ele>196.555717</ele>
        <time>2017-06-05T09:51:28.000Z</time>
      </trkpt>
      <trkpt lat="45.040080" lon="4.962791">
        <ele>196.434691</ele>
        <time>2017-06-05T09:51:30.000Z</time>
      </trkpt>
      <trkpt lat="45.040077" lon="4.962652">
        <ele>196.321984</ele>
        <time>2017-06-05T09:51:32.000Z</time>
      </trkpt>
      <trkpt lat="45.040077" lon="4.962505">
        <ele>196.202845</ele>
        <time>2017-06-05T09:51:34.000Z</time>
      </trkpt>
      <trkpt lat="45.040077" lon="4.962359">
        <ele>196.084517</ele>
        <time>2017-06-05T09:51:36.000Z</time>
      </trkpt>
      <trkpt lat="45.040090" lon="4.962212">
        <ele>195.964449</ele>
        <time>2017-06-05T09:51:38.000Z</time>
      </trkpt>
      <trkpt lat="45.040090" lon="4.962068">
        <ele>195.847742</ele>
        <time>2017-06-05T09:51:40.000Z</time>
      </trkpt>
      <trkpt lat="45.040085" lon="4.961927">
        <ele>195.733322</ele>
        <time>2017-06-05T09:51:42.000Z</time>
      </trkpt>
      <trkpt lat="45.040085" lon="4.961793">
        <ele>195.624720</ele>
        <time>2017-06-05T09:51:44.000Z</time>
      </trkpt>
      <trkpt lat="45.040077" lon="4.961651">
        <ele>195.509269</ele>
        <time>2017-06-05T09:51:46.000Z</time>
      </trkpt>
      <trkpt lat="45.040060" lon="4.961518">
        <ele>195.399727</ele>
        <time>2017-06-05T09:51:48.000Z</time>
      </trkpt>
      <trkpt lat="45.040047" lon="4.961381">
        <ele>195.287696</ele>
        <time>2017-06-05T09:51:50.000Z</time>
      </trkpt>
      <trkpt lat="45.040035" lon="4.961254">
        <ele>195.204764</ele>
        <time>2017-06-05T09:51:52.000Z</time>
      </trkpt>
      <trkpt lat="45.040016" lon="4.961069">
        <ele>195.168103</ele>
        <time>2017-06-05T09:51:55.000Z</time>
      </trkpt>
      <trkpt lat="45.040000" lon="4.960898">
        <ele>195.134275</ele>
        <time>2017-06-05T09:51:58.000Z</time>
      </trkpt>
      <trkpt lat="45.039993" lon="4.960732">
        <ele>195.101663</ele>
        <time>2017-06-05T09:52:01.000Z</time>
      </trkpt>
      <trkpt lat="45.039980" lon="4.960552">
        <ele>195.066179</ele>
        <time>2017-06-05T09:52:04.000Z</time>
      </trkpt>
      <trkpt lat="45.039978" lon="4.960362">
        <ele>195.028914</ele>
        <time>2017-06-05T09:52:07.000Z</time>
      </trkpt>
      <trkpt lat="45.039978" lon="4.960225">
        <ele>195.002047</ele>
        <time>2017-06-05T09:52:09.000Z</time>
      </trkpt>
      <trkpt lat="45.039986" lon="4.960095">
        <ele>194.976456</ele>
        <time>2017-06-05T09:52:11.000Z</time>
      </trkpt>
      <trkpt lat="45.039990" lon="4.959966">
        <ele>194.951134</ele>
        <time>2017-06-05T09:52:13.000Z</time>
      </trkpt>
      <trkpt lat="45.040000" lon="4.959824">
        <ele>194.923148</ele>
        <time>2017-06-05T09:52:15.000Z</time>
      </trkpt>
      <trkpt lat="45.040016" lon="4.959678">
        <ele>194.894174</ele>
        <time>2017-06-05T09:52:17.000Z</time>
      </trkpt>
      <trkpt lat="45.040030" lon="4.959534">
        <ele>194.865668</ele>
        <time>2017-06-05T09:52:19.000Z</time>
      </trkpt>
      <trkpt lat="45.040043" lon="4.959391">
        <ele>194.837393</ele>
        <time>2017-06-05T09:52:21.000Z</time>
      </trkpt>
      <trkpt lat="45.040060" lon="4.959255">
        <ele>194.810308</ele>
        <time>2017-06-05T09:52:23.000Z</time>
      </trkpt>
      <trkpt lat="45.040066" lon="4.959115">
        <ele>194.782802</ele>
        <time>2017-06-05T09:52:25.000Z</time>
      </trkpt>
      <trkpt lat="45.040077" lon="4.958929">
        <ele>194.746198</ele>
        <time>2017-06-05T09:52:28.000Z</time>
      </trkpt>
      <trkpt lat="45.040077" lon="4.958738">
        <ele>194.715275</ele>
        <time>2017-06-05T09:52:31.000Z</time>
      </trkpt>
      <trkpt lat="45.040070" lon="4.958601">
        <ele>194.738458</ele>
        <time>2017-06-05T09:52:33.000Z</time>
      </trkpt>
      <trkpt lat="45.040047" lon="4.958460">
        <ele>194.762881</ele>
        <time>2017-06-05T09:52:35.000Z</time>
      </trkpt>
      <trkpt lat="45.040012" lon="4.958326">
        <ele>194.786992</ele>
        <time>2017-06-05T09:52:37.000Z</time>
      </trkpt>
      <trkpt lat="45.039963" lon="4.958212">
        <ele>194.809512</ele>
        <time>2017-06-05T09:52:39.000Z</time>
      </trkpt>
      <trkpt lat="45.039906" lon="4.958110">
        <ele>194.831460</ele>
        <time>2017-06-05T09:52:41.000Z</time>
      </trkpt>
      <trkpt lat="45.039850" lon="4.958008">
        <ele>194.853261</ele>
        <time>2017-06-05T09:52:43.000Z</time>
      </trkpt>
      <trkpt lat="45.039790" lon="4.957906">
        <ele>194.875660</ele>
        <time>2017-06-05T09:52:45.000Z</time>
      </trkpt>
      <trkpt lat="45.039726" lon="4.957800">
        <ele>194.899192</ele>
        <time>2017-06-05T09:52:47.000Z</time>
      </trkpt>
      <trkpt lat="45.039673" lon="4.957686">
        <ele>194.922223</ele>
        <time>2017-06-05T09:52:49.000Z</time>
      </trkpt>
      <trkpt lat="45.039593" lon="4.957531">
        <ele>194.954618</ele>
        <time>2017-06-05T09:52:52.000Z</time>
      </trkpt>
      <trkpt lat="45.039530" lon="4.957426">
        <ele>194.977866</ele>
        <time>2017-06-05T09:52:54.000Z</time>
      </trkpt>
      <trkpt lat="45.039463" lon="4.957325">
        <ele>195.001247</ele>
        <time>2017-06-05T09:52:56.000Z</time>
      </trkpt>
      <trkpt lat="45.039394" lon="4.957226">
        <ele>195.024717</ele>
        <time>2017-06-05T09:52:58.000Z</time>
      </trkpt>
      <trkpt lat="45.039318" lon="4.957130">
        <ele>195.049048</ele>
        <time>2017-06-05T09:53:00.000Z</time>
      </trkpt>
      <trkpt lat="45.039234" lon="4.957047">
        <ele>195.073518</ele>
        <time>2017-06-05T09:53:02.000Z</time>
      </trkpt>
      <trkpt lat="45.039154" lon="4.956963">
        <ele>195.097311</ele>
        <time>2017-06-05T09:53:04.000Z</time>
      </trkpt>
      <trkpt lat="45.039074" lon="4.956884">
        <ele>195.120611</ele>
        <time>2017-06-05T09:53:06.000Z</time>
      </trkpt>
      <trkpt lat="45.038998" lon="4.956802">
        <ele>195.140034</ele>
        <time>2017-06-05T09:53:08.000Z</time>
      </trkpt>
      <trkpt lat="45.038914" lon="4.956721">
        <ele>195.112001</ele>
        <time>2017-06-05T09:53:10.000Z</time>
      </trkpt>
      <trkpt lat="45.038837" lon="4.956636">
        <ele>195.085070</ele>
        <time>2017-06-05T09:53:12.000Z</time>
      </trkpt>
      <trkpt lat="45.038760" lon="4.956560">
        <ele>195.059179</ele>
        <time>2017-06-05T09:53:14.000Z</time>
      </trkpt>
      <trkpt lat="45.038685" lon="4.956480">
        <ele>195.033278</ele>
        <time>2017-06-05T09:53:16.000Z</time>
      </trkpt>
      <trkpt lat="45.038605" lon="4.956399">
        <ele>195.006150</ele>
        <time>2017-06-05T09:53:18.000Z</time>
      </trkpt>
      <trkpt lat="45.038517" lon="4.956323">
        <ele>194.977719</ele>
        <time>2017-06-05T09:53:20.000Z</time>
      </trkpt>
      <trkpt lat="45.038430" lon="4.956258">
        <ele>194.950587</ele>
        <time>2017-06-05T09:53:22.000Z</time>
      </trkpt>
      <trkpt lat="45.038338" lon="4.956213">
        <ele>194.923742</ele>
        <time>2017-06-05T09:53:24.000Z</time>
      </trkpt>
      <trkpt lat="45.038230" lon="4.956164">
        <ele>194.892464</ele>
        <time>2017-06-05T09:53:26.000Z</time>
      </trkpt>
      <trkpt lat="45.038110" lon="4.956112">
        <ele>194.857853</ele>
        <time>2017-06-05T09:53:28.000Z</time>
      </trkpt>
      <trkpt lat="45.037987" lon="4.956065">
        <ele>194.822717</ele>
        <time>2017-06-05T09:53:30.000Z</time>
      </trkpt>
      <trkpt lat="45.037870" lon="4.956020">
        <ele>194.789279</ele>
        <time>2017-06-05T09:53:32.000Z</time>
      </trkpt>
      <trkpt lat="45.037754" lon="4.955974">
        <ele>194.756056</ele>
        <time>2017-06-05T09:53:34.000Z</time>
      </trkpt>
      <trkpt lat="45.037643" lon="4.955923">
        <ele>194.723871</ele>
        <time>2017-06-05T09:53:36.000Z</time>
      </trkpt>
      <trkpt lat="45.037537" lon="4.955869">
        <ele>194.692801</ele>
        <time>2017-06-05T09:53:38.000Z</time>
      </trkpt>
      <trkpt lat="45.037420" lon="4.955818">
        <ele>194.659038</ele>
        <time>2017-06-05T09:53:40.000Z</time>
      </trkpt>
      <trkpt lat="45.037315" lon="4.955773">
        <ele>194.608758</ele>
        <time>2017-06-05T09:53:42.000Z</time>
      </trkpt>
      <trkpt lat="45.037205" lon="4.955728">
        <ele>194.540067</ele>
        <time>2017-06-05T09:53:44.000Z</time>
      </trkpt>
      <trkpt lat="45.037098" lon="4.955681">
        <ele>194.472856</ele>
        <time>2017-06-05T09:53:46.000Z</time>
      </trkpt>
      <trkpt lat="45.036990" lon="4.955637">
        <ele>194.405435</ele>
        <time>2017-06-05T09:53:48.000Z</time>
      </trkpt>
      <trkpt lat="45.036884" lon="4.955589">
        <ele>194.338668</ele>
        <time>2017-06-05T09:53:50.000Z</time>
      </trkpt>
      <trkpt lat="45.036780" lon="4.955556">
        <ele>194.274729</ele>
        <time>2017-06-05T09:53:52.000Z</time>
      </trkpt>
      <trkpt lat="45.036674" lon="4.955523">
        <ele>194.209618</ele>
        <time>2017-06-05T09:53:54.000Z</time>
      </trkpt>
      <trkpt lat="45.036570" lon="4.955486">
        <ele>194.145287</ele>
        <time>2017-06-05T09:53:56.000Z</time>
      </trkpt>
      <trkpt lat="45.036472" lon="4.955449">
        <ele>194.084440</ele>
        <time>2017-06-05T09:53:58.000Z</time>
      </trkpt>
      <trkpt lat="45.036370" lon="4.955414">
        <ele>194.021476</ele>
        <time>2017-06-05T09:54:00.000Z</time>
      </trkpt>
      <trkpt lat="45.036270" lon="4.955374">
        <ele>193.959135</ele>
        <time>2017-06-05T09:54:02.000Z</time>
      </trkpt>
      <trkpt lat="45.036175" lon="4.955335">
        <ele>193.899794</ele>
        <time>2017-06-05T09:54:04.000Z</time>
      </trkpt>
      <trkpt lat="45.036080" lon="4.955287">
        <ele>193.839279</ele>
        <time>2017-06-05T09:54:06.000Z</time>
      </trkpt>
      <trkpt lat="45.035970" lon="4.955239">
        <ele>193.770224</ele>
        <time>2017-06-05T09:54:08.000Z</time>
      </trkpt>
      <trkpt lat="45.035866" lon="4.955201">
        <ele>193.705787</ele>
        <time>2017-06-05T09:54:10.000Z</time>
      </trkpt>
      <trkpt lat="45.035760" lon="4.955161">
        <ele>193.639975</ele>
        <time>2017-06-05T09:54:12.000Z</time>
      </trkpt>
      <trkpt lat="45.035650" lon="4.955124">
        <ele>193.572147</ele>
        <time>2017-06-05T09:54:14.000Z</time>
      </trkpt>
      <trkpt lat="45.035526" lon="4.955082">
        <ele>193.429720</ele>
        <time>2017-06-05T09:54:16.000Z</time>
      </trkpt>
      <trkpt lat="45.035400" lon="4.955054">
        <ele>193.282293</ele>
        <time>2017-06-05T09:54:18.000Z</time>
      </trkpt>
      <trkpt lat="45.035280" lon="4.955027">
        <ele>193.141844</ele>
        <time>2017-06-05T09:54:20.000Z</time>
      </trkpt>
      <trkpt lat="45.035168" lon="4.955011">
        <ele>193.011726</ele>
        <time>2017-06-05T09:54:22.000Z</time>
      </trkpt>
      <trkpt lat="45.035053" lon="4.954994">
        <ele>192.878075</ele>
        <time>2017-06-05T09:54:24.000Z</time>
      </trkpt>
      <trkpt lat="45.034930" lon="4.954972">
        <ele>192.734770</ele>
        <time>2017-06-05T09:54:26.000Z</time>
      </trkpt>
      <trkpt lat="45.034810" lon="4.954954">
        <ele>192.595286</ele>
        <time>2017-06-05T09:54:28.000Z</time>
      </trkpt>
      <trkpt lat="45.034687" lon="4.954941">
        <ele>192.452715</ele>
        <time>2017-06-05T09:54:30.000Z</time>
      </trkpt>
      <trkpt lat="45.034565" lon="4.954918">
        <ele>192.310451</ele>
        <time>2017-06-05T09:54:32.000Z</time>
      </trkpt>
      <trkpt lat="45.034443" lon="4.954902">
        <ele>192.168828</ele>
        <time>2017-06-05T09:54:34.000Z</time>
      </trkpt>
      <trkpt lat="45.034332" lon="4.954883">
        <ele>192.039589</ele>
        <time>2017-06-05T09:54:36.000Z</time>
      </trkpt>
      <trkpt lat="45.034220" lon="4.954866">
        <ele>191.909387</ele>
        <time>2017-06-05T09:54:38.000Z</time>
      </trkpt>
      <trkpt lat="45.034110" lon="4.954839">
        <ele>191.780340</ele>
        <time>2017-06-05T09:54:40.000Z</time>
      </trkpt>
      <trkpt lat="45.033990" lon="4.954816">
        <ele>191.640367</ele>
        <time>2017-06-05T09:54:42.000Z</time>
      </trkpt>
      <trkpt lat="45.033870" lon="4.954786">
        <ele>191.499512</ele>
        <time>2017-06-05T09:54:44.000Z</time>
      </trkpt>
      <trkpt lat="45.033760" lon="4.954758">
        <ele>191.561996</ele>
        <time>2017-06-05T09:54:46.000Z</time>
      </trkpt>
      <trkpt lat="45.033650" lon="4.954737">
        <ele>191.643080</ele>
        <time>2017-06-05T09:54:48.000Z</time>
      </trkpt>
      <trkpt lat="45.033540" lon="4.954718">
        <ele>191.724031</ele>
        <time>2017-06-05T09:54:50.000Z</time>
      </trkpt>
      <trkpt lat="45.033420" lon="4.954696">
        <ele>191.812424</ele>
        <time>2017-06-05T09:54:52.000Z</time>
      </trkpt>
      <trkpt lat="45.033314" lon="4.954670">
        <ele>191.891012</ele>
        <time>2017-06-05T09:54:54.000Z</time>
      </trkpt>
      <trkpt lat="45.033203" lon="4.954637">
        <ele>191.973868</ele>
        <time>2017-06-05T09:54:57.000Z</time>
      </trkpt>
      <trkpt lat="45.033110" lon="4.954546">
        <ele>192.056466</ele>
        <time>2017-06-05T09:55:01.000Z</time>
      </trkpt>
      <trkpt lat="45.033024" lon="4.954485">
        <ele>192.126740</ele>
        <time>2017-06-05T09:55:05.000Z</time>
      </trkpt>
      <trkpt lat="45.033110" lon="4.954534">
        <ele>192.194465</ele>
        <time>2017-06-05T09:55:55.000Z</time>
      </trkpt>
      <trkpt lat="45.033195" lon="4.954571">
        <ele>192.259429</ele>
        <time>2017-06-05T09:56:03.000Z</time>
      </trkpt>
      <trkpt lat="45.033290" lon="4.954588">
        <ele>192.329379</ele>
        <time>2017-06-05T09:56:11.000Z</time>
      </trkpt>
      <trkpt lat="45.033386" lon="4.954592">
        <ele>192.399538</ele>
        <time>2017-06-05T09:56:21.000Z</time>
      </trkpt>
      <trkpt lat="45.033466" lon="4.954526">
        <ele>192.467185</ele>
        <time>2017-06-05T09:57:36.000Z</time>
      </trkpt>
      <trkpt lat="45.033478" lon="4.954389">
        <ele>192.538452</ele>
        <time>2017-06-05T09:58:23.000Z</time>
      </trkpt>
      <trkpt lat="45.033474" lon="4.954261">
        <ele>192.604595</ele>
        <time>2017-06-05T09:58:38.000Z</time>
      </trkpt>
      <trkpt lat="45.033424" lon="4.954380">
        <ele>192.676066</ele>
        <time>2017-06-05T10:01:34.000Z</time>
      </trkpt>
      <trkpt lat="45.033420" lon="4.954511">
        <ele>192.743757</ele>
        <time>2017-06-05T10:01:45.000Z</time>
      </trkpt>
      <trkpt lat="45.033382" lon="4.954663">
        <ele>192.785210</ele>
        <time>2017-06-05T10:05:10.000Z</time>
      </trkpt>
      <trkpt lat="45.033290" lon="4.954636">
        <ele>192.740527</ele>
        <time>2017-06-05T10:06:22.000Z</time>
      </trkpt>
      <trkpt lat="45.033180" lon="4.954617">
        <ele>192.687826</ele>
        <time>2017-06-05T10:06:28.000Z</time>
      </trkpt>
      <trkpt lat="45.033073" lon="4.954557">
        <ele>192.633091</ele>
        <time>2017-06-05T10:06:33.000Z</time>
      </trkpt>
      <trkpt lat="45.032993" lon="4.954497">
        <ele>192.590031</ele>
        <time>2017-06-05T10:06:36.000Z</time>
      </trkpt>
      <trkpt lat="45.032913" lon="4.954416">
        <ele>192.543250</ele>
        <time>2017-06-05T10:06:39.000Z</time>
      </trkpt>
      <trkpt lat="45.032825" lon="4.954337">
        <ele>192.493688</ele>
        <time>2017-06-05T10:06:42.000Z</time>
      </trkpt>
      <trkpt lat="45.032738" lon="4.954270">
        <ele>192.446583</ele>
        <time>2017-06-05T10:06:45.000Z</time>
      </trkpt>
      <trkpt lat="45.032660" lon="4.954192">
        <ele>192.401161</ele>
        <time>2017-06-05T10:06:48.000Z</time>
      </trkpt>
      <trkpt lat="45.032566" lon="4.954103">
        <ele>192.347373</ele>
        <time>2017-06-05T10:06:52.000Z</time>
      </trkpt>
      <trkpt lat="45.032470" lon="4.954012">
        <ele>192.292421</ele>
        <time>2017-06-05T10:06:56.000Z</time>
      </trkpt>
      <trkpt lat="45.032375" lon="4.953922">
        <ele>192.238052</ele>
        <time>2017-06-05T10:07:00.000Z</time>
      </trkpt>
      <trkpt lat="45.032300" lon="4.953847">
        <ele>192.194376</ele>
        <time>2017-06-05T10:07:03.000Z</time>
      </trkpt>
      <trkpt lat="45.032220" lon="4.953772">
        <ele>192.148738</ele>
        <time>2017-06-05T10:07:06.000Z</time>
      </trkpt>
      <trkpt lat="45.032135" lon="4.953692">
        <ele>192.100190</ele>
        <time>2017-06-05T10:07:09.000Z</time>
      </trkpt>
      <trkpt lat="45.032060" lon="4.953614">
        <ele>192.055925</ele>
        <time>2017-06-05T10:07:12.000Z</time>
      </trkpt>
      <trkpt lat="45.031975" lon="4.953527">
        <ele>192.006035</ele>
        <time>2017-06-05T10:07:15.000Z</time>
      </trkpt>
      <trkpt lat="45.031880" lon="4.953440">
        <ele>191.952220</ele>
        <time>2017-06-05T10:07:18.000Z</time>
      </trkpt>
      <trkpt lat="45.031800" lon="4.953374">
        <ele>191.922327</ele>
        <time>2017-06-05T10:07:20.000Z</time>
      </trkpt>
      <trkpt lat="45.031690" lon="4.953280">
        <ele>191.883889</ele>
        <time>2017-06-05T10:07:23.000Z</time>
      </trkpt>
      <trkpt lat="45.031586" lon="4.953167">
        <ele>191.844668</ele>
        <time>2017-06-05T10:07:26.000Z</time>
      </trkpt>
      <trkpt lat="45.031475" lon="4.953071">
        <ele>191.805755</ele>
        <time>2017-06-05T10:07:29.000Z</time>
      </trkpt>
      <trkpt lat="45.031376" lon="4.952972">
        <ele>191.769494</ele>
        <time>2017-06-05T10:07:32.000Z</time>
      </trkpt>
      <trkpt lat="45.031300" lon="4.952900">
        <ele>191.742137</ele>
        <time>2017-06-05T10:07:34.000Z</time>
      </trkpt>
      <trkpt lat="45.031197" lon="4.952798">
        <ele>191.704532</ele>
        <time>2017-06-05T10:07:37.000Z</time>
      </trkpt>
      <trkpt lat="45.031094" lon="4.952698">
        <ele>191.667168</ele>
        <time>2017-06-05T10:07:40.000Z</time>
      </trkpt>
      <trkpt lat="45.030990" lon="4.952600">
        <ele>191.629793</ele>
        <time>2017-06-05T10:07:43.000Z</time>
      </trkpt>
      <trkpt lat="45.030888" lon="4.952494">
        <ele>191.591939</ele>
        <time>2017-06-05T10:07:46.000Z</time>
      </trkpt>
      <trkpt lat="45.030785" lon="4.952399">
        <ele>191.555162</ele>
        <time>2017-06-05T10:07:49.000Z</time>
      </trkpt>
      <trkpt lat="45.030678" lon="4.952306">
        <ele>191.517601</ele>
        <time>2017-06-05T10:07:52.000Z</time>
      </trkpt>
      <trkpt lat="45.030586" lon="4.952219">
        <ele>191.484502</ele>
        <time>2017-06-05T10:07:55.000Z</time>
      </trkpt>
      <trkpt lat="45.030483" lon="4.952127">
        <ele>191.448068</ele>
        <time>2017-06-05T10:07:58.000Z</time>
      </trkpt>
      <trkpt lat="45.030380" lon="4.952034">
        <ele>191.411521</ele>
        <time>2017-06-05T10:08:01.000Z</time>
      </trkpt>
      <trkpt lat="45.030280" lon="4.951939">
        <ele>191.394032</ele>
        <time>2017-06-05T10:08:04.000Z</time>
      </trkpt>
      <trkpt lat="45.030170" lon="4.951850">
        <ele>191.377544</ele>
        <time>2017-06-05T10:08:07.000Z</time>
      </trkpt>
      <trkpt lat="45.030067" lon="4.951765">
        <ele>191.362030</ele>
        <time>2017-06-05T10:08:10.000Z</time>
      </trkpt>
      <trkpt lat="45.029957" lon="4.951685">
        <ele>191.345937</ele>
        <time>2017-06-05T10:08:13.000Z</time>
      </trkpt>
      <trkpt lat="45.029842" lon="4.951616">
        <ele>191.329684</ele>
        <time>2017-06-05T10:08:16.000Z</time>
      </trkpt>
      <trkpt lat="45.029724" lon="4.951581">
        <ele>191.313997</ele>
        <time>2017-06-05T10:08:19.000Z</time>
      </trkpt>
      <trkpt lat="45.029602" lon="4.951541">
        <ele>191.297702</ele>
        <time>2017-06-05T10:08:22.000Z</time>
      </trkpt>
      <trkpt lat="45.029484" lon="4.951491">
        <ele>191.281675</ele>
        <time>2017-06-05T10:08:25.000Z</time>
      </trkpt>
      <trkpt lat="45.029366" lon="4.951438">
        <ele>191.265567</ele>
        <time>2017-06-05T10:08:28.000Z</time>
      </trkpt>
      <trkpt lat="45.029250" lon="4.951382">
        <ele>191.249619</ele>
        <time>2017-06-05T10:08:31.000Z</time>
      </trkpt>
      <trkpt lat="45.029133" lon="4.951328">
        <ele>191.233606</ele>
        <time>2017-06-05T10:08:34.000Z</time>
      </trkpt>
      <trkpt lat="45.029007" lon="4.951273">
        <ele>191.216449</ele>
        <time>2017-06-05T10:08:37.000Z</time>
      </trkpt>
      <trkpt lat="45.028880" lon="4.951215">
        <ele>191.199085</ele>
        <time>2017-06-05T10:08:40.000Z</time>
      </trkpt>
      <trkpt lat="45.028774" lon="4.951166">
        <ele>191.184576</ele>
        <time>2017-06-05T10:08:43.000Z</time>
      </trkpt>
      <trkpt lat="45.028667" lon="4.951109">
        <ele>191.161927</ele>
        <time>2017-06-05T10:08:46.000Z</time>
      </trkpt>
      <trkpt lat="45.028557" lon="4.951054">
        <ele>191.120960</ele>
        <time>2017-06-05T10:08:49.000Z</time>
      </trkpt>
      <trkpt lat="45.028435" lon="4.950995">
        <ele>191.075686</ele>
        <time>2017-06-05T10:08:52.000Z</time>
      </trkpt>
      <trkpt lat="45.028305" lon="4.950940">
        <ele>191.028039</ele>
        <time>2017-06-05T10:08:55.000Z</time>
      </trkpt>
      <trkpt lat="45.028175" lon="4.950882">
        <ele>190.980174</ele>
        <time>2017-06-05T10:08:58.000Z</time>
      </trkpt>
      <trkpt lat="45.028050" lon="4.950823">
        <ele>190.933902</ele>
        <time>2017-06-05T10:09:01.000Z</time>
      </trkpt>
      <trkpt lat="45.027966" lon="4.950783">
        <ele>190.902780</ele>
        <time>2017-06-05T10:09:03.000Z</time>
      </trkpt>
      <trkpt lat="45.027843" lon="4.950719">
        <ele>190.856760</ele>
        <time>2017-06-05T10:09:06.000Z</time>
      </trkpt>
      <trkpt lat="45.027730" lon="4.950666">
        <ele>190.814957</ele>
        <time>2017-06-05T10:09:09.000Z</time>
      </trkpt>
      <trkpt lat="45.027615" lon="4.950595">
        <ele>190.770897</ele>
        <time>2017-06-05T10:09:12.000Z</time>
      </trkpt>
      <trkpt lat="45.027530" lon="4.950538">
        <ele>190.737867</ele>
        <time>2017-06-05T10:09:14.000Z</time>
      </trkpt>
      <trkpt lat="45.027454" lon="4.950470">
        <ele>190.706291</ele>
        <time>2017-06-05T10:09:16.000Z</time>
      </trkpt>
      <trkpt lat="45.027344" lon="4.950366">
        <ele>190.659834</ele>
        <time>2017-06-05T10:09:19.000Z</time>
      </trkpt>
      <trkpt lat="45.027233" lon="4.950239">
        <ele>190.609707</ele>
        <time>2017-06-05T10:09:22.000Z</time>
      </trkpt>
      <trkpt lat="45.027160" lon="4.950125">
        <ele>190.571528</ele>
        <time>2017-06-05T10:09:24.000Z</time>
      </trkpt>
      <trkpt lat="45.027090" lon="4.950013">
        <ele>190.493878</ele>
        <time>2017-06-05T10:09:26.000Z</time>
      </trkpt>
      <trkpt lat="45.027016" lon="4.949901">
        <ele>190.268954</ele>
        <time>2017-06-05T10:09:28.000Z</time>
      </trkpt>
      <trkpt lat="45.026943" lon="4.949801">
        <ele>190.058046</ele>
        <time>2017-06-05T10:09:30.000Z</time>
      </trkpt>
      <trkpt lat="45.026870" lon="4.949711">
        <ele>189.857066</ele>
        <time>2017-06-05T10:09:32.000Z</time>
      </trkpt>
      <trkpt lat="45.026787" lon="4.949639">
        <ele>189.654981</ele>
        <time>2017-06-05T10:09:34.000Z</time>
      </trkpt>
      <trkpt lat="45.026700" lon="4.949593">
        <ele>189.462198</ele>
        <time>2017-06-05T10:09:36.000Z</time>
      </trkpt>
      <trkpt lat="45.026608" lon="4.949567">
        <ele>189.267463</ele>
        <time>2017-06-05T10:09:38.000Z</time>
      </trkpt>
      <trkpt lat="45.026505" lon="4.949558">
        <ele>189.053259</ele>
        <time>2017-06-05T10:09:40.000Z</time>
      </trkpt>
      <trkpt lat="45.026400" lon="4.949558">
        <ele>188.835311</ele>
        <time>2017-06-05T10:09:42.000Z</time>
      </trkpt>
      <trkpt lat="45.026302" lon="4.949563">
        <ele>188.631761</ele>
        <time>2017-06-05T10:09:44.000Z</time>
      </trkpt>
      <trkpt lat="45.026203" lon="4.949564">
        <ele>188.426263</ele>
        <time>2017-06-05T10:09:46.000Z</time>
      </trkpt>
      <trkpt lat="45.026104" lon="4.949563">
        <ele>188.220764</ele>
        <time>2017-06-05T10:09:48.000Z</time>
      </trkpt>
      <trkpt lat="45.025978" lon="4.949551">
        <ele>187.958635</ele>
        <time>2017-06-05T10:09:51.000Z</time>
      </trkpt>
      <trkpt lat="45.025860" lon="4.949544">
        <ele>187.713488</ele>
        <time>2017-06-05T10:09:54.000Z</time>
      </trkpt>
      <trkpt lat="45.025745" lon="4.949515">
        <ele>187.471022</ele>
        <time>2017-06-05T10:09:57.000Z</time>
      </trkpt>
      <trkpt lat="45.025660" lon="4.949445">
        <ele>187.266877</ele>
        <time>2017-06-05T10:10:00.000Z</time>
      </trkpt>
      <trkpt lat="45.025600" lon="4.949328">
        <ele>187.054807</ele>
        <time>2017-06-05T10:10:03.000Z</time>
      </trkpt>
      <trkpt lat="45.025555" lon="4.949157">
        <ele>186.803054</ele>
        <time>2017-06-05T10:10:06.000Z</time>
      </trkpt>
      <trkpt lat="45.025528" lon="4.949023">
        <ele>186.745850</ele>
        <time>2017-06-05T10:10:08.000Z</time>
      </trkpt>
      <trkpt lat="45.025494" lon="4.948887">
        <ele>186.686626</ele>
        <time>2017-06-05T10:10:10.000Z</time>
      </trkpt>
      <trkpt lat="45.025460" lon="4.948744">
        <ele>186.624686</ele>
        <time>2017-06-05T10:10:12.000Z</time>
      </trkpt>
      <trkpt lat="45.025417" lon="4.948595">
        <ele>186.558612</ele>
        <time>2017-06-05T10:10:14.000Z</time>
      </trkpt>
      <trkpt lat="45.025370" lon="4.948429">
        <ele>186.485197</ele>
        <time>2017-06-05T10:10:16.000Z</time>
      </trkpt>
      <trkpt lat="45.025320" lon="4.948253">
        <ele>186.407323</ele>
        <time>2017-06-05T10:10:18.000Z</time>
      </trkpt>
      <trkpt lat="45.025265" lon="4.948075">
        <ele>186.327568</ele>
        <time>2017-06-05T10:10:20.000Z</time>
      </trkpt>
      <trkpt lat="45.025190" lon="4.947907">
        <ele>186.245991</ele>
        <time>2017-06-05T10:10:22.000Z</time>
      </trkpt>
      <trkpt lat="45.025093" lon="4.947760">
        <ele>186.163428</ele>
        <time>2017-06-05T10:10:24.000Z</time>
      </trkpt>
      <trkpt lat="45.024990" lon="4.947629">
        <ele>186.082980</ele>
        <time>2017-06-05T10:10:26.000Z</time>
      </trkpt>
      <trkpt lat="45.024883" lon="4.947536">
        <ele>186.010038</ele>
        <time>2017-06-05T10:10:28.000Z</time>
      </trkpt>
      <trkpt lat="45.024776" lon="4.947463">
        <ele>185.941038</ele>
        <time>2017-06-05T10:10:30.000Z</time>
      </trkpt>
      <trkpt lat="45.024666" lon="4.947392">
        <ele>185.870809</ele>
        <time>2017-06-05T10:10:32.000Z</time>
      </trkpt>
      <trkpt lat="45.024550" lon="4.947326">
        <ele>185.798185</ele>
        <time>2017-06-05T10:10:34.000Z</time>
      </trkpt>
      <trkpt lat="45.024437" lon="4.947251">
        <ele>185.924102</ele>
        <time>2017-06-05T10:10:36.000Z</time>
      </trkpt>
      <trkpt lat="45.024330" lon="4.947192">
        <ele>186.198383</ele>
        <time>2017-06-05T10:10:38.000Z</time>
      </trkpt>
      <trkpt lat="45.024227" lon="4.947138">
        <ele>186.460734</ele>
        <time>2017-06-05T10:10:40.000Z</time>
      </trkpt>
      <trkpt lat="45.024113" lon="4.947093">
        <ele>186.743410</ele>
        <time>2017-06-05T10:10:42.000Z</time>
      </trkpt>
      <trkpt lat="45.023994" lon="4.947045">
        <ele>187.038954</ele>
        <time>2017-06-05T10:10:44.000Z</time>
      </trkpt>
      <trkpt lat="45.023884" lon="4.947012">
        <ele>187.307519</ele>
        <time>2017-06-05T10:10:46.000Z</time>
      </trkpt>
      <trkpt lat="45.023773" lon="4.946987">
        <ele>187.575969</ele>
        <time>2017-06-05T10:10:48.000Z</time>
      </trkpt>
      <trkpt lat="45.023674" lon="4.946981">
        <ele>187.812636</ele>
        <time>2017-06-05T10:10:50.000Z</time>
      </trkpt>
      <trkpt lat="45.023570" lon="4.946971">
        <ele>188.061602</ele>
        <time>2017-06-05T10:10:52.000Z</time>
      </trkpt>
      <trkpt lat="45.023445" lon="4.946929">
        <ele>188.368455</ele>
        <time>2017-06-05T10:10:55.000Z</time>
      </trkpt>
      <trkpt lat="45.023342" lon="4.946897">
        <ele>188.620321</ele>
        <time>2017-06-05T10:10:57.000Z</time>
      </trkpt>
      <trkpt lat="45.023210" lon="4.946855">
        <ele>188.943464</ele>
        <time>2017-06-05T10:11:00.000Z</time>
      </trkpt>
      <trkpt lat="45.023098" lon="4.946827">
        <ele>189.215108</ele>
        <time>2017-06-05T10:11:03.000Z</time>
      </trkpt>
      <trkpt lat="45.023006" lon="4.946785">
        <ele>189.445997</ele>
        <time>2017-06-05T10:11:08.000Z</time>
      </trkpt>
      <trkpt lat="45.022910" lon="4.946689">
        <ele>189.726776</ele>
        <time>2017-06-05T10:11:13.000Z</time>
      </trkpt>
      <trkpt lat="45.022816" lon="4.946645">
        <ele>189.963253</ele>
        <time>2017-06-05T10:11:16.000Z</time>
      </trkpt>
      <trkpt lat="45.022700" lon="4.946602">
        <ele>190.572153</ele>
        <time>2017-06-05T10:11:20.000Z</time>
      </trkpt>
      <trkpt lat="45.022610" lon="4.946560">
        <ele>191.184127</ele>
        <time>2017-06-05T10:11:23.000Z</time>
      </trkpt>
      <trkpt lat="45.022510" lon="4.946499">
        <ele>191.887341</ele>
        <time>2017-06-05T10:11:26.000Z</time>
      </trkpt>
      <trkpt lat="45.022377" lon="4.946446">
        <ele>192.779605</ele>
        <time>2017-06-05T10:11:29.000Z</time>
      </trkpt>
      <trkpt lat="45.022263" lon="4.946382">
        <ele>193.571598</ele>
        <time>2017-06-05T10:11:32.000Z</time>
      </trkpt>
      <trkpt lat="45.022160" lon="4.946309">
        <ele>194.315511</ele>
        <time>2017-06-05T10:11:35.000Z</time>
      </trkpt>
      <trkpt lat="45.022076" lon="4.946250">
        <ele>194.921109</ele>
        <time>2017-06-05T10:11:38.000Z</time>
      </trkpt>
      <trkpt lat="45.021973" lon="4.946202">
        <ele>195.621384</ele>
        <time>2017-06-05T10:11:43.000Z</time>
      </trkpt>
      <trkpt lat="45.021885" lon="4.946137">
        <ele>196.262430</ele>
        <time>2017-06-05T10:11:49.000Z</time>
      </trkpt>
      <trkpt lat="45.021800" lon="4.946056">
        <ele>196.924219</ele>
        <time>2017-06-05T10:17:31.000Z</time>
      </trkpt>
      <trkpt lat="45.021700" lon="4.946020">
        <ele>197.590545</ele>
        <time>2017-06-05T10:17:38.000Z</time>
      </trkpt>
      <trkpt lat="45.021610" lon="4.945977">
        <ele>198.203965</ele>
        <time>2017-06-05T10:17:42.000Z</time>
      </trkpt>
      <trkpt lat="45.021500" lon="4.945920">
        <ele>198.960435</ele>
        <time>2017-06-05T10:17:46.000Z</time>
      </trkpt>
      <trkpt lat="45.021404" lon="4.945852">
        <ele>199.653713</ele>
        <time>2017-06-05T10:17:50.000Z</time>
      </trkpt>
      <trkpt lat="45.021324" lon="4.945780">
        <ele>200.265985</ele>
        <time>2017-06-05T10:17:53.000Z</time>
      </trkpt>
      <trkpt lat="45.021230" lon="4.945715">
        <ele>200.941615</ele>
        <time>2017-06-05T10:17:56.000Z</time>
      </trkpt>
      <trkpt lat="45.021114" lon="4.945622">
        <ele>201.573045</ele>
        <time>2017-06-05T10:17:59.000Z</time>
      </trkpt>
      <trkpt lat="45.021030" lon="4.945543">
        <ele>201.051990</ele>
        <time>2017-06-05T10:18:01.000Z</time>
      </trkpt>
      <trkpt lat="45.020950" lon="4.945468">
        <ele>200.556227</ele>
        <time>2017-06-05T10:18:03.000Z</time>
      </trkpt>
      <trkpt lat="45.020878" lon="4.945386">
        <ele>200.078750</ele>
        <time>2017-06-05T10:18:05.000Z</time>
      </trkpt>
      <trkpt lat="45.020810" lon="4.945290">
        <ele>199.582498</ele>
        <time>2017-06-05T10:18:07.000Z</time>
      </trkpt>
      <trkpt lat="45.020744" lon="4.945202">
        <ele>199.114001</ele>
        <time>2017-06-05T10:18:09.000Z</time>
      </trkpt>
      <trkpt lat="45.020657" lon="4.945054">
        <ele>198.411135</ele>
        <time>2017-06-05T10:18:12.000Z</time>
      </trkpt>
      <trkpt lat="45.020588" lon="4.944934">
        <ele>197.846298</ele>
        <time>2017-06-05T10:18:14.000Z</time>
      </trkpt>
      <trkpt lat="45.020500" lon="4.944812">
        <ele>197.209826</ele>
        <time>2017-06-05T10:18:16.000Z</time>
      </trkpt>
      <trkpt lat="45.020410" lon="4.944668">
        <ele>196.507957</ele>
        <time>2017-06-05T10:18:18.000Z</time>
      </trkpt>
      <trkpt lat="45.020325" lon="4.944519">
        <ele>195.808811</ele>
        <time>2017-06-05T10:18:20.000Z</time>
      </trkpt>
      <trkpt lat="45.020206" lon="4.944382">
        <ele>195.016261</ele>
        <time>2017-06-05T10:18:22.000Z</time>
      </trkpt>
      <trkpt lat="45.020084" lon="4.944245">
        <ele>194.211632</ele>
        <time>2017-06-05T10:18:24.000Z</time>
      </trkpt>
      <trkpt lat="45.019955" lon="4.944114">
        <ele>193.391342</ele>
        <time>2017-06-05T10:18:26.000Z</time>
      </trkpt>
      <trkpt lat="45.019810" lon="4.943979">
        <ele>192.494654</ele>
        <time>2017-06-05T10:18:28.000Z</time>
      </trkpt>
      <trkpt lat="45.019730" lon="4.943913">
        <ele>192.135302</ele>
        <time>2017-06-05T10:18:29.000Z</time>
      </trkpt>
      <trkpt lat="45.019573" lon="4.943793">
        <ele>191.512116</ele>
        <time>2017-06-05T10:18:31.000Z</time>
      </trkpt>
      <trkpt lat="45.019493" lon="4.943715">
        <ele>191.172812</ele>
        <time>2017-06-05T10:18:32.000Z</time>
      </trkpt>
      <trkpt lat="45.019420" lon="4.943633">
        <ele>190.847289</ele>
        <time>2017-06-05T10:18:33.000Z</time>
      </trkpt>
      <trkpt lat="45.019283" lon="4.943466">
        <ele>190.215743</ele>
        <time>2017-06-05T10:18:35.000Z</time>
      </trkpt>
      <trkpt lat="45.019157" lon="4.943301">
        <ele>189.616142</ele>
        <time>2017-06-05T10:18:37.000Z</time>
      </trkpt>
      <trkpt lat="45.019030" lon="4.943143">
        <ele>189.025523</ele>
        <time>2017-06-05T10:18:39.000Z</time>
      </trkpt>
      <trkpt lat="45.018906" lon="4.942998">
        <ele>188.463701</ele>
        <time>2017-06-05T10:18:41.000Z</time>
      </trkpt>
      <trkpt lat="45.018780" lon="4.942848">
        <ele>187.888608</ele>
        <time>2017-06-05T10:18:43.000Z</time>
      </trkpt>
      <trkpt lat="45.018658" lon="4.942705">
        <ele>187.335314</ele>
        <time>2017-06-05T10:18:45.000Z</time>
      </trkpt>
      <trkpt lat="45.018536" lon="4.942573">
        <ele>186.798935</ele>
        <time>2017-06-05T10:18:47.000Z</time>
      </trkpt>
      <trkpt lat="45.018417" lon="4.942442">
        <ele>186.272360</ele>
        <time>2017-06-05T10:18:49.000Z</time>
      </trkpt>
      <trkpt lat="45.018310" lon="4.942316">
        <ele>185.736472</ele>
        <time>2017-06-05T10:18:51.000Z</time>
      </trkpt>
      <trkpt lat="45.018215" lon="4.942201">
        <ele>185.231205</ele>
        <time>2017-06-05T10:18:53.000Z</time>
      </trkpt>
      <trkpt lat="45.018110" lon="4.942089">
        <ele>184.699793</ele>
        <time>2017-06-05T10:18:55.000Z</time>
      </trkpt>
      <trkpt lat="45.018010" lon="4.941965">
        <ele>184.162420</ele>
        <time>2017-06-05T10:18:57.000Z</time>
      </trkpt>
      <trkpt lat="45.017925" lon="4.941855">
        <ele>183.696887</ele>
        <time>2017-06-05T10:18:59.000Z</time>
      </trkpt>
      <trkpt lat="45.017834" lon="4.941775">
        <ele>183.263926</ele>
        <time>2017-06-05T10:19:02.000Z</time>
      </trkpt>
      <trkpt lat="45.017860" lon="4.941639">
        <ele>182.861475</ele>
        <time>2017-06-05T10:19:06.000Z</time>
      </trkpt>
      <trkpt lat="45.017952" lon="4.941485">
        <ele>182.285505</ele>
        <time>2017-06-05T10:19:09.000Z</time>
      </trkpt>
      <trkpt lat="45.018040" lon="4.941365">
        <ele>181.791577</ele>
        <time>2017-06-05T10:19:12.000Z</time>
      </trkpt>
      <trkpt lat="45.018036" lon="4.941227">
        <ele>181.397040</ele>
        <time>2017-06-05T10:19:16.000Z</time>
      </trkpt>
      <trkpt lat="45.017956" lon="4.941160">
        <ele>181.021349</ele>
        <time>2017-06-05T10:19:18.000Z</time>
      </trkpt>
      <trkpt lat="45.017883" lon="4.941080">
        <ele>180.648190</ele>
        <time>2017-06-05T10:19:20.000Z</time>
      </trkpt>
      <trkpt lat="45.017776" lon="4.940951">
        <ele>180.080074</ele>
        <time>2017-06-05T10:19:23.000Z</time>
      </trkpt>
      <trkpt lat="45.017696" lon="4.940842">
        <ele>179.631228</ele>
        <time>2017-06-05T10:19:25.000Z</time>
      </trkpt>
      <trkpt lat="45.017630" lon="4.940726">
        <ele>179.205862</ele>
        <time>2017-06-05T10:19:27.000Z</time>
      </trkpt>
      <trkpt lat="45.017563" lon="4.940605">
        <ele>178.821479</ele>
        <time>2017-06-05T10:19:29.000Z</time>
      </trkpt>
      <trkpt lat="45.017498" lon="4.940477">
        <ele>178.737612</ele>
        <time>2017-06-05T10:19:31.000Z</time>
      </trkpt>
      <trkpt lat="45.017418" lon="4.940370">
        <ele>178.654735</ele>
        <time>2017-06-05T10:19:33.000Z</time>
      </trkpt>
      <trkpt lat="45.017345" lon="4.940268">
        <ele>178.577496</ele>
        <time>2017-06-05T10:19:35.000Z</time>
      </trkpt>
      <trkpt lat="45.017280" lon="4.940158">
        <ele>178.501204</ele>
        <time>2017-06-05T10:19:37.000Z</time>
      </trkpt>
      <trkpt lat="45.017212" lon="4.940038">
        <ele>178.419363</ele>
        <time>2017-06-05T10:19:39.000Z</time>
      </trkpt>
      <trkpt lat="45.017150" lon="4.939899">
        <ele>178.331903</ele>
        <time>2017-06-05T10:19:41.000Z</time>
      </trkpt>
      <trkpt lat="45.017080" lon="4.939764">
        <ele>178.242810</ele>
        <time>2017-06-05T10:19:43.000Z</time>
      </trkpt>
      <trkpt lat="45.017020" lon="4.939637">
        <ele>178.161525</ele>
        <time>2017-06-05T10:19:45.000Z</time>
      </trkpt>
      <trkpt lat="45.016964" lon="4.939497">
        <ele>178.075926</ele>
        <time>2017-06-05T10:19:47.000Z</time>
      </trkpt>
      <trkpt lat="45.016903" lon="4.939364">
        <ele>177.991560</ele>
        <time>2017-06-05T10:19:49.000Z</time>
      </trkpt>
      <trkpt lat="45.016850" lon="4.939230">
        <ele>177.909851</ele>
        <time>2017-06-05T10:19:51.000Z</time>
      </trkpt>
      <trkpt lat="45.016790" lon="4.939092">
        <ele>177.823638</ele>
        <time>2017-06-05T10:19:53.000Z</time>
      </trkpt>
      <trkpt lat="45.016730" lon="4.938963">
        <ele>177.741466</ele>
        <time>2017-06-05T10:19:55.000Z</time>
      </trkpt>
      <trkpt lat="45.016680" lon="4.938849">
        <ele>177.670074</ele>
        <time>2017-06-05T10:19:57.000Z</time>
      </trkpt>
      <trkpt lat="45.016632" lon="4.938687">
        <ele>177.576601</ele>
        <time>2017-06-05T10:20:00.000Z</time>
      </trkpt>
      <trkpt lat="45.016630" lon="4.938527">
        <ele>177.491445</ele>
        <time>2017-06-05T10:20:03.000Z</time>
      </trkpt>
      <trkpt lat="45.016560" lon="4.938365">
        <ele>177.348236</ele>
        <time>2017-06-05T10:20:06.000Z</time>
      </trkpt>
      <trkpt lat="45.016460" lon="4.938321">
        <ele>177.232298</ele>
        <time>2017-06-05T10:20:08.000Z</time>
      </trkpt>
      <trkpt lat="45.016388" lon="4.938225">
        <ele>177.122763</ele>
        <time>2017-06-05T10:20:10.000Z</time>
      </trkpt>
      <trkpt lat="45.016330" lon="4.938113">
        <ele>177.014110</ele>
        <time>2017-06-05T10:20:12.000Z</time>
      </trkpt>
      <trkpt lat="45.016193" lon="4.938088">
        <ele>176.861186</ele>
        <time>2017-06-05T10:20:15.000Z</time>
      </trkpt>
      <trkpt lat="45.016094" lon="4.938143">
        <ele>176.743437</ele>
        <time>2017-06-05T10:20:18.000Z</time>
      </trkpt>
      <trkpt lat="45.016006" lon="4.937994">
        <ele>176.591490</ele>
        <time>2017-06-05T10:20:21.000Z</time>
      </trkpt>
      <trkpt lat="45.015945" lon="4.937877">
        <ele>176.477717</ele>
        <time>2017-06-05T10:20:23.000Z</time>
      </trkpt>
      <trkpt lat="45.015896" lon="4.937760">
        <ele>176.371290</ele>
        <time>2017-06-05T10:20:25.000Z</time>
      </trkpt>
      <trkpt lat="45.015854" lon="4.937633">
        <ele>176.261562</ele>
        <time>2017-06-05T10:20:27.000Z</time>
      </trkpt>
      <trkpt lat="45.015816" lon="4.937507">
        <ele>176.154356</ele>
        <time>2017-06-05T10:20:29.000Z</time>
      </trkpt>
      <trkpt lat="45.015762" lon="4.937372">
        <ele>176.032965</ele>
        <time>2017-06-05T10:20:31.000Z</time>
      </trkpt>
      <trkpt lat="45.015724" lon="4.937244">
        <ele>175.924317</ele>
        <time>2017-06-05T10:20:33.000Z</time>
      </trkpt>
      <trkpt lat="45.015690" lon="4.937114">
        <ele>175.815840</ele>
        <time>2017-06-05T10:20:35.000Z</time>
      </trkpt>
      <trkpt lat="45.015650" lon="4.936988">
        <ele>175.707745</ele>
        <time>2017-06-05T10:20:37.000Z</time>
      </trkpt>
      <trkpt lat="45.015600" lon="4.936877">
        <ele>175.604740</ele>
        <time>2017-06-05T10:20:39.000Z</time>
      </trkpt>
      <trkpt lat="45.015530" lon="4.936718">
        <ele>175.504636</ele>
        <time>2017-06-05T10:20:42.000Z</time>
      </trkpt>
      <trkpt lat="45.015470" lon="4.936562">
        <ele>175.576416</ele>
        <time>2017-06-05T10:20:45.000Z</time>
      </trkpt>
      <trkpt lat="45.015427" lon="4.936422">
        <ele>175.638111</ele>
        <time>2017-06-05T10:20:48.000Z</time>
      </trkpt>
      <trkpt lat="45.015440" lon="4.936283">
        <ele>175.694781</ele>
        <time>2017-06-05T10:20:52.000Z</time>
      </trkpt>
      <trkpt lat="45.015522" lon="4.936179">
        <ele>175.757749</ele>
        <time>2017-06-05T10:20:56.000Z</time>
      </trkpt>
      <trkpt lat="45.015583" lon="4.936084">
        <ele>175.809621</ele>
        <time>2017-06-05T10:21:01.000Z</time>
      </trkpt>
      <trkpt lat="45.015490" lon="4.936095">
        <ele>175.862979</ele>
        <time>2017-06-05T10:37:56.000Z</time>
      </trkpt>
      <trkpt lat="45.015434" lon="4.935985">
        <ele>175.917768</ele>
        <time>2017-06-05T10:38:02.000Z</time>
      </trkpt>
      <trkpt lat="45.015400" lon="4.935864">
        <ele>175.970395</ele>
        <time>2017-06-05T10:38:07.000Z</time>
      </trkpt>
      <trkpt lat="45.015358" lon="4.935721">
        <ele>176.032983</ele>
        <time>2017-06-05T10:38:43.000Z</time>
      </trkpt>
      <trkpt lat="45.015300" lon="4.935587">
        <ele>176.096489</ele>
        <time>2017-06-05T10:38:47.000Z</time>
      </trkpt>
      <trkpt lat="45.015200" lon="4.935491">
        <ele>176.165586</ele>
        <time>2017-06-05T10:38:50.000Z</time>
      </trkpt>
      <trkpt lat="45.015106" lon="4.935494">
        <ele>176.219344</ele>
        <time>2017-06-05T10:38:52.000Z</time>
      </trkpt>
      <trkpt lat="45.014996" lon="4.935559">
        <ele>176.287503</ele>
        <time>2017-06-05T10:38:55.000Z</time>
      </trkpt>
      <trkpt lat="45.014900" lon="4.935621">
        <ele>176.347841</ele>
        <time>2017-06-05T10:38:58.000Z</time>
      </trkpt>
      <trkpt lat="45.014805" lon="4.935575">
        <ele>176.405251</ele>
        <time>2017-06-05T10:39:02.000Z</time>
      </trkpt>
      <trkpt lat="45.014763" lon="4.935450">
        <ele>176.461190</ele>
        <time>2017-06-05T10:39:05.000Z</time>
      </trkpt>
      <trkpt lat="45.014732" lon="4.935320">
        <ele>176.516643</ele>
        <time>2017-06-05T10:39:08.000Z</time>
      </trkpt>
      <trkpt lat="45.014706" lon="4.935193">
        <ele>176.907114</ele>
        <time>2017-06-05T10:39:11.000Z</time>
      </trkpt>
      <trkpt lat="45.014680" lon="4.935035">
        <ele>177.390357</ele>
        <time>2017-06-05T10:39:15.000Z</time>
      </trkpt>
      <trkpt lat="45.014656" lon="4.934890">
        <ele>177.833973</ele>
        <time>2017-06-05T10:39:20.000Z</time>
      </trkpt>
      <trkpt lat="45.014610" lon="4.934757">
        <ele>178.275037</ele>
        <time>2017-06-05T10:39:26.000Z</time>
      </trkpt>
      <trkpt lat="45.014560" lon="4.934612">
        <ele>178.755619</ele>
        <time>2017-06-05T10:39:30.000Z</time>
      </trkpt>
      <trkpt lat="45.014492" lon="4.934490">
        <ele>179.218416</ele>
        <time>2017-06-05T10:39:33.000Z</time>
      </trkpt>
      <trkpt lat="45.014404" lon="4.934408">
        <ele>179.662456</ele>
        <time>2017-06-05T10:39:39.000Z</time>
      </trkpt>
      <trkpt lat="45.014310" lon="4.934301">
        <ele>180.170875</ele>
        <time>2017-06-05T10:39:43.000Z</time>
      </trkpt>
      <trkpt lat="45.014230" lon="4.934226">
        <ele>180.575294</ele>
        <time>2017-06-05T10:39:46.000Z</time>
      </trkpt>
      <trkpt lat="45.014168" lon="4.934110">
        <ele>181.008492</ele>
        <time>2017-06-05T10:39:50.000Z</time>
      </trkpt>
      <trkpt lat="45.014180" lon="4.933941">
        <ele>181.514457</ele>
        <time>2017-06-05T10:39:54.000Z</time>
      </trkpt>
      <trkpt lat="45.014194" lon="4.933787">
        <ele>181.976983</ele>
        <time>2017-06-05T10:39:57.000Z</time>
      </trkpt>
      <trkpt lat="45.014194" lon="4.933661">
        <ele>182.352323</ele>
        <time>2017-06-05T10:39:59.000Z</time>
      </trkpt>
      <trkpt lat="45.014214" lon="4.933503">
        <ele>182.830472</ele>
        <time>2017-06-05T10:40:01.000Z</time>
      </trkpt>
      <trkpt lat="45.014220" lon="4.933315">
        <ele>183.391073</ele>
        <time>2017-06-05T10:40:03.000Z</time>
      </trkpt>
      <trkpt lat="45.014206" lon="4.933140">
        <ele>183.915705</ele>
        <time>2017-06-05T10:40:05.000Z</time>
      </trkpt>
      <trkpt lat="45.014183" lon="4.932955">
        <ele>183.979844</ele>
        <time>2017-06-05T10:40:07.000Z</time>
      </trkpt>
      <trkpt lat="45.014153" lon="4.932776">
        <ele>183.811362</ele>
        <time>2017-06-05T10:40:09.000Z</time>
      </trkpt>
      <trkpt lat="45.014133" lon="4.932601">
        <ele>183.649006</ele>
        <time>2017-06-05T10:40:11.000Z</time>
      </trkpt>
      <trkpt lat="45.014103" lon="4.932441">
        <ele>183.497403</ele>
        <time>2017-06-05T10:40:13.000Z</time>
      </trkpt>
      <trkpt lat="45.014057" lon="4.932294">
        <ele>183.350171</ele>
        <time>2017-06-05T10:40:15.000Z</time>
      </trkpt>
      <trkpt lat="45.014010" lon="4.932148">
        <ele>183.203245</ele>
        <time>2017-06-05T10:40:17.000Z</time>
      </trkpt>
      <trkpt lat="45.013960" lon="4.932013">
        <ele>183.063663</ele>
        <time>2017-06-05T10:40:19.000Z</time>
      </trkpt>
      <trkpt lat="45.013905" lon="4.931882">
        <ele>182.924122</ele>
        <time>2017-06-05T10:40:21.000Z</time>
      </trkpt>
      <trkpt lat="45.013844" lon="4.931778">
        <ele>182.800357</ele>
        <time>2017-06-05T10:40:23.000Z</time>
      </trkpt>
      <trkpt lat="45.013790" lon="4.931671">
        <ele>182.679951</ele>
        <time>2017-06-05T10:40:25.000Z</time>
      </trkpt>
      <trkpt lat="45.013710" lon="4.931537">
        <ele>182.519316</ele>
        <time>2017-06-05T10:40:28.000Z</time>
      </trkpt>
      <trkpt lat="45.013626" lon="4.931382">
        <ele>182.340445</ele>
        <time>2017-06-05T10:40:31.000Z</time>
      </trkpt>
      <trkpt lat="45.013580" lon="4.931257">
        <ele>182.211379</ele>
        <time>2017-06-05T10:40:33.000Z</time>
      </trkpt>
      <trkpt lat="45.013527" lon="4.931129">
        <ele>182.075520</ele>
        <time>2017-06-05T10:40:35.000Z</time>
      </trkpt>
      <trkpt lat="45.013466" lon="4.930994">
        <ele>181.928780</ele>
        <time>2017-06-05T10:40:37.000Z</time>
      </trkpt>
      <trkpt lat="45.013410" lon="4.930851">
        <ele>181.779059</ele>
        <time>2017-06-05T10:40:39.000Z</time>
      </trkpt>
      <trkpt lat="45.013348" lon="4.930704">
        <ele>181.709518</ele>
        <time>2017-06-05T10:40:41.000Z</time>
      </trkpt>
      <trkpt lat="45.013294" lon="4.930556">
        <ele>181.649479</ele>
        <time>2017-06-05T10:40:43.000Z</time>
      </trkpt>
      <trkpt lat="45.013245" lon="4.930419">
        <ele>181.594132</ele>
        <time>2017-06-05T10:40:45.000Z</time>
      </trkpt>
      <trkpt lat="45.013187" lon="4.930286">
        <ele>181.537800</ele>
        <time>2017-06-05T10:40:47.000Z</time>
      </trkpt>
      <trkpt lat="45.013140" lon="4.930148">
        <ele>181.482581</ele>
        <time>2017-06-05T10:40:49.000Z</time>
      </trkpt>
      <trkpt lat="45.013092" lon="4.930006">
        <ele>181.425842</ele>
        <time>2017-06-05T10:40:51.000Z</time>
      </trkpt>
      <trkpt lat="45.013050" lon="4.929860">
        <ele>181.369021</ele>
        <time>2017-06-05T10:40:53.000Z</time>
      </trkpt>
      <trkpt lat="45.013010" lon="4.929710">
        <ele>181.311229</ele>
        <time>2017-06-05T10:40:55.000Z</time>
      </trkpt>
      <trkpt lat="45.012966" lon="4.929557">
        <ele>181.251686</ele>
        <time>2017-06-05T10:40:57.000Z</time>
      </trkpt>
      <trkpt lat="45.012928" lon="4.929398">
        <ele>181.191182</ele>
        <time>2017-06-05T10:40:59.000Z</time>
      </trkpt>
      <trkpt lat="45.012890" lon="4.929240">
        <ele>181.131020</ele>
        <time>2017-06-05T10:41:01.000Z</time>
      </trkpt>
      <trkpt lat="45.012856" lon="4.929083">
        <ele>181.071828</ele>
        <time>2017-06-05T10:41:03.000Z</time>
      </trkpt>
      <trkpt lat="45.012820" lon="4.928921">
        <ele>181.010612</ele>
        <time>2017-06-05T10:41:05.000Z</time>
      </trkpt>
      <trkpt lat="45.012794" lon="4.928762">
        <ele>180.951781</ele>
        <time>2017-06-05T10:41:07.000Z</time>
      </trkpt>
      <trkpt lat="45.012768" lon="4.928598">
        <ele>180.891193</ele>
        <time>2017-06-05T10:41:09.000Z</time>
      </trkpt>
      <trkpt lat="45.012737" lon="4.928433">
        <ele>180.860129</ele>
        <time>2017-06-05T10:41:11.000Z</time>
      </trkpt>
      <trkpt lat="45.012714" lon="4.928276">
        <ele>180.893478</ele>
        <time>2017-06-05T10:41:13.000Z</time>
      </trkpt>
      <trkpt lat="45.012688" lon="4.928134">
        <ele>180.923988</ele>
        <time>2017-06-05T10:41:15.000Z</time>
      </trkpt>
      <trkpt lat="45.012660" lon="4.928001">
        <ele>180.952852</ele>
        <time>2017-06-05T10:41:17.000Z</time>
      </trkpt>
      <trkpt lat="45.012640" lon="4.927859">
        <ele>180.982968</ele>
        <time>2017-06-05T10:41:19.000Z</time>
      </trkpt>
      <trkpt lat="45.012615" lon="4.927729">
        <ele>181.010990</ele>
        <time>2017-06-05T10:41:21.000Z</time>
      </trkpt>
      <trkpt lat="45.012600" lon="4.927584">
        <ele>181.041471</ele>
        <time>2017-06-05T10:41:23.000Z</time>
      </trkpt>
      <trkpt lat="45.012600" lon="4.927433">
        <ele>181.072878</ele>
        <time>2017-06-05T10:41:25.000Z</time>
      </trkpt>
      <trkpt lat="45.012600" lon="4.927275">
        <ele>181.105742</ele>
        <time>2017-06-05T10:41:27.000Z</time>
      </trkpt>
      <trkpt lat="45.012608" lon="4.927126">
        <ele>181.136823</ele>
        <time>2017-06-05T10:41:29.000Z</time>
      </trkpt>
      <trkpt lat="45.012615" lon="4.926991">
        <ele>181.164978</ele>
        <time>2017-06-05T10:41:31.000Z</time>
      </trkpt>
      <trkpt lat="45.012615" lon="4.926857">
        <ele>181.192849</ele>
        <time>2017-06-05T10:41:33.000Z</time>
      </trkpt>
      <trkpt lat="45.012590" lon="4.926734">
        <ele>181.219469</ele>
        <time>2017-06-05T10:41:35.000Z</time>
      </trkpt>
      <trkpt lat="45.012554" lon="4.926610">
        <ele>181.247351</ele>
        <time>2017-06-05T10:41:37.000Z</time>
      </trkpt>
      <trkpt lat="45.012500" lon="4.926491">
        <ele>181.276763</ele>
        <time>2017-06-05T10:41:39.000Z</time>
      </trkpt>
      <trkpt lat="45.012436" lon="4.926328">
        <ele>181.315545</ele>
        <time>2017-06-05T10:41:42.000Z</time>
      </trkpt>
      <trkpt lat="45.012390" lon="4.926208">
        <ele>181.343937</ele>
        <time>2017-06-05T10:41:44.000Z</time>
      </trkpt>
      <trkpt lat="45.012340" lon="4.926091">
        <ele>181.372374</ele>
        <time>2017-06-05T10:41:46.000Z</time>
      </trkpt>
      <trkpt lat="45.012295" lon="4.925965">
        <ele>181.299224</ele>
        <time>2017-06-05T10:41:48.000Z</time>
      </trkpt>
      <trkpt lat="45.012253" lon="4.925849">
        <ele>181.208427</ele>
        <time>2017-06-05T10:41:50.000Z</time>
      </trkpt>
      <trkpt lat="45.012210" lon="4.925734">
        <ele>181.117793</ele>
        <time>2017-06-05T10:41:52.000Z</time>
      </trkpt>
      <trkpt lat="45.012146" lon="4.925582">
        <ele>180.994538</ele>
        <time>2017-06-05T10:41:55.000Z</time>
      </trkpt>
      <trkpt lat="45.012070" lon="4.925481">
        <ele>180.891773</ele>
        <time>2017-06-05T10:41:58.000Z</time>
      </trkpt>
      <trkpt lat="45.011986" lon="4.925405">
        <ele>180.793509</ele>
        <time>2017-06-05T10:42:01.000Z</time>
      </trkpt>
      <trkpt lat="45.011950" lon="4.925235">
        <ele>180.669873</ele>
        <time>2017-06-05T10:42:04.000Z</time>
      </trkpt>
      <trkpt lat="45.011920" lon="4.925056">
        <ele>180.541710</ele>
        <time>2017-06-05T10:42:07.000Z</time>
      </trkpt>
      <trkpt lat="45.011890" lon="4.924930">
        <ele>180.449083</ele>
        <time>2017-06-05T10:42:09.000Z</time>
      </trkpt>
      <trkpt lat="45.011852" lon="4.924801">
        <ele>180.351721</ele>
        <time>2017-06-05T10:42:11.000Z</time>
      </trkpt>
      <trkpt lat="45.011820" lon="4.924680">
        <ele>180.261716</ele>
        <time>2017-06-05T10:42:13.000Z</time>
      </trkpt>
      <trkpt lat="45.011772" lon="4.924507">
        <ele>180.132240</ele>
        <time>2017-06-05T10:42:16.000Z</time>
      </trkpt>
      <trkpt lat="45.011734" lon="4.924389">
        <ele>180.041903</ele>
        <time>2017-06-05T10:42:18.000Z</time>
      </trkpt>
      <trkpt lat="45.011692" lon="4.924259">
        <ele>179.942324</ele>
        <time>2017-06-05T10:42:20.000Z</time>
      </trkpt>
      <trkpt lat="45.011650" lon="4.924129">
        <ele>179.842746</ele>
        <time>2017-06-05T10:42:22.000Z</time>
      </trkpt>
      <trkpt lat="45.011610" lon="4.924003">
        <ele>179.746518</ele>
        <time>2017-06-05T10:42:24.000Z</time>
      </trkpt>
      <trkpt lat="45.011566" lon="4.923878">
        <ele>179.649235</ele>
        <time>2017-06-05T10:42:26.000Z</time>
      </trkpt>
      <trkpt lat="45.011524" lon="4.923744">
        <ele>179.582283</ele>
        <time>2017-06-05T10:42:28.000Z</time>
      </trkpt>
      <trkpt lat="45.011475" lon="4.923613">
        <ele>179.541050</ele>
        <time>2017-06-05T10:42:30.000Z</time>
      </trkpt>
      <trkpt lat="45.011430" lon="4.923492">
        <ele>179.503013</ele>
        <time>2017-06-05T10:42:32.000Z</time>
      </trkpt>
      <trkpt lat="45.011387" lon="4.923372">
        <ele>179.465584</ele>
        <time>2017-06-05T10:42:34.000Z</time>
      </trkpt>
      <trkpt lat="45.011340" lon="4.923263">
        <ele>179.430064</ele>
        <time>2017-06-05T10:42:36.000Z</time>
      </trkpt>
      <trkpt lat="45.011280" lon="4.923151">
        <ele>179.390968</ele>
        <time>2017-06-05T10:42:38.000Z</time>
      </trkpt>
      <trkpt lat="45.011220" lon="4.923039">
        <ele>179.351873</ele>
        <time>2017-06-05T10:42:40.000Z</time>
      </trkpt>
      <trkpt lat="45.011166" lon="4.922933">
        <ele>179.315523</ele>
        <time>2017-06-05T10:42:42.000Z</time>
      </trkpt>
      <trkpt lat="45.011086" lon="4.922800">
        <ele>179.266940</ele>
        <time>2017-06-05T10:42:45.000Z</time>
      </trkpt>
      <trkpt lat="45.010998" lon="4.922662">
        <ele>179.215236</ele>
        <time>2017-06-05T10:42:48.000Z</time>
      </trkpt>
      <trkpt lat="45.010933" lon="4.922564">
        <ele>179.177851</ele>
        <time>2017-06-05T10:42:50.000Z</time>
      </trkpt>
      <trkpt lat="45.010868" lon="4.922468">
        <ele>179.140869</ele>
        <time>2017-06-05T10:42:52.000Z</time>
      </trkpt>
      <trkpt lat="45.010810" lon="4.922360">
        <ele>179.103135</ele>
        <time>2017-06-05T10:42:54.000Z</time>
      </trkpt>
      <trkpt lat="45.010746" lon="4.922248">
        <ele>179.063070</ele>
        <time>2017-06-05T10:42:56.000Z</time>
      </trkpt>
      <trkpt lat="45.010685" lon="4.922132">
        <ele>179.022848</ele>
        <time>2017-06-05T10:42:58.000Z</time>
      </trkpt>
      <trkpt lat="45.010640" lon="4.922011">
        <ele>178.984810</ele>
        <time>2017-06-05T10:43:00.000Z</time>
      </trkpt>
      <trkpt lat="45.010593" lon="4.921897">
        <ele>178.948094</ele>
        <time>2017-06-05T10:43:02.000Z</time>
      </trkpt>
      <trkpt lat="45.010517" lon="4.921742">
        <ele>178.895773</ele>
        <time>2017-06-05T10:43:05.000Z</time>
      </trkpt>
      <trkpt lat="45.010445" lon="4.921592">
        <ele>178.848920</ele>
        <time>2017-06-05T10:43:08.000Z</time>
      </trkpt>
      <trkpt lat="45.010387" lon="4.921442">
        <ele>178.804738</ele>
        <time>2017-06-05T10:43:11.000Z</time>
      </trkpt>
      <trkpt lat="45.010357" lon="4.921292">
        <ele>178.764454</ele>
        <time>2017-06-05T10:43:14.000Z</time>
      </trkpt>
      <trkpt lat="45.010323" lon="4.921174">
        <ele>178.731525</ele>
        <time>2017-06-05T10:43:17.000Z</time>
      </trkpt>
      <trkpt lat="45.010242" lon="4.921075">
        <ele>178.692395</ele>
        <time>2017-06-05T10:43:20.000Z</time>
      </trkpt>
      <trkpt lat="45.010178" lon="4.920905">
        <ele>178.642622</ele>
        <time>2017-06-05T10:43:23.000Z</time>
      </trkpt>
      <trkpt lat="45.010124" lon="4.920785">
        <ele>178.605863</ele>
        <time>2017-06-05T10:43:25.000Z</time>
      </trkpt>
      <trkpt lat="45.010080" lon="4.920663">
        <ele>178.570470</ele>
        <time>2017-06-05T10:43:27.000Z</time>
      </trkpt>
      <trkpt lat="45.010036" lon="4.920548">
        <ele>178.536678</ele>
        <time>2017-06-05T10:43:29.000Z</time>
      </trkpt>
      <trkpt lat="45.009987" lon="4.920442">
        <ele>178.503950</ele>
        <time>2017-06-05T10:43:31.000Z</time>
      </trkpt>
      <trkpt lat="45.009933" lon="4.920332">
        <ele>178.469342</ele>
        <time>2017-06-05T10:43:33.000Z</time>
      </trkpt>
      <trkpt lat="45.009888" lon="4.920216">
        <ele>178.435149</ele>
        <time>2017-06-05T10:43:35.000Z</time>
      </trkpt>
      <trkpt lat="45.009842" lon="4.920106">
        <ele>178.402122</ele>
        <time>2017-06-05T10:43:37.000Z</time>
      </trkpt>
      <trkpt lat="45.009780" lon="4.919945">
        <ele>178.354744</ele>
        <time>2017-06-05T10:43:40.000Z</time>
      </trkpt>
      <trkpt lat="45.009730" lon="4.919781">
        <ele>178.308589</ele>
        <time>2017-06-05T10:43:43.000Z</time>
      </trkpt>
      <trkpt lat="45.009693" lon="4.919663">
        <ele>178.275231</ele>
        <time>2017-06-05T10:43:45.000Z</time>
      </trkpt>
      <trkpt lat="45.009660" lon="4.919535">
        <ele>178.239979</ele>
        <time>2017-06-05T10:43:47.000Z</time>
      </trkpt>
      <trkpt lat="45.009630" lon="4.919396">
        <ele>178.198069</ele>
        <time>2017-06-05T10:43:49.000Z</time>
      </trkpt>
      <trkpt lat="45.009598" lon="4.919250">
        <ele>178.153990</ele>
        <time>2017-06-05T10:43:51.000Z</time>
      </trkpt>
      <trkpt lat="45.009575" lon="4.919105">
        <ele>178.111136</ele>
        <time>2017-06-05T10:43:53.000Z</time>
      </trkpt>
      <trkpt lat="45.009550" lon="4.918960">
        <ele>178.068097</ele>
        <time>2017-06-05T10:43:55.000Z</time>
      </trkpt>
      <trkpt lat="45.009520" lon="4.918819">
        <ele>178.025635</ele>
        <time>2017-06-05T10:43:57.000Z</time>
      </trkpt>
      <trkpt lat="45.009495" lon="4.918676">
        <ele>177.983156</ele>
        <time>2017-06-05T10:43:59.000Z</time>
      </trkpt>
      <trkpt lat="45.009468" lon="4.918541">
        <ele>177.942697</ele>
        <time>2017-06-05T10:44:01.000Z</time>
      </trkpt>
      <trkpt lat="45.009445" lon="4.918403">
        <ele>177.901811</ele>
        <time>2017-06-05T10:44:03.000Z</time>
      </trkpt>
      <trkpt lat="45.009415" lon="4.918269">
        <ele>177.861278</ele>
        <time>2017-06-05T10:44:05.000Z</time>
      </trkpt>
      <trkpt lat="45.009380" lon="4.918140">
        <ele>177.821432</ele>
        <time>2017-06-05T10:44:07.000Z</time>
      </trkpt>
      <trkpt lat="45.009342" lon="4.918014">
        <ele>177.781930</ele>
        <time>2017-06-05T10:44:09.000Z</time>
      </trkpt>
      <trkpt lat="45.009300" lon="4.917893">
        <ele>177.743058</ele>
        <time>2017-06-05T10:44:11.000Z</time>
      </trkpt>
      <trkpt lat="45.009254" lon="4.917779">
        <ele>177.705206</ele>
        <time>2017-06-05T10:44:13.000Z</time>
      </trkpt>
      <trkpt lat="45.009186" lon="4.917615">
        <ele>177.650379</ele>
        <time>2017-06-05T10:44:16.000Z</time>
      </trkpt>
      <trkpt lat="45.009132" lon="4.917503">
        <ele>177.611285</ele>
        <time>2017-06-05T10:44:18.000Z</time>
      </trkpt>
      <trkpt lat="45.009068" lon="4.917390">
        <ele>177.569532</ele>
        <time>2017-06-05T10:44:20.000Z</time>
      </trkpt>
      <trkpt lat="45.009007" lon="4.917282">
        <ele>177.529669</ele>
        <time>2017-06-05T10:44:22.000Z</time>
      </trkpt>
      <trkpt lat="45.008934" lon="4.917171">
        <ele>177.465824</ele>
        <time>2017-06-05T10:44:24.000Z</time>
      </trkpt>
      <trkpt lat="45.008860" lon="4.917063">
        <ele>177.380467</ele>
        <time>2017-06-05T10:44:26.000Z</time>
      </trkpt>
      <trkpt lat="45.008790" lon="4.916957">
        <ele>177.298145</ele>
        <time>2017-06-05T10:44:28.000Z</time>
      </trkpt>
      <trkpt lat="45.008713" lon="4.916852">
        <ele>177.212285</ele>
        <time>2017-06-05T10:44:30.000Z</time>
      </trkpt>
      <trkpt lat="45.008640" lon="4.916757">
        <ele>177.132654</ele>
        <time>2017-06-05T10:44:32.000Z</time>
      </trkpt>
      <trkpt lat="45.008568" lon="4.916654">
        <ele>177.050447</ele>
        <time>2017-06-05T10:44:34.000Z</time>
      </trkpt>
      <trkpt lat="45.008490" lon="4.916554">
        <ele>176.965939</ele>
        <time>2017-06-05T10:44:36.000Z</time>
      </trkpt>
      <trkpt lat="45.008420" lon="4.916445">
        <ele>176.882364</ele>
        <time>2017-06-05T10:44:38.000Z</time>
      </trkpt>
      <trkpt lat="45.008350" lon="4.916344">
        <ele>176.802093</ele>
        <time>2017-06-05T10:44:40.000Z</time>
      </trkpt>
      <trkpt lat="45.008280" lon="4.916244">
        <ele>176.722226</ele>
        <time>2017-06-05T10:44:42.000Z</time>
      </trkpt>
      <trkpt lat="45.008205" lon="4.916143">
        <ele>176.639095</ele>
        <time>2017-06-05T10:44:44.000Z</time>
      </trkpt>
      <trkpt lat="45.008137" lon="4.916038">
        <ele>176.558280</ele>
        <time>2017-06-05T10:44:46.000Z</time>
      </trkpt>
      <trkpt lat="45.008064" lon="4.915934">
        <ele>176.475105</ele>
        <time>2017-06-05T10:44:48.000Z</time>
      </trkpt>
      <trkpt lat="45.007990" lon="4.915831">
        <ele>176.391761</ele>
        <time>2017-06-05T10:44:50.000Z</time>
      </trkpt>
      <trkpt lat="45.007923" lon="4.915727">
        <ele>176.311907</ele>
        <time>2017-06-05T10:44:52.000Z</time>
      </trkpt>
      <trkpt lat="45.007860" lon="4.915625">
        <ele>176.235037</ele>
        <time>2017-06-05T10:44:54.000Z</time>
      </trkpt>
      <trkpt lat="45.007786" lon="4.915527">
        <ele>176.153658</ele>
        <time>2017-06-05T10:44:56.000Z</time>
      </trkpt>
      <trkpt lat="45.007720" lon="4.915423">
        <ele>176.074342</ele>
        <time>2017-06-05T10:44:58.000Z</time>
      </trkpt>
      <trkpt lat="45.007650" lon="4.915309">
        <ele>176.106774</ele>
        <time>2017-06-05T10:45:00.000Z</time>
      </trkpt>
      <trkpt lat="45.007576" lon="4.915195">
        <ele>176.158718</ele>
        <time>2017-06-05T10:45:02.000Z</time>
      </trkpt>
      <trkpt lat="45.007507" lon="4.915086">
        <ele>176.207825</ele>
        <time>2017-06-05T10:45:04.000Z</time>
      </trkpt>
      <trkpt lat="45.007442" lon="4.914982">
        <ele>176.254416</ele>
        <time>2017-06-05T10:45:06.000Z</time>
      </trkpt>
      <trkpt lat="45.007378" lon="4.914879">
        <ele>176.300441</ele>
        <time>2017-06-05T10:45:08.000Z</time>
      </trkpt>
      <trkpt lat="45.007305" lon="4.914775">
        <ele>176.349630</ele>
        <time>2017-06-05T10:45:10.000Z</time>
      </trkpt>
      <trkpt lat="45.007244" lon="4.914671">
        <ele>176.394985</ele>
        <time>2017-06-05T10:45:12.000Z</time>
      </trkpt>
      <trkpt lat="45.007180" lon="4.914574">
        <ele>176.439518</ele>
        <time>2017-06-05T10:45:14.000Z</time>
      </trkpt>
      <trkpt lat="45.007088" lon="4.914442">
        <ele>176.501731</ele>
        <time>2017-06-05T10:45:17.000Z</time>
      </trkpt>
      <trkpt lat="45.007023" lon="4.914343">
        <ele>176.547078</ele>
        <time>2017-06-05T10:45:19.000Z</time>
      </trkpt>
      <trkpt lat="45.006954" lon="4.914242">
        <ele>176.594219</ele>
        <time>2017-06-05T10:45:21.000Z</time>
      </trkpt>
      <trkpt lat="45.006890" lon="4.914150">
        <ele>176.637540</ele>
        <time>2017-06-05T10:45:23.000Z</time>
      </trkpt>
      <trkpt lat="45.006836" lon="4.914027">
        <ele>176.686136</ele>
        <time>2017-06-05T10:45:26.000Z</time>
      </trkpt>
      <trkpt lat="45.006910" lon="4.913918">
        <ele>176.736858</ele>
        <time>2017-06-05T10:45:29.000Z</time>
      </trkpt>
      <trkpt lat="45.007020" lon="4.913871">
        <ele>176.791409</ele>
        <time>2017-06-05T10:45:32.000Z</time>
      </trkpt>
      <trkpt lat="45.007133" lon="4.913783">
        <ele>176.852648</ele>
        <time>2017-06-05T10:45:35.000Z</time>
      </trkpt>
      <trkpt lat="45.007244" lon="4.913690">
        <ele>176.913895</ele>
        <time>2017-06-05T10:45:38.000Z</time>
      </trkpt>
      <trkpt lat="45.007324" lon="4.913628">
        <ele>176.934489</ele>
        <time>2017-06-05T10:45:40.000Z</time>
      </trkpt>
      <trkpt lat="45.007427" lon="4.913553">
        <ele>176.958602</ele>
        <time>2017-06-05T10:45:43.000Z</time>
      </trkpt>
      <trkpt lat="45.007515" lon="4.913498">
        <ele>176.978628</ele>
        <time>2017-06-05T10:45:46.000Z</time>
      </trkpt>
      <trkpt lat="45.007610" lon="4.913425">
        <ele>177.001132</ele>
        <time>2017-06-05T10:45:50.000Z</time>
      </trkpt>
      <trkpt lat="45.007698" lon="4.913349">
        <ele>177.022594</ele>
        <time>2017-06-05T10:45:54.000Z</time>
      </trkpt>
      <trkpt lat="45.007786" lon="4.913265">
        <ele>177.044692</ele>
        <time>2017-06-05T10:45:57.000Z</time>
      </trkpt>
      <trkpt lat="45.007890" lon="4.913167">
        <ele>177.070704</ele>
        <time>2017-06-05T10:46:00.000Z</time>
      </trkpt>
      <trkpt lat="45.007970" lon="4.913093">
        <ele>177.090600</ele>
        <time>2017-06-05T10:46:02.000Z</time>
      </trkpt>
      <trkpt lat="45.008083" lon="4.913000">
        <ele>177.117813</ele>
        <time>2017-06-05T10:46:05.000Z</time>
      </trkpt>
      <trkpt lat="45.008190" lon="4.912904">
        <ele>177.144188</ele>
        <time>2017-06-05T10:46:08.000Z</time>
      </trkpt>
      <trkpt lat="45.008286" lon="4.912820">
        <ele>177.167685</ele>
        <time>2017-06-05T10:46:11.000Z</time>
      </trkpt>
      <trkpt lat="45.008396" lon="4.912727">
        <ele>177.194360</ele>
        <time>2017-06-05T10:46:14.000Z</time>
      </trkpt>
      <trkpt lat="45.008507" lon="4.912639">
        <ele>177.220846</ele>
        <time>2017-06-05T10:46:17.000Z</time>
      </trkpt>
      <trkpt lat="45.008602" lon="4.912517">
        <ele>177.247555</ele>
        <time>2017-06-05T10:46:20.000Z</time>
      </trkpt>
      <trkpt lat="45.008650" lon="4.912407">
        <ele>177.266578</ele>
        <time>2017-06-05T10:46:22.000Z</time>
      </trkpt>
      <trkpt lat="45.008698" lon="4.912248">
        <ele>177.290766</ele>
        <time>2017-06-05T10:46:25.000Z</time>
      </trkpt>
      <trkpt lat="45.008705" lon="4.912099">
        <ele>177.281432</ele>
        <time>2017-06-05T10:46:28.000Z</time>
      </trkpt>
      <trkpt lat="45.008682" lon="4.911952">
        <ele>177.272020</ele>
        <time>2017-06-05T10:46:31.000Z</time>
      </trkpt>
      <trkpt lat="45.008648" lon="4.911791">
        <ele>177.261516</ele>
        <time>2017-06-05T10:46:34.000Z</time>
      </trkpt>
      <trkpt lat="45.008602" lon="4.911625">
        <ele>177.250371</ele>
        <time>2017-06-05T10:46:37.000Z</time>
      </trkpt>
      <trkpt lat="45.008556" lon="4.911462">
        <ele>177.239400</ele>
        <time>2017-06-05T10:46:40.000Z</time>
      </trkpt>
      <trkpt lat="45.008520" lon="4.911287">
        <ele>177.228007</ele>
        <time>2017-06-05T10:46:43.000Z</time>
      </trkpt>
      <trkpt lat="45.008480" lon="4.911116">
        <ele>177.216747</ele>
        <time>2017-06-05T10:46:46.000Z</time>
      </trkpt>
      <trkpt lat="45.008457" lon="4.910952">
        <ele>177.206296</ele>
        <time>2017-06-05T10:46:49.000Z</time>
      </trkpt>
      <trkpt lat="45.008446" lon="4.910784">
        <ele>177.195749</ele>
        <time>2017-06-05T10:46:52.000Z</time>
      </trkpt>
      <trkpt lat="45.008430" lon="4.910605">
        <ele>177.184470</ele>
        <time>2017-06-05T10:46:55.000Z</time>
      </trkpt>
      <trkpt lat="45.008423" lon="4.910441">
        <ele>177.174200</ele>
        <time>2017-06-05T10:46:58.000Z</time>
      </trkpt>
      <trkpt lat="45.008404" lon="4.910292">
        <ele>177.164735</ele>
        <time>2017-06-05T10:47:01.000Z</time>
      </trkpt>
      <trkpt lat="45.008385" lon="4.910117">
        <ele>177.153668</ele>
        <time>2017-06-05T10:47:04.000Z</time>
      </trkpt>
      <trkpt lat="45.008380" lon="4.909952">
        <ele>177.143344</ele>
        <time>2017-06-05T10:47:07.000Z</time>
      </trkpt>
      <trkpt lat="45.008392" lon="4.909803">
        <ele>177.133969</ele>
        <time>2017-06-05T10:47:10.000Z</time>
      </trkpt>
      <trkpt lat="45.008410" lon="4.909679">
        <ele>177.080776</ele>
        <time>2017-06-05T10:47:13.000Z</time>
      </trkpt>
      <trkpt lat="45.008440" lon="4.909545">
        <ele>177.006254</ele>
        <time>2017-06-05T10:47:17.000Z</time>
      </trkpt>
      <trkpt lat="45.008450" lon="4.909412">
        <ele>176.935342</ele>
        <time>2017-06-05T10:47:21.000Z</time>
      </trkpt>
      <trkpt lat="45.008465" lon="4.909266">
        <ele>176.857122</ele>
        <time>2017-06-05T10:47:25.000Z</time>
      </trkpt>
      <trkpt lat="45.008460" lon="4.909134">
        <ele>176.787038</ele>
        <time>2017-06-05T10:47:29.000Z</time>
      </trkpt>
      <trkpt lat="45.008423" lon="4.908988">
        <ele>176.704809</ele>
        <time>2017-06-05T10:47:33.000Z</time>
      </trkpt>
      <trkpt lat="45.008360" lon="4.908838">
        <ele>176.612307</ele>
        <time>2017-06-05T10:47:36.000Z</time>
      </trkpt>
      <trkpt lat="45.008280" lon="4.908716">
        <ele>176.524086</ele>
        <time>2017-06-05T10:47:39.000Z</time>
      </trkpt>
      <trkpt lat="45.008190" lon="4.908628">
        <ele>176.442038</ele>
        <time>2017-06-05T10:47:42.000Z</time>
      </trkpt>
      <trkpt lat="45.008083" lon="4.908536">
        <ele>176.348136</ele>
        <time>2017-06-05T10:47:45.000Z</time>
      </trkpt>
      <trkpt lat="45.007984" lon="4.908462">
        <ele>176.264166</ele>
        <time>2017-06-05T10:47:47.000Z</time>
      </trkpt>
      <trkpt lat="45.007893" lon="4.908385">
        <ele>176.184646</ele>
        <time>2017-06-05T10:47:49.000Z</time>
      </trkpt>
      <trkpt lat="45.007800" lon="4.908300">
        <ele>176.101611</ele>
        <time>2017-06-05T10:47:51.000Z</time>
      </trkpt>
      <trkpt lat="45.007713" lon="4.908217">
        <ele>176.022916</ele>
        <time>2017-06-05T10:47:53.000Z</time>
      </trkpt>
      <trkpt lat="45.007633" lon="4.908140">
        <ele>175.950350</ele>
        <time>2017-06-05T10:47:55.000Z</time>
      </trkpt>
      <trkpt lat="45.007553" lon="4.908064">
        <ele>175.878082</ele>
        <time>2017-06-05T10:47:57.000Z</time>
      </trkpt>
      <trkpt lat="45.007450" lon="4.907953">
        <ele>175.779416</ele>
        <time>2017-06-05T10:48:00.000Z</time>
      </trkpt>
      <trkpt lat="45.007350" lon="4.907832">
        <ele>175.614462</ele>
        <time>2017-06-05T10:48:03.000Z</time>
      </trkpt>
      <trkpt lat="45.007244" lon="4.907709">
        <ele>175.442605</ele>
        <time>2017-06-05T10:48:06.000Z</time>
      </trkpt>
      <trkpt lat="45.007175" lon="4.907626">
        <ele>175.329069</ele>
        <time>2017-06-05T10:48:08.000Z</time>
      </trkpt>
      <trkpt lat="45.007107" lon="4.907539">
        <ele>175.214137</ele>
        <time>2017-06-05T10:48:10.000Z</time>
      </trkpt>
      <trkpt lat="45.007042" lon="4.907442">
        <ele>175.095699</ele>
        <time>2017-06-05T10:48:12.000Z</time>
      </trkpt>
      <trkpt lat="45.006973" lon="4.907340">
        <ele>174.970595</ele>
        <time>2017-06-05T10:48:14.000Z</time>
      </trkpt>
      <trkpt lat="45.006916" lon="4.907241">
        <ele>174.857449</ele>
        <time>2017-06-05T10:48:16.000Z</time>
      </trkpt>
      <trkpt lat="45.006860" lon="4.907138">
        <ele>174.742301</ele>
        <time>2017-06-05T10:48:18.000Z</time>
      </trkpt>
      <trkpt lat="45.006775" lon="4.906991">
        <ele>174.574008</ele>
        <time>2017-06-05T10:48:21.000Z</time>
      </trkpt>
      <trkpt lat="45.006725" lon="4.906887">
        <ele>174.462552</ele>
        <time>2017-06-05T10:48:23.000Z</time>
      </trkpt>
      <trkpt lat="45.006668" lon="4.906777">
        <ele>174.341690</ele>
        <time>2017-06-05T10:48:25.000Z</time>
      </trkpt>
      <trkpt lat="45.006615" lon="4.906662">
        <ele>174.220035</ele>
        <time>2017-06-05T10:48:27.000Z</time>
      </trkpt>
      <trkpt lat="45.006565" lon="4.906545">
        <ele>174.098878</ele>
        <time>2017-06-05T10:48:29.000Z</time>
      </trkpt>
      <trkpt lat="45.006516" lon="4.906422">
        <ele>173.973761</ele>
        <time>2017-06-05T10:48:31.000Z</time>
      </trkpt>
      <trkpt lat="45.006460" lon="4.906303">
        <ele>173.847077</ele>
        <time>2017-06-05T10:48:33.000Z</time>
      </trkpt>
      <trkpt lat="45.006410" lon="4.906189">
        <ele>173.728188</ele>
        <time>2017-06-05T10:48:35.000Z</time>
      </trkpt>
      <trkpt lat="45.006363" lon="4.906072">
        <ele>173.608933</ele>
        <time>2017-06-05T10:48:37.000Z</time>
      </trkpt>
      <trkpt lat="45.006325" lon="4.905946">
        <ele>173.546910</ele>
        <time>2017-06-05T10:48:39.000Z</time>
      </trkpt>
      <trkpt lat="45.006280" lon="4.905814">
        <ele>173.603898</ele>
        <time>2017-06-05T10:48:41.000Z</time>
      </trkpt>
      <trkpt lat="45.006233" lon="4.905683">
        <ele>173.661025</ele>
        <time>2017-06-05T10:48:43.000Z</time>
      </trkpt>
      <trkpt lat="45.006195" lon="4.905552">
        <ele>173.716089</ele>
        <time>2017-06-05T10:48:45.000Z</time>
      </trkpt>
      <trkpt lat="45.006157" lon="4.905427">
        <ele>173.769002</ele>
        <time>2017-06-05T10:48:47.000Z</time>
      </trkpt>
      <trkpt lat="45.006126" lon="4.905306">
        <ele>173.819050</ele>
        <time>2017-06-05T10:48:49.000Z</time>
      </trkpt>
      <trkpt lat="45.006092" lon="4.905180">
        <ele>173.871497</ele>
        <time>2017-06-05T10:48:51.000Z</time>
      </trkpt>
      <trkpt lat="45.006065" lon="4.905044">
        <ele>173.926430</ele>
        <time>2017-06-05T10:48:53.000Z</time>
      </trkpt>
      <trkpt lat="45.006040" lon="4.904916">
        <ele>173.978071</ele>
        <time>2017-06-05T10:48:55.000Z</time>
      </trkpt>
      <trkpt lat="45.006012" lon="4.904773">
        <ele>174.035774</ele>
        <time>2017-06-05T10:48:57.000Z</time>
      </trkpt>
      <trkpt lat="45.005990" lon="4.904634">
        <ele>174.091167</ele>
        <time>2017-06-05T10:48:59.000Z</time>
      </trkpt>
      <trkpt lat="45.005960" lon="4.904504">
        <ele>174.144346</ele>
        <time>2017-06-05T10:49:01.000Z</time>
      </trkpt>
      <trkpt lat="45.005924" lon="4.904315">
        <ele>174.220465</ele>
        <time>2017-06-05T10:49:04.000Z</time>
      </trkpt>
      <trkpt lat="45.005905" lon="4.904176">
        <ele>174.275521</ele>
        <time>2017-06-05T10:49:06.000Z</time>
      </trkpt>
      <trkpt lat="45.005882" lon="4.904036">
        <ele>174.331414</ele>
        <time>2017-06-05T10:49:08.000Z</time>
      </trkpt>
      <trkpt lat="45.005856" lon="4.903897">
        <ele>174.387329</ele>
        <time>2017-06-05T10:49:10.000Z</time>
      </trkpt>
      <trkpt lat="45.005840" lon="4.903762">
        <ele>174.440560</ele>
        <time>2017-06-05T10:49:12.000Z</time>
      </trkpt>
      <trkpt lat="45.005820" lon="4.903622">
        <ele>174.496104</ele>
        <time>2017-06-05T10:49:14.000Z</time>
      </trkpt>
      <trkpt lat="45.005800" lon="4.903487">
        <ele>174.541988</ele>
        <time>2017-06-05T10:49:16.000Z</time>
      </trkpt>
      <trkpt lat="45.005780" lon="4.903353">
        <ele>174.582196</ele>
        <time>2017-06-05T10:49:18.000Z</time>
      </trkpt>
      <trkpt lat="45.005756" lon="4.903214">
        <ele>174.624206</ele>
        <time>2017-06-05T10:49:20.000Z</time>
      </trkpt>
      <trkpt lat="45.005737" lon="4.903076">
        <ele>174.665483</ele>
        <time>2017-06-05T10:49:22.000Z</time>
      </trkpt>
      <trkpt lat="45.005714" lon="4.902939">
        <ele>174.706824</ele>
        <time>2017-06-05T10:49:24.000Z</time>
      </trkpt>
      <trkpt lat="45.005695" lon="4.902794">
        <ele>174.750120</ele>
        <time>2017-06-05T10:49:26.000Z</time>
      </trkpt>
      <trkpt lat="45.005676" lon="4.902653">
        <ele>174.792263</ele>
        <time>2017-06-05T10:49:28.000Z</time>
      </trkpt>
      <trkpt lat="45.005660" lon="4.902507">
        <ele>174.835639</ele>
        <time>2017-06-05T10:49:30.000Z</time>
      </trkpt>
      <trkpt lat="45.005646" lon="4.902366">
        <ele>174.877443</ele>
        <time>2017-06-05T10:49:32.000Z</time>
      </trkpt>
      <trkpt lat="45.005630" lon="4.902228">
        <ele>174.918500</ele>
        <time>2017-06-05T10:49:34.000Z</time>
      </trkpt>
      <trkpt lat="45.005610" lon="4.902081">
        <ele>174.962451</ele>
        <time>2017-06-05T10:49:36.000Z</time>
      </trkpt>
      <trkpt lat="45.005592" lon="4.901931">
        <ele>175.007120</ele>
        <time>2017-06-05T10:49:38.000Z</time>
      </trkpt>
      <trkpt lat="45.005580" lon="4.901783">
        <ele>175.050857</ele>
        <time>2017-06-05T10:49:40.000Z</time>
      </trkpt>
      <trkpt lat="45.005560" lon="4.901634">
        <ele>175.095385</ele>
        <time>2017-06-05T10:49:42.000Z</time>
      </trkpt>
      <trkpt lat="45.005550" lon="4.901480">
        <ele>175.140789</ele>
        <time>2017-06-05T10:49:44.000Z</time>
      </trkpt>
      <trkpt lat="45.005540" lon="4.901333">
        <ele>175.184147</ele>
        <time>2017-06-05T10:49:46.000Z</time>
      </trkpt>
      <trkpt lat="45.005530" lon="4.901190">
        <ele>175.226336</ele>
        <time>2017-06-05T10:49:48.000Z</time>
      </trkpt>
      <trkpt lat="45.005520" lon="4.901051">
        <ele>175.258310</ele>
        <time>2017-06-05T10:49:50.000Z</time>
      </trkpt>
      <trkpt lat="45.005512" lon="4.900915">
        <ele>175.146172</ele>
        <time>2017-06-05T10:49:52.000Z</time>
      </trkpt>
      <trkpt lat="45.005497" lon="4.900775">
        <ele>175.029819</ele>
        <time>2017-06-05T10:49:54.000Z</time>
      </trkpt>
      <trkpt lat="45.005493" lon="4.900636">
        <ele>174.915507</ele>
        <time>2017-06-05T10:49:56.000Z</time>
      </trkpt>
      <trkpt lat="45.005480" lon="4.900490">
        <ele>174.794590</ele>
        <time>2017-06-05T10:49:58.000Z</time>
      </trkpt>
      <trkpt lat="45.005470" lon="4.900349">
        <ele>174.678147</ele>
        <time>2017-06-05T10:50:00.000Z</time>
      </trkpt>
      <trkpt lat="45.005463" lon="4.900202">
        <ele>174.557082</ele>
        <time>2017-06-05T10:50:02.000Z</time>
      </trkpt>
      <trkpt lat="45.005455" lon="4.900050">
        <ele>174.431837</ele>
        <time>2017-06-05T10:50:04.000Z</time>
      </trkpt>
      <trkpt lat="45.005447" lon="4.899906">
        <ele>174.313146</ele>
        <time>2017-06-05T10:50:06.000Z</time>
      </trkpt>
      <trkpt lat="45.005440" lon="4.899753">
        <ele>174.187161</ele>
        <time>2017-06-05T10:50:08.000Z</time>
      </trkpt>
      <trkpt lat="45.005432" lon="4.899615">
        <ele>174.073385</ele>
        <time>2017-06-05T10:50:10.000Z</time>
      </trkpt>
      <trkpt lat="45.005430" lon="4.899475">
        <ele>173.958322</ele>
        <time>2017-06-05T10:50:12.000Z</time>
      </trkpt>
      <trkpt lat="45.005424" lon="4.899327">
        <ele>173.836509</ele>
        <time>2017-06-05T10:50:14.000Z</time>
      </trkpt>
      <trkpt lat="45.005417" lon="4.899169">
        <ele>173.706424</ele>
        <time>2017-06-05T10:50:16.000Z</time>
      </trkpt>
      <trkpt lat="45.005417" lon="4.899009">
        <ele>173.574950</ele>
        <time>2017-06-05T10:50:18.000Z</time>
      </trkpt>
      <trkpt lat="45.005417" lon="4.898859">
        <ele>173.451694</ele>
        <time>2017-06-05T10:50:20.000Z</time>
      </trkpt>
      <trkpt lat="45.005420" lon="4.898705">
        <ele>173.325102</ele>
        <time>2017-06-05T10:50:22.000Z</time>
      </trkpt>
      <trkpt lat="45.005420" lon="4.898550">
        <ele>173.197737</ele>
        <time>2017-06-05T10:50:24.000Z</time>
      </trkpt>
      <trkpt lat="45.005413" lon="4.898403">
        <ele>173.131472</ele>
        <time>2017-06-05T10:50:26.000Z</time>
      </trkpt>
      <trkpt lat="45.005410" lon="4.898249">
        <ele>173.075706</ele>
        <time>2017-06-05T10:50:28.000Z</time>
      </trkpt>
      <trkpt lat="45.005410" lon="4.898098">
        <ele>173.021047</ele>
        <time>2017-06-05T10:50:30.000Z</time>
      </trkpt>
      <trkpt lat="45.005400" lon="4.897941">
        <ele>172.963986</ele>
        <time>2017-06-05T10:50:32.000Z</time>
      </trkpt>
      <trkpt lat="45.005398" lon="4.897780">
        <ele>172.905699</ele>
        <time>2017-06-05T10:50:34.000Z</time>
      </trkpt>
      <trkpt lat="45.005394" lon="4.897615">
        <ele>172.845937</ele>
        <time>2017-06-05T10:50:36.000Z</time>
      </trkpt>
      <trkpt lat="45.005398" lon="4.897452">
        <ele>172.786898</ele>
        <time>2017-06-05T10:50:38.000Z</time>
      </trkpt>
      <trkpt lat="45.005398" lon="4.897286">
        <ele>172.726810</ele>
        <time>2017-06-05T10:50:40.000Z</time>
      </trkpt>
      <trkpt lat="45.005394" lon="4.897115">
        <ele>172.664877</ele>
        <time>2017-06-05T10:50:42.000Z</time>
      </trkpt>
      <trkpt lat="45.005394" lon="4.896945">
        <ele>172.603341</ele>
        <time>2017-06-05T10:50:44.000Z</time>
      </trkpt>
      <trkpt lat="45.005390" lon="4.896765">
        <ele>172.538152</ele>
        <time>2017-06-05T10:50:46.000Z</time>
      </trkpt>
      <trkpt lat="45.005394" lon="4.896594">
        <ele>172.476220</ele>
        <time>2017-06-05T10:50:48.000Z</time>
      </trkpt>
      <trkpt lat="45.005390" lon="4.896417">
        <ele>172.412116</ele>
        <time>2017-06-05T10:50:50.000Z</time>
      </trkpt>
      <trkpt lat="45.005390" lon="4.896234">
        <ele>172.345874</ele>
        <time>2017-06-05T10:50:52.000Z</time>
      </trkpt>
      <trkpt lat="45.005390" lon="4.896058">
        <ele>172.282166</ele>
        <time>2017-06-05T10:50:54.000Z</time>
      </trkpt>
      <trkpt lat="45.005386" lon="4.895892">
        <ele>172.288823</ele>
        <time>2017-06-05T10:50:56.000Z</time>
      </trkpt>
      <trkpt lat="45.005383" lon="4.895728">
        <ele>172.354400</ele>
        <time>2017-06-05T10:50:58.000Z</time>
      </trkpt>
      <trkpt lat="45.005383" lon="4.895576">
        <ele>172.415158</ele>
        <time>2017-06-05T10:51:00.000Z</time>
      </trkpt>
      <trkpt lat="45.005380" lon="4.895415">
        <ele>172.479536</ele>
        <time>2017-06-05T10:51:02.000Z</time>
      </trkpt>
      <trkpt lat="45.005380" lon="4.895248">
        <ele>172.546291</ele>
        <time>2017-06-05T10:51:04.000Z</time>
      </trkpt>
      <trkpt lat="45.005380" lon="4.895084">
        <ele>172.611846</ele>
        <time>2017-06-05T10:51:06.000Z</time>
      </trkpt>
      <trkpt lat="45.005375" lon="4.894925">
        <ele>172.675465</ele>
        <time>2017-06-05T10:51:08.000Z</time>
      </trkpt>
      <trkpt lat="45.005380" lon="4.894773">
        <ele>172.736289</ele>
        <time>2017-06-05T10:51:10.000Z</time>
      </trkpt>
      <trkpt lat="45.005380" lon="4.894619">
        <ele>172.797847</ele>
        <time>2017-06-05T10:51:12.000Z</time>
      </trkpt>
      <trkpt lat="45.005375" lon="4.894456">
        <ele>172.863064</ele>
        <time>2017-06-05T10:51:14.000Z</time>
      </trkpt>
      <trkpt lat="45.005370" lon="4.894297">
        <ele>172.926683</ele>
        <time>2017-06-05T10:51:16.000Z</time>
      </trkpt>
      <trkpt lat="45.005375" lon="4.894136">
        <ele>172.991101</ele>
        <time>2017-06-05T10:51:18.000Z</time>
      </trkpt>
      <trkpt lat="45.005370" lon="4.893976">
        <ele>173.055120</ele>
        <time>2017-06-05T10:51:20.000Z</time>
      </trkpt>
      <trkpt lat="45.005367" lon="4.893811">
        <ele>173.121096</ele>
        <time>2017-06-05T10:51:22.000Z</time>
      </trkpt>
      <trkpt lat="45.005363" lon="4.893650">
        <ele>173.185492</ele>
        <time>2017-06-05T10:51:24.000Z</time>
      </trkpt>
      <trkpt lat="45.005360" lon="4.893486">
        <ele>173.251069</ele>
        <time>2017-06-05T10:51:26.000Z</time>
      </trkpt>
      <trkpt lat="45.005360" lon="4.893328">
        <ele>173.222770</ele>
        <time>2017-06-05T10:51:28.000Z</time>
      </trkpt>
      <trkpt lat="45.005360" lon="4.893168">
        <ele>173.152517</ele>
        <time>2017-06-05T10:51:30.000Z</time>
      </trkpt>
      <trkpt lat="45.005360" lon="4.893009">
        <ele>173.082704</ele>
        <time>2017-06-05T10:51:32.000Z</time>
      </trkpt>
      <trkpt lat="45.005363" lon="4.892847">
        <ele>173.011549</ele>
        <time>2017-06-05T10:51:34.000Z</time>
      </trkpt>
      <trkpt lat="45.005363" lon="4.892685">
        <ele>172.940418</ele>
        <time>2017-06-05T10:51:36.000Z</time>
      </trkpt>
      <trkpt lat="45.005363" lon="4.892524">
        <ele>172.869727</ele>
        <time>2017-06-05T10:51:38.000Z</time>
      </trkpt>
      <trkpt lat="45.005363" lon="4.892366">
        <ele>172.800353</ele>
        <time>2017-06-05T10:51:40.000Z</time>
      </trkpt>
      <trkpt lat="45.005360" lon="4.892216">
        <ele>172.734465</ele>
        <time>2017-06-05T10:51:42.000Z</time>
      </trkpt>
      <trkpt lat="45.005360" lon="4.892057">
        <ele>172.664652</ele>
        <time>2017-06-05T10:51:44.000Z</time>
      </trkpt>
      <trkpt lat="45.005356" lon="4.891901">
        <ele>172.596110</ele>
        <time>2017-06-05T10:51:46.000Z</time>
      </trkpt>
      <trkpt lat="45.005352" lon="4.891733">
        <ele>172.522304</ele>
        <time>2017-06-05T10:51:48.000Z</time>
      </trkpt>
      <trkpt lat="45.005356" lon="4.891561">
        <ele>172.446741</ele>
        <time>2017-06-05T10:51:50.000Z</time>
      </trkpt>
      <trkpt lat="45.005352" lon="4.891391">
        <ele>172.372057</ele>
        <time>2017-06-05T10:51:52.000Z</time>
      </trkpt>
      <trkpt lat="45.005356" lon="4.891223">
        <ele>172.298250</ele>
        <time>2017-06-05T10:51:54.000Z</time>
      </trkpt>
      <trkpt lat="45.005356" lon="4.891066">
        <ele>172.229315</ele>
        <time>2017-06-05T10:51:56.000Z</time>
      </trkpt>
      <trkpt lat="45.005352" lon="4.890896">
        <ele>172.154631</ele>
        <time>2017-06-05T10:51:58.000Z</time>
      </trkpt>
      <trkpt lat="45.005344" lon="4.890725">
        <ele>172.100329</ele>
        <time>2017-06-05T10:52:00.000Z</time>
      </trkpt>
      <trkpt lat="45.005333" lon="4.890558">
        <ele>172.047448</ele>
        <time>2017-06-05T10:52:02.000Z</time>
      </trkpt>
      <trkpt lat="45.005318" lon="4.890396">
        <ele>171.995936</ele>
        <time>2017-06-05T10:52:04.000Z</time>
      </trkpt>
      <trkpt lat="45.005300" lon="4.890235">
        <ele>171.944545</ele>
        <time>2017-06-05T10:52:06.000Z</time>
      </trkpt>
      <trkpt lat="45.005272" lon="4.890072">
        <ele>171.891658</ele>
        <time>2017-06-05T10:52:08.000Z</time>
      </trkpt>
      <trkpt lat="45.005245" lon="4.889911">
        <ele>171.839489</ele>
        <time>2017-06-05T10:52:10.000Z</time>
      </trkpt>
      <trkpt lat="45.005210" lon="4.889748">
        <ele>171.785780</ele>
        <time>2017-06-05T10:52:12.000Z</time>
      </trkpt>
      <trkpt lat="45.005177" lon="4.889585">
        <ele>171.732323</ele>
        <time>2017-06-05T10:52:14.000Z</time>
      </trkpt>
      <trkpt lat="45.005140" lon="4.889423">
        <ele>171.678648</ele>
        <time>2017-06-05T10:52:16.000Z</time>
      </trkpt>
      <trkpt lat="45.005100" lon="4.889260">
        <ele>171.624249</ele>
        <time>2017-06-05T10:52:18.000Z</time>
      </trkpt>
      <trkpt lat="45.005054" lon="4.889104">
        <ele>171.570959</ele>
        <time>2017-06-05T10:52:20.000Z</time>
      </trkpt>
      <trkpt lat="45.005000" lon="4.888957">
        <ele>171.518730</ele>
        <time>2017-06-05T10:52:22.000Z</time>
      </trkpt>
      <trkpt lat="45.004944" lon="4.888806">
        <ele>171.464970</ele>
        <time>2017-06-05T10:52:24.000Z</time>
      </trkpt>
      <trkpt lat="45.004887" lon="4.888652">
        <ele>171.410165</ele>
        <time>2017-06-05T10:52:26.000Z</time>
      </trkpt>
      <trkpt lat="45.004826" lon="4.888510">
        <ele>171.357779</ele>
        <time>2017-06-05T10:52:28.000Z</time>
      </trkpt>
      <trkpt lat="45.004757" lon="4.888366">
        <ele>171.352923</ele>
        <time>2017-06-05T10:52:30.000Z</time>
      </trkpt>
      <trkpt lat="45.004690" lon="4.888233">
        <ele>171.354301</ele>
        <time>2017-06-05T10:52:32.000Z</time>
      </trkpt>
      <trkpt lat="45.004627" lon="4.888101">
        <ele>171.355645</ele>
        <time>2017-06-05T10:52:34.000Z</time>
      </trkpt>
      <trkpt lat="45.004562" lon="4.887979">
        <ele>171.356934</ele>
        <time>2017-06-05T10:52:36.000Z</time>
      </trkpt>
      <trkpt lat="45.004486" lon="4.887853">
        <ele>171.358332</ele>
        <time>2017-06-05T10:52:38.000Z</time>
      </trkpt>
      <trkpt lat="45.004410" lon="4.887730">
        <ele>171.359711</ele>
        <time>2017-06-05T10:52:40.000Z</time>
      </trkpt>
      <trkpt lat="45.004326" lon="4.887608">
        <ele>171.361148</ele>
        <time>2017-06-05T10:52:42.000Z</time>
      </trkpt>
      <trkpt lat="45.004242" lon="4.887488">
        <ele>171.362573</ele>
        <time>2017-06-05T10:52:44.000Z</time>
      </trkpt>
      <trkpt lat="45.004150" lon="4.887371">
        <ele>171.364050</ele>
        <time>2017-06-05T10:52:46.000Z</time>
      </trkpt>
      <trkpt lat="45.004055" lon="4.887260">
        <ele>171.365521</ele>
        <time>2017-06-05T10:52:48.000Z</time>
      </trkpt>
      <trkpt lat="45.003952" lon="4.887150">
        <ele>171.367061</ele>
        <time>2017-06-05T10:52:50.000Z</time>
      </trkpt>
      <trkpt lat="45.003853" lon="4.887050">
        <ele>171.368513</ele>
        <time>2017-06-05T10:52:52.000Z</time>
      </trkpt>
      <trkpt lat="45.003757" lon="4.886952">
        <ele>171.369926</ele>
        <time>2017-06-05T10:52:54.000Z</time>
      </trkpt>
      <trkpt lat="45.003660" lon="4.886867">
        <ele>171.371288</ele>
        <time>2017-06-05T10:52:56.000Z</time>
      </trkpt>
      <trkpt lat="45.003555" lon="4.886792">
        <ele>171.372692</ele>
        <time>2017-06-05T10:52:58.000Z</time>
      </trkpt>
      <trkpt lat="45.003450" lon="4.886706">
        <ele>171.313769</ele>
        <time>2017-06-05T10:53:00.000Z</time>
      </trkpt>
      <trkpt lat="45.003353" lon="4.886631">
        <ele>171.239378</ele>
        <time>2017-06-05T10:53:02.000Z</time>
      </trkpt>
      <trkpt lat="45.003250" lon="4.886572">
        <ele>171.164598</ele>
        <time>2017-06-05T10:53:04.000Z</time>
      </trkpt>
      <trkpt lat="45.003140" lon="4.886506">
        <ele>171.084191</ele>
        <time>2017-06-05T10:53:06.000Z</time>
      </trkpt>
      <trkpt lat="45.003033" lon="4.886448">
        <ele>171.007082</ele>
        <time>2017-06-05T10:53:08.000Z</time>
      </trkpt>
      <trkpt lat="45.002922" lon="4.886391">
        <ele>170.927616</ele>
        <time>2017-06-05T10:53:10.000Z</time>
      </trkpt>
      <trkpt lat="45.002808" lon="4.886330">
        <ele>170.845597</ele>
        <time>2017-06-05T10:53:12.000Z</time>
      </trkpt>
      <trkpt lat="45.002686" lon="4.886272">
        <ele>170.758986</ele>
        <time>2017-06-05T10:53:14.000Z</time>
      </trkpt>
      <trkpt lat="45.002570" lon="4.886205">
        <ele>170.674669</ele>
        <time>2017-06-05T10:53:16.000Z</time>
      </trkpt>
      <trkpt lat="45.002457" lon="4.886146">
        <ele>170.593613</ele>
        <time>2017-06-05T10:53:18.000Z</time>
      </trkpt>
      <trkpt lat="45.002335" lon="4.886090">
        <ele>170.507301</ele>
        <time>2017-06-05T10:53:20.000Z</time>
      </trkpt>
      <trkpt lat="45.002216" lon="4.886029">
        <ele>170.422126</ele>
        <time>2017-06-05T10:53:22.000Z</time>
      </trkpt>
      <trkpt lat="45.002100" lon="4.885973">
        <ele>170.339645</ele>
        <time>2017-06-05T10:53:24.000Z</time>
      </trkpt>
      <trkpt lat="45.001976" lon="4.885915">
        <ele>170.251758</ele>
        <time>2017-06-05T10:53:26.000Z</time>
      </trkpt>
      <trkpt lat="45.001858" lon="4.885850">
        <ele>170.166543</ele>
        <time>2017-06-05T10:53:28.000Z</time>
      </trkpt>
      <trkpt lat="45.001736" lon="4.885793">
        <ele>170.130722</ele>
        <time>2017-06-05T10:53:30.000Z</time>
      </trkpt>
      <trkpt lat="45.001614" lon="4.885730">
        <ele>170.096863</ele>
        <time>2017-06-05T10:53:32.000Z</time>
      </trkpt>
      <trkpt lat="45.001495" lon="4.885669">
        <ele>170.063866</ele>
        <time>2017-06-05T10:53:34.000Z</time>
      </trkpt>
      <trkpt lat="45.001370" lon="4.885607">
        <ele>170.029333</ele>
        <time>2017-06-05T10:53:36.000Z</time>
      </trkpt>
      <trkpt lat="45.001244" lon="4.885545">
        <ele>169.994553</ele>
        <time>2017-06-05T10:53:38.000Z</time>
      </trkpt>
      <trkpt lat="45.001130" lon="4.885487">
        <ele>169.962969</ele>
        <time>2017-06-05T10:53:40.000Z</time>
      </trkpt>
      <trkpt lat="45.001000" lon="4.885420">
        <ele>169.926899</ele>
        <time>2017-06-05T10:53:42.000Z</time>
      </trkpt>
      <trkpt lat="45.000870" lon="4.885354">
        <ele>169.890891</ele>
        <time>2017-06-05T10:53:44.000Z</time>
      </trkpt>
      <trkpt lat="45.000736" lon="4.885288">
        <ele>169.853899</ele>
        <time>2017-06-05T10:53:46.000Z</time>
      </trkpt>
      <trkpt lat="45.000607" lon="4.885228">
        <ele>169.818497</ele>
        <time>2017-06-05T10:53:48.000Z</time>
      </trkpt>
      <trkpt lat="45.000480" lon="4.885169">
        <ele>169.783648</ele>
        <time>2017-06-05T10:53:50.000Z</time>
      </trkpt>
      <trkpt lat="45.000355" lon="4.885104">
        <ele>169.748928</ele>
        <time>2017-06-05T10:53:52.000Z</time>
      </trkpt>
      <trkpt lat="45.000233" lon="4.885043">
        <ele>169.715194</ele>
        <time>2017-06-05T10:53:54.000Z</time>
      </trkpt>
      <trkpt lat="45.000107" lon="4.884981">
        <ele>169.667568</ele>
        <time>2017-06-05T10:53:56.000Z</time>
      </trkpt>
      <trkpt lat="44.999980" lon="4.884916">
        <ele>169.598684</ele>
        <time>2017-06-05T10:53:58.000Z</time>
      </trkpt>
      <trkpt lat="44.999863" lon="4.884852">
        <ele>169.534703</ele>
        <time>2017-06-05T10:54:00.000Z</time>
      </trkpt>
      <trkpt lat="44.999740" lon="4.884798">
        <ele>169.469018</ele>
        <time>2017-06-05T10:54:02.000Z</time>
      </trkpt>
      <trkpt lat="44.999615" lon="4.884741">
        <ele>169.402033</ele>
        <time>2017-06-05T10:54:04.000Z</time>
      </trkpt>
      <trkpt lat="44.999500" lon="4.884680">
        <ele>169.339390</ele>
        <time>2017-06-05T10:54:06.000Z</time>
      </trkpt>
      <trkpt lat="44.999380" lon="4.884621">
        <ele>169.274595</ele>
        <time>2017-06-05T10:54:08.000Z</time>
      </trkpt>
      <trkpt lat="44.999264" lon="4.884567">
        <ele>169.212310</ele>
        <time>2017-06-05T10:54:10.000Z</time>
      </trkpt>
      <trkpt lat="44.999146" lon="4.884506">
        <ele>169.148232</ele>
        <time>2017-06-05T10:54:12.000Z</time>
      </trkpt>
      <trkpt lat="44.999027" lon="4.884444">
        <ele>169.083552</ele>
        <time>2017-06-05T10:54:14.000Z</time>
      </trkpt>
      <trkpt lat="44.998900" lon="4.884377">
        <ele>169.014419</ele>
        <time>2017-06-05T10:54:16.000Z</time>
      </trkpt>
      <trkpt lat="44.998783" lon="4.884309">
        <ele>168.949904</ele>
        <time>2017-06-05T10:54:18.000Z</time>
      </trkpt>
      <trkpt lat="44.998665" lon="4.884246">
        <ele>168.885575</ele>
        <time>2017-06-05T10:54:20.000Z</time>
      </trkpt>
      <trkpt lat="44.998547" lon="4.884186">
        <ele>168.821621</ele>
        <time>2017-06-05T10:54:22.000Z</time>
      </trkpt>
      <trkpt lat="44.998430" lon="4.884131">
        <ele>168.793460</ele>
        <time>2017-06-05T10:54:24.000Z</time>
      </trkpt>
      <trkpt lat="44.998302" lon="4.884068">
        <ele>168.859437</ele>
        <time>2017-06-05T10:54:26.000Z</time>
      </trkpt>
      <trkpt lat="44.998180" lon="4.884005">
        <ele>168.922663</ele>
        <time>2017-06-05T10:54:28.000Z</time>
      </trkpt>
      <trkpt lat="44.998055" lon="4.883941">
        <ele>168.987379</ele>
        <time>2017-06-05T10:54:30.000Z</time>
      </trkpt>
      <trkpt lat="44.997940" lon="4.883871">
        <ele>169.048327</ele>
        <time>2017-06-05T10:54:32.000Z</time>
      </trkpt>
      <trkpt lat="44.997837" lon="4.883781">
        <ele>169.107268</ele>
        <time>2017-06-05T10:54:34.000Z</time>
      </trkpt>
      <trkpt lat="44.997730" lon="4.883686">
        <ele>169.168771</ele>
        <time>2017-06-05T10:54:36.000Z</time>
      </trkpt>
      <trkpt lat="44.997635" lon="4.883577">
        <ele>169.228324</ele>
        <time>2017-06-05T10:54:38.000Z</time>
      </trkpt>
      <trkpt lat="44.997543" lon="4.883465">
        <ele>169.287420</ele>
        <time>2017-06-05T10:54:40.000Z</time>
      </trkpt>
      <trkpt lat="44.997460" lon="4.883346">
        <ele>169.344958</ele>
        <time>2017-06-05T10:54:42.000Z</time>
      </trkpt>
      <trkpt lat="44.997383" lon="4.883225">
        <ele>169.400994</ele>
        <time>2017-06-05T10:54:44.000Z</time>
      </trkpt>
      <trkpt lat="44.997314" lon="4.883098">
        <ele>169.456126</ele>
        <time>2017-06-05T10:54:46.000Z</time>
      </trkpt>
      <trkpt lat="44.997253" lon="4.882956">
        <ele>169.513321</ele>
        <time>2017-06-05T10:54:48.000Z</time>
      </trkpt>
      <trkpt lat="44.997196" lon="4.882814">
        <ele>169.569529</ele>
        <time>2017-06-05T10:54:50.000Z</time>
      </trkpt>
      <trkpt lat="44.997140" lon="4.882669">
        <ele>169.626403</ele>
        <time>2017-06-05T10:54:52.000Z</time>
      </trkpt>
      <trkpt lat="44.997097" lon="4.882516">
        <ele>169.682845</ele>
        <time>2017-06-05T10:54:54.000Z</time>
      </trkpt>
      <trkpt lat="44.997060" lon="4.882361">
        <ele>169.738735</ele>
        <time>2017-06-05T10:54:56.000Z</time>
      </trkpt>
      <trkpt lat="44.997025" lon="4.882198">
        <ele>169.796934</ele>
        <time>2017-06-05T10:54:58.000Z</time>
      </trkpt>
      <trkpt lat="44.997000" lon="4.882041">
        <ele>169.851915</ele>
        <time>2017-06-05T10:55:00.000Z</time>
      </trkpt>
      <trkpt lat="44.996986" lon="4.881886">
        <ele>169.905299</ele>
        <time>2017-06-05T10:55:02.000Z</time>
      </trkpt>
      <trkpt lat="44.996980" lon="4.881728">
        <ele>169.959356</ele>
        <time>2017-06-05T10:55:04.000Z</time>
      </trkpt>
      <trkpt lat="44.996980" lon="4.881568">
        <ele>170.014019</ele>
        <time>2017-06-05T10:55:06.000Z</time>
      </trkpt>
      <trkpt lat="44.996983" lon="4.881409">
        <ele>170.068359</ele>
        <time>2017-06-05T10:55:08.000Z</time>
      </trkpt>
      <trkpt lat="44.996990" lon="4.881249">
        <ele>170.123127</ele>
        <time>2017-06-05T10:55:10.000Z</time>
      </trkpt>
      <trkpt lat="44.997005" lon="4.881088">
        <ele>170.178606</ele>
        <time>2017-06-05T10:55:12.000Z</time>
      </trkpt>
      <trkpt lat="44.997032" lon="4.880929">
        <ele>170.234472</ele>
        <time>2017-06-05T10:55:14.000Z</time>
      </trkpt>
      <trkpt lat="44.997063" lon="4.880775">
        <ele>170.289175</ele>
        <time>2017-06-05T10:55:16.000Z</time>
      </trkpt>
      <trkpt lat="44.997100" lon="4.880620">
        <ele>170.345065</ele>
        <time>2017-06-05T10:55:18.000Z</time>
      </trkpt>
      <trkpt lat="44.997140" lon="4.880466">
        <ele>170.401114</ele>
        <time>2017-06-05T10:55:20.000Z</time>
      </trkpt>
      <trkpt lat="44.997177" lon="4.880309">
        <ele>170.457652</ele>
        <time>2017-06-05T10:55:22.000Z</time>
      </trkpt>
      <trkpt lat="44.997215" lon="4.880156">
        <ele>170.513054</ele>
        <time>2017-06-05T10:55:24.000Z</time>
      </trkpt>
      <trkpt lat="44.997253" lon="4.880004">
        <ele>170.404922</ele>
        <time>2017-06-05T10:55:26.000Z</time>
      </trkpt>
      <trkpt lat="44.997290" lon="4.879855">
        <ele>170.271775</ele>
        <time>2017-06-05T10:55:28.000Z</time>
      </trkpt>
      <trkpt lat="44.997330" lon="4.879698">
        <ele>170.131074</ele>
        <time>2017-06-05T10:55:30.000Z</time>
      </trkpt>
      <trkpt lat="44.997364" lon="4.879542">
        <ele>169.993441</ele>
        <time>2017-06-05T10:55:32.000Z</time>
      </trkpt>
      <trkpt lat="44.997410" lon="4.879389">
        <ele>169.853267</ele>
        <time>2017-06-05T10:55:34.000Z</time>
      </trkpt>
      <trkpt lat="44.997450" lon="4.879233">
        <ele>169.713359</ele>
        <time>2017-06-05T10:55:36.000Z</time>
      </trkpt>
      <trkpt lat="44.997494" lon="4.879083">
        <ele>169.576441</ele>
        <time>2017-06-05T10:55:38.000Z</time>
      </trkpt>
      <trkpt lat="44.997524" lon="4.878927">
        <ele>169.440136</ele>
        <time>2017-06-05T10:55:40.000Z</time>
      </trkpt>
      <trkpt lat="44.997555" lon="4.878777">
        <ele>169.308377</ele>
        <time>2017-06-05T10:55:42.000Z</time>
      </trkpt>
      <trkpt lat="44.997566" lon="4.878625">
        <ele>169.179553</ele>
        <time>2017-06-05T10:55:44.000Z</time>
      </trkpt>
      <trkpt lat="44.997574" lon="4.878466">
        <ele>169.045157</ele>
        <time>2017-06-05T10:55:46.000Z</time>
      </trkpt>
      <trkpt lat="44.997593" lon="4.878313">
        <ele>168.914185</ele>
        <time>2017-06-05T10:55:48.000Z</time>
      </trkpt>
      <trkpt lat="44.997612" lon="4.878156">
        <ele>168.779890</ele>
        <time>2017-06-05T10:55:50.000Z</time>
      </trkpt>
      <trkpt lat="44.997620" lon="4.878001">
        <ele>168.648858</ele>
        <time>2017-06-05T10:55:52.000Z</time>
      </trkpt>
      <trkpt lat="44.997616" lon="4.877852">
        <ele>168.523142</ele>
        <time>2017-06-05T10:55:54.000Z</time>
      </trkpt>
      <trkpt lat="44.997562" lon="4.877737">
        <ele>168.406753</ele>
        <time>2017-06-05T10:55:56.000Z</time>
      </trkpt>
      <trkpt lat="44.997456" lon="4.877691">
        <ele>168.353782</ele>
        <time>2017-06-05T10:55:58.000Z</time>
      </trkpt>
      <trkpt lat="44.997345" lon="4.877715">
        <ele>168.323914</ele>
        <time>2017-06-05T10:56:00.000Z</time>
      </trkpt>
      <trkpt lat="44.997242" lon="4.877770">
        <ele>168.294629</ele>
        <time>2017-06-05T10:56:02.000Z</time>
      </trkpt>
      <trkpt lat="44.997135" lon="4.877828">
        <ele>168.264150</ele>
        <time>2017-06-05T10:56:04.000Z</time>
      </trkpt>
      <trkpt lat="44.997044" lon="4.877877">
        <ele>168.238250</ele>
        <time>2017-06-05T10:56:06.000Z</time>
      </trkpt>
      <trkpt lat="44.996937" lon="4.877927">
        <ele>168.208275</ele>
        <time>2017-06-05T10:56:08.000Z</time>
      </trkpt>
      <trkpt lat="44.996830" lon="4.877975">
        <ele>168.178417</ele>
        <time>2017-06-05T10:56:10.000Z</time>
      </trkpt>
      <trkpt lat="44.996727" lon="4.877981">
        <ele>168.150997</ele>
        <time>2017-06-05T10:56:12.000Z</time>
      </trkpt>
      <trkpt lat="44.996666" lon="4.877889">
        <ele>168.127276</ele>
        <time>2017-06-05T10:56:14.000Z</time>
      </trkpt>
      <trkpt lat="44.996610" lon="4.877736">
        <ele>168.094872</ele>
        <time>2017-06-05T10:56:17.000Z</time>
      </trkpt>
      <trkpt lat="44.996555" lon="4.877622">
        <ele>168.068914</ele>
        <time>2017-06-05T10:56:19.000Z</time>
      </trkpt>
      <trkpt lat="44.996550" lon="4.877412">
        <ele>168.029392</ele>
        <time>2017-06-05T10:56:21.000Z</time>
      </trkpt>
      <trkpt lat="44.996570" lon="4.877251">
        <ele>167.998646</ele>
        <time>2017-06-05T10:56:23.000Z</time>
      </trkpt>
      <trkpt lat="44.996640" lon="4.877153">
        <ele>167.972446</ele>
        <time>2017-06-05T10:56:25.000Z</time>
      </trkpt>
      <trkpt lat="44.996735" lon="4.877066">
        <ele>167.942341</ele>
        <time>2017-06-05T10:56:27.000Z</time>
      </trkpt>
      <trkpt lat="44.996850" lon="4.877055">
        <ele>167.911683</ele>
        <time>2017-06-05T10:56:29.000Z</time>
      </trkpt>
      <trkpt lat="44.996964" lon="4.877054">
        <ele>167.853683</ele>
        <time>2017-06-05T10:56:31.000Z</time>
      </trkpt>
      <trkpt lat="44.997078" lon="4.877020">
        <ele>167.771513</ele>
        <time>2017-06-05T10:56:33.000Z</time>
      </trkpt>
      <trkpt lat="44.997180" lon="4.876972">
        <ele>167.695696</ele>
        <time>2017-06-05T10:56:35.000Z</time>
      </trkpt>
      <trkpt lat="44.997272" lon="4.876894">
        <ele>167.620043</ele>
        <time>2017-06-05T10:56:37.000Z</time>
      </trkpt>
      <trkpt lat="44.997322" lon="4.876758">
        <ele>167.543596</ele>
        <time>2017-06-05T10:56:39.000Z</time>
      </trkpt>
      <trkpt lat="44.997334" lon="4.876593">
        <ele>167.460872</ele>
        <time>2017-06-05T10:56:41.000Z</time>
      </trkpt>
      <trkpt lat="44.997330" lon="4.876431">
        <ele>167.380029</ele>
        <time>2017-06-05T10:56:43.000Z</time>
      </trkpt>
      <trkpt lat="44.997334" lon="4.876260">
        <ele>167.294699</ele>
        <time>2017-06-05T10:56:45.000Z</time>
      </trkpt>
      <trkpt lat="44.997322" lon="4.876100">
        <ele>167.214455</ele>
        <time>2017-06-05T10:56:47.000Z</time>
      </trkpt>
      <trkpt lat="44.997310" lon="4.875926">
        <ele>167.127264</ele>
        <time>2017-06-05T10:56:49.000Z</time>
      </trkpt>
      <trkpt lat="44.997300" lon="4.875766">
        <ele>167.047156</ele>
        <time>2017-06-05T10:56:51.000Z</time>
      </trkpt>
      <trkpt lat="44.997276" lon="4.875624">
        <ele>166.974342</ele>
        <time>2017-06-05T10:56:53.000Z</time>
      </trkpt>
      <trkpt lat="44.997246" lon="4.875485">
        <ele>166.901862</ele>
        <time>2017-06-05T10:56:55.000Z</time>
      </trkpt>
      <trkpt lat="44.997208" lon="4.875338">
        <ele>166.823803</ele>
        <time>2017-06-05T10:56:57.000Z</time>
      </trkpt>
      <trkpt lat="44.997158" lon="4.875214">
        <ele>166.752613</ele>
        <time>2017-06-05T10:56:59.000Z</time>
      </trkpt>
      <trkpt lat="44.997097" lon="4.875056">
        <ele>166.662834</ele>
        <time>2017-06-05T10:57:01.000Z</time>
      </trkpt>
      <trkpt lat="44.997040" lon="4.874914">
        <ele>166.619696</ele>
        <time>2017-06-05T10:57:03.000Z</time>
      </trkpt>
      <trkpt lat="44.996983" lon="4.874793">
        <ele>166.604827</ele>
        <time>2017-06-05T10:57:05.000Z</time>
      </trkpt>
      <trkpt lat="44.996918" lon="4.874677">
        <ele>166.589690</ele>
        <time>2017-06-05T10:57:07.000Z</time>
      </trkpt>
      <trkpt lat="44.996838" lon="4.874564">
        <ele>166.573336</ele>
        <time>2017-06-05T10:57:09.000Z</time>
      </trkpt>
      <trkpt lat="44.996750" lon="4.874460">
        <ele>166.556750</ele>
        <time>2017-06-05T10:57:11.000Z</time>
      </trkpt>
      <trkpt lat="44.996650" lon="4.874370">
        <ele>166.539606</ele>
        <time>2017-06-05T10:57:13.000Z</time>
      </trkpt>
      <trkpt lat="44.996555" lon="4.874279">
        <ele>166.523011</ele>
        <time>2017-06-05T10:57:15.000Z</time>
      </trkpt>
      <trkpt lat="44.996456" lon="4.874190">
        <ele>166.506044</ele>
        <time>2017-06-05T10:57:17.000Z</time>
      </trkpt>
      <trkpt lat="44.996307" lon="4.874064">
        <ele>166.480935</ele>
        <time>2017-06-05T10:57:20.000Z</time>
      </trkpt>
      <trkpt lat="44.996210" lon="4.873989">
        <ele>166.464946</ele>
        <time>2017-06-05T10:57:22.000Z</time>
      </trkpt>
      <trkpt lat="44.996113" lon="4.873928">
        <ele>166.449593</ele>
        <time>2017-06-05T10:57:24.000Z</time>
      </trkpt>
      <trkpt lat="44.996017" lon="4.873889">
        <ele>166.435147</ele>
        <time>2017-06-05T10:57:26.000Z</time>
      </trkpt>
      <trkpt lat="44.995890" lon="4.873928">
        <ele>166.416351</ele>
        <time>2017-06-05T10:57:29.000Z</time>
      </trkpt>
      <trkpt lat="44.995796" lon="4.873990">
        <ele>166.401350</ele>
        <time>2017-06-05T10:57:31.000Z</time>
      </trkpt>
      <trkpt lat="44.995710" lon="4.874067">
        <ele>166.386628</ele>
        <time>2017-06-05T10:57:33.000Z</time>
      </trkpt>
      <trkpt lat="44.995632" lon="4.874148">
        <ele>166.372632</ele>
        <time>2017-06-05T10:57:35.000Z</time>
      </trkpt>
      <trkpt lat="44.995560" lon="4.874222">
        <ele>166.301741</ele>
        <time>2017-06-05T10:57:37.000Z</time>
      </trkpt>
      <trkpt lat="44.995470" lon="4.874358">
        <ele>166.168526</ele>
        <time>2017-06-05T10:57:40.000Z</time>
      </trkpt>
      <trkpt lat="44.995390" lon="4.874439">
        <ele>166.069014</ele>
        <time>2017-06-05T10:57:42.000Z</time>
      </trkpt>
      <trkpt lat="44.995300" lon="4.874466">
        <ele>165.975965</ele>
        <time>2017-06-05T10:57:44.000Z</time>
      </trkpt>
      <trkpt lat="44.995197" lon="4.874444">
        <ele>165.870612</ele>
        <time>2017-06-05T10:57:46.000Z</time>
      </trkpt>
      <trkpt lat="44.995094" lon="4.874392">
        <ele>165.760000</ele>
        <time>2017-06-05T10:57:48.000Z</time>
      </trkpt>
      <trkpt lat="44.995010" lon="4.874342">
        <ele>165.667825</ele>
        <time>2017-06-05T10:57:50.000Z</time>
      </trkpt>
      <trkpt lat="44.994920" lon="4.874326">
        <ele>165.576085</ele>
        <time>2017-06-05T10:57:52.000Z</time>
      </trkpt>
      <trkpt lat="44.994797" lon="4.874292">
        <ele>165.449331</ele>
        <time>2017-06-05T10:57:55.000Z</time>
      </trkpt>
      <trkpt lat="44.994686" lon="4.874223">
        <ele>165.326701</ele>
        <time>2017-06-05T10:57:58.000Z</time>
      </trkpt>
      <trkpt lat="44.994587" lon="4.874133">
        <ele>165.207669</ele>
        <time>2017-06-05T10:58:01.000Z</time>
      </trkpt>
      <trkpt lat="44.994510" lon="4.874072">
        <ele>165.118404</ele>
        <time>2017-06-05T10:58:03.000Z</time>
      </trkpt>
      <trkpt lat="44.994410" lon="4.874009">
        <ele>165.007684</ele>
        <time>2017-06-05T10:58:05.000Z</time>
      </trkpt>
      <trkpt lat="44.994286" lon="4.873945">
        <ele>164.874181</ele>
        <time>2017-06-05T10:58:07.000Z</time>
      </trkpt>
      <trkpt lat="44.994150" lon="4.873856">
        <ele>164.722619</ele>
        <time>2017-06-05T10:58:09.000Z</time>
      </trkpt>
      <trkpt lat="44.993990" lon="4.873785">
        <ele>164.553018</ele>
        <time>2017-06-05T10:58:11.000Z</time>
      </trkpt>
      <trkpt lat="44.993830" lon="4.873724">
        <ele>164.425671</ele>
        <time>2017-06-05T10:58:13.000Z</time>
      </trkpt>
      <trkpt lat="44.993660" lon="4.873693">
        <ele>164.294624</ele>
        <time>2017-06-05T10:58:15.000Z</time>
      </trkpt>
      <trkpt lat="44.993500" lon="4.873711">
        <ele>164.171913</ele>
        <time>2017-06-05T10:58:17.000Z</time>
      </trkpt>
      <trkpt lat="44.993360" lon="4.873807">
        <ele>164.052958</ele>
        <time>2017-06-05T10:58:19.000Z</time>
      </trkpt>
      <trkpt lat="44.993248" lon="4.873952">
        <ele>163.936862</ele>
        <time>2017-06-05T10:58:21.000Z</time>
      </trkpt>
      <trkpt lat="44.993156" lon="4.874103">
        <ele>163.829101</ele>
        <time>2017-06-05T10:58:23.000Z</time>
      </trkpt>
      <trkpt lat="44.993065" lon="4.874259">
        <ele>163.719765</ele>
        <time>2017-06-05T10:58:25.000Z</time>
      </trkpt>
      <trkpt lat="44.992966" lon="4.874411">
        <ele>163.608040</ele>
        <time>2017-06-05T10:58:27.000Z</time>
      </trkpt>
      <trkpt lat="44.992874" lon="4.874555">
        <ele>163.503116</ele>
        <time>2017-06-05T10:58:29.000Z</time>
      </trkpt>
      <trkpt lat="44.992775" lon="4.874694">
        <ele>163.396454</ele>
        <time>2017-06-05T10:58:31.000Z</time>
      </trkpt>
      <trkpt lat="44.992687" lon="4.874819">
        <ele>163.301091</ele>
        <time>2017-06-05T10:58:33.000Z</time>
      </trkpt>
      <trkpt lat="44.992600" lon="4.874941">
        <ele>163.207416</ele>
        <time>2017-06-05T10:58:35.000Z</time>
      </trkpt>
      <trkpt lat="44.992500" lon="4.875034">
        <ele>163.321909</ele>
        <time>2017-06-05T10:58:37.000Z</time>
      </trkpt>
      <trkpt lat="44.992380" lon="4.875026">
        <ele>163.549063</ele>
        <time>2017-06-05T10:58:39.000Z</time>
      </trkpt>
      <trkpt lat="44.992300" lon="4.874914">
        <ele>163.761931</ele>
        <time>2017-06-05T10:58:41.000Z</time>
      </trkpt>
      <trkpt lat="44.992220" lon="4.874788">
        <ele>163.988361</ele>
        <time>2017-06-05T10:58:43.000Z</time>
      </trkpt>
      <trkpt lat="44.992150" lon="4.874683">
        <ele>164.181321</ele>
        <time>2017-06-05T10:58:45.000Z</time>
      </trkpt>
      <trkpt lat="44.992077" lon="4.874554">
        <ele>164.402250</ele>
        <time>2017-06-05T10:58:48.000Z</time>
      </trkpt>
      <trkpt lat="44.992077" lon="4.874394">
        <ele>164.616205</ele>
        <time>2017-06-05T10:58:52.000Z</time>
      </trkpt>
      <trkpt lat="44.992157" lon="4.874276">
        <ele>164.834792</ele>
        <time>2017-06-05T10:58:55.000Z</time>
      </trkpt>
      <trkpt lat="44.992237" lon="4.874178">
        <ele>165.034931</ele>
        <time>2017-06-05T10:58:58.000Z</time>
      </trkpt>
      <trkpt lat="44.992306" lon="4.874077">
        <ele>165.222716</ele>
        <time>2017-06-05T10:59:01.000Z</time>
      </trkpt>
      <trkpt lat="44.992390" lon="4.873948">
        <ele>165.457202</ele>
        <time>2017-06-05T10:59:04.000Z</time>
      </trkpt>
      <trkpt lat="44.992485" lon="4.873805">
        <ele>165.719563</ele>
        <time>2017-06-05T10:59:07.000Z</time>
      </trkpt>
      <trkpt lat="44.992542" lon="4.873710">
        <ele>165.886158</ele>
        <time>2017-06-05T10:59:09.000Z</time>
      </trkpt>
      <trkpt lat="44.992603" lon="4.873609">
        <ele>166.063766</ele>
        <time>2017-06-05T10:59:11.000Z</time>
      </trkpt>
      <trkpt lat="44.992664" lon="4.873502">
        <ele>166.247548</ele>
        <time>2017-06-05T10:59:13.000Z</time>
      </trkpt>
      <trkpt lat="44.992725" lon="4.873399">
        <ele>166.427198</ele>
        <time>2017-06-05T10:59:15.000Z</time>
      </trkpt>
      <trkpt lat="44.992790" lon="4.873293">
        <ele>166.596799</ele>
        <time>2017-06-05T10:59:17.000Z</time>
      </trkpt>
      <trkpt lat="44.992855" lon="4.873177">
        <ele>166.702414</ele>
        <time>2017-06-05T10:59:19.000Z</time>
      </trkpt>
      <trkpt lat="44.992912" lon="4.873058">
        <ele>166.804980</ele>
        <time>2017-06-05T10:59:21.000Z</time>
      </trkpt>
      <trkpt lat="44.992977" lon="4.872939">
        <ele>166.912281</ele>
        <time>2017-06-05T10:59:23.000Z</time>
      </trkpt>
      <trkpt lat="44.993042" lon="4.872818">
        <ele>167.020714</ele>
        <time>2017-06-05T10:59:25.000Z</time>
      </trkpt>
      <trkpt lat="44.993103" lon="4.872689">
        <ele>167.131454</ele>
        <time>2017-06-05T10:59:27.000Z</time>
      </trkpt>
      <trkpt lat="44.993170" lon="4.872568">
        <ele>167.241120</ele>
        <time>2017-06-05T10:59:29.000Z</time>
      </trkpt>
      <trkpt lat="44.993237" lon="4.872439">
        <ele>167.355336</ele>
        <time>2017-06-05T10:59:31.000Z</time>
      </trkpt>
      <trkpt lat="44.993300" lon="4.872301">
        <ele>167.472551</ele>
        <time>2017-06-05T10:59:33.000Z</time>
      </trkpt>
      <trkpt lat="44.993370" lon="4.872180">
        <ele>167.584108</ele>
        <time>2017-06-05T10:59:35.000Z</time>
      </trkpt>
      <trkpt lat="44.993443" lon="4.872042">
        <ele>167.707089</ele>
        <time>2017-06-05T10:59:37.000Z</time>
      </trkpt>
      <trkpt lat="44.993523" lon="4.871905">
        <ele>167.833874</ele>
        <time>2017-06-05T10:59:39.000Z</time>
      </trkpt>
      <trkpt lat="44.993603" lon="4.871778">
        <ele>167.955242</ele>
        <time>2017-06-05T10:59:41.000Z</time>
      </trkpt>
      <trkpt lat="44.993680" lon="4.871668">
        <ele>168.065691</ele>
        <time>2017-06-05T10:59:43.000Z</time>
      </trkpt>
      <trkpt lat="44.993748" lon="4.871577">
        <ele>168.160165</ele>
        <time>2017-06-05T10:59:45.000Z</time>
      </trkpt>
      <trkpt lat="44.993830" lon="4.871472">
        <ele>168.271793</ele>
        <time>2017-06-05T10:59:48.000Z</time>
      </trkpt>
      <trkpt lat="44.993896" lon="4.871379">
        <ele>168.365813</ele>
        <time>2017-06-05T10:59:51.000Z</time>
      </trkpt>
      <trkpt lat="44.993927" lon="4.871254">
        <ele>168.305793</ele>
        <time>2017-06-05T10:59:55.000Z</time>
      </trkpt>
      <trkpt lat="44.993920" lon="4.871107">
        <ele>168.176037</ele>
        <time>2017-06-05T11:00:01.000Z</time>
      </trkpt>
      <trkpt lat="44.993874" lon="4.870995">
        <ele>168.061969</ele>
        <time>2017-06-05T11:00:07.000Z</time>
      </trkpt>
      <trkpt lat="44.993800" lon="4.870873">
        <ele>167.920416</ele>
        <time>2017-06-05T11:12:17.000Z</time>
      </trkpt>
      <trkpt lat="44.993694" lon="4.870821">
        <ele>167.780689</ele>
        <time>2017-06-05T11:12:22.000Z</time>
      </trkpt>
      <trkpt lat="44.993595" lon="4.870773">
        <ele>167.650352</ele>
        <time>2017-06-05T11:12:25.000Z</time>
      </trkpt>
      <trkpt lat="44.993496" lon="4.870733">
        <ele>167.522126</ele>
        <time>2017-06-05T11:12:28.000Z</time>
      </trkpt>
      <trkpt lat="44.993393" lon="4.870698">
        <ele>167.390202</ele>
        <time>2017-06-05T11:12:31.000Z</time>
      </trkpt>
      <trkpt lat="44.993305" lon="4.870674">
        <ele>167.278590</ele>
        <time>2017-06-05T11:12:33.000Z</time>
      </trkpt>
      <trkpt lat="44.993180" lon="4.870635">
        <ele>167.119175</ele>
        <time>2017-06-05T11:12:36.000Z</time>
      </trkpt>
      <trkpt lat="44.993057" lon="4.870602">
        <ele>166.963262</ele>
        <time>2017-06-05T11:12:39.000Z</time>
      </trkpt>
      <trkpt lat="44.992940" lon="4.870575">
        <ele>166.815627</ele>
        <time>2017-06-05T11:12:42.000Z</time>
      </trkpt>
      <trkpt lat="44.992813" lon="4.870547">
        <ele>166.655555</ele>
        <time>2017-06-05T11:12:45.000Z</time>
      </trkpt>
      <trkpt lat="44.992683" lon="4.870513">
        <ele>166.490911</ele>
        <time>2017-06-05T11:12:48.000Z</time>
      </trkpt>
      <trkpt lat="44.992590" lon="4.870489">
        <ele>166.373180</ele>
        <time>2017-06-05T11:12:50.000Z</time>
      </trkpt>
      <trkpt lat="44.992496" lon="4.870462">
        <ele>166.253724</ele>
        <time>2017-06-05T11:12:52.000Z</time>
      </trkpt>
      <trkpt lat="44.992400" lon="4.870430">
        <ele>166.146209</ele>
        <time>2017-06-05T11:12:54.000Z</time>
      </trkpt>
      <trkpt lat="44.992302" lon="4.870391">
        <ele>166.115059</ele>
        <time>2017-06-05T11:12:56.000Z</time>
      </trkpt>
      <trkpt lat="44.992203" lon="4.870345">
        <ele>166.083174</ele>
        <time>2017-06-05T11:12:58.000Z</time>
      </trkpt>
      <trkpt lat="44.992107" lon="4.870304">
        <ele>166.052491</ele>
        <time>2017-06-05T11:13:00.000Z</time>
      </trkpt>
      <trkpt lat="44.992010" lon="4.870262">
        <ele>166.021451</ele>
        <time>2017-06-05T11:13:02.000Z</time>
      </trkpt>
      <trkpt lat="44.991913" lon="4.870218">
        <ele>165.990283</ele>
        <time>2017-06-05T11:13:04.000Z</time>
      </trkpt>
      <trkpt lat="44.991814" lon="4.870174">
        <ele>165.958530</ele>
        <time>2017-06-05T11:13:06.000Z</time>
      </trkpt>
      <trkpt lat="44.991710" lon="4.870129">
        <ele>165.925253</ele>
        <time>2017-06-05T11:13:08.000Z</time>
      </trkpt>
      <trkpt lat="44.991610" lon="4.870080">
        <ele>165.892871</ele>
        <time>2017-06-05T11:13:10.000Z</time>
      </trkpt>
      <trkpt lat="44.991510" lon="4.870032">
        <ele>165.860559</ele>
        <time>2017-06-05T11:13:12.000Z</time>
      </trkpt>
      <trkpt lat="44.991405" lon="4.869981">
        <ele>165.826590</ele>
        <time>2017-06-05T11:13:14.000Z</time>
      </trkpt>
      <trkpt lat="44.991300" lon="4.869932">
        <ele>165.792759</ele>
        <time>2017-06-05T11:13:16.000Z</time>
      </trkpt>
      <trkpt lat="44.991203" lon="4.869884">
        <ele>165.761314</ele>
        <time>2017-06-05T11:13:18.000Z</time>
      </trkpt>
      <trkpt lat="44.991100" lon="4.869840">
        <ele>165.728393</ele>
        <time>2017-06-05T11:13:20.000Z</time>
      </trkpt>
      <trkpt lat="44.990993" lon="4.869792">
        <ele>165.694046</ele>
        <time>2017-06-05T11:13:22.000Z</time>
      </trkpt>
      <trkpt lat="44.990890" lon="4.869732">
        <ele>165.659961</ele>
        <time>2017-06-05T11:13:24.000Z</time>
      </trkpt>
      <trkpt lat="44.990788" lon="4.869680">
        <ele>165.626786</ele>
        <time>2017-06-05T11:13:26.000Z</time>
      </trkpt>
      <trkpt lat="44.990685" lon="4.869614">
        <ele>165.602178</ele>
        <time>2017-06-05T11:13:28.000Z</time>
      </trkpt>
      <trkpt lat="44.990590" lon="4.869543">
        <ele>165.607143</ele>
        <time>2017-06-05T11:13:30.000Z</time>
      </trkpt>
      <trkpt lat="44.990500" lon="4.869472">
        <ele>165.611905</ele>
        <time>2017-06-05T11:13:32.000Z</time>
      </trkpt>
      <trkpt lat="44.990410" lon="4.869393">
        <ele>165.616800</ele>
        <time>2017-06-05T11:13:34.000Z</time>
      </trkpt>
      <trkpt lat="44.990314" lon="4.869314">
        <ele>165.621933</ele>
        <time>2017-06-05T11:13:36.000Z</time>
      </trkpt>
      <trkpt lat="44.990227" lon="4.869227">
        <ele>165.626857</ele>
        <time>2017-06-05T11:13:38.000Z</time>
      </trkpt>
      <trkpt lat="44.990147" lon="4.869143">
        <ele>165.631461</ele>
        <time>2017-06-05T11:13:40.000Z</time>
      </trkpt>
      <trkpt lat="44.990070" lon="4.869052">
        <ele>165.636099</ele>
        <time>2017-06-05T11:13:42.000Z</time>
      </trkpt>
      <trkpt lat="44.989990" lon="4.868953">
        <ele>165.641011</ele>
        <time>2017-06-05T11:13:44.000Z</time>
      </trkpt>
      <trkpt lat="44.989910" lon="4.868856">
        <ele>165.645881</ele>
        <time>2017-06-05T11:13:46.000Z</time>
      </trkpt>
      <trkpt lat="44.989826" lon="4.868759">
        <ele>165.650893</ele>
        <time>2017-06-05T11:13:48.000Z</time>
      </trkpt>
      <trkpt lat="44.989742" lon="4.868656">
        <ele>165.656030</ele>
        <time>2017-06-05T11:13:50.000Z</time>
      </trkpt>
      <trkpt lat="44.989650" lon="4.868568">
        <ele>165.661163</ele>
        <time>2017-06-05T11:13:52.000Z</time>
      </trkpt>
      <trkpt lat="44.989555" lon="4.868492">
        <ele>165.666207</ele>
        <time>2017-06-05T11:13:54.000Z</time>
      </trkpt>
      <trkpt lat="44.989460" lon="4.868423">
        <ele>165.671142</ele>
        <time>2017-06-05T11:13:56.000Z</time>
      </trkpt>
      <trkpt lat="44.989360" lon="4.868354">
        <ele>165.676284</ele>
        <time>2017-06-05T11:13:58.000Z</time>
      </trkpt>
      <trkpt lat="44.989258" lon="4.868293">
        <ele>165.681401</ele>
        <time>2017-06-05T11:14:00.000Z</time>
      </trkpt>
      <trkpt lat="44.989150" lon="4.868233">
        <ele>165.638687</ele>
        <time>2017-06-05T11:14:02.000Z</time>
      </trkpt>
      <trkpt lat="44.989044" lon="4.868169">
        <ele>165.552005</ele>
        <time>2017-06-05T11:14:04.000Z</time>
      </trkpt>
      <trkpt lat="44.988937" lon="4.868111">
        <ele>165.465825</ele>
        <time>2017-06-05T11:14:06.000Z</time>
      </trkpt>
      <trkpt lat="44.988834" lon="4.868046">
        <ele>165.380999</ele>
        <time>2017-06-05T11:14:08.000Z</time>
      </trkpt>
      <trkpt lat="44.988724" lon="4.867985">
        <ele>165.292138</ele>
        <time>2017-06-05T11:14:10.000Z</time>
      </trkpt>
      <trkpt lat="44.988610" lon="4.867924">
        <ele>165.200471</ele>
        <time>2017-06-05T11:14:12.000Z</time>
      </trkpt>
      <trkpt lat="44.988500" lon="4.867862">
        <ele>165.111414</ele>
        <time>2017-06-05T11:14:14.000Z</time>
      </trkpt>
      <trkpt lat="44.988390" lon="4.867799">
        <ele>165.022160</ele>
        <time>2017-06-05T11:14:16.000Z</time>
      </trkpt>
      <trkpt lat="44.988277" lon="4.867742">
        <ele>164.931932</ele>
        <time>2017-06-05T11:14:18.000Z</time>
      </trkpt>
      <trkpt lat="44.988167" lon="4.867682">
        <ele>164.843264</ele>
        <time>2017-06-05T11:14:20.000Z</time>
      </trkpt>
      <trkpt lat="44.988060" lon="4.867618">
        <ele>164.755890</ele>
        <time>2017-06-05T11:14:22.000Z</time>
      </trkpt>
      <trkpt lat="44.987957" lon="4.867556">
        <ele>164.671702</ele>
        <time>2017-06-05T11:14:24.000Z</time>
      </trkpt>
      <trkpt lat="44.987854" lon="4.867493">
        <ele>164.587303</ele>
        <time>2017-06-05T11:14:26.000Z</time>
      </trkpt>
      <trkpt lat="44.987747" lon="4.867431">
        <ele>164.500338</ele>
        <time>2017-06-05T11:14:28.000Z</time>
      </trkpt>
      <trkpt lat="44.987637" lon="4.867371">
        <ele>164.411670</ele>
        <time>2017-06-05T11:14:30.000Z</time>
      </trkpt>
      <trkpt lat="44.987530" lon="4.867308">
        <ele>164.332251</ele>
        <time>2017-06-05T11:14:32.000Z</time>
      </trkpt>
      <trkpt lat="44.987423" lon="4.867241">
        <ele>164.344444</ele>
        <time>2017-06-05T11:14:34.000Z</time>
      </trkpt>
      <trkpt lat="44.987312" lon="4.867170">
        <ele>164.357138</ele>
        <time>2017-06-05T11:14:36.000Z</time>
      </trkpt>
      <trkpt lat="44.987206" lon="4.867104">
        <ele>164.369206</ele>
        <time>2017-06-05T11:14:38.000Z</time>
      </trkpt>
      <trkpt lat="44.987100" lon="4.867033">
        <ele>164.381427</ele>
        <time>2017-06-05T11:14:40.000Z</time>
      </trkpt>
      <trkpt lat="44.986996" lon="4.866952">
        <ele>164.393798</ele>
        <time>2017-06-05T11:14:42.000Z</time>
      </trkpt>
      <trkpt lat="44.986885" lon="4.866869">
        <ele>164.406881</ele>
        <time>2017-06-05T11:14:44.000Z</time>
      </trkpt>
      <trkpt lat="44.986782" lon="4.866786">
        <ele>164.419234</ele>
        <time>2017-06-05T11:14:46.000Z</time>
      </trkpt>
      <trkpt lat="44.986683" lon="4.866704">
        <ele>164.431189</ele>
        <time>2017-06-05T11:14:48.000Z</time>
      </trkpt>
      <trkpt lat="44.986580" lon="4.866610">
        <ele>164.443962</ele>
        <time>2017-06-05T11:14:50.000Z</time>
      </trkpt>
      <trkpt lat="44.986477" lon="4.866518">
        <ele>164.456656</ele>
        <time>2017-06-05T11:14:52.000Z</time>
      </trkpt>
      <trkpt lat="44.986380" lon="4.866426">
        <ele>164.468826</ele>
        <time>2017-06-05T11:14:54.000Z</time>
      </trkpt>
      <trkpt lat="44.986286" lon="4.866332">
        <ele>164.480822</ele>
        <time>2017-06-05T11:14:56.000Z</time>
      </trkpt>
      <trkpt lat="44.986183" lon="4.866232">
        <ele>164.493841</ele>
        <time>2017-06-05T11:14:58.000Z</time>
      </trkpt>
      <trkpt lat="44.986088" lon="4.866129">
        <ele>164.506315</ele>
        <time>2017-06-05T11:15:00.000Z</time>
      </trkpt>
      <trkpt lat="44.985992" lon="4.866021">
        <ele>164.520236</ele>
        <time>2017-06-05T11:15:02.000Z</time>
      </trkpt>
      <trkpt lat="44.985905" lon="4.865909">
        <ele>164.568940</ele>
        <time>2017-06-05T11:15:04.000Z</time>
      </trkpt>
      <trkpt lat="44.985813" lon="4.865808">
        <ele>164.617155</ele>
        <time>2017-06-05T11:15:06.000Z</time>
      </trkpt>
      <trkpt lat="44.985725" lon="4.865704">
        <ele>164.664631</ele>
        <time>2017-06-05T11:15:08.000Z</time>
      </trkpt>
      <trkpt lat="44.985645" lon="4.865600">
        <ele>164.709616</ele>
        <time>2017-06-05T11:15:10.000Z</time>
      </trkpt>
      <trkpt lat="44.985560" lon="4.865484">
        <ele>164.758518</ele>
        <time>2017-06-05T11:15:12.000Z</time>
      </trkpt>
      <trkpt lat="44.985480" lon="4.865369">
        <ele>164.805743</ele>
        <time>2017-06-05T11:15:14.000Z</time>
      </trkpt>
      <trkpt lat="44.985397" lon="4.865245">
        <ele>164.855727</ele>
        <time>2017-06-05T11:15:16.000Z</time>
      </trkpt>
      <trkpt lat="44.985320" lon="4.865126">
        <ele>164.902947</ele>
        <time>2017-06-05T11:15:18.000Z</time>
      </trkpt>
      <trkpt lat="44.985240" lon="4.865011">
        <ele>164.950172</ele>
        <time>2017-06-05T11:15:20.000Z</time>
      </trkpt>
      <trkpt lat="44.985165" lon="4.864893">
        <ele>164.996619</ele>
        <time>2017-06-05T11:15:22.000Z</time>
      </trkpt>
      <trkpt lat="44.985090" lon="4.864767">
        <ele>165.044834</ele>
        <time>2017-06-05T11:15:24.000Z</time>
      </trkpt>
      <trkpt lat="44.985010" lon="4.864643">
        <ele>165.093972</ele>
        <time>2017-06-05T11:15:26.000Z</time>
      </trkpt>
      <trkpt lat="44.984930" lon="4.864516">
        <ele>165.143763</ele>
        <time>2017-06-05T11:15:28.000Z</time>
      </trkpt>
      <trkpt lat="44.984848" lon="4.864388">
        <ele>165.194325</ele>
        <time>2017-06-05T11:15:30.000Z</time>
      </trkpt>
      <trkpt lat="44.984768" lon="4.864252">
        <ele>165.246114</ele>
        <time>2017-06-05T11:15:32.000Z</time>
      </trkpt>
      <trkpt lat="44.984690" lon="4.864115">
        <ele>165.263076</ele>
        <time>2017-06-05T11:15:34.000Z</time>
      </trkpt>
      <trkpt lat="44.984615" lon="4.863982">
        <ele>165.262836</ele>
        <time>2017-06-05T11:15:36.000Z</time>
      </trkpt>
      <trkpt lat="44.984540" lon="4.863845">
        <ele>165.262591</ele>
        <time>2017-06-05T11:15:38.000Z</time>
      </trkpt>
      <trkpt lat="44.984463" lon="4.863709">
        <ele>165.262345</ele>
        <time>2017-06-05T11:15:40.000Z</time>
      </trkpt>
      <trkpt lat="44.984390" lon="4.863572">
        <ele>165.262103</ele>
        <time>2017-06-05T11:15:42.000Z</time>
      </trkpt>
      <trkpt lat="44.984320" lon="4.863442">
        <ele>165.261872</ele>
        <time>2017-06-05T11:15:44.000Z</time>
      </trkpt>
      <trkpt lat="44.984257" lon="4.863308">
        <ele>165.261645</ele>
        <time>2017-06-05T11:15:46.000Z</time>
      </trkpt>
      <trkpt lat="44.984190" lon="4.863173">
        <ele>165.261412</ele>
        <time>2017-06-05T11:15:48.000Z</time>
      </trkpt>
      <trkpt lat="44.984127" lon="4.863042">
        <ele>165.261188</ele>
        <time>2017-06-05T11:15:50.000Z</time>
      </trkpt>
      <trkpt lat="44.984062" lon="4.862905">
        <ele>165.260955</ele>
        <time>2017-06-05T11:15:52.000Z</time>
      </trkpt>
      <trkpt lat="44.984000" lon="4.862777">
        <ele>165.260736</ele>
        <time>2017-06-05T11:15:54.000Z</time>
      </trkpt>
      <trkpt lat="44.983936" lon="4.862633">
        <ele>165.260496</ele>
        <time>2017-06-05T11:15:56.000Z</time>
      </trkpt>
      <trkpt lat="44.983875" lon="4.862493">
        <ele>165.260264</ele>
        <time>2017-06-05T11:15:58.000Z</time>
      </trkpt>
      <trkpt lat="44.983810" lon="4.862352">
        <ele>165.260026</ele>
        <time>2017-06-05T11:16:00.000Z</time>
      </trkpt>
      <trkpt lat="44.983760" lon="4.862219">
        <ele>165.259813</ele>
        <time>2017-06-05T11:16:02.000Z</time>
      </trkpt>
      <trkpt lat="44.983700" lon="4.862082">
        <ele>165.275070</ele>
        <time>2017-06-05T11:16:04.000Z</time>
      </trkpt>
      <trkpt lat="44.983640" lon="4.861934">
        <ele>165.332553</ele>
        <time>2017-06-05T11:16:06.000Z</time>
      </trkpt>
      <trkpt lat="44.983574" lon="4.861783">
        <ele>165.392368</ele>
        <time>2017-06-05T11:16:08.000Z</time>
      </trkpt>
      <trkpt lat="44.983520" lon="4.861641">
        <ele>165.446695</ele>
        <time>2017-06-05T11:16:10.000Z</time>
      </trkpt>
      <trkpt lat="44.983460" lon="4.861496">
        <ele>165.503304</ele>
        <time>2017-06-05T11:16:12.000Z</time>
      </trkpt>
      <trkpt lat="44.983402" lon="4.861355">
        <ele>165.558268</ele>
        <time>2017-06-05T11:16:14.000Z</time>
      </trkpt>
      <trkpt lat="44.983337" lon="4.861226">
        <ele>165.611640</ele>
        <time>2017-06-05T11:16:16.000Z</time>
      </trkpt>
      <trkpt lat="44.983273" lon="4.861094">
        <ele>165.665567</ele>
        <time>2017-06-05T11:16:18.000Z</time>
      </trkpt>
      <trkpt lat="44.983204" lon="4.860958">
        <ele>165.721967</ele>
        <time>2017-06-05T11:16:20.000Z</time>
      </trkpt>
      <trkpt lat="44.983135" lon="4.860827">
        <ele>165.777006</ele>
        <time>2017-06-05T11:16:22.000Z</time>
      </trkpt>
      <trkpt lat="44.983067" lon="4.860699">
        <ele>165.830950</ele>
        <time>2017-06-05T11:16:24.000Z</time>
      </trkpt>
      <trkpt lat="44.982990" lon="4.860568">
        <ele>165.888347</ele>
        <time>2017-06-05T11:16:26.000Z</time>
      </trkpt>
      <trkpt lat="44.982914" lon="4.860443">
        <ele>165.943892</ele>
        <time>2017-06-05T11:16:28.000Z</time>
      </trkpt>
      <trkpt lat="44.982838" lon="4.860322">
        <ele>165.998422</ele>
        <time>2017-06-05T11:16:30.000Z</time>
      </trkpt>
      <trkpt lat="44.982754" lon="4.860200">
        <ele>166.055795</ele>
        <time>2017-06-05T11:16:32.000Z</time>
      </trkpt>
      <trkpt lat="44.982670" lon="4.860083">
        <ele>166.111973</ele>
        <time>2017-06-05T11:16:34.000Z</time>
      </trkpt>
      <trkpt lat="44.982582" lon="4.859970">
        <ele>166.142609</ele>
        <time>2017-06-05T11:16:36.000Z</time>
      </trkpt>
      <trkpt lat="44.982494" lon="4.859859">
        <ele>166.170732</ele>
        <time>2017-06-05T11:16:38.000Z</time>
      </trkpt>
      <trkpt lat="44.982407" lon="4.859748">
        <ele>166.198678</ele>
        <time>2017-06-05T11:16:40.000Z</time>
      </trkpt>
      <trkpt lat="44.982320" lon="4.859652">
        <ele>166.224996</ele>
        <time>2017-06-05T11:16:42.000Z</time>
      </trkpt>
      <trkpt lat="44.982227" lon="4.859555">
        <ele>166.252555</ele>
        <time>2017-06-05T11:16:44.000Z</time>
      </trkpt>
      <trkpt lat="44.982136" lon="4.859462">
        <ele>166.279332</ele>
        <time>2017-06-05T11:16:46.000Z</time>
      </trkpt>
      <trkpt lat="44.982044" lon="4.859371">
        <ele>166.306107</ele>
        <time>2017-06-05T11:16:48.000Z</time>
      </trkpt>
      <trkpt lat="44.981945" lon="4.859284">
        <ele>166.333905</ele>
        <time>2017-06-05T11:16:50.000Z</time>
      </trkpt>
      <trkpt lat="44.981850" lon="4.859195">
        <ele>166.361082</ele>
        <time>2017-06-05T11:16:52.000Z</time>
      </trkpt>
      <trkpt lat="44.981750" lon="4.859111">
        <ele>166.388820</ele>
        <time>2017-06-05T11:16:54.000Z</time>
      </trkpt>
      <trkpt lat="44.981647" lon="4.859039">
        <ele>166.416221</ele>
        <time>2017-06-05T11:16:56.000Z</time>
      </trkpt>
      <trkpt lat="44.981544" lon="4.858965">
        <ele>166.443773</ele>
        <time>2017-06-05T11:16:58.000Z</time>
      </trkpt>
      <trkpt lat="44.981438" lon="4.858889">
        <ele>166.472115</ele>
        <time>2017-06-05T11:17:00.000Z</time>
      </trkpt>
      <trkpt lat="44.981335" lon="4.858818">
        <ele>166.499442</ele>
        <time>2017-06-05T11:17:02.000Z</time>
      </trkpt>
      <trkpt lat="44.981228" lon="4.858753">
        <ele>166.527213</ele>
        <time>2017-06-05T11:17:04.000Z</time>
      </trkpt>
      <trkpt lat="44.981117" lon="4.858699">
        <ele>166.578005</ele>
        <time>2017-06-05T11:17:06.000Z</time>
      </trkpt>
      <trkpt lat="44.981007" lon="4.858644">
        <ele>166.670980</ele>
        <time>2017-06-05T11:17:08.000Z</time>
      </trkpt>
      <trkpt lat="44.980896" lon="4.858597">
        <ele>166.763312</ele>
        <time>2017-06-05T11:17:10.000Z</time>
      </trkpt>
      <trkpt lat="44.980778" lon="4.858550">
        <ele>166.861002</ele>
        <time>2017-06-05T11:17:12.000Z</time>
      </trkpt>
      <trkpt lat="44.980660" lon="4.858513">
        <ele>166.957315</ele>
        <time>2017-06-05T11:17:14.000Z</time>
      </trkpt>
      <trkpt lat="44.980537" lon="4.858475">
        <ele>167.057641</ele>
        <time>2017-06-05T11:17:16.000Z</time>
      </trkpt>
      <trkpt lat="44.980415" lon="4.858444">
        <ele>167.156415</ele>
        <time>2017-06-05T11:17:18.000Z</time>
      </trkpt>
      <trkpt lat="44.980286" lon="4.858409">
        <ele>167.261085</ele>
        <time>2017-06-05T11:17:20.000Z</time>
      </trkpt>
      <trkpt lat="44.980160" lon="4.858385">
        <ele>167.362396</ele>
        <time>2017-06-05T11:17:22.000Z</time>
      </trkpt>
      <trkpt lat="44.980034" lon="4.858366">
        <ele>167.463369</ele>
        <time>2017-06-05T11:17:24.000Z</time>
      </trkpt>
      <trkpt lat="44.979910" lon="4.858352">
        <ele>167.562494</ele>
        <time>2017-06-05T11:17:26.000Z</time>
      </trkpt>
      <trkpt lat="44.979794" lon="4.858346">
        <ele>167.654991</ele>
        <time>2017-06-05T11:17:28.000Z</time>
      </trkpt>
      <trkpt lat="44.979675" lon="4.858333">
        <ele>167.750099</ele>
        <time>2017-06-05T11:17:30.000Z</time>
      </trkpt>
      <trkpt lat="44.979557" lon="4.858330">
        <ele>167.844143</ele>
        <time>2017-06-05T11:17:32.000Z</time>
      </trkpt>
      <trkpt lat="44.979443" lon="4.858325">
        <ele>167.935028</ele>
        <time>2017-06-05T11:17:34.000Z</time>
      </trkpt>
      <trkpt lat="44.979330" lon="4.858321">
        <ele>168.029554</ele>
        <time>2017-06-05T11:17:36.000Z</time>
      </trkpt>
      <trkpt lat="44.979214" lon="4.858323">
        <ele>168.130874</ele>
        <time>2017-06-05T11:17:38.000Z</time>
      </trkpt>
      <trkpt lat="44.979100" lon="4.858321">
        <ele>168.230447</ele>
        <time>2017-06-05T11:17:40.000Z</time>
      </trkpt>
      <trkpt lat="44.978996" lon="4.858325">
        <ele>168.321312</ele>
        <time>2017-06-05T11:17:42.000Z</time>
      </trkpt>
      <trkpt lat="44.978886" lon="4.858320">
        <ele>168.417433</ele>
        <time>2017-06-05T11:17:44.000Z</time>
      </trkpt>
      <trkpt lat="44.978786" lon="4.858331">
        <ele>168.505035</ele>
        <time>2017-06-05T11:17:46.000Z</time>
      </trkpt>
      <trkpt lat="44.978690" lon="4.858334">
        <ele>168.588900</ele>
        <time>2017-06-05T11:17:48.000Z</time>
      </trkpt>
      <trkpt lat="44.978596" lon="4.858347">
        <ele>168.671390</ele>
        <time>2017-06-05T11:17:50.000Z</time>
      </trkpt>
      <trkpt lat="44.978493" lon="4.858356">
        <ele>168.761519</ele>
        <time>2017-06-05T11:17:52.000Z</time>
      </trkpt>
      <trkpt lat="44.978390" lon="4.858371">
        <ele>168.851954</ele>
        <time>2017-06-05T11:17:54.000Z</time>
      </trkpt>
      <trkpt lat="44.978287" lon="4.858381">
        <ele>168.942124</ele>
        <time>2017-06-05T11:17:56.000Z</time>
      </trkpt>
      <trkpt lat="44.978184" lon="4.858390">
        <ele>169.032253</ele>
        <time>2017-06-05T11:17:58.000Z</time>
      </trkpt>
      <trkpt lat="44.978080" lon="4.858404">
        <ele>169.123496</ele>
        <time>2017-06-05T11:18:00.000Z</time>
      </trkpt>
      <trkpt lat="44.977966" lon="4.858418">
        <ele>169.223436</ele>
        <time>2017-06-05T11:18:02.000Z</time>
      </trkpt>
      <trkpt lat="44.977860" lon="4.858439">
        <ele>169.316919</ele>
        <time>2017-06-05T11:18:04.000Z</time>
      </trkpt>
      <trkpt lat="44.977757" lon="4.858462">
        <ele>169.407992</ele>
        <time>2017-06-05T11:18:06.000Z</time>
      </trkpt>
      <trkpt lat="44.977650" lon="4.858480">
        <ele>169.502103</ele>
        <time>2017-06-05T11:18:08.000Z</time>
      </trkpt>
      <trkpt lat="44.977543" lon="4.858503">
        <ele>169.513728</ele>
        <time>2017-06-05T11:18:10.000Z</time>
      </trkpt>
      <trkpt lat="44.977440" lon="4.858530">
        <ele>169.443859</ele>
        <time>2017-06-05T11:18:12.000Z</time>
      </trkpt>
      <trkpt lat="44.977325" lon="4.858563">
        <ele>169.365593</ele>
        <time>2017-06-05T11:18:14.000Z</time>
      </trkpt>
      <trkpt lat="44.977215" lon="4.858589">
        <ele>169.291208</ele>
        <time>2017-06-05T11:18:16.000Z</time>
      </trkpt>
      <trkpt lat="44.977110" lon="4.858625">
        <ele>169.219146</ele>
        <time>2017-06-05T11:18:18.000Z</time>
      </trkpt>
      <trkpt lat="44.977000" lon="4.858660">
        <ele>169.143944</ele>
        <time>2017-06-05T11:18:20.000Z</time>
      </trkpt>
      <trkpt lat="44.976890" lon="4.858691">
        <ele>169.069134</ele>
        <time>2017-06-05T11:18:22.000Z</time>
      </trkpt>
      <trkpt lat="44.976776" lon="4.858731">
        <ele>168.990792</ele>
        <time>2017-06-05T11:18:24.000Z</time>
      </trkpt>
      <trkpt lat="44.976665" lon="4.858774">
        <ele>168.914029</ele>
        <time>2017-06-05T11:18:26.000Z</time>
      </trkpt>
      <trkpt lat="44.976547" lon="4.858821">
        <ele>168.832262</ele>
        <time>2017-06-05T11:18:28.000Z</time>
      </trkpt>
      <trkpt lat="44.976430" lon="4.858875">
        <ele>168.750173</ele>
        <time>2017-06-05T11:18:30.000Z</time>
      </trkpt>
      <trkpt lat="44.976315" lon="4.858922">
        <ele>168.670330</ele>
        <time>2017-06-05T11:18:32.000Z</time>
      </trkpt>
      <trkpt lat="44.976200" lon="4.858963">
        <ele>168.591227</ele>
        <time>2017-06-05T11:18:34.000Z</time>
      </trkpt>
      <trkpt lat="44.976080" lon="4.859011">
        <ele>168.508048</ele>
        <time>2017-06-05T11:18:36.000Z</time>
      </trkpt>
      <trkpt lat="44.975960" lon="4.859071">
        <ele>168.423153</ele>
        <time>2017-06-05T11:18:38.000Z</time>
      </trkpt>
      <trkpt lat="44.975834" lon="4.859132">
        <ele>168.363997</ele>
        <time>2017-06-05T11:18:40.000Z</time>
      </trkpt>
      <trkpt lat="44.975716" lon="4.859200">
        <ele>168.440046</ele>
        <time>2017-06-05T11:18:42.000Z</time>
      </trkpt>
      <trkpt lat="44.975594" lon="4.859268">
        <ele>168.518310</ele>
        <time>2017-06-05T11:18:44.000Z</time>
      </trkpt>
      <trkpt lat="44.975470" lon="4.859341">
        <ele>168.598473</ele>
        <time>2017-06-05T11:18:46.000Z</time>
      </trkpt>
      <trkpt lat="44.975350" lon="4.859415">
        <ele>168.676606</ele>
        <time>2017-06-05T11:18:48.000Z</time>
      </trkpt>
      <trkpt lat="44.975224" lon="4.859488">
        <ele>168.757872</ele>
        <time>2017-06-05T11:18:50.000Z</time>
      </trkpt>
      <trkpt lat="44.975098" lon="4.859564">
        <ele>168.839627</ele>
        <time>2017-06-05T11:18:52.000Z</time>
      </trkpt>
      <trkpt lat="44.974980" lon="4.859631">
        <ele>168.915517</ele>
        <time>2017-06-05T11:18:54.000Z</time>
      </trkpt>
      <trkpt lat="44.974870" lon="4.859704">
        <ele>168.988039</ele>
        <time>2017-06-05T11:18:56.000Z</time>
      </trkpt>
      <trkpt lat="44.974747" lon="4.859777">
        <ele>169.067652</ele>
        <time>2017-06-05T11:18:58.000Z</time>
      </trkpt>
      <trkpt lat="44.974630" lon="4.859850">
        <ele>169.143976</ele>
        <time>2017-06-05T11:19:00.000Z</time>
      </trkpt>
      <trkpt lat="44.974510" lon="4.859925">
        <ele>169.222278</ele>
        <time>2017-06-05T11:19:02.000Z</time>
      </trkpt>
      <trkpt lat="44.974396" lon="4.859995">
        <ele>169.296454</ele>
        <time>2017-06-05T11:19:04.000Z</time>
      </trkpt>
      <trkpt lat="44.974290" lon="4.860061">
        <ele>169.365579</ele>
        <time>2017-06-05T11:19:06.000Z</time>
      </trkpt>
      <trkpt lat="44.974190" lon="4.860128">
        <ele>169.436228</ele>
        <time>2017-06-05T11:19:08.000Z</time>
      </trkpt>
      <trkpt lat="44.974106" lon="4.860185">
        <ele>169.522990</ele>
        <time>2017-06-05T11:19:10.000Z</time>
      </trkpt>
      <trkpt lat="44.974003" lon="4.860265">
        <ele>169.632423</ele>
        <time>2017-06-05T11:19:13.000Z</time>
      </trkpt>
      <trkpt lat="44.973970" lon="4.860396">
        <ele>169.724024</ele>
        <time>2017-06-05T11:19:16.000Z</time>
      </trkpt>
      <trkpt lat="44.974033" lon="4.860538">
        <ele>169.834436</ele>
        <time>2017-06-05T11:19:19.000Z</time>
      </trkpt>
      <trkpt lat="44.974075" lon="4.860655">
        <ele>169.920861</ele>
        <time>2017-06-05T11:19:21.000Z</time>
      </trkpt>
      <trkpt lat="44.974113" lon="4.860778">
        <ele>170.009274</ele>
        <time>2017-06-05T11:19:23.000Z</time>
      </trkpt>
      <trkpt lat="44.974150" lon="4.860906">
        <ele>170.100357</ele>
        <time>2017-06-05T11:19:25.000Z</time>
      </trkpt>
      <trkpt lat="44.974182" lon="4.861030">
        <ele>170.187304</ele>
        <time>2017-06-05T11:19:27.000Z</time>
      </trkpt>
      <trkpt lat="44.974224" lon="4.861150">
        <ele>170.275496</ele>
        <time>2017-06-05T11:19:29.000Z</time>
      </trkpt>
      <trkpt lat="44.974262" lon="4.861288">
        <ele>170.373043</ele>
        <time>2017-06-05T11:19:31.000Z</time>
      </trkpt>
      <trkpt lat="44.974293" lon="4.861433">
        <ele>170.472824</ele>
        <time>2017-06-05T11:19:33.000Z</time>
      </trkpt>
      <trkpt lat="44.974270" lon="4.861566">
        <ele>170.563014</ele>
        <time>2017-06-05T11:19:35.000Z</time>
      </trkpt>
      <trkpt lat="44.974167" lon="4.861672">
        <ele>170.681648</ele>
        <time>2017-06-05T11:19:37.000Z</time>
      </trkpt>
      <trkpt lat="44.974064" lon="4.861759">
        <ele>170.793374</ele>
        <time>2017-06-05T11:19:39.000Z</time>
      </trkpt>
      <trkpt lat="44.973970" lon="4.861845">
        <ele>170.897636</ele>
        <time>2017-06-05T11:19:41.000Z</time>
      </trkpt>
      <trkpt lat="44.973873" lon="4.861949">
        <ele>171.010999</ele>
        <time>2017-06-05T11:19:43.000Z</time>
      </trkpt>
      <trkpt lat="44.973790" lon="4.862066">
        <ele>171.066992</ele>
        <time>2017-06-05T11:19:45.000Z</time>
      </trkpt>
      <trkpt lat="44.973713" lon="4.862192">
        <ele>170.910846</ele>
        <time>2017-06-05T11:19:47.000Z</time>
      </trkpt>
      <trkpt lat="44.973644" lon="4.862327">
        <ele>170.754657</ele>
        <time>2017-06-05T11:19:49.000Z</time>
      </trkpt>
      <trkpt lat="44.973583" lon="4.862468">
        <ele>170.599661</ele>
        <time>2017-06-05T11:19:51.000Z</time>
      </trkpt>
      <trkpt lat="44.973526" lon="4.862617">
        <ele>170.440807</ele>
        <time>2017-06-05T11:19:53.000Z</time>
      </trkpt>
      <trkpt lat="44.973480" lon="4.862777">
        <ele>170.278840</ele>
        <time>2017-06-05T11:19:55.000Z</time>
      </trkpt>
      <trkpt lat="44.973434" lon="4.862938">
        <ele>170.116005</ele>
        <time>2017-06-05T11:19:57.000Z</time>
      </trkpt>
      <trkpt lat="44.973392" lon="4.863100">
        <ele>169.954200</ele>
        <time>2017-06-05T11:19:59.000Z</time>
      </trkpt>
      <trkpt lat="44.973354" lon="4.863277">
        <ele>169.780733</ele>
        <time>2017-06-05T11:20:01.000Z</time>
      </trkpt>
      <trkpt lat="44.973320" lon="4.863452">
        <ele>169.610540</ele>
        <time>2017-06-05T11:20:03.000Z</time>
      </trkpt>
      <trkpt lat="44.973286" lon="4.863622">
        <ele>169.444864</ele>
        <time>2017-06-05T11:20:05.000Z</time>
      </trkpt>
      <trkpt lat="44.973255" lon="4.863780">
        <ele>169.291098</ele>
        <time>2017-06-05T11:20:07.000Z</time>
      </trkpt>
      <trkpt lat="44.973220" lon="4.863934">
        <ele>169.139405</ele>
        <time>2017-06-05T11:20:09.000Z</time>
      </trkpt>
      <trkpt lat="44.973186" lon="4.864091">
        <ele>168.985425</ele>
        <time>2017-06-05T11:20:11.000Z</time>
      </trkpt>
      <trkpt lat="44.973150" lon="4.864248">
        <ele>168.830648</ele>
        <time>2017-06-05T11:20:13.000Z</time>
      </trkpt>
      <trkpt lat="44.973125" lon="4.864399">
        <ele>168.783544</ele>
        <time>2017-06-05T11:20:15.000Z</time>
      </trkpt>
      <trkpt lat="44.973103" lon="4.864547">
        <ele>169.128547</ele>
        <time>2017-06-05T11:20:17.000Z</time>
      </trkpt>
      <trkpt lat="44.973072" lon="4.864701">
        <ele>169.493812</ele>
        <time>2017-06-05T11:20:19.000Z</time>
      </trkpt>
      <trkpt lat="44.973050" lon="4.864841">
        <ele>169.820977</ele>
        <time>2017-06-05T11:20:21.000Z</time>
      </trkpt>
      <trkpt lat="44.973026" lon="4.864979">
        <ele>170.145169</ele>
        <time>2017-06-05T11:20:23.000Z</time>
      </trkpt>
      <trkpt lat="44.972992" lon="4.865101">
        <ele>170.444304</ele>
        <time>2017-06-05T11:20:25.000Z</time>
      </trkpt>
      <trkpt lat="44.972950" lon="4.865280">
        <ele>170.874530</ele>
        <time>2017-06-05T11:20:28.000Z</time>
      </trkpt>
      <trkpt lat="44.972923" lon="4.865415">
        <ele>171.194576</ele>
        <time>2017-06-05T11:20:30.000Z</time>
      </trkpt>
      <trkpt lat="44.972890" lon="4.865538">
        <ele>171.494677</ele>
        <time>2017-06-05T11:20:32.000Z</time>
      </trkpt>
      <trkpt lat="44.972860" lon="4.865670">
        <ele>171.810967</ele>
        <time>2017-06-05T11:20:34.000Z</time>
      </trkpt>
      <trkpt lat="44.972824" lon="4.865849">
        <ele>172.235500</ele>
        <time>2017-06-05T11:20:37.000Z</time>
      </trkpt>
      <trkpt lat="44.972797" lon="4.865976">
        <ele>172.538025</ele>
        <time>2017-06-05T11:20:39.000Z</time>
      </trkpt>
      <trkpt lat="44.972760" lon="4.866092">
        <ele>172.828311</ele>
        <time>2017-06-05T11:20:41.000Z</time>
      </trkpt>
      <trkpt lat="44.972725" lon="4.866218">
        <ele>173.137119</ele>
        <time>2017-06-05T11:20:44.000Z</time>
      </trkpt>
      <trkpt lat="44.972656" lon="4.866348">
        <ele>173.507879</ele>
        <time>2017-06-05T11:20:48.000Z</time>
      </trkpt>
      <trkpt lat="44.972603" lon="4.866468">
        <ele>173.830606</ele>
        <time>2017-06-05T11:20:51.000Z</time>
      </trkpt>
      <trkpt lat="44.972570" lon="4.866599">
        <ele>174.147839</ele>
        <time>2017-06-05T11:20:54.000Z</time>
      </trkpt>
      <trkpt lat="44.972540" lon="4.866749">
        <ele>174.503448</ele>
        <time>2017-06-05T11:20:57.000Z</time>
      </trkpt>
      <trkpt lat="44.972523" lon="4.866921">
        <ele>174.755011</ele>
        <time>2017-06-05T11:21:00.000Z</time>
      </trkpt>
      <trkpt lat="44.972500" lon="4.867091">
        <ele>175.001786</ele>
        <time>2017-06-05T11:21:03.000Z</time>
      </trkpt>
      <trkpt lat="44.972466" lon="4.867260">
        <ele>175.252297</ele>
        <time>2017-06-05T11:21:06.000Z</time>
      </trkpt>
      <trkpt lat="44.972430" lon="4.867422">
        <ele>175.494400</ele>
        <time>2017-06-05T11:21:09.000Z</time>
      </trkpt>
      <trkpt lat="44.972397" lon="4.867596">
        <ele>175.751246</ele>
        <time>2017-06-05T11:21:12.000Z</time>
      </trkpt>
      <trkpt lat="44.972378" lon="4.867726">
        <ele>175.940512</ele>
        <time>2017-06-05T11:21:14.000Z</time>
      </trkpt>
      <trkpt lat="44.972350" lon="4.867854">
        <ele>176.131537</ele>
        <time>2017-06-05T11:21:16.000Z</time>
      </trkpt>
      <trkpt lat="44.972324" lon="4.867981">
        <ele>176.320041</ele>
        <time>2017-06-05T11:21:18.000Z</time>
      </trkpt>
      <trkpt lat="44.972300" lon="4.868108">
        <ele>176.507465</ele>
        <time>2017-06-05T11:21:20.000Z</time>
      </trkpt>
      <trkpt lat="44.972280" lon="4.868231">
        <ele>176.687409</ele>
        <time>2017-06-05T11:21:22.000Z</time>
      </trkpt>
      <trkpt lat="44.972260" lon="4.868362">
        <ele>176.878486</ele>
        <time>2017-06-05T11:21:24.000Z</time>
      </trkpt>
      <trkpt lat="44.972225" lon="4.868486">
        <ele>177.068836</ele>
        <time>2017-06-05T11:21:26.000Z</time>
      </trkpt>
      <trkpt lat="44.972195" lon="4.868624">
        <ele>177.274674</ele>
        <time>2017-06-05T11:21:28.000Z</time>
      </trkpt>
      <trkpt lat="44.972168" lon="4.868761">
        <ele>177.477445</ele>
        <time>2017-06-05T11:21:30.000Z</time>
      </trkpt>
      <trkpt lat="44.972137" lon="4.868905">
        <ele>177.692054</ele>
        <time>2017-06-05T11:21:32.000Z</time>
      </trkpt>
      <trkpt lat="44.972100" lon="4.869042">
        <ele>177.901136</ele>
        <time>2017-06-05T11:21:34.000Z</time>
      </trkpt>
      <trkpt lat="44.972054" lon="4.869183">
        <ele>178.122519</ele>
        <time>2017-06-05T11:21:36.000Z</time>
      </trkpt>
      <trkpt lat="44.972004" lon="4.869325">
        <ele>178.095137</ele>
        <time>2017-06-05T11:21:38.000Z</time>
      </trkpt>
      <trkpt lat="44.971962" lon="4.869459">
        <ele>178.051495</ele>
        <time>2017-06-05T11:21:40.000Z</time>
      </trkpt>
      <trkpt lat="44.971916" lon="4.869594">
        <ele>178.006876</ele>
        <time>2017-06-05T11:21:42.000Z</time>
      </trkpt>
      <trkpt lat="44.971870" lon="4.869733">
        <ele>177.961181</ele>
        <time>2017-06-05T11:21:44.000Z</time>
      </trkpt>
      <trkpt lat="44.971820" lon="4.869865">
        <ele>177.916596</ele>
        <time>2017-06-05T11:21:46.000Z</time>
      </trkpt>
      <trkpt lat="44.971775" lon="4.870009">
        <ele>177.869719</ele>
        <time>2017-06-05T11:21:48.000Z</time>
      </trkpt>
      <trkpt lat="44.971730" lon="4.870145">
        <ele>177.825012</ele>
        <time>2017-06-05T11:21:50.000Z</time>
      </trkpt>
      <trkpt lat="44.971687" lon="4.870281">
        <ele>177.780654</ele>
        <time>2017-06-05T11:21:52.000Z</time>
      </trkpt>
      <trkpt lat="44.971634" lon="4.870416">
        <ele>177.734680</ele>
        <time>2017-06-05T11:21:54.000Z</time>
      </trkpt>
      <trkpt lat="44.971592" lon="4.870551">
        <ele>177.690765</ele>
        <time>2017-06-05T11:21:56.000Z</time>
      </trkpt>
      <trkpt lat="44.971546" lon="4.870687">
        <ele>177.645877</ele>
        <time>2017-06-05T11:21:58.000Z</time>
      </trkpt>
      <trkpt lat="44.971508" lon="4.870821">
        <ele>177.602889</ele>
        <time>2017-06-05T11:22:00.000Z</time>
      </trkpt>
      <trkpt lat="44.971466" lon="4.870951">
        <ele>177.560333</ele>
        <time>2017-06-05T11:22:02.000Z</time>
      </trkpt>
      <trkpt lat="44.971424" lon="4.871071">
        <ele>177.520467</ele>
        <time>2017-06-05T11:22:04.000Z</time>
      </trkpt>
      <trkpt lat="44.971367" lon="4.871235">
        <ele>177.466056</ele>
        <time>2017-06-05T11:22:07.000Z</time>
      </trkpt>
      <trkpt lat="44.971340" lon="4.871383">
        <ele>177.420544</ele>
        <time>2017-06-05T11:22:10.000Z</time>
      </trkpt>
      <trkpt lat="44.971300" lon="4.871518">
        <ele>177.377967</ele>
        <time>2017-06-05T11:22:13.000Z</time>
      </trkpt>
      <trkpt lat="44.971240" lon="4.871644">
        <ele>177.341988</ele>
        <time>2017-06-05T11:22:16.000Z</time>
      </trkpt>
      <trkpt lat="44.971195" lon="4.871810">
        <ele>177.299879</ele>
        <time>2017-06-05T11:22:19.000Z</time>
      </trkpt>
      <trkpt lat="44.971146" lon="4.871926">
        <ele>177.267875</ele>
        <time>2017-06-05T11:22:21.000Z</time>
      </trkpt>
      <trkpt lat="44.971096" lon="4.872049">
        <ele>177.234271</ele>
        <time>2017-06-05T11:22:23.000Z</time>
      </trkpt>
      <trkpt lat="44.971050" lon="4.872177">
        <ele>177.200263</ele>
        <time>2017-06-05T11:22:25.000Z</time>
      </trkpt>
      <trkpt lat="44.970997" lon="4.872309">
        <ele>177.164310</ele>
        <time>2017-06-05T11:22:27.000Z</time>
      </trkpt>
      <trkpt lat="44.970950" lon="4.872440">
        <ele>177.129516</ele>
        <time>2017-06-05T11:22:29.000Z</time>
      </trkpt>
      <trkpt lat="44.970910" lon="4.872572">
        <ele>177.095500</ele>
        <time>2017-06-05T11:22:31.000Z</time>
      </trkpt>
      <trkpt lat="44.970867" lon="4.872716">
        <ele>177.058476</ele>
        <time>2017-06-05T11:22:33.000Z</time>
      </trkpt>
      <trkpt lat="44.970818" lon="4.872837">
        <ele>177.025449</ele>
        <time>2017-06-05T11:22:35.000Z</time>
      </trkpt>
      <trkpt lat="44.970776" lon="4.872973">
        <ele>176.990298</ele>
        <time>2017-06-05T11:22:37.000Z</time>
      </trkpt>
      <trkpt lat="44.970730" lon="4.873118">
        <ele>176.952655</ele>
        <time>2017-06-05T11:22:39.000Z</time>
      </trkpt>
      <trkpt lat="44.970684" lon="4.873253">
        <ele>176.917160</ele>
        <time>2017-06-05T11:22:41.000Z</time>
      </trkpt>
      <trkpt lat="44.970640" lon="4.873380">
        <ele>176.883662</ele>
        <time>2017-06-05T11:22:43.000Z</time>
      </trkpt>
      <trkpt lat="44.970585" lon="4.873539">
        <ele>176.841737</ele>
        <time>2017-06-05T11:22:46.000Z</time>
      </trkpt>
      <trkpt lat="44.970547" lon="4.873671">
        <ele>176.807979</ele>
        <time>2017-06-05T11:22:49.000Z</time>
      </trkpt>
      <trkpt lat="44.970505" lon="4.873784">
        <ele>176.776334</ele>
        <time>2017-06-05T11:22:52.000Z</time>
      </trkpt>
      <trkpt lat="44.970432" lon="4.873899">
        <ele>176.712550</ele>
        <time>2017-06-05T11:22:55.000Z</time>
      </trkpt>
      <trkpt lat="44.970390" lon="4.874046">
        <ele>176.647102</ele>
        <time>2017-06-05T11:22:58.000Z</time>
      </trkpt>
      <trkpt lat="44.970360" lon="4.874178">
        <ele>176.589867</ele>
        <time>2017-06-05T11:23:00.000Z</time>
      </trkpt>
      <trkpt lat="44.970320" lon="4.874301">
        <ele>176.533981</ele>
        <time>2017-06-05T11:23:02.000Z</time>
      </trkpt>
      <trkpt lat="44.970272" lon="4.874416">
        <ele>176.478860</ele>
        <time>2017-06-05T11:23:04.000Z</time>
      </trkpt>
      <trkpt lat="44.970210" lon="4.874529">
        <ele>176.419825</ele>
        <time>2017-06-05T11:23:06.000Z</time>
      </trkpt>
      <trkpt lat="44.970142" lon="4.874637">
        <ele>176.360140</ele>
        <time>2017-06-05T11:23:08.000Z</time>
      </trkpt>
      <trkpt lat="44.970060" lon="4.874749">
        <ele>176.293602</ele>
        <time>2017-06-05T11:23:10.000Z</time>
      </trkpt>
      <trkpt lat="44.969950" lon="4.874822">
        <ele>176.222691</ele>
        <time>2017-06-05T11:23:12.000Z</time>
      </trkpt>
      <trkpt lat="44.969837" lon="4.874817">
        <ele>176.156721</ele>
        <time>2017-06-05T11:23:14.000Z</time>
      </trkpt>
      <trkpt lat="44.969720" lon="4.874796">
        <ele>176.087901</ele>
        <time>2017-06-05T11:23:16.000Z</time>
      </trkpt>
      <trkpt lat="44.969597" lon="4.874799">
        <ele>176.016117</ele>
        <time>2017-06-05T11:23:18.000Z</time>
      </trkpt>
      <trkpt lat="44.969475" lon="4.874782">
        <ele>175.944582</ele>
        <time>2017-06-05T11:23:20.000Z</time>
      </trkpt>
      <trkpt lat="44.969345" lon="4.874773">
        <ele>175.868633</ele>
        <time>2017-06-05T11:23:22.000Z</time>
      </trkpt>
      <trkpt lat="44.969215" lon="4.874755">
        <ele>175.792412</ele>
        <time>2017-06-05T11:23:24.000Z</time>
      </trkpt>
      <trkpt lat="44.969097" lon="4.874743">
        <ele>175.701560</ele>
        <time>2017-06-05T11:23:26.000Z</time>
      </trkpt>
      <trkpt lat="44.968975" lon="4.874733">
        <ele>175.398390</ele>
        <time>2017-06-05T11:23:28.000Z</time>
      </trkpt>
      <trkpt lat="44.968853" lon="4.874722">
        <ele>175.095113</ele>
        <time>2017-06-05T11:23:30.000Z</time>
      </trkpt>
      <trkpt lat="44.968730" lon="4.874708">
        <ele>174.788983</ele>
        <time>2017-06-05T11:23:32.000Z</time>
      </trkpt>
      <trkpt lat="44.968600" lon="4.874695">
        <ele>174.465669</ele>
        <time>2017-06-05T11:23:34.000Z</time>
      </trkpt>
      <trkpt lat="44.968475" lon="4.874684">
        <ele>174.154965</ele>
        <time>2017-06-05T11:23:36.000Z</time>
      </trkpt>
      <trkpt lat="44.968340" lon="4.874676">
        <ele>173.819758</ele>
        <time>2017-06-05T11:23:38.000Z</time>
      </trkpt>
      <trkpt lat="44.968212" lon="4.874661">
        <ele>173.501122</ele>
        <time>2017-06-05T11:23:40.000Z</time>
      </trkpt>
      <trkpt lat="44.968082" lon="4.874648">
        <ele>173.177808</ele>
        <time>2017-06-05T11:23:42.000Z</time>
      </trkpt>
      <trkpt lat="44.967945" lon="4.874652">
        <ele>172.837862</ele>
        <time>2017-06-05T11:23:44.000Z</time>
      </trkpt>
      <trkpt lat="44.967796" lon="4.874631">
        <ele>172.466384</ele>
        <time>2017-06-05T11:23:46.000Z</time>
      </trkpt>
      <trkpt lat="44.967648" lon="4.874592">
        <ele>172.092895</ele>
        <time>2017-06-05T11:23:48.000Z</time>
      </trkpt>
      <trkpt lat="44.967487" lon="4.874543">
        <ele>171.684326</ele>
        <time>2017-06-05T11:23:50.000Z</time>
      </trkpt>
      <trkpt lat="44.967323" lon="4.874479">
        <ele>171.264130</ele>
        <time>2017-06-05T11:23:52.000Z</time>
      </trkpt>
      <trkpt lat="44.967170" lon="4.874346">
        <ele>170.965456</ele>
        <time>2017-06-05T11:23:54.000Z</time>
      </trkpt>
      <trkpt lat="44.967052" lon="4.874158">
        <ele>170.669794</ele>
        <time>2017-06-05T11:23:56.000Z</time>
      </trkpt>
      <trkpt lat="44.966953" lon="4.873975">
        <ele>170.398778</ele>
        <time>2017-06-05T11:23:58.000Z</time>
      </trkpt>
      <trkpt lat="44.966850" lon="4.873820">
        <ele>170.148609</ele>
        <time>2017-06-05T11:24:00.000Z</time>
      </trkpt>
      <trkpt lat="44.966720" lon="4.873732">
        <ele>169.908931</ele>
        <time>2017-06-05T11:24:02.000Z</time>
      </trkpt>
      <trkpt lat="44.966602" lon="4.873613">
        <ele>169.667895</ele>
        <time>2017-06-05T11:24:04.000Z</time>
      </trkpt>
      <trkpt lat="44.966496" lon="4.873467">
        <ele>169.421787</ele>
        <time>2017-06-05T11:24:06.000Z</time>
      </trkpt>
      <trkpt lat="44.966373" lon="4.873369">
        <ele>169.187004</ele>
        <time>2017-06-05T11:24:08.000Z</time>
      </trkpt>
      <trkpt lat="44.966255" lon="4.873241">
        <ele>168.939667</ele>
        <time>2017-06-05T11:24:10.000Z</time>
      </trkpt>
      <trkpt lat="44.966150" lon="4.873103">
        <ele>168.701252</ele>
        <time>2017-06-05T11:24:12.000Z</time>
      </trkpt>
      <trkpt lat="44.966045" lon="4.872986">
        <ele>168.478923</ele>
        <time>2017-06-05T11:24:14.000Z</time>
      </trkpt>
      <trkpt lat="44.965958" lon="4.872886">
        <ele>168.292460</ele>
        <time>2017-06-05T11:24:16.000Z</time>
      </trkpt>
      <trkpt lat="44.965855" lon="4.872847">
        <ele>168.310935</ele>
        <time>2017-06-05T11:24:18.000Z</time>
      </trkpt>
      <trkpt lat="44.965744" lon="4.872854">
        <ele>168.349441</ele>
        <time>2017-06-05T11:24:20.000Z</time>
      </trkpt>
      <trkpt lat="44.965630" lon="4.872862">
        <ele>168.388997</ele>
        <time>2017-06-05T11:24:22.000Z</time>
      </trkpt>
      <trkpt lat="44.965508" lon="4.872835">
        <ele>168.431791</ele>
        <time>2017-06-05T11:24:24.000Z</time>
      </trkpt>
      <trkpt lat="44.965390" lon="4.872756">
        <ele>168.477041</ele>
        <time>2017-06-05T11:24:26.000Z</time>
      </trkpt>
      <trkpt lat="44.965275" lon="4.872677">
        <ele>168.521352</ele>
        <time>2017-06-05T11:24:28.000Z</time>
      </trkpt>
      <trkpt lat="44.965180" lon="4.872585">
        <ele>168.561262</ele>
        <time>2017-06-05T11:24:30.000Z</time>
      </trkpt>
      <trkpt lat="44.965120" lon="4.872455">
        <ele>168.599320</ele>
        <time>2017-06-05T11:24:32.000Z</time>
      </trkpt>
      <trkpt lat="44.965065" lon="4.872321">
        <ele>168.637305</ele>
        <time>2017-06-05T11:24:34.000Z</time>
      </trkpt>
      <trkpt lat="44.965034" lon="4.872175">
        <ele>168.674681</ele>
        <time>2017-06-05T11:24:36.000Z</time>
      </trkpt>
      <trkpt lat="44.965008" lon="4.872033">
        <ele>168.710647</ele>
        <time>2017-06-05T11:24:38.000Z</time>
      </trkpt>
      <trkpt lat="44.964977" lon="4.871898">
        <ele>168.745448</ele>
        <time>2017-06-05T11:24:40.000Z</time>
      </trkpt>
      <trkpt lat="44.964928" lon="4.871786">
        <ele>168.777737</ele>
        <time>2017-06-05T11:24:42.000Z</time>
      </trkpt>
      <trkpt lat="44.964850" lon="4.871694">
        <ele>168.812944</ele>
        <time>2017-06-05T11:24:44.000Z</time>
      </trkpt>
      <trkpt lat="44.964770" lon="4.871608">
        <ele>168.847777</ele>
        <time>2017-06-05T11:24:46.000Z</time>
      </trkpt>
      <trkpt lat="44.964690" lon="4.871509">
        <ele>168.884627</ele>
        <time>2017-06-05T11:24:48.000Z</time>
      </trkpt>
      <trkpt lat="44.964603" lon="4.871445">
        <ele>168.934582</ele>
        <time>2017-06-05T11:24:50.000Z</time>
      </trkpt>
      <trkpt lat="44.964520" lon="4.871376">
        <ele>168.997354</ele>
        <time>2017-06-05T11:24:52.000Z</time>
      </trkpt>
      <trkpt lat="44.964428" lon="4.871322">
        <ele>169.062292</ele>
        <time>2017-06-05T11:24:54.000Z</time>
      </trkpt>
      <trkpt lat="44.964336" lon="4.871362">
        <ele>169.125038</ele>
        <time>2017-06-05T11:24:56.000Z</time>
      </trkpt>
      <trkpt lat="44.964268" lon="4.871470">
        <ele>169.191719</ele>
        <time>2017-06-05T11:24:58.000Z</time>
      </trkpt>
      <trkpt lat="44.964195" lon="4.871584">
        <ele>169.262636</ele>
        <time>2017-06-05T11:25:00.000Z</time>
      </trkpt>
      <trkpt lat="44.964123" lon="4.871698">
        <ele>169.333117</ele>
        <time>2017-06-05T11:25:02.000Z</time>
      </trkpt>
      <trkpt lat="44.964054" lon="4.871816">
        <ele>169.403723</ele>
        <time>2017-06-05T11:25:04.000Z</time>
      </trkpt>
      <trkpt lat="44.963980" lon="4.871918">
        <ele>169.471105</ele>
        <time>2017-06-05T11:25:06.000Z</time>
      </trkpt>
      <trkpt lat="44.963894" lon="4.872002">
        <ele>169.539251</ele>
        <time>2017-06-05T11:25:08.000Z</time>
      </trkpt>
      <trkpt lat="44.963802" lon="4.872070">
        <ele>169.606930</ele>
        <time>2017-06-05T11:25:10.000Z</time>
      </trkpt>
      <trkpt lat="44.963710" lon="4.872132">
        <ele>169.673371</ele>
        <time>2017-06-05T11:25:12.000Z</time>
      </trkpt>
      <trkpt lat="44.963630" lon="4.872197">
        <ele>169.733525</ele>
        <time>2017-06-05T11:25:14.000Z</time>
      </trkpt>
      <trkpt lat="44.963550" lon="4.872255">
        <ele>169.792136</ele>
        <time>2017-06-05T11:25:16.000Z</time>
      </trkpt>
      <trkpt lat="44.963450" lon="4.872355">
        <ele>169.871991</ele>
        <time>2017-06-05T11:25:19.000Z</time>
      </trkpt>
      <trkpt lat="44.963352" lon="4.872456">
        <ele>169.951056</ele>
        <time>2017-06-05T11:25:22.000Z</time>
      </trkpt>
      <trkpt lat="44.963245" lon="4.872562">
        <ele>170.036236</ele>
        <time>2017-06-05T11:25:25.000Z</time>
      </trkpt>
      <trkpt lat="44.963173" lon="4.872647">
        <ele>170.055631</ele>
        <time>2017-06-05T11:25:27.000Z</time>
      </trkpt>
      <trkpt lat="44.963097" lon="4.872728">
        <ele>170.011517</ele>
        <time>2017-06-05T11:25:29.000Z</time>
      </trkpt>
      <trkpt lat="44.963017" lon="4.872809">
        <ele>169.965910</ele>
        <time>2017-06-05T11:25:31.000Z</time>
      </trkpt>
      <trkpt lat="44.962944" lon="4.872912">
        <ele>169.918105</ele>
        <time>2017-06-05T11:25:34.000Z</time>
      </trkpt>
      <trkpt lat="44.962894" lon="4.873030">
        <ele>169.873003</ele>
        <time>2017-06-05T11:25:38.000Z</time>
      </trkpt>
      <trkpt lat="44.962852" lon="4.873166">
        <ele>169.824344</ele>
        <time>2017-06-05T11:25:41.000Z</time>
      </trkpt>
      <trkpt lat="44.962830" lon="4.873333">
        <ele>169.768641</ele>
        <time>2017-06-05T11:25:44.000Z</time>
      </trkpt>
      <trkpt lat="44.962820" lon="4.873513">
        <ele>169.709434</ele>
        <time>2017-06-05T11:25:47.000Z</time>
      </trkpt>
      <trkpt lat="44.962810" lon="4.873696">
        <ele>169.649247</ele>
        <time>2017-06-05T11:25:50.000Z</time>
      </trkpt>
      <trkpt lat="44.962814" lon="4.873823">
        <ele>169.607560</ele>
        <time>2017-06-05T11:25:52.000Z</time>
      </trkpt>
      <trkpt lat="44.962852" lon="4.873995">
        <ele>169.548473</ele>
        <time>2017-06-05T11:25:55.000Z</time>
      </trkpt>
      <trkpt lat="44.962902" lon="4.874148">
        <ele>169.493209</ele>
        <time>2017-06-05T11:25:58.000Z</time>
      </trkpt>
      <trkpt lat="44.962944" lon="4.874284">
        <ele>169.444550</ele>
        <time>2017-06-05T11:26:01.000Z</time>
      </trkpt>
      <trkpt lat="44.962990" lon="4.874408">
        <ele>169.398639</ele>
        <time>2017-06-05T11:26:04.000Z</time>
      </trkpt>
      <trkpt lat="44.963028" lon="4.874548">
        <ele>169.349469</ele>
        <time>2017-06-05T11:26:07.000Z</time>
      </trkpt>
      <trkpt lat="44.963010" lon="4.874674">
        <ele>169.307318</ele>
        <time>2017-06-05T11:26:10.000Z</time>
      </trkpt>
      <trkpt lat="44.962940" lon="4.874763">
        <ele>169.263682</ele>
        <time>2017-06-05T11:26:13.000Z</time>
      </trkpt>
      <trkpt lat="44.962860" lon="4.874842">
        <ele>169.171887</ele>
        <time>2017-06-05T11:26:16.000Z</time>
      </trkpt>
      <trkpt lat="44.962757" lon="4.874925">
        <ele>168.994882</ele>
        <time>2017-06-05T11:26:19.000Z</time>
      </trkpt>
      <trkpt lat="44.962660" lon="4.875032">
        <ele>168.811185</ele>
        <time>2017-06-05T11:26:22.000Z</time>
      </trkpt>
      <trkpt lat="44.962620" lon="4.875166">
        <ele>168.657558</ele>
        <time>2017-06-05T11:26:25.000Z</time>
      </trkpt>
      <trkpt lat="44.962560" lon="4.875325">
        <ele>168.467212</ele>
        <time>2017-06-05T11:28:21.000Z</time>
      </trkpt>
      <trkpt lat="44.962460" lon="4.875286">
        <ele>168.312344</ele>
        <time>2017-06-05T11:28:25.000Z</time>
      </trkpt>
      <trkpt lat="44.962364" lon="4.875294">
        <ele>168.168779</ele>
        <time>2017-06-05T11:28:28.000Z</time>
      </trkpt>
      <trkpt lat="44.962254" lon="4.875306">
        <ele>168.004073</ele>
        <time>2017-06-05T11:28:31.000Z</time>
      </trkpt>
      <trkpt lat="44.962162" lon="4.875292">
        <ele>167.865935</ele>
        <time>2017-06-05T11:28:33.000Z</time>
      </trkpt>
      <trkpt lat="44.962067" lon="4.875283">
        <ele>167.723793</ele>
        <time>2017-06-05T11:28:35.000Z</time>
      </trkpt>
      <trkpt lat="44.961967" lon="4.875267">
        <ele>167.573551</ele>
        <time>2017-06-05T11:28:37.000Z</time>
      </trkpt>
      <trkpt lat="44.961870" lon="4.875243">
        <ele>167.426539</ele>
        <time>2017-06-05T11:28:39.000Z</time>
      </trkpt>
      <trkpt lat="44.961770" lon="4.875224">
        <ele>167.275908</ele>
        <time>2017-06-05T11:28:41.000Z</time>
      </trkpt>
      <trkpt lat="44.961680" lon="4.875258">
        <ele>167.136832</ele>
        <time>2017-06-05T11:28:43.000Z</time>
      </trkpt>
      <trkpt lat="44.961605" lon="4.875349">
        <ele>166.989263</ele>
        <time>2017-06-05T11:28:45.000Z</time>
      </trkpt>
      <trkpt lat="44.961506" lon="4.875476">
        <ele>166.789661</ele>
        <time>2017-06-05T11:28:48.000Z</time>
      </trkpt>
      <trkpt lat="44.961430" lon="4.875621">
        <ele>166.599048</ele>
        <time>2017-06-05T11:28:51.000Z</time>
      </trkpt>
      <trkpt lat="44.961346" lon="4.875739">
        <ele>166.572941</ele>
        <time>2017-06-05T11:28:54.000Z</time>
      </trkpt>
      <trkpt lat="44.961273" lon="4.875855">
        <ele>166.596146</ele>
        <time>2017-06-05T11:28:57.000Z</time>
      </trkpt>
      <trkpt lat="44.961205" lon="4.875956">
        <ele>166.616986</ele>
        <time>2017-06-05T11:29:00.000Z</time>
      </trkpt>
      <trkpt lat="44.961132" lon="4.876049">
        <ele>166.637748</ele>
        <time>2017-06-05T11:29:03.000Z</time>
      </trkpt>
      <trkpt lat="44.961056" lon="4.876155">
        <ele>166.660306</ele>
        <time>2017-06-05T11:29:06.000Z</time>
      </trkpt>
      <trkpt lat="44.960976" lon="4.876279">
        <ele>166.685389</ele>
        <time>2017-06-05T11:29:09.000Z</time>
      </trkpt>
      <trkpt lat="44.960880" lon="4.876396">
        <ele>166.712169</ele>
        <time>2017-06-05T11:29:12.000Z</time>
      </trkpt>
      <trkpt lat="44.960796" lon="4.876505">
        <ele>166.736260</ele>
        <time>2017-06-05T11:29:15.000Z</time>
      </trkpt>
      <trkpt lat="44.960705" lon="4.876621">
        <ele>166.762149</ele>
        <time>2017-06-05T11:29:18.000Z</time>
      </trkpt>
      <trkpt lat="44.960606" lon="4.876746">
        <ele>166.790194</ele>
        <time>2017-06-05T11:29:21.000Z</time>
      </trkpt>
      <trkpt lat="44.960510" lon="4.876863">
        <ele>166.816974</ele>
        <time>2017-06-05T11:29:24.000Z</time>
      </trkpt>
      <trkpt lat="44.960410" lon="4.876963">
        <ele>166.842854</ele>
        <time>2017-06-05T11:29:27.000Z</time>
      </trkpt>
      <trkpt lat="44.960323" lon="4.877074">
        <ele>166.867615</ele>
        <time>2017-06-05T11:29:30.000Z</time>
      </trkpt>
      <trkpt lat="44.960240" lon="4.877169">
        <ele>166.890178</ele>
        <time>2017-06-05T11:29:33.000Z</time>
      </trkpt>
      <trkpt lat="44.960160" lon="4.877245">
        <ele>166.910542</ele>
        <time>2017-06-05T11:29:36.000Z</time>
      </trkpt>
      <trkpt lat="44.960080" lon="4.877308">
        <ele>166.929889</ele>
        <time>2017-06-05T11:29:39.000Z</time>
      </trkpt>
      <trkpt lat="44.959960" lon="4.877423">
        <ele>166.836221</ele>
        <time>2017-06-05T11:31:39.000Z</time>
      </trkpt>
      <trkpt lat="44.959873" lon="4.877494">
        <ele>166.757100</ele>
        <time>2017-06-05T11:31:43.000Z</time>
      </trkpt>
      <trkpt lat="44.959780" lon="4.877576">
        <ele>166.670771</ele>
        <time>2017-06-05T11:31:46.000Z</time>
      </trkpt>
      <trkpt lat="44.959700" lon="4.877639">
        <ele>166.598645</ele>
        <time>2017-06-05T11:31:48.000Z</time>
      </trkpt>
      <trkpt lat="44.959602" lon="4.877714">
        <ele>166.510875</ele>
        <time>2017-06-05T11:31:50.000Z</time>
      </trkpt>
      <trkpt lat="44.959500" lon="4.877780">
        <ele>166.422524</ele>
        <time>2017-06-05T11:31:52.000Z</time>
      </trkpt>
      <trkpt lat="44.959393" lon="4.877863">
        <ele>166.326396</ele>
        <time>2017-06-05T11:31:54.000Z</time>
      </trkpt>
      <trkpt lat="44.959286" lon="4.877931">
        <ele>166.233999</ele>
        <time>2017-06-05T11:31:56.000Z</time>
      </trkpt>
      <trkpt lat="44.959180" lon="4.877998">
        <ele>166.142548</ele>
        <time>2017-06-05T11:31:58.000Z</time>
      </trkpt>
      <trkpt lat="44.959084" lon="4.878083">
        <ele>166.053330</ele>
        <time>2017-06-05T11:32:00.000Z</time>
      </trkpt>
      <trkpt lat="44.958992" lon="4.878162">
        <ele>165.968548</ele>
        <time>2017-06-05T11:32:02.000Z</time>
      </trkpt>
      <trkpt lat="44.958893" lon="4.878236">
        <ele>165.880345</ele>
        <time>2017-06-05T11:32:04.000Z</time>
      </trkpt>
      <trkpt lat="44.958794" lon="4.878317">
        <ele>165.790253</ele>
        <time>2017-06-05T11:32:06.000Z</time>
      </trkpt>
      <trkpt lat="44.958690" lon="4.878402">
        <ele>165.695635</ele>
        <time>2017-06-05T11:32:08.000Z</time>
      </trkpt>
      <trkpt lat="44.958584" lon="4.878487">
        <ele>165.599651</ele>
        <time>2017-06-05T11:32:10.000Z</time>
      </trkpt>
      <trkpt lat="44.958477" lon="4.878566">
        <ele>165.526162</ele>
        <time>2017-06-05T11:32:12.000Z</time>
      </trkpt>
      <trkpt lat="44.958363" lon="4.878645">
        <ele>165.590669</ele>
        <time>2017-06-05T11:32:14.000Z</time>
      </trkpt>
      <trkpt lat="44.958250" lon="4.878725">
        <ele>165.654880</ele>
        <time>2017-06-05T11:32:16.000Z</time>
      </trkpt>
      <trkpt lat="44.958130" lon="4.878805">
        <ele>165.722290</ele>
        <time>2017-06-05T11:32:18.000Z</time>
      </trkpt>
      <trkpt lat="44.958010" lon="4.878881">
        <ele>165.789099</ele>
        <time>2017-06-05T11:32:20.000Z</time>
      </trkpt>
      <trkpt lat="44.957886" lon="4.878962">
        <ele>165.858502</ele>
        <time>2017-06-05T11:32:22.000Z</time>
      </trkpt>
      <trkpt lat="44.957760" lon="4.879046">
        <ele>165.929283</ele>
        <time>2017-06-05T11:32:24.000Z</time>
      </trkpt>
      <trkpt lat="44.957638" lon="4.879127">
        <ele>165.997765</ele>
        <time>2017-06-05T11:32:26.000Z</time>
      </trkpt>
      <trkpt lat="44.957516" lon="4.879196">
        <ele>166.064527</ele>
        <time>2017-06-05T11:32:28.000Z</time>
      </trkpt>
      <trkpt lat="44.957397" lon="4.879272">
        <ele>166.130873</ele>
        <time>2017-06-05T11:32:30.000Z</time>
      </trkpt>
      <trkpt lat="44.957270" lon="4.879344">
        <ele>166.200395</ele>
        <time>2017-06-05T11:32:32.000Z</time>
      </trkpt>
      <trkpt lat="44.957146" lon="4.879412">
        <ele>166.267970</ele>
        <time>2017-06-05T11:32:34.000Z</time>
      </trkpt>
      <trkpt lat="44.957027" lon="4.879479">
        <ele>166.333051</ele>
        <time>2017-06-05T11:32:36.000Z</time>
      </trkpt>
      <trkpt lat="44.956898" lon="4.879550">
        <ele>166.403385</ele>
        <time>2017-06-05T11:32:38.000Z</time>
      </trkpt>
      <trkpt lat="44.956764" lon="4.879611">
        <ele>166.405389</ele>
        <time>2017-06-05T11:32:40.000Z</time>
      </trkpt>
      <trkpt lat="44.956627" lon="4.879678">
        <ele>166.361074</ele>
        <time>2017-06-05T11:32:42.000Z</time>
      </trkpt>
      <trkpt lat="44.956500" lon="4.879733">
        <ele>166.320471</ele>
        <time>2017-06-05T11:32:44.000Z</time>
      </trkpt>
      <trkpt lat="44.956375" lon="4.879788">
        <ele>166.280452</ele>
        <time>2017-06-05T11:32:46.000Z</time>
      </trkpt>
      <trkpt lat="44.956234" lon="4.879856">
        <ele>166.234910</ele>
        <time>2017-06-05T11:32:48.000Z</time>
      </trkpt>
      <trkpt lat="44.956104" lon="4.879904">
        <ele>166.193838</ele>
        <time>2017-06-05T11:32:50.000Z</time>
      </trkpt>
      <trkpt lat="44.955967" lon="4.879948">
        <ele>166.150892</ele>
        <time>2017-06-05T11:32:52.000Z</time>
      </trkpt>
      <trkpt lat="44.955822" lon="4.879997">
        <ele>166.105319</ele>
        <time>2017-06-05T11:32:54.000Z</time>
      </trkpt>
      <trkpt lat="44.955680" lon="4.880043">
        <ele>166.060787</ele>
        <time>2017-06-05T11:32:56.000Z</time>
      </trkpt>
      <trkpt lat="44.955550" lon="4.880083">
        <ele>166.020118</ele>
        <time>2017-06-05T11:32:58.000Z</time>
      </trkpt>
      <trkpt lat="44.955433" lon="4.880126">
        <ele>165.983164</ele>
        <time>2017-06-05T11:33:00.000Z</time>
      </trkpt>
      <trkpt lat="44.955322" lon="4.880168">
        <ele>165.948038</ele>
        <time>2017-06-05T11:33:02.000Z</time>
      </trkpt>
      <trkpt lat="44.955215" lon="4.880209">
        <ele>165.914149</ele>
        <time>2017-06-05T11:33:04.000Z</time>
      </trkpt>
      <trkpt lat="44.955124" lon="4.880247">
        <ele>165.885143</ele>
        <time>2017-06-05T11:33:06.000Z</time>
      </trkpt>
      <trkpt lat="44.955036" lon="4.880285">
        <ele>165.845492</ele>
        <time>2017-06-05T11:33:08.000Z</time>
      </trkpt>
      <trkpt lat="44.954950" lon="4.880330">
        <ele>165.804371</ele>
        <time>2017-06-05T11:33:10.000Z</time>
      </trkpt>
      <trkpt lat="44.954860" lon="4.880370">
        <ele>165.762066</ele>
        <time>2017-06-05T11:33:12.000Z</time>
      </trkpt>
      <trkpt lat="44.954727" lon="4.880416">
        <ele>165.700669</ele>
        <time>2017-06-05T11:33:15.000Z</time>
      </trkpt>
      <trkpt lat="44.954630" lon="4.880460">
        <ele>165.654988</ele>
        <time>2017-06-05T11:33:17.000Z</time>
      </trkpt>
      <trkpt lat="44.954533" lon="4.880498">
        <ele>165.609853</ele>
        <time>2017-06-05T11:33:19.000Z</time>
      </trkpt>
      <trkpt lat="44.954437" lon="4.880542">
        <ele>165.564599</ele>
        <time>2017-06-05T11:33:21.000Z</time>
      </trkpt>
      <trkpt lat="44.954340" lon="4.880587">
        <ele>165.518820</ele>
        <time>2017-06-05T11:33:23.000Z</time>
      </trkpt>
      <trkpt lat="44.954243" lon="4.880632">
        <ele>165.473042</ele>
        <time>2017-06-05T11:33:25.000Z</time>
      </trkpt>
      <trkpt lat="44.954144" lon="4.880677">
        <ele>165.426410</ele>
        <time>2017-06-05T11:33:27.000Z</time>
      </trkpt>
      <trkpt lat="44.954037" lon="4.880724">
        <ele>165.376167</ele>
        <time>2017-06-05T11:33:29.000Z</time>
      </trkpt>
      <trkpt lat="44.953930" lon="4.880769">
        <ele>165.326109</ele>
        <time>2017-06-05T11:33:31.000Z</time>
      </trkpt>
      <trkpt lat="44.953820" lon="4.880811">
        <ele>165.275016</ele>
        <time>2017-06-05T11:33:33.000Z</time>
      </trkpt>
      <trkpt lat="44.953700" lon="4.880853">
        <ele>165.219582</ele>
        <time>2017-06-05T11:33:35.000Z</time>
      </trkpt>
      <trkpt lat="44.953590" lon="4.880899">
        <ele>165.168144</ele>
        <time>2017-06-05T11:33:37.000Z</time>
      </trkpt>
      <trkpt lat="44.953472" lon="4.880949">
        <ele>165.112905</ele>
        <time>2017-06-05T11:33:39.000Z</time>
      </trkpt>
      <trkpt lat="44.953354" lon="4.881001">
        <ele>165.080807</ele>
        <time>2017-06-05T11:33:41.000Z</time>
      </trkpt>
      <trkpt lat="44.953230" lon="4.881053">
        <ele>165.099206</ele>
        <time>2017-06-05T11:33:43.000Z</time>
      </trkpt>
      <trkpt lat="44.953117" lon="4.881107">
        <ele>165.116174</ele>
        <time>2017-06-05T11:33:45.000Z</time>
      </trkpt>
      <trkpt lat="44.953000" lon="4.881159">
        <ele>165.133621</ele>
        <time>2017-06-05T11:33:47.000Z</time>
      </trkpt>
      <trkpt lat="44.952880" lon="4.881210">
        <ele>165.151446</ele>
        <time>2017-06-05T11:33:49.000Z</time>
      </trkpt>
      <trkpt lat="44.952760" lon="4.881269">
        <ele>165.169519</ele>
        <time>2017-06-05T11:33:51.000Z</time>
      </trkpt>
      <trkpt lat="44.952640" lon="4.881327">
        <ele>165.187559</ele>
        <time>2017-06-05T11:33:53.000Z</time>
      </trkpt>
      <trkpt lat="44.952520" lon="4.881387">
        <ele>165.205666</ele>
        <time>2017-06-05T11:33:55.000Z</time>
      </trkpt>
      <trkpt lat="44.952396" lon="4.881432">
        <ele>165.223877</ele>
        <time>2017-06-05T11:33:57.000Z</time>
      </trkpt>
      <trkpt lat="44.952282" lon="4.881486">
        <ele>165.240980</ele>
        <time>2017-06-05T11:33:59.000Z</time>
      </trkpt>
      <trkpt lat="44.952156" lon="4.881537">
        <ele>165.259623</ele>
        <time>2017-06-05T11:34:01.000Z</time>
      </trkpt>
      <trkpt lat="44.952038" lon="4.881582">
        <ele>165.277009</ele>
        <time>2017-06-05T11:34:03.000Z</time>
      </trkpt>
      <trkpt lat="44.951920" lon="4.881636">
        <ele>165.294652</ele>
        <time>2017-06-05T11:34:05.000Z</time>
      </trkpt>
      <trkpt lat="44.951797" lon="4.881687">
        <ele>165.312886</ele>
        <time>2017-06-05T11:34:07.000Z</time>
      </trkpt>
      <trkpt lat="44.951670" lon="4.881744">
        <ele>165.329113</ele>
        <time>2017-06-05T11:34:09.000Z</time>
      </trkpt>
      <trkpt lat="44.951553" lon="4.881803">
        <ele>165.286679</ele>
        <time>2017-06-05T11:34:11.000Z</time>
      </trkpt>
      <trkpt lat="44.951430" lon="4.881858">
        <ele>165.242610</ele>
        <time>2017-06-05T11:34:13.000Z</time>
      </trkpt>
      <trkpt lat="44.951320" lon="4.881909">
        <ele>165.203065</ele>
        <time>2017-06-05T11:34:15.000Z</time>
      </trkpt>
      <trkpt lat="44.951200" lon="4.881956">
        <ele>165.160529</ele>
        <time>2017-06-05T11:34:17.000Z</time>
      </trkpt>
      <trkpt lat="44.951077" lon="4.882007">
        <ele>165.116742</ele>
        <time>2017-06-05T11:34:19.000Z</time>
      </trkpt>
      <trkpt lat="44.950954" lon="4.882059">
        <ele>165.072887</ele>
        <time>2017-06-05T11:34:21.000Z</time>
      </trkpt>
      <trkpt lat="44.950836" lon="4.882117">
        <ele>165.030210</ele>
        <time>2017-06-05T11:34:23.000Z</time>
      </trkpt>
      <trkpt lat="44.950718" lon="4.882168">
        <ele>164.988060</ele>
        <time>2017-06-05T11:34:25.000Z</time>
      </trkpt>
      <trkpt lat="44.950590" lon="4.882220">
        <ele>164.942565</ele>
        <time>2017-06-05T11:34:27.000Z</time>
      </trkpt>
      <trkpt lat="44.950466" lon="4.882268">
        <ele>164.898648</ele>
        <time>2017-06-05T11:34:29.000Z</time>
      </trkpt>
      <trkpt lat="44.950348" lon="4.882317">
        <ele>164.856636</ele>
        <time>2017-06-05T11:34:31.000Z</time>
      </trkpt>
      <trkpt lat="44.950230" lon="4.882378">
        <ele>164.813716</ele>
        <time>2017-06-05T11:34:33.000Z</time>
      </trkpt>
      <trkpt lat="44.950110" lon="4.882436">
        <ele>164.770394</ele>
        <time>2017-06-05T11:34:35.000Z</time>
      </trkpt>
      <trkpt lat="44.949990" lon="4.882490">
        <ele>164.727375</ele>
        <time>2017-06-05T11:34:37.000Z</time>
      </trkpt>
      <trkpt lat="44.949867" lon="4.882541">
        <ele>164.675226</ele>
        <time>2017-06-05T11:34:39.000Z</time>
      </trkpt>
      <trkpt lat="44.949745" lon="4.882591">
        <ele>164.620860</ele>
        <time>2017-06-05T11:34:41.000Z</time>
      </trkpt>
      <trkpt lat="44.949623" lon="4.882639">
        <ele>164.566659</ele>
        <time>2017-06-05T11:34:43.000Z</time>
      </trkpt>
      <trkpt lat="44.949497" lon="4.882695">
        <ele>164.510128</ele>
        <time>2017-06-05T11:34:45.000Z</time>
      </trkpt>
      <trkpt lat="44.949387" lon="4.882749">
        <ele>164.460289</ele>
        <time>2017-06-05T11:34:47.000Z</time>
      </trkpt>
      <trkpt lat="44.949284" lon="4.882795">
        <ele>164.414057</ele>
        <time>2017-06-05T11:34:49.000Z</time>
      </trkpt>
      <trkpt lat="44.949177" lon="4.882852">
        <ele>164.365116</ele>
        <time>2017-06-05T11:34:51.000Z</time>
      </trkpt>
      <trkpt lat="44.949078" lon="4.882891">
        <ele>164.321129</ele>
        <time>2017-06-05T11:34:53.000Z</time>
      </trkpt>
      <trkpt lat="44.948970" lon="4.882940">
        <ele>164.272582</ele>
        <time>2017-06-05T11:34:55.000Z</time>
      </trkpt>
      <trkpt lat="44.948864" lon="4.882983">
        <ele>164.225383</ele>
        <time>2017-06-05T11:34:57.000Z</time>
      </trkpt>
      <trkpt lat="44.948753" lon="4.883028">
        <ele>164.175959</ele>
        <time>2017-06-05T11:34:59.000Z</time>
      </trkpt>
      <trkpt lat="44.948643" lon="4.883073">
        <ele>164.126947</ele>
        <time>2017-06-05T11:35:01.000Z</time>
      </trkpt>
      <trkpt lat="44.948536" lon="4.883126">
        <ele>164.078420</ele>
        <time>2017-06-05T11:35:03.000Z</time>
      </trkpt>
      <trkpt lat="44.948420" lon="4.883177">
        <ele>164.026426</ele>
        <time>2017-06-05T11:35:05.000Z</time>
      </trkpt>
      <trkpt lat="44.948303" lon="4.883232">
        <ele>163.973653</ele>
        <time>2017-06-05T11:35:07.000Z</time>
      </trkpt>
      <trkpt lat="44.948180" lon="4.883283">
        <ele>163.922183</ele>
        <time>2017-06-05T11:35:09.000Z</time>
      </trkpt>
      <trkpt lat="44.948063" lon="4.883341">
        <ele>163.875531</ele>
        <time>2017-06-05T11:35:11.000Z</time>
      </trkpt>
      <trkpt lat="44.947945" lon="4.883397">
        <ele>163.828696</ele>
        <time>2017-06-05T11:35:13.000Z</time>
      </trkpt>
      <trkpt lat="44.947823" lon="4.883447">
        <ele>163.780901</ele>
        <time>2017-06-05T11:35:15.000Z</time>
      </trkpt>
      <trkpt lat="44.947704" lon="4.883509">
        <ele>163.733181</ele>
        <time>2017-06-05T11:35:17.000Z</time>
      </trkpt>
      <trkpt lat="44.947590" lon="4.883567">
        <ele>163.687592</ele>
        <time>2017-06-05T11:35:19.000Z</time>
      </trkpt>
      <trkpt lat="44.947475" lon="4.883621">
        <ele>163.641997</ele>
        <time>2017-06-05T11:35:21.000Z</time>
      </trkpt>
      <trkpt lat="44.947360" lon="4.883661">
        <ele>163.597436</ele>
        <time>2017-06-05T11:35:23.000Z</time>
      </trkpt>
      <trkpt lat="44.947254" lon="4.883699">
        <ele>163.556290</ele>
        <time>2017-06-05T11:35:25.000Z</time>
      </trkpt>
      <trkpt lat="44.947150" lon="4.883740">
        <ele>163.515666</ele>
        <time>2017-06-05T11:35:27.000Z</time>
      </trkpt>
      <trkpt lat="44.947060" lon="4.883791">
        <ele>163.479181</ele>
        <time>2017-06-05T11:35:29.000Z</time>
      </trkpt>
      <trkpt lat="44.946964" lon="4.883837">
        <ele>163.441041</ele>
        <time>2017-06-05T11:35:31.000Z</time>
      </trkpt>
      <trkpt lat="44.946865" lon="4.883889">
        <ele>163.401301</ele>
        <time>2017-06-05T11:35:33.000Z</time>
      </trkpt>
      <trkpt lat="44.946754" lon="4.883929">
        <ele>163.358201</ele>
        <time>2017-06-05T11:35:35.000Z</time>
      </trkpt>
      <trkpt lat="44.946650" lon="4.883978">
        <ele>163.316953</ele>
        <time>2017-06-05T11:35:37.000Z</time>
      </trkpt>
      <trkpt lat="44.946545" lon="4.884032">
        <ele>163.274911</ele>
        <time>2017-06-05T11:35:39.000Z</time>
      </trkpt>
      <trkpt lat="44.946430" lon="4.884078">
        <ele>163.266850</ele>
        <time>2017-06-05T11:35:41.000Z</time>
      </trkpt>
      <trkpt lat="44.946323" lon="4.884128">
        <ele>163.263407</ele>
        <time>2017-06-05T11:35:43.000Z</time>
      </trkpt>
      <trkpt lat="44.946210" lon="4.884173">
        <ele>163.259819</ele>
        <time>2017-06-05T11:35:45.000Z</time>
      </trkpt>
      <trkpt lat="44.946095" lon="4.884228">
        <ele>163.256109</ele>
        <time>2017-06-05T11:35:47.000Z</time>
      </trkpt>
      <trkpt lat="44.945976" lon="4.884280">
        <ele>163.252303</ele>
        <time>2017-06-05T11:35:49.000Z</time>
      </trkpt>
      <trkpt lat="44.945860" lon="4.884327">
        <ele>163.248615</ele>
        <time>2017-06-05T11:35:51.000Z</time>
      </trkpt>
      <trkpt lat="44.945750" lon="4.884373">
        <ele>163.245110</ele>
        <time>2017-06-05T11:35:53.000Z</time>
      </trkpt>
      <trkpt lat="44.945633" lon="4.884425">
        <ele>163.241362</ele>
        <time>2017-06-05T11:35:55.000Z</time>
      </trkpt>
      <trkpt lat="44.945522" lon="4.884482">
        <ele>163.237753</ele>
        <time>2017-06-05T11:35:57.000Z</time>
      </trkpt>
      <trkpt lat="44.945415" lon="4.884527">
        <ele>163.234342</ele>
        <time>2017-06-05T11:35:59.000Z</time>
      </trkpt>
      <trkpt lat="44.945316" lon="4.884576">
        <ele>163.231136</ele>
        <time>2017-06-05T11:36:01.000Z</time>
      </trkpt>
      <trkpt lat="44.945200" lon="4.884629">
        <ele>163.227411</ele>
        <time>2017-06-05T11:36:03.000Z</time>
      </trkpt>
      <trkpt lat="44.945100" lon="4.884680">
        <ele>163.224162</ele>
        <time>2017-06-05T11:36:05.000Z</time>
      </trkpt>
      <trkpt lat="44.944990" lon="4.884737">
        <ele>163.220582</ele>
        <time>2017-06-05T11:36:07.000Z</time>
      </trkpt>
      <trkpt lat="44.944870" lon="4.884785">
        <ele>163.216771</ele>
        <time>2017-06-05T11:36:09.000Z</time>
      </trkpt>
      <trkpt lat="44.944756" lon="4.884842">
        <ele>163.297213</ele>
        <time>2017-06-05T11:36:11.000Z</time>
      </trkpt>
      <trkpt lat="44.944650" lon="4.884906">
        <ele>163.436473</ele>
        <time>2017-06-05T11:36:13.000Z</time>
      </trkpt>
      <trkpt lat="44.944542" lon="4.884971">
        <ele>163.578291</ele>
        <time>2017-06-05T11:36:15.000Z</time>
      </trkpt>
      <trkpt lat="44.944435" lon="4.885032">
        <ele>163.717683</ele>
        <time>2017-06-05T11:36:17.000Z</time>
      </trkpt>
      <trkpt lat="44.944320" lon="4.885093">
        <ele>163.866081</ele>
        <time>2017-06-05T11:36:19.000Z</time>
      </trkpt>
      <trkpt lat="44.944218" lon="4.885144">
        <ele>163.996795</ele>
        <time>2017-06-05T11:36:21.000Z</time>
      </trkpt>
      <trkpt lat="44.944122" lon="4.885201">
        <ele>164.122597</ele>
        <time>2017-06-05T11:36:23.000Z</time>
      </trkpt>
      <trkpt lat="44.944030" lon="4.885245">
        <ele>164.239936</ele>
        <time>2017-06-05T11:36:25.000Z</time>
      </trkpt>
      <trkpt lat="44.943916" lon="4.885316">
        <ele>164.390445</ele>
        <time>2017-06-05T11:36:28.000Z</time>
      </trkpt>
      <trkpt lat="44.943880" lon="4.885467">
        <ele>164.526691</ele>
        <time>2017-06-05T11:36:32.000Z</time>
      </trkpt>
      <trkpt lat="44.943960" lon="4.885568">
        <ele>164.656303</ele>
        <time>2017-06-05T11:36:36.000Z</time>
      </trkpt>
      <trkpt lat="44.944054" lon="4.885531">
        <ele>164.774187</ele>
        <time>2017-06-05T11:36:40.000Z</time>
      </trkpt>
      <trkpt lat="44.944168" lon="4.885505">
        <ele>164.913692</ele>
        <time>2017-06-05T11:36:44.000Z</time>
      </trkpt>
      <trkpt lat="44.944256" lon="4.885539">
        <ele>165.023907</ele>
        <time>2017-06-05T11:36:48.000Z</time>
      </trkpt>
      <trkpt lat="44.944340" lon="4.885620">
        <ele>165.146770</ele>
        <time>2017-06-05T11:36:57.000Z</time>
      </trkpt>
      <trkpt lat="44.944412" lon="4.885726">
        <ele>165.272393</ele>
        <time>2017-06-05T11:37:01.000Z</time>
      </trkpt>
      <trkpt lat="44.944477" lon="4.885814">
        <ele>165.381151</ele>
        <time>2017-06-05T11:37:04.000Z</time>
      </trkpt>
      <trkpt lat="44.944546" lon="4.885913">
        <ele>165.582555</ele>
        <time>2017-06-05T11:37:07.000Z</time>
      </trkpt>
      <trkpt lat="44.944622" lon="4.886014">
        <ele>165.801657</ele>
        <time>2017-06-05T11:37:10.000Z</time>
      </trkpt>
      <trkpt lat="44.944700" lon="4.886129">
        <ele>166.038394</ele>
        <time>2017-06-05T11:37:13.000Z</time>
      </trkpt>
      <trkpt lat="44.944763" lon="4.886239">
        <ele>166.248709</ele>
        <time>2017-06-05T11:37:16.000Z</time>
      </trkpt>
      <trkpt lat="44.944824" lon="4.886357">
        <ele>166.465891</ele>
        <time>2017-06-05T11:38:36.000Z</time>
      </trkpt>
      <trkpt lat="44.944874" lon="4.886491">
        <ele>166.691038</ele>
        <time>2017-06-05T11:38:39.000Z</time>
      </trkpt>
      <trkpt lat="44.944890" lon="4.886633">
        <ele>166.904751</ele>
        <time>2017-06-05T11:38:43.000Z</time>
      </trkpt>
      <trkpt lat="44.944874" lon="4.886761">
        <ele>167.097942</ele>
        <time>2017-06-05T11:38:49.000Z</time>
      </trkpt>
      <trkpt lat="44.944900" lon="4.886895">
        <ele>167.304455</ele>
        <time>2017-06-05T11:39:01.000Z</time>
      </trkpt>
      <trkpt lat="44.945007" lon="4.886978">
        <ele>167.560786</ele>
        <time>2017-06-05T11:39:06.000Z</time>
      </trkpt>
      <trkpt lat="44.945137" lon="4.887004">
        <ele>167.836499</ele>
        <time>2017-06-05T11:39:09.000Z</time>
      </trkpt>
      <trkpt lat="44.945230" lon="4.887020">
        <ele>168.033235</ele>
        <time>2017-06-05T11:39:11.000Z</time>
      </trkpt>
      <trkpt lat="44.945328" lon="4.887091">
        <ele>168.264508</ele>
        <time>2017-06-05T11:39:14.000Z</time>
      </trkpt>
      <trkpt lat="44.945393" lon="4.887185">
        <ele>168.459829</ele>
        <time>2017-06-05T11:39:19.000Z</time>
      </trkpt>
      <trkpt lat="44.945343" lon="4.887321">
        <ele>168.687608</ele>
        <time>2017-06-05T11:39:24.000Z</time>
      </trkpt>
      <trkpt lat="44.945300" lon="4.887441">
        <ele>168.887518</ele>
        <time>2017-06-05T11:39:27.000Z</time>
      </trkpt>
      <trkpt lat="44.945250" lon="4.887574">
        <ele>169.111350</ele>
        <time>2017-06-05T11:39:30.000Z</time>
      </trkpt>
      <trkpt lat="44.945206" lon="4.887714">
        <ele>169.182240</ele>
        <time>2017-06-05T11:39:33.000Z</time>
      </trkpt>
      <trkpt lat="44.945152" lon="4.887847">
        <ele>169.204700</ele>
        <time>2017-06-05T11:39:36.000Z</time>
      </trkpt>
      <trkpt lat="44.945087" lon="4.887983">
        <ele>169.228738</ele>
        <time>2017-06-05T11:39:39.000Z</time>
      </trkpt>
      <trkpt lat="44.945038" lon="4.888148">
        <ele>169.254949</ele>
        <time>2017-06-05T11:39:42.000Z</time>
      </trkpt>
      <trkpt lat="44.944973" lon="4.888302">
        <ele>169.281213</ele>
        <time>2017-06-05T11:39:45.000Z</time>
      </trkpt>
      <trkpt lat="44.944920" lon="4.888435">
        <ele>169.303571</ele>
        <time>2017-06-05T11:39:48.000Z</time>
      </trkpt>
      <trkpt lat="44.944860" lon="4.888571">
        <ele>169.327046</ele>
        <time>2017-06-05T11:39:51.000Z</time>
      </trkpt>
      <trkpt lat="44.944798" lon="4.888705">
        <ele>169.350496</ele>
        <time>2017-06-05T11:39:54.000Z</time>
      </trkpt>
      <trkpt lat="44.944706" lon="4.888844">
        <ele>169.378373</ele>
        <time>2017-06-05T11:39:57.000Z</time>
      </trkpt>
      <trkpt lat="44.944610" lon="4.888976">
        <ele>169.406096</ele>
        <time>2017-06-05T11:40:00.000Z</time>
      </trkpt>
      <trkpt lat="44.944540" lon="4.889071">
        <ele>169.426184</ele>
        <time>2017-06-05T11:40:02.000Z</time>
      </trkpt>
      <trkpt lat="44.944447" lon="4.889209">
        <ele>169.454096</ele>
        <time>2017-06-05T11:40:05.000Z</time>
      </trkpt>
      <trkpt lat="44.944366" lon="4.889354">
        <ele>169.481155</ele>
        <time>2017-06-05T11:40:08.000Z</time>
      </trkpt>
      <trkpt lat="44.944340" lon="4.889488">
        <ele>169.501508</ele>
        <time>2017-06-05T11:40:10.000Z</time>
      </trkpt>
      <trkpt lat="44.944320" lon="4.889612">
        <ele>169.520137</ele>
        <time>2017-06-05T11:40:12.000Z</time>
      </trkpt>
      <trkpt lat="44.944286" lon="4.889771">
        <ele>169.564489</ele>
        <time>2017-06-05T11:40:15.000Z</time>
      </trkpt>
      <trkpt lat="44.944240" lon="4.889908">
        <ele>169.649110</ele>
        <time>2017-06-05T11:40:18.000Z</time>
      </trkpt>
      <trkpt lat="44.944195" lon="4.890024">
        <ele>169.722930</ele>
        <time>2017-06-05T11:40:21.000Z</time>
      </trkpt>
      <trkpt lat="44.944153" lon="4.890142">
        <ele>169.796639</ele>
        <time>2017-06-05T11:40:24.000Z</time>
      </trkpt>
      <trkpt lat="44.944103" lon="4.890251">
        <ele>169.869125</ele>
        <time>2017-06-05T11:40:27.000Z</time>
      </trkpt>
      <trkpt lat="44.944046" lon="4.890387">
        <ele>169.957330</ele>
        <time>2017-06-05T11:40:31.000Z</time>
      </trkpt>
      <trkpt lat="44.943993" lon="4.890531">
        <ele>170.047906</ele>
        <time>2017-06-05T11:40:35.000Z</time>
      </trkpt>
      <trkpt lat="44.943940" lon="4.890649">
        <ele>170.125897</ele>
        <time>2017-06-05T11:40:38.000Z</time>
      </trkpt>
      <trkpt lat="44.943855" lon="4.890791">
        <ele>170.229682</ele>
        <time>2017-06-05T11:40:41.000Z</time>
      </trkpt>
      <trkpt lat="44.943783" lon="4.890873">
        <ele>170.302598</ele>
        <time>2017-06-05T11:40:43.000Z</time>
      </trkpt>
      <trkpt lat="44.943737" lon="4.891006">
        <ele>170.385208</ele>
        <time>2017-06-05T11:40:46.000Z</time>
      </trkpt>
      <trkpt lat="44.943720" lon="4.891162">
        <ele>170.473292</ele>
        <time>2017-06-05T11:40:49.000Z</time>
      </trkpt>
      <trkpt lat="44.943730" lon="4.891291">
        <ele>170.545713</ele>
        <time>2017-06-05T11:40:51.000Z</time>
      </trkpt>
      <trkpt lat="44.943733" lon="4.891474">
        <ele>170.647866</ele>
        <time>2017-06-05T11:40:54.000Z</time>
      </trkpt>
      <trkpt lat="44.943733" lon="4.891604">
        <ele>170.720414</ele>
        <time>2017-06-05T11:40:56.000Z</time>
      </trkpt>
      <trkpt lat="44.943718" lon="4.891781">
        <ele>170.819897</ele>
        <time>2017-06-05T11:40:59.000Z</time>
      </trkpt>
      <trkpt lat="44.943703" lon="4.891965">
        <ele>170.923260</ele>
        <time>2017-06-05T11:41:02.000Z</time>
      </trkpt>
      <trkpt lat="44.943660" lon="4.892126">
        <ele>170.857870</ele>
        <time>2017-06-05T11:41:05.000Z</time>
      </trkpt>
      <trkpt lat="44.943607" lon="4.892277">
        <ele>170.713987</ele>
        <time>2017-06-05T11:41:08.000Z</time>
      </trkpt>
      <trkpt lat="44.943554" lon="4.892384">
        <ele>170.602499</ele>
        <time>2017-06-05T11:41:10.000Z</time>
      </trkpt>
      <trkpt lat="44.943466" lon="4.892458">
        <ele>170.478986</ele>
        <time>2017-06-05T11:41:12.000Z</time>
      </trkpt>
      <trkpt lat="44.943375" lon="4.892508">
        <ele>170.361225</ele>
        <time>2017-06-05T11:41:14.000Z</time>
      </trkpt>
      <trkpt lat="44.943287" lon="4.892559">
        <ele>170.246507</ele>
        <time>2017-06-05T11:41:16.000Z</time>
      </trkpt>
      <trkpt lat="44.943195" lon="4.892616">
        <ele>170.125347</ele>
        <time>2017-06-05T11:41:18.000Z</time>
      </trkpt>
      <trkpt lat="44.943104" lon="4.892664">
        <ele>170.008193</ele>
        <time>2017-06-05T11:41:20.000Z</time>
      </trkpt>
      <trkpt lat="44.943012" lon="4.892720">
        <ele>169.887373</ele>
        <time>2017-06-05T11:41:22.000Z</time>
      </trkpt>
      <trkpt lat="44.942930" lon="4.892775">
        <ele>169.777895</ele>
        <time>2017-06-05T11:41:24.000Z</time>
      </trkpt>
      <trkpt lat="44.942844" lon="4.892825">
        <ele>169.665732</ele>
        <time>2017-06-05T11:41:26.000Z</time>
      </trkpt>
      <trkpt lat="44.942757" lon="4.892862">
        <ele>169.556152</ele>
        <time>2017-06-05T11:41:28.000Z</time>
      </trkpt>
      <trkpt lat="44.942660" lon="4.892904">
        <ele>169.433791</ele>
        <time>2017-06-05T11:41:30.000Z</time>
      </trkpt>
      <trkpt lat="44.942566" lon="4.892953">
        <ele>169.312948</ele>
        <time>2017-06-05T11:41:32.000Z</time>
      </trkpt>
      <trkpt lat="44.942463" lon="4.893011">
        <ele>169.179217</ele>
        <time>2017-06-05T11:41:34.000Z</time>
      </trkpt>
      <trkpt lat="44.942364" lon="4.893060">
        <ele>169.052700</ele>
        <time>2017-06-05T11:41:36.000Z</time>
      </trkpt>
      <trkpt lat="44.942272" lon="4.893102">
        <ele>168.936091</ele>
        <time>2017-06-05T11:41:38.000Z</time>
      </trkpt>
      <trkpt lat="44.942173" lon="4.893147">
        <ele>168.810661</ele>
        <time>2017-06-05T11:41:40.000Z</time>
      </trkpt>
      <trkpt lat="44.942074" lon="4.893198">
        <ele>168.658244</ele>
        <time>2017-06-05T11:41:42.000Z</time>
      </trkpt>
      <trkpt lat="44.941975" lon="4.893254">
        <ele>168.497880</ele>
        <time>2017-06-05T11:41:44.000Z</time>
      </trkpt>
      <trkpt lat="44.941875" lon="4.893302">
        <ele>168.339059</ele>
        <time>2017-06-05T11:41:46.000Z</time>
      </trkpt>
      <trkpt lat="44.941780" lon="4.893345">
        <ele>168.189047</ele>
        <time>2017-06-05T11:41:48.000Z</time>
      </trkpt>
      <trkpt lat="44.941677" lon="4.893403">
        <ele>168.022307</ele>
        <time>2017-06-05T11:41:50.000Z</time>
      </trkpt>
      <trkpt lat="44.941570" lon="4.893446">
        <ele>167.855019</ele>
        <time>2017-06-05T11:41:52.000Z</time>
      </trkpt>
      <trkpt lat="44.941463" lon="4.893496">
        <ele>167.685541</ele>
        <time>2017-06-05T11:41:54.000Z</time>
      </trkpt>
      <trkpt lat="44.941372" lon="4.893545">
        <ele>167.539094</ele>
        <time>2017-06-05T11:41:56.000Z</time>
      </trkpt>
      <trkpt lat="44.941260" lon="4.893570">
        <ele>167.368581</ele>
        <time>2017-06-05T11:41:58.000Z</time>
      </trkpt>
      <trkpt lat="44.941147" lon="4.893530">
        <ele>167.193401</ele>
        <time>2017-06-05T11:42:00.000Z</time>
      </trkpt>
      <trkpt lat="44.941060" lon="4.893452">
        <ele>167.038451</ele>
        <time>2017-06-05T11:42:02.000Z</time>
      </trkpt>
      <trkpt lat="44.940968" lon="4.893412">
        <ele>166.893699</ele>
        <time>2017-06-05T11:42:04.000Z</time>
      </trkpt>
      <trkpt lat="44.940870" lon="4.893425">
        <ele>166.745680</ele>
        <time>2017-06-05T11:42:06.000Z</time>
      </trkpt>
      <trkpt lat="44.940796" lon="4.893568">
        <ele>166.557127</ele>
        <time>2017-06-05T11:42:09.000Z</time>
      </trkpt>
      <trkpt lat="44.940712" lon="4.893708">
        <ele>166.361773</ele>
        <time>2017-06-05T11:42:12.000Z</time>
      </trkpt>
      <trkpt lat="44.940582" lon="4.893722">
        <ele>166.165714</ele>
        <time>2017-06-05T11:42:15.000Z</time>
      </trkpt>
      <trkpt lat="44.940475" lon="4.893686">
        <ele>166.027883</ele>
        <time>2017-06-05T11:42:17.000Z</time>
      </trkpt>
      <trkpt lat="44.940365" lon="4.893656">
        <ele>165.916701</ele>
        <time>2017-06-05T11:42:19.000Z</time>
      </trkpt>
      <trkpt lat="44.940260" lon="4.893623">
        <ele>165.809949</ele>
        <time>2017-06-05T11:42:21.000Z</time>
      </trkpt>
      <trkpt lat="44.940150" lon="4.893576">
        <ele>165.695898</ele>
        <time>2017-06-05T11:42:23.000Z</time>
      </trkpt>
      <trkpt lat="44.940044" lon="4.893538">
        <ele>165.587368</ele>
        <time>2017-06-05T11:42:25.000Z</time>
      </trkpt>
      <trkpt lat="44.939934" lon="4.893497">
        <ele>165.474465</ele>
        <time>2017-06-05T11:42:27.000Z</time>
      </trkpt>
      <trkpt lat="44.939823" lon="4.893457">
        <ele>165.360779</ele>
        <time>2017-06-05T11:42:29.000Z</time>
      </trkpt>
      <trkpt lat="44.939716" lon="4.893424">
        <ele>165.252089</ele>
        <time>2017-06-05T11:42:31.000Z</time>
      </trkpt>
      <trkpt lat="44.939613" lon="4.893394">
        <ele>165.147719</ele>
        <time>2017-06-05T11:42:33.000Z</time>
      </trkpt>
      <trkpt lat="44.939514" lon="4.893367">
        <ele>165.047655</ele>
        <time>2017-06-05T11:42:35.000Z</time>
      </trkpt>
      <trkpt lat="44.939423" lon="4.893337">
        <ele>164.954918</ele>
        <time>2017-06-05T11:42:37.000Z</time>
      </trkpt>
      <trkpt lat="44.939285" lon="4.893308">
        <ele>164.816457</ele>
        <time>2017-06-05T11:42:40.000Z</time>
      </trkpt>
      <trkpt lat="44.939156" lon="4.893281">
        <ele>164.687037</ele>
        <time>2017-06-05T11:42:43.000Z</time>
      </trkpt>
      <trkpt lat="44.939037" lon="4.893271">
        <ele>164.568730</ele>
        <time>2017-06-05T11:42:45.000Z</time>
      </trkpt>
      <trkpt lat="44.938942" lon="4.893223">
        <ele>164.468601</ele>
        <time>2017-06-05T11:42:47.000Z</time>
      </trkpt>
      <trkpt lat="44.938800" lon="4.893161">
        <ele>164.321100</ele>
        <time>2017-06-05T11:42:50.000Z</time>
      </trkpt>
      <trkpt lat="44.938717" lon="4.893110">
        <ele>164.386764</ele>
        <time>2017-06-05T11:42:52.000Z</time>
      </trkpt>
      <trkpt lat="44.938600" lon="4.893056">
        <ele>164.556341</ele>
        <time>2017-06-05T11:42:55.000Z</time>
      </trkpt>
      <trkpt lat="44.938510" lon="4.893039">
        <ele>164.681438</ele>
        <time>2017-06-05T11:42:57.000Z</time>
      </trkpt>
      <trkpt lat="44.938377" lon="4.892995">
        <ele>164.869631</ele>
        <time>2017-06-05T11:43:00.000Z</time>
      </trkpt>
      <trkpt lat="44.938286" lon="4.892970">
        <ele>164.997352</ele>
        <time>2017-06-05T11:43:02.000Z</time>
      </trkpt>
      <trkpt lat="44.938180" lon="4.892942">
        <ele>165.145920</ele>
        <time>2017-06-05T11:43:05.000Z</time>
      </trkpt>
      <trkpt lat="44.938090" lon="4.892967">
        <ele>165.272288</ele>
        <time>2017-06-05T11:43:16.000Z</time>
      </trkpt>
      <trkpt lat="44.938004" lon="4.893024">
        <ele>165.403164</ele>
        <time>2017-06-05T11:43:21.000Z</time>
      </trkpt>
      <trkpt lat="44.937900" lon="4.893086">
        <ele>165.558682</ele>
        <time>2017-06-05T11:43:25.000Z</time>
      </trkpt>
      <trkpt lat="44.937805" lon="4.893129">
        <ele>165.696118</ele>
        <time>2017-06-05T11:43:28.000Z</time>
      </trkpt>
      <trkpt lat="44.937720" lon="4.893171">
        <ele>165.820180</ele>
        <time>2017-06-05T11:43:30.000Z</time>
      </trkpt>
      <trkpt lat="44.937595" lon="4.893208">
        <ele>165.996134</ele>
        <time>2017-06-05T11:43:33.000Z</time>
      </trkpt>
      <trkpt lat="44.937490" lon="4.893228">
        <ele>166.142103</ele>
        <time>2017-06-05T11:43:37.000Z</time>
      </trkpt>
      <trkpt lat="44.937386" lon="4.893245">
        <ele>166.286341</ele>
        <time>2017-06-05T11:43:40.000Z</time>
      </trkpt>
      <trkpt lat="44.937290" lon="4.893296">
        <ele>166.427644</ele>
        <time>2017-06-05T11:43:43.000Z</time>
      </trkpt>
      <trkpt lat="44.937183" lon="4.893349">
        <ele>166.583858</ele>
        <time>2017-06-05T11:43:46.000Z</time>
      </trkpt>
      <trkpt lat="44.937090" lon="4.893345">
        <ele>166.712045</ele>
        <time>2017-06-05T11:43:49.000Z</time>
      </trkpt>
      <trkpt lat="44.936993" lon="4.893354">
        <ele>167.023427</ele>
        <time>2017-06-05T11:43:52.000Z</time>
      </trkpt>
      <trkpt lat="44.936893" lon="4.893342">
        <ele>167.504480</ele>
        <time>2017-06-05T11:43:55.000Z</time>
      </trkpt>
      <trkpt lat="44.936790" lon="4.893308">
        <ele>168.011488</ele>
        <time>2017-06-05T11:43:58.000Z</time>
      </trkpt>
      <trkpt lat="44.936690" lon="4.893217">
        <ele>168.581659</ele>
        <time>2017-06-05T11:44:02.000Z</time>
      </trkpt>
      <trkpt lat="44.936623" lon="4.893106">
        <ele>169.076624</ele>
        <time>2017-06-05T11:44:05.000Z</time>
      </trkpt>
      <trkpt lat="44.936558" lon="4.893004">
        <ele>169.542300</ele>
        <time>2017-06-05T11:44:08.000Z</time>
      </trkpt>
      <trkpt lat="44.936485" lon="4.892921">
        <ele>169.991467</ele>
        <time>2017-06-05T11:44:11.000Z</time>
      </trkpt>
      <trkpt lat="44.936400" lon="4.892845">
        <ele>170.473648</ele>
        <time>2017-06-05T11:44:14.000Z</time>
      </trkpt>
      <trkpt lat="44.936330" lon="4.892738">
        <ele>170.968011</ele>
        <time>2017-06-05T11:44:17.000Z</time>
      </trkpt>
      <trkpt lat="44.936275" lon="4.892633">
        <ele>171.411221</ele>
        <time>2017-06-05T11:44:20.000Z</time>
      </trkpt>
      <trkpt lat="44.936226" lon="4.892516">
        <ele>171.872491</ele>
        <time>2017-06-05T11:44:23.000Z</time>
      </trkpt>
      <trkpt lat="44.936150" lon="4.892393">
        <ele>172.426469</ele>
        <time>2017-06-05T11:44:27.000Z</time>
      </trkpt>
      <trkpt lat="44.936090" lon="4.892270">
        <ele>172.933320</ele>
        <time>2017-06-05T11:44:32.000Z</time>
      </trkpt>
      <trkpt lat="44.936054" lon="4.892131">
        <ele>173.435541</ele>
        <time>2017-06-05T11:44:37.000Z</time>
      </trkpt>
      <trkpt lat="44.935955" lon="4.892147">
        <ele>173.913171</ele>
        <time>2017-06-05T11:44:41.000Z</time>
      </trkpt>
      <trkpt lat="44.935898" lon="4.892271">
        <ele>174.414846</ele>
        <time>2017-06-05T11:44:44.000Z</time>
      </trkpt>
      <trkpt lat="44.935852" lon="4.892380">
        <ele>174.845436</ele>
        <time>2017-06-05T11:44:47.000Z</time>
      </trkpt>
      <trkpt lat="44.935802" lon="4.892505">
        <ele>175.332608</ele>
        <time>2017-06-05T11:44:51.000Z</time>
      </trkpt>
      <trkpt lat="44.935753" lon="4.892618">
        <ele>175.880612</ele>
        <time>2017-06-05T11:44:55.000Z</time>
      </trkpt>
      <trkpt lat="44.935700" lon="4.892746">
        <ele>176.511837</ele>
        <time>2017-06-05T11:45:00.000Z</time>
      </trkpt>
      <trkpt lat="44.935640" lon="4.892860">
        <ele>177.116534</ele>
        <time>2017-06-05T11:45:05.000Z</time>
      </trkpt>
      <trkpt lat="44.935580" lon="4.892959">
        <ele>177.671299</ele>
        <time>2017-06-05T11:45:10.000Z</time>
      </trkpt>
      <trkpt lat="44.935528" lon="4.893061">
        <ele>178.206363</ele>
        <time>2017-06-05T11:45:15.000Z</time>
      </trkpt>
      <trkpt lat="44.935460" lon="4.893149">
        <ele>178.760907</ele>
        <time>2017-06-05T11:45:20.000Z</time>
      </trkpt>
      <trkpt lat="44.935417" lon="4.893263">
        <ele>179.310767</ele>
        <time>2017-06-05T11:45:24.000Z</time>
      </trkpt>
      <trkpt lat="44.935417" lon="4.893390">
        <ele>179.851377</ele>
        <time>2017-06-05T11:45:27.000Z</time>
      </trkpt>
      <trkpt lat="44.935402" lon="4.893530">
        <ele>180.454112</ele>
        <time>2017-06-05T11:45:31.000Z</time>
      </trkpt>
      <trkpt lat="44.935375" lon="4.893681">
        <ele>181.117072</ele>
        <time>2017-06-05T11:45:35.000Z</time>
      </trkpt>
      <trkpt lat="44.935352" lon="4.893815">
        <ele>181.704007</ele>
        <time>2017-06-05T11:45:38.000Z</time>
      </trkpt>
      <trkpt lat="44.935345" lon="4.893958">
        <ele>182.314179</ele>
        <time>2017-06-05T11:45:41.000Z</time>
      </trkpt>
      <trkpt lat="44.935326" lon="4.894103">
        <ele>182.941897</ele>
        <time>2017-06-05T11:45:44.000Z</time>
      </trkpt>
      <trkpt lat="44.935303" lon="4.894259">
        <ele>183.620203</ele>
        <time>2017-06-05T11:45:47.000Z</time>
      </trkpt>
      <trkpt lat="44.935284" lon="4.894397">
        <ele>184.218646</ele>
        <time>2017-06-05T11:45:50.000Z</time>
      </trkpt>
      <trkpt lat="44.935234" lon="4.894515">
        <ele>184.804053</ele>
        <time>2017-06-05T11:45:54.000Z</time>
      </trkpt>
      <trkpt lat="44.935173" lon="4.894632">
        <ele>185.422595</ele>
        <time>2017-06-05T11:45:59.000Z</time>
      </trkpt>
      <trkpt lat="44.935093" lon="4.894699">
        <ele>185.981842</ele>
        <time>2017-06-05T11:46:03.000Z</time>
      </trkpt>
      <trkpt lat="44.935010" lon="4.894789">
        <ele>186.174927</ele>
        <time>2017-06-05T11:46:10.000Z</time>
      </trkpt>
      <trkpt lat="44.934970" lon="4.894912">
        <ele>186.122344</ele>
        <time>2017-06-05T11:46:16.000Z</time>
      </trkpt>
      <trkpt lat="44.934906" lon="4.895095">
        <ele>186.043050</ele>
        <time>2017-06-05T11:46:19.000Z</time>
      </trkpt>
      <trkpt lat="44.934834" lon="4.895233">
        <ele>185.976452</ele>
        <time>2017-06-05T11:46:21.000Z</time>
      </trkpt>
      <trkpt lat="44.934730" lon="4.895343">
        <ele>185.905155</ele>
        <time>2017-06-05T11:46:24.000Z</time>
      </trkpt>
      <trkpt lat="44.934640" lon="4.895401">
        <ele>185.850869</ele>
        <time>2017-06-05T11:46:26.000Z</time>
      </trkpt>
      <trkpt lat="44.934532" lon="4.895461">
        <ele>185.787183</ele>
        <time>2017-06-05T11:46:28.000Z</time>
      </trkpt>
      <trkpt lat="44.934450" lon="4.895521">
        <ele>185.736505</ele>
        <time>2017-06-05T11:46:30.000Z</time>
      </trkpt>
      <trkpt lat="44.934364" lon="4.895568">
        <ele>185.685902</ele>
        <time>2017-06-05T11:46:32.000Z</time>
      </trkpt>
      <trkpt lat="44.934277" lon="4.895624">
        <ele>185.633436</ele>
        <time>2017-06-05T11:46:34.000Z</time>
      </trkpt>
      <trkpt lat="44.934196" lon="4.895682">
        <ele>185.583601</ele>
        <time>2017-06-05T11:46:37.000Z</time>
      </trkpt>
      <trkpt lat="44.934110" lon="4.895760">
        <ele>185.527516</ele>
        <time>2017-06-05T11:46:40.000Z</time>
      </trkpt>
      <trkpt lat="44.934017" lon="4.895864">
        <ele>185.462424</ele>
        <time>2017-06-05T11:46:43.000Z</time>
      </trkpt>
      <trkpt lat="44.933930" lon="4.895957">
        <ele>185.402552</ele>
        <time>2017-06-05T11:46:46.000Z</time>
      </trkpt>
      <trkpt lat="44.933865" lon="4.896048">
        <ele>185.352331</ele>
        <time>2017-06-05T11:46:49.000Z</time>
      </trkpt>
      <trkpt lat="44.933754" lon="4.896032">
        <ele>185.291101</ele>
        <time>2017-06-05T11:46:54.000Z</time>
      </trkpt>
      <trkpt lat="44.933670" lon="4.895950">
        <ele>185.235068</ele>
        <time>2017-06-05T11:46:57.000Z</time>
      </trkpt>
      <trkpt lat="44.933590" lon="4.895879">
        <ele>185.439385</ele>
        <time>2017-06-05T11:47:00.000Z</time>
      </trkpt>
      <trkpt lat="44.933506" lon="4.895833">
        <ele>185.697818</ele>
        <time>2017-06-05T11:47:03.000Z</time>
      </trkpt>
      <trkpt lat="44.933403" lon="4.895751">
        <ele>186.036975</ele>
        <time>2017-06-05T11:47:07.000Z</time>
      </trkpt>
      <trkpt lat="44.933310" lon="4.895684">
        <ele>186.336445</ele>
        <time>2017-06-05T11:47:11.000Z</time>
      </trkpt>
      <trkpt lat="44.933212" lon="4.895645">
        <ele>186.628509</ele>
        <time>2017-06-05T11:47:15.000Z</time>
      </trkpt>
      <trkpt lat="44.933105" lon="4.895568">
        <ele>186.972981</ele>
        <time>2017-06-05T11:47:19.000Z</time>
      </trkpt>
      <trkpt lat="44.933002" lon="4.895505">
        <ele>187.294954</ele>
        <time>2017-06-05T11:47:23.000Z</time>
      </trkpt>
      <trkpt lat="44.932888" lon="4.895460">
        <ele>187.634500</ele>
        <time>2017-06-05T11:47:27.000Z</time>
      </trkpt>
      <trkpt lat="44.932800" lon="4.895407">
        <ele>187.908922</ele>
        <time>2017-06-05T11:47:30.000Z</time>
      </trkpt>
      <trkpt lat="44.932713" lon="4.895363">
        <ele>188.174001</ele>
        <time>2017-06-05T11:47:33.000Z</time>
      </trkpt>
      <trkpt lat="44.932620" lon="4.895319">
        <ele>188.455345</ele>
        <time>2017-06-05T11:47:36.000Z</time>
      </trkpt>
      <trkpt lat="44.932514" lon="4.895257">
        <ele>188.784450</ele>
        <time>2017-06-05T11:47:40.000Z</time>
      </trkpt>
      <trkpt lat="44.932430" lon="4.895199">
        <ele>189.052658</ele>
        <time>2017-06-05T11:47:43.000Z</time>
      </trkpt>
      <trkpt lat="44.932323" lon="4.895140">
        <ele>189.382152</ele>
        <time>2017-06-05T11:47:47.000Z</time>
      </trkpt>
      <trkpt lat="44.932230" lon="4.895068">
        <ele>189.686371</ele>
        <time>2017-06-05T11:47:51.000Z</time>
      </trkpt>
      <trkpt lat="44.932140" lon="4.895050">
        <ele>189.947117</ele>
        <time>2017-06-05T11:48:03.000Z</time>
      </trkpt>
      <trkpt lat="44.932040" lon="4.895006">
        <ele>190.247569</ele>
        <time>2017-06-05T11:48:07.000Z</time>
      </trkpt>
      <trkpt lat="44.931946" lon="4.894931">
        <ele>190.155453</ele>
        <time>2017-06-05T11:48:11.000Z</time>
      </trkpt>
      <trkpt lat="44.931850" lon="4.894873">
        <ele>189.760782</ele>
        <time>2017-06-05T11:48:15.000Z</time>
      </trkpt>
      <trkpt lat="44.931755" lon="4.894857">
        <ele>189.399146</ele>
        <time>2017-06-05T11:48:19.000Z</time>
      </trkpt>
      <trkpt lat="44.931667" lon="4.894813">
        <ele>189.046288</ele>
        <time>2017-06-05T11:48:23.000Z</time>
      </trkpt>
      <trkpt lat="44.931572" lon="4.894766">
        <ele>188.665807</ele>
        <time>2017-06-05T11:48:27.000Z</time>
      </trkpt>
      <trkpt lat="44.931473" lon="4.894692">
        <ele>188.242430</ele>
        <time>2017-06-05T11:48:31.000Z</time>
      </trkpt>
      <trkpt lat="44.931385" lon="4.894649">
        <ele>187.890457</ele>
        <time>2017-06-05T11:48:34.000Z</time>
      </trkpt>
      <trkpt lat="44.931282" lon="4.894594">
        <ele>187.474234</ele>
        <time>2017-06-05T11:48:38.000Z</time>
      </trkpt>
      <trkpt lat="44.931183" lon="4.894529">
        <ele>187.061572</ele>
        <time>2017-06-05T11:48:42.000Z</time>
      </trkpt>
      <trkpt lat="44.931080" lon="4.894468">
        <ele>186.639404</ele>
        <time>2017-06-05T11:48:46.000Z</time>
      </trkpt>
      <trkpt lat="44.930980" lon="4.894424">
        <ele>186.243498</ele>
        <time>2017-06-05T11:48:50.000Z</time>
      </trkpt>
      <trkpt lat="44.930880" lon="4.894359">
        <ele>185.827404</ele>
        <time>2017-06-05T11:48:54.000Z</time>
      </trkpt>
      <trkpt lat="44.930790" lon="4.894307">
        <ele>185.459852</ele>
        <time>2017-06-05T11:48:58.000Z</time>
      </trkpt>
      <trkpt lat="44.930695" lon="4.894266">
        <ele>185.084372</ele>
        <time>2017-06-05T11:49:02.000Z</time>
      </trkpt>
      <trkpt lat="44.930650" lon="4.894154">
        <ele>184.739752</ele>
        <time>2017-06-05T11:49:06.000Z</time>
      </trkpt>
      <trkpt lat="44.930614" lon="4.894013">
        <ele>184.338643</ele>
        <time>2017-06-05T11:49:10.000Z</time>
      </trkpt>
      <trkpt lat="44.930560" lon="4.893877">
        <ele>183.921370</ele>
        <time>2017-06-05T11:49:14.000Z</time>
      </trkpt>
      <trkpt lat="44.930530" lon="4.893744">
        <ele>183.560849</ele>
        <time>2017-06-05T11:49:18.000Z</time>
      </trkpt>
      <trkpt lat="44.930515" lon="4.893602">
        <ele>183.310633</ele>
        <time>2017-06-05T11:49:22.000Z</time>
      </trkpt>
      <trkpt lat="44.930485" lon="4.893461">
        <ele>183.054042</ele>
        <time>2017-06-05T11:49:26.000Z</time>
      </trkpt>
      <trkpt lat="44.930485" lon="4.893307">
        <ele>182.785652</ele>
        <time>2017-06-05T11:49:30.000Z</time>
      </trkpt>
      <trkpt lat="44.930504" lon="4.893164">
        <ele>182.532082</ele>
        <time>2017-06-05T11:49:34.000Z</time>
      </trkpt>
      <trkpt lat="44.930523" lon="4.893025">
        <ele>182.285360</ele>
        <time>2017-06-05T11:49:38.000Z</time>
      </trkpt>
      <trkpt lat="44.930553" lon="4.892880">
        <ele>182.022085</ele>
        <time>2017-06-05T11:49:43.000Z</time>
      </trkpt>
      <trkpt lat="44.930600" lon="4.892748">
        <ele>181.764581</ele>
        <time>2017-06-05T11:49:49.000Z</time>
      </trkpt>
      <trkpt lat="44.930607" lon="4.892587">
        <ele>181.483463</ele>
        <time>2017-06-05T11:49:54.000Z</time>
      </trkpt>
      <trkpt lat="44.930614" lon="4.892446">
        <ele>181.237127</ele>
        <time>2017-06-05T11:49:58.000Z</time>
      </trkpt>
      <trkpt lat="44.930610" lon="4.892316">
        <ele>181.010350</ele>
        <time>2017-06-05T11:50:02.000Z</time>
      </trkpt>
      <trkpt lat="44.930622" lon="4.892162">
        <ele>180.740340</ele>
        <time>2017-06-05T11:50:06.000Z</time>
      </trkpt>
      <trkpt lat="44.930620" lon="4.892009">
        <ele>180.473648</ele>
        <time>2017-06-05T11:50:10.000Z</time>
      </trkpt>
      <trkpt lat="44.930622" lon="4.891879">
        <ele>180.247032</ele>
        <time>2017-06-05T11:50:13.000Z</time>
      </trkpt>
      <trkpt lat="44.930622" lon="4.891740">
        <ele>180.004784</ele>
        <time>2017-06-05T11:50:16.000Z</time>
      </trkpt>
      <trkpt lat="44.930630" lon="4.891591">
        <ele>179.744363</ele>
        <time>2017-06-05T11:50:19.000Z</time>
      </trkpt>
      <trkpt lat="44.930640" lon="4.891451">
        <ele>179.499134</ele>
        <time>2017-06-05T11:50:22.000Z</time>
      </trkpt>
      <trkpt lat="44.930626" lon="4.891312">
        <ele>179.254448</ele>
        <time>2017-06-05T11:50:26.000Z</time>
      </trkpt>
      <trkpt lat="44.930527" lon="4.891306">
        <ele>179.452071</ele>
        <time>2017-06-05T11:50:33.000Z</time>
      </trkpt>
      <trkpt lat="44.930435" lon="4.891284">
        <ele>179.912621</ele>
        <time>2017-06-05T11:50:38.000Z</time>
      </trkpt>
      <trkpt lat="44.930340" lon="4.891262">
        <ele>180.387777</ele>
        <time>2017-06-05T11:50:42.000Z</time>
      </trkpt>
      <trkpt lat="44.930250" lon="4.891241">
        <ele>180.838014</ele>
        <time>2017-06-05T11:50:46.000Z</time>
      </trkpt>
      <trkpt lat="44.930153" lon="4.891205">
        <ele>181.333032</ele>
        <time>2017-06-05T11:50:50.000Z</time>
      </trkpt>
      <trkpt lat="44.930060" lon="4.891156">
        <ele>181.822951</ele>
        <time>2017-06-05T11:50:55.000Z</time>
      </trkpt>
      <trkpt lat="44.929977" lon="4.891105">
        <ele>182.269703</ele>
        <time>2017-06-05T11:50:59.000Z</time>
      </trkpt>
      <trkpt lat="44.929886" lon="4.891023">
        <ele>182.802471</ele>
        <time>2017-06-05T11:51:03.000Z</time>
      </trkpt>
      <trkpt lat="44.929794" lon="4.890974">
        <ele>183.287769</ele>
        <time>2017-06-05T11:51:06.000Z</time>
      </trkpt>
      <trkpt lat="44.929700" lon="4.890955">
        <ele>183.756456</ele>
        <time>2017-06-05T11:51:09.000Z</time>
      </trkpt>
      <trkpt lat="44.929577" lon="4.890925">
        <ele>184.372537</ele>
        <time>2017-06-05T11:51:13.000Z</time>
      </trkpt>
      <trkpt lat="44.929490" lon="4.890890">
        <ele>184.819024</ele>
        <time>2017-06-05T11:51:16.000Z</time>
      </trkpt>
      <trkpt lat="44.929394" lon="4.890842">
        <ele>185.321667</ele>
        <time>2017-06-05T11:51:19.000Z</time>
      </trkpt>
      <trkpt lat="44.929290" lon="4.890778">
        <ele>185.881588</ele>
        <time>2017-06-05T11:51:23.000Z</time>
      </trkpt>
      <trkpt lat="44.929207" lon="4.890724">
        <ele>186.332624</ele>
        <time>2017-06-05T11:51:28.000Z</time>
      </trkpt>
      <trkpt lat="44.929085" lon="4.890664">
        <ele>186.970242</ele>
        <time>2017-06-05T11:52:18.000Z</time>
      </trkpt>
      <trkpt lat="44.929010" lon="4.890589">
        <ele>187.423807</ele>
        <time>2017-06-05T11:52:25.000Z</time>
      </trkpt>
      <trkpt lat="44.928825" lon="4.890477">
        <ele>187.588597</ele>
        <time>2017-06-05T11:59:37.000Z</time>
      </trkpt>
      <trkpt lat="44.928837" lon="4.890313">
        <ele>186.915454</ele>
        <time>2017-06-05T11:59:42.000Z</time>
      </trkpt>
      <trkpt lat="44.928883" lon="4.890150">
        <ele>186.199039</ele>
        <time>2017-06-05T11:59:46.000Z</time>
      </trkpt>
      <trkpt lat="44.928936" lon="4.890034">
        <ele>185.635378</ele>
        <time>2017-06-05T11:59:50.000Z</time>
      </trkpt>
      <trkpt lat="44.928997" lon="4.889914">
        <ele>185.032237</ele>
        <time>2017-06-05T11:59:56.000Z</time>
      </trkpt>
      <trkpt lat="44.929080" lon="4.889845">
        <ele>184.476846</ele>
        <time>2017-06-05T12:00:01.000Z</time>
      </trkpt>
      <trkpt lat="44.929165" lon="4.889912">
        <ele>183.915510</ele>
        <time>2017-06-05T12:00:05.000Z</time>
      </trkpt>
      <trkpt lat="44.929237" lon="4.889990">
        <ele>183.392240</ele>
        <time>2017-06-05T12:00:13.000Z</time>
      </trkpt>
      <trkpt lat="44.929173" lon="4.890075">
        <ele>182.885636</ele>
        <time>2017-06-05T12:10:47.000Z</time>
      </trkpt>
      <trkpt lat="44.929210" lon="4.890195">
        <ele>182.351258</ele>
        <time>2017-06-05T13:07:34.000Z</time>
      </trkpt>
      <trkpt lat="44.929283" lon="4.890072">
        <ele>181.695970</ele>
        <time>2017-06-05T13:11:12.000Z</time>
      </trkpt>
      <trkpt lat="44.929184" lon="4.890047">
        <ele>181.116008</ele>
        <time>2017-06-05T13:11:28.000Z</time>
      </trkpt>
      <trkpt lat="44.929222" lon="4.889931">
        <ele>180.594167</ele>
        <time>2017-06-05T13:13:19.000Z</time>
      </trkpt>
      <trkpt lat="44.929176" lon="4.889805">
        <ele>180.015371</ele>
        <time>2017-06-05T13:13:27.000Z</time>
      </trkpt>
      <trkpt lat="44.929173" lon="4.889670">
        <ele>179.463927</ele>
        <time>2017-06-05T13:13:34.000Z</time>
      </trkpt>
      <trkpt lat="44.929276" lon="4.889455">
        <ele>178.404055</ele>
        <time>2017-06-05T13:15:38.000Z</time>
      </trkpt>
      <trkpt lat="44.929295" lon="4.889305">
        <ele>177.781918</ele>
        <time>2017-06-05T13:15:44.000Z</time>
      </trkpt>
      <trkpt lat="44.929210" lon="4.889205">
        <ele>177.371544</ele>
        <time>2017-06-05T13:15:49.000Z</time>
      </trkpt>
      <trkpt lat="44.929110" lon="4.889125">
        <ele>176.999521</ele>
        <time>2017-06-05T13:15:53.000Z</time>
      </trkpt>
      <trkpt lat="44.929054" lon="4.888996">
        <ele>176.652728</ele>
        <time>2017-06-05T13:15:57.000Z</time>
      </trkpt>
      <trkpt lat="44.929043" lon="4.888863">
        <ele>176.345847</ele>
        <time>2017-06-05T13:16:02.000Z</time>
      </trkpt>
      <trkpt lat="44.929058" lon="4.888717">
        <ele>176.007741</ele>
        <time>2017-06-05T13:16:08.000Z</time>
      </trkpt>
      <trkpt lat="44.929085" lon="4.888587">
        <ele>175.697252</ele>
        <time>2017-06-05T13:16:12.000Z</time>
      </trkpt>
      <trkpt lat="44.929140" lon="4.888454">
        <ele>175.344257</ele>
        <time>2017-06-05T13:16:18.000Z</time>
      </trkpt>
      <trkpt lat="44.929230" lon="4.888366">
        <ele>174.989925</ele>
        <time>2017-06-05T13:16:23.000Z</time>
      </trkpt>
      <trkpt lat="44.929306" lon="4.888257">
        <ele>174.639315</ele>
        <time>2017-06-05T13:16:28.000Z</time>
      </trkpt>
      <trkpt lat="44.929333" lon="4.888135">
        <ele>174.346375</ele>
        <time>2017-06-05T13:16:32.000Z</time>
      </trkpt>
      <trkpt lat="44.929363" lon="4.888009">
        <ele>174.041719</ele>
        <time>2017-06-05T13:16:37.000Z</time>
      </trkpt>
      <trkpt lat="44.929382" lon="4.887882">
        <ele>173.744235</ele>
        <time>2017-06-05T13:16:43.000Z</time>
      </trkpt>
      <trkpt lat="44.929447" lon="4.887763">
        <ele>173.399780</ele>
        <time>2017-06-05T13:16:49.000Z</time>
      </trkpt>
      <trkpt lat="44.929400" lon="4.887887">
        <ele>173.077436</ele>
        <time>2017-06-05T13:17:59.000Z</time>
      </trkpt>
      <trkpt lat="44.929295" lon="4.887907">
        <ele>172.734466</ele>
        <time>2017-06-05T13:18:05.000Z</time>
      </trkpt>
      <trkpt lat="44.929200" lon="4.887853">
        <ele>172.402976</ele>
        <time>2017-06-05T13:18:09.000Z</time>
      </trkpt>
      <trkpt lat="44.929110" lon="4.887792">
        <ele>172.079833</ele>
        <time>2017-06-05T13:18:14.000Z</time>
      </trkpt>
      <trkpt lat="44.929220" lon="4.887812">
        <ele>171.641440</ele>
        <time>2017-06-05T13:18:21.000Z</time>
      </trkpt>
      <trkpt lat="44.929302" lon="4.887857">
        <ele>171.167629</ele>
        <time>2017-06-05T13:18:24.000Z</time>
      </trkpt>
      <trkpt lat="44.929344" lon="4.887740">
        <ele>170.667419</ele>
        <time>2017-06-05T13:18:33.000Z</time>
      </trkpt>
      <trkpt lat="44.929348" lon="4.887603">
        <ele>170.144575</ele>
        <time>2017-06-05T13:18:41.000Z</time>
      </trkpt>
      <trkpt lat="44.929270" lon="4.887501">
        <ele>169.572070</ele>
        <time>2017-06-05T13:18:48.000Z</time>
      </trkpt>
      <trkpt lat="44.929195" lon="4.887406">
        <ele>169.029486</ele>
        <time>2017-06-05T13:18:51.000Z</time>
      </trkpt>
      <trkpt lat="44.929096" lon="4.887308">
        <ele>168.378367</ele>
        <time>2017-06-05T13:18:54.000Z</time>
      </trkpt>
      <trkpt lat="44.929020" lon="4.887192">
        <ele>167.775702</ele>
        <time>2017-06-05T13:18:58.000Z</time>
      </trkpt>
      <trkpt lat="44.929085" lon="4.887104">
        <ele>167.290769</ele>
        <time>2017-06-05T13:19:02.000Z</time>
      </trkpt>
      <trkpt lat="44.929184" lon="4.887089">
        <ele>166.754500</ele>
        <time>2017-06-05T13:19:05.000Z</time>
      </trkpt>
      <trkpt lat="44.929300" lon="4.887093">
        <ele>166.129543</ele>
        <time>2017-06-05T13:19:08.000Z</time>
      </trkpt>
      <trkpt lat="44.929398" lon="4.887119">
        <ele>165.592489</ele>
        <time>2017-06-05T13:19:11.000Z</time>
      </trkpt>
      <trkpt lat="44.929500" lon="4.887050">
        <ele>164.983368</ele>
        <time>2017-06-05T13:19:15.000Z</time>
      </trkpt>
      <trkpt lat="44.929573" lon="4.886936">
        <ele>164.397239</ele>
        <time>2017-06-05T13:19:18.000Z</time>
      </trkpt>
      <trkpt lat="44.929670" lon="4.886900">
        <ele>163.857068</ele>
        <time>2017-06-05T13:19:22.000Z</time>
      </trkpt>
      <trkpt lat="44.929756" lon="4.886985">
        <ele>163.291738</ele>
        <time>2017-06-05T13:19:27.000Z</time>
      </trkpt>
      <trkpt lat="44.929836" lon="4.887078">
        <ele>162.733698</ele>
        <time>2017-06-05T13:19:31.000Z</time>
      </trkpt>
      <trkpt lat="44.929920" lon="4.887137">
        <ele>162.228429</ele>
        <time>2017-06-05T13:19:35.000Z</time>
      </trkpt>
      <trkpt lat="44.930020" lon="4.887157">
        <ele>162.052068</ele>
        <time>2017-06-05T13:19:40.000Z</time>
      </trkpt>
      <trkpt lat="44.930110" lon="4.887099">
        <ele>161.937310</ele>
        <time>2017-06-05T13:19:45.000Z</time>
      </trkpt>
      <trkpt lat="44.930202" lon="4.887043">
        <ele>161.821097</ele>
        <time>2017-06-05T13:19:50.000Z</time>
      </trkpt>
      <trkpt lat="44.930286" lon="4.886969">
        <ele>161.706254</ele>
        <time>2017-06-05T13:19:59.000Z</time>
      </trkpt>
      <trkpt lat="44.930370" lon="4.886890">
        <ele>161.589186</ele>
        <time>2017-06-05T13:20:05.000Z</time>
      </trkpt>
      <trkpt lat="44.930435" lon="4.886791">
        <ele>161.478297</ele>
        <time>2017-06-05T13:20:16.000Z</time>
      </trkpt>
      <trkpt lat="44.930496" lon="4.886660">
        <ele>161.349524</ele>
        <time>2017-06-05T13:20:22.000Z</time>
      </trkpt>
      <trkpt lat="44.930550" lon="4.886536">
        <ele>161.229962</ele>
        <time>2017-06-05T13:20:26.000Z</time>
      </trkpt>
      <trkpt lat="44.930600" lon="4.886405">
        <ele>161.107736</ele>
        <time>2017-06-05T13:20:30.000Z</time>
      </trkpt>
      <trkpt lat="44.930640" lon="4.886274">
        <ele>160.990569</ele>
        <time>2017-06-05T13:20:34.000Z</time>
      </trkpt>
      <trkpt lat="44.930680" lon="4.886147">
        <ele>160.876411</ele>
        <time>2017-06-05T13:20:38.000Z</time>
      </trkpt>
      <trkpt lat="44.930702" lon="4.886010">
        <ele>160.761039</ele>
        <time>2017-06-05T13:20:42.000Z</time>
      </trkpt>
      <trkpt lat="44.930710" lon="4.885868">
        <ele>160.644050</ele>
        <time>2017-06-05T13:20:46.000Z</time>
      </trkpt>
      <trkpt lat="44.930706" lon="4.885724">
        <ele>160.525695</ele>
        <time>2017-06-05T13:20:50.000Z</time>
      </trkpt>
      <trkpt lat="44.930695" lon="4.885593">
        <ele>160.417355</ele>
        <time>2017-06-05T13:20:54.000Z</time>
      </trkpt>
      <trkpt lat="44.930683" lon="4.885457">
        <ele>160.304797</ele>
        <time>2017-06-05T13:20:58.000Z</time>
      </trkpt>
      <trkpt lat="44.930650" lon="4.885338">
        <ele>160.199836</ele>
        <time>2017-06-05T13:21:02.000Z</time>
      </trkpt>
      <trkpt lat="44.930610" lon="4.885213">
        <ele>160.087177</ele>
        <time>2017-06-05T13:21:07.000Z</time>
      </trkpt>
      <trkpt lat="44.930546" lon="4.885095">
        <ele>159.857003</ele>
        <time>2017-06-05T13:21:13.000Z</time>
      </trkpt>
      <trkpt lat="44.930485" lon="4.884976">
        <ele>159.607671</ele>
        <time>2017-06-05T13:21:19.000Z</time>
      </trkpt>
      <trkpt lat="44.930410" lon="4.884910">
        <ele>159.395850</ele>
        <time>2017-06-05T13:21:24.000Z</time>
      </trkpt>
      <trkpt lat="44.930313" lon="4.884845">
        <ele>159.138490</ele>
        <time>2017-06-05T13:21:29.000Z</time>
      </trkpt>
      <trkpt lat="44.930230" lon="4.884788">
        <ele>158.917259</ele>
        <time>2017-06-05T13:21:33.000Z</time>
      </trkpt>
      <trkpt lat="44.930126" lon="4.884763">
        <ele>158.664373</ele>
        <time>2017-06-05T13:21:38.000Z</time>
      </trkpt>
      <trkpt lat="44.930020" lon="4.884750">
        <ele>158.409322</ele>
        <time>2017-06-05T13:21:43.000Z</time>
      </trkpt>
      <trkpt lat="44.929905" lon="4.884736">
        <ele>158.132631</ele>
        <time>2017-06-05T13:21:48.000Z</time>
      </trkpt>
      <trkpt lat="44.929806" lon="4.884733">
        <ele>157.895261</ele>
        <time>2017-06-05T13:21:53.000Z</time>
      </trkpt>
      <trkpt lat="44.929703" lon="4.884767">
        <ele>157.641704</ele>
        <time>2017-06-05T13:21:58.000Z</time>
      </trkpt>
      <trkpt lat="44.929600" lon="4.884793">
        <ele>157.390889</ele>
        <time>2017-06-05T13:22:02.000Z</time>
      </trkpt>
      <trkpt lat="44.929493" lon="4.884850">
        <ele>157.116761</ele>
        <time>2017-06-05T13:22:06.000Z</time>
      </trkpt>
      <trkpt lat="44.929410" lon="4.884929">
        <ele>156.876842</ele>
        <time>2017-06-05T13:22:10.000Z</time>
      </trkpt>
      <trkpt lat="44.929330" lon="4.885006">
        <ele>156.644781</ele>
        <time>2017-06-05T13:22:14.000Z</time>
      </trkpt>
      <trkpt lat="44.929264" lon="4.885094">
        <ele>156.427216</ele>
        <time>2017-06-05T13:22:17.000Z</time>
      </trkpt>
      <trkpt lat="44.929190" lon="4.885184">
        <ele>156.193131</ele>
        <time>2017-06-05T13:22:21.000Z</time>
      </trkpt>
      <trkpt lat="44.929120" lon="4.885272">
        <ele>155.968496</ele>
        <time>2017-06-05T13:22:26.000Z</time>
      </trkpt>
      <trkpt lat="44.929047" lon="4.885346">
        <ele>155.755210</ele>
        <time>2017-06-05T13:22:30.000Z</time>
      </trkpt>
      <trkpt lat="44.928950" lon="4.885419">
        <ele>155.802749</ele>
        <time>2017-06-05T13:22:34.000Z</time>
      </trkpt>
      <trkpt lat="44.928852" lon="4.885486">
        <ele>155.849841</ele>
        <time>2017-06-05T13:22:38.000Z</time>
      </trkpt>
      <trkpt lat="44.928740" lon="4.885520">
        <ele>155.899390</ele>
        <time>2017-06-05T13:22:42.000Z</time>
      </trkpt>
      <trkpt lat="44.928640" lon="4.885556">
        <ele>155.944026</ele>
        <time>2017-06-05T13:22:46.000Z</time>
      </trkpt>
      <trkpt lat="44.928528" lon="4.885600">
        <ele>155.994308</ele>
        <time>2017-06-05T13:22:50.000Z</time>
      </trkpt>
      <trkpt lat="44.928425" lon="4.885636">
        <ele>156.040202</ele>
        <time>2017-06-05T13:22:54.000Z</time>
      </trkpt>
      <trkpt lat="44.928320" lon="4.885668">
        <ele>156.086663</ele>
        <time>2017-06-05T13:22:59.000Z</time>
      </trkpt>
      <trkpt lat="44.928226" lon="4.885717">
        <ele>156.130001</ele>
        <time>2017-06-05T13:23:03.000Z</time>
      </trkpt>
      <trkpt lat="44.928303" lon="4.885603">
        <ele>156.178249</ele>
        <time>2017-06-05T13:23:17.000Z</time>
      </trkpt>
      <trkpt lat="44.928253" lon="4.885486">
        <ele>156.220099</ele>
        <time>2017-06-05T13:23:24.000Z</time>
      </trkpt>
      <trkpt lat="44.928177" lon="4.885587">
        <ele>156.265234</ele>
        <time>2017-06-05T13:23:29.000Z</time>
      </trkpt>
      <trkpt lat="44.928110" lon="4.885712">
        <ele>156.313245</ele>
        <time>2017-06-05T13:23:33.000Z</time>
      </trkpt>
      <trkpt lat="44.928030" lon="4.885793">
        <ele>156.355819</ele>
        <time>2017-06-05T13:23:37.000Z</time>
      </trkpt>
      <trkpt lat="44.927944" lon="4.885878">
        <ele>156.401220</ele>
        <time>2017-06-05T13:23:42.000Z</time>
      </trkpt>
      <trkpt lat="44.928010" lon="4.885780">
        <ele>156.442639</ele>
        <time>2017-06-05T13:23:54.000Z</time>
      </trkpt>
      <trkpt lat="44.928097" lon="4.885657">
        <ele>156.495881</ele>
        <time>2017-06-05T13:23:58.000Z</time>
      </trkpt>
      <trkpt lat="44.928158" lon="4.885556">
        <ele>156.543437</ele>
        <time>2017-06-05T13:24:01.000Z</time>
      </trkpt>
      <trkpt lat="44.928223" lon="4.885450">
        <ele>156.666867</ele>
        <time>2017-06-05T13:24:04.000Z</time>
      </trkpt>
      <trkpt lat="44.928276" lon="4.885331">
        <ele>156.790610</ele>
        <time>2017-06-05T13:24:07.000Z</time>
      </trkpt>
      <trkpt lat="44.928370" lon="4.885224">
        <ele>156.940699</ele>
        <time>2017-06-05T13:24:10.000Z</time>
      </trkpt>
      <trkpt lat="44.928448" lon="4.885078">
        <ele>157.101688</ele>
        <time>2017-06-05T13:24:13.000Z</time>
      </trkpt>
      <trkpt lat="44.928535" lon="4.884945">
        <ele>157.261071</ele>
        <time>2017-06-05T13:24:16.000Z</time>
      </trkpt>
      <trkpt lat="44.928623" lon="4.884821">
        <ele>157.415606</ele>
        <time>2017-06-05T13:24:19.000Z</time>
      </trkpt>
      <trkpt lat="44.928688" lon="4.884700">
        <ele>157.549295</ele>
        <time>2017-06-05T13:24:22.000Z</time>
      </trkpt>
      <trkpt lat="44.928757" lon="4.884576">
        <ele>157.688114</ele>
        <time>2017-06-05T13:24:25.000Z</time>
      </trkpt>
      <trkpt lat="44.928802" lon="4.884414">
        <ele>157.841285</ele>
        <time>2017-06-05T13:24:28.000Z</time>
      </trkpt>
      <trkpt lat="44.928830" lon="4.884240">
        <ele>157.998343</ele>
        <time>2017-06-05T13:24:31.000Z</time>
      </trkpt>
      <trkpt lat="44.928850" lon="4.884110">
        <ele>158.115436</ele>
        <time>2017-06-05T13:24:33.000Z</time>
      </trkpt>
      <trkpt lat="44.928864" lon="4.883984">
        <ele>158.227696</ele>
        <time>2017-06-05T13:24:35.000Z</time>
      </trkpt>
      <trkpt lat="44.928894" lon="4.883856">
        <ele>158.346372</ele>
        <time>2017-06-05T13:24:37.000Z</time>
      </trkpt>
      <trkpt lat="44.928913" lon="4.883729">
        <ele>158.460623</ele>
        <time>2017-06-05T13:24:39.000Z</time>
      </trkpt>
      <trkpt lat="44.928944" lon="4.883552">
        <ele>158.621111</ele>
        <time>2017-06-05T13:24:42.000Z</time>
      </trkpt>
      <trkpt lat="44.928993" lon="4.883393">
        <ele>158.768876</ele>
        <time>2017-06-05T13:24:45.000Z</time>
      </trkpt>
      <trkpt lat="44.929010" lon="4.883252">
        <ele>158.766719</ele>
        <time>2017-06-05T13:24:48.000Z</time>
      </trkpt>
      <trkpt lat="44.929024" lon="4.883098">
        <ele>158.764378</ele>
        <time>2017-06-05T13:24:53.000Z</time>
      </trkpt>
      <trkpt lat="44.929040" lon="4.882950">
        <ele>158.762121</ele>
        <time>2017-06-05T13:24:58.000Z</time>
      </trkpt>
      <trkpt lat="44.929077" lon="4.882809">
        <ele>158.759853</ele>
        <time>2017-06-05T13:25:04.000Z</time>
      </trkpt>
      <trkpt lat="44.929188" lon="4.882803">
        <ele>158.757487</ele>
        <time>2017-06-05T13:25:09.000Z</time>
      </trkpt>
      <trkpt lat="44.929270" lon="4.882872">
        <ele>158.755454</ele>
        <time>2017-06-05T13:25:12.000Z</time>
      </trkpt>
      <trkpt lat="44.929360" lon="4.882929">
        <ele>158.753354</ele>
        <time>2017-06-05T13:25:15.000Z</time>
      </trkpt>
      <trkpt lat="44.929443" lon="4.882972">
        <ele>158.751471</ele>
        <time>2017-06-05T13:25:20.000Z</time>
      </trkpt>
      <trkpt lat="44.929510" lon="4.882852">
        <ele>158.749166</ele>
        <time>2017-06-05T13:25:27.000Z</time>
      </trkpt>
      <trkpt lat="44.929530" lon="4.882697">
        <ele>158.746791</ele>
        <time>2017-06-05T13:25:32.000Z</time>
      </trkpt>
      <trkpt lat="44.929585" lon="4.882585">
        <ele>158.744735</ele>
        <time>2017-06-05T13:25:39.000Z</time>
      </trkpt>
      <trkpt lat="44.929516" lon="4.882478">
        <ele>158.742553</ele>
        <time>2017-06-05T13:25:46.000Z</time>
      </trkpt>
      <trkpt lat="44.929436" lon="4.882397">
        <ele>158.740456</ele>
        <time>2017-06-05T13:25:51.000Z</time>
      </trkpt>
      <trkpt lat="44.929350" lon="4.882322">
        <ele>158.738304</ele>
        <time>2017-06-05T13:25:56.000Z</time>
      </trkpt>
      <trkpt lat="44.929260" lon="4.882264">
        <ele>158.736197</ele>
        <time>2017-06-05T13:26:01.000Z</time>
      </trkpt>
      <trkpt lat="44.929170" lon="4.882200">
        <ele>158.734051</ele>
        <time>2017-06-05T13:26:06.000Z</time>
      </trkpt>
      <trkpt lat="44.929077" lon="4.882114">
        <ele>158.731683</ele>
        <time>2017-06-05T13:26:11.000Z</time>
      </trkpt>
      <trkpt lat="44.928978" lon="4.882018">
        <ele>158.601911</ele>
        <time>2017-06-05T13:26:15.000Z</time>
      </trkpt>
      <trkpt lat="44.928890" lon="4.881949">
        <ele>158.420843</ele>
        <time>2017-06-05T13:26:18.000Z</time>
      </trkpt>
      <trkpt lat="44.928800" lon="4.881868">
        <ele>158.228860</ele>
        <time>2017-06-05T13:26:21.000Z</time>
      </trkpt>
      <trkpt lat="44.928720" lon="4.881793">
        <ele>158.056125</ele>
        <time>2017-06-05T13:26:24.000Z</time>
      </trkpt>
      <trkpt lat="44.928640" lon="4.881728">
        <ele>157.890094</ele>
        <time>2017-06-05T13:26:27.000Z</time>
      </trkpt>
      <trkpt lat="44.928535" lon="4.881644">
        <ele>157.673007</ele>
        <time>2017-06-05T13:26:31.000Z</time>
      </trkpt>
      <trkpt lat="44.928436" lon="4.881566">
        <ele>157.469074</ele>
        <time>2017-06-05T13:26:35.000Z</time>
      </trkpt>
      <trkpt lat="44.928352" lon="4.881487">
        <ele>157.287525</ele>
        <time>2017-06-05T13:26:38.000Z</time>
      </trkpt>
      <trkpt lat="44.928265" lon="4.881418">
        <ele>157.108028</ele>
        <time>2017-06-05T13:26:41.000Z</time>
      </trkpt>
      <trkpt lat="44.928165" lon="4.881355">
        <ele>156.911046</ele>
        <time>2017-06-05T13:26:44.000Z</time>
      </trkpt>
      <trkpt lat="44.928080" lon="4.881290">
        <ele>156.737160</ele>
        <time>2017-06-05T13:26:47.000Z</time>
      </trkpt>
      <trkpt lat="44.927998" lon="4.881219">
        <ele>156.564132</ele>
        <time>2017-06-05T13:26:50.000Z</time>
      </trkpt>
      <trkpt lat="44.927920" lon="4.881143">
        <ele>156.393662</ele>
        <time>2017-06-05T13:26:53.000Z</time>
      </trkpt>
      <trkpt lat="44.927834" lon="4.881063">
        <ele>156.208410</ele>
        <time>2017-06-05T13:26:56.000Z</time>
      </trkpt>
      <trkpt lat="44.927734" lon="4.880978">
        <ele>155.998448</ele>
        <time>2017-06-05T13:26:59.000Z</time>
      </trkpt>
      <trkpt lat="44.927635" lon="4.880902">
        <ele>155.795743</ele>
        <time>2017-06-05T13:27:02.000Z</time>
      </trkpt>
      <trkpt lat="44.927530" lon="4.880813">
        <ele>155.575446</ele>
        <time>2017-06-05T13:27:05.000Z</time>
      </trkpt>
      <trkpt lat="44.927420" lon="4.880713">
        <ele>155.591350</ele>
        <time>2017-06-05T13:27:08.000Z</time>
      </trkpt>
      <trkpt lat="44.927320" lon="4.880624">
        <ele>155.723793</ele>
        <time>2017-06-05T13:27:11.000Z</time>
      </trkpt>
      <trkpt lat="44.927223" lon="4.880545">
        <ele>155.849258</ele>
        <time>2017-06-05T13:27:14.000Z</time>
      </trkpt>
      <trkpt lat="44.927110" lon="4.880448">
        <ele>155.997428</ele>
        <time>2017-06-05T13:27:17.000Z</time>
      </trkpt>
      <trkpt lat="44.927025" lon="4.880379">
        <ele>156.107282</ele>
        <time>2017-06-05T13:27:19.000Z</time>
      </trkpt>
      <trkpt lat="44.926937" lon="4.880306">
        <ele>156.221637</ele>
        <time>2017-06-05T13:27:21.000Z</time>
      </trkpt>
      <trkpt lat="44.926853" lon="4.880239">
        <ele>156.329733</ele>
        <time>2017-06-05T13:27:23.000Z</time>
      </trkpt>
      <trkpt lat="44.926740" lon="4.880145">
        <ele>156.476681</ele>
        <time>2017-06-05T13:27:26.000Z</time>
      </trkpt>
      <trkpt lat="44.926636" lon="4.880065">
        <ele>156.609377</ele>
        <time>2017-06-05T13:27:29.000Z</time>
      </trkpt>
      <trkpt lat="44.926544" lon="4.879990">
        <ele>156.728404</ele>
        <time>2017-06-05T13:27:32.000Z</time>
      </trkpt>
      <trkpt lat="44.926456" lon="4.879912">
        <ele>156.844819</ele>
        <time>2017-06-05T13:27:35.000Z</time>
      </trkpt>
      <trkpt lat="44.926357" lon="4.879828">
        <ele>156.974229</ele>
        <time>2017-06-05T13:27:39.000Z</time>
      </trkpt>
      <trkpt lat="44.926266" lon="4.879752">
        <ele>157.092689</ele>
        <time>2017-06-05T13:27:43.000Z</time>
      </trkpt>
      <trkpt lat="44.926180" lon="4.879686">
        <ele>157.202360</ele>
        <time>2017-06-05T13:27:46.000Z</time>
      </trkpt>
      <trkpt lat="44.926098" lon="4.879594">
        <ele>157.319705</ele>
        <time>2017-06-05T13:27:49.000Z</time>
      </trkpt>
      <trkpt lat="44.926018" lon="4.879510">
        <ele>157.431404</ele>
        <time>2017-06-05T13:27:51.000Z</time>
      </trkpt>
      <trkpt lat="44.925910" lon="4.879404">
        <ele>157.477654</ele>
        <time>2017-06-05T13:27:54.000Z</time>
      </trkpt>
      <trkpt lat="44.925804" lon="4.879305">
        <ele>157.409631</ele>
        <time>2017-06-05T13:27:57.000Z</time>
      </trkpt>
      <trkpt lat="44.925694" lon="4.879202">
        <ele>157.338985</ele>
        <time>2017-06-05T13:28:00.000Z</time>
      </trkpt>
      <trkpt lat="44.925617" lon="4.879134">
        <ele>157.290374</ele>
        <time>2017-06-05T13:28:02.000Z</time>
      </trkpt>
      <trkpt lat="44.925503" lon="4.879053">
        <ele>157.222065</ele>
        <time>2017-06-05T13:28:05.000Z</time>
      </trkpt>
      <trkpt lat="44.925392" lon="4.878960">
        <ele>157.152981</ele>
        <time>2017-06-05T13:28:08.000Z</time>
      </trkpt>
      <trkpt lat="44.925278" lon="4.878877">
        <ele>157.084328</ele>
        <time>2017-06-05T13:28:11.000Z</time>
      </trkpt>
      <trkpt lat="44.925167" lon="4.878792">
        <ele>157.016740</ele>
        <time>2017-06-05T13:28:14.000Z</time>
      </trkpt>
      <trkpt lat="44.925090" lon="4.878717">
        <ele>156.966672</ele>
        <time>2017-06-05T13:28:16.000Z</time>
      </trkpt>
      <trkpt lat="44.925020" lon="4.878635">
        <ele>156.917992</ele>
        <time>2017-06-05T13:28:18.000Z</time>
      </trkpt>
      <trkpt lat="44.924942" lon="4.878548">
        <ele>156.864790</ele>
        <time>2017-06-05T13:28:20.000Z</time>
      </trkpt>
      <trkpt lat="44.924862" lon="4.878466">
        <ele>156.811878</ele>
        <time>2017-06-05T13:28:22.000Z</time>
      </trkpt>
      <trkpt lat="44.924786" lon="4.878394">
        <ele>156.762892</ele>
        <time>2017-06-05T13:28:24.000Z</time>
      </trkpt>
      <trkpt lat="44.924717" lon="4.878314">
        <ele>156.715107</ele>
        <time>2017-06-05T13:28:26.000Z</time>
      </trkpt>
      <trkpt lat="44.924630" lon="4.878183">
        <ele>156.647035</ele>
        <time>2017-06-05T13:28:29.000Z</time>
      </trkpt>
      <trkpt lat="44.924545" lon="4.878053">
        <ele>156.579970</ele>
        <time>2017-06-05T13:28:32.000Z</time>
      </trkpt>
      <trkpt lat="44.924454" lon="4.877955">
        <ele>156.505518</ele>
        <time>2017-06-05T13:28:35.000Z</time>
      </trkpt>
      <trkpt lat="44.924347" lon="4.877871">
        <ele>156.410008</ele>
        <time>2017-06-05T13:28:38.000Z</time>
      </trkpt>
      <trkpt lat="44.924240" lon="4.877795">
        <ele>156.316566</ele>
        <time>2017-06-05T13:28:41.000Z</time>
      </trkpt>
      <trkpt lat="44.924137" lon="4.877675">
        <ele>156.212395</ele>
        <time>2017-06-05T13:28:44.000Z</time>
      </trkpt>
      <trkpt lat="44.924038" lon="4.877560">
        <ele>156.112388</ele>
        <time>2017-06-05T13:28:47.000Z</time>
      </trkpt>
      <trkpt lat="44.923930" lon="4.877463">
        <ele>156.012533</ele>
        <time>2017-06-05T13:28:50.000Z</time>
      </trkpt>
      <trkpt lat="44.923817" lon="4.877371">
        <ele>155.910773</ele>
        <time>2017-06-05T13:28:53.000Z</time>
      </trkpt>
      <trkpt lat="44.923710" lon="4.877254">
        <ele>155.805198</ele>
        <time>2017-06-05T13:28:56.000Z</time>
      </trkpt>
      <trkpt lat="44.923626" lon="4.877174">
        <ele>155.726154</ele>
        <time>2017-06-05T13:28:58.000Z</time>
      </trkpt>
      <trkpt lat="44.923540" lon="4.877091">
        <ele>155.644888</ele>
        <time>2017-06-05T13:29:00.000Z</time>
      </trkpt>
      <trkpt lat="44.923460" lon="4.877013">
        <ele>155.569045</ele>
        <time>2017-06-05T13:29:02.000Z</time>
      </trkpt>
      <trkpt lat="44.923370" lon="4.876940">
        <ele>155.488073</ele>
        <time>2017-06-05T13:29:04.000Z</time>
      </trkpt>
      <trkpt lat="44.923290" lon="4.876864">
        <ele>155.412852</ele>
        <time>2017-06-05T13:29:06.000Z</time>
      </trkpt>
      <trkpt lat="44.923203" lon="4.876791">
        <ele>155.333900</ele>
        <time>2017-06-05T13:29:08.000Z</time>
      </trkpt>
      <trkpt lat="44.923103" lon="4.876717">
        <ele>155.245821</ele>
        <time>2017-06-05T13:29:10.000Z</time>
      </trkpt>
      <trkpt lat="44.923010" lon="4.876655">
        <ele>155.165586</ele>
        <time>2017-06-05T13:29:12.000Z</time>
      </trkpt>
      <trkpt lat="44.922930" lon="4.876601">
        <ele>155.179796</ele>
        <time>2017-06-05T13:29:14.000Z</time>
      </trkpt>
      <trkpt lat="44.922844" lon="4.876556">
        <ele>155.232870</ele>
        <time>2017-06-05T13:29:16.000Z</time>
      </trkpt>
      <trkpt lat="44.922750" lon="4.876500">
        <ele>155.291910</ele>
        <time>2017-06-05T13:29:18.000Z</time>
      </trkpt>
      <trkpt lat="44.922626" lon="4.876445">
        <ele>155.367125</ele>
        <time>2017-06-05T13:29:21.000Z</time>
      </trkpt>
      <trkpt lat="44.922523" lon="4.876356">
        <ele>155.437002</ele>
        <time>2017-06-05T13:29:24.000Z</time>
      </trkpt>
      <trkpt lat="44.922413" lon="4.876246">
        <ele>155.515001</ele>
        <time>2017-06-05T13:29:27.000Z</time>
      </trkpt>
      <trkpt lat="44.922337" lon="4.876159">
        <ele>155.571616</ele>
        <time>2017-06-05T13:29:29.000Z</time>
      </trkpt>
      <trkpt lat="44.922230" lon="4.876080">
        <ele>155.641488</ele>
        <time>2017-06-05T13:29:32.000Z</time>
      </trkpt>
      <trkpt lat="44.922115" lon="4.875987">
        <ele>155.718177</ele>
        <time>2017-06-05T13:29:35.000Z</time>
      </trkpt>
      <trkpt lat="44.922035" lon="4.875921">
        <ele>155.771793</ele>
        <time>2017-06-05T13:29:37.000Z</time>
      </trkpt>
      <trkpt lat="44.921950" lon="4.875845">
        <ele>155.830012</ele>
        <time>2017-06-05T13:29:39.000Z</time>
      </trkpt>
      <trkpt lat="44.921867" lon="4.875774">
        <ele>155.886168</ele>
        <time>2017-06-05T13:29:41.000Z</time>
      </trkpt>
      <trkpt lat="44.921787" lon="4.875691">
        <ele>155.943614</ele>
        <time>2017-06-05T13:29:43.000Z</time>
      </trkpt>
      <trkpt lat="44.921710" lon="4.875608">
        <ele>155.999670</ele>
        <time>2017-06-05T13:29:45.000Z</time>
      </trkpt>
      <trkpt lat="44.921597" lon="4.875505">
        <ele>156.077501</ele>
        <time>2017-06-05T13:29:48.000Z</time>
      </trkpt>
      <trkpt lat="44.921490" lon="4.875407">
        <ele>156.151303</ele>
        <time>2017-06-05T13:29:51.000Z</time>
      </trkpt>
      <trkpt lat="44.921380" lon="4.875312">
        <ele>156.148694</ele>
        <time>2017-06-05T13:29:54.000Z</time>
      </trkpt>
      <trkpt lat="44.921295" lon="4.875255">
        <ele>156.099970</ele>
        <time>2017-06-05T13:29:56.000Z</time>
      </trkpt>
      <trkpt lat="44.921185" lon="4.875157">
        <ele>156.032623</ele>
        <time>2017-06-05T13:29:59.000Z</time>
      </trkpt>
      <trkpt lat="44.921093" lon="4.875088">
        <ele>155.978682</ele>
        <time>2017-06-05T13:30:02.000Z</time>
      </trkpt>
      <trkpt lat="44.920982" lon="4.875024">
        <ele>155.916599</ele>
        <time>2017-06-05T13:30:05.000Z</time>
      </trkpt>
      <trkpt lat="44.920860" lon="4.874947">
        <ele>155.847403</ele>
        <time>2017-06-05T13:30:08.000Z</time>
      </trkpt>
      <trkpt lat="44.920780" lon="4.874875">
        <ele>155.798280</ele>
        <time>2017-06-05T13:30:10.000Z</time>
      </trkpt>
      <trkpt lat="44.920704" lon="4.874780">
        <ele>155.745725</ele>
        <time>2017-06-05T13:30:12.000Z</time>
      </trkpt>
      <trkpt lat="44.920616" lon="4.874706">
        <ele>155.692690</ele>
        <time>2017-06-05T13:30:14.000Z</time>
      </trkpt>
      <trkpt lat="44.920525" lon="4.874635">
        <ele>155.638856</ele>
        <time>2017-06-05T13:30:16.000Z</time>
      </trkpt>
      <trkpt lat="44.920433" lon="4.874573">
        <ele>155.586070</ele>
        <time>2017-06-05T13:30:18.000Z</time>
      </trkpt>
      <trkpt lat="44.920338" lon="4.874517">
        <ele>155.532764</ele>
        <time>2017-06-05T13:30:20.000Z</time>
      </trkpt>
      <trkpt lat="44.920250" lon="4.874465">
        <ele>155.483368</ele>
        <time>2017-06-05T13:30:22.000Z</time>
      </trkpt>
      <trkpt lat="44.920160" lon="4.874412">
        <ele>155.432874</ele>
        <time>2017-06-05T13:30:24.000Z</time>
      </trkpt>
      <trkpt lat="44.920060" lon="4.874366">
        <ele>155.378415</ele>
        <time>2017-06-05T13:30:26.000Z</time>
      </trkpt>
      <trkpt lat="44.919970" lon="4.874311">
        <ele>155.327635</ele>
        <time>2017-06-05T13:30:28.000Z</time>
      </trkpt>
      <trkpt lat="44.919880" lon="4.874256">
        <ele>155.276855</ele>
        <time>2017-06-05T13:30:30.000Z</time>
      </trkpt>
      <trkpt lat="44.919796" lon="4.874203">
        <ele>155.222269</ele>
        <time>2017-06-05T13:30:32.000Z</time>
      </trkpt>
      <trkpt lat="44.919712" lon="4.874140">
        <ele>155.159100</ele>
        <time>2017-06-05T13:30:34.000Z</time>
      </trkpt>
      <trkpt lat="44.919598" lon="4.874057">
        <ele>155.073916</ele>
        <time>2017-06-05T13:30:37.000Z</time>
      </trkpt>
      <trkpt lat="44.919483" lon="4.873995">
        <ele>154.992161</ele>
        <time>2017-06-05T13:30:40.000Z</time>
      </trkpt>
      <trkpt lat="44.919370" lon="4.873947">
        <ele>154.913789</ele>
        <time>2017-06-05T13:30:43.000Z</time>
      </trkpt>
      <trkpt lat="44.919243" lon="4.873903">
        <ele>154.826939</ele>
        <time>2017-06-05T13:30:46.000Z</time>
      </trkpt>
      <trkpt lat="44.919140" lon="4.873859">
        <ele>154.755469</ele>
        <time>2017-06-05T13:30:48.000Z</time>
      </trkpt>
      <trkpt lat="44.919052" lon="4.873822">
        <ele>154.694488</ele>
        <time>2017-06-05T13:30:50.000Z</time>
      </trkpt>
      <trkpt lat="44.918953" lon="4.873788">
        <ele>154.626819</ele>
        <time>2017-06-05T13:30:53.000Z</time>
      </trkpt>
      <trkpt lat="44.918850" lon="4.873767">
        <ele>154.557702</ele>
        <time>2017-06-05T13:30:56.000Z</time>
      </trkpt>
      <trkpt lat="44.918762" lon="4.873738">
        <ele>154.497685</ele>
        <time>2017-06-05T13:30:58.000Z</time>
      </trkpt>
      <trkpt lat="44.918648" lon="4.873683">
        <ele>154.417674</ele>
        <time>2017-06-05T13:31:01.000Z</time>
      </trkpt>
      <trkpt lat="44.918530" lon="4.873611">
        <ele>154.332301</ele>
        <time>2017-06-05T13:31:04.000Z</time>
      </trkpt>
      <trkpt lat="44.918423" lon="4.873561">
        <ele>154.257446</ele>
        <time>2017-06-05T13:31:07.000Z</time>
      </trkpt>
      <trkpt lat="44.918304" lon="4.873509">
        <ele>154.174714</ele>
        <time>2017-06-05T13:31:10.000Z</time>
      </trkpt>
      <trkpt lat="44.918205" lon="4.873477">
        <ele>154.107261</ele>
        <time>2017-06-05T13:31:13.000Z</time>
      </trkpt>
      <trkpt lat="44.918076" lon="4.873432">
        <ele>154.076180</ele>
        <time>2017-06-05T13:31:18.000Z</time>
      </trkpt>
      <trkpt lat="44.917942" lon="4.873390">
        <ele>154.114699</ele>
        <time>2017-06-05T13:31:20.000Z</time>
      </trkpt>
      <trkpt lat="44.917840" lon="4.873363">
        <ele>154.143820</ele>
        <time>2017-06-05T13:31:22.000Z</time>
      </trkpt>
      <trkpt lat="44.917730" lon="4.873329">
        <ele>154.175420</ele>
        <time>2017-06-05T13:31:24.000Z</time>
      </trkpt>
      <trkpt lat="44.917630" lon="4.873310">
        <ele>154.203735</ele>
        <time>2017-06-05T13:31:26.000Z</time>
      </trkpt>
      <trkpt lat="44.917530" lon="4.873324">
        <ele>154.231934</ele>
        <time>2017-06-05T13:31:28.000Z</time>
      </trkpt>
      <trkpt lat="44.917430" lon="4.873323">
        <ele>154.259997</ele>
        <time>2017-06-05T13:31:30.000Z</time>
      </trkpt>
      <trkpt lat="44.917336" lon="4.873324">
        <ele>154.286376</ele>
        <time>2017-06-05T13:31:32.000Z</time>
      </trkpt>
      <trkpt lat="44.917236" lon="4.873322">
        <ele>154.314441</ele>
        <time>2017-06-05T13:31:34.000Z</time>
      </trkpt>
      <trkpt lat="44.917140" lon="4.873344">
        <ele>154.341733</ele>
        <time>2017-06-05T13:31:36.000Z</time>
      </trkpt>
      <trkpt lat="44.917046" lon="4.873366">
        <ele>154.368471</ele>
        <time>2017-06-05T13:31:38.000Z</time>
      </trkpt>
      <trkpt lat="44.916950" lon="4.873470">
        <ele>154.402425</ele>
        <time>2017-06-05T13:31:41.000Z</time>
      </trkpt>
      <trkpt lat="44.916874" lon="4.873553">
        <ele>154.429386</ele>
        <time>2017-06-05T13:31:44.000Z</time>
      </trkpt>
      <trkpt lat="44.916794" lon="4.873625">
        <ele>154.456007</ele>
        <time>2017-06-05T13:31:48.000Z</time>
      </trkpt>
      <trkpt lat="44.916700" lon="4.873682">
        <ele>154.484715</ele>
        <time>2017-06-05T13:31:53.000Z</time>
      </trkpt>
      <trkpt lat="44.916620" lon="4.873752">
        <ele>154.511125</ele>
        <time>2017-06-05T13:31:57.000Z</time>
      </trkpt>
      <trkpt lat="44.916527" lon="4.873814">
        <ele>154.539985</ele>
        <time>2017-06-05T13:32:01.000Z</time>
      </trkpt>
      <trkpt lat="44.916420" lon="4.873867">
        <ele>154.623504</ele>
        <time>2017-06-05T13:32:04.000Z</time>
      </trkpt>
      <trkpt lat="44.916350" lon="4.873976">
        <ele>154.844892</ele>
        <time>2017-06-05T13:32:07.000Z</time>
      </trkpt>
      <trkpt lat="44.916298" lon="4.874094">
        <ele>155.053996</ele>
        <time>2017-06-05T13:32:10.000Z</time>
      </trkpt>
      <trkpt lat="44.916245" lon="4.874242">
        <ele>155.303519</ele>
        <time>2017-06-05T13:32:14.000Z</time>
      </trkpt>
      <trkpt lat="44.916190" lon="4.874364">
        <ele>155.521112</ele>
        <time>2017-06-05T13:32:17.000Z</time>
      </trkpt>
      <trkpt lat="44.916138" lon="4.874487">
        <ele>155.736640</ele>
        <time>2017-06-05T13:32:20.000Z</time>
      </trkpt>
      <trkpt lat="44.916080" lon="4.874628">
        <ele>155.981973</ele>
        <time>2017-06-05T13:32:23.000Z</time>
      </trkpt>
      <trkpt lat="44.916027" lon="4.874757">
        <ele>156.206359</ele>
        <time>2017-06-05T13:32:26.000Z</time>
      </trkpt>
      <trkpt lat="44.915977" lon="4.874888">
        <ele>156.430259</ele>
        <time>2017-06-05T13:32:29.000Z</time>
      </trkpt>
      <trkpt lat="44.915916" lon="4.875019">
        <ele>156.666147</ele>
        <time>2017-06-05T13:32:32.000Z</time>
      </trkpt>
      <trkpt lat="44.915882" lon="4.875151">
        <ele>156.877475</ele>
        <time>2017-06-05T13:32:35.000Z</time>
      </trkpt>
      <trkpt lat="44.915830" lon="4.875280">
        <ele>157.100803</ele>
        <time>2017-06-05T13:32:39.000Z</time>
      </trkpt>
      <trkpt lat="44.915775" lon="4.875428">
        <ele>157.352275</ele>
        <time>2017-06-05T13:32:43.000Z</time>
      </trkpt>
      <trkpt lat="44.915737" lon="4.875546">
        <ele>157.547306</ele>
        <time>2017-06-05T13:32:46.000Z</time>
      </trkpt>
      <trkpt lat="44.915684" lon="4.875673">
        <ele>157.769095</ele>
        <time>2017-06-05T13:32:49.000Z</time>
      </trkpt>
      <trkpt lat="44.915620" lon="4.875774">
        <ele>157.973010</ele>
        <time>2017-06-05T13:32:52.000Z</time>
      </trkpt>
      <trkpt lat="44.915512" lon="4.875750">
        <ele>158.205293</ele>
        <time>2017-06-05T13:32:56.000Z</time>
      </trkpt>
      <trkpt lat="44.915413" lon="4.875682">
        <ele>158.399564</ele>
        <time>2017-06-05T13:33:00.000Z</time>
      </trkpt>
      <trkpt lat="44.915310" lon="4.875636">
        <ele>158.460063</ele>
        <time>2017-06-05T13:33:04.000Z</time>
      </trkpt>
      <trkpt lat="44.915220" lon="4.875567">
        <ele>158.517415</ele>
        <time>2017-06-05T13:33:08.000Z</time>
      </trkpt>
      <trkpt lat="44.915123" lon="4.875496">
        <ele>158.578602</ele>
        <time>2017-06-05T13:33:12.000Z</time>
      </trkpt>
      <trkpt lat="44.915024" lon="4.875433">
        <ele>158.639415</ele>
        <time>2017-06-05T13:33:16.000Z</time>
      </trkpt>
      <trkpt lat="44.914940" lon="4.875378">
        <ele>158.691268</ele>
        <time>2017-06-05T13:33:19.000Z</time>
      </trkpt>
      <trkpt lat="44.914845" lon="4.875317">
        <ele>158.749713</ele>
        <time>2017-06-05T13:33:23.000Z</time>
      </trkpt>
      <trkpt lat="44.914764" lon="4.875243">
        <ele>158.803741</ele>
        <time>2017-06-05T13:33:26.000Z</time>
      </trkpt>
      <trkpt lat="44.914690" lon="4.875167">
        <ele>158.854985</ele>
        <time>2017-06-05T13:33:28.000Z</time>
      </trkpt>
      <trkpt lat="44.914574" lon="4.875099">
        <ele>158.925324</ele>
        <time>2017-06-05T13:33:31.000Z</time>
      </trkpt>
      <trkpt lat="44.914463" lon="4.875027">
        <ele>158.993732</ele>
        <time>2017-06-05T13:33:34.000Z</time>
      </trkpt>
      <trkpt lat="44.914368" lon="4.874935">
        <ele>159.058244</ele>
        <time>2017-06-05T13:33:37.000Z</time>
      </trkpt>
      <trkpt lat="44.914272" lon="4.874860">
        <ele>159.119686</ele>
        <time>2017-06-05T13:33:40.000Z</time>
      </trkpt>
      <trkpt lat="44.914160" lon="4.874787">
        <ele>159.188769</ele>
        <time>2017-06-05T13:33:43.000Z</time>
      </trkpt>
      <trkpt lat="44.914060" lon="4.874699">
        <ele>159.254757</ele>
        <time>2017-06-05T13:33:46.000Z</time>
      </trkpt>
      <trkpt lat="44.913956" lon="4.874621">
        <ele>159.320705</ele>
        <time>2017-06-05T13:33:49.000Z</time>
      </trkpt>
      <trkpt lat="44.913868" lon="4.874551">
        <ele>159.377269</ele>
        <time>2017-06-05T13:33:52.000Z</time>
      </trkpt>
      <trkpt lat="44.913776" lon="4.874483">
        <ele>159.384102</ele>
        <time>2017-06-05T13:33:55.000Z</time>
      </trkpt>
      <trkpt lat="44.913670" lon="4.874409">
        <ele>159.370823</ele>
        <time>2017-06-05T13:33:58.000Z</time>
      </trkpt>
      <trkpt lat="44.913578" lon="4.874343">
        <ele>159.359235</ele>
        <time>2017-06-05T13:34:01.000Z</time>
      </trkpt>
      <trkpt lat="44.913486" lon="4.874279">
        <ele>159.347718</ele>
        <time>2017-06-05T13:34:04.000Z</time>
      </trkpt>
      <trkpt lat="44.913383" lon="4.874216">
        <ele>159.335113</ele>
        <time>2017-06-05T13:34:07.000Z</time>
      </trkpt>
      <trkpt lat="44.913296" lon="4.874154">
        <ele>159.324170</ele>
        <time>2017-06-05T13:34:09.000Z</time>
      </trkpt>
      <trkpt lat="44.913208" lon="4.874080">
        <ele>159.312668</ele>
        <time>2017-06-05T13:34:12.000Z</time>
      </trkpt>
      <trkpt lat="44.913110" lon="4.874020">
        <ele>159.300673</ele>
        <time>2017-06-05T13:34:17.000Z</time>
      </trkpt>
      <trkpt lat="44.913010" lon="4.873973">
        <ele>159.288838</ele>
        <time>2017-06-05T13:34:21.000Z</time>
      </trkpt>
      <trkpt lat="44.912903" lon="4.873884">
        <ele>159.274893</ele>
        <time>2017-06-05T13:34:24.000Z</time>
      </trkpt>
      <trkpt lat="44.912790" lon="4.873781">
        <ele>159.259789</ele>
        <time>2017-06-05T13:34:27.000Z</time>
      </trkpt>
      <trkpt lat="44.912704" lon="4.873730">
        <ele>159.249314</ele>
        <time>2017-06-05T13:34:29.000Z</time>
      </trkpt>
      <trkpt lat="44.912590" lon="4.873658">
        <ele>159.235290</ele>
        <time>2017-06-05T13:34:32.000Z</time>
      </trkpt>
      <trkpt lat="44.912490" lon="4.873591">
        <ele>159.222861</ele>
        <time>2017-06-05T13:34:35.000Z</time>
      </trkpt>
      <trkpt lat="44.912410" lon="4.873523">
        <ele>159.212375</ele>
        <time>2017-06-05T13:34:38.000Z</time>
      </trkpt>
      <trkpt lat="44.912320" lon="4.873447">
        <ele>159.200599</ele>
        <time>2017-06-05T13:34:41.000Z</time>
      </trkpt>
      <trkpt lat="44.912235" lon="4.873384">
        <ele>159.186813</ele>
        <time>2017-06-05T13:34:43.000Z</time>
      </trkpt>
      <trkpt lat="44.912150" lon="4.873331">
        <ele>159.140503</ele>
        <time>2017-06-05T13:34:45.000Z</time>
      </trkpt>
      <trkpt lat="44.912045" lon="4.873255">
        <ele>159.081697</ele>
        <time>2017-06-05T13:34:48.000Z</time>
      </trkpt>
      <trkpt lat="44.911940" lon="4.873189">
        <ele>159.024414</ele>
        <time>2017-06-05T13:34:51.000Z</time>
      </trkpt>
      <trkpt lat="44.911823" lon="4.873136">
        <ele>158.963175</ele>
        <time>2017-06-05T13:34:54.000Z</time>
      </trkpt>
      <trkpt lat="44.911720" lon="4.873049">
        <ele>158.903356</ele>
        <time>2017-06-05T13:34:57.000Z</time>
      </trkpt>
      <trkpt lat="44.911617" lon="4.872961">
        <ele>158.843356</ele>
        <time>2017-06-05T13:35:00.000Z</time>
      </trkpt>
      <trkpt lat="44.911503" lon="4.872876">
        <ele>158.779104</ele>
        <time>2017-06-05T13:35:03.000Z</time>
      </trkpt>
      <trkpt lat="44.911423" lon="4.872815">
        <ele>158.733790</ele>
        <time>2017-06-05T13:35:05.000Z</time>
      </trkpt>
      <trkpt lat="44.911335" lon="4.872754">
        <ele>158.684931</ele>
        <time>2017-06-05T13:35:07.000Z</time>
      </trkpt>
      <trkpt lat="44.911243" lon="4.872691">
        <ele>158.633971</ele>
        <time>2017-06-05T13:35:09.000Z</time>
      </trkpt>
      <trkpt lat="44.911148" lon="4.872629">
        <ele>158.581811</ele>
        <time>2017-06-05T13:35:11.000Z</time>
      </trkpt>
      <trkpt lat="44.911060" lon="4.872564">
        <ele>158.532313</ele>
        <time>2017-06-05T13:35:13.000Z</time>
      </trkpt>
      <trkpt lat="44.910973" lon="4.872505">
        <ele>158.484211</ele>
        <time>2017-06-05T13:35:15.000Z</time>
      </trkpt>
      <trkpt lat="44.910892" lon="4.872441">
        <ele>158.437950</ele>
        <time>2017-06-05T13:35:17.000Z</time>
      </trkpt>
      <trkpt lat="44.910774" lon="4.872353">
        <ele>158.371441</ele>
        <time>2017-06-05T13:35:20.000Z</time>
      </trkpt>
      <trkpt lat="44.910660" lon="4.872271">
        <ele>158.307676</ele>
        <time>2017-06-05T13:35:23.000Z</time>
      </trkpt>
      <trkpt lat="44.910540" lon="4.872184">
        <ele>158.306872</ele>
        <time>2017-06-05T13:35:26.000Z</time>
      </trkpt>
      <trkpt lat="44.910454" lon="4.872122">
        <ele>158.318157</ele>
        <time>2017-06-05T13:35:28.000Z</time>
      </trkpt>
      <trkpt lat="44.910362" lon="4.872062">
        <ele>158.330001</ele>
        <time>2017-06-05T13:35:30.000Z</time>
      </trkpt>
      <trkpt lat="44.910270" lon="4.872000">
        <ele>158.341915</ele>
        <time>2017-06-05T13:35:32.000Z</time>
      </trkpt>
      <trkpt lat="44.910180" lon="4.871934">
        <ele>158.353767</ele>
        <time>2017-06-05T13:35:34.000Z</time>
      </trkpt>
      <trkpt lat="44.910090" lon="4.871872">
        <ele>158.365471</ele>
        <time>2017-06-05T13:35:36.000Z</time>
      </trkpt>
      <trkpt lat="44.910000" lon="4.871810">
        <ele>158.377174</ele>
        <time>2017-06-05T13:35:38.000Z</time>
      </trkpt>
      <trkpt lat="44.909910" lon="4.871748">
        <ele>158.388878</ele>
        <time>2017-06-05T13:35:40.000Z</time>
      </trkpt>
      <trkpt lat="44.909824" lon="4.871685">
        <ele>158.400201</ele>
        <time>2017-06-05T13:35:42.000Z</time>
      </trkpt>
      <trkpt lat="44.909740" lon="4.871621">
        <ele>158.411356</ele>
        <time>2017-06-05T13:35:44.000Z</time>
      </trkpt>
      <trkpt lat="44.909657" lon="4.871563">
        <ele>158.422179</ele>
        <time>2017-06-05T13:35:46.000Z</time>
      </trkpt>
      <trkpt lat="44.909576" lon="4.871497">
        <ele>158.433109</ele>
        <time>2017-06-05T13:35:48.000Z</time>
      </trkpt>
      <trkpt lat="44.909496" lon="4.871429">
        <ele>158.444022</ele>
        <time>2017-06-05T13:35:50.000Z</time>
      </trkpt>
      <trkpt lat="44.909386" lon="4.871357">
        <ele>158.458192</ele>
        <time>2017-06-05T13:35:53.000Z</time>
      </trkpt>
      <trkpt lat="44.909286" lon="4.871285">
        <ele>158.471311</ele>
        <time>2017-06-05T13:35:56.000Z</time>
      </trkpt>
      <trkpt lat="44.909200" lon="4.871209">
        <ele>158.483168</ele>
        <time>2017-06-05T13:35:59.000Z</time>
      </trkpt>
      <trkpt lat="44.909092" lon="4.871137">
        <ele>158.497127</ele>
        <time>2017-06-05T13:36:02.000Z</time>
      </trkpt>
      <trkpt lat="44.908980" lon="4.871042">
        <ele>158.498195</ele>
        <time>2017-06-05T13:36:05.000Z</time>
      </trkpt>
      <trkpt lat="44.908910" lon="4.870967">
        <ele>158.490078</ele>
        <time>2017-06-05T13:36:07.000Z</time>
      </trkpt>
      <trkpt lat="44.908830" lon="4.870897">
        <ele>158.481384</ele>
        <time>2017-06-05T13:36:09.000Z</time>
      </trkpt>
      <trkpt lat="44.908722" lon="4.870796">
        <ele>158.469419</ele>
        <time>2017-06-05T13:36:12.000Z</time>
      </trkpt>
      <trkpt lat="44.908610" lon="4.870703">
        <ele>158.457417</ele>
        <time>2017-06-05T13:36:15.000Z</time>
      </trkpt>
      <trkpt lat="44.908530" lon="4.870637">
        <ele>158.448858</ele>
        <time>2017-06-05T13:36:17.000Z</time>
      </trkpt>
      <trkpt lat="44.908447" lon="4.870571">
        <ele>158.440059</ele>
        <time>2017-06-05T13:36:19.000Z</time>
      </trkpt>
      <trkpt lat="44.908360" lon="4.870494">
        <ele>158.430574</ele>
        <time>2017-06-05T13:36:21.000Z</time>
      </trkpt>
      <trkpt lat="44.908280" lon="4.870417">
        <ele>158.421631</ele>
        <time>2017-06-05T13:36:23.000Z</time>
      </trkpt>
      <trkpt lat="44.908195" lon="4.870338">
        <ele>158.412231</ele>
        <time>2017-06-05T13:36:25.000Z</time>
      </trkpt>
      <trkpt lat="44.908120" lon="4.870262">
        <ele>158.403704</ele>
        <time>2017-06-05T13:36:27.000Z</time>
      </trkpt>
      <trkpt lat="44.908012" lon="4.870174">
        <ele>158.392186</ele>
        <time>2017-06-05T13:36:30.000Z</time>
      </trkpt>
      <trkpt lat="44.907920" lon="4.870081">
        <ele>158.381734</ele>
        <time>2017-06-05T13:36:33.000Z</time>
      </trkpt>
      <trkpt lat="44.907818" lon="4.869975">
        <ele>158.370036</ele>
        <time>2017-06-05T13:36:36.000Z</time>
      </trkpt>
      <trkpt lat="44.907750" lon="4.869897">
        <ele>158.361943</ele>
        <time>2017-06-05T13:36:38.000Z</time>
      </trkpt>
      <trkpt lat="44.907646" lon="4.869787">
        <ele>158.349940</ele>
        <time>2017-06-05T13:36:41.000Z</time>
      </trkpt>
      <trkpt lat="44.907550" lon="4.869697">
        <ele>158.339295</ele>
        <time>2017-06-05T13:36:44.000Z</time>
      </trkpt>
      <trkpt lat="44.907450" lon="4.869633">
        <ele>158.433356</ele>
        <time>2017-06-05T13:36:47.000Z</time>
      </trkpt>
      <trkpt lat="44.907333" lon="4.869566">
        <ele>158.554248</ele>
        <time>2017-06-05T13:36:50.000Z</time>
      </trkpt>
      <trkpt lat="44.907250" lon="4.869516">
        <ele>158.640653</ele>
        <time>2017-06-05T13:36:52.000Z</time>
      </trkpt>
      <trkpt lat="44.907140" lon="4.869572">
        <ele>158.752616</ele>
        <time>2017-06-05T13:36:55.000Z</time>
      </trkpt>
      <trkpt lat="44.907074" lon="4.869663">
        <ele>158.840946</ele>
        <time>2017-06-05T13:36:57.000Z</time>
      </trkpt>
      <trkpt lat="44.906990" lon="4.869782">
        <ele>158.954883</ele>
        <time>2017-06-05T13:37:00.000Z</time>
      </trkpt>
      <trkpt lat="44.906880" lon="4.869890">
        <ele>159.083172</ele>
        <time>2017-06-05T13:37:03.000Z</time>
      </trkpt>
      <trkpt lat="44.906810" lon="4.869988">
        <ele>159.177561</ele>
        <time>2017-06-05T13:37:05.000Z</time>
      </trkpt>
      <trkpt lat="44.906776" lon="4.870111">
        <ele>159.267103</ele>
        <time>2017-06-05T13:37:07.000Z</time>
      </trkpt>
      <trkpt lat="44.906730" lon="4.870272">
        <ele>159.384836</ele>
        <time>2017-06-05T13:37:10.000Z</time>
      </trkpt>
      <trkpt lat="44.906690" lon="4.870444">
        <ele>159.507608</ele>
        <time>2017-06-05T13:37:13.000Z</time>
      </trkpt>
      <trkpt lat="44.906643" lon="4.870572">
        <ele>159.605385</ele>
        <time>2017-06-05T13:37:15.000Z</time>
      </trkpt>
      <trkpt lat="44.906593" lon="4.870680">
        <ele>159.692886</ele>
        <time>2017-06-05T13:37:17.000Z</time>
      </trkpt>
      <trkpt lat="44.906517" lon="4.870829">
        <ele>159.817409</ele>
        <time>2017-06-05T13:37:20.000Z</time>
      </trkpt>
      <trkpt lat="44.906464" lon="4.870965">
        <ele>159.922679</ele>
        <time>2017-06-05T13:37:23.000Z</time>
      </trkpt>
      <trkpt lat="44.906395" lon="4.871069">
        <ele>160.019319</ele>
        <time>2017-06-05T13:37:27.000Z</time>
      </trkpt>
      <trkpt lat="44.906322" lon="4.871151">
        <ele>160.032711</ele>
        <time>2017-06-05T13:37:32.000Z</time>
      </trkpt>
      <trkpt lat="44.906270" lon="4.871289">
        <ele>159.971381</ele>
        <time>2017-06-05T13:37:36.000Z</time>
      </trkpt>
      <trkpt lat="44.906235" lon="4.871427">
        <ele>159.913869</ele>
        <time>2017-06-05T13:37:39.000Z</time>
      </trkpt>
      <trkpt lat="44.906208" lon="4.871584">
        <ele>159.850480</ele>
        <time>2017-06-05T13:37:42.000Z</time>
      </trkpt>
      <trkpt lat="44.906185" lon="4.871766">
        <ele>159.777943</ele>
        <time>2017-06-05T13:37:45.000Z</time>
      </trkpt>
      <trkpt lat="44.906160" lon="4.871943">
        <ele>159.707129</ele>
        <time>2017-06-05T13:37:48.000Z</time>
      </trkpt>
      <trkpt lat="44.906147" lon="4.872070">
        <ele>159.656783</ele>
        <time>2017-06-05T13:37:50.000Z</time>
      </trkpt>
      <trkpt lat="44.906136" lon="4.872255">
        <ele>159.583942</ele>
        <time>2017-06-05T13:37:53.000Z</time>
      </trkpt>
      <trkpt lat="44.906130" lon="4.872415">
        <ele>159.521077</ele>
        <time>2017-06-05T13:37:56.000Z</time>
      </trkpt>
      <trkpt lat="44.906063" lon="4.872532">
        <ele>159.462044</ele>
        <time>2017-06-05T13:38:00.000Z</time>
      </trkpt>
      <trkpt lat="44.905960" lon="4.872473">
        <ele>159.400468</ele>
        <time>2017-06-05T13:38:03.000Z</time>
      </trkpt>
      <trkpt lat="44.905853" lon="4.872381">
        <ele>159.331068</ele>
        <time>2017-06-05T13:38:06.000Z</time>
      </trkpt>
      <trkpt lat="44.905777" lon="4.872309">
        <ele>159.280367</ele>
        <time>2017-06-05T13:38:08.000Z</time>
      </trkpt>
      <trkpt lat="44.905697" lon="4.872243">
        <ele>159.229039</ele>
        <time>2017-06-05T13:38:10.000Z</time>
      </trkpt>
      <trkpt lat="44.905617" lon="4.872177">
        <ele>159.177710</ele>
        <time>2017-06-05T13:38:12.000Z</time>
      </trkpt>
      <trkpt lat="44.905540" lon="4.872108">
        <ele>159.127189</ele>
        <time>2017-06-05T13:38:14.000Z</time>
      </trkpt>
      <trkpt lat="44.905457" lon="4.872036">
        <ele>159.073225</ele>
        <time>2017-06-05T13:38:16.000Z</time>
      </trkpt>
      <trkpt lat="44.905384" lon="4.871960">
        <ele>159.210858</ele>
        <time>2017-06-05T13:38:18.000Z</time>
      </trkpt>
      <trkpt lat="44.905308" lon="4.871892">
        <ele>159.388462</ele>
        <time>2017-06-05T13:38:20.000Z</time>
      </trkpt>
      <trkpt lat="44.905210" lon="4.871810">
        <ele>159.613323</ele>
        <time>2017-06-05T13:38:23.000Z</time>
      </trkpt>
      <trkpt lat="44.905230" lon="4.871657">
        <ele>159.830840</ele>
        <time>2017-06-05T13:38:27.000Z</time>
      </trkpt>
      <trkpt lat="44.905308" lon="4.871544">
        <ele>160.051437</ele>
        <time>2017-06-05T13:38:30.000Z</time>
      </trkpt>
      <trkpt lat="44.905390" lon="4.871425">
        <ele>160.283552</ele>
        <time>2017-06-05T13:38:33.000Z</time>
      </trkpt>
      <trkpt lat="44.905470" lon="4.871297">
        <ele>160.522215</ele>
        <time>2017-06-05T13:38:36.000Z</time>
      </trkpt>
      <trkpt lat="44.905552" lon="4.871172">
        <ele>160.760414</ele>
        <time>2017-06-05T13:38:39.000Z</time>
      </trkpt>
      <trkpt lat="44.905620" lon="4.871047">
        <ele>160.980770</ele>
        <time>2017-06-05T13:38:42.000Z</time>
      </trkpt>
      <trkpt lat="44.905685" lon="4.870942">
        <ele>161.175734</ele>
        <time>2017-06-05T13:38:45.000Z</time>
      </trkpt>
      <trkpt lat="44.905758" lon="4.870834">
        <ele>161.384447</ele>
        <time>2017-06-05T13:38:48.000Z</time>
      </trkpt>
      <trkpt lat="44.905827" lon="4.870730">
        <ele>161.583672</ele>
        <time>2017-06-05T13:38:51.000Z</time>
      </trkpt>
      <trkpt lat="44.905890" lon="4.870617">
        <ele>161.784724</ele>
        <time>2017-06-05T13:38:54.000Z</time>
      </trkpt>
      <trkpt lat="44.905956" lon="4.870511">
        <ele>161.982040</ele>
        <time>2017-06-05T13:38:57.000Z</time>
      </trkpt>
      <trkpt lat="44.906020" lon="4.870408">
        <ele>162.173599</ele>
        <time>2017-06-05T13:39:00.000Z</time>
      </trkpt>
      <trkpt lat="44.906094" lon="4.870312">
        <ele>162.371965</ele>
        <time>2017-06-05T13:39:03.000Z</time>
      </trkpt>
      <trkpt lat="44.906162" lon="4.870219">
        <ele>162.558837</ele>
        <time>2017-06-05T13:39:06.000Z</time>
      </trkpt>
      <trkpt lat="44.906230" lon="4.870113">
        <ele>162.855523</ele>
        <time>2017-06-05T13:39:09.000Z</time>
      </trkpt>
      <trkpt lat="44.906292" lon="4.870000">
        <ele>163.189349</ele>
        <time>2017-06-05T13:39:12.000Z</time>
      </trkpt>
      <trkpt lat="44.906360" lon="4.869897">
        <ele>163.518196</ele>
        <time>2017-06-05T13:39:15.000Z</time>
      </trkpt>
      <trkpt lat="44.906425" lon="4.869799">
        <ele>163.831756</ele>
        <time>2017-06-05T13:39:18.000Z</time>
      </trkpt>
      <trkpt lat="44.906490" lon="4.869694">
        <ele>164.157440</ele>
        <time>2017-06-05T13:39:21.000Z</time>
      </trkpt>
      <trkpt lat="44.906544" lon="4.869586">
        <ele>164.466184</ele>
        <time>2017-06-05T13:39:24.000Z</time>
      </trkpt>
      <trkpt lat="44.906600" lon="4.869480">
        <ele>164.775021</ele>
        <time>2017-06-05T13:39:27.000Z</time>
      </trkpt>
      <trkpt lat="44.906654" lon="4.869380">
        <ele>165.068699</ele>
        <time>2017-06-05T13:39:30.000Z</time>
      </trkpt>
      <trkpt lat="44.906710" lon="4.869273">
        <ele>165.379411</ele>
        <time>2017-06-05T13:39:33.000Z</time>
      </trkpt>
      <trkpt lat="44.906770" lon="4.869175">
        <ele>165.681940</ele>
        <time>2017-06-05T13:39:36.000Z</time>
      </trkpt>
      <trkpt lat="44.906850" lon="4.869058">
        <ele>166.061740</ele>
        <time>2017-06-05T13:39:40.000Z</time>
      </trkpt>
      <trkpt lat="44.906925" lon="4.868937">
        <ele>166.437257</ele>
        <time>2017-06-05T13:39:44.000Z</time>
      </trkpt>
      <trkpt lat="44.907000" lon="4.868814">
        <ele>166.816302</ele>
        <time>2017-06-05T13:39:48.000Z</time>
      </trkpt>
      <trkpt lat="44.907078" lon="4.868691">
        <ele>167.201873</ele>
        <time>2017-06-05T13:39:52.000Z</time>
      </trkpt>
      <trkpt lat="44.907146" lon="4.868575">
        <ele>167.553535</ele>
        <time>2017-06-05T13:39:56.000Z</time>
      </trkpt>
      <trkpt lat="44.907220" lon="4.868458">
        <ele>167.919868</ele>
        <time>2017-06-05T13:40:00.000Z</time>
      </trkpt>
      <trkpt lat="44.907300" lon="4.868340">
        <ele>168.301350</ele>
        <time>2017-06-05T13:40:04.000Z</time>
      </trkpt>
      <trkpt lat="44.907375" lon="4.868218">
        <ele>168.665711</ele>
        <time>2017-06-05T13:40:08.000Z</time>
      </trkpt>
      <trkpt lat="44.907436" lon="4.868119">
        <ele>168.942466</ele>
        <time>2017-06-05T13:40:11.000Z</time>
      </trkpt>
      <trkpt lat="44.907513" lon="4.867995">
        <ele>169.290276</ele>
        <time>2017-06-05T13:40:15.000Z</time>
      </trkpt>
      <trkpt lat="44.907574" lon="4.867894">
        <ele>169.570227</ele>
        <time>2017-06-05T13:40:18.000Z</time>
      </trkpt>
      <trkpt lat="44.907635" lon="4.867796">
        <ele>169.845394</ele>
        <time>2017-06-05T13:40:21.000Z</time>
      </trkpt>
      <trkpt lat="44.907696" lon="4.867696">
        <ele>170.123742</ele>
        <time>2017-06-05T13:40:24.000Z</time>
      </trkpt>
      <trkpt lat="44.907776" lon="4.867562">
        <ele>170.493369</ele>
        <time>2017-06-05T13:40:28.000Z</time>
      </trkpt>
      <trkpt lat="44.907833" lon="4.867460">
        <ele>170.767394</ele>
        <time>2017-06-05T13:40:31.000Z</time>
      </trkpt>
      <trkpt lat="44.907898" lon="4.867357">
        <ele>171.058351</ele>
        <time>2017-06-05T13:40:34.000Z</time>
      </trkpt>
      <trkpt lat="44.907970" lon="4.867252">
        <ele>171.366588</ele>
        <time>2017-06-05T13:40:37.000Z</time>
      </trkpt>
      <trkpt lat="44.908035" lon="4.867145">
        <ele>171.663897</ele>
        <time>2017-06-05T13:40:40.000Z</time>
      </trkpt>
      <trkpt lat="44.908100" lon="4.867039">
        <ele>171.959607</ele>
        <time>2017-06-05T13:40:43.000Z</time>
      </trkpt>
      <trkpt lat="44.908176" lon="4.866933">
        <ele>172.277724</ele>
        <time>2017-06-05T13:40:46.000Z</time>
      </trkpt>
      <trkpt lat="44.908250" lon="4.866814">
        <ele>172.611712</ele>
        <time>2017-06-05T13:40:49.000Z</time>
      </trkpt>
      <trkpt lat="44.908320" lon="4.866692">
        <ele>172.942857</ele>
        <time>2017-06-05T13:40:52.000Z</time>
      </trkpt>
      <trkpt lat="44.908394" lon="4.866564">
        <ele>173.291333</ele>
        <time>2017-06-05T13:40:55.000Z</time>
      </trkpt>
      <trkpt lat="44.908460" lon="4.866456">
        <ele>173.592181</ele>
        <time>2017-06-05T13:40:58.000Z</time>
      </trkpt>
      <trkpt lat="44.908530" lon="4.866362">
        <ele>173.879852</ele>
        <time>2017-06-05T13:41:01.000Z</time>
      </trkpt>
      <trkpt lat="44.908600" lon="4.866263">
        <ele>173.703450</ele>
        <time>2017-06-05T13:41:04.000Z</time>
      </trkpt>
      <trkpt lat="44.908676" lon="4.866142">
        <ele>173.456412</ele>
        <time>2017-06-05T13:41:07.000Z</time>
      </trkpt>
      <trkpt lat="44.908752" lon="4.866027">
        <ele>173.216155</ele>
        <time>2017-06-05T13:41:10.000Z</time>
      </trkpt>
      <trkpt lat="44.908836" lon="4.865900">
        <ele>172.950725</ele>
        <time>2017-06-05T13:41:13.000Z</time>
      </trkpt>
      <trkpt lat="44.908913" lon="4.865773">
        <ele>172.695362</ele>
        <time>2017-06-05T13:41:16.000Z</time>
      </trkpt>
      <trkpt lat="44.908993" lon="4.865661">
        <ele>172.452387</ele>
        <time>2017-06-05T13:41:19.000Z</time>
      </trkpt>
      <trkpt lat="44.909077" lon="4.865528">
        <ele>172.180188</ele>
        <time>2017-06-05T13:41:22.000Z</time>
      </trkpt>
      <trkpt lat="44.909138" lon="4.865435">
        <ele>171.986570</ele>
        <time>2017-06-05T13:41:24.000Z</time>
      </trkpt>
      <trkpt lat="44.909220" lon="4.865301">
        <ele>171.716069</ele>
        <time>2017-06-05T13:41:27.000Z</time>
      </trkpt>
      <trkpt lat="44.909313" lon="4.865165">
        <ele>171.427305</ele>
        <time>2017-06-05T13:41:30.000Z</time>
      </trkpt>
      <trkpt lat="44.909374" lon="4.865064">
        <ele>171.224552</ele>
        <time>2017-06-05T13:41:32.000Z</time>
      </trkpt>
      <trkpt lat="44.909440" lon="4.864963">
        <ele>171.014642</ele>
        <time>2017-06-05T13:41:34.000Z</time>
      </trkpt>
      <trkpt lat="44.909508" lon="4.864852">
        <ele>170.790466</ele>
        <time>2017-06-05T13:41:36.000Z</time>
      </trkpt>
      <trkpt lat="44.909580" lon="4.864736">
        <ele>170.554865</ele>
        <time>2017-06-05T13:41:38.000Z</time>
      </trkpt>
      <trkpt lat="44.909650" lon="4.864616">
        <ele>170.317401</ele>
        <time>2017-06-05T13:41:40.000Z</time>
      </trkpt>
      <trkpt lat="44.909706" lon="4.864506">
        <ele>170.110476</ele>
        <time>2017-06-05T13:41:42.000Z</time>
      </trkpt>
      <trkpt lat="44.909805" lon="4.864373">
        <ele>169.672981</ele>
        <time>2017-06-05T13:41:45.000Z</time>
      </trkpt>
      <trkpt lat="44.909885" lon="4.864272">
        <ele>169.281508</ele>
        <time>2017-06-05T13:41:47.000Z</time>
      </trkpt>
      <trkpt lat="44.909977" lon="4.864152">
        <ele>168.824626</ele>
        <time>2017-06-05T13:41:49.000Z</time>
      </trkpt>
      <trkpt lat="44.910072" lon="4.864032">
        <ele>168.359645</ele>
        <time>2017-06-05T13:41:51.000Z</time>
      </trkpt>
      <trkpt lat="44.910183" lon="4.863910">
        <ele>167.846521</ele>
        <time>2017-06-05T13:41:53.000Z</time>
      </trkpt>
      <trkpt lat="44.910305" lon="4.863782">
        <ele>167.292072</ele>
        <time>2017-06-05T13:41:55.000Z</time>
      </trkpt>
      <trkpt lat="44.910435" lon="4.863648">
        <ele>166.704933</ele>
        <time>2017-06-05T13:41:57.000Z</time>
      </trkpt>
      <trkpt lat="44.910580" lon="4.863528">
        <ele>166.091835</ele>
        <time>2017-06-05T13:41:59.000Z</time>
      </trkpt>
      <trkpt lat="44.910730" lon="4.863406">
        <ele>165.460371</ele>
        <time>2017-06-05T13:42:01.000Z</time>
      </trkpt>
      <trkpt lat="44.910880" lon="4.863295">
        <ele>164.842601</ele>
        <time>2017-06-05T13:42:03.000Z</time>
      </trkpt>
      <trkpt lat="44.911037" lon="4.863193">
        <ele>164.212171</ele>
        <time>2017-06-05T13:42:05.000Z</time>
      </trkpt>
      <trkpt lat="44.911190" lon="4.863102">
        <ele>163.606554</ele>
        <time>2017-06-05T13:42:07.000Z</time>
      </trkpt>
      <trkpt lat="44.911350" lon="4.863026">
        <ele>163.212266</ele>
        <time>2017-06-05T13:42:09.000Z</time>
      </trkpt>
      <trkpt lat="44.911510" lon="4.862955">
        <ele>162.888630</ele>
        <time>2017-06-05T13:42:11.000Z</time>
      </trkpt>
      <trkpt lat="44.911670" lon="4.862898">
        <ele>162.570206</ele>
        <time>2017-06-05T13:42:13.000Z</time>
      </trkpt>
      <trkpt lat="44.911827" lon="4.862844">
        <ele>162.258388</ele>
        <time>2017-06-05T13:42:15.000Z</time>
      </trkpt>
      <trkpt lat="44.911976" lon="4.862806">
        <ele>161.966214</ele>
        <time>2017-06-05T13:42:17.000Z</time>
      </trkpt>
      <trkpt lat="44.912130" lon="4.862774">
        <ele>161.665843</ele>
        <time>2017-06-05T13:42:19.000Z</time>
      </trkpt>
      <trkpt lat="44.912273" lon="4.862756">
        <ele>161.388805</ele>
        <time>2017-06-05T13:42:21.000Z</time>
      </trkpt>
      <trkpt lat="44.912410" lon="4.862754">
        <ele>161.124425</ele>
        <time>2017-06-05T13:42:23.000Z</time>
      </trkpt>
      <trkpt lat="44.912533" lon="4.862758">
        <ele>160.887011</ele>
        <time>2017-06-05T13:42:25.000Z</time>
      </trkpt>
      <trkpt lat="44.912655" lon="4.862755">
        <ele>160.651555</ele>
        <time>2017-06-05T13:42:27.000Z</time>
      </trkpt>
      <trkpt lat="44.912766" lon="4.862759">
        <ele>160.437290</ele>
        <time>2017-06-05T13:42:29.000Z</time>
      </trkpt>
      <trkpt lat="44.912872" lon="4.862775">
        <ele>160.231579</ele>
        <time>2017-06-05T13:42:31.000Z</time>
      </trkpt>
      <trkpt lat="44.912975" lon="4.862795">
        <ele>160.030952</ele>
        <time>2017-06-05T13:42:33.000Z</time>
      </trkpt>
      <trkpt lat="44.913080" lon="4.862812">
        <ele>160.005524</ele>
        <time>2017-06-05T13:42:35.000Z</time>
      </trkpt>
      <trkpt lat="44.913166" lon="4.862835">
        <ele>160.021343</ele>
        <time>2017-06-05T13:42:37.000Z</time>
      </trkpt>
      <trkpt lat="44.913265" lon="4.862864">
        <ele>160.039617</ele>
        <time>2017-06-05T13:42:39.000Z</time>
      </trkpt>
      <trkpt lat="44.913357" lon="4.862891">
        <ele>160.056600</ele>
        <time>2017-06-05T13:42:41.000Z</time>
      </trkpt>
      <trkpt lat="44.913452" lon="4.862923">
        <ele>160.074251</ele>
        <time>2017-06-05T13:42:43.000Z</time>
      </trkpt>
      <trkpt lat="44.913586" lon="4.862957">
        <ele>160.098857</ele>
        <time>2017-06-05T13:42:46.000Z</time>
      </trkpt>
      <trkpt lat="44.913680" lon="4.862979">
        <ele>160.116078</ele>
        <time>2017-06-05T13:42:48.000Z</time>
      </trkpt>
      <trkpt lat="44.913773" lon="4.863007">
        <ele>160.133264</ele>
        <time>2017-06-05T13:42:50.000Z</time>
      </trkpt>
      <trkpt lat="44.913870" lon="4.863030">
        <ele>160.151040</ele>
        <time>2017-06-05T13:42:52.000Z</time>
      </trkpt>
      <trkpt lat="44.913963" lon="4.863046">
        <ele>160.167973</ele>
        <time>2017-06-05T13:42:54.000Z</time>
      </trkpt>
      <trkpt lat="44.914055" lon="4.863067">
        <ele>160.184816</ele>
        <time>2017-06-05T13:42:56.000Z</time>
      </trkpt>
      <trkpt lat="44.914154" lon="4.863094">
        <ele>160.203039</ele>
        <time>2017-06-05T13:42:58.000Z</time>
      </trkpt>
      <trkpt lat="44.914253" lon="4.863125">
        <ele>160.221366</ele>
        <time>2017-06-05T13:43:00.000Z</time>
      </trkpt>
      <trkpt lat="44.914350" lon="4.863153">
        <ele>160.239260</ele>
        <time>2017-06-05T13:43:02.000Z</time>
      </trkpt>
      <trkpt lat="44.914448" lon="4.863180">
        <ele>160.257306</ele>
        <time>2017-06-05T13:43:04.000Z</time>
      </trkpt>
      <trkpt lat="44.914555" lon="4.863204">
        <ele>160.276887</ele>
        <time>2017-06-05T13:43:06.000Z</time>
      </trkpt>
      <trkpt lat="44.914642" lon="4.863233">
        <ele>160.293043</ele>
        <time>2017-06-05T13:43:08.000Z</time>
      </trkpt>
      <trkpt lat="44.914734" lon="4.863259">
        <ele>160.310000</ele>
        <time>2017-06-05T13:43:10.000Z</time>
      </trkpt>
      <trkpt lat="44.914830" lon="4.863278">
        <ele>160.309811</ele>
        <time>2017-06-05T13:43:12.000Z</time>
      </trkpt>
      <trkpt lat="44.914917" lon="4.863307">
        <ele>160.302535</ele>
        <time>2017-06-05T13:43:14.000Z</time>
      </trkpt>
      <trkpt lat="44.915012" lon="4.863325">
        <ele>160.294732</ele>
        <time>2017-06-05T13:43:16.000Z</time>
      </trkpt>
      <trkpt lat="44.915100" lon="4.863347">
        <ele>160.287458</ele>
        <time>2017-06-05T13:43:18.000Z</time>
      </trkpt>
      <trkpt lat="44.915190" lon="4.863370">
        <ele>160.280013</ele>
        <time>2017-06-05T13:43:20.000Z</time>
      </trkpt>
      <trkpt lat="44.915283" lon="4.863387">
        <ele>160.272379</ele>
        <time>2017-06-05T13:43:22.000Z</time>
      </trkpt>
      <trkpt lat="44.915380" lon="4.863415">
        <ele>160.264320</ele>
        <time>2017-06-05T13:43:24.000Z</time>
      </trkpt>
      <trkpt lat="44.915500" lon="4.863450">
        <ele>160.254345</ele>
        <time>2017-06-05T13:43:27.000Z</time>
      </trkpt>
      <trkpt lat="44.915627" lon="4.863481">
        <ele>160.243854</ele>
        <time>2017-06-05T13:43:30.000Z</time>
      </trkpt>
      <trkpt lat="44.915718" lon="4.863496">
        <ele>160.236396</ele>
        <time>2017-06-05T13:43:32.000Z</time>
      </trkpt>
      <trkpt lat="44.915817" lon="4.863511">
        <ele>160.228291</ele>
        <time>2017-06-05T13:43:34.000Z</time>
      </trkpt>
      <trkpt lat="44.915943" lon="4.863528">
        <ele>160.217988</ele>
        <time>2017-06-05T13:43:37.000Z</time>
      </trkpt>
      <trkpt lat="44.916070" lon="4.863537">
        <ele>160.207637</ele>
        <time>2017-06-05T13:43:40.000Z</time>
      </trkpt>
      <trkpt lat="44.916183" lon="4.863533">
        <ele>160.198436</ele>
        <time>2017-06-05T13:43:43.000Z</time>
      </trkpt>
      <trkpt lat="44.916294" lon="4.863533">
        <ele>160.189400</ele>
        <time>2017-06-05T13:43:46.000Z</time>
      </trkpt>
      <trkpt lat="44.916397" lon="4.863529">
        <ele>160.181013</ele>
        <time>2017-06-05T13:43:49.000Z</time>
      </trkpt>
      <trkpt lat="44.916496" lon="4.863519">
        <ele>160.172934</ele>
        <time>2017-06-05T13:43:52.000Z</time>
      </trkpt>
      <trkpt lat="44.916588" lon="4.863508">
        <ele>160.158740</ele>
        <time>2017-06-05T13:43:55.000Z</time>
      </trkpt>
      <trkpt lat="44.916695" lon="4.863485">
        <ele>160.133028</ele>
        <time>2017-06-05T13:43:59.000Z</time>
      </trkpt>
      <trkpt lat="44.916615" lon="4.863554">
        <ele>160.110758</ele>
        <time>2017-06-05T13:44:09.000Z</time>
      </trkpt>
      <trkpt lat="44.916515" lon="4.863593">
        <ele>160.086112</ele>
        <time>2017-06-05T13:44:12.000Z</time>
      </trkpt>
      <trkpt lat="44.916397" lon="4.863655">
        <ele>160.056202</ele>
        <time>2017-06-05T13:44:15.000Z</time>
      </trkpt>
      <trkpt lat="44.916286" lon="4.863738">
        <ele>160.026363</ele>
        <time>2017-06-05T13:44:17.000Z</time>
      </trkpt>
      <trkpt lat="44.916138" lon="4.863797">
        <ele>159.989829</ele>
        <time>2017-06-05T13:44:19.000Z</time>
      </trkpt>
      <trkpt lat="44.915985" lon="4.863813">
        <ele>159.953382</ele>
        <time>2017-06-05T13:44:21.000Z</time>
      </trkpt>
      <trkpt lat="44.915820" lon="4.863780">
        <ele>159.913792</ele>
        <time>2017-06-05T13:44:23.000Z</time>
      </trkpt>
      <trkpt lat="44.915672" lon="4.863761">
        <ele>159.878487</ele>
        <time>2017-06-05T13:44:25.000Z</time>
      </trkpt>
      <trkpt lat="44.915554" lon="4.863772">
        <ele>159.850394</ele>
        <time>2017-06-05T13:44:27.000Z</time>
      </trkpt>
      <trkpt lat="44.915455" lon="4.863756">
        <ele>159.826721</ele>
        <time>2017-06-05T13:44:29.000Z</time>
      </trkpt>
      <trkpt lat="44.915360" lon="4.863696">
        <ele>159.801998</ele>
        <time>2017-06-05T13:44:32.000Z</time>
      </trkpt>
      <trkpt lat="44.915268" lon="4.863706">
        <ele>159.780077</ele>
        <time>2017-06-05T13:44:36.000Z</time>
      </trkpt>
      <trkpt lat="44.915190" lon="4.863779">
        <ele>159.757846</ele>
        <time>2017-06-05T13:44:39.000Z</time>
      </trkpt>
      <trkpt lat="44.915090" lon="4.863848">
        <ele>159.668954</ele>
        <time>2017-06-05T13:44:42.000Z</time>
      </trkpt>
      <trkpt lat="44.915010" lon="4.863909">
        <ele>159.515049</ele>
        <time>2017-06-05T13:44:44.000Z</time>
      </trkpt>
      <trkpt lat="44.914930" lon="4.863971">
        <ele>159.360572</ele>
        <time>2017-06-05T13:44:46.000Z</time>
      </trkpt>
      <trkpt lat="44.914830" lon="4.864031">
        <ele>159.176646</ele>
        <time>2017-06-05T13:44:48.000Z</time>
      </trkpt>
      <trkpt lat="44.914734" lon="4.864075">
        <ele>159.005793</ele>
        <time>2017-06-05T13:44:50.000Z</time>
      </trkpt>
      <trkpt lat="44.914600" lon="4.864077">
        <ele>158.778947</ele>
        <time>2017-06-05T13:44:53.000Z</time>
      </trkpt>
      <trkpt lat="44.914510" lon="4.864040">
        <ele>158.620271</ele>
        <time>2017-06-05T13:44:55.000Z</time>
      </trkpt>
      <trkpt lat="44.914417" lon="4.863997">
        <ele>158.454618</ele>
        <time>2017-06-05T13:44:57.000Z</time>
      </trkpt>
      <trkpt lat="44.914320" lon="4.863950">
        <ele>158.281020</ele>
        <time>2017-06-05T13:44:59.000Z</time>
      </trkpt>
      <trkpt lat="44.914223" lon="4.863910">
        <ele>158.109961</ele>
        <time>2017-06-05T13:45:01.000Z</time>
      </trkpt>
      <trkpt lat="44.914116" lon="4.863880">
        <ele>157.925297</ele>
        <time>2017-06-05T13:45:03.000Z</time>
      </trkpt>
      <trkpt lat="44.914013" lon="4.863861">
        <ele>157.749459</ele>
        <time>2017-06-05T13:45:05.000Z</time>
      </trkpt>
      <trkpt lat="44.913910" lon="4.863852">
        <ele>157.574768</ele>
        <time>2017-06-05T13:45:07.000Z</time>
      </trkpt>
      <trkpt lat="44.913810" lon="4.863856">
        <ele>157.405422</ele>
        <time>2017-06-05T13:45:09.000Z</time>
      </trkpt>
      <trkpt lat="44.913708" lon="4.863862">
        <ele>157.232608</ele>
        <time>2017-06-05T13:45:11.000Z</time>
      </trkpt>
      <trkpt lat="44.913600" lon="4.863856">
        <ele>157.049645</ele>
        <time>2017-06-05T13:45:13.000Z</time>
      </trkpt>
      <trkpt lat="44.913498" lon="4.863808">
        <ele>156.867645</ele>
        <time>2017-06-05T13:45:15.000Z</time>
      </trkpt>
      <trkpt lat="44.913406" lon="4.863727">
        <ele>156.693223</ele>
        <time>2017-06-05T13:45:17.000Z</time>
      </trkpt>
      <trkpt lat="44.913322" lon="4.863641">
        <ele>156.642895</ele>
        <time>2017-06-05T13:45:19.000Z</time>
      </trkpt>
      <trkpt lat="44.913227" lon="4.863569">
        <ele>156.590597</ele>
        <time>2017-06-05T13:45:21.000Z</time>
      </trkpt>
      <trkpt lat="44.913136" lon="4.863512">
        <ele>156.542309</ele>
        <time>2017-06-05T13:45:23.000Z</time>
      </trkpt>
      <trkpt lat="44.913040" lon="4.863458">
        <ele>156.492184</ele>
        <time>2017-06-05T13:45:25.000Z</time>
      </trkpt>
      <trkpt lat="44.912940" lon="4.863421">
        <ele>156.442041</ele>
        <time>2017-06-05T13:45:27.000Z</time>
      </trkpt>
      <trkpt lat="44.912838" lon="4.863401">
        <ele>156.392090</ele>
        <time>2017-06-05T13:45:29.000Z</time>
      </trkpt>
      <trkpt lat="44.912730" lon="4.863393">
        <ele>156.339631</ele>
        <time>2017-06-05T13:45:31.000Z</time>
      </trkpt>
      <trkpt lat="44.912620" lon="4.863389">
        <ele>156.286257</ele>
        <time>2017-06-05T13:45:33.000Z</time>
      </trkpt>
      <trkpt lat="44.912514" lon="4.863379">
        <ele>156.234726</ele>
        <time>2017-06-05T13:45:35.000Z</time>
      </trkpt>
      <trkpt lat="44.912403" lon="4.863362">
        <ele>156.180569</ele>
        <time>2017-06-05T13:45:37.000Z</time>
      </trkpt>
      <trkpt lat="44.912296" lon="4.863354">
        <ele>156.128595</ele>
        <time>2017-06-05T13:45:39.000Z</time>
      </trkpt>
      <trkpt lat="44.912190" lon="4.863347">
        <ele>156.077122</ele>
        <time>2017-06-05T13:45:41.000Z</time>
      </trkpt>
      <trkpt lat="44.912080" lon="4.863340">
        <ele>156.023711</ele>
        <time>2017-06-05T13:45:43.000Z</time>
      </trkpt>
      <trkpt lat="44.911983" lon="4.863338">
        <ele>155.976655</ele>
        <time>2017-06-05T13:45:45.000Z</time>
      </trkpt>
      <trkpt lat="44.911884" lon="4.863323">
        <ele>155.928359</ele>
        <time>2017-06-05T13:45:47.000Z</time>
      </trkpt>
      <trkpt lat="44.911785" lon="4.863308">
        <ele>155.880062</ele>
        <time>2017-06-05T13:45:49.000Z</time>
      </trkpt>
      <trkpt lat="44.911697" lon="4.863298">
        <ele>155.837239</ele>
        <time>2017-06-05T13:45:51.000Z</time>
      </trkpt>
      <trkpt lat="44.911606" lon="4.863312">
        <ele>155.893756</ele>
        <time>2017-06-05T13:45:53.000Z</time>
      </trkpt>
      <trkpt lat="44.911507" lon="4.863431">
        <ele>156.032140</ele>
        <time>2017-06-05T13:45:56.000Z</time>
      </trkpt>
      <trkpt lat="44.911472" lon="4.863555">
        <ele>156.132761</ele>
        <time>2017-06-05T13:45:58.000Z</time>
      </trkpt>
      <trkpt lat="44.911453" lon="4.863690">
        <ele>156.236514</ele>
        <time>2017-06-05T13:46:00.000Z</time>
      </trkpt>
      <trkpt lat="44.911420" lon="4.863833">
        <ele>156.349885</ele>
        <time>2017-06-05T13:46:02.000Z</time>
      </trkpt>
      <trkpt lat="44.911360" lon="4.863965">
        <ele>156.468118</ele>
        <time>2017-06-05T13:46:04.000Z</time>
      </trkpt>
      <trkpt lat="44.911312" lon="4.864072">
        <ele>156.563594</ele>
        <time>2017-06-05T13:46:06.000Z</time>
      </trkpt>
      <trkpt lat="44.911263" lon="4.864198">
        <ele>156.671950</ele>
        <time>2017-06-05T13:46:08.000Z</time>
      </trkpt>
      <trkpt lat="44.911200" lon="4.864296">
        <ele>156.771718</ele>
        <time>2017-06-05T13:46:10.000Z</time>
      </trkpt>
      <trkpt lat="44.911130" lon="4.864369">
        <ele>156.864343</ele>
        <time>2017-06-05T13:46:12.000Z</time>
      </trkpt>
      <trkpt lat="44.911037" lon="4.864406">
        <ele>156.967185</ele>
        <time>2017-06-05T13:46:14.000Z</time>
      </trkpt>
      <trkpt lat="44.910910" lon="4.864451">
        <ele>157.106553</ele>
        <time>2017-06-05T13:46:17.000Z</time>
      </trkpt>
      <trkpt lat="44.910786" lon="4.864493">
        <ele>157.242281</ele>
        <time>2017-06-05T13:46:20.000Z</time>
      </trkpt>
      <trkpt lat="44.910667" lon="4.864491">
        <ele>157.368952</ele>
        <time>2017-06-05T13:46:23.000Z</time>
      </trkpt>
      <trkpt lat="44.910572" lon="4.864403">
        <ele>157.489885</ele>
        <time>2017-06-05T13:46:27.000Z</time>
      </trkpt>
      <trkpt lat="44.910515" lon="4.864280">
        <ele>157.600689</ele>
        <time>2017-06-05T13:46:30.000Z</time>
      </trkpt>
      <trkpt lat="44.910473" lon="4.864158">
        <ele>157.702944</ele>
        <time>2017-06-05T13:46:32.000Z</time>
      </trkpt>
      <trkpt lat="44.910423" lon="4.864040">
        <ele>157.792267</ele>
        <time>2017-06-05T13:46:34.000Z</time>
      </trkpt>
      <trkpt lat="44.910360" lon="4.863908">
        <ele>157.886862</ele>
        <time>2017-06-05T13:46:36.000Z</time>
      </trkpt>
      <trkpt lat="44.910297" lon="4.863778">
        <ele>157.980474</ele>
        <time>2017-06-05T13:46:38.000Z</time>
      </trkpt>
      <trkpt lat="44.910230" lon="4.863658">
        <ele>158.071284</ele>
        <time>2017-06-05T13:46:40.000Z</time>
      </trkpt>
      <trkpt lat="44.910137" lon="4.863553">
        <ele>158.171203</ele>
        <time>2017-06-05T13:46:42.000Z</time>
      </trkpt>
      <trkpt lat="44.910150" lon="4.863392">
        <ele>158.267502</ele>
        <time>2017-06-05T13:46:44.000Z</time>
      </trkpt>
      <trkpt lat="44.910100" lon="4.863278">
        <ele>158.347190</ele>
        <time>2017-06-05T13:46:46.000Z</time>
      </trkpt>
      <trkpt lat="44.910050" lon="4.863165">
        <ele>158.426373</ele>
        <time>2017-06-05T13:46:48.000Z</time>
      </trkpt>
      <trkpt lat="44.909990" lon="4.863024">
        <ele>158.524129</ele>
        <time>2017-06-05T13:46:51.000Z</time>
      </trkpt>
      <trkpt lat="44.909927" lon="4.862881">
        <ele>158.624213</ele>
        <time>2017-06-05T13:46:54.000Z</time>
      </trkpt>
      <trkpt lat="44.909866" lon="4.862720">
        <ele>158.732724</ele>
        <time>2017-06-05T13:46:57.000Z</time>
      </trkpt>
      <trkpt lat="44.909798" lon="4.862569">
        <ele>158.839066</ele>
        <time>2017-06-05T13:47:00.000Z</time>
      </trkpt>
      <trkpt lat="44.909737" lon="4.862403">
        <ele>158.950206</ele>
        <time>2017-06-05T13:47:03.000Z</time>
      </trkpt>
      <trkpt lat="44.909706" lon="4.862219">
        <ele>159.062606</ele>
        <time>2017-06-05T13:47:06.000Z</time>
      </trkpt>
      <trkpt lat="44.909706" lon="4.862081">
        <ele>159.144618</ele>
        <time>2017-06-05T13:47:08.000Z</time>
      </trkpt>
      <trkpt lat="44.909710" lon="4.861895">
        <ele>159.246476</ele>
        <time>2017-06-05T13:47:11.000Z</time>
      </trkpt>
      <trkpt lat="44.909714" lon="4.861750">
        <ele>159.225757</ele>
        <time>2017-06-05T13:47:13.000Z</time>
      </trkpt>
      <trkpt lat="44.909720" lon="4.861579">
        <ele>159.201312</ele>
        <time>2017-06-05T13:47:16.000Z</time>
      </trkpt>
      <trkpt lat="44.909737" lon="4.861453">
        <ele>159.182999</ele>
        <time>2017-06-05T13:47:19.000Z</time>
      </trkpt>
      <trkpt lat="44.909748" lon="4.861299">
        <ele>159.160899</ele>
        <time>2017-06-05T13:47:22.000Z</time>
      </trkpt>
      <trkpt lat="44.909748" lon="4.861167">
        <ele>159.142053</ele>
        <time>2017-06-05T13:47:25.000Z</time>
      </trkpt>
      <trkpt lat="44.909744" lon="4.861018">
        <ele>159.120763</ele>
        <time>2017-06-05T13:47:29.000Z</time>
      </trkpt>
      <trkpt lat="44.909748" lon="4.860852">
        <ele>159.097048</ele>
        <time>2017-06-05T13:47:33.000Z</time>
      </trkpt>
      <trkpt lat="44.909763" lon="4.860683">
        <ele>159.072730</ele>
        <time>2017-06-05T13:47:38.000Z</time>
      </trkpt>
      <trkpt lat="44.909770" lon="4.860552">
        <ele>159.053973</ele>
        <time>2017-06-05T13:47:44.000Z</time>
      </trkpt>
      <trkpt lat="44.909798" lon="4.860683">
        <ele>159.034436</ele>
        <time>2017-06-05T13:49:12.000Z</time>
      </trkpt>
      <trkpt lat="44.909794" lon="4.860828">
        <ele>159.013717</ele>
        <time>2017-06-05T13:49:16.000Z</time>
      </trkpt>
      <trkpt lat="44.909770" lon="4.860986">
        <ele>158.990645</ele>
        <time>2017-06-05T13:49:20.000Z</time>
      </trkpt>
      <trkpt lat="44.909782" lon="4.861124">
        <ele>158.970794</ele>
        <time>2017-06-05T13:49:23.000Z</time>
      </trkpt>
      <trkpt lat="44.909775" lon="4.861272">
        <ele>158.949616</ele>
        <time>2017-06-05T13:49:27.000Z</time>
      </trkpt>
      <trkpt lat="44.909782" lon="4.861427">
        <ele>158.927440</ele>
        <time>2017-06-05T13:49:31.000Z</time>
      </trkpt>
      <trkpt lat="44.909750" lon="4.861587">
        <ele>158.903702</ele>
        <time>2017-06-05T13:49:34.000Z</time>
      </trkpt>
      <trkpt lat="44.909763" lon="4.861745">
        <ele>158.843227</ele>
        <time>2017-06-05T13:49:38.000Z</time>
      </trkpt>
      <trkpt lat="44.909733" lon="4.861896">
        <ele>158.635638</ele>
        <time>2017-06-05T13:49:41.000Z</time>
      </trkpt>
      <trkpt lat="44.909718" lon="4.862048">
        <ele>158.432497</ele>
        <time>2017-06-05T13:49:44.000Z</time>
      </trkpt>
      <trkpt lat="44.909714" lon="4.862176">
        <ele>158.262903</ele>
        <time>2017-06-05T13:49:47.000Z</time>
      </trkpt>
      <trkpt lat="44.909714" lon="4.862311">
        <ele>158.084209</ele>
        <time>2017-06-05T13:49:50.000Z</time>
      </trkpt>
      <trkpt lat="44.909720" lon="4.862445">
        <ele>157.906483</ele>
        <time>2017-06-05T13:49:54.000Z</time>
      </trkpt>
      <trkpt lat="44.909782" lon="4.862581">
        <ele>157.692394</ele>
        <time>2017-06-05T13:49:58.000Z</time>
      </trkpt>
      <trkpt lat="44.909836" lon="4.862682">
        <ele>157.524886</ele>
        <time>2017-06-05T13:50:01.000Z</time>
      </trkpt>
      <trkpt lat="44.909897" lon="4.862780">
        <ele>157.352186</ele>
        <time>2017-06-05T13:50:05.000Z</time>
      </trkpt>
      <trkpt lat="44.909946" lon="4.862916">
        <ele>157.150212</ele>
        <time>2017-06-05T13:50:10.000Z</time>
      </trkpt>
      <trkpt lat="44.909992" lon="4.863032">
        <ele>156.974237</ele>
        <time>2017-06-05T13:50:13.000Z</time>
      </trkpt>
      <trkpt lat="44.910050" lon="4.863153">
        <ele>156.780838</ele>
        <time>2017-06-05T13:50:18.000Z</time>
      </trkpt>
      <trkpt lat="44.910080" lon="4.863287">
        <ele>156.594817</ele>
        <time>2017-06-05T13:50:22.000Z</time>
      </trkpt>
      <trkpt lat="44.910122" lon="4.863411">
        <ele>156.412878</ele>
        <time>2017-06-05T13:50:25.000Z</time>
      </trkpt>
      <trkpt lat="44.910168" lon="4.863547">
        <ele>156.213384</ele>
        <time>2017-06-05T13:50:28.000Z</time>
      </trkpt>
      <trkpt lat="44.910217" lon="4.863676">
        <ele>156.019624</ele>
        <time>2017-06-05T13:50:31.000Z</time>
      </trkpt>
      <trkpt lat="44.910275" lon="4.863812">
        <ele>155.809488</ele>
        <time>2017-06-05T13:50:35.000Z</time>
      </trkpt>
      <trkpt lat="44.910350" lon="4.863925">
        <ele>155.604498</ele>
        <time>2017-06-05T13:50:39.000Z</time>
      </trkpt>
      <trkpt lat="44.910404" lon="4.864030">
        <ele>155.485730</ele>
        <time>2017-06-05T13:50:42.000Z</time>
      </trkpt>
      <trkpt lat="44.910465" lon="4.864164">
        <ele>155.397461</ele>
        <time>2017-06-05T13:50:46.000Z</time>
      </trkpt>
      <trkpt lat="44.910530" lon="4.864280">
        <ele>155.315497</ele>
        <time>2017-06-05T13:50:51.000Z</time>
      </trkpt>
      <trkpt lat="44.910587" lon="4.864386">
        <ele>155.241748</ele>
        <time>2017-06-05T13:50:56.000Z</time>
      </trkpt>
      <trkpt lat="44.910618" lon="4.864513">
        <ele>155.167312</ele>
        <time>2017-06-05T13:51:02.000Z</time>
      </trkpt>
      <trkpt lat="44.910572" lon="4.864368">
        <ele>155.079271</ele>
        <time>2017-06-05T13:51:17.000Z</time>
      </trkpt>
      <trkpt lat="44.910515" lon="4.864249">
        <ele>154.999665</ele>
        <time>2017-06-05T13:51:21.000Z</time>
      </trkpt>
      <trkpt lat="44.910473" lon="4.864125">
        <ele>154.923500</ele>
        <time>2017-06-05T13:51:24.000Z</time>
      </trkpt>
      <trkpt lat="44.910410" lon="4.863983">
        <ele>154.830650</ele>
        <time>2017-06-05T13:51:27.000Z</time>
      </trkpt>
      <trkpt lat="44.910336" lon="4.863832">
        <ele>154.728899</ele>
        <time>2017-06-05T13:51:30.000Z</time>
      </trkpt>
      <trkpt lat="44.910267" lon="4.863696">
        <ele>154.636196</ele>
        <time>2017-06-05T13:51:33.000Z</time>
      </trkpt>
      <trkpt lat="44.910200" lon="4.863567">
        <ele>154.547552</ele>
        <time>2017-06-05T13:51:36.000Z</time>
      </trkpt>
      <trkpt lat="44.910150" lon="4.863457">
        <ele>154.475124</ele>
        <time>2017-06-05T13:51:38.000Z</time>
      </trkpt>
      <trkpt lat="44.910107" lon="4.863328">
        <ele>154.396120</ele>
        <time>2017-06-05T13:51:41.000Z</time>
      </trkpt>
      <trkpt lat="44.910050" lon="4.863164">
        <ele>154.294890</ele>
        <time>2017-06-05T13:51:45.000Z</time>
      </trkpt>
      <trkpt lat="44.909990" lon="4.863051">
        <ele>154.216629</ele>
        <time>2017-06-05T13:51:49.000Z</time>
      </trkpt>
      <trkpt lat="44.909924" lon="4.862928">
        <ele>154.131118</ele>
        <time>2017-06-05T13:51:54.000Z</time>
      </trkpt>
      <trkpt lat="44.909885" lon="4.862790">
        <ele>153.956394</ele>
        <time>2017-06-05T13:51:58.000Z</time>
      </trkpt>
      <trkpt lat="44.909836" lon="4.862653">
        <ele>153.755460</ele>
        <time>2017-06-05T13:52:02.000Z</time>
      </trkpt>
      <trkpt lat="44.909760" lon="4.862514">
        <ele>153.525559</ele>
        <time>2017-06-05T13:52:06.000Z</time>
      </trkpt>
      <trkpt lat="44.909740" lon="4.862387">
        <ele>153.355230</ele>
        <time>2017-06-05T13:52:09.000Z</time>
      </trkpt>
      <trkpt lat="44.909710" lon="4.862223">
        <ele>153.133475</ele>
        <time>2017-06-05T13:52:13.000Z</time>
      </trkpt>
      <trkpt lat="44.909710" lon="4.862077">
        <ele>152.942332</ele>
        <time>2017-06-05T13:52:16.000Z</time>
      </trkpt>
      <trkpt lat="44.909718" lon="4.861931">
        <ele>152.750618</ele>
        <time>2017-06-05T13:52:19.000Z</time>
      </trkpt>
      <trkpt lat="44.909730" lon="4.861780">
        <ele>152.551688</ele>
        <time>2017-06-05T13:52:22.000Z</time>
      </trkpt>
      <trkpt lat="44.909744" lon="4.861634">
        <ele>152.358801</ele>
        <time>2017-06-05T13:52:25.000Z</time>
      </trkpt>
      <trkpt lat="44.909763" lon="4.861472">
        <ele>152.143822</ele>
        <time>2017-06-05T13:52:28.000Z</time>
      </trkpt>
      <trkpt lat="44.909756" lon="4.861316">
        <ele>151.939178</ele>
        <time>2017-06-05T13:52:31.000Z</time>
      </trkpt>
      <trkpt lat="44.909737" lon="4.861182">
        <ele>151.760264</ele>
        <time>2017-06-05T13:52:33.000Z</time>
      </trkpt>
      <trkpt lat="44.909750" lon="4.861056">
        <ele>151.593564</ele>
        <time>2017-06-05T13:52:35.000Z</time>
      </trkpt>
      <trkpt lat="44.909767" lon="4.860927">
        <ele>151.421778</ele>
        <time>2017-06-05T13:52:37.000Z</time>
      </trkpt>
      <trkpt lat="44.909780" lon="4.860786">
        <ele>151.235624</ele>
        <time>2017-06-05T13:52:39.000Z</time>
      </trkpt>
      <trkpt lat="44.909782" lon="4.860639">
        <ele>151.043136</ele>
        <time>2017-06-05T13:52:42.000Z</time>
      </trkpt>
      <trkpt lat="44.909794" lon="4.860479">
        <ele>150.832493</ele>
        <time>2017-06-05T13:52:46.000Z</time>
      </trkpt>
      <trkpt lat="44.909805" lon="4.860333">
        <ele>150.777790</ele>
        <time>2017-06-05T13:52:49.000Z</time>
      </trkpt>
      <trkpt lat="44.909810" lon="4.860173">
        <ele>150.758580</ele>
        <time>2017-06-05T13:52:52.000Z</time>
      </trkpt>
      <trkpt lat="44.909786" lon="4.860008">
        <ele>150.738376</ele>
        <time>2017-06-05T13:52:55.000Z</time>
      </trkpt>
      <trkpt lat="44.909800" lon="4.859839">
        <ele>150.717966</ele>
        <time>2017-06-05T13:52:58.000Z</time>
      </trkpt>
      <trkpt lat="44.909813" lon="4.859692">
        <ele>150.700197</ele>
        <time>2017-06-05T13:53:01.000Z</time>
      </trkpt>
      <trkpt lat="44.909830" lon="4.859530">
        <ele>150.680554</ele>
        <time>2017-06-05T13:53:04.000Z</time>
      </trkpt>
      <trkpt lat="44.909843" lon="4.859380">
        <ele>150.662428</ele>
        <time>2017-06-05T13:53:07.000Z</time>
      </trkpt>
      <trkpt lat="44.909855" lon="4.859219">
        <ele>150.643010</ele>
        <time>2017-06-05T13:53:10.000Z</time>
      </trkpt>
      <trkpt lat="44.909847" lon="4.859055">
        <ele>150.623292</ele>
        <time>2017-06-05T13:53:13.000Z</time>
      </trkpt>
      <trkpt lat="44.909840" lon="4.858892">
        <ele>150.603705</ele>
        <time>2017-06-05T13:53:16.000Z</time>
      </trkpt>
      <trkpt lat="44.909840" lon="4.858746">
        <ele>150.586193</ele>
        <time>2017-06-05T13:53:18.000Z</time>
      </trkpt>
      <trkpt lat="44.909855" lon="4.858590">
        <ele>150.567309</ele>
        <time>2017-06-05T13:53:20.000Z</time>
      </trkpt>
      <trkpt lat="44.909860" lon="4.858441">
        <ele>150.549417</ele>
        <time>2017-06-05T13:53:22.000Z</time>
      </trkpt>
      <trkpt lat="44.909874" lon="4.858257">
        <ele>150.527220</ele>
        <time>2017-06-05T13:53:25.000Z</time>
      </trkpt>
      <trkpt lat="44.909870" lon="4.858096">
        <ele>150.507897</ele>
        <time>2017-06-05T13:53:28.000Z</time>
      </trkpt>
      <trkpt lat="44.909878" lon="4.857958">
        <ele>150.491289</ele>
        <time>2017-06-05T13:53:31.000Z</time>
      </trkpt>
      <trkpt lat="44.909897" lon="4.857804">
        <ele>150.590003</ele>
        <time>2017-06-05T13:53:34.000Z</time>
      </trkpt>
      <trkpt lat="44.909893" lon="4.857657">
        <ele>150.715335</ele>
        <time>2017-06-05T13:53:37.000Z</time>
      </trkpt>
      <trkpt lat="44.909904" lon="4.857528">
        <ele>150.826033</ele>
        <time>2017-06-05T13:53:39.000Z</time>
      </trkpt>
      <trkpt lat="44.909920" lon="4.857373">
        <ele>150.959485</ele>
        <time>2017-06-05T13:53:42.000Z</time>
      </trkpt>
      <trkpt lat="44.909935" lon="4.857228">
        <ele>151.084332</ele>
        <time>2017-06-05T13:53:45.000Z</time>
      </trkpt>
      <trkpt lat="44.909943" lon="4.857081">
        <ele>151.209941</ele>
        <time>2017-06-05T13:53:49.000Z</time>
      </trkpt>
      <trkpt lat="44.909950" lon="4.856927">
        <ele>151.341415</ele>
        <time>2017-06-05T13:53:54.000Z</time>
      </trkpt>
      <trkpt lat="44.909958" lon="4.856791">
        <ele>151.457682</ele>
        <time>2017-06-05T13:53:57.000Z</time>
      </trkpt>
      <trkpt lat="44.909954" lon="4.856643">
        <ele>151.583866</ele>
        <time>2017-06-05T13:54:00.000Z</time>
      </trkpt>
      <trkpt lat="44.909960" lon="4.856499">
        <ele>151.706762</ele>
        <time>2017-06-05T13:54:03.000Z</time>
      </trkpt>
      <trkpt lat="44.909977" lon="4.856334">
        <ele>151.848817</ele>
        <time>2017-06-05T13:54:07.000Z</time>
      </trkpt>
      <trkpt lat="44.910004" lon="4.856174">
        <ele>151.988949</ele>
        <time>2017-06-05T13:54:10.000Z</time>
      </trkpt>
      <trkpt lat="44.910027" lon="4.856034">
        <ele>152.111392</ele>
        <time>2017-06-05T13:54:13.000Z</time>
      </trkpt>
      <trkpt lat="44.910070" lon="4.855888">
        <ele>152.246107</ele>
        <time>2017-06-05T13:54:17.000Z</time>
      </trkpt>
      <trkpt lat="44.910110" lon="4.855773">
        <ele>152.355262</ele>
        <time>2017-06-05T13:54:20.000Z</time>
      </trkpt>
      <trkpt lat="44.910145" lon="4.855651">
        <ele>152.467407</ele>
        <time>2017-06-05T13:54:23.000Z</time>
      </trkpt>
      <trkpt lat="44.910213" lon="4.855476">
        <ele>152.637468</ele>
        <time>2017-06-05T13:54:27.000Z</time>
      </trkpt>
      <trkpt lat="44.910250" lon="4.855351">
        <ele>152.711920</ele>
        <time>2017-06-05T13:54:30.000Z</time>
      </trkpt>
      <trkpt lat="44.910294" lon="4.855198">
        <ele>152.796164</ele>
        <time>2017-06-05T13:54:34.000Z</time>
      </trkpt>
      <trkpt lat="44.910330" lon="4.855061">
        <ele>152.870711</ele>
        <time>2017-06-05T13:54:38.000Z</time>
      </trkpt>
      <trkpt lat="44.910313" lon="4.854910">
        <ele>152.948711</ele>
        <time>2017-06-05T13:54:43.000Z</time>
      </trkpt>
      <trkpt lat="44.910230" lon="4.854832">
        <ele>153.020531</ele>
        <time>2017-06-05T13:54:46.000Z</time>
      </trkpt>
      <trkpt lat="44.910114" lon="4.854740">
        <ele>153.116370</ele>
        <time>2017-06-05T13:54:49.000Z</time>
      </trkpt>
      <trkpt lat="44.910004" lon="4.854669">
        <ele>153.203493</ele>
        <time>2017-06-05T13:54:52.000Z</time>
      </trkpt>
      <trkpt lat="44.909885" lon="4.854590">
        <ele>153.298216</ele>
        <time>2017-06-05T13:54:55.000Z</time>
      </trkpt>
      <trkpt lat="44.909763" lon="4.854514">
        <ele>153.394270</ele>
        <time>2017-06-05T13:54:58.000Z</time>
      </trkpt>
      <trkpt lat="44.909680" lon="4.854457">
        <ele>153.460755</ele>
        <time>2017-06-05T13:55:00.000Z</time>
      </trkpt>
      <trkpt lat="44.909590" lon="4.854397">
        <ele>153.532449</ele>
        <time>2017-06-05T13:55:02.000Z</time>
      </trkpt>
      <trkpt lat="44.909504" lon="4.854334">
        <ele>153.602239</ele>
        <time>2017-06-05T13:55:04.000Z</time>
      </trkpt>
      <trkpt lat="44.909416" lon="4.854275">
        <ele>153.672412</ele>
        <time>2017-06-05T13:55:06.000Z</time>
      </trkpt>
      <trkpt lat="44.909330" lon="4.854229">
        <ele>153.738658</ele>
        <time>2017-06-05T13:55:08.000Z</time>
      </trkpt>
      <trkpt lat="44.909237" lon="4.854195">
        <ele>153.807859</ele>
        <time>2017-06-05T13:55:10.000Z</time>
      </trkpt>
      <trkpt lat="44.909150" lon="4.854159">
        <ele>153.873164</ele>
        <time>2017-06-05T13:55:12.000Z</time>
      </trkpt>
      <trkpt lat="44.909060" lon="4.854122">
        <ele>153.940687</ele>
        <time>2017-06-05T13:55:14.000Z</time>
      </trkpt>
      <trkpt lat="44.908974" lon="4.854086">
        <ele>153.914640</ele>
        <time>2017-06-05T13:55:16.000Z</time>
      </trkpt>
      <trkpt lat="44.908880" lon="4.854062">
        <ele>153.877523</ele>
        <time>2017-06-05T13:55:18.000Z</time>
      </trkpt>
      <trkpt lat="44.908790" lon="4.854035">
        <ele>153.841772</ele>
        <time>2017-06-05T13:55:20.000Z</time>
      </trkpt>
      <trkpt lat="44.908657" lon="4.853999">
        <ele>153.789152</ele>
        <time>2017-06-05T13:55:23.000Z</time>
      </trkpt>
      <trkpt lat="44.908566" lon="4.853964">
        <ele>153.752505</ele>
        <time>2017-06-05T13:55:25.000Z</time>
      </trkpt>
      <trkpt lat="44.908443" lon="4.853931">
        <ele>153.703857</ele>
        <time>2017-06-05T13:55:28.000Z</time>
      </trkpt>
      <trkpt lat="44.908325" lon="4.853915">
        <ele>153.657796</ele>
        <time>2017-06-05T13:55:31.000Z</time>
      </trkpt>
      <trkpt lat="44.908195" lon="4.853891">
        <ele>153.606853</ele>
        <time>2017-06-05T13:55:34.000Z</time>
      </trkpt>
      <trkpt lat="44.908060" lon="4.853880">
        <ele>153.554310</ele>
        <time>2017-06-05T13:55:37.000Z</time>
      </trkpt>
      <trkpt lat="44.907967" lon="4.853869">
        <ele>153.518048</ele>
        <time>2017-06-05T13:55:39.000Z</time>
      </trkpt>
      <trkpt lat="44.907870" lon="4.853850">
        <ele>153.479996</ele>
        <time>2017-06-05T13:55:41.000Z</time>
      </trkpt>
      <trkpt lat="44.907764" lon="4.853830">
        <ele>153.438443</ele>
        <time>2017-06-05T13:55:43.000Z</time>
      </trkpt>
      <trkpt lat="44.907658" lon="4.853806">
        <ele>153.396729</ele>
        <time>2017-06-05T13:55:45.000Z</time>
      </trkpt>
      <trkpt lat="44.907560" lon="4.853777">
        <ele>153.357823</ele>
        <time>2017-06-05T13:55:47.000Z</time>
      </trkpt>
      <trkpt lat="44.907463" lon="4.853762">
        <ele>153.319908</ele>
        <time>2017-06-05T13:55:49.000Z</time>
      </trkpt>
      <trkpt lat="44.907375" lon="4.853740">
        <ele>153.285183</ele>
        <time>2017-06-05T13:55:51.000Z</time>
      </trkpt>
      <trkpt lat="44.907238" lon="4.853730">
        <ele>153.341648</ele>
        <time>2017-06-05T13:55:54.000Z</time>
      </trkpt>
      <trkpt lat="44.907140" lon="4.853721">
        <ele>153.571166</ele>
        <time>2017-06-05T13:55:56.000Z</time>
      </trkpt>
      <trkpt lat="44.907036" lon="4.853717">
        <ele>153.814313</ele>
        <time>2017-06-05T13:55:58.000Z</time>
      </trkpt>
      <trkpt lat="44.906920" lon="4.853728">
        <ele>154.086025</ele>
        <time>2017-06-05T13:56:00.000Z</time>
      </trkpt>
      <trkpt lat="44.906807" lon="4.853728">
        <ele>154.350115</ele>
        <time>2017-06-05T13:56:02.000Z</time>
      </trkpt>
      <trkpt lat="44.906690" lon="4.853722">
        <ele>154.623734</ele>
        <time>2017-06-05T13:56:04.000Z</time>
      </trkpt>
      <trkpt lat="44.906574" lon="4.853711">
        <ele>154.895447</ele>
        <time>2017-06-05T13:56:06.000Z</time>
      </trkpt>
      <trkpt lat="44.906470" lon="4.853710">
        <ele>155.138509</ele>
        <time>2017-06-05T13:56:08.000Z</time>
      </trkpt>
      <trkpt lat="44.906372" lon="4.853718">
        <ele>155.367925</ele>
        <time>2017-06-05T13:56:10.000Z</time>
      </trkpt>
      <trkpt lat="44.906277" lon="4.853734">
        <ele>155.591522</ele>
        <time>2017-06-05T13:56:12.000Z</time>
      </trkpt>
      <trkpt lat="44.906180" lon="4.853741">
        <ele>155.818515</ele>
        <time>2017-06-05T13:56:14.000Z</time>
      </trkpt>
      <trkpt lat="44.906050" lon="4.853727">
        <ele>156.123218</ele>
        <time>2017-06-05T13:56:17.000Z</time>
      </trkpt>
      <trkpt lat="44.905926" lon="4.853720">
        <ele>156.413248</ele>
        <time>2017-06-05T13:56:20.000Z</time>
      </trkpt>
      <trkpt lat="44.905807" lon="4.853723">
        <ele>156.691405</ele>
        <time>2017-06-05T13:56:23.000Z</time>
      </trkpt>
      <trkpt lat="44.905690" lon="4.853714">
        <ele>156.965250</ele>
        <time>2017-06-05T13:56:26.000Z</time>
      </trkpt>
      <trkpt lat="44.905567" lon="4.853710">
        <ele>157.252787</ele>
        <time>2017-06-05T13:56:29.000Z</time>
      </trkpt>
      <trkpt lat="44.905453" lon="4.853703">
        <ele>157.543924</ele>
        <time>2017-06-05T13:56:32.000Z</time>
      </trkpt>
      <trkpt lat="44.905310" lon="4.853703">
        <ele>157.997692</ele>
        <time>2017-06-05T13:56:35.000Z</time>
      </trkpt>
      <trkpt lat="44.905212" lon="4.853690">
        <ele>158.310036</ele>
        <time>2017-06-05T13:56:37.000Z</time>
      </trkpt>
      <trkpt lat="44.905106" lon="4.853682">
        <ele>158.646876</ele>
        <time>2017-06-05T13:56:39.000Z</time>
      </trkpt>
      <trkpt lat="44.905006" lon="4.853674">
        <ele>158.964706</ele>
        <time>2017-06-05T13:56:41.000Z</time>
      </trkpt>
      <trkpt lat="44.904907" lon="4.853666">
        <ele>159.279368</ele>
        <time>2017-06-05T13:56:43.000Z</time>
      </trkpt>
      <trkpt lat="44.904808" lon="4.853665">
        <ele>159.593524</ele>
        <time>2017-06-05T13:56:45.000Z</time>
      </trkpt>
      <trkpt lat="44.904716" lon="4.853662">
        <ele>159.885537</ele>
        <time>2017-06-05T13:56:47.000Z</time>
      </trkpt>
      <trkpt lat="44.904583" lon="4.853661">
        <ele>160.307579</ele>
        <time>2017-06-05T13:56:50.000Z</time>
      </trkpt>
      <trkpt lat="44.904490" lon="4.853650">
        <ele>160.603721</ele>
        <time>2017-06-05T13:56:52.000Z</time>
      </trkpt>
      <trkpt lat="44.904370" lon="4.853629">
        <ele>160.987420</ele>
        <time>2017-06-05T13:56:55.000Z</time>
      </trkpt>
      <trkpt lat="44.904247" lon="4.853602">
        <ele>161.382414</ele>
        <time>2017-06-05T13:56:58.000Z</time>
      </trkpt>
      <trkpt lat="44.904156" lon="4.853580">
        <ele>161.675379</ele>
        <time>2017-06-05T13:57:00.000Z</time>
      </trkpt>
      <trkpt lat="44.904037" lon="4.853561">
        <ele>162.055398</ele>
        <time>2017-06-05T13:57:03.000Z</time>
      </trkpt>
      <trkpt lat="44.903900" lon="4.853534">
        <ele>162.494342</ele>
        <time>2017-06-05T13:57:06.000Z</time>
      </trkpt>
      <trkpt lat="44.903797" lon="4.853517">
        <ele>162.823408</ele>
        <time>2017-06-05T13:57:08.000Z</time>
      </trkpt>
      <trkpt lat="44.903698" lon="4.853484">
        <ele>163.146193</ele>
        <time>2017-06-05T13:57:10.000Z</time>
      </trkpt>
      <trkpt lat="44.903564" lon="4.853429">
        <ele>162.912871</ele>
        <time>2017-06-05T13:57:13.000Z</time>
      </trkpt>
      <trkpt lat="44.903470" lon="4.853393">
        <ele>162.736451</ele>
        <time>2017-06-05T13:57:15.000Z</time>
      </trkpt>
      <trkpt lat="44.903374" lon="4.853363">
        <ele>162.558353</ele>
        <time>2017-06-05T13:57:17.000Z</time>
      </trkpt>
      <trkpt lat="44.903270" lon="4.853329">
        <ele>162.364988</ele>
        <time>2017-06-05T13:57:19.000Z</time>
      </trkpt>
      <trkpt lat="44.903175" lon="4.853300">
        <ele>162.188934</ele>
        <time>2017-06-05T13:57:21.000Z</time>
      </trkpt>
      <trkpt lat="44.903076" lon="4.853267">
        <ele>162.004680</ele>
        <time>2017-06-05T13:57:23.000Z</time>
      </trkpt>
      <trkpt lat="44.902973" lon="4.853236">
        <ele>161.813919</ele>
        <time>2017-06-05T13:57:25.000Z</time>
      </trkpt>
      <trkpt lat="44.902874" lon="4.853188">
        <ele>161.624316</ele>
        <time>2017-06-05T13:57:27.000Z</time>
      </trkpt>
      <trkpt lat="44.902767" lon="4.853151">
        <ele>161.424773</ele>
        <time>2017-06-05T13:57:29.000Z</time>
      </trkpt>
      <trkpt lat="44.902668" lon="4.853114">
        <ele>161.239272</ele>
        <time>2017-06-05T13:57:31.000Z</time>
      </trkpt>
      <trkpt lat="44.902576" lon="4.853075">
        <ele>161.065278</ele>
        <time>2017-06-05T13:57:33.000Z</time>
      </trkpt>
      <trkpt lat="44.902470" lon="4.853040">
        <ele>160.868094</ele>
        <time>2017-06-05T13:57:35.000Z</time>
      </trkpt>
      <trkpt lat="44.902374" lon="4.852990">
        <ele>160.682749</ele>
        <time>2017-06-05T13:57:37.000Z</time>
      </trkpt>
      <trkpt lat="44.902280" lon="4.852955">
        <ele>160.506661</ele>
        <time>2017-06-05T13:57:39.000Z</time>
      </trkpt>
      <trkpt lat="44.902176" lon="4.852925">
        <ele>160.314388</ele>
        <time>2017-06-05T13:57:41.000Z</time>
      </trkpt>
      <trkpt lat="44.902080" lon="4.852883">
        <ele>160.132341</ele>
        <time>2017-06-05T13:57:43.000Z</time>
      </trkpt>
      <trkpt lat="44.901980" lon="4.852829">
        <ele>159.938408</ele>
        <time>2017-06-05T13:57:45.000Z</time>
      </trkpt>
      <trkpt lat="44.901894" lon="4.852786">
        <ele>159.942577</ele>
        <time>2017-06-05T13:57:47.000Z</time>
      </trkpt>
      <trkpt lat="44.901794" lon="4.852740">
        <ele>160.005315</ele>
        <time>2017-06-05T13:57:49.000Z</time>
      </trkpt>
      <trkpt lat="44.901690" lon="4.852699">
        <ele>160.069726</ele>
        <time>2017-06-05T13:57:51.000Z</time>
      </trkpt>
      <trkpt lat="44.901585" lon="4.852661">
        <ele>160.134385</ele>
        <time>2017-06-05T13:57:53.000Z</time>
      </trkpt>
      <trkpt lat="44.901474" lon="4.852622">
        <ele>160.202618</ele>
        <time>2017-06-05T13:57:55.000Z</time>
      </trkpt>
      <trkpt lat="44.901367" lon="4.852588">
        <ele>160.268042</ele>
        <time>2017-06-05T13:57:57.000Z</time>
      </trkpt>
      <trkpt lat="44.901264" lon="4.852528">
        <ele>160.334508</ele>
        <time>2017-06-05T13:57:59.000Z</time>
      </trkpt>
      <trkpt lat="44.901150" lon="4.852479">
        <ele>160.405592</ele>
        <time>2017-06-05T13:58:01.000Z</time>
      </trkpt>
      <trkpt lat="44.901030" lon="4.852465">
        <ele>160.477418</ele>
        <time>2017-06-05T13:58:03.000Z</time>
      </trkpt>
      <trkpt lat="44.900917" lon="4.852459">
        <ele>160.544872</ele>
        <time>2017-06-05T13:58:05.000Z</time>
      </trkpt>
      <trkpt lat="44.900806" lon="4.852443">
        <ele>160.611430</ele>
        <time>2017-06-05T13:58:07.000Z</time>
      </trkpt>
      <trkpt lat="44.900692" lon="4.852435">
        <ele>160.679516</ele>
        <time>2017-06-05T13:58:09.000Z</time>
      </trkpt>
      <trkpt lat="44.900585" lon="4.852418">
        <ele>160.743746</ele>
        <time>2017-06-05T13:58:11.000Z</time>
      </trkpt>
      <trkpt lat="44.900486" lon="4.852398">
        <ele>160.803403</ele>
        <time>2017-06-05T13:58:13.000Z</time>
      </trkpt>
      <trkpt lat="44.900380" lon="4.852386">
        <ele>160.866837</ele>
        <time>2017-06-05T13:58:15.000Z</time>
      </trkpt>
      <trkpt lat="44.900272" lon="4.852375">
        <ele>160.931428</ele>
        <time>2017-06-05T13:58:17.000Z</time>
      </trkpt>
      <trkpt lat="44.900158" lon="4.852352">
        <ele>160.982947</ele>
        <time>2017-06-05T13:58:19.000Z</time>
      </trkpt>
      <trkpt lat="44.900050" lon="4.852336">
        <ele>161.005899</ele>
        <time>2017-06-05T13:58:21.000Z</time>
      </trkpt>
      <trkpt lat="44.899952" lon="4.852319">
        <ele>161.026768</ele>
        <time>2017-06-05T13:58:23.000Z</time>
      </trkpt>
      <trkpt lat="44.899850" lon="4.852299">
        <ele>161.048533</ele>
        <time>2017-06-05T13:58:25.000Z</time>
      </trkpt>
      <trkpt lat="44.899750" lon="4.852283">
        <ele>161.069804</ele>
        <time>2017-06-05T13:58:27.000Z</time>
      </trkpt>
      <trkpt lat="44.899643" lon="4.852270">
        <ele>161.092503</ele>
        <time>2017-06-05T13:58:29.000Z</time>
      </trkpt>
      <trkpt lat="44.899525" lon="4.852259">
        <ele>161.117497</ele>
        <time>2017-06-05T13:58:31.000Z</time>
      </trkpt>
      <trkpt lat="44.899414" lon="4.852248">
        <ele>161.141016</ele>
        <time>2017-06-05T13:58:33.000Z</time>
      </trkpt>
      <trkpt lat="44.899310" lon="4.852243">
        <ele>161.163010</ele>
        <time>2017-06-05T13:58:35.000Z</time>
      </trkpt>
      <trkpt lat="44.899204" lon="4.852239">
        <ele>161.185422</ele>
        <time>2017-06-05T13:58:37.000Z</time>
      </trkpt>
      <trkpt lat="44.899094" lon="4.852223">
        <ele>161.208794</ele>
        <time>2017-06-05T13:58:39.000Z</time>
      </trkpt>
      <trkpt lat="44.898990" lon="4.852213">
        <ele>161.230826</ele>
        <time>2017-06-05T13:58:41.000Z</time>
      </trkpt>
      <trkpt lat="44.898880" lon="4.852211">
        <ele>161.254077</ele>
        <time>2017-06-05T13:58:43.000Z</time>
      </trkpt>
      <trkpt lat="44.898780" lon="4.852205">
        <ele>161.275232</ele>
        <time>2017-06-05T13:58:45.000Z</time>
      </trkpt>
      <trkpt lat="44.898685" lon="4.852196">
        <ele>161.295356</ele>
        <time>2017-06-05T13:58:47.000Z</time>
      </trkpt>
      <trkpt lat="44.898590" lon="4.852188">
        <ele>161.315471</ele>
        <time>2017-06-05T13:58:49.000Z</time>
      </trkpt>
      <trkpt lat="44.898483" lon="4.852181">
        <ele>161.338110</ele>
        <time>2017-06-05T13:58:51.000Z</time>
      </trkpt>
      <trkpt lat="44.898384" lon="4.852161">
        <ele>161.324367</ele>
        <time>2017-06-05T13:58:53.000Z</time>
      </trkpt>
      <trkpt lat="44.898280" lon="4.852148">
        <ele>161.208222</ele>
        <time>2017-06-05T13:58:55.000Z</time>
      </trkpt>
      <trkpt lat="44.898174" lon="4.852134">
        <ele>161.089789</ele>
        <time>2017-06-05T13:58:57.000Z</time>
      </trkpt>
      <trkpt lat="44.898067" lon="4.852119">
        <ele>160.970174</ele>
        <time>2017-06-05T13:58:59.000Z</time>
      </trkpt>
      <trkpt lat="44.897960" lon="4.852109">
        <ele>160.850883</ele>
        <time>2017-06-05T13:59:01.000Z</time>
      </trkpt>
      <trkpt lat="44.897865" lon="4.852098">
        <ele>160.744847</ele>
        <time>2017-06-05T13:59:03.000Z</time>
      </trkpt>
      <trkpt lat="44.897760" lon="4.852083">
        <ele>160.627446</ele>
        <time>2017-06-05T13:59:05.000Z</time>
      </trkpt>
      <trkpt lat="44.897650" lon="4.852073">
        <ele>160.504825</ele>
        <time>2017-06-05T13:59:07.000Z</time>
      </trkpt>
      <trkpt lat="44.897545" lon="4.852057">
        <ele>160.387341</ele>
        <time>2017-06-05T13:59:09.000Z</time>
      </trkpt>
      <trkpt lat="44.897438" lon="4.852044">
        <ele>160.267871</ele>
        <time>2017-06-05T13:59:11.000Z</time>
      </trkpt>
      <trkpt lat="44.897335" lon="4.852029">
        <ele>160.152682</ele>
        <time>2017-06-05T13:59:13.000Z</time>
      </trkpt>
      <trkpt lat="44.897232" lon="4.852021">
        <ele>160.037929</ele>
        <time>2017-06-05T13:59:15.000Z</time>
      </trkpt>
      <trkpt lat="44.897133" lon="4.852013">
        <ele>159.927618</ele>
        <time>2017-06-05T13:59:17.000Z</time>
      </trkpt>
      <trkpt lat="44.897026" lon="4.852003">
        <ele>159.808327</ele>
        <time>2017-06-05T13:59:19.000Z</time>
      </trkpt>
      <trkpt lat="44.896920" lon="4.851996">
        <ele>159.690280</ele>
        <time>2017-06-05T13:59:21.000Z</time>
      </trkpt>
      <trkpt lat="44.896812" lon="4.851986">
        <ele>159.569880</ele>
        <time>2017-06-05T13:59:23.000Z</time>
      </trkpt>
      <trkpt lat="44.896706" lon="4.851972">
        <ele>159.451447</ele>
        <time>2017-06-05T13:59:25.000Z</time>
      </trkpt>
      <trkpt lat="44.896603" lon="4.851957">
        <ele>159.335048</ele>
        <time>2017-06-05T13:59:27.000Z</time>
      </trkpt>
      <trkpt lat="44.896492" lon="4.851952">
        <ele>159.202467</ele>
        <time>2017-06-05T13:59:29.000Z</time>
      </trkpt>
      <trkpt lat="44.896385" lon="4.851943">
        <ele>159.074503</ele>
        <time>2017-06-05T13:59:31.000Z</time>
      </trkpt>
      <trkpt lat="44.896282" lon="4.851937">
        <ele>158.951435</ele>
        <time>2017-06-05T13:59:33.000Z</time>
      </trkpt>
      <trkpt lat="44.896175" lon="4.851933">
        <ele>158.823653</ele>
        <time>2017-06-05T13:59:35.000Z</time>
      </trkpt>
      <trkpt lat="44.896070" lon="4.851925">
        <ele>158.698120</ele>
        <time>2017-06-05T13:59:37.000Z</time>
      </trkpt>
      <trkpt lat="44.895966" lon="4.851916">
        <ele>158.573731</ele>
        <time>2017-06-05T13:59:39.000Z</time>
      </trkpt>
      <trkpt lat="44.895855" lon="4.851908">
        <ele>158.441045</ele>
        <time>2017-06-05T13:59:41.000Z</time>
      </trkpt>
      <trkpt lat="44.895752" lon="4.851894">
        <ele>158.317514</ele>
        <time>2017-06-05T13:59:43.000Z</time>
      </trkpt>
      <trkpt lat="44.895650" lon="4.851887">
        <ele>158.195601</ele>
        <time>2017-06-05T13:59:45.000Z</time>
      </trkpt>
      <trkpt lat="44.895550" lon="4.851877">
        <ele>158.075921</ele>
        <time>2017-06-05T13:59:47.000Z</time>
      </trkpt>
      <trkpt lat="44.895454" lon="4.851864">
        <ele>157.960789</ele>
        <time>2017-06-05T13:59:49.000Z</time>
      </trkpt>
      <trkpt lat="44.895350" lon="4.851854">
        <ele>157.836344</ele>
        <time>2017-06-05T13:59:51.000Z</time>
      </trkpt>
      <trkpt lat="44.895252" lon="4.851846">
        <ele>157.719155</ele>
        <time>2017-06-05T13:59:53.000Z</time>
      </trkpt>
      <trkpt lat="44.895150" lon="4.851831">
        <ele>157.596728</ele>
        <time>2017-06-05T13:59:55.000Z</time>
      </trkpt>
      <trkpt lat="44.895042" lon="4.851820">
        <ele>157.467461</ele>
        <time>2017-06-05T13:59:57.000Z</time>
      </trkpt>
      <trkpt lat="44.894950" lon="4.851805">
        <ele>157.356900</ele>
        <time>2017-06-05T13:59:59.000Z</time>
      </trkpt>
      <trkpt lat="44.894860" lon="4.851791">
        <ele>157.248807</ele>
        <time>2017-06-05T14:00:01.000Z</time>
      </trkpt>
      <trkpt lat="44.894768" lon="4.851782">
        <ele>157.163663</ele>
        <time>2017-06-05T14:00:03.000Z</time>
      </trkpt>
      <trkpt lat="44.894638" lon="4.851769">
        <ele>157.066141</ele>
        <time>2017-06-05T14:00:06.000Z</time>
      </trkpt>
      <trkpt lat="44.894543" lon="4.851768">
        <ele>156.995051</ele>
        <time>2017-06-05T14:00:08.000Z</time>
      </trkpt>
      <trkpt lat="44.894447" lon="4.851771">
        <ele>156.923197</ele>
        <time>2017-06-05T14:00:10.000Z</time>
      </trkpt>
      <trkpt lat="44.894344" lon="4.851769">
        <ele>156.846116</ele>
        <time>2017-06-05T14:00:12.000Z</time>
      </trkpt>
      <trkpt lat="44.894245" lon="4.851769">
        <ele>156.772034</ele>
        <time>2017-06-05T14:00:14.000Z</time>
      </trkpt>
      <trkpt lat="44.894142" lon="4.851761">
        <ele>156.694843</ele>
        <time>2017-06-05T14:00:16.000Z</time>
      </trkpt>
      <trkpt lat="44.894043" lon="4.851761">
        <ele>156.620762</ele>
        <time>2017-06-05T14:00:18.000Z</time>
      </trkpt>
      <trkpt lat="44.893940" lon="4.851758">
        <ele>156.543671</ele>
        <time>2017-06-05T14:00:20.000Z</time>
      </trkpt>
      <trkpt lat="44.893837" lon="4.851755">
        <ele>156.466581</ele>
        <time>2017-06-05T14:00:22.000Z</time>
      </trkpt>
      <trkpt lat="44.893745" lon="4.851757">
        <ele>156.397729</ele>
        <time>2017-06-05T14:00:24.000Z</time>
      </trkpt>
      <trkpt lat="44.893650" lon="4.851757">
        <ele>156.326641</ele>
        <time>2017-06-05T14:00:26.000Z</time>
      </trkpt>
      <trkpt lat="44.893540" lon="4.851757">
        <ele>156.244329</ele>
        <time>2017-06-05T14:00:28.000Z</time>
      </trkpt>
      <trkpt lat="44.893417" lon="4.851755">
        <ele>156.152282</ele>
        <time>2017-06-05T14:00:30.000Z</time>
      </trkpt>
      <trkpt lat="44.893290" lon="4.851744">
        <ele>156.057070</ele>
        <time>2017-06-05T14:00:32.000Z</time>
      </trkpt>
      <trkpt lat="44.893158" lon="4.851729">
        <ele>155.957976</ele>
        <time>2017-06-05T14:00:34.000Z</time>
      </trkpt>
      <trkpt lat="44.893024" lon="4.851715">
        <ele>155.856503</ele>
        <time>2017-06-05T14:00:36.000Z</time>
      </trkpt>
      <trkpt lat="44.892895" lon="4.851711">
        <ele>155.719756</ele>
        <time>2017-06-05T14:00:38.000Z</time>
      </trkpt>
      <trkpt lat="44.892773" lon="4.851724">
        <ele>155.590093</ele>
        <time>2017-06-05T14:00:40.000Z</time>
      </trkpt>
      <trkpt lat="44.892650" lon="4.851734">
        <ele>155.459521</ele>
        <time>2017-06-05T14:00:42.000Z</time>
      </trkpt>
      <trkpt lat="44.892530" lon="4.851747">
        <ele>155.331971</ele>
        <time>2017-06-05T14:00:44.000Z</time>
      </trkpt>
      <trkpt lat="44.892414" lon="4.851757">
        <ele>155.208806</ele>
        <time>2017-06-05T14:00:46.000Z</time>
      </trkpt>
      <trkpt lat="44.892290" lon="4.851778">
        <ele>155.076448</ele>
        <time>2017-06-05T14:00:48.000Z</time>
      </trkpt>
      <trkpt lat="44.892162" lon="4.851807">
        <ele>154.939057</ele>
        <time>2017-06-05T14:00:50.000Z</time>
      </trkpt>
      <trkpt lat="44.892036" lon="4.851837">
        <ele>154.803636</ele>
        <time>2017-06-05T14:00:52.000Z</time>
      </trkpt>
      <trkpt lat="44.891910" lon="4.851869">
        <ele>154.667958</ele>
        <time>2017-06-05T14:00:54.000Z</time>
      </trkpt>
      <trkpt lat="44.891785" lon="4.851893">
        <ele>154.534263</ele>
        <time>2017-06-05T14:00:56.000Z</time>
      </trkpt>
      <trkpt lat="44.891660" lon="4.851920">
        <ele>154.400246</ele>
        <time>2017-06-05T14:00:58.000Z</time>
      </trkpt>
      <trkpt lat="44.891537" lon="4.851950">
        <ele>154.267959</ele>
        <time>2017-06-05T14:01:00.000Z</time>
      </trkpt>
      <trkpt lat="44.891410" lon="4.851977">
        <ele>154.131846</ele>
        <time>2017-06-05T14:01:02.000Z</time>
      </trkpt>
      <trkpt lat="44.891280" lon="4.852007">
        <ele>153.992243</ele>
        <time>2017-06-05T14:01:04.000Z</time>
      </trkpt>
      <trkpt lat="44.891148" lon="4.852037">
        <ele>153.959323</ele>
        <time>2017-06-05T14:01:06.000Z</time>
      </trkpt>
      <trkpt lat="44.891026" lon="4.852066">
        <ele>153.966802</ele>
        <time>2017-06-05T14:01:08.000Z</time>
      </trkpt>
      <trkpt lat="44.890907" lon="4.852094">
        <ele>153.974094</ele>
        <time>2017-06-05T14:01:10.000Z</time>
      </trkpt>
      <trkpt lat="44.890785" lon="4.852120">
        <ele>153.981552</ele>
        <time>2017-06-05T14:01:12.000Z</time>
      </trkpt>
      <trkpt lat="44.890670" lon="4.852149">
        <ele>153.988614</ele>
        <time>2017-06-05T14:01:14.000Z</time>
      </trkpt>
      <trkpt lat="44.890550" lon="4.852177">
        <ele>153.995966</ele>
        <time>2017-06-05T14:01:16.000Z</time>
      </trkpt>
      <trkpt lat="44.890434" lon="4.852205">
        <ele>154.003080</ele>
        <time>2017-06-05T14:01:18.000Z</time>
      </trkpt>
      <trkpt lat="44.890320" lon="4.852229">
        <ele>154.010047</ele>
        <time>2017-06-05T14:01:20.000Z</time>
      </trkpt>
      <trkpt lat="44.890205" lon="4.852255">
        <ele>154.017087</ele>
        <time>2017-06-05T14:01:22.000Z</time>
      </trkpt>
      <trkpt lat="44.890100" lon="4.852271">
        <ele>154.023471</ele>
        <time>2017-06-05T14:01:24.000Z</time>
      </trkpt>
      <trkpt lat="44.890007" lon="4.852270">
        <ele>154.029093</ele>
        <time>2017-06-05T14:01:26.000Z</time>
      </trkpt>
      <trkpt lat="44.889908" lon="4.852318">
        <ele>154.035420</ele>
        <time>2017-06-05T14:01:30.000Z</time>
      </trkpt>
      <trkpt lat="44.889820" lon="4.852349">
        <ele>154.040903</ele>
        <time>2017-06-05T14:01:33.000Z</time>
      </trkpt>
      <trkpt lat="44.889725" lon="4.852355">
        <ele>154.046651</ele>
        <time>2017-06-05T14:01:36.000Z</time>
      </trkpt>
      <trkpt lat="44.889630" lon="4.852372">
        <ele>154.052439</ele>
        <time>2017-06-05T14:01:39.000Z</time>
      </trkpt>
      <trkpt lat="44.889507" lon="4.852387">
        <ele>154.059902</ele>
        <time>2017-06-05T14:01:42.000Z</time>
      </trkpt>
      <trkpt lat="44.889400" lon="4.852425">
        <ele>154.127976</ele>
        <time>2017-06-05T14:01:45.000Z</time>
      </trkpt>
      <trkpt lat="44.889317" lon="4.852466">
        <ele>154.207568</ele>
        <time>2017-06-05T14:01:47.000Z</time>
      </trkpt>
      <trkpt lat="44.889206" lon="4.852497">
        <ele>154.309984</ele>
        <time>2017-06-05T14:01:50.000Z</time>
      </trkpt>
      <trkpt lat="44.889076" lon="4.852529">
        <ele>154.429424</ele>
        <time>2017-06-05T14:01:53.000Z</time>
      </trkpt>
      <trkpt lat="44.888947" lon="4.852569">
        <ele>154.548968</ele>
        <time>2017-06-05T14:01:56.000Z</time>
      </trkpt>
      <trkpt lat="44.888824" lon="4.852616">
        <ele>154.664304</ele>
        <time>2017-06-05T14:01:59.000Z</time>
      </trkpt>
      <trkpt lat="44.888700" lon="4.852649">
        <ele>154.778516</ele>
        <time>2017-06-05T14:02:02.000Z</time>
      </trkpt>
      <trkpt lat="44.888580" lon="4.852690">
        <ele>154.890266</ele>
        <time>2017-06-05T14:02:05.000Z</time>
      </trkpt>
      <trkpt lat="44.888493" lon="4.852756">
        <ele>154.979664</ele>
        <time>2017-06-05T14:02:08.000Z</time>
      </trkpt>
      <trkpt lat="44.888393" lon="4.852837">
        <ele>155.084020</ele>
        <time>2017-06-05T14:02:11.000Z</time>
      </trkpt>
      <trkpt lat="44.888264" lon="4.852892">
        <ele>155.205990</ele>
        <time>2017-06-05T14:02:14.000Z</time>
      </trkpt>
      <trkpt lat="44.888172" lon="4.852934">
        <ele>155.293508</ele>
        <time>2017-06-05T14:02:16.000Z</time>
      </trkpt>
      <trkpt lat="44.888077" lon="4.852977">
        <ele>155.383807</ele>
        <time>2017-06-05T14:02:18.000Z</time>
      </trkpt>
      <trkpt lat="44.887990" lon="4.853019">
        <ele>155.467030</ele>
        <time>2017-06-05T14:02:20.000Z</time>
      </trkpt>
      <trkpt lat="44.887863" lon="4.853087">
        <ele>155.589972</ele>
        <time>2017-06-05T14:02:23.000Z</time>
      </trkpt>
      <trkpt lat="44.887775" lon="4.853138">
        <ele>155.676075</ele>
        <time>2017-06-05T14:02:25.000Z</time>
      </trkpt>
      <trkpt lat="44.887684" lon="4.853182">
        <ele>155.807125</ele>
        <time>2017-06-05T14:02:27.000Z</time>
      </trkpt>
      <trkpt lat="44.887560" lon="4.853232">
        <ele>155.994194</ele>
        <time>2017-06-05T14:02:30.000Z</time>
      </trkpt>
      <trkpt lat="44.887478" lon="4.853287">
        <ele>156.125889</ele>
        <time>2017-06-05T14:02:32.000Z</time>
      </trkpt>
      <trkpt lat="44.887386" lon="4.853336">
        <ele>156.268528</ele>
        <time>2017-06-05T14:02:34.000Z</time>
      </trkpt>
      <trkpt lat="44.887295" lon="4.853393">
        <ele>156.412946</ele>
        <time>2017-06-05T14:02:36.000Z</time>
      </trkpt>
      <trkpt lat="44.887207" lon="4.853433">
        <ele>156.547054</ele>
        <time>2017-06-05T14:02:38.000Z</time>
      </trkpt>
      <trkpt lat="44.887108" lon="4.853475">
        <ele>156.697008</ele>
        <time>2017-06-05T14:02:40.000Z</time>
      </trkpt>
      <trkpt lat="44.887020" lon="4.853527">
        <ele>156.835395</ele>
        <time>2017-06-05T14:02:42.000Z</time>
      </trkpt>
      <trkpt lat="44.886906" lon="4.853611">
        <ele>157.021940</ele>
        <time>2017-06-05T14:02:45.000Z</time>
      </trkpt>
      <trkpt lat="44.886826" lon="4.853668">
        <ele>157.151935</ele>
        <time>2017-06-05T14:02:47.000Z</time>
      </trkpt>
      <trkpt lat="44.886734" lon="4.853731">
        <ele>157.300266</ele>
        <time>2017-06-05T14:02:49.000Z</time>
      </trkpt>
      <trkpt lat="44.886646" lon="4.853788">
        <ele>157.440718</ele>
        <time>2017-06-05T14:02:51.000Z</time>
      </trkpt>
      <trkpt lat="44.886562" lon="4.853840">
        <ele>157.573771</ele>
        <time>2017-06-05T14:02:53.000Z</time>
      </trkpt>
      <trkpt lat="44.886475" lon="4.853900">
        <ele>157.714232</ele>
        <time>2017-06-05T14:02:55.000Z</time>
      </trkpt>
      <trkpt lat="44.886395" lon="4.853971">
        <ele>157.851314</ele>
        <time>2017-06-05T14:02:57.000Z</time>
      </trkpt>
      <trkpt lat="44.886307" lon="4.854029">
        <ele>157.992198</ele>
        <time>2017-06-05T14:02:59.000Z</time>
      </trkpt>
      <trkpt lat="44.886185" lon="4.854109">
        <ele>158.187336</ele>
        <time>2017-06-05T14:03:02.000Z</time>
      </trkpt>
      <trkpt lat="44.886090" lon="4.854168">
        <ele>158.262463</ele>
        <time>2017-06-05T14:03:04.000Z</time>
      </trkpt>
      <trkpt lat="44.886005" lon="4.854228">
        <ele>158.131329</ele>
        <time>2017-06-05T14:03:06.000Z</time>
      </trkpt>
      <trkpt lat="44.885925" lon="4.854287">
        <ele>158.006783</ele>
        <time>2017-06-05T14:03:08.000Z</time>
      </trkpt>
      <trkpt lat="44.885807" lon="4.854374">
        <ele>157.823089</ele>
        <time>2017-06-05T14:03:11.000Z</time>
      </trkpt>
      <trkpt lat="44.885690" lon="4.854446">
        <ele>157.646973</ele>
        <time>2017-06-05T14:03:14.000Z</time>
      </trkpt>
      <trkpt lat="44.885586" lon="4.854523">
        <ele>157.484927</ele>
        <time>2017-06-05T14:03:17.000Z</time>
      </trkpt>
      <trkpt lat="44.885483" lon="4.854603">
        <ele>157.322708</ele>
        <time>2017-06-05T14:03:20.000Z</time>
      </trkpt>
      <trkpt lat="44.885357" lon="4.854663">
        <ele>157.139224</ele>
        <time>2017-06-05T14:03:23.000Z</time>
      </trkpt>
      <trkpt lat="44.885227" lon="4.854680">
        <ele>156.959080</ele>
        <time>2017-06-05T14:03:26.000Z</time>
      </trkpt>
      <trkpt lat="44.885105" lon="4.854652">
        <ele>156.788532</ele>
        <time>2017-06-05T14:03:29.000Z</time>
      </trkpt>
      <trkpt lat="44.885014" lon="4.854659">
        <ele>156.662783</ele>
        <time>2017-06-05T14:03:31.000Z</time>
      </trkpt>
      <trkpt lat="44.884876" lon="4.854677">
        <ele>156.471558</ele>
        <time>2017-06-05T14:03:34.000Z</time>
      </trkpt>
      <trkpt lat="44.884780" lon="4.854697">
        <ele>156.337661</ele>
        <time>2017-06-05T14:03:36.000Z</time>
      </trkpt>
      <trkpt lat="44.884693" lon="4.854747">
        <ele>156.208047</ele>
        <time>2017-06-05T14:03:38.000Z</time>
      </trkpt>
      <trkpt lat="44.884610" lon="4.854805">
        <ele>156.080254</ele>
        <time>2017-06-05T14:03:40.000Z</time>
      </trkpt>
      <trkpt lat="44.884510" lon="4.854829">
        <ele>155.940292</ele>
        <time>2017-06-05T14:03:42.000Z</time>
      </trkpt>
      <trkpt lat="44.884396" lon="4.854852">
        <ele>155.763359</ele>
        <time>2017-06-05T14:03:44.000Z</time>
      </trkpt>
      <trkpt lat="44.884293" lon="4.854874">
        <ele>155.547715</ele>
        <time>2017-06-05T14:03:46.000Z</time>
      </trkpt>
      <trkpt lat="44.884190" lon="4.854894">
        <ele>155.332491</ele>
        <time>2017-06-05T14:03:48.000Z</time>
      </trkpt>
      <trkpt lat="44.884094" lon="4.854895">
        <ele>155.133760</ele>
        <time>2017-06-05T14:03:50.000Z</time>
      </trkpt>
      <trkpt lat="44.883995" lon="4.854901">
        <ele>154.928635</ele>
        <time>2017-06-05T14:03:52.000Z</time>
      </trkpt>
      <trkpt lat="44.883904" lon="4.854914">
        <ele>154.739297</ele>
        <time>2017-06-05T14:03:54.000Z</time>
      </trkpt>
      <trkpt lat="44.883770" lon="4.854931">
        <ele>154.460791</ele>
        <time>2017-06-05T14:03:57.000Z</time>
      </trkpt>
      <trkpt lat="44.883680" lon="4.854941">
        <ele>154.273909</ele>
        <time>2017-06-05T14:03:59.000Z</time>
      </trkpt>
      <trkpt lat="44.883580" lon="4.854949">
        <ele>154.066571</ele>
        <time>2017-06-05T14:04:01.000Z</time>
      </trkpt>
      <trkpt lat="44.883480" lon="4.854945">
        <ele>153.859482</ele>
        <time>2017-06-05T14:04:03.000Z</time>
      </trkpt>
      <trkpt lat="44.883380" lon="4.854950">
        <ele>153.652347</ele>
        <time>2017-06-05T14:04:05.000Z</time>
      </trkpt>
      <trkpt lat="44.883270" lon="4.854946">
        <ele>153.424565</ele>
        <time>2017-06-05T14:04:07.000Z</time>
      </trkpt>
      <trkpt lat="44.883167" lon="4.854937">
        <ele>153.210940</ele>
        <time>2017-06-05T14:04:09.000Z</time>
      </trkpt>
      <trkpt lat="44.883070" lon="4.854899">
        <ele>153.002553</ele>
        <time>2017-06-05T14:04:11.000Z</time>
      </trkpt>
      <trkpt lat="44.882977" lon="4.854861">
        <ele>152.802131</ele>
        <time>2017-06-05T14:04:13.000Z</time>
      </trkpt>
      <trkpt lat="44.882877" lon="4.854805">
        <ele>152.579425</ele>
        <time>2017-06-05T14:04:15.000Z</time>
      </trkpt>
      <trkpt lat="44.882782" lon="4.854738">
        <ele>152.359583</ele>
        <time>2017-06-05T14:04:17.000Z</time>
      </trkpt>
      <trkpt lat="44.882683" lon="4.854677">
        <ele>152.135968</ele>
        <time>2017-06-05T14:04:19.000Z</time>
      </trkpt>
      <trkpt lat="44.882587" lon="4.854617">
        <ele>152.031700</ele>
        <time>2017-06-05T14:04:21.000Z</time>
      </trkpt>
      <trkpt lat="44.882490" lon="4.854567">
        <ele>151.955641</ele>
        <time>2017-06-05T14:04:23.000Z</time>
      </trkpt>
      <trkpt lat="44.882385" lon="4.854514">
        <ele>151.873508</ele>
        <time>2017-06-05T14:04:25.000Z</time>
      </trkpt>
      <trkpt lat="44.882282" lon="4.854463">
        <ele>151.793112</ele>
        <time>2017-06-05T14:04:27.000Z</time>
      </trkpt>
      <trkpt lat="44.882187" lon="4.854403">
        <ele>151.716455</ele>
        <time>2017-06-05T14:04:29.000Z</time>
      </trkpt>
      <trkpt lat="44.882090" lon="4.854348">
        <ele>151.639461</ele>
        <time>2017-06-05T14:04:31.000Z</time>
      </trkpt>
      <trkpt lat="44.881990" lon="4.854294">
        <ele>151.560601</ele>
        <time>2017-06-05T14:04:33.000Z</time>
      </trkpt>
      <trkpt lat="44.881886" lon="4.854248">
        <ele>151.480328</ele>
        <time>2017-06-05T14:04:35.000Z</time>
      </trkpt>
      <trkpt lat="44.881790" lon="4.854199">
        <ele>151.405139</ele>
        <time>2017-06-05T14:04:37.000Z</time>
      </trkpt>
      <trkpt lat="44.881695" lon="4.854159">
        <ele>151.332121</ele>
        <time>2017-06-05T14:04:39.000Z</time>
      </trkpt>
      <trkpt lat="44.881603" lon="4.854121">
        <ele>151.261518</ele>
        <time>2017-06-05T14:04:41.000Z</time>
      </trkpt>
      <trkpt lat="44.881485" lon="4.854086">
        <ele>151.172708</ele>
        <time>2017-06-05T14:04:44.000Z</time>
      </trkpt>
      <trkpt lat="44.881393" lon="4.854066">
        <ele>151.104148</ele>
        <time>2017-06-05T14:04:46.000Z</time>
      </trkpt>
      <trkpt lat="44.881298" lon="4.854044">
        <ele>151.033242</ele>
        <time>2017-06-05T14:04:48.000Z</time>
      </trkpt>
      <trkpt lat="44.881200" lon="4.854024">
        <ele>150.960312</ele>
        <time>2017-06-05T14:04:50.000Z</time>
      </trkpt>
      <trkpt lat="44.881104" lon="4.854009">
        <ele>150.889173</ele>
        <time>2017-06-05T14:04:52.000Z</time>
      </trkpt>
      <trkpt lat="44.881010" lon="4.853982">
        <ele>150.818520</ele>
        <time>2017-06-05T14:04:54.000Z</time>
      </trkpt>
      <trkpt lat="44.880924" lon="4.853912">
        <ele>150.758085</ele>
        <time>2017-06-05T14:04:56.000Z</time>
      </trkpt>
      <trkpt lat="44.880833" lon="4.853769">
        <ele>150.710803</ele>
        <time>2017-06-05T14:04:59.000Z</time>
      </trkpt>
      <trkpt lat="44.880780" lon="4.853656">
        <ele>150.677467</ele>
        <time>2017-06-05T14:05:01.000Z</time>
      </trkpt>
      <trkpt lat="44.880726" lon="4.853549">
        <ele>150.645151</ele>
        <time>2017-06-05T14:05:03.000Z</time>
      </trkpt>
      <trkpt lat="44.880665" lon="4.853435">
        <ele>150.610009</ele>
        <time>2017-06-05T14:05:05.000Z</time>
      </trkpt>
      <trkpt lat="44.880615" lon="4.853316">
        <ele>150.575975</ele>
        <time>2017-06-05T14:05:07.000Z</time>
      </trkpt>
      <trkpt lat="44.880566" lon="4.853202">
        <ele>150.543175</ele>
        <time>2017-06-05T14:05:09.000Z</time>
      </trkpt>
      <trkpt lat="44.880520" lon="4.853094">
        <ele>150.512177</ele>
        <time>2017-06-05T14:05:11.000Z</time>
      </trkpt>
      <trkpt lat="44.880455" lon="4.852933">
        <ele>150.466593</ele>
        <time>2017-06-05T14:05:14.000Z</time>
      </trkpt>
      <trkpt lat="44.880390" lon="4.852775">
        <ele>150.421649</ele>
        <time>2017-06-05T14:05:17.000Z</time>
      </trkpt>
      <trkpt lat="44.880330" lon="4.852668">
        <ele>150.388081</ele>
        <time>2017-06-05T14:05:19.000Z</time>
      </trkpt>
      <trkpt lat="44.880257" lon="4.852547">
        <ele>150.348987</ele>
        <time>2017-06-05T14:05:21.000Z</time>
      </trkpt>
      <trkpt lat="44.880165" lon="4.852441">
        <ele>150.307755</ele>
        <time>2017-06-05T14:05:23.000Z</time>
      </trkpt>
      <trkpt lat="44.880080" lon="4.852358">
        <ele>150.271870</ele>
        <time>2017-06-05T14:05:25.000Z</time>
      </trkpt>
      <trkpt lat="44.879982" lon="4.852313">
        <ele>150.236091</ele>
        <time>2017-06-05T14:05:27.000Z</time>
      </trkpt>
      <trkpt lat="44.879852" lon="4.852361">
        <ele>150.189439</ele>
        <time>2017-06-05T14:05:30.000Z</time>
      </trkpt>
      <trkpt lat="44.879726" lon="4.852380">
        <ele>150.145446</ele>
        <time>2017-06-05T14:05:33.000Z</time>
      </trkpt>
      <trkpt lat="44.879593" lon="4.852331">
        <ele>150.243544</ele>
        <time>2017-06-05T14:05:36.000Z</time>
      </trkpt>
      <trkpt lat="44.879490" lon="4.852246">
        <ele>150.330013</ele>
        <time>2017-06-05T14:05:38.000Z</time>
      </trkpt>
      <trkpt lat="44.879417" lon="4.852147">
        <ele>150.403383</ele>
        <time>2017-06-05T14:05:40.000Z</time>
      </trkpt>
      <trkpt lat="44.879375" lon="4.852030">
        <ele>150.470734</ele>
        <time>2017-06-05T14:05:42.000Z</time>
      </trkpt>
      <trkpt lat="44.879356" lon="4.851843">
        <ele>150.567743</ele>
        <time>2017-06-05T14:05:45.000Z</time>
      </trkpt>
      <trkpt lat="44.879356" lon="4.851665">
        <ele>150.659149</ele>
        <time>2017-06-05T14:05:48.000Z</time>
      </trkpt>
      <trkpt lat="44.879383" lon="4.851459">
        <ele>150.766728</ele>
        <time>2017-06-05T14:05:51.000Z</time>
      </trkpt>
      <trkpt lat="44.879433" lon="4.851335">
        <ele>150.839991</ele>
        <time>2017-06-05T14:05:53.000Z</time>
      </trkpt>
      <trkpt lat="44.879498" lon="4.851238">
        <ele>150.908548</ele>
        <time>2017-06-05T14:05:55.000Z</time>
      </trkpt>
      <trkpt lat="44.879612" lon="4.851138">
        <ele>151.005822</ele>
        <time>2017-06-05T14:05:58.000Z</time>
      </trkpt>
      <trkpt lat="44.879723" lon="4.851042">
        <ele>151.100167</ele>
        <time>2017-06-05T14:06:01.000Z</time>
      </trkpt>
      <trkpt lat="44.879837" lon="4.850950">
        <ele>151.195336</ele>
        <time>2017-06-05T14:06:04.000Z</time>
      </trkpt>
      <trkpt lat="44.879944" lon="4.850863">
        <ele>151.284828</ele>
        <time>2017-06-05T14:06:07.000Z</time>
      </trkpt>
      <trkpt lat="44.880050" lon="4.850799">
        <ele>151.368381</ele>
        <time>2017-06-05T14:06:10.000Z</time>
      </trkpt>
      <trkpt lat="44.880160" lon="4.850730">
        <ele>151.446923</ele>
        <time>2017-06-05T14:06:13.000Z</time>
      </trkpt>
      <trkpt lat="44.880264" lon="4.850679">
        <ele>151.430279</ele>
        <time>2017-06-05T14:06:16.000Z</time>
      </trkpt>
      <trkpt lat="44.880370" lon="4.850661">
        <ele>151.414139</ele>
        <time>2017-06-05T14:06:19.000Z</time>
      </trkpt>
      <trkpt lat="44.880474" lon="4.850652">
        <ele>151.398387</ele>
        <time>2017-06-05T14:06:22.000Z</time>
      </trkpt>
      <trkpt lat="44.880573" lon="4.850674">
        <ele>151.383236</ele>
        <time>2017-06-05T14:06:25.000Z</time>
      </trkpt>
      <trkpt lat="44.880676" lon="4.850680">
        <ele>151.367652</ele>
        <time>2017-06-05T14:06:29.000Z</time>
      </trkpt>
      <trkpt lat="44.880596" lon="4.850600">
        <ele>151.352829</ele>
        <time>2017-06-05T14:06:40.000Z</time>
      </trkpt>
      <trkpt lat="44.880480" lon="4.850578">
        <ele>151.335135</ele>
        <time>2017-06-05T14:06:44.000Z</time>
      </trkpt>
      <trkpt lat="44.880390" lon="4.850557">
        <ele>151.321345</ele>
        <time>2017-06-05T14:06:47.000Z</time>
      </trkpt>
      <trkpt lat="44.880287" lon="4.850544">
        <ele>151.305712</ele>
        <time>2017-06-05T14:06:51.000Z</time>
      </trkpt>
      <trkpt lat="44.880184" lon="4.850540">
        <ele>151.290135</ele>
        <time>2017-06-05T14:06:55.000Z</time>
      </trkpt>
      <trkpt lat="44.880077" lon="4.850518">
        <ele>151.273788</ele>
        <time>2017-06-05T14:06:59.000Z</time>
      </trkpt>
      <trkpt lat="44.879960" lon="4.850496">
        <ele>151.255945</ele>
        <time>2017-06-05T14:07:03.000Z</time>
      </trkpt>
      <trkpt lat="44.879845" lon="4.850472">
        <ele>151.238370</ele>
        <time>2017-06-05T14:07:07.000Z</time>
      </trkpt>
      <trkpt lat="44.879745" lon="4.850446">
        <ele>151.222998</ele>
        <time>2017-06-05T14:07:11.000Z</time>
      </trkpt>
      <trkpt lat="44.879646" lon="4.850414">
        <ele>151.207645</ele>
        <time>2017-06-05T14:07:15.000Z</time>
      </trkpt>
      <trkpt lat="44.879530" lon="4.850388">
        <ele>151.189888</ele>
        <time>2017-06-05T14:07:20.000Z</time>
      </trkpt>
      <trkpt lat="44.879417" lon="4.850361">
        <ele>151.170739</ele>
        <time>2017-06-05T14:07:24.000Z</time>
      </trkpt>
      <trkpt lat="44.879307" lon="4.850321">
        <ele>151.145642</ele>
        <time>2017-06-05T14:07:28.000Z</time>
      </trkpt>
      <trkpt lat="44.879208" lon="4.850307">
        <ele>151.123659</ele>
        <time>2017-06-05T14:07:31.000Z</time>
      </trkpt>
      <trkpt lat="44.879112" lon="4.850284">
        <ele>151.102146</ele>
        <time>2017-06-05T14:07:34.000Z</time>
      </trkpt>
      <trkpt lat="44.879020" lon="4.850269">
        <ele>151.081684</ele>
        <time>2017-06-05T14:07:37.000Z</time>
      </trkpt>
      <trkpt lat="44.878906" lon="4.850263">
        <ele>151.056479</ele>
        <time>2017-06-05T14:07:41.000Z</time>
      </trkpt>
      <trkpt lat="44.878796" lon="4.850231">
        <ele>151.031665</ele>
        <time>2017-06-05T14:07:45.000Z</time>
      </trkpt>
      <trkpt lat="44.878690" lon="4.850211">
        <ele>151.008037</ele>
        <time>2017-06-05T14:07:49.000Z</time>
      </trkpt>
      <trkpt lat="44.878580" lon="4.850174">
        <ele>150.983052</ele>
        <time>2017-06-05T14:07:53.000Z</time>
      </trkpt>
      <trkpt lat="44.878483" lon="4.850130">
        <ele>150.960541</ele>
        <time>2017-06-05T14:07:56.000Z</time>
      </trkpt>
      <trkpt lat="44.878390" lon="4.850094">
        <ele>150.939235</ele>
        <time>2017-06-05T14:07:59.000Z</time>
      </trkpt>
      <trkpt lat="44.878304" lon="4.850064">
        <ele>150.919662</ele>
        <time>2017-06-05T14:08:02.000Z</time>
      </trkpt>
      <trkpt lat="44.878210" lon="4.850045">
        <ele>150.898682</ele>
        <time>2017-06-05T14:08:05.000Z</time>
      </trkpt>
      <trkpt lat="44.878117" lon="4.850031">
        <ele>150.878018</ele>
        <time>2017-06-05T14:08:08.000Z</time>
      </trkpt>
      <trkpt lat="44.878014" lon="4.850009">
        <ele>150.855002</ele>
        <time>2017-06-05T14:08:11.000Z</time>
      </trkpt>
      <trkpt lat="44.877907" lon="4.849993">
        <ele>150.831229</ele>
        <time>2017-06-05T14:08:14.000Z</time>
      </trkpt>
      <trkpt lat="44.877810" lon="4.849990">
        <ele>150.809792</ele>
        <time>2017-06-05T14:08:17.000Z</time>
      </trkpt>
      <trkpt lat="44.877712" lon="4.849999">
        <ele>150.788094</ele>
        <time>2017-06-05T14:08:20.000Z</time>
      </trkpt>
      <trkpt lat="44.877613" lon="4.850021">
        <ele>150.887597</ele>
        <time>2017-06-05T14:08:23.000Z</time>
      </trkpt>
      <trkpt lat="44.877514" lon="4.850054">
        <ele>151.072732</ele>
        <time>2017-06-05T14:08:26.000Z</time>
      </trkpt>
      <trkpt lat="44.877415" lon="4.850104">
        <ele>151.264101</ele>
        <time>2017-06-05T14:08:29.000Z</time>
      </trkpt>
      <trkpt lat="44.877316" lon="4.850148">
        <ele>151.453003</ele>
        <time>2017-06-05T14:08:32.000Z</time>
      </trkpt>
      <trkpt lat="44.877220" lon="4.850204">
        <ele>151.642059</ele>
        <time>2017-06-05T14:08:35.000Z</time>
      </trkpt>
      <trkpt lat="44.877125" lon="4.850264">
        <ele>151.831483</ele>
        <time>2017-06-05T14:08:38.000Z</time>
      </trkpt>
      <trkpt lat="44.877020" lon="4.850316">
        <ele>152.034006</ele>
        <time>2017-06-05T14:08:41.000Z</time>
      </trkpt>
      <trkpt lat="44.876915" lon="4.850335">
        <ele>152.226668</ele>
        <time>2017-06-05T14:08:44.000Z</time>
      </trkpt>
      <trkpt lat="44.876823" lon="4.850368">
        <ele>152.399429</ele>
        <time>2017-06-05T14:08:47.000Z</time>
      </trkpt>
      <trkpt lat="44.876730" lon="4.850396">
        <ele>152.572496</ele>
        <time>2017-06-05T14:08:50.000Z</time>
      </trkpt>
      <trkpt lat="44.876625" lon="4.850446">
        <ele>152.774180</ele>
        <time>2017-06-05T14:08:54.000Z</time>
      </trkpt>
      <trkpt lat="44.876530" lon="4.850483">
        <ele>152.953542</ele>
        <time>2017-06-05T14:08:57.000Z</time>
      </trkpt>
      <trkpt lat="44.876420" lon="4.850517">
        <ele>153.158485</ele>
        <time>2017-06-05T14:09:00.000Z</time>
      </trkpt>
      <trkpt lat="44.876305" lon="4.850550">
        <ele>153.372065</ele>
        <time>2017-06-05T14:09:03.000Z</time>
      </trkpt>
      <trkpt lat="44.876186" lon="4.850562">
        <ele>153.589194</ele>
        <time>2017-06-05T14:09:06.000Z</time>
      </trkpt>
      <trkpt lat="44.876064" lon="4.850587">
        <ele>153.813560</ele>
        <time>2017-06-05T14:09:09.000Z</time>
      </trkpt>
      <trkpt lat="44.875940" lon="4.850599">
        <ele>154.039767</ele>
        <time>2017-06-05T14:09:12.000Z</time>
      </trkpt>
      <trkpt lat="44.875820" lon="4.850612">
        <ele>153.997158</ele>
        <time>2017-06-05T14:09:15.000Z</time>
      </trkpt>
      <trkpt lat="44.875683" lon="4.850603">
        <ele>153.930042</ele>
        <time>2017-06-05T14:09:18.000Z</time>
      </trkpt>
      <trkpt lat="44.875553" lon="4.850593">
        <ele>153.866329</ele>
        <time>2017-06-05T14:09:21.000Z</time>
      </trkpt>
      <trkpt lat="44.875460" lon="4.850585">
        <ele>153.820733</ele>
        <time>2017-06-05T14:09:23.000Z</time>
      </trkpt>
      <trkpt lat="44.875366" lon="4.850578">
        <ele>153.774667</ele>
        <time>2017-06-05T14:09:25.000Z</time>
      </trkpt>
      <trkpt lat="44.875275" lon="4.850576">
        <ele>153.730129</ele>
        <time>2017-06-05T14:09:27.000Z</time>
      </trkpt>
      <trkpt lat="44.875140" lon="4.850566">
        <ele>153.663973</ele>
        <time>2017-06-05T14:09:30.000Z</time>
      </trkpt>
      <trkpt lat="44.875046" lon="4.850549">
        <ele>153.617595</ele>
        <time>2017-06-05T14:09:32.000Z</time>
      </trkpt>
      <trkpt lat="44.874947" lon="4.850513">
        <ele>153.567565</ele>
        <time>2017-06-05T14:09:34.000Z</time>
      </trkpt>
      <trkpt lat="44.874855" lon="4.850491">
        <ele>153.521901</ele>
        <time>2017-06-05T14:09:36.000Z</time>
      </trkpt>
      <trkpt lat="44.874763" lon="4.850461">
        <ele>153.475692</ele>
        <time>2017-06-05T14:09:38.000Z</time>
      </trkpt>
      <trkpt lat="44.874670" lon="4.850426">
        <ele>153.428589</ele>
        <time>2017-06-05T14:09:40.000Z</time>
      </trkpt>
      <trkpt lat="44.874570" lon="4.850395">
        <ele>153.378485</ele>
        <time>2017-06-05T14:09:42.000Z</time>
      </trkpt>
      <trkpt lat="44.874474" lon="4.850366">
        <ele>153.330441</ele>
        <time>2017-06-05T14:09:44.000Z</time>
      </trkpt>
      <trkpt lat="44.874386" lon="4.850337">
        <ele>153.286217</ele>
        <time>2017-06-05T14:09:46.000Z</time>
      </trkpt>
      <trkpt lat="44.874290" lon="4.850308">
        <ele>153.238173</ele>
        <time>2017-06-05T14:09:48.000Z</time>
      </trkpt>
      <trkpt lat="44.874157" lon="4.850271">
        <ele>153.171545</ele>
        <time>2017-06-05T14:09:51.000Z</time>
      </trkpt>
      <trkpt lat="44.874027" lon="4.850236">
        <ele>153.073524</ele>
        <time>2017-06-05T14:09:54.000Z</time>
      </trkpt>
      <trkpt lat="44.873900" lon="4.850203">
        <ele>152.977881</ele>
        <time>2017-06-05T14:09:57.000Z</time>
      </trkpt>
      <trkpt lat="44.873787" lon="4.850171">
        <ele>152.892519</ele>
        <time>2017-06-05T14:10:00.000Z</time>
      </trkpt>
      <trkpt lat="44.873657" lon="4.850133">
        <ele>152.794192</ele>
        <time>2017-06-05T14:10:03.000Z</time>
      </trkpt>
      <trkpt lat="44.873570" lon="4.850092">
        <ele>152.726257</ele>
        <time>2017-06-05T14:10:05.000Z</time>
      </trkpt>
      <trkpt lat="44.873478" lon="4.850050">
        <ele>152.654641</ele>
        <time>2017-06-05T14:10:07.000Z</time>
      </trkpt>
      <trkpt lat="44.873390" lon="4.850010">
        <ele>152.586166</ele>
        <time>2017-06-05T14:10:09.000Z</time>
      </trkpt>
      <trkpt lat="44.873306" lon="4.849953">
        <ele>152.517132</ele>
        <time>2017-06-05T14:10:11.000Z</time>
      </trkpt>
      <trkpt lat="44.873230" lon="4.849881">
        <ele>152.449334</ele>
        <time>2017-06-05T14:10:13.000Z</time>
      </trkpt>
      <trkpt lat="44.873150" lon="4.849805">
        <ele>152.377906</ele>
        <time>2017-06-05T14:10:15.000Z</time>
      </trkpt>
      <trkpt lat="44.873040" lon="4.849695">
        <ele>152.278052</ele>
        <time>2017-06-05T14:10:18.000Z</time>
      </trkpt>
      <trkpt lat="44.872955" lon="4.849633">
        <ele>152.207184</ele>
        <time>2017-06-05T14:10:20.000Z</time>
      </trkpt>
      <trkpt lat="44.872868" lon="4.849600">
        <ele>152.140460</ele>
        <time>2017-06-05T14:10:22.000Z</time>
      </trkpt>
      <trkpt lat="44.872772" lon="4.849574">
        <ele>152.068061</ele>
        <time>2017-06-05T14:10:24.000Z</time>
      </trkpt>
      <trkpt lat="44.872680" lon="4.849564">
        <ele>151.999719</ele>
        <time>2017-06-05T14:10:26.000Z</time>
      </trkpt>
      <trkpt lat="44.872590" lon="4.849548">
        <ele>151.932535</ele>
        <time>2017-06-05T14:10:28.000Z</time>
      </trkpt>
      <trkpt lat="44.872490" lon="4.849520">
        <ele>151.857026</ele>
        <time>2017-06-05T14:10:30.000Z</time>
      </trkpt>
      <trkpt lat="44.872395" lon="4.849500">
        <ele>151.849805</ele>
        <time>2017-06-05T14:10:32.000Z</time>
      </trkpt>
      <trkpt lat="44.872290" lon="4.849468">
        <ele>151.863801</ele>
        <time>2017-06-05T14:10:34.000Z</time>
      </trkpt>
      <trkpt lat="44.872192" lon="4.849442">
        <ele>151.876793</ele>
        <time>2017-06-05T14:10:36.000Z</time>
      </trkpt>
      <trkpt lat="44.872093" lon="4.849413">
        <ele>151.889967</ele>
        <time>2017-06-05T14:10:38.000Z</time>
      </trkpt>
      <trkpt lat="44.872000" lon="4.849387">
        <ele>151.902319</ele>
        <time>2017-06-05T14:10:40.000Z</time>
      </trkpt>
      <trkpt lat="44.871895" lon="4.849346">
        <ele>151.916514</ele>
        <time>2017-06-05T14:10:42.000Z</time>
      </trkpt>
      <trkpt lat="44.871780" lon="4.849316">
        <ele>151.931751</ele>
        <time>2017-06-05T14:10:44.000Z</time>
      </trkpt>
      <trkpt lat="44.871662" lon="4.849273">
        <ele>151.947630</ele>
        <time>2017-06-05T14:10:46.000Z</time>
      </trkpt>
      <trkpt lat="44.871550" lon="4.849254">
        <ele>151.962328</ele>
        <time>2017-06-05T14:10:48.000Z</time>
      </trkpt>
      <trkpt lat="44.871440" lon="4.849227">
        <ele>151.976875</ele>
        <time>2017-06-05T14:10:50.000Z</time>
      </trkpt>
      <trkpt lat="44.871330" lon="4.849206">
        <ele>151.991338</ele>
        <time>2017-06-05T14:10:52.000Z</time>
      </trkpt>
      <trkpt lat="44.871216" lon="4.849184">
        <ele>152.006329</ele>
        <time>2017-06-05T14:10:54.000Z</time>
      </trkpt>
      <trkpt lat="44.871110" lon="4.849167">
        <ele>152.020229</ele>
        <time>2017-06-05T14:10:56.000Z</time>
      </trkpt>
      <trkpt lat="44.871010" lon="4.849155">
        <ele>152.033305</ele>
        <time>2017-06-05T14:10:58.000Z</time>
      </trkpt>
      <trkpt lat="44.870914" lon="4.849134">
        <ele>152.045963</ele>
        <time>2017-06-05T14:11:00.000Z</time>
      </trkpt>
      <trkpt lat="44.870820" lon="4.849106">
        <ele>152.058480</ele>
        <time>2017-06-05T14:11:02.000Z</time>
      </trkpt>
      <trkpt lat="44.870686" lon="4.849083">
        <ele>152.077272</ele>
        <time>2017-06-05T14:11:05.000Z</time>
      </trkpt>
      <trkpt lat="44.870552" lon="4.849052">
        <ele>152.109388</ele>
        <time>2017-06-05T14:11:08.000Z</time>
      </trkpt>
      <trkpt lat="44.870457" lon="4.849043">
        <ele>152.131907</ele>
        <time>2017-06-05T14:11:10.000Z</time>
      </trkpt>
      <trkpt lat="44.870354" lon="4.849011">
        <ele>152.156852</ele>
        <time>2017-06-05T14:11:12.000Z</time>
      </trkpt>
      <trkpt lat="44.870262" lon="4.848984">
        <ele>152.179076</ele>
        <time>2017-06-05T14:11:14.000Z</time>
      </trkpt>
      <trkpt lat="44.870170" lon="4.848964">
        <ele>152.201092</ele>
        <time>2017-06-05T14:11:16.000Z</time>
      </trkpt>
      <trkpt lat="44.870070" lon="4.848950">
        <ele>152.224860</ele>
        <time>2017-06-05T14:11:18.000Z</time>
      </trkpt>
      <trkpt lat="44.869972" lon="4.848923">
        <ele>152.248475</ele>
        <time>2017-06-05T14:11:20.000Z</time>
      </trkpt>
      <trkpt lat="44.869873" lon="4.848902">
        <ele>152.272153</ele>
        <time>2017-06-05T14:11:22.000Z</time>
      </trkpt>
      <trkpt lat="44.869780" lon="4.848883">
        <ele>152.294378</ele>
        <time>2017-06-05T14:11:24.000Z</time>
      </trkpt>
      <trkpt lat="44.869682" lon="4.848863">
        <ele>152.317798</ele>
        <time>2017-06-05T14:11:26.000Z</time>
      </trkpt>
      <trkpt lat="44.869583" lon="4.848837">
        <ele>152.341614</ele>
        <time>2017-06-05T14:11:28.000Z</time>
      </trkpt>
      <trkpt lat="44.869488" lon="4.848811">
        <ele>152.364502</ele>
        <time>2017-06-05T14:11:30.000Z</time>
      </trkpt>
      <trkpt lat="44.869396" lon="4.848778">
        <ele>152.386953</ele>
        <time>2017-06-05T14:11:32.000Z</time>
      </trkpt>
      <trkpt lat="44.869305" lon="4.848727">
        <ele>152.410111</ele>
        <time>2017-06-05T14:11:34.000Z</time>
      </trkpt>
      <trkpt lat="44.869220" lon="4.848662">
        <ele>152.432977</ele>
        <time>2017-06-05T14:11:36.000Z</time>
      </trkpt>
      <trkpt lat="44.869100" lon="4.848604">
        <ele>152.462978</ele>
        <time>2017-06-05T14:11:39.000Z</time>
      </trkpt>
      <trkpt lat="44.868980" lon="4.848604">
        <ele>152.491359</ele>
        <time>2017-06-05T14:11:42.000Z</time>
      </trkpt>
      <trkpt lat="44.868877" lon="4.848592">
        <ele>152.598625</ele>
        <time>2017-06-05T14:11:46.000Z</time>
      </trkpt>
      <trkpt lat="44.868874" lon="4.848461">
        <ele>152.735671</ele>
        <time>2017-06-05T14:11:50.000Z</time>
      </trkpt>
      <trkpt lat="44.868942" lon="4.848357">
        <ele>152.883624</ele>
        <time>2017-06-05T14:11:53.000Z</time>
      </trkpt>
      <trkpt lat="44.869015" lon="4.848236">
        <ele>153.049775</ele>
        <time>2017-06-05T14:11:56.000Z</time>
      </trkpt>
      <trkpt lat="44.869076" lon="4.848099">
        <ele>153.218947</ele>
        <time>2017-06-05T14:11:59.000Z</time>
      </trkpt>
      <trkpt lat="44.869137" lon="4.847961">
        <ele>153.389005</ele>
        <time>2017-06-05T14:12:02.000Z</time>
      </trkpt>
      <trkpt lat="44.869200" lon="4.847816">
        <ele>153.566841</ele>
        <time>2017-06-05T14:12:05.000Z</time>
      </trkpt>
      <trkpt lat="44.869267" lon="4.847661">
        <ele>153.756675</ele>
        <time>2017-06-05T14:12:08.000Z</time>
      </trkpt>
      <trkpt lat="44.869347" lon="4.847516">
        <ele>153.948812</ele>
        <time>2017-06-05T14:12:11.000Z</time>
      </trkpt>
      <trkpt lat="44.869423" lon="4.847369">
        <ele>154.139067</ele>
        <time>2017-06-05T14:12:14.000Z</time>
      </trkpt>
      <trkpt lat="44.869490" lon="4.847214">
        <ele>154.328901</ele>
        <time>2017-06-05T14:12:17.000Z</time>
      </trkpt>
      <trkpt lat="44.869564" lon="4.847063">
        <ele>154.520857</ele>
        <time>2017-06-05T14:12:20.000Z</time>
      </trkpt>
      <trkpt lat="44.869640" lon="4.846915">
        <ele>154.711957</ele>
        <time>2017-06-05T14:12:23.000Z</time>
      </trkpt>
      <trkpt lat="44.869698" lon="4.846792">
        <ele>154.866431</ele>
        <time>2017-06-05T14:12:26.000Z</time>
      </trkpt>
      <trkpt lat="44.869762" lon="4.846667">
        <ele>155.027669</ele>
        <time>2017-06-05T14:12:29.000Z</time>
      </trkpt>
      <trkpt lat="44.869816" lon="4.846551">
        <ele>155.163744</ele>
        <time>2017-06-05T14:12:32.000Z</time>
      </trkpt>
      <trkpt lat="44.869873" lon="4.846419">
        <ele>155.249192</ele>
        <time>2017-06-05T14:12:35.000Z</time>
      </trkpt>
      <trkpt lat="44.869938" lon="4.846283">
        <ele>155.339872</ele>
        <time>2017-06-05T14:12:38.000Z</time>
      </trkpt>
      <trkpt lat="44.869995" lon="4.846156">
        <ele>155.422973</ele>
        <time>2017-06-05T14:12:41.000Z</time>
      </trkpt>
      <trkpt lat="44.870056" lon="4.846019">
        <ele>155.512413</ele>
        <time>2017-06-05T14:12:44.000Z</time>
      </trkpt>
      <trkpt lat="44.870130" lon="4.845876">
        <ele>155.610294</ele>
        <time>2017-06-05T14:12:47.000Z</time>
      </trkpt>
      <trkpt lat="44.870200" lon="4.845730">
        <ele>155.707738</ele>
        <time>2017-06-05T14:12:50.000Z</time>
      </trkpt>
      <trkpt lat="44.870270" lon="4.845588">
        <ele>155.803358</ele>
        <time>2017-06-05T14:12:53.000Z</time>
      </trkpt>
      <trkpt lat="44.870342" lon="4.845459">
        <ele>155.894129</ele>
        <time>2017-06-05T14:12:56.000Z</time>
      </trkpt>
      <trkpt lat="44.870410" lon="4.845326">
        <ele>155.984787</ele>
        <time>2017-06-05T14:12:59.000Z</time>
      </trkpt>
      <trkpt lat="44.870483" lon="4.845190">
        <ele>156.079097</ele>
        <time>2017-06-05T14:13:02.000Z</time>
      </trkpt>
      <trkpt lat="44.870552" lon="4.845066">
        <ele>156.166249</ele>
        <time>2017-06-05T14:13:05.000Z</time>
      </trkpt>
      <trkpt lat="44.870620" lon="4.844958">
        <ele>156.246109</ele>
        <time>2017-06-05T14:13:08.000Z</time>
      </trkpt>
      <trkpt lat="44.870686" lon="4.844857">
        <ele>156.322054</ele>
        <time>2017-06-05T14:13:11.000Z</time>
      </trkpt>
      <trkpt lat="44.870747" lon="4.844751">
        <ele>156.397535</ele>
        <time>2017-06-05T14:13:14.000Z</time>
      </trkpt>
      <trkpt lat="44.870810" lon="4.844640">
        <ele>156.476148</ele>
        <time>2017-06-05T14:13:17.000Z</time>
      </trkpt>
      <trkpt lat="44.870810" lon="4.844493">
        <ele>156.555245</ele>
        <time>2017-06-05T14:13:21.000Z</time>
      </trkpt>
      <trkpt lat="44.870730" lon="4.844430">
        <ele>156.441815</ele>
        <time>2017-06-05T14:13:24.000Z</time>
      </trkpt>
      <trkpt lat="44.870647" lon="4.844350">
        <ele>156.317365</ele>
        <time>2017-06-05T14:13:27.000Z</time>
      </trkpt>
      <trkpt lat="44.870544" lon="4.844259">
        <ele>156.166905</ele>
        <time>2017-06-05T14:13:30.000Z</time>
      </trkpt>
      <trkpt lat="44.870450" lon="4.844184">
        <ele>156.033205</ele>
        <time>2017-06-05T14:13:33.000Z</time>
      </trkpt>
      <trkpt lat="44.870365" lon="4.844111">
        <ele>155.910005</ele>
        <time>2017-06-05T14:13:36.000Z</time>
      </trkpt>
      <trkpt lat="44.870262" lon="4.844015">
        <ele>155.757171</ele>
        <time>2017-06-05T14:13:40.000Z</time>
      </trkpt>
      <trkpt lat="44.870160" lon="4.843943">
        <ele>155.615962</ele>
        <time>2017-06-05T14:13:44.000Z</time>
      </trkpt>
      <trkpt lat="44.870064" lon="4.843869">
        <ele>155.480524</ele>
        <time>2017-06-05T14:13:48.000Z</time>
      </trkpt>
      <trkpt lat="44.869987" lon="4.843794">
        <ele>155.364682</ele>
        <time>2017-06-05T14:13:52.000Z</time>
      </trkpt>
      <trkpt lat="44.869910" lon="4.843729">
        <ele>155.253589</ele>
        <time>2017-06-05T14:13:56.000Z</time>
      </trkpt>
      <trkpt lat="44.869823" lon="4.843670">
        <ele>155.134078</ele>
        <time>2017-06-05T14:14:00.000Z</time>
      </trkpt>
      <trkpt lat="44.869730" lon="4.843598">
        <ele>155.002741</ele>
        <time>2017-06-05T14:14:04.000Z</time>
      </trkpt>
      <trkpt lat="44.869637" lon="4.843518">
        <ele>154.867886</ele>
        <time>2017-06-05T14:14:08.000Z</time>
      </trkpt>
      <trkpt lat="44.869540" lon="4.843436">
        <ele>154.727885</ele>
        <time>2017-06-05T14:14:12.000Z</time>
      </trkpt>
      <trkpt lat="44.869434" lon="4.843351">
        <ele>154.576932</ele>
        <time>2017-06-05T14:14:16.000Z</time>
      </trkpt>
      <trkpt lat="44.869350" lon="4.843294">
        <ele>154.461529</ele>
        <time>2017-06-05T14:14:19.000Z</time>
      </trkpt>
      <trkpt lat="44.869250" lon="4.843204">
        <ele>154.320004</ele>
        <time>2017-06-05T14:14:23.000Z</time>
      </trkpt>
      <trkpt lat="44.869156" lon="4.843129">
        <ele>154.233851</ele>
        <time>2017-06-05T14:14:27.000Z</time>
      </trkpt>
      <trkpt lat="44.869064" lon="4.843045">
        <ele>154.146426</ele>
        <time>2017-06-05T14:14:31.000Z</time>
      </trkpt>
      <trkpt lat="44.868960" lon="4.842963">
        <ele>154.051379</ele>
        <time>2017-06-05T14:14:35.000Z</time>
      </trkpt>
      <trkpt lat="44.868855" lon="4.842883">
        <ele>153.956177</ele>
        <time>2017-06-05T14:14:39.000Z</time>
      </trkpt>
      <trkpt lat="44.868767" lon="4.842825">
        <ele>153.878689</ele>
        <time>2017-06-05T14:14:42.000Z</time>
      </trkpt>
      <trkpt lat="44.868680" lon="4.842765">
        <ele>153.801433</ele>
        <time>2017-06-05T14:14:45.000Z</time>
      </trkpt>
      <trkpt lat="44.868580" lon="4.842694">
        <ele>153.712121</ele>
        <time>2017-06-05T14:14:48.000Z</time>
      </trkpt>
      <trkpt lat="44.868473" lon="4.842625">
        <ele>153.618263</ele>
        <time>2017-06-05T14:14:51.000Z</time>
      </trkpt>
      <trkpt lat="44.868366" lon="4.842559">
        <ele>153.525098</ele>
        <time>2017-06-05T14:14:54.000Z</time>
      </trkpt>
      <trkpt lat="44.868263" lon="4.842485">
        <ele>153.432885</ele>
        <time>2017-06-05T14:14:57.000Z</time>
      </trkpt>
      <trkpt lat="44.868164" lon="4.842389">
        <ele>153.337048</ele>
        <time>2017-06-05T14:15:00.000Z</time>
      </trkpt>
      <trkpt lat="44.868076" lon="4.842299">
        <ele>153.250338</ele>
        <time>2017-06-05T14:15:03.000Z</time>
      </trkpt>
      <trkpt lat="44.867970" lon="4.842208">
        <ele>153.151347</ele>
        <time>2017-06-05T14:15:06.000Z</time>
      </trkpt>
      <trkpt lat="44.867863" lon="4.842113">
        <ele>153.050488</ele>
        <time>2017-06-05T14:15:09.000Z</time>
      </trkpt>
      <trkpt lat="44.867760" lon="4.842035">
        <ele>152.957227</ele>
        <time>2017-06-05T14:15:12.000Z</time>
      </trkpt>
      <trkpt lat="44.867657" lon="4.841956">
        <ele>152.886088</ele>
        <time>2017-06-05T14:15:15.000Z</time>
      </trkpt>
      <trkpt lat="44.867546" lon="4.841880">
        <ele>152.858764</ele>
        <time>2017-06-05T14:15:18.000Z</time>
      </trkpt>
      <trkpt lat="44.867440" lon="4.841801">
        <ele>152.832215</ele>
        <time>2017-06-05T14:15:21.000Z</time>
      </trkpt>
      <trkpt lat="44.867330" lon="4.841715">
        <ele>152.804363</ele>
        <time>2017-06-05T14:15:24.000Z</time>
      </trkpt>
      <trkpt lat="44.867230" lon="4.841641">
        <ele>152.779355</ele>
        <time>2017-06-05T14:15:27.000Z</time>
      </trkpt>
      <trkpt lat="44.867140" lon="4.841560">
        <ele>152.755714</ele>
        <time>2017-06-05T14:15:30.000Z</time>
      </trkpt>
      <trkpt lat="44.867050" lon="4.841478">
        <ele>152.731987</ele>
        <time>2017-06-05T14:15:33.000Z</time>
      </trkpt>
      <trkpt lat="44.866955" lon="4.841403">
        <ele>152.707878</ele>
        <time>2017-06-05T14:15:36.000Z</time>
      </trkpt>
      <trkpt lat="44.866848" lon="4.841326">
        <ele>152.681277</ele>
        <time>2017-06-05T14:15:39.000Z</time>
      </trkpt>
      <trkpt lat="44.866737" lon="4.841243">
        <ele>152.653455</ele>
        <time>2017-06-05T14:15:42.000Z</time>
      </trkpt>
      <trkpt lat="44.866623" lon="4.841150">
        <ele>152.624291</ele>
        <time>2017-06-05T14:15:45.000Z</time>
      </trkpt>
      <trkpt lat="44.866512" lon="4.841065">
        <ele>152.596321</ele>
        <time>2017-06-05T14:15:48.000Z</time>
      </trkpt>
      <trkpt lat="44.866405" lon="4.840997">
        <ele>152.570331</ele>
        <time>2017-06-05T14:15:51.000Z</time>
      </trkpt>
      <trkpt lat="44.866302" lon="4.840921">
        <ele>152.544589</ele>
        <time>2017-06-05T14:15:54.000Z</time>
      </trkpt>
      <trkpt lat="44.866210" lon="4.840847">
        <ele>152.521136</ele>
        <time>2017-06-05T14:15:57.000Z</time>
      </trkpt>
      <trkpt lat="44.866116" lon="4.840777">
        <ele>152.497596</ele>
        <time>2017-06-05T14:16:00.000Z</time>
      </trkpt>
      <trkpt lat="44.866030" lon="4.840709">
        <ele>152.522084</ele>
        <time>2017-06-05T14:16:03.000Z</time>
      </trkpt>
      <trkpt lat="44.865944" lon="4.840653">
        <ele>152.548301</ele>
        <time>2017-06-05T14:16:06.000Z</time>
      </trkpt>
      <trkpt lat="44.865840" lon="4.840586">
        <ele>152.579946</ele>
        <time>2017-06-05T14:16:10.000Z</time>
      </trkpt>
      <trkpt lat="44.865753" lon="4.840530">
        <ele>152.606415</ele>
        <time>2017-06-05T14:16:13.000Z</time>
      </trkpt>
      <trkpt lat="44.865660" lon="4.840458">
        <ele>152.635777</ele>
        <time>2017-06-05T14:16:16.000Z</time>
      </trkpt>
      <trkpt lat="44.865566" lon="4.840381">
        <ele>152.665863</ele>
        <time>2017-06-05T14:16:19.000Z</time>
      </trkpt>
      <trkpt lat="44.865463" lon="4.840310">
        <ele>152.697593</ele>
        <time>2017-06-05T14:16:22.000Z</time>
      </trkpt>
      <trkpt lat="44.865360" lon="4.840228">
        <ele>152.730329</ele>
        <time>2017-06-05T14:16:25.000Z</time>
      </trkpt>
      <trkpt lat="44.865260" lon="4.840144">
        <ele>152.762542</ele>
        <time>2017-06-05T14:16:28.000Z</time>
      </trkpt>
      <trkpt lat="44.865154" lon="4.840053">
        <ele>152.796887</ele>
        <time>2017-06-05T14:16:31.000Z</time>
      </trkpt>
      <trkpt lat="44.865050" lon="4.839980">
        <ele>152.829039</ele>
        <time>2017-06-05T14:16:34.000Z</time>
      </trkpt>
      <trkpt lat="44.864940" lon="4.839890">
        <ele>152.864235</ele>
        <time>2017-06-05T14:16:37.000Z</time>
      </trkpt>
      <trkpt lat="44.864834" lon="4.839808">
        <ele>152.897696</ele>
        <time>2017-06-05T14:16:40.000Z</time>
      </trkpt>
      <trkpt lat="44.864723" lon="4.839718">
        <ele>152.933132</ele>
        <time>2017-06-05T14:16:43.000Z</time>
      </trkpt>
      <trkpt lat="44.864610" lon="4.839630">
        <ele>152.968858</ele>
        <time>2017-06-05T14:16:46.000Z</time>
      </trkpt>
      <trkpt lat="44.864494" lon="4.839537">
        <ele>153.018924</ele>
        <time>2017-06-05T14:16:49.000Z</time>
      </trkpt>
      <trkpt lat="44.864388" lon="4.839445">
        <ele>153.092432</ele>
        <time>2017-06-05T14:16:52.000Z</time>
      </trkpt>
      <trkpt lat="44.864277" lon="4.839358">
        <ele>153.167432</ele>
        <time>2017-06-05T14:16:55.000Z</time>
      </trkpt>
      <trkpt lat="44.864162" lon="4.839267">
        <ele>153.245312</ele>
        <time>2017-06-05T14:16:58.000Z</time>
      </trkpt>
      <trkpt lat="44.864082" lon="4.839202">
        <ele>153.299841</ele>
        <time>2017-06-05T14:17:00.000Z</time>
      </trkpt>
      <trkpt lat="44.863970" lon="4.839103">
        <ele>153.377905</ele>
        <time>2017-06-05T14:17:03.000Z</time>
      </trkpt>
      <trkpt lat="44.863865" lon="4.839021">
        <ele>153.448792</ele>
        <time>2017-06-05T14:17:06.000Z</time>
      </trkpt>
      <trkpt lat="44.863760" lon="4.838929">
        <ele>153.521798</ele>
        <time>2017-06-05T14:17:09.000Z</time>
      </trkpt>
      <trkpt lat="44.863650" lon="4.838836">
        <ele>153.597543</ele>
        <time>2017-06-05T14:17:12.000Z</time>
      </trkpt>
      <trkpt lat="44.863560" lon="4.838733">
        <ele>153.665992</ele>
        <time>2017-06-05T14:17:15.000Z</time>
      </trkpt>
      <trkpt lat="44.863453" lon="4.838635">
        <ele>153.741342</ele>
        <time>2017-06-05T14:17:18.000Z</time>
      </trkpt>
      <trkpt lat="44.863340" lon="4.838552">
        <ele>153.816590</ele>
        <time>2017-06-05T14:17:21.000Z</time>
      </trkpt>
      <trkpt lat="44.863224" lon="4.838480">
        <ele>153.891444</ele>
        <time>2017-06-05T14:17:24.000Z</time>
      </trkpt>
      <trkpt lat="44.863106" lon="4.838414">
        <ele>153.966419</ele>
        <time>2017-06-05T14:17:27.000Z</time>
      </trkpt>
      <trkpt lat="44.862990" lon="4.838341">
        <ele>154.041443</ele>
        <time>2017-06-05T14:17:30.000Z</time>
      </trkpt>
      <trkpt lat="44.862890" lon="4.838258">
        <ele>154.168490</ele>
        <time>2017-06-05T14:17:33.000Z</time>
      </trkpt>
      <trkpt lat="44.862797" lon="4.838172">
        <ele>154.306167</ele>
        <time>2017-06-05T14:17:36.000Z</time>
      </trkpt>
      <trkpt lat="44.862698" lon="4.838092">
        <ele>154.447425</ele>
        <time>2017-06-05T14:17:39.000Z</time>
      </trkpt>
      <trkpt lat="44.862595" lon="4.838016">
        <ele>154.591341</ele>
        <time>2017-06-05T14:17:42.000Z</time>
      </trkpt>
      <trkpt lat="44.862500" lon="4.837942">
        <ele>154.725700</ele>
        <time>2017-06-05T14:17:45.000Z</time>
      </trkpt>
      <trkpt lat="44.862415" lon="4.837865">
        <ele>154.850769</ele>
        <time>2017-06-05T14:17:48.000Z</time>
      </trkpt>
      <trkpt lat="44.862316" lon="4.837792">
        <ele>154.989076</ele>
        <time>2017-06-05T14:17:51.000Z</time>
      </trkpt>
      <trkpt lat="44.862236" lon="4.837716">
        <ele>155.108490</ele>
        <time>2017-06-05T14:17:54.000Z</time>
      </trkpt>
      <trkpt lat="44.862114" lon="4.837617">
        <ele>155.282746</ele>
        <time>2017-06-05T14:19:00.000Z</time>
      </trkpt>
      <trkpt lat="44.862015" lon="4.837525">
        <ele>155.429524</ele>
        <time>2017-06-05T14:19:04.000Z</time>
      </trkpt>
      <trkpt lat="44.861935" lon="4.837456">
        <ele>155.545618</ele>
        <time>2017-06-05T14:19:07.000Z</time>
      </trkpt>
      <trkpt lat="44.861870" lon="4.837364">
        <ele>155.659616</ele>
        <time>2017-06-05T14:19:13.000Z</time>
      </trkpt>
      <trkpt lat="44.861940" lon="4.837245">
        <ele>155.795330</ele>
        <time>2017-06-05T14:19:22.000Z</time>
      </trkpt>
      <trkpt lat="44.861980" lon="4.837130">
        <ele>155.907751</ele>
        <time>2017-06-05T14:19:25.000Z</time>
      </trkpt>
      <trkpt lat="44.862034" lon="4.836989">
        <ele>156.048400</ele>
        <time>2017-06-05T14:19:28.000Z</time>
      </trkpt>
      <trkpt lat="44.862095" lon="4.836865">
        <ele>156.180863</ele>
        <time>2017-06-05T14:19:31.000Z</time>
      </trkpt>
      <trkpt lat="44.862156" lon="4.836741">
        <ele>156.323993</ele>
        <time>2017-06-05T14:19:34.000Z</time>
      </trkpt>
      <trkpt lat="44.862213" lon="4.836618">
        <ele>156.499163</ele>
        <time>2017-06-05T14:19:37.000Z</time>
      </trkpt>
      <trkpt lat="44.862274" lon="4.836498">
        <ele>156.675185</ele>
        <time>2017-06-05T14:19:40.000Z</time>
      </trkpt>
      <trkpt lat="44.862324" lon="4.836367">
        <ele>156.852536</ele>
        <time>2017-06-05T14:19:43.000Z</time>
      </trkpt>
      <trkpt lat="44.862390" lon="4.836249">
        <ele>157.031709</ele>
        <time>2017-06-05T14:19:46.000Z</time>
      </trkpt>
      <trkpt lat="44.862450" lon="4.836145">
        <ele>157.191550</ele>
        <time>2017-06-05T14:19:49.000Z</time>
      </trkpt>
      <trkpt lat="44.862526" lon="4.836031">
        <ele>157.378098</ele>
        <time>2017-06-05T14:19:53.000Z</time>
      </trkpt>
      <trkpt lat="44.862587" lon="4.835939">
        <ele>157.528262</ele>
        <time>2017-06-05T14:19:57.000Z</time>
      </trkpt>
      <trkpt lat="44.862650" lon="4.835818">
        <ele>157.707224</ele>
        <time>2017-06-05T14:20:01.000Z</time>
      </trkpt>
      <trkpt lat="44.862700" lon="4.835684">
        <ele>157.887730</ele>
        <time>2017-06-05T14:20:05.000Z</time>
      </trkpt>
      <trkpt lat="44.862755" lon="4.835569">
        <ele>158.053095</ele>
        <time>2017-06-05T14:20:09.000Z</time>
      </trkpt>
      <trkpt lat="44.862812" lon="4.835438">
        <ele>158.236320</ele>
        <time>2017-06-05T14:20:14.000Z</time>
      </trkpt>
      <trkpt lat="44.862858" lon="4.835311">
        <ele>158.406322</ele>
        <time>2017-06-05T14:20:18.000Z</time>
      </trkpt>
      <trkpt lat="44.862910" lon="4.835192">
        <ele>158.572957</ele>
        <time>2017-06-05T14:20:23.000Z</time>
      </trkpt>
      <trkpt lat="44.862835" lon="4.835301">
        <ele>158.754034</ele>
        <time>2017-06-05T14:22:57.000Z</time>
      </trkpt>
      <trkpt lat="44.862785" lon="4.835445">
        <ele>158.945169</ele>
        <time>2017-06-05T14:23:01.000Z</time>
      </trkpt>
      <trkpt lat="44.862736" lon="4.835569">
        <ele>159.114393</ele>
        <time>2017-06-05T14:23:04.000Z</time>
      </trkpt>
      <trkpt lat="44.862690" lon="4.835701">
        <ele>159.289724</ele>
        <time>2017-06-05T14:23:07.000Z</time>
      </trkpt>
      <trkpt lat="44.862633" lon="4.835812">
        <ele>159.334122</ele>
        <time>2017-06-05T14:23:10.000Z</time>
      </trkpt>
      <trkpt lat="44.862580" lon="4.835921">
        <ele>159.362197</ele>
        <time>2017-06-05T14:23:13.000Z</time>
      </trkpt>
      <trkpt lat="44.862520" lon="4.836042">
        <ele>159.393562</ele>
        <time>2017-06-05T14:23:16.000Z</time>
      </trkpt>
      <trkpt lat="44.862453" lon="4.836139">
        <ele>159.422330</ele>
        <time>2017-06-05T14:23:19.000Z</time>
      </trkpt>
      <trkpt lat="44.862534" lon="4.836037">
        <ele>159.454864</ele>
        <time>2017-06-05T14:23:30.000Z</time>
      </trkpt>
      <trkpt lat="44.862587" lon="4.835930">
        <ele>159.482590</ele>
        <time>2017-06-05T14:23:33.000Z</time>
      </trkpt>
      <trkpt lat="44.862637" lon="4.835815">
        <ele>159.511245</ele>
        <time>2017-06-05T14:23:36.000Z</time>
      </trkpt>
      <trkpt lat="44.862694" lon="4.835692">
        <ele>159.542458</ele>
        <time>2017-06-05T14:23:39.000Z</time>
      </trkpt>
      <trkpt lat="44.862747" lon="4.835570">
        <ele>159.572851</ele>
        <time>2017-06-05T14:23:42.000Z</time>
      </trkpt>
      <trkpt lat="44.862797" lon="4.835454">
        <ele>159.601687</ele>
        <time>2017-06-05T14:23:45.000Z</time>
      </trkpt>
      <trkpt lat="44.862854" lon="4.835315">
        <ele>159.635795</ele>
        <time>2017-06-05T14:23:49.000Z</time>
      </trkpt>
      <trkpt lat="44.862907" lon="4.835186">
        <ele>159.667464</ele>
        <time>2017-06-05T14:23:53.000Z</time>
      </trkpt>
      <trkpt lat="44.862938" lon="4.835056">
        <ele>159.696597</ele>
        <time>2017-06-05T14:23:58.000Z</time>
      </trkpt>
      <trkpt lat="44.862896" lon="4.834931">
        <ele>159.725978</ele>
        <time>2017-06-05T14:24:03.000Z</time>
      </trkpt>
      <trkpt lat="44.862812" lon="4.834870">
        <ele>159.754288</ele>
        <time>2017-06-05T14:24:09.000Z</time>
      </trkpt>
      <trkpt lat="44.862698" lon="4.834794">
        <ele>159.792071</ele>
        <time>2017-06-05T14:24:40.000Z</time>
      </trkpt>
      <trkpt lat="44.862620" lon="4.834725">
        <ele>159.819659</ele>
        <time>2017-06-05T14:24:43.000Z</time>
      </trkpt>
      <trkpt lat="44.862534" lon="4.834675">
        <ele>159.849098</ele>
        <time>2017-06-05T14:24:46.000Z</time>
      </trkpt>
      <trkpt lat="44.862440" lon="4.834613">
        <ele>160.091277</ele>
        <time>2017-06-05T14:24:49.000Z</time>
      </trkpt>
      <trkpt lat="44.862343" lon="4.834517">
        <ele>160.367814</ele>
        <time>2017-06-05T14:24:52.000Z</time>
      </trkpt>
      <trkpt lat="44.862244" lon="4.834430">
        <ele>160.640029</ele>
        <time>2017-06-05T14:24:55.000Z</time>
      </trkpt>
      <trkpt lat="44.862133" lon="4.834341">
        <ele>160.938007</ele>
        <time>2017-06-05T14:24:58.000Z</time>
      </trkpt>
      <trkpt lat="44.862034" lon="4.834271">
        <ele>161.196458</ele>
        <time>2017-06-05T14:25:01.000Z</time>
      </trkpt>
      <trkpt lat="44.861946" lon="4.834217">
        <ele>161.420428</ele>
        <time>2017-06-05T14:25:04.000Z</time>
      </trkpt>
      <trkpt lat="44.861850" lon="4.834154">
        <ele>161.667536</ele>
        <time>2017-06-05T14:25:07.000Z</time>
      </trkpt>
      <trkpt lat="44.861750" lon="4.834076">
        <ele>161.934222</ele>
        <time>2017-06-05T14:25:10.000Z</time>
      </trkpt>
      <trkpt lat="44.861652" lon="4.833989">
        <ele>162.204459</ele>
        <time>2017-06-05T14:25:13.000Z</time>
      </trkpt>
      <trkpt lat="44.861550" lon="4.833930">
        <ele>162.461749</ele>
        <time>2017-06-05T14:25:16.000Z</time>
      </trkpt>
      <trkpt lat="44.861450" lon="4.833847">
        <ele>162.732534</ele>
        <time>2017-06-05T14:25:19.000Z</time>
      </trkpt>
      <trkpt lat="44.861355" lon="4.833761">
        <ele>162.995975</ele>
        <time>2017-06-05T14:25:22.000Z</time>
      </trkpt>
      <trkpt lat="44.861275" lon="4.833694">
        <ele>163.213108</ele>
        <time>2017-06-05T14:25:25.000Z</time>
      </trkpt>
      <trkpt lat="44.861240" lon="4.833555">
        <ele>163.457136</ele>
        <time>2017-06-05T14:25:29.000Z</time>
      </trkpt>
      <trkpt lat="44.861298" lon="4.833448">
        <ele>163.679975</ele>
        <time>2017-06-05T14:25:32.000Z</time>
      </trkpt>
      <trkpt lat="44.861355" lon="4.833339">
        <ele>163.904057</ele>
        <time>2017-06-05T14:25:35.000Z</time>
      </trkpt>
      <trkpt lat="44.861412" lon="4.833229">
        <ele>164.093989</ele>
        <time>2017-06-05T14:25:39.000Z</time>
      </trkpt>
      <trkpt lat="44.861347" lon="4.833324">
        <ele>164.220488</ele>
        <time>2017-06-05T14:33:15.000Z</time>
      </trkpt>
      <trkpt lat="44.861310" lon="4.833445">
        <ele>164.346738</ele>
        <time>2017-06-05T14:33:21.000Z</time>
      </trkpt>
      <trkpt lat="44.861256" lon="4.833553">
        <ele>164.473358</ele>
        <time>2017-06-05T14:33:27.000Z</time>
      </trkpt>
      <trkpt lat="44.861168" lon="4.833626">
        <ele>164.611337</ele>
        <time>2017-06-05T14:33:58.000Z</time>
      </trkpt>
      <trkpt lat="44.861110" lon="4.833729">
        <ele>164.737365</ele>
        <time>2017-06-05T14:34:03.000Z</time>
      </trkpt>
      <trkpt lat="44.861040" lon="4.833821">
        <ele>164.866672</ele>
        <time>2017-06-05T14:34:07.000Z</time>
      </trkpt>
      <trkpt lat="44.860930" lon="4.833859">
        <ele>165.019741</ele>
        <time>2017-06-05T14:34:11.000Z</time>
      </trkpt>
      <trkpt lat="44.860836" lon="4.833893">
        <ele>165.150901</ele>
        <time>2017-06-05T14:34:15.000Z</time>
      </trkpt>
      <trkpt lat="44.860750" lon="4.833922">
        <ele>165.270413</ele>
        <time>2017-06-05T14:34:19.000Z</time>
      </trkpt>
      <trkpt lat="44.860653" lon="4.834003">
        <ele>165.422764</ele>
        <time>2017-06-05T14:34:23.000Z</time>
      </trkpt>
      <trkpt lat="44.860577" lon="4.834083">
        <ele>165.550929</ele>
        <time>2017-06-05T14:34:26.000Z</time>
      </trkpt>
      <trkpt lat="44.860500" lon="4.834159">
        <ele>165.677944</ele>
        <time>2017-06-05T14:34:29.000Z</time>
      </trkpt>
      <trkpt lat="44.860420" lon="4.834264">
        <ele>165.825631</ele>
        <time>2017-06-05T14:34:32.000Z</time>
      </trkpt>
      <trkpt lat="44.860317" lon="4.834349">
        <ele>165.986915</ele>
        <time>2017-06-05T14:34:35.000Z</time>
      </trkpt>
      <trkpt lat="44.860218" lon="4.834416">
        <ele>166.135324</ele>
        <time>2017-06-05T14:34:38.000Z</time>
      </trkpt>
      <trkpt lat="44.860115" lon="4.834496">
        <ele>166.294243</ele>
        <time>2017-06-05T14:34:41.000Z</time>
      </trkpt>
      <trkpt lat="44.860012" lon="4.834581">
        <ele>166.455527</ele>
        <time>2017-06-05T14:34:44.000Z</time>
      </trkpt>
      <trkpt lat="44.859913" lon="4.834687">
        <ele>166.220763</ele>
        <time>2017-06-05T14:34:47.000Z</time>
      </trkpt>
      <trkpt lat="44.859830" lon="4.834801">
        <ele>165.949203</ele>
        <time>2017-06-05T14:34:50.000Z</time>
      </trkpt>
      <trkpt lat="44.859756" lon="4.834914">
        <ele>165.693562</ele>
        <time>2017-06-05T14:34:53.000Z</time>
      </trkpt>
      <trkpt lat="44.859688" lon="4.835034">
        <ele>165.438270</ele>
        <time>2017-06-05T14:34:56.000Z</time>
      </trkpt>
      <trkpt lat="44.859630" lon="4.835150">
        <ele>165.202383</ele>
        <time>2017-06-05T14:34:59.000Z</time>
      </trkpt>
      <trkpt lat="44.859577" lon="4.835266">
        <ele>164.973052</ele>
        <time>2017-06-05T14:35:02.000Z</time>
      </trkpt>
      <trkpt lat="44.859524" lon="4.835383">
        <ele>164.742322</ele>
        <time>2017-06-05T14:35:06.000Z</time>
      </trkpt>
      <trkpt lat="44.859467" lon="4.835478">
        <ele>164.535499</ele>
        <time>2017-06-05T14:35:10.000Z</time>
      </trkpt>
      <trkpt lat="44.859360" lon="4.835546">
        <ele>164.260385</ele>
        <time>2017-06-05T14:35:14.000Z</time>
      </trkpt>
      <trkpt lat="44.859270" lon="4.835621">
        <ele>164.015341</ele>
        <time>2017-06-05T14:35:17.000Z</time>
      </trkpt>
      <trkpt lat="44.859160" lon="4.835694">
        <ele>163.730364</ele>
        <time>2017-06-05T14:35:20.000Z</time>
      </trkpt>
      <trkpt lat="44.859050" lon="4.835764">
        <ele>163.447473</ele>
        <time>2017-06-05T14:35:23.000Z</time>
      </trkpt>
      <trkpt lat="44.858944" lon="4.835848">
        <ele>163.162459</ele>
        <time>2017-06-05T14:35:26.000Z</time>
      </trkpt>
      <trkpt lat="44.858837" lon="4.835938">
        <ele>162.870421</ele>
        <time>2017-06-05T14:35:29.000Z</time>
      </trkpt>
      <trkpt lat="44.858727" lon="4.835995">
        <ele>162.595706</ele>
        <time>2017-06-05T14:35:32.000Z</time>
      </trkpt>
      <trkpt lat="44.858600" lon="4.836052">
        <ele>162.283279</ele>
        <time>2017-06-05T14:35:35.000Z</time>
      </trkpt>
      <trkpt lat="44.858517" lon="4.836098">
        <ele>162.155499</ele>
        <time>2017-06-05T14:35:37.000Z</time>
      </trkpt>
      <trkpt lat="44.858400" lon="4.836178">
        <ele>161.984247</ele>
        <time>2017-06-05T14:35:40.000Z</time>
      </trkpt>
      <trkpt lat="44.858280" lon="4.836263">
        <ele>161.807387</ele>
        <time>2017-06-05T14:35:43.000Z</time>
      </trkpt>
      <trkpt lat="44.858162" lon="4.836338">
        <ele>161.636920</ele>
        <time>2017-06-05T14:35:46.000Z</time>
      </trkpt>
      <trkpt lat="44.858080" lon="4.836399">
        <ele>161.514819</ele>
        <time>2017-06-05T14:35:48.000Z</time>
      </trkpt>
      <trkpt lat="44.857998" lon="4.836455">
        <ele>161.394824</ele>
        <time>2017-06-05T14:35:50.000Z</time>
      </trkpt>
      <trkpt lat="44.857914" lon="4.836528">
        <ele>161.264877</ele>
        <time>2017-06-05T14:35:52.000Z</time>
      </trkpt>
      <trkpt lat="44.857834" lon="4.836594">
        <ele>161.142811</ele>
        <time>2017-06-05T14:35:54.000Z</time>
      </trkpt>
      <trkpt lat="44.857746" lon="4.836658">
        <ele>161.012407</ele>
        <time>2017-06-05T14:35:56.000Z</time>
      </trkpt>
      <trkpt lat="44.857662" lon="4.836727">
        <ele>160.884379</ele>
        <time>2017-06-05T14:35:58.000Z</time>
      </trkpt>
      <trkpt lat="44.857580" lon="4.836802">
        <ele>160.755660</ele>
        <time>2017-06-05T14:36:00.000Z</time>
      </trkpt>
      <trkpt lat="44.857494" lon="4.836865">
        <ele>160.628025</ele>
        <time>2017-06-05T14:36:02.000Z</time>
      </trkpt>
      <trkpt lat="44.857410" lon="4.836926">
        <ele>160.503588</ele>
        <time>2017-06-05T14:36:04.000Z</time>
      </trkpt>
      <trkpt lat="44.857292" lon="4.837009">
        <ele>160.329918</ele>
        <time>2017-06-05T14:36:07.000Z</time>
      </trkpt>
      <trkpt lat="44.857210" lon="4.837067">
        <ele>160.209098</ele>
        <time>2017-06-05T14:36:09.000Z</time>
      </trkpt>
      <trkpt lat="44.857090" lon="4.837164">
        <ele>160.026934</ele>
        <time>2017-06-05T14:36:12.000Z</time>
      </trkpt>
      <trkpt lat="44.857006" lon="4.837228">
        <ele>159.901190</ele>
        <time>2017-06-05T14:36:14.000Z</time>
      </trkpt>
      <trkpt lat="44.856920" lon="4.837306">
        <ele>159.841484</ele>
        <time>2017-06-05T14:36:16.000Z</time>
      </trkpt>
      <trkpt lat="44.856823" lon="4.837386">
        <ele>159.782851</ele>
        <time>2017-06-05T14:36:18.000Z</time>
      </trkpt>
      <trkpt lat="44.856730" lon="4.837453">
        <ele>159.728358</ele>
        <time>2017-06-05T14:36:20.000Z</time>
      </trkpt>
      <trkpt lat="44.856625" lon="4.837520">
        <ele>159.668221</ele>
        <time>2017-06-05T14:36:22.000Z</time>
      </trkpt>
      <trkpt lat="44.856530" lon="4.837588">
        <ele>159.612631</ele>
        <time>2017-06-05T14:36:24.000Z</time>
      </trkpt>
      <trkpt lat="44.856434" lon="4.837646">
        <ele>159.558134</ele>
        <time>2017-06-05T14:36:26.000Z</time>
      </trkpt>
      <trkpt lat="44.856346" lon="4.837693">
        <ele>159.509032</ele>
        <time>2017-06-05T14:36:28.000Z</time>
      </trkpt>
      <trkpt lat="44.856255" lon="4.837746">
        <ele>159.457658</ele>
        <time>2017-06-05T14:36:30.000Z</time>
      </trkpt>
      <trkpt lat="44.856167" lon="4.837803">
        <ele>159.407127</ele>
        <time>2017-06-05T14:36:32.000Z</time>
      </trkpt>
      <trkpt lat="44.856075" lon="4.837833">
        <ele>159.357853</ele>
        <time>2017-06-05T14:36:34.000Z</time>
      </trkpt>
      <trkpt lat="44.855950" lon="4.837854">
        <ele>159.292163</ele>
        <time>2017-06-05T14:36:37.000Z</time>
      </trkpt>
      <trkpt lat="44.855816" lon="4.837874">
        <ele>159.221847</ele>
        <time>2017-06-05T14:36:40.000Z</time>
      </trkpt>
      <trkpt lat="44.855698" lon="4.837884">
        <ele>159.160160</ele>
        <time>2017-06-05T14:36:43.000Z</time>
      </trkpt>
      <trkpt lat="44.855590" lon="4.837898">
        <ele>159.103565</ele>
        <time>2017-06-05T14:36:46.000Z</time>
      </trkpt>
      <trkpt lat="44.855465" lon="4.837925">
        <ele>159.037576</ele>
        <time>2017-06-05T14:36:49.000Z</time>
      </trkpt>
      <trkpt lat="44.855330" lon="4.837956">
        <ele>158.966202</ele>
        <time>2017-06-05T14:36:52.000Z</time>
      </trkpt>
      <trkpt lat="44.855230" lon="4.837960">
        <ele>158.916956</ele>
        <time>2017-06-05T14:36:54.000Z</time>
      </trkpt>
      <trkpt lat="44.855133" lon="4.837977">
        <ele>158.869911</ele>
        <time>2017-06-05T14:36:56.000Z</time>
      </trkpt>
      <trkpt lat="44.855010" lon="4.838003">
        <ele>158.810051</ele>
        <time>2017-06-05T14:36:59.000Z</time>
      </trkpt>
      <trkpt lat="44.854920" lon="4.838057">
        <ele>158.762978</ele>
        <time>2017-06-05T14:37:02.000Z</time>
      </trkpt>
      <trkpt lat="44.854840" lon="4.838147">
        <ele>158.713729</ele>
        <time>2017-06-05T14:37:06.000Z</time>
      </trkpt>
      <trkpt lat="44.854748" lon="4.838124">
        <ele>158.668760</ele>
        <time>2017-06-05T14:37:13.000Z</time>
      </trkpt>
      <trkpt lat="44.854652" lon="4.838090">
        <ele>158.621121</ele>
        <time>2017-06-05T14:37:20.000Z</time>
      </trkpt>
      <trkpt lat="44.854600" lon="4.837971">
        <ele>158.573425</ele>
        <time>2017-06-05T14:37:29.000Z</time>
      </trkpt>
      <trkpt lat="44.854620" lon="4.837823">
        <ele>158.522020</ele>
        <time>2017-06-05T14:37:32.000Z</time>
      </trkpt>
      <trkpt lat="44.854637" lon="4.837687">
        <ele>158.474902</ele>
        <time>2017-06-05T14:37:34.000Z</time>
      </trkpt>
      <trkpt lat="44.854656" lon="4.837547">
        <ele>158.426268</ele>
        <time>2017-06-05T14:37:36.000Z</time>
      </trkpt>
      <trkpt lat="44.854675" lon="4.837409">
        <ele>158.378303</ele>
        <time>2017-06-05T14:37:38.000Z</time>
      </trkpt>
      <trkpt lat="44.854702" lon="4.837268">
        <ele>158.328471</ele>
        <time>2017-06-05T14:37:40.000Z</time>
      </trkpt>
      <trkpt lat="44.854713" lon="4.837111">
        <ele>158.274643</ele>
        <time>2017-06-05T14:37:42.000Z</time>
      </trkpt>
      <trkpt lat="44.854736" lon="4.836958">
        <ele>158.221280</ele>
        <time>2017-06-05T14:37:44.000Z</time>
      </trkpt>
      <trkpt lat="44.854755" lon="4.836819">
        <ele>158.172981</ele>
        <time>2017-06-05T14:37:46.000Z</time>
      </trkpt>
      <trkpt lat="44.854770" lon="4.836692">
        <ele>158.129053</ele>
        <time>2017-06-05T14:37:48.000Z</time>
      </trkpt>
      <trkpt lat="44.854782" lon="4.836545">
        <ele>158.060284</ele>
        <time>2017-06-05T14:37:51.000Z</time>
      </trkpt>
      <trkpt lat="44.854713" lon="4.836461">
        <ele>157.914013</ele>
        <time>2017-06-05T14:37:54.000Z</time>
      </trkpt>
      <trkpt lat="44.854565" lon="4.836436">
        <ele>157.674796</ele>
        <time>2017-06-05T14:37:57.000Z</time>
      </trkpt>
      <trkpt lat="44.854446" lon="4.836430">
        <ele>157.483696</ele>
        <time>2017-06-05T14:37:59.000Z</time>
      </trkpt>
      <trkpt lat="44.854330" lon="4.836414">
        <ele>157.296644</ele>
        <time>2017-06-05T14:38:01.000Z</time>
      </trkpt>
      <trkpt lat="44.854218" lon="4.836394">
        <ele>157.115464</ele>
        <time>2017-06-05T14:38:03.000Z</time>
      </trkpt>
      <trkpt lat="44.854115" lon="4.836381">
        <ele>156.949503</ele>
        <time>2017-06-05T14:38:05.000Z</time>
      </trkpt>
      <trkpt lat="44.854015" lon="4.836362">
        <ele>156.787567</ele>
        <time>2017-06-05T14:38:07.000Z</time>
      </trkpt>
      <trkpt lat="44.853924" lon="4.836341">
        <ele>156.639583</ele>
        <time>2017-06-05T14:38:09.000Z</time>
      </trkpt>
      <trkpt lat="44.853830" lon="4.836325">
        <ele>156.487632</ele>
        <time>2017-06-05T14:38:11.000Z</time>
      </trkpt>
      <trkpt lat="44.853695" lon="4.836303">
        <ele>156.269534</ele>
        <time>2017-06-05T14:38:14.000Z</time>
      </trkpt>
      <trkpt lat="44.853577" lon="4.836282">
        <ele>156.078659</ele>
        <time>2017-06-05T14:38:17.000Z</time>
      </trkpt>
      <trkpt lat="44.853447" lon="4.836256">
        <ele>155.867940</ele>
        <time>2017-06-05T14:38:20.000Z</time>
      </trkpt>
      <trkpt lat="44.853317" lon="4.836217">
        <ele>155.654642</ele>
        <time>2017-06-05T14:38:23.000Z</time>
      </trkpt>
      <trkpt lat="44.853195" lon="4.836153">
        <ele>155.445747</ele>
        <time>2017-06-05T14:38:26.000Z</time>
      </trkpt>
      <trkpt lat="44.853090" lon="4.836095">
        <ele>155.264777</ele>
        <time>2017-06-05T14:38:29.000Z</time>
      </trkpt>
      <trkpt lat="44.853004" lon="4.836031">
        <ele>155.129145</ele>
        <time>2017-06-05T14:38:33.000Z</time>
      </trkpt>
      <trkpt lat="44.852848" lon="4.835872">
        <ele>154.889498</ele>
        <time>2017-06-05T14:39:28.000Z</time>
      </trkpt>
      <trkpt lat="44.852764" lon="4.835744">
        <ele>154.735529</ele>
        <time>2017-06-05T14:39:31.000Z</time>
      </trkpt>
      <trkpt lat="44.852676" lon="4.835619">
        <ele>154.580024</ele>
        <time>2017-06-05T14:39:34.000Z</time>
      </trkpt>
      <trkpt lat="44.852590" lon="4.835487">
        <ele>154.421771</ele>
        <time>2017-06-05T14:39:37.000Z</time>
      </trkpt>
      <trkpt lat="44.852530" lon="4.835392">
        <ele>154.309459</ele>
        <time>2017-06-05T14:39:39.000Z</time>
      </trkpt>
      <trkpt lat="44.852467" lon="4.835297">
        <ele>154.194628</ele>
        <time>2017-06-05T14:39:41.000Z</time>
      </trkpt>
      <trkpt lat="44.852406" lon="4.835199">
        <ele>154.079507</ele>
        <time>2017-06-05T14:39:43.000Z</time>
      </trkpt>
      <trkpt lat="44.852337" lon="4.835101">
        <ele>153.957584</ele>
        <time>2017-06-05T14:39:45.000Z</time>
      </trkpt>
      <trkpt lat="44.852272" lon="4.835003">
        <ele>153.839117</ele>
        <time>2017-06-05T14:39:47.000Z</time>
      </trkpt>
      <trkpt lat="44.852210" lon="4.834899">
        <ele>153.719168</ele>
        <time>2017-06-05T14:39:49.000Z</time>
      </trkpt>
      <trkpt lat="44.852154" lon="4.834799">
        <ele>153.606676</ele>
        <time>2017-06-05T14:39:51.000Z</time>
      </trkpt>
      <trkpt lat="44.852100" lon="4.834695">
        <ele>153.492881</ele>
        <time>2017-06-05T14:39:53.000Z</time>
      </trkpt>
      <trkpt lat="44.852040" lon="4.834588">
        <ele>153.372453</ele>
        <time>2017-06-05T14:39:55.000Z</time>
      </trkpt>
      <trkpt lat="44.851970" lon="4.834487">
        <ele>153.247769</ele>
        <time>2017-06-05T14:39:57.000Z</time>
      </trkpt>
      <trkpt lat="44.851910" lon="4.834387">
        <ele>153.132123</ele>
        <time>2017-06-05T14:39:59.000Z</time>
      </trkpt>
      <trkpt lat="44.851840" lon="4.834285">
        <ele>153.006806</ele>
        <time>2017-06-05T14:40:01.000Z</time>
      </trkpt>
      <trkpt lat="44.851772" lon="4.834178">
        <ele>152.919391</ele>
        <time>2017-06-05T14:40:03.000Z</time>
      </trkpt>
      <trkpt lat="44.851700" lon="4.834073">
        <ele>152.853806</ele>
        <time>2017-06-05T14:40:05.000Z</time>
      </trkpt>
      <trkpt lat="44.851627" lon="4.833971">
        <ele>152.788733</ele>
        <time>2017-06-05T14:40:07.000Z</time>
      </trkpt>
      <trkpt lat="44.851560" lon="4.833859">
        <ele>152.722939</ele>
        <time>2017-06-05T14:40:09.000Z</time>
      </trkpt>
      <trkpt lat="44.851490" lon="4.833752">
        <ele>152.657571</ele>
        <time>2017-06-05T14:40:11.000Z</time>
      </trkpt>
      <trkpt lat="44.851420" lon="4.833647">
        <ele>152.592860</ele>
        <time>2017-06-05T14:40:13.000Z</time>
      </trkpt>
      <trkpt lat="44.851353" lon="4.833536">
        <ele>152.527409</ele>
        <time>2017-06-05T14:40:15.000Z</time>
      </trkpt>
      <trkpt lat="44.851284" lon="4.833413">
        <ele>152.456988</ele>
        <time>2017-06-05T14:40:17.000Z</time>
      </trkpt>
      <trkpt lat="44.851208" lon="4.833288">
        <ele>152.383055</ele>
        <time>2017-06-05T14:40:19.000Z</time>
      </trkpt>
      <trkpt lat="44.851130" lon="4.833163">
        <ele>152.308292</ele>
        <time>2017-06-05T14:40:21.000Z</time>
      </trkpt>
      <trkpt lat="44.851060" lon="4.833041">
        <ele>152.237826</ele>
        <time>2017-06-05T14:40:23.000Z</time>
      </trkpt>
      <trkpt lat="44.850990" lon="4.832922">
        <ele>152.168402</ele>
        <time>2017-06-05T14:40:25.000Z</time>
      </trkpt>
      <trkpt lat="44.850918" lon="4.832804">
        <ele>152.098503</ele>
        <time>2017-06-05T14:40:27.000Z</time>
      </trkpt>
      <trkpt lat="44.850840" lon="4.832690">
        <ele>152.027372</ele>
        <time>2017-06-05T14:40:29.000Z</time>
      </trkpt>
      <trkpt lat="44.850765" lon="4.832566">
        <ele>151.954191</ele>
        <time>2017-06-05T14:40:31.000Z</time>
      </trkpt>
      <trkpt lat="44.850697" lon="4.832445">
        <ele>151.884867</ele>
        <time>2017-06-05T14:40:33.000Z</time>
      </trkpt>
      <trkpt lat="44.850624" lon="4.832329">
        <ele>151.811904</ele>
        <time>2017-06-05T14:40:35.000Z</time>
      </trkpt>
      <trkpt lat="44.850548" lon="4.832219">
        <ele>151.704134</ele>
        <time>2017-06-05T14:40:37.000Z</time>
      </trkpt>
      <trkpt lat="44.850470" lon="4.832098">
        <ele>151.589387</ele>
        <time>2017-06-05T14:40:39.000Z</time>
      </trkpt>
      <trkpt lat="44.850395" lon="4.831971">
        <ele>151.473414</ele>
        <time>2017-06-05T14:40:41.000Z</time>
      </trkpt>
      <trkpt lat="44.850320" lon="4.831847">
        <ele>151.359049</ele>
        <time>2017-06-05T14:40:43.000Z</time>
      </trkpt>
      <trkpt lat="44.850246" lon="4.831734">
        <ele>151.251115</ele>
        <time>2017-06-05T14:40:45.000Z</time>
      </trkpt>
      <trkpt lat="44.850180" lon="4.831626">
        <ele>151.151071</ele>
        <time>2017-06-05T14:40:47.000Z</time>
      </trkpt>
      <trkpt lat="44.850117" lon="4.831523">
        <ele>151.055622</ele>
        <time>2017-06-05T14:40:49.000Z</time>
      </trkpt>
      <trkpt lat="44.850050" lon="4.831426">
        <ele>150.960601</ele>
        <time>2017-06-05T14:40:51.000Z</time>
      </trkpt>
      <trkpt lat="44.849990" lon="4.831326">
        <ele>150.868682</ele>
        <time>2017-06-05T14:40:53.000Z</time>
      </trkpt>
      <trkpt lat="44.849926" lon="4.831235">
        <ele>150.778744</ele>
        <time>2017-06-05T14:40:55.000Z</time>
      </trkpt>
      <trkpt lat="44.849865" lon="4.831140">
        <ele>150.688813</ele>
        <time>2017-06-05T14:40:57.000Z</time>
      </trkpt>
      <trkpt lat="44.849792" lon="4.831032">
        <ele>150.584113</ele>
        <time>2017-06-05T14:40:59.000Z</time>
      </trkpt>
      <trkpt lat="44.849712" lon="4.830912">
        <ele>150.468537</ele>
        <time>2017-06-05T14:41:01.000Z</time>
      </trkpt>
      <trkpt lat="44.849630" lon="4.830779">
        <ele>150.344865</ele>
        <time>2017-06-05T14:41:03.000Z</time>
      </trkpt>
      <trkpt lat="44.849540" lon="4.830641">
        <ele>150.213300</ele>
        <time>2017-06-05T14:41:05.000Z</time>
      </trkpt>
      <trkpt lat="44.849457" lon="4.830495">
        <ele>150.081992</ele>
        <time>2017-06-05T14:41:07.000Z</time>
      </trkpt>
      <trkpt lat="44.849373" lon="4.830347">
        <ele>149.726262</ele>
        <time>2017-06-05T14:41:09.000Z</time>
      </trkpt>
      <trkpt lat="44.849277" lon="4.830195">
        <ele>149.237922</ele>
        <time>2017-06-05T14:41:11.000Z</time>
      </trkpt>
      <trkpt lat="44.849180" lon="4.830053">
        <ele>148.764882</ele>
        <time>2017-06-05T14:41:13.000Z</time>
      </trkpt>
      <trkpt lat="44.849068" lon="4.829894">
        <ele>148.227193</ele>
        <time>2017-06-05T14:41:15.000Z</time>
      </trkpt>
      <trkpt lat="44.848972" lon="4.829723">
        <ele>147.703939</ele>
        <time>2017-06-05T14:41:17.000Z</time>
      </trkpt>
      <trkpt lat="44.848873" lon="4.829565">
        <ele>147.198094</ele>
        <time>2017-06-05T14:41:19.000Z</time>
      </trkpt>
      <trkpt lat="44.848774" lon="4.829399">
        <ele>146.677712</ele>
        <time>2017-06-05T14:41:21.000Z</time>
      </trkpt>
      <trkpt lat="44.848680" lon="4.829220">
        <ele>146.143334</ele>
        <time>2017-06-05T14:41:23.000Z</time>
      </trkpt>
      <trkpt lat="44.848587" lon="4.829055">
        <ele>145.637663</ele>
        <time>2017-06-05T14:41:25.000Z</time>
      </trkpt>
      <trkpt lat="44.848500" lon="4.828906">
        <ele>145.174602</ele>
        <time>2017-06-05T14:41:27.000Z</time>
      </trkpt>
      <trkpt lat="44.848420" lon="4.828769">
        <ele>144.748819</ele>
        <time>2017-06-05T14:41:29.000Z</time>
      </trkpt>
      <trkpt lat="44.848335" lon="4.828637">
        <ele>144.321038</ele>
        <time>2017-06-05T14:41:31.000Z</time>
      </trkpt>
      <trkpt lat="44.848250" lon="4.828529">
        <ele>143.958377</ele>
        <time>2017-06-05T14:41:33.000Z</time>
      </trkpt>
      <trkpt lat="44.848170" lon="4.828399">
        <ele>144.024891</ele>
        <time>2017-06-05T14:41:35.000Z</time>
      </trkpt>
      <trkpt lat="44.848090" lon="4.828277">
        <ele>144.089104</ele>
        <time>2017-06-05T14:41:37.000Z</time>
      </trkpt>
      <trkpt lat="44.848015" lon="4.828151">
        <ele>144.152674</ele>
        <time>2017-06-05T14:41:39.000Z</time>
      </trkpt>
      <trkpt lat="44.847935" lon="4.828021">
        <ele>144.219189</ele>
        <time>2017-06-05T14:41:41.000Z</time>
      </trkpt>
      <trkpt lat="44.847862" lon="4.827897">
        <ele>144.281468</ele>
        <time>2017-06-05T14:41:43.000Z</time>
      </trkpt>
      <trkpt lat="44.847786" lon="4.827776">
        <ele>144.343931</ele>
        <time>2017-06-05T14:41:45.000Z</time>
      </trkpt>
      <trkpt lat="44.847713" lon="4.827662">
        <ele>144.403288</ele>
        <time>2017-06-05T14:41:47.000Z</time>
      </trkpt>
      <trkpt lat="44.847645" lon="4.827543">
        <ele>144.462345</ele>
        <time>2017-06-05T14:41:49.000Z</time>
      </trkpt>
      <trkpt lat="44.847572" lon="4.827421">
        <ele>144.524031</ele>
        <time>2017-06-05T14:41:51.000Z</time>
      </trkpt>
      <trkpt lat="44.847492" lon="4.827302">
        <ele>144.587398</ele>
        <time>2017-06-05T14:41:53.000Z</time>
      </trkpt>
      <trkpt lat="44.847420" lon="4.827188">
        <ele>144.646391</ele>
        <time>2017-06-05T14:41:55.000Z</time>
      </trkpt>
      <trkpt lat="44.847343" lon="4.827088">
        <ele>144.703437</ele>
        <time>2017-06-05T14:41:57.000Z</time>
      </trkpt>
      <trkpt lat="44.847282" lon="4.826991">
        <ele>144.753538</ele>
        <time>2017-06-05T14:41:59.000Z</time>
      </trkpt>
      <trkpt lat="44.847230" lon="4.826890">
        <ele>144.801769</ele>
        <time>2017-06-05T14:42:01.000Z</time>
      </trkpt>
      <trkpt lat="44.847168" lon="4.826784">
        <ele>144.854867</ele>
        <time>2017-06-05T14:42:03.000Z</time>
      </trkpt>
      <trkpt lat="44.847107" lon="4.826681">
        <ele>144.906726</ele>
        <time>2017-06-05T14:42:05.000Z</time>
      </trkpt>
      <trkpt lat="44.847050" lon="4.826578">
        <ele>144.968047</ele>
        <time>2017-06-05T14:42:07.000Z</time>
      </trkpt>
      <trkpt lat="44.846985" lon="4.826485">
        <ele>145.043408</ele>
        <time>2017-06-05T14:42:09.000Z</time>
      </trkpt>
      <trkpt lat="44.846916" lon="4.826391">
        <ele>145.121489</ele>
        <time>2017-06-05T14:42:11.000Z</time>
      </trkpt>
      <trkpt lat="44.846848" lon="4.826293">
        <ele>145.200619</ele>
        <time>2017-06-05T14:42:13.000Z</time>
      </trkpt>
      <trkpt lat="44.846783" lon="4.826183">
        <ele>145.283254</ele>
        <time>2017-06-05T14:42:15.000Z</time>
      </trkpt>
      <trkpt lat="44.846718" lon="4.826069">
        <ele>145.367675</ele>
        <time>2017-06-05T14:42:17.000Z</time>
      </trkpt>
      <trkpt lat="44.846660" lon="4.825968">
        <ele>145.442680</ele>
        <time>2017-06-05T14:42:19.000Z</time>
      </trkpt>
      <trkpt lat="44.846603" lon="4.825865">
        <ele>145.518081</ele>
        <time>2017-06-05T14:42:21.000Z</time>
      </trkpt>
      <trkpt lat="44.846540" lon="4.825756">
        <ele>145.599235</ele>
        <time>2017-06-05T14:42:23.000Z</time>
      </trkpt>
      <trkpt lat="44.846478" lon="4.825654">
        <ele>145.676768</ele>
        <time>2017-06-05T14:42:25.000Z</time>
      </trkpt>
      <trkpt lat="44.846420" lon="4.825558">
        <ele>145.749554</ele>
        <time>2017-06-05T14:42:27.000Z</time>
      </trkpt>
      <trkpt lat="44.846355" lon="4.825461">
        <ele>145.826576</ele>
        <time>2017-06-05T14:42:29.000Z</time>
      </trkpt>
      <trkpt lat="44.846290" lon="4.825358">
        <ele>145.906150</ele>
        <time>2017-06-05T14:42:31.000Z</time>
      </trkpt>
      <trkpt lat="44.846230" lon="4.825249">
        <ele>145.985784</ele>
        <time>2017-06-05T14:42:33.000Z</time>
      </trkpt>
      <trkpt lat="44.846150" lon="4.825106">
        <ele>146.090902</ele>
        <time>2017-06-05T14:42:36.000Z</time>
      </trkpt>
      <trkpt lat="44.846054" lon="4.824985">
        <ele>146.195694</ele>
        <time>2017-06-05T14:42:39.000Z</time>
      </trkpt>
      <trkpt lat="44.845993" lon="4.824878">
        <ele>146.274927</ele>
        <time>2017-06-05T14:42:41.000Z</time>
      </trkpt>
      <trkpt lat="44.845936" lon="4.824776">
        <ele>146.349875</ele>
        <time>2017-06-05T14:42:43.000Z</time>
      </trkpt>
      <trkpt lat="44.845870" lon="4.824681">
        <ele>146.408502</ele>
        <time>2017-06-05T14:42:45.000Z</time>
      </trkpt>
      <trkpt lat="44.845810" lon="4.824588">
        <ele>146.433045</ele>
        <time>2017-06-05T14:42:47.000Z</time>
      </trkpt>
      <trkpt lat="44.845737" lon="4.824496">
        <ele>146.459997</ele>
        <time>2017-06-05T14:42:49.000Z</time>
      </trkpt>
      <trkpt lat="44.845660" lon="4.824408">
        <ele>146.487281</ele>
        <time>2017-06-05T14:42:51.000Z</time>
      </trkpt>
      <trkpt lat="44.845596" lon="4.824314">
        <ele>146.512720</ele>
        <time>2017-06-05T14:42:53.000Z</time>
      </trkpt>
      <trkpt lat="44.845524" lon="4.824215">
        <ele>146.540402</ele>
        <time>2017-06-05T14:42:55.000Z</time>
      </trkpt>
      <trkpt lat="44.845450" lon="4.824108">
        <ele>146.569579</ele>
        <time>2017-06-05T14:42:57.000Z</time>
      </trkpt>
      <trkpt lat="44.845387" lon="4.823989">
        <ele>146.598568</ele>
        <time>2017-06-05T14:42:59.000Z</time>
      </trkpt>
      <trkpt lat="44.845320" lon="4.823889">
        <ele>146.625424</ele>
        <time>2017-06-05T14:43:01.000Z</time>
      </trkpt>
      <trkpt lat="44.845253" lon="4.823802">
        <ele>146.650497</ele>
        <time>2017-06-05T14:43:03.000Z</time>
      </trkpt>
      <trkpt lat="44.845192" lon="4.823710">
        <ele>146.675084</ele>
        <time>2017-06-05T14:43:05.000Z</time>
      </trkpt>
      <trkpt lat="44.845123" lon="4.823615">
        <ele>146.701630</ele>
        <time>2017-06-05T14:43:07.000Z</time>
      </trkpt>
      <trkpt lat="44.845055" lon="4.823527">
        <ele>146.727037</ele>
        <time>2017-06-05T14:43:09.000Z</time>
      </trkpt>
      <trkpt lat="44.844982" lon="4.823424">
        <ele>146.755465</ele>
        <time>2017-06-05T14:43:11.000Z</time>
      </trkpt>
      <trkpt lat="44.844910" lon="4.823310">
        <ele>146.785266</ele>
        <time>2017-06-05T14:43:13.000Z</time>
      </trkpt>
      <trkpt lat="44.844833" lon="4.823226">
        <ele>146.812065</ele>
        <time>2017-06-05T14:43:15.000Z</time>
      </trkpt>
      <trkpt lat="44.844740" lon="4.823093">
        <ele>146.848528</ele>
        <time>2017-06-05T14:43:18.000Z</time>
      </trkpt>
      <trkpt lat="44.844670" lon="4.822994">
        <ele>146.875819</ele>
        <time>2017-06-05T14:43:20.000Z</time>
      </trkpt>
      <trkpt lat="44.844593" lon="4.822871">
        <ele>147.035299</ele>
        <time>2017-06-05T14:43:22.000Z</time>
      </trkpt>
      <trkpt lat="44.844524" lon="4.822759">
        <ele>147.339012</ele>
        <time>2017-06-05T14:43:24.000Z</time>
      </trkpt>
      <trkpt lat="44.844467" lon="4.822655">
        <ele>147.608083</ele>
        <time>2017-06-05T14:43:26.000Z</time>
      </trkpt>
      <trkpt lat="44.844402" lon="4.822553">
        <ele>147.888810</ele>
        <time>2017-06-05T14:43:28.000Z</time>
      </trkpt>
      <trkpt lat="44.844334" lon="4.822470">
        <ele>148.148435</ele>
        <time>2017-06-05T14:43:30.000Z</time>
      </trkpt>
      <trkpt lat="44.844257" lon="4.822403">
        <ele>148.409636</ele>
        <time>2017-06-05T14:43:32.000Z</time>
      </trkpt>
      <trkpt lat="44.844162" lon="4.822297">
        <ele>148.759352</ele>
        <time>2017-06-05T14:43:35.000Z</time>
      </trkpt>
      <trkpt lat="44.844135" lon="4.822161">
        <ele>149.048446</ele>
        <time>2017-06-05T14:43:38.000Z</time>
      </trkpt>
      <trkpt lat="44.844166" lon="4.822043">
        <ele>149.306035</ele>
        <time>2017-06-05T14:43:40.000Z</time>
      </trkpt>
      <trkpt lat="44.844240" lon="4.821925">
        <ele>149.628500</ele>
        <time>2017-06-05T14:43:43.000Z</time>
      </trkpt>
      <trkpt lat="44.844326" lon="4.821823">
        <ele>149.952904</ele>
        <time>2017-06-05T14:43:46.000Z</time>
      </trkpt>
      <trkpt lat="44.844410" lon="4.821747">
        <ele>150.241021</ele>
        <time>2017-06-05T14:43:49.000Z</time>
      </trkpt>
      <trkpt lat="44.844480" lon="4.821653">
        <ele>150.520062</ele>
        <time>2017-06-05T14:43:52.000Z</time>
      </trkpt>
      <trkpt lat="44.844524" lon="4.821502">
        <ele>150.854237</ele>
        <time>2017-06-05T14:43:56.000Z</time>
      </trkpt>
      <trkpt lat="44.844498" lon="4.821352">
        <ele>151.170321</ele>
        <time>2017-06-05T14:44:00.000Z</time>
      </trkpt>
      <trkpt lat="44.844433" lon="4.821239">
        <ele>151.468175</ele>
        <time>2017-06-05T14:44:03.000Z</time>
      </trkpt>
      <trkpt lat="44.844350" lon="4.821152">
        <ele>151.766726</ele>
        <time>2017-06-05T14:44:06.000Z</time>
      </trkpt>
      <trkpt lat="44.844250" lon="4.821090">
        <ele>152.082090</ele>
        <time>2017-06-05T14:44:09.000Z</time>
      </trkpt>
      <trkpt lat="44.844160" lon="4.821030">
        <ele>152.344586</ele>
        <time>2017-06-05T14:44:12.000Z</time>
      </trkpt>
      <trkpt lat="44.844070" lon="4.820979">
        <ele>152.599913</ele>
        <time>2017-06-05T14:44:15.000Z</time>
      </trkpt>
      <trkpt lat="44.843980" lon="4.820914">
        <ele>152.866088</ele>
        <time>2017-06-05T14:44:18.000Z</time>
      </trkpt>
      <trkpt lat="44.843884" lon="4.820842">
        <ele>153.152312</ele>
        <time>2017-06-05T14:44:21.000Z</time>
      </trkpt>
      <trkpt lat="44.843790" lon="4.820777">
        <ele>153.427901</ele>
        <time>2017-06-05T14:44:24.000Z</time>
      </trkpt>
      <trkpt lat="44.843690" lon="4.820705">
        <ele>153.723463</ele>
        <time>2017-06-05T14:44:27.000Z</time>
      </trkpt>
      <trkpt lat="44.843575" lon="4.820612">
        <ele>154.072428</ele>
        <time>2017-06-05T14:44:30.000Z</time>
      </trkpt>
      <trkpt lat="44.843475" lon="4.820533">
        <ele>154.374156</ele>
        <time>2017-06-05T14:44:33.000Z</time>
      </trkpt>
      <trkpt lat="44.843376" lon="4.820438">
        <ele>154.689369</ele>
        <time>2017-06-05T14:44:36.000Z</time>
      </trkpt>
      <trkpt lat="44.843280" lon="4.820370">
        <ele>154.972164</ele>
        <time>2017-06-05T14:44:39.000Z</time>
      </trkpt>
      <trkpt lat="44.843197" lon="4.820284">
        <ele>155.243283</ele>
        <time>2017-06-05T14:44:42.000Z</time>
      </trkpt>
      <trkpt lat="44.843100" lon="4.820192">
        <ele>155.550998</ele>
        <time>2017-06-05T14:44:45.000Z</time>
      </trkpt>
      <trkpt lat="44.843010" lon="4.820109">
        <ele>155.834072</ele>
        <time>2017-06-05T14:44:48.000Z</time>
      </trkpt>
      <trkpt lat="44.842920" lon="4.820031">
        <ele>156.112148</ele>
        <time>2017-06-05T14:44:51.000Z</time>
      </trkpt>
      <trkpt lat="44.842834" lon="4.819961">
        <ele>156.373535</ele>
        <time>2017-06-05T14:44:54.000Z</time>
      </trkpt>
      <trkpt lat="44.842747" lon="4.819895">
        <ele>156.633586</ele>
        <time>2017-06-05T14:44:57.000Z</time>
      </trkpt>
      <trkpt lat="44.842644" lon="4.819820">
        <ele>156.826505</ele>
        <time>2017-06-05T14:45:00.000Z</time>
      </trkpt>
      <trkpt lat="44.842537" lon="4.819746">
        <ele>156.838835</ele>
        <time>2017-06-05T14:45:03.000Z</time>
      </trkpt>
      <trkpt lat="44.842438" lon="4.819685">
        <ele>156.850013</ele>
        <time>2017-06-05T14:45:06.000Z</time>
      </trkpt>
      <trkpt lat="44.842350" lon="4.819649">
        <ele>156.859493</ele>
        <time>2017-06-05T14:45:08.000Z</time>
      </trkpt>
      <trkpt lat="44.842266" lon="4.819603">
        <ele>156.868817</ele>
        <time>2017-06-05T14:45:10.000Z</time>
      </trkpt>
      <trkpt lat="44.842140" lon="4.819522">
        <ele>156.883144</ele>
        <time>2017-06-05T14:45:13.000Z</time>
      </trkpt>
      <trkpt lat="44.842064" lon="4.819454">
        <ele>156.892456</ele>
        <time>2017-06-05T14:45:15.000Z</time>
      </trkpt>
      <trkpt lat="44.841960" lon="4.819365">
        <ele>156.905042</ele>
        <time>2017-06-05T14:45:18.000Z</time>
      </trkpt>
      <trkpt lat="44.841877" lon="4.819311">
        <ele>156.914499</ele>
        <time>2017-06-05T14:45:20.000Z</time>
      </trkpt>
      <trkpt lat="44.841760" lon="4.819231">
        <ele>156.927952</ele>
        <time>2017-06-05T14:45:23.000Z</time>
      </trkpt>
      <trkpt lat="44.841682" lon="4.819168">
        <ele>156.937252</ele>
        <time>2017-06-05T14:45:25.000Z</time>
      </trkpt>
      <trkpt lat="44.841600" lon="4.819110">
        <ele>156.946744</ele>
        <time>2017-06-05T14:45:27.000Z</time>
      </trkpt>
      <trkpt lat="44.841510" lon="4.819047">
        <ele>156.957139</ele>
        <time>2017-06-05T14:45:29.000Z</time>
      </trkpt>
      <trkpt lat="44.841423" lon="4.818980">
        <ele>156.967395</ele>
        <time>2017-06-05T14:45:31.000Z</time>
      </trkpt>
      <trkpt lat="44.841328" lon="4.818922">
        <ele>156.978106</ele>
        <time>2017-06-05T14:45:33.000Z</time>
      </trkpt>
      <trkpt lat="44.841236" lon="4.818860">
        <ele>156.988656</ele>
        <time>2017-06-05T14:45:35.000Z</time>
      </trkpt>
      <trkpt lat="44.841152" lon="4.818792">
        <ele>156.998677</ele>
        <time>2017-06-05T14:45:37.000Z</time>
      </trkpt>
      <trkpt lat="44.841070" lon="4.818732">
        <ele>157.009118</ele>
        <time>2017-06-05T14:45:39.000Z</time>
      </trkpt>
      <trkpt lat="44.840954" lon="4.818652">
        <ele>157.074888</ele>
        <time>2017-06-05T14:45:42.000Z</time>
      </trkpt>
      <trkpt lat="44.840880" lon="4.818582">
        <ele>157.120273</ele>
        <time>2017-06-05T14:45:44.000Z</time>
      </trkpt>
      <trkpt lat="44.840770" lon="4.818494">
        <ele>157.184687</ele>
        <time>2017-06-05T14:45:47.000Z</time>
      </trkpt>
      <trkpt lat="44.840656" lon="4.818436">
        <ele>157.246415</ele>
        <time>2017-06-05T14:45:50.000Z</time>
      </trkpt>
      <trkpt lat="44.840530" lon="4.818384">
        <ele>157.313284</ele>
        <time>2017-06-05T14:45:53.000Z</time>
      </trkpt>
      <trkpt lat="44.840400" lon="4.818338">
        <ele>157.381551</ele>
        <time>2017-06-05T14:45:56.000Z</time>
      </trkpt>
      <trkpt lat="44.840313" lon="4.818305">
        <ele>157.427439</ele>
        <time>2017-06-05T14:45:58.000Z</time>
      </trkpt>
      <trkpt lat="44.840225" lon="4.818266">
        <ele>157.474423</ele>
        <time>2017-06-05T14:46:00.000Z</time>
      </trkpt>
      <trkpt lat="44.840134" lon="4.818210">
        <ele>157.524994</ele>
        <time>2017-06-05T14:46:02.000Z</time>
      </trkpt>
      <trkpt lat="44.840046" lon="4.818151">
        <ele>157.574623</ele>
        <time>2017-06-05T14:46:04.000Z</time>
      </trkpt>
      <trkpt lat="44.839954" lon="4.818098">
        <ele>157.625242</ele>
        <time>2017-06-05T14:46:06.000Z</time>
      </trkpt>
      <trkpt lat="44.839874" lon="4.818031">
        <ele>157.672633</ele>
        <time>2017-06-05T14:46:08.000Z</time>
      </trkpt>
      <trkpt lat="44.839760" lon="4.817943">
        <ele>157.738827</ele>
        <time>2017-06-05T14:46:11.000Z</time>
      </trkpt>
      <trkpt lat="44.839638" lon="4.817864">
        <ele>157.807205</ele>
        <time>2017-06-05T14:46:14.000Z</time>
      </trkpt>
      <trkpt lat="44.839527" lon="4.817767">
        <ele>157.873716</ele>
        <time>2017-06-05T14:46:17.000Z</time>
      </trkpt>
      <trkpt lat="44.839447" lon="4.817707">
        <ele>157.919868</ele>
        <time>2017-06-05T14:46:19.000Z</time>
      </trkpt>
      <trkpt lat="44.839363" lon="4.817640">
        <ele>157.943499</ele>
        <time>2017-06-05T14:46:21.000Z</time>
      </trkpt>
      <trkpt lat="44.839275" lon="4.817573">
        <ele>157.965470</ele>
        <time>2017-06-05T14:46:23.000Z</time>
      </trkpt>
      <trkpt lat="44.839184" lon="4.817502">
        <ele>157.988318</ele>
        <time>2017-06-05T14:46:25.000Z</time>
      </trkpt>
      <trkpt lat="44.839092" lon="4.817437">
        <ele>158.010925</ele>
        <time>2017-06-05T14:46:27.000Z</time>
      </trkpt>
      <trkpt lat="44.839010" lon="4.817382">
        <ele>158.030874</ele>
        <time>2017-06-05T14:46:29.000Z</time>
      </trkpt>
      <trkpt lat="44.838913" lon="4.817318">
        <ele>158.054402</ele>
        <time>2017-06-05T14:46:31.000Z</time>
      </trkpt>
      <trkpt lat="44.838810" lon="4.817251">
        <ele>158.079322</ele>
        <time>2017-06-05T14:46:33.000Z</time>
      </trkpt>
      <trkpt lat="44.838707" lon="4.817188">
        <ele>158.103988</ele>
        <time>2017-06-05T14:46:35.000Z</time>
      </trkpt>
      <trkpt lat="44.838604" lon="4.817124">
        <ele>158.128716</ele>
        <time>2017-06-05T14:46:37.000Z</time>
      </trkpt>
      <trkpt lat="44.838497" lon="4.817061">
        <ele>158.154190</ele>
        <time>2017-06-05T14:46:39.000Z</time>
      </trkpt>
      <trkpt lat="44.838380" lon="4.816994">
        <ele>158.181934</ele>
        <time>2017-06-05T14:46:41.000Z</time>
      </trkpt>
      <trkpt lat="44.838260" lon="4.816930">
        <ele>158.210120</ele>
        <time>2017-06-05T14:46:43.000Z</time>
      </trkpt>
      <trkpt lat="44.838146" lon="4.816867">
        <ele>158.237020</ele>
        <time>2017-06-05T14:46:45.000Z</time>
      </trkpt>
      <trkpt lat="44.838047" lon="4.816818">
        <ele>158.260071</ele>
        <time>2017-06-05T14:46:47.000Z</time>
      </trkpt>
      <trkpt lat="44.837944" lon="4.816777">
        <ele>158.283584</ele>
        <time>2017-06-05T14:46:49.000Z</time>
      </trkpt>
      <trkpt lat="44.837840" lon="4.816726">
        <ele>158.307775</ele>
        <time>2017-06-05T14:46:51.000Z</time>
      </trkpt>
      <trkpt lat="44.837734" lon="4.816675">
        <ele>158.374385</ele>
        <time>2017-06-05T14:46:53.000Z</time>
      </trkpt>
      <trkpt lat="44.837627" lon="4.816630">
        <ele>158.477681</ele>
        <time>2017-06-05T14:46:55.000Z</time>
      </trkpt>
      <trkpt lat="44.837524" lon="4.816581">
        <ele>158.578244</ele>
        <time>2017-06-05T14:46:57.000Z</time>
      </trkpt>
      <trkpt lat="44.837420" lon="4.816540">
        <ele>158.678145</ele>
        <time>2017-06-05T14:46:59.000Z</time>
      </trkpt>
      <trkpt lat="44.837315" lon="4.816505">
        <ele>158.777960</ele>
        <time>2017-06-05T14:47:01.000Z</time>
      </trkpt>
      <trkpt lat="44.837215" lon="4.816464">
        <ele>158.874302</ele>
        <time>2017-06-05T14:47:03.000Z</time>
      </trkpt>
      <trkpt lat="44.837120" lon="4.816422">
        <ele>158.966407</ele>
        <time>2017-06-05T14:47:05.000Z</time>
      </trkpt>
      <trkpt lat="44.837025" lon="4.816385">
        <ele>159.057583</ele>
        <time>2017-06-05T14:47:07.000Z</time>
      </trkpt>
      <trkpt lat="44.836930" lon="4.816346">
        <ele>159.149118</ele>
        <time>2017-06-05T14:47:09.000Z</time>
      </trkpt>
      <trkpt lat="44.836834" lon="4.816310">
        <ele>159.241016</ele>
        <time>2017-06-05T14:47:11.000Z</time>
      </trkpt>
      <trkpt lat="44.836740" lon="4.816275">
        <ele>159.330958</ele>
        <time>2017-06-05T14:47:13.000Z</time>
      </trkpt>
      <trkpt lat="44.836647" lon="4.816239">
        <ele>159.420176</ele>
        <time>2017-06-05T14:47:15.000Z</time>
      </trkpt>
      <trkpt lat="44.836555" lon="4.816204">
        <ele>159.508330</ele>
        <time>2017-06-05T14:47:17.000Z</time>
      </trkpt>
      <trkpt lat="44.836452" lon="4.816161">
        <ele>159.607705</ele>
        <time>2017-06-05T14:47:19.000Z</time>
      </trkpt>
      <trkpt lat="44.836346" lon="4.816115">
        <ele>159.710307</ele>
        <time>2017-06-05T14:47:21.000Z</time>
      </trkpt>
      <trkpt lat="44.836240" lon="4.816073">
        <ele>159.812167</ele>
        <time>2017-06-05T14:47:23.000Z</time>
      </trkpt>
      <trkpt lat="44.836136" lon="4.816023">
        <ele>159.913817</ele>
        <time>2017-06-05T14:47:25.000Z</time>
      </trkpt>
      <trkpt lat="44.836030" lon="4.815982">
        <ele>159.946052</ele>
        <time>2017-06-05T14:47:27.000Z</time>
      </trkpt>
      <trkpt lat="44.835930" lon="4.815940">
        <ele>159.834643</ele>
        <time>2017-06-05T14:47:29.000Z</time>
      </trkpt>
      <trkpt lat="44.835830" lon="4.815902">
        <ele>159.724061</ele>
        <time>2017-06-05T14:47:31.000Z</time>
      </trkpt>
      <trkpt lat="44.835728" lon="4.815860">
        <ele>159.610605</ele>
        <time>2017-06-05T14:47:33.000Z</time>
      </trkpt>
      <trkpt lat="44.835636" lon="4.815822">
        <ele>159.508246</ele>
        <time>2017-06-05T14:47:35.000Z</time>
      </trkpt>
      <trkpt lat="44.835540" lon="4.815778">
        <ele>159.400466</ele>
        <time>2017-06-05T14:47:37.000Z</time>
      </trkpt>
      <trkpt lat="44.835440" lon="4.815734">
        <ele>159.288616</ele>
        <time>2017-06-05T14:47:39.000Z</time>
      </trkpt>
      <trkpt lat="44.835346" lon="4.815688">
        <ele>159.182377</ele>
        <time>2017-06-05T14:47:41.000Z</time>
      </trkpt>
      <trkpt lat="44.835255" lon="4.815651">
        <ele>159.081255</ele>
        <time>2017-06-05T14:47:43.000Z</time>
      </trkpt>
      <trkpt lat="44.835155" lon="4.815615">
        <ele>158.971058</ele>
        <time>2017-06-05T14:47:45.000Z</time>
      </trkpt>
      <trkpt lat="44.835056" lon="4.815577">
        <ele>158.861506</ele>
        <time>2017-06-05T14:47:47.000Z</time>
      </trkpt>
      <trkpt lat="44.834953" lon="4.815537">
        <ele>158.747435</ele>
        <time>2017-06-05T14:47:49.000Z</time>
      </trkpt>
      <trkpt lat="44.834854" lon="4.815495">
        <ele>158.637050</ele>
        <time>2017-06-05T14:47:51.000Z</time>
      </trkpt>
      <trkpt lat="44.834755" lon="4.815454">
        <ele>158.526880</ele>
        <time>2017-06-05T14:47:53.000Z</time>
      </trkpt>
      <trkpt lat="44.834652" lon="4.815411">
        <ele>158.412185</ele>
        <time>2017-06-05T14:47:55.000Z</time>
      </trkpt>
      <trkpt lat="44.834553" lon="4.815355">
        <ele>158.298292</ele>
        <time>2017-06-05T14:47:57.000Z</time>
      </trkpt>
      <trkpt lat="44.834465" lon="4.815311">
        <ele>158.198600</ele>
        <time>2017-06-05T14:47:59.000Z</time>
      </trkpt>
      <trkpt lat="44.834370" lon="4.815259">
        <ele>158.089792</ele>
        <time>2017-06-05T14:48:01.000Z</time>
      </trkpt>
      <trkpt lat="44.834280" lon="4.815209">
        <ele>158.034434</ele>
        <time>2017-06-05T14:48:03.000Z</time>
      </trkpt>
      <trkpt lat="44.834187" lon="4.815158">
        <ele>157.994827</ele>
        <time>2017-06-05T14:48:05.000Z</time>
      </trkpt>
      <trkpt lat="44.834080" lon="4.815105">
        <ele>157.949814</ele>
        <time>2017-06-05T14:48:07.000Z</time>
      </trkpt>
      <trkpt lat="44.833973" lon="4.815047">
        <ele>157.904314</ele>
        <time>2017-06-05T14:48:09.000Z</time>
      </trkpt>
      <trkpt lat="44.833862" lon="4.814978">
        <ele>157.856165</ele>
        <time>2017-06-05T14:48:11.000Z</time>
      </trkpt>
      <trkpt lat="44.833748" lon="4.814911">
        <ele>157.807144</ele>
        <time>2017-06-05T14:48:13.000Z</time>
      </trkpt>
      <trkpt lat="44.833630" lon="4.814840">
        <ele>157.756223</ele>
        <time>2017-06-05T14:48:15.000Z</time>
      </trkpt>
      <trkpt lat="44.833520" lon="4.814773">
        <ele>157.708663</ele>
        <time>2017-06-05T14:48:17.000Z</time>
      </trkpt>
      <trkpt lat="44.833416" lon="4.814707">
        <ele>157.663396</ele>
        <time>2017-06-05T14:48:19.000Z</time>
      </trkpt>
      <trkpt lat="44.833313" lon="4.814626">
        <ele>157.616586</ele>
        <time>2017-06-05T14:48:21.000Z</time>
      </trkpt>
      <trkpt lat="44.833214" lon="4.814555">
        <ele>157.572501</ele>
        <time>2017-06-05T14:48:23.000Z</time>
      </trkpt>
      <trkpt lat="44.833120" lon="4.814472">
        <ele>157.528480</ele>
        <time>2017-06-05T14:48:25.000Z</time>
      </trkpt>
      <trkpt lat="44.833020" lon="4.814392">
        <ele>157.482846</ele>
        <time>2017-06-05T14:48:27.000Z</time>
      </trkpt>
      <trkpt lat="44.832920" lon="4.814313">
        <ele>157.437350</ele>
        <time>2017-06-05T14:48:29.000Z</time>
      </trkpt>
      <trkpt lat="44.832817" lon="4.814227">
        <ele>157.389838</ele>
        <time>2017-06-05T14:48:31.000Z</time>
      </trkpt>
      <trkpt lat="44.832718" lon="4.814144">
        <ele>157.336221</ele>
        <time>2017-06-05T14:48:33.000Z</time>
      </trkpt>
      <trkpt lat="44.832615" lon="4.814055">
        <ele>157.208658</ele>
        <time>2017-06-05T14:48:35.000Z</time>
      </trkpt>
      <trkpt lat="44.832516" lon="4.813962">
        <ele>157.083041</ele>
        <time>2017-06-05T14:48:37.000Z</time>
      </trkpt>
      <trkpt lat="44.832424" lon="4.813876">
        <ele>156.966482</ele>
        <time>2017-06-05T14:48:39.000Z</time>
      </trkpt>
      <trkpt lat="44.832336" lon="4.813786">
        <ele>156.851687</ele>
        <time>2017-06-05T14:48:41.000Z</time>
      </trkpt>
      <trkpt lat="44.832240" lon="4.813695">
        <ele>156.729535</ele>
        <time>2017-06-05T14:48:43.000Z</time>
      </trkpt>
      <trkpt lat="44.832150" lon="4.813595">
        <ele>156.608537</ele>
        <time>2017-06-05T14:48:45.000Z</time>
      </trkpt>
      <trkpt lat="44.832058" lon="4.813500">
        <ele>156.488123</ele>
        <time>2017-06-05T14:48:47.000Z</time>
      </trkpt>
      <trkpt lat="44.831970" lon="4.813406">
        <ele>156.371543</ele>
        <time>2017-06-05T14:48:49.000Z</time>
      </trkpt>
      <trkpt lat="44.831880" lon="4.813313">
        <ele>156.253717</ele>
        <time>2017-06-05T14:48:51.000Z</time>
      </trkpt>
      <trkpt lat="44.831783" lon="4.813215">
        <ele>156.127709</ele>
        <time>2017-06-05T14:48:53.000Z</time>
      </trkpt>
      <trkpt lat="44.831696" lon="4.813133">
        <ele>156.017204</ele>
        <time>2017-06-05T14:48:55.000Z</time>
      </trkpt>
      <trkpt lat="44.831610" lon="4.813047">
        <ele>155.905871</ele>
        <time>2017-06-05T14:48:57.000Z</time>
      </trkpt>
      <trkpt lat="44.831524" lon="4.812957">
        <ele>155.792777</ele>
        <time>2017-06-05T14:48:59.000Z</time>
      </trkpt>
      <trkpt lat="44.831436" lon="4.812867">
        <ele>155.677981</ele>
        <time>2017-06-05T14:49:01.000Z</time>
      </trkpt>
      <trkpt lat="44.831352" lon="4.812792">
        <ele>155.572992</ele>
        <time>2017-06-05T14:49:03.000Z</time>
      </trkpt>
      <trkpt lat="44.831270" lon="4.812711">
        <ele>155.467267</ele>
        <time>2017-06-05T14:49:05.000Z</time>
      </trkpt>
      <trkpt lat="44.831177" lon="4.812622">
        <ele>155.503246</ele>
        <time>2017-06-05T14:49:07.000Z</time>
      </trkpt>
      <trkpt lat="44.831090" lon="4.812530">
        <ele>155.564332</ele>
        <time>2017-06-05T14:49:09.000Z</time>
      </trkpt>
      <trkpt lat="44.831000" lon="4.812441">
        <ele>155.626080</ele>
        <time>2017-06-05T14:49:11.000Z</time>
      </trkpt>
      <trkpt lat="44.830914" lon="4.812350">
        <ele>155.686477</ele>
        <time>2017-06-05T14:49:13.000Z</time>
      </trkpt>
      <trkpt lat="44.830826" lon="4.812261">
        <ele>155.747309</ele>
        <time>2017-06-05T14:49:15.000Z</time>
      </trkpt>
      <trkpt lat="44.830734" lon="4.812178">
        <ele>155.808660</ele>
        <time>2017-06-05T14:49:17.000Z</time>
      </trkpt>
      <trkpt lat="44.830647" lon="4.812096">
        <ele>155.867442</ele>
        <time>2017-06-05T14:49:19.000Z</time>
      </trkpt>
      <trkpt lat="44.830563" lon="4.812024">
        <ele>155.922660</ele>
        <time>2017-06-05T14:49:21.000Z</time>
      </trkpt>
      <trkpt lat="44.830475" lon="4.811941">
        <ele>155.982131</ele>
        <time>2017-06-05T14:49:23.000Z</time>
      </trkpt>
      <trkpt lat="44.830387" lon="4.811862">
        <ele>156.040731</ele>
        <time>2017-06-05T14:49:25.000Z</time>
      </trkpt>
      <trkpt lat="44.830303" lon="4.811782">
        <ele>156.097670</ele>
        <time>2017-06-05T14:49:27.000Z</time>
      </trkpt>
      <trkpt lat="44.830220" lon="4.811710">
        <ele>156.152409</ele>
        <time>2017-06-05T14:49:29.000Z</time>
      </trkpt>
      <trkpt lat="44.830140" lon="4.811637">
        <ele>156.205936</ele>
        <time>2017-06-05T14:49:31.000Z</time>
      </trkpt>
      <trkpt lat="44.830050" lon="4.811572">
        <ele>156.262736</ele>
        <time>2017-06-05T14:49:33.000Z</time>
      </trkpt>
      <trkpt lat="44.829964" lon="4.811508">
        <ele>156.317360</ele>
        <time>2017-06-05T14:49:35.000Z</time>
      </trkpt>
      <trkpt lat="44.829872" lon="4.811445">
        <ele>156.374810</ele>
        <time>2017-06-05T14:49:37.000Z</time>
      </trkpt>
      <trkpt lat="44.829780" lon="4.811374">
        <ele>156.433723</ele>
        <time>2017-06-05T14:49:39.000Z</time>
      </trkpt>
      <trkpt lat="44.829690" lon="4.811306">
        <ele>156.513143</ele>
        <time>2017-06-05T14:49:41.000Z</time>
      </trkpt>
      <trkpt lat="44.829597" lon="4.811246">
        <ele>156.611219</ele>
        <time>2017-06-05T14:49:43.000Z</time>
      </trkpt>
      <trkpt lat="44.829506" lon="4.811193">
        <ele>156.705637</ele>
        <time>2017-06-05T14:49:45.000Z</time>
      </trkpt>
      <trkpt lat="44.829414" lon="4.811132">
        <ele>156.803129</ele>
        <time>2017-06-05T14:49:47.000Z</time>
      </trkpt>
      <trkpt lat="44.829320" lon="4.811077">
        <ele>156.900725</ele>
        <time>2017-06-05T14:49:49.000Z</time>
      </trkpt>
      <trkpt lat="44.829220" lon="4.811018">
        <ele>157.004679</ele>
        <time>2017-06-05T14:49:51.000Z</time>
      </trkpt>
      <trkpt lat="44.829120" lon="4.810966">
        <ele>157.106889</ele>
        <time>2017-06-05T14:49:53.000Z</time>
      </trkpt>
      <trkpt lat="44.829020" lon="4.810912">
        <ele>157.209578</ele>
        <time>2017-06-05T14:49:55.000Z</time>
      </trkpt>
      <trkpt lat="44.828922" lon="4.810860">
        <ele>157.309991</ele>
        <time>2017-06-05T14:49:57.000Z</time>
      </trkpt>
      <trkpt lat="44.828820" lon="4.810812">
        <ele>157.413110</ele>
        <time>2017-06-05T14:49:59.000Z</time>
      </trkpt>
      <trkpt lat="44.828716" lon="4.810767">
        <ele>157.517433</ele>
        <time>2017-06-05T14:50:01.000Z</time>
      </trkpt>
      <trkpt lat="44.828625" lon="4.810722">
        <ele>157.609910</ele>
        <time>2017-06-05T14:50:03.000Z</time>
      </trkpt>
      <trkpt lat="44.828530" lon="4.810672">
        <ele>157.707152</ele>
        <time>2017-06-05T14:50:05.000Z</time>
      </trkpt>
      <trkpt lat="44.828430" lon="4.810626">
        <ele>157.808023</ele>
        <time>2017-06-05T14:50:07.000Z</time>
      </trkpt>
      <trkpt lat="44.828327" lon="4.810591">
        <ele>157.909624</ele>
        <time>2017-06-05T14:50:09.000Z</time>
      </trkpt>
      <trkpt lat="44.828228" lon="4.810550">
        <ele>158.008573</ele>
        <time>2017-06-05T14:50:11.000Z</time>
      </trkpt>
      <trkpt lat="44.828133" lon="4.810504">
        <ele>158.104897</ele>
        <time>2017-06-05T14:50:13.000Z</time>
      </trkpt>
      <trkpt lat="44.828033" lon="4.810461">
        <ele>158.204248</ele>
        <time>2017-06-05T14:50:15.000Z</time>
      </trkpt>
      <trkpt lat="44.827938" lon="4.810422">
        <ele>158.294927</ele>
        <time>2017-06-05T14:50:17.000Z</time>
      </trkpt>
      <trkpt lat="44.827840" lon="4.810375">
        <ele>158.389794</ele>
        <time>2017-06-05T14:50:19.000Z</time>
      </trkpt>
      <trkpt lat="44.827740" lon="4.810329">
        <ele>158.486194</ele>
        <time>2017-06-05T14:50:21.000Z</time>
      </trkpt>
      <trkpt lat="44.827644" lon="4.810279">
        <ele>158.579985</ele>
        <time>2017-06-05T14:50:23.000Z</time>
      </trkpt>
      <trkpt lat="44.827545" lon="4.810238">
        <ele>158.674547</ele>
        <time>2017-06-05T14:50:25.000Z</time>
      </trkpt>
      <trkpt lat="44.827442" lon="4.810193">
        <ele>158.773370</ele>
        <time>2017-06-05T14:50:27.000Z</time>
      </trkpt>
      <trkpt lat="44.827340" lon="4.810144">
        <ele>158.872126</ele>
        <time>2017-06-05T14:50:29.000Z</time>
      </trkpt>
      <trkpt lat="44.827236" lon="4.810099">
        <ele>158.971825</ele>
        <time>2017-06-05T14:50:31.000Z</time>
      </trkpt>
      <trkpt lat="44.827133" lon="4.810058">
        <ele>159.069910</ele>
        <time>2017-06-05T14:50:33.000Z</time>
      </trkpt>
      <trkpt lat="44.827034" lon="4.810011">
        <ele>159.165645</ele>
        <time>2017-06-05T14:50:35.000Z</time>
      </trkpt>
      <trkpt lat="44.826935" lon="4.809969">
        <ele>159.260393</ele>
        <time>2017-06-05T14:50:37.000Z</time>
      </trkpt>
      <trkpt lat="44.826840" lon="4.809924">
        <ele>159.352238</ele>
        <time>2017-06-05T14:50:39.000Z</time>
      </trkpt>
      <trkpt lat="44.826740" lon="4.809882">
        <ele>159.447864</ele>
        <time>2017-06-05T14:50:41.000Z</time>
      </trkpt>
      <trkpt lat="44.826650" lon="4.809838">
        <ele>159.535163</ele>
        <time>2017-06-05T14:50:43.000Z</time>
      </trkpt>
      <trkpt lat="44.826557" lon="4.809810">
        <ele>159.622316</ele>
        <time>2017-06-05T14:50:45.000Z</time>
      </trkpt>
      <trkpt lat="44.826460" lon="4.809805">
        <ele>159.711272</ele>
        <time>2017-06-05T14:50:47.000Z</time>
      </trkpt>
      <trkpt lat="44.826370" lon="4.809811">
        <ele>159.793845</ele>
        <time>2017-06-05T14:50:49.000Z</time>
      </trkpt>
      <trkpt lat="44.826283" lon="4.809841">
        <ele>159.762725</ele>
        <time>2017-06-05T14:50:51.000Z</time>
      </trkpt>
      <trkpt lat="44.826157" lon="4.809911">
        <ele>159.558739</ele>
        <time>2017-06-05T14:50:54.000Z</time>
      </trkpt>
      <trkpt lat="44.826077" lon="4.809988">
        <ele>159.412842</ele>
        <time>2017-06-05T14:50:56.000Z</time>
      </trkpt>
      <trkpt lat="44.826000" lon="4.810067">
        <ele>159.269406</ele>
        <time>2017-06-05T14:50:58.000Z</time>
      </trkpt>
      <trkpt lat="44.825916" lon="4.810138">
        <ele>159.121890</ele>
        <time>2017-06-05T14:51:00.000Z</time>
      </trkpt>
      <trkpt lat="44.825825" lon="4.810195">
        <ele>158.971907</ele>
        <time>2017-06-05T14:51:02.000Z</time>
      </trkpt>
      <trkpt lat="44.825733" lon="4.810245">
        <ele>158.823396</ele>
        <time>2017-06-05T14:51:04.000Z</time>
      </trkpt>
      <trkpt lat="44.825638" lon="4.810254">
        <ele>158.679982</ele>
        <time>2017-06-05T14:51:06.000Z</time>
      </trkpt>
      <trkpt lat="44.825542" lon="4.810217">
        <ele>158.530079</ele>
        <time>2017-06-05T14:51:08.000Z</time>
      </trkpt>
      <trkpt lat="44.825440" lon="4.810174">
        <ele>158.369724</ele>
        <time>2017-06-05T14:51:10.000Z</time>
      </trkpt>
      <trkpt lat="44.825330" lon="4.810129">
        <ele>158.197206</ele>
        <time>2017-06-05T14:51:12.000Z</time>
      </trkpt>
      <trkpt lat="44.825220" lon="4.810082">
        <ele>158.024081</ele>
        <time>2017-06-05T14:51:14.000Z</time>
      </trkpt>
      <trkpt lat="44.825104" lon="4.810031">
        <ele>157.841061</ele>
        <time>2017-06-05T14:51:16.000Z</time>
      </trkpt>
      <trkpt lat="44.824986" lon="4.809957">
        <ele>157.646538</ele>
        <time>2017-06-05T14:51:18.000Z</time>
      </trkpt>
      <trkpt lat="44.824880" lon="4.809825">
        <ele>157.433519</ele>
        <time>2017-06-05T14:51:20.000Z</time>
      </trkpt>
      <trkpt lat="44.824776" lon="4.809704">
        <ele>157.230424</ele>
        <time>2017-06-05T14:51:22.000Z</time>
      </trkpt>
      <trkpt lat="44.824660" lon="4.809600">
        <ele>156.968681</ele>
        <time>2017-06-05T14:51:24.000Z</time>
      </trkpt>
      <trkpt lat="44.824562" lon="4.809506">
        <ele>156.693079</ele>
        <time>2017-06-05T14:51:26.000Z</time>
      </trkpt>
      <trkpt lat="44.824460" lon="4.809390">
        <ele>156.388370</ele>
        <time>2017-06-05T14:51:28.000Z</time>
      </trkpt>
      <trkpt lat="44.824370" lon="4.809287">
        <ele>156.118838</ele>
        <time>2017-06-05T14:51:30.000Z</time>
      </trkpt>
      <trkpt lat="44.824300" lon="4.809205">
        <ele>155.907225</ele>
        <time>2017-06-05T14:51:32.000Z</time>
      </trkpt>
      <trkpt lat="44.824220" lon="4.809114">
        <ele>155.668218</ele>
        <time>2017-06-05T14:51:34.000Z</time>
      </trkpt>
      <trkpt lat="44.824112" lon="4.809039">
        <ele>155.388288</ele>
        <time>2017-06-05T14:51:37.000Z</time>
      </trkpt>
      <trkpt lat="44.824005" lon="4.808975">
        <ele>155.118029</ele>
        <time>2017-06-05T14:51:40.000Z</time>
      </trkpt>
      <trkpt lat="44.823895" lon="4.808891">
        <ele>154.827150</ele>
        <time>2017-06-05T14:51:43.000Z</time>
      </trkpt>
      <trkpt lat="44.823772" lon="4.808824">
        <ele>154.520548</ele>
        <time>2017-06-05T14:51:46.000Z</time>
      </trkpt>
      <trkpt lat="44.823690" lon="4.808733">
        <ele>154.277903</ele>
        <time>2017-06-05T14:51:48.000Z</time>
      </trkpt>
      <trkpt lat="44.823616" lon="4.808614">
        <ele>154.016900</ele>
        <time>2017-06-05T14:51:50.000Z</time>
      </trkpt>
      <trkpt lat="44.823547" lon="4.808494">
        <ele>153.762131</ele>
        <time>2017-06-05T14:51:52.000Z</time>
      </trkpt>
      <trkpt lat="44.823475" lon="4.808374">
        <ele>153.502913</ele>
        <time>2017-06-05T14:51:54.000Z</time>
      </trkpt>
      <trkpt lat="44.823383" lon="4.808279">
        <ele>153.237756</ele>
        <time>2017-06-05T14:51:56.000Z</time>
      </trkpt>
      <trkpt lat="44.823277" lon="4.808219">
        <ele>152.972164</ele>
        <time>2017-06-05T14:51:58.000Z</time>
      </trkpt>
      <trkpt lat="44.823166" lon="4.808152">
        <ele>152.906441</ele>
        <time>2017-06-05T14:52:00.000Z</time>
      </trkpt>
      <trkpt lat="44.823044" lon="4.808091">
        <ele>152.863983</ele>
        <time>2017-06-05T14:52:02.000Z</time>
      </trkpt>
      <trkpt lat="44.822918" lon="4.808033">
        <ele>152.820508</ele>
        <time>2017-06-05T14:52:04.000Z</time>
      </trkpt>
      <trkpt lat="44.822790" lon="4.807982">
        <ele>152.776880</ele>
        <time>2017-06-05T14:52:06.000Z</time>
      </trkpt>
      <trkpt lat="44.822660" lon="4.807934">
        <ele>152.732801</ele>
        <time>2017-06-05T14:52:08.000Z</time>
      </trkpt>
      <trkpt lat="44.822530" lon="4.807882">
        <ele>152.688478</ele>
        <time>2017-06-05T14:52:10.000Z</time>
      </trkpt>
      <trkpt lat="44.822395" lon="4.807833">
        <ele>152.642754</ele>
        <time>2017-06-05T14:52:12.000Z</time>
      </trkpt>
      <trkpt lat="44.822266" lon="4.807793">
        <ele>152.599431</ele>
        <time>2017-06-05T14:52:14.000Z</time>
      </trkpt>
      <trkpt lat="44.822144" lon="4.807741">
        <ele>152.557626</ele>
        <time>2017-06-05T14:52:16.000Z</time>
      </trkpt>
      <trkpt lat="44.822018" lon="4.807698">
        <ele>152.515105</ele>
        <time>2017-06-05T14:52:18.000Z</time>
      </trkpt>
      <trkpt lat="44.821890" lon="4.807664">
        <ele>152.472382</ele>
        <time>2017-06-05T14:52:20.000Z</time>
      </trkpt>
      <trkpt lat="44.821777" lon="4.807623">
        <ele>152.434110</ele>
        <time>2017-06-05T14:52:22.000Z</time>
      </trkpt>
      <trkpt lat="44.821650" lon="4.807568">
        <ele>152.390533</ele>
        <time>2017-06-05T14:52:24.000Z</time>
      </trkpt>
      <trkpt lat="44.821518" lon="4.807531">
        <ele>152.336248</ele>
        <time>2017-06-05T14:52:26.000Z</time>
      </trkpt>
      <trkpt lat="44.821390" lon="4.807501">
        <ele>152.213916</ele>
        <time>2017-06-05T14:52:28.000Z</time>
      </trkpt>
      <trkpt lat="44.821260" lon="4.807478">
        <ele>152.090392</ele>
        <time>2017-06-05T14:52:30.000Z</time>
      </trkpt>
      <trkpt lat="44.821130" lon="4.807457">
        <ele>151.967028</ele>
        <time>2017-06-05T14:52:32.000Z</time>
      </trkpt>
      <trkpt lat="44.821000" lon="4.807437">
        <ele>151.843739</ele>
        <time>2017-06-05T14:52:34.000Z</time>
      </trkpt>
      <trkpt lat="44.820877" lon="4.807408">
        <ele>151.726166</ele>
        <time>2017-06-05T14:52:36.000Z</time>
      </trkpt>
      <trkpt lat="44.820755" lon="4.807393">
        <ele>151.610710</ele>
        <time>2017-06-05T14:52:38.000Z</time>
      </trkpt>
      <trkpt lat="44.820637" lon="4.807394">
        <ele>151.499459</ele>
        <time>2017-06-05T14:52:40.000Z</time>
      </trkpt>
      <trkpt lat="44.820520" lon="4.807374">
        <ele>151.388345</ele>
        <time>2017-06-05T14:52:42.000Z</time>
      </trkpt>
      <trkpt lat="44.820385" lon="4.807344">
        <ele>151.259498</ele>
        <time>2017-06-05T14:52:44.000Z</time>
      </trkpt>
      <trkpt lat="44.820248" lon="4.807278">
        <ele>151.123004</ele>
        <time>2017-06-05T14:52:46.000Z</time>
      </trkpt>
      <trkpt lat="44.820130" lon="4.807189">
        <ele>150.996835</ele>
        <time>2017-06-05T14:52:48.000Z</time>
      </trkpt>
      <trkpt lat="44.820004" lon="4.807111">
        <ele>150.867096</ele>
        <time>2017-06-05T14:52:50.000Z</time>
      </trkpt>
      <trkpt lat="44.819870" lon="4.807033">
        <ele>150.730418</ele>
        <time>2017-06-05T14:52:52.000Z</time>
      </trkpt>
      <trkpt lat="44.819740" lon="4.806939">
        <ele>150.704678</ele>
        <time>2017-06-05T14:52:54.000Z</time>
      </trkpt>
      <trkpt lat="44.819610" lon="4.806875">
        <ele>150.804226</ele>
        <time>2017-06-05T14:52:56.000Z</time>
      </trkpt>
      <trkpt lat="44.819492" lon="4.806802">
        <ele>150.897385</ele>
        <time>2017-06-05T14:52:58.000Z</time>
      </trkpt>
      <trkpt lat="44.819374" lon="4.806733">
        <ele>150.989740</ele>
        <time>2017-06-05T14:53:00.000Z</time>
      </trkpt>
      <trkpt lat="44.819252" lon="4.806655">
        <ele>151.086585</ele>
        <time>2017-06-05T14:53:02.000Z</time>
      </trkpt>
      <trkpt lat="44.819140" lon="4.806567">
        <ele>151.179281</ele>
        <time>2017-06-05T14:53:04.000Z</time>
      </trkpt>
      <trkpt lat="44.819010" lon="4.806517">
        <ele>151.276698</ele>
        <time>2017-06-05T14:53:06.000Z</time>
      </trkpt>
      <trkpt lat="44.818882" lon="4.806476">
        <ele>151.371593</ele>
        <time>2017-06-05T14:53:08.000Z</time>
      </trkpt>
      <trkpt lat="44.818756" lon="4.806429">
        <ele>151.465819</ele>
        <time>2017-06-05T14:53:10.000Z</time>
      </trkpt>
      <trkpt lat="44.818620" lon="4.806400">
        <ele>151.565258</ele>
        <time>2017-06-05T14:53:12.000Z</time>
      </trkpt>
      <trkpt lat="44.818485" lon="4.806384">
        <ele>151.663199</ele>
        <time>2017-06-05T14:53:14.000Z</time>
      </trkpt>
      <trkpt lat="44.818344" lon="4.806384">
        <ele>151.765134</ele>
        <time>2017-06-05T14:53:16.000Z</time>
      </trkpt>
      <trkpt lat="44.818214" lon="4.806375">
        <ele>151.859230</ele>
        <time>2017-06-05T14:53:18.000Z</time>
      </trkpt>
      <trkpt lat="44.818096" lon="4.806352">
        <ele>151.945349</ele>
        <time>2017-06-05T14:53:20.000Z</time>
      </trkpt>
      <trkpt lat="44.817978" lon="4.806346">
        <ele>151.953138</ele>
        <time>2017-06-05T14:53:22.000Z</time>
      </trkpt>
      <trkpt lat="44.817860" lon="4.806324">
        <ele>151.949379</ele>
        <time>2017-06-05T14:53:24.000Z</time>
      </trkpt>
      <trkpt lat="44.817740" lon="4.806312">
        <ele>151.945581</ele>
        <time>2017-06-05T14:53:26.000Z</time>
      </trkpt>
      <trkpt lat="44.817623" lon="4.806291">
        <ele>151.941857</ele>
        <time>2017-06-05T14:53:28.000Z</time>
      </trkpt>
      <trkpt lat="44.817500" lon="4.806280">
        <ele>151.937965</ele>
        <time>2017-06-05T14:53:30.000Z</time>
      </trkpt>
      <trkpt lat="44.817370" lon="4.806265">
        <ele>151.933847</ele>
        <time>2017-06-05T14:53:32.000Z</time>
      </trkpt>
      <trkpt lat="44.817260" lon="4.806247">
        <ele>151.930350</ele>
        <time>2017-06-05T14:53:34.000Z</time>
      </trkpt>
      <trkpt lat="44.817142" lon="4.806238">
        <ele>151.926619</ele>
        <time>2017-06-05T14:53:36.000Z</time>
      </trkpt>
      <trkpt lat="44.817020" lon="4.806233">
        <ele>151.922765</ele>
        <time>2017-06-05T14:53:38.000Z</time>
      </trkpt>
      <trkpt lat="44.816910" lon="4.806218">
        <ele>151.919276</ele>
        <time>2017-06-05T14:53:40.000Z</time>
      </trkpt>
      <trkpt lat="44.816790" lon="4.806205">
        <ele>151.915476</ele>
        <time>2017-06-05T14:53:42.000Z</time>
      </trkpt>
      <trkpt lat="44.816690" lon="4.806182">
        <ele>151.912276</ele>
        <time>2017-06-05T14:53:44.000Z</time>
      </trkpt>
      <trkpt lat="44.816578" lon="4.806163">
        <ele>151.908714</ele>
        <time>2017-06-05T14:53:46.000Z</time>
      </trkpt>
      <trkpt lat="44.816475" lon="4.806139">
        <ele>151.905418</ele>
        <time>2017-06-05T14:53:48.000Z</time>
      </trkpt>
      <trkpt lat="44.816387" lon="4.806095">
        <ele>151.902470</ele>
        <time>2017-06-05T14:53:50.000Z</time>
      </trkpt>
      <trkpt lat="44.816284" lon="4.806049">
        <ele>151.871391</ele>
        <time>2017-06-05T14:53:52.000Z</time>
      </trkpt>
      <trkpt lat="44.816170" lon="4.805986">
        <ele>151.667055</ele>
        <time>2017-06-05T14:53:54.000Z</time>
      </trkpt>
      <trkpt lat="44.816036" lon="4.805931">
        <ele>151.434153</ele>
        <time>2017-06-05T14:53:56.000Z</time>
      </trkpt>
      <trkpt lat="44.815900" lon="4.805853">
        <ele>151.189135</ele>
        <time>2017-06-05T14:53:58.000Z</time>
      </trkpt>
      <trkpt lat="44.815754" lon="4.805789">
        <ele>150.933986</ele>
        <time>2017-06-05T14:54:00.000Z</time>
      </trkpt>
      <trkpt lat="44.815613" lon="4.805762">
        <ele>150.696527</ele>
        <time>2017-06-05T14:54:02.000Z</time>
      </trkpt>
      <trkpt lat="44.815470" lon="4.805734">
        <ele>150.455601</ele>
        <time>2017-06-05T14:54:04.000Z</time>
      </trkpt>
      <trkpt lat="44.815334" lon="4.805701">
        <ele>150.225310</ele>
        <time>2017-06-05T14:54:06.000Z</time>
      </trkpt>
      <trkpt lat="44.815197" lon="4.805664">
        <ele>149.992529</ele>
        <time>2017-06-05T14:54:08.000Z</time>
      </trkpt>
      <trkpt lat="44.815070" lon="4.805648">
        <ele>149.779750</ele>
        <time>2017-06-05T14:54:10.000Z</time>
      </trkpt>
      <trkpt lat="44.814940" lon="4.805621">
        <ele>149.560467</ele>
        <time>2017-06-05T14:54:12.000Z</time>
      </trkpt>
      <trkpt lat="44.814808" lon="4.805578">
        <ele>149.334383</ele>
        <time>2017-06-05T14:54:14.000Z</time>
      </trkpt>
      <trkpt lat="44.814690" lon="4.805530">
        <ele>149.129433</ele>
        <time>2017-06-05T14:54:16.000Z</time>
      </trkpt>
      <trkpt lat="44.814570" lon="4.805454">
        <ele>148.909897</ele>
        <time>2017-06-05T14:54:18.000Z</time>
      </trkpt>
      <trkpt lat="44.814453" lon="4.805357">
        <ele>148.761974</ele>
        <time>2017-06-05T14:54:20.000Z</time>
      </trkpt>
      <trkpt lat="44.814335" lon="4.805290">
        <ele>148.627401</ele>
        <time>2017-06-05T14:54:22.000Z</time>
      </trkpt>
      <trkpt lat="44.814217" lon="4.805221">
        <ele>148.492260</ele>
        <time>2017-06-05T14:54:24.000Z</time>
      </trkpt>
      <trkpt lat="44.814102" lon="4.805124">
        <ele>148.350491</ele>
        <time>2017-06-05T14:54:26.000Z</time>
      </trkpt>
      <trkpt lat="44.813988" lon="4.805035">
        <ele>148.212635</ele>
        <time>2017-06-05T14:54:28.000Z</time>
      </trkpt>
      <trkpt lat="44.813890" lon="4.804957">
        <ele>148.093581</ele>
        <time>2017-06-05T14:54:30.000Z</time>
      </trkpt>
      <trkpt lat="44.813780" lon="4.804872">
        <ele>147.960880</ele>
        <time>2017-06-05T14:54:32.000Z</time>
      </trkpt>
      <trkpt lat="44.813690" lon="4.804762">
        <ele>147.834868</ele>
        <time>2017-06-05T14:54:34.000Z</time>
      </trkpt>
      <trkpt lat="44.813583" lon="4.804653">
        <ele>147.695214</ele>
        <time>2017-06-05T14:54:36.000Z</time>
      </trkpt>
      <trkpt lat="44.813480" lon="4.804550">
        <ele>147.561622</ele>
        <time>2017-06-05T14:54:38.000Z</time>
      </trkpt>
      <trkpt lat="44.813380" lon="4.804445">
        <ele>147.429714</ele>
        <time>2017-06-05T14:54:40.000Z</time>
      </trkpt>
      <trkpt lat="44.813282" lon="4.804338">
        <ele>147.298582</ele>
        <time>2017-06-05T14:54:42.000Z</time>
      </trkpt>
      <trkpt lat="44.813187" lon="4.804219">
        <ele>147.164140</ele>
        <time>2017-06-05T14:54:44.000Z</time>
      </trkpt>
      <trkpt lat="44.813087" lon="4.804090">
        <ele>147.020743</ele>
        <time>2017-06-05T14:54:46.000Z</time>
      </trkpt>
      <trkpt lat="44.812990" lon="4.803987">
        <ele>147.065326</ele>
        <time>2017-06-05T14:54:48.000Z</time>
      </trkpt>
      <trkpt lat="44.812890" lon="4.803890">
        <ele>147.152517</ele>
        <time>2017-06-05T14:54:50.000Z</time>
      </trkpt>
      <trkpt lat="44.812800" lon="4.803778">
        <ele>147.238748</ele>
        <time>2017-06-05T14:54:52.000Z</time>
      </trkpt>
      <trkpt lat="44.812710" lon="4.803670">
        <ele>147.323644</ele>
        <time>2017-06-05T14:54:54.000Z</time>
      </trkpt>
      <trkpt lat="44.812614" lon="4.803559">
        <ele>147.412828</ele>
        <time>2017-06-05T14:54:56.000Z</time>
      </trkpt>
      <trkpt lat="44.812530" lon="4.803446">
        <ele>147.496229</ele>
        <time>2017-06-05T14:54:58.000Z</time>
      </trkpt>
      <trkpt lat="44.812450" lon="4.803330">
        <ele>147.578665</ele>
        <time>2017-06-05T14:55:00.000Z</time>
      </trkpt>
      <trkpt lat="44.812363" lon="4.803231">
        <ele>147.658975</ele>
        <time>2017-06-05T14:55:02.000Z</time>
      </trkpt>
      <trkpt lat="44.812275" lon="4.803129">
        <ele>147.740808</ele>
        <time>2017-06-05T14:55:04.000Z</time>
      </trkpt>
      <trkpt lat="44.812202" lon="4.803019">
        <ele>147.817561</ele>
        <time>2017-06-05T14:55:06.000Z</time>
      </trkpt>
      <trkpt lat="44.812138" lon="4.802913">
        <ele>147.888488</ele>
        <time>2017-06-05T14:55:08.000Z</time>
      </trkpt>
      <trkpt lat="44.812103" lon="4.802755">
        <ele>147.972832</ele>
        <time>2017-06-05T14:55:11.000Z</time>
      </trkpt>
      <trkpt lat="44.812200" lon="4.802680">
        <ele>148.052298</ele>
        <time>2017-06-05T14:55:14.000Z</time>
      </trkpt>
      <trkpt lat="44.812332" lon="4.802689">
        <ele>148.147220</ele>
        <time>2017-06-05T14:55:17.000Z</time>
      </trkpt>
      <trkpt lat="44.812466" lon="4.802709">
        <ele>148.244007</ele>
        <time>2017-06-05T14:55:20.000Z</time>
      </trkpt>
      <trkpt lat="44.812580" lon="4.802706">
        <ele>148.332333</ele>
        <time>2017-06-05T14:55:22.000Z</time>
      </trkpt>
      <trkpt lat="44.812690" lon="4.802716">
        <ele>148.424678</ele>
        <time>2017-06-05T14:55:24.000Z</time>
      </trkpt>
      <trkpt lat="44.812810" lon="4.802733">
        <ele>148.525715</ele>
        <time>2017-06-05T14:55:26.000Z</time>
      </trkpt>
      <trkpt lat="44.812920" lon="4.802749">
        <ele>148.618358</ele>
        <time>2017-06-05T14:55:28.000Z</time>
      </trkpt>
      <trkpt lat="44.813026" lon="4.802767">
        <ele>148.707803</ele>
        <time>2017-06-05T14:55:30.000Z</time>
      </trkpt>
      <trkpt lat="44.813150" lon="4.802768">
        <ele>148.811687</ele>
        <time>2017-06-05T14:55:32.000Z</time>
      </trkpt>
      <trkpt lat="44.813255" lon="4.802775">
        <ele>148.899750</ele>
        <time>2017-06-05T14:55:34.000Z</time>
      </trkpt>
      <trkpt lat="44.813366" lon="4.802783">
        <ele>148.992862</ele>
        <time>2017-06-05T14:55:36.000Z</time>
      </trkpt>
      <trkpt lat="44.813488" lon="4.802796">
        <ele>149.095360</ele>
        <time>2017-06-05T14:55:38.000Z</time>
      </trkpt>
      <trkpt lat="44.813610" lon="4.802806">
        <ele>149.197740</ele>
        <time>2017-06-05T14:55:40.000Z</time>
      </trkpt>
      <trkpt lat="44.813713" lon="4.802817">
        <ele>149.284276</ele>
        <time>2017-06-05T14:55:42.000Z</time>
      </trkpt>
      <trkpt lat="44.813816" lon="4.802833">
        <ele>149.371088</ele>
        <time>2017-06-05T14:55:44.000Z</time>
      </trkpt>
      <trkpt lat="44.813920" lon="4.802852">
        <ele>149.458943</ele>
        <time>2017-06-05T14:55:46.000Z</time>
      </trkpt>
      <trkpt lat="44.814022" lon="4.802867">
        <ele>149.544859</ele>
        <time>2017-06-05T14:55:48.000Z</time>
      </trkpt>
      <trkpt lat="44.814120" lon="4.802876">
        <ele>149.627133</ele>
        <time>2017-06-05T14:55:50.000Z</time>
      </trkpt>
      <trkpt lat="44.814236" lon="4.802877">
        <ele>149.724315</ele>
        <time>2017-06-05T14:55:52.000Z</time>
      </trkpt>
      <trkpt lat="44.814346" lon="4.802893">
        <ele>149.800253</ele>
        <time>2017-06-05T14:55:54.000Z</time>
      </trkpt>
      <trkpt lat="44.814457" lon="4.802893">
        <ele>149.825317</ele>
        <time>2017-06-05T14:55:56.000Z</time>
      </trkpt>
      <trkpt lat="44.814568" lon="4.802908">
        <ele>149.850496</ele>
        <time>2017-06-05T14:55:58.000Z</time>
      </trkpt>
      <trkpt lat="44.814674" lon="4.802921">
        <ele>149.874521</ele>
        <time>2017-06-05T14:56:00.000Z</time>
      </trkpt>
      <trkpt lat="44.814790" lon="4.802931">
        <ele>149.900763</ele>
        <time>2017-06-05T14:56:02.000Z</time>
      </trkpt>
      <trkpt lat="44.814900" lon="4.802936">
        <ele>149.925614</ele>
        <time>2017-06-05T14:56:04.000Z</time>
      </trkpt>
      <trkpt lat="44.815006" lon="4.802944">
        <ele>149.949583</ele>
        <time>2017-06-05T14:56:06.000Z</time>
      </trkpt>
      <trkpt lat="44.815113" lon="4.802957">
        <ele>149.973834</ele>
        <time>2017-06-05T14:56:08.000Z</time>
      </trkpt>
      <trkpt lat="44.815228" lon="4.802957">
        <ele>149.999801</ele>
        <time>2017-06-05T14:56:10.000Z</time>
      </trkpt>
      <trkpt lat="44.815334" lon="4.802961">
        <ele>150.023744</ele>
        <time>2017-06-05T14:56:12.000Z</time>
      </trkpt>
      <trkpt lat="44.815440" lon="4.802962">
        <ele>150.047680</ele>
        <time>2017-06-05T14:56:14.000Z</time>
      </trkpt>
      <trkpt lat="44.815550" lon="4.802961">
        <ele>150.072519</ele>
        <time>2017-06-05T14:56:16.000Z</time>
      </trkpt>
      <trkpt lat="44.815650" lon="4.802960">
        <ele>150.095099</ele>
        <time>2017-06-05T14:56:18.000Z</time>
      </trkpt>
      <trkpt lat="44.815750" lon="4.802961">
        <ele>150.117680</ele>
        <time>2017-06-05T14:56:20.000Z</time>
      </trkpt>
      <trkpt lat="44.815850" lon="4.802958">
        <ele>150.140265</ele>
        <time>2017-06-05T14:56:22.000Z</time>
      </trkpt>
      <trkpt lat="44.815952" lon="4.802950">
        <ele>150.163333</ele>
        <time>2017-06-05T14:56:24.000Z</time>
      </trkpt>
      <trkpt lat="44.816055" lon="4.802946">
        <ele>150.186599</ele>
        <time>2017-06-05T14:56:26.000Z</time>
      </trkpt>
      <trkpt lat="44.816154" lon="4.802928">
        <ele>150.192999</ele>
        <time>2017-06-05T14:56:28.000Z</time>
      </trkpt>
      <trkpt lat="44.816257" lon="4.802922">
        <ele>150.174126</ele>
        <time>2017-06-05T14:56:30.000Z</time>
      </trkpt>
      <trkpt lat="44.816350" lon="4.802913">
        <ele>150.157060</ele>
        <time>2017-06-05T14:56:32.000Z</time>
      </trkpt>
      <trkpt lat="44.816444" lon="4.802896">
        <ele>150.139710</ele>
        <time>2017-06-05T14:56:34.000Z</time>
      </trkpt>
      <trkpt lat="44.816544" lon="4.802877">
        <ele>150.121237</ele>
        <time>2017-06-05T14:56:36.000Z</time>
      </trkpt>
      <trkpt lat="44.816635" lon="4.802875">
        <ele>150.104575</ele>
        <time>2017-06-05T14:56:38.000Z</time>
      </trkpt>
      <trkpt lat="44.816727" lon="4.802866">
        <ele>150.087692</ele>
        <time>2017-06-05T14:56:40.000Z</time>
      </trkpt>
      <trkpt lat="44.816850" lon="4.802856">
        <ele>150.065136</ele>
        <time>2017-06-05T14:56:43.000Z</time>
      </trkpt>
      <trkpt lat="44.816940" lon="4.802842">
        <ele>150.048560</ele>
        <time>2017-06-05T14:56:45.000Z</time>
      </trkpt>
      <trkpt lat="44.817036" lon="4.802823">
        <ele>150.030812</ele>
        <time>2017-06-05T14:56:47.000Z</time>
      </trkpt>
      <trkpt lat="44.817154" lon="4.802803">
        <ele>150.009054</ele>
        <time>2017-06-05T14:56:50.000Z</time>
      </trkpt>
      <trkpt lat="44.817272" lon="4.802778">
        <ele>149.987208</ele>
        <time>2017-06-05T14:56:53.000Z</time>
      </trkpt>
      <trkpt lat="44.817394" lon="4.802755">
        <ele>149.964674</ele>
        <time>2017-06-05T14:56:56.000Z</time>
      </trkpt>
      <trkpt lat="44.817524" lon="4.802720">
        <ele>149.940445</ele>
        <time>2017-06-05T14:56:59.000Z</time>
      </trkpt>
      <trkpt lat="44.817620" lon="4.802691">
        <ele>149.922470</ele>
        <time>2017-06-05T14:57:01.000Z</time>
      </trkpt>
      <trkpt lat="44.817715" lon="4.802674">
        <ele>149.904939</ele>
        <time>2017-06-05T14:57:03.000Z</time>
      </trkpt>
      <trkpt lat="44.817844" lon="4.802631">
        <ele>149.880671</ele>
        <time>2017-06-05T14:57:06.000Z</time>
      </trkpt>
      <trkpt lat="44.817974" lon="4.802594">
        <ele>149.910351</ele>
        <time>2017-06-05T14:57:09.000Z</time>
      </trkpt>
      <trkpt lat="44.818070" lon="4.802569">
        <ele>149.958767</ele>
        <time>2017-06-05T14:57:11.000Z</time>
      </trkpt>
      <trkpt lat="44.818165" lon="4.802545">
        <ele>150.006633</ele>
        <time>2017-06-05T14:57:13.000Z</time>
      </trkpt>
      <trkpt lat="44.818256" lon="4.802523">
        <ele>150.052423</ele>
        <time>2017-06-05T14:57:15.000Z</time>
      </trkpt>
      <trkpt lat="44.818350" lon="4.802502">
        <ele>150.099623</ele>
        <time>2017-06-05T14:57:17.000Z</time>
      </trkpt>
      <trkpt lat="44.818443" lon="4.802483">
        <ele>150.146228</ele>
        <time>2017-06-05T14:57:19.000Z</time>
      </trkpt>
      <trkpt lat="44.818535" lon="4.802473">
        <ele>150.191990</ele>
        <time>2017-06-05T14:57:21.000Z</time>
      </trkpt>
      <trkpt lat="44.818634" lon="4.802462">
        <ele>150.241241</ele>
        <time>2017-06-05T14:57:23.000Z</time>
      </trkpt>
      <trkpt lat="44.818730" lon="4.802464">
        <ele>150.288857</ele>
        <time>2017-06-05T14:57:25.000Z</time>
      </trkpt>
      <trkpt lat="44.818825" lon="4.802454">
        <ele>150.336103</ele>
        <time>2017-06-05T14:57:27.000Z</time>
      </trkpt>
      <trkpt lat="44.818924" lon="4.802443">
        <ele>150.385354</ele>
        <time>2017-06-05T14:57:29.000Z</time>
      </trkpt>
      <trkpt lat="44.819027" lon="4.802439">
        <ele>150.436455</ele>
        <time>2017-06-05T14:57:31.000Z</time>
      </trkpt>
      <trkpt lat="44.819122" lon="4.802431">
        <ele>150.483654</ele>
        <time>2017-06-05T14:57:33.000Z</time>
      </trkpt>
      <trkpt lat="44.819214" lon="4.802417">
        <ele>150.529546</ele>
        <time>2017-06-05T14:57:35.000Z</time>
      </trkpt>
      <trkpt lat="44.819313" lon="4.802402">
        <ele>150.578928</ele>
        <time>2017-06-05T14:57:37.000Z</time>
      </trkpt>
      <trkpt lat="44.819412" lon="4.802393">
        <ele>150.628128</ele>
        <time>2017-06-05T14:57:39.000Z</time>
      </trkpt>
      <trkpt lat="44.819515" lon="4.802383">
        <ele>150.679331</ele>
        <time>2017-06-05T14:57:41.000Z</time>
      </trkpt>
      <trkpt lat="44.819614" lon="4.802380">
        <ele>150.728441</ele>
        <time>2017-06-05T14:57:43.000Z</time>
      </trkpt>
      <trkpt lat="44.819717" lon="4.802380">
        <ele>150.784440</ele>
        <time>2017-06-05T14:57:45.000Z</time>
      </trkpt>
      <trkpt lat="44.819830" lon="4.802375">
        <ele>150.857158</ele>
        <time>2017-06-05T14:57:47.000Z</time>
      </trkpt>
      <trkpt lat="44.819940" lon="4.802372">
        <ele>150.927924</ele>
        <time>2017-06-05T14:57:49.000Z</time>
      </trkpt>
      <trkpt lat="44.820050" lon="4.802362">
        <ele>150.998824</ele>
        <time>2017-06-05T14:57:51.000Z</time>
      </trkpt>
      <trkpt lat="44.820152" lon="4.802344">
        <ele>151.064943</ele>
        <time>2017-06-05T14:57:53.000Z</time>
      </trkpt>
      <trkpt lat="44.820255" lon="4.802333">
        <ele>151.131384</ele>
        <time>2017-06-05T14:57:55.000Z</time>
      </trkpt>
      <trkpt lat="44.820360" lon="4.802334">
        <ele>151.198922</ele>
        <time>2017-06-05T14:57:57.000Z</time>
      </trkpt>
      <trkpt lat="44.820457" lon="4.802330">
        <ele>151.261340</ele>
        <time>2017-06-05T14:57:59.000Z</time>
      </trkpt>
      <trkpt lat="44.820560" lon="4.802324">
        <ele>151.327647</ele>
        <time>2017-06-05T14:58:01.000Z</time>
      </trkpt>
      <trkpt lat="44.820660" lon="4.802321">
        <ele>151.391982</ele>
        <time>2017-06-05T14:58:03.000Z</time>
      </trkpt>
      <trkpt lat="44.820760" lon="4.802301">
        <ele>151.456947</ele>
        <time>2017-06-05T14:58:05.000Z</time>
      </trkpt>
      <trkpt lat="44.820860" lon="4.802284">
        <ele>151.521734</ele>
        <time>2017-06-05T14:58:07.000Z</time>
      </trkpt>
      <trkpt lat="44.820960" lon="4.802264">
        <ele>151.586699</ele>
        <time>2017-06-05T14:58:09.000Z</time>
      </trkpt>
      <trkpt lat="44.821083" lon="4.802234">
        <ele>151.666989</ele>
        <time>2017-06-05T14:58:12.000Z</time>
      </trkpt>
      <trkpt lat="44.821190" lon="4.802221">
        <ele>151.736067</ele>
        <time>2017-06-05T14:58:15.000Z</time>
      </trkpt>
      <trkpt lat="44.821310" lon="4.802182">
        <ele>151.815276</ele>
        <time>2017-06-05T14:58:19.000Z</time>
      </trkpt>
      <trkpt lat="44.821410" lon="4.802145">
        <ele>151.881775</ele>
        <time>2017-06-05T14:58:22.000Z</time>
      </trkpt>
      <trkpt lat="44.821507" lon="4.802104">
        <ele>151.902544</ele>
        <time>2017-06-05T14:58:25.000Z</time>
      </trkpt>
      <trkpt lat="44.821625" lon="4.802067">
        <ele>151.852723</ele>
        <time>2017-06-05T14:58:29.000Z</time>
      </trkpt>
      <trkpt lat="44.821720" lon="4.802000">
        <ele>151.808944</ele>
        <time>2017-06-05T14:58:32.000Z</time>
      </trkpt>
      <trkpt lat="44.821823" lon="4.801943">
        <ele>151.763340</ele>
        <time>2017-06-05T14:58:35.000Z</time>
      </trkpt>
      <trkpt lat="44.821926" lon="4.801881">
        <ele>151.717182</ele>
        <time>2017-06-05T14:58:38.000Z</time>
      </trkpt>
      <trkpt lat="44.822033" lon="4.801804">
        <ele>151.667670</ele>
        <time>2017-06-05T14:58:41.000Z</time>
      </trkpt>
      <trkpt lat="44.822140" lon="4.801741">
        <ele>151.619879</ele>
        <time>2017-06-05T14:58:44.000Z</time>
      </trkpt>
      <trkpt lat="44.822250" lon="4.801670">
        <ele>151.570018</ele>
        <time>2017-06-05T14:58:47.000Z</time>
      </trkpt>
      <trkpt lat="44.822357" lon="4.801593">
        <ele>151.520506</ele>
        <time>2017-06-05T14:58:50.000Z</time>
      </trkpt>
      <trkpt lat="44.822470" lon="4.801519">
        <ele>151.469155</ele>
        <time>2017-06-05T14:58:53.000Z</time>
      </trkpt>
      <trkpt lat="44.822580" lon="4.801431">
        <ele>151.417030</ele>
        <time>2017-06-05T14:58:56.000Z</time>
      </trkpt>
      <trkpt lat="44.822697" lon="4.801365">
        <ele>151.365092</ele>
        <time>2017-06-05T14:58:59.000Z</time>
      </trkpt>
      <trkpt lat="44.822790" lon="4.801279">
        <ele>151.319254</ele>
        <time>2017-06-05T14:59:02.000Z</time>
      </trkpt>
      <trkpt lat="44.822876" lon="4.801202">
        <ele>151.277266</ele>
        <time>2017-06-05T14:59:05.000Z</time>
      </trkpt>
      <trkpt lat="44.822970" lon="4.801145">
        <ele>151.235093</ele>
        <time>2017-06-05T14:59:08.000Z</time>
      </trkpt>
      <trkpt lat="44.823060" lon="4.801074">
        <ele>151.192588</ele>
        <time>2017-06-05T14:59:11.000Z</time>
      </trkpt>
      <trkpt lat="44.823174" lon="4.801025">
        <ele>150.992588</ele>
        <time>2017-06-05T14:59:14.000Z</time>
      </trkpt>
      <trkpt lat="44.823273" lon="4.800973">
        <ele>150.761895</ele>
        <time>2017-06-05T14:59:17.000Z</time>
      </trkpt>
      <trkpt lat="44.823383" lon="4.800937">
        <ele>150.515311</ele>
        <time>2017-06-05T14:59:21.000Z</time>
      </trkpt>
      <trkpt lat="44.823470" lon="4.800904">
        <ele>150.318582</ele>
        <time>2017-06-05T14:59:25.000Z</time>
      </trkpt>
      <trkpt lat="44.823563" lon="4.800900">
        <ele>150.115411</ele>
        <time>2017-06-05T14:59:30.000Z</time>
      </trkpt>
      <trkpt lat="44.823666" lon="4.800857">
        <ele>149.880846</ele>
        <time>2017-06-05T14:59:35.000Z</time>
      </trkpt>
      <trkpt lat="44.823760" lon="4.800832">
        <ele>149.671967</ele>
        <time>2017-06-05T14:59:38.000Z</time>
      </trkpt>
      <trkpt lat="44.823853" lon="4.800811">
        <ele>149.466303</ele>
        <time>2017-06-05T14:59:41.000Z</time>
      </trkpt>
      <trkpt lat="44.823950" lon="4.800828">
        <ele>149.252862</ele>
        <time>2017-06-05T14:59:44.000Z</time>
      </trkpt>
      <trkpt lat="44.824040" lon="4.800867">
        <ele>149.047264</ele>
        <time>2017-06-05T14:59:49.000Z</time>
      </trkpt>
      <trkpt lat="44.824130" lon="4.800900">
        <ele>148.844202</ele>
        <time>2017-06-05T14:59:55.000Z</time>
      </trkpt>
      <trkpt lat="44.824040" lon="4.800871">
        <ele>148.642609</ele>
        <time>2017-06-05T15:00:03.000Z</time>
      </trkpt>
      <trkpt lat="44.823920" lon="4.800857">
        <ele>148.379680</ele>
        <time>2017-06-05T15:00:08.000Z</time>
      </trkpt>
      <trkpt lat="44.823822" lon="4.800837">
        <ele>148.163456</ele>
        <time>2017-06-05T15:00:12.000Z</time>
      </trkpt>
      <trkpt lat="44.823730" lon="4.800840">
        <ele>147.962510</ele>
        <time>2017-06-05T15:00:15.000Z</time>
      </trkpt>
      <trkpt lat="44.823627" lon="4.800860">
        <ele>147.735475</ele>
        <time>2017-06-05T15:00:18.000Z</time>
      </trkpt>
      <trkpt lat="44.823524" lon="4.800885">
        <ele>147.507254</ele>
        <time>2017-06-05T15:00:21.000Z</time>
      </trkpt>
      <trkpt lat="44.823430" lon="4.800919">
        <ele>147.295347</ele>
        <time>2017-06-05T15:00:24.000Z</time>
      </trkpt>
      <trkpt lat="44.823340" lon="4.800936">
        <ele>147.547182</ele>
        <time>2017-06-05T15:00:28.000Z</time>
      </trkpt>
      <trkpt lat="44.823400" lon="4.800826">
        <ele>147.960575</ele>
        <time>2017-06-05T15:00:33.000Z</time>
      </trkpt>
      <trkpt lat="44.823500" lon="4.800799">
        <ele>148.388218</ele>
        <time>2017-06-05T15:00:37.000Z</time>
      </trkpt>
      <trkpt lat="44.823593" lon="4.800767">
        <ele>148.790293</ele>
        <time>2017-06-05T15:00:40.000Z</time>
      </trkpt>
      <trkpt lat="44.823700" lon="4.800715">
        <ele>149.265655</ele>
        <time>2017-06-05T15:00:44.000Z</time>
      </trkpt>
      <trkpt lat="44.823795" lon="4.800659">
        <ele>149.698137</ele>
        <time>2017-06-05T15:00:48.000Z</time>
      </trkpt>
      <trkpt lat="44.823900" lon="4.800577">
        <ele>150.202284</ele>
        <time>2017-06-05T15:00:52.000Z</time>
      </trkpt>
      <trkpt lat="44.823986" lon="4.800511">
        <ele>150.613539</ele>
        <time>2017-06-05T15:00:55.000Z</time>
      </trkpt>
      <trkpt lat="44.824080" lon="4.800446">
        <ele>151.053278</ele>
        <time>2017-06-05T15:00:58.000Z</time>
      </trkpt>
      <trkpt lat="44.824173" lon="4.800364">
        <ele>151.513984</ele>
        <time>2017-06-05T15:01:01.000Z</time>
      </trkpt>
      <trkpt lat="44.824280" lon="4.800281">
        <ele>152.026924</ele>
        <time>2017-06-05T15:01:04.000Z</time>
      </trkpt>
      <trkpt lat="44.824390" lon="4.800208">
        <ele>152.537559</ele>
        <time>2017-06-05T15:01:07.000Z</time>
      </trkpt>
      <trkpt lat="44.824480" lon="4.800127">
        <ele>152.986020</ele>
        <time>2017-06-05T15:01:10.000Z</time>
      </trkpt>
      <trkpt lat="44.824560" lon="4.800059">
        <ele>153.378369</ele>
        <time>2017-06-05T15:01:13.000Z</time>
      </trkpt>
      <trkpt lat="44.824635" lon="4.799988">
        <ele>153.757798</ele>
        <time>2017-06-05T15:01:16.000Z</time>
      </trkpt>
      <trkpt lat="44.824722" lon="4.799944">
        <ele>154.146006</ele>
        <time>2017-06-05T15:01:19.000Z</time>
      </trkpt>
      <trkpt lat="44.824818" lon="4.799938">
        <ele>154.549613</ele>
        <time>2017-06-05T15:01:24.000Z</time>
      </trkpt>
      <trkpt lat="44.824800" lon="4.799780">
        <ele>154.845189</ele>
        <time>2017-06-05T15:02:18.000Z</time>
      </trkpt>
      <trkpt lat="44.824720" lon="4.799632">
        <ele>154.944747</ele>
        <time>2017-06-05T15:02:21.000Z</time>
      </trkpt>
      <trkpt lat="44.824650" lon="4.799520">
        <ele>155.024615</ele>
        <time>2017-06-05T15:02:23.000Z</time>
      </trkpt>
      <trkpt lat="44.824590" lon="4.799418">
        <ele>155.095514</ele>
        <time>2017-06-05T15:02:25.000Z</time>
      </trkpt>
      <trkpt lat="44.824535" lon="4.799313">
        <ele>155.165351</ele>
        <time>2017-06-05T15:02:27.000Z</time>
      </trkpt>
      <trkpt lat="44.824480" lon="4.799213">
        <ele>155.233055</ele>
        <time>2017-06-05T15:02:29.000Z</time>
      </trkpt>
      <trkpt lat="44.824425" lon="4.799104">
        <ele>155.304625</ele>
        <time>2017-06-05T15:02:31.000Z</time>
      </trkpt>
      <trkpt lat="44.824368" lon="4.798982">
        <ele>155.382787</ele>
        <time>2017-06-05T15:02:33.000Z</time>
      </trkpt>
      <trkpt lat="44.824306" lon="4.798866">
        <ele>155.460499</ele>
        <time>2017-06-05T15:02:35.000Z</time>
      </trkpt>
      <trkpt lat="44.824245" lon="4.798748">
        <ele>155.538622</ele>
        <time>2017-06-05T15:02:37.000Z</time>
      </trkpt>
      <trkpt lat="44.824180" lon="4.798632">
        <ele>155.617717</ele>
        <time>2017-06-05T15:02:39.000Z</time>
      </trkpt>
      <trkpt lat="44.824120" lon="4.798523">
        <ele>155.691537</ele>
        <time>2017-06-05T15:02:41.000Z</time>
      </trkpt>
      <trkpt lat="44.824066" lon="4.798422">
        <ele>155.759208</ele>
        <time>2017-06-05T15:02:43.000Z</time>
      </trkpt>
      <trkpt lat="44.824013" lon="4.798307">
        <ele>155.832585</ele>
        <time>2017-06-05T15:02:45.000Z</time>
      </trkpt>
      <trkpt lat="44.823925" lon="4.798175">
        <ele>155.929509</ele>
        <time>2017-06-05T15:02:48.000Z</time>
      </trkpt>
      <trkpt lat="44.823820" lon="4.798057">
        <ele>156.030797</ele>
        <time>2017-06-05T15:02:51.000Z</time>
      </trkpt>
      <trkpt lat="44.823727" lon="4.798070">
        <ele>156.101295</ele>
        <time>2017-06-05T15:02:54.000Z</time>
      </trkpt>
      <trkpt lat="44.823710" lon="4.798235">
        <ele>156.071660</ele>
        <time>2017-06-05T15:02:57.000Z</time>
      </trkpt>
      <trkpt lat="44.823670" lon="4.798373">
        <ele>155.815139</ele>
        <time>2017-06-05T15:03:00.000Z</time>
      </trkpt>
      <trkpt lat="44.823616" lon="4.798488">
        <ele>155.577822</ele>
        <time>2017-06-05T15:03:03.000Z</time>
      </trkpt>
      <trkpt lat="44.823480" lon="4.798817">
        <ele>154.922580</ele>
        <time>2017-06-05T15:03:34.000Z</time>
      </trkpt>
      <trkpt lat="44.823390" lon="4.798989">
        <ele>154.554794</ele>
        <time>2017-06-05T15:03:36.000Z</time>
      </trkpt>
      <trkpt lat="44.823300" lon="4.799147">
        <ele>154.206100</ele>
        <time>2017-06-05T15:03:38.000Z</time>
      </trkpt>
      <trkpt lat="44.823196" lon="4.799265">
        <ele>153.882241</ele>
        <time>2017-06-05T15:03:40.000Z</time>
      </trkpt>
      <trkpt lat="44.823086" lon="4.799356">
        <ele>153.572834</ele>
        <time>2017-06-05T15:03:42.000Z</time>
      </trkpt>
      <trkpt lat="44.822980" lon="4.799455">
        <ele>153.264372</ele>
        <time>2017-06-05T15:03:44.000Z</time>
      </trkpt>
      <trkpt lat="44.822890" lon="4.799548">
        <ele>152.993667</ele>
        <time>2017-06-05T15:03:46.000Z</time>
      </trkpt>
      <trkpt lat="44.822807" lon="4.799591">
        <ele>152.779145</ele>
        <time>2017-06-05T15:03:48.000Z</time>
      </trkpt>
      <trkpt lat="44.822704" lon="4.799625">
        <ele>152.522510</ele>
        <time>2017-06-05T15:03:51.000Z</time>
      </trkpt>
      <trkpt lat="44.822617" lon="4.799670">
        <ele>152.297692</ele>
        <time>2017-06-05T15:03:54.000Z</time>
      </trkpt>
      <trkpt lat="44.822525" lon="4.799716">
        <ele>152.060880</ele>
        <time>2017-06-05T15:03:57.000Z</time>
      </trkpt>
      <trkpt lat="44.822426" lon="4.799775">
        <ele>151.800130</ele>
        <time>2017-06-05T15:04:00.000Z</time>
      </trkpt>
      <trkpt lat="44.822330" lon="4.799835">
        <ele>151.728315</ele>
        <time>2017-06-05T15:04:03.000Z</time>
      </trkpt>
      <trkpt lat="44.822227" lon="4.799895">
        <ele>151.653107</ele>
        <time>2017-06-05T15:04:06.000Z</time>
      </trkpt>
      <trkpt lat="44.822136" lon="4.799973">
        <ele>151.581237</ele>
        <time>2017-06-05T15:04:09.000Z</time>
      </trkpt>
      <trkpt lat="44.822056" lon="4.800073">
        <ele>151.509086</ele>
        <time>2017-06-05T15:04:12.000Z</time>
      </trkpt>
      <trkpt lat="44.822006" lon="4.800192">
        <ele>151.442882</ele>
        <time>2017-06-05T15:04:15.000Z</time>
      </trkpt>
      <trkpt lat="44.821960" lon="4.800314">
        <ele>151.376747</ele>
        <time>2017-06-05T15:04:18.000Z</time>
      </trkpt>
      <trkpt lat="44.821903" lon="4.800428">
        <ele>151.309984</ele>
        <time>2017-06-05T15:04:21.000Z</time>
      </trkpt>
      <trkpt lat="44.821835" lon="4.800524">
        <ele>151.245043</ele>
        <time>2017-06-05T15:04:24.000Z</time>
      </trkpt>
      <trkpt lat="44.821724" lon="4.800601">
        <ele>151.161559</ele>
        <time>2017-06-05T15:04:27.000Z</time>
      </trkpt>
      <trkpt lat="44.821625" lon="4.800683">
        <ele>151.084073</ele>
        <time>2017-06-05T15:04:30.000Z</time>
      </trkpt>
      <trkpt lat="44.821514" lon="4.800740">
        <ele>151.004352</ele>
        <time>2017-06-05T15:04:33.000Z</time>
      </trkpt>
      <trkpt lat="44.821392" lon="4.800799">
        <ele>150.917312</ele>
        <time>2017-06-05T15:04:36.000Z</time>
      </trkpt>
      <trkpt lat="44.821270" lon="4.800870">
        <ele>150.828243</ele>
        <time>2017-06-05T15:04:39.000Z</time>
      </trkpt>
      <trkpt lat="44.821163" lon="4.800922">
        <ele>150.751865</ele>
        <time>2017-06-05T15:04:42.000Z</time>
      </trkpt>
      <trkpt lat="44.821026" lon="4.800956">
        <ele>150.657991</ele>
        <time>2017-06-05T15:04:45.000Z</time>
      </trkpt>
      <trkpt lat="44.820896" lon="4.800986">
        <ele>150.579877</ele>
        <time>2017-06-05T15:04:48.000Z</time>
      </trkpt>
      <trkpt lat="44.820805" lon="4.801008">
        <ele>150.559758</ele>
        <time>2017-06-05T15:04:50.000Z</time>
      </trkpt>
      <trkpt lat="44.820690" lon="4.801045">
        <ele>150.534055</ele>
        <time>2017-06-05T15:04:53.000Z</time>
      </trkpt>
      <trkpt lat="44.820595" lon="4.801074">
        <ele>150.512875</ele>
        <time>2017-06-05T15:04:55.000Z</time>
      </trkpt>
      <trkpt lat="44.820503" lon="4.801076">
        <ele>150.492825</ele>
        <time>2017-06-05T15:04:57.000Z</time>
      </trkpt>
      <trkpt lat="44.820404" lon="4.801077">
        <ele>150.471252</ele>
        <time>2017-06-05T15:04:59.000Z</time>
      </trkpt>
      <trkpt lat="44.820293" lon="4.801091">
        <ele>150.446969</ele>
        <time>2017-06-05T15:05:01.000Z</time>
      </trkpt>
      <trkpt lat="44.820194" lon="4.801105">
        <ele>150.425288</ele>
        <time>2017-06-05T15:05:03.000Z</time>
      </trkpt>
      <trkpt lat="44.820100" lon="4.801126">
        <ele>150.404550</ele>
        <time>2017-06-05T15:05:05.000Z</time>
      </trkpt>
      <trkpt lat="44.819996" lon="4.801134">
        <ele>150.381854</ele>
        <time>2017-06-05T15:05:07.000Z</time>
      </trkpt>
      <trkpt lat="44.819880" lon="4.801144">
        <ele>150.356530</ele>
        <time>2017-06-05T15:05:09.000Z</time>
      </trkpt>
      <trkpt lat="44.819775" lon="4.801150">
        <ele>150.333632</ele>
        <time>2017-06-05T15:05:11.000Z</time>
      </trkpt>
      <trkpt lat="44.819660" lon="4.801156">
        <ele>150.308556</ele>
        <time>2017-06-05T15:05:13.000Z</time>
      </trkpt>
      <trkpt lat="44.819550" lon="4.801167">
        <ele>150.284526</ele>
        <time>2017-06-05T15:05:15.000Z</time>
      </trkpt>
      <trkpt lat="44.819440" lon="4.801182">
        <ele>150.260445</ele>
        <time>2017-06-05T15:05:17.000Z</time>
      </trkpt>
      <trkpt lat="44.819332" lon="4.801204">
        <ele>150.236667</ele>
        <time>2017-06-05T15:05:19.000Z</time>
      </trkpt>
      <trkpt lat="44.819225" lon="4.801219">
        <ele>150.213237</ele>
        <time>2017-06-05T15:05:21.000Z</time>
      </trkpt>
      <trkpt lat="44.819130" lon="4.801243">
        <ele>150.194520</ele>
        <time>2017-06-05T15:05:23.000Z</time>
      </trkpt>
      <trkpt lat="44.819023" lon="4.801267">
        <ele>150.232728</ele>
        <time>2017-06-05T15:05:25.000Z</time>
      </trkpt>
      <trkpt lat="44.818916" lon="4.801282">
        <ele>150.270647</ele>
        <time>2017-06-05T15:05:27.000Z</time>
      </trkpt>
      <trkpt lat="44.818810" lon="4.801292">
        <ele>150.308111</ele>
        <time>2017-06-05T15:05:29.000Z</time>
      </trkpt>
      <trkpt lat="44.818707" lon="4.801310">
        <ele>150.344711</ele>
        <time>2017-06-05T15:05:31.000Z</time>
      </trkpt>
      <trkpt lat="44.818590" lon="4.801323">
        <ele>150.386098</ele>
        <time>2017-06-05T15:05:33.000Z</time>
      </trkpt>
      <trkpt lat="44.818474" lon="4.801335">
        <ele>150.427115</ele>
        <time>2017-06-05T15:05:35.000Z</time>
      </trkpt>
      <trkpt lat="44.818370" lon="4.801353">
        <ele>150.464065</ele>
        <time>2017-06-05T15:05:37.000Z</time>
      </trkpt>
      <trkpt lat="44.818268" lon="4.801375">
        <ele>150.500454</ele>
        <time>2017-06-05T15:05:39.000Z</time>
      </trkpt>
      <trkpt lat="44.818165" lon="4.801393">
        <ele>150.537054</ele>
        <time>2017-06-05T15:05:41.000Z</time>
      </trkpt>
      <trkpt lat="44.818070" lon="4.801410">
        <ele>150.570824</ele>
        <time>2017-06-05T15:05:43.000Z</time>
      </trkpt>
      <trkpt lat="44.817970" lon="4.801415">
        <ele>150.606111</ele>
        <time>2017-06-05T15:05:45.000Z</time>
      </trkpt>
      <trkpt lat="44.817880" lon="4.801427">
        <ele>150.637990</ele>
        <time>2017-06-05T15:05:47.000Z</time>
      </trkpt>
      <trkpt lat="44.817787" lon="4.801449">
        <ele>150.671245</ele>
        <time>2017-06-05T15:05:49.000Z</time>
      </trkpt>
      <trkpt lat="44.817684" lon="4.801447">
        <ele>150.707571</ele>
        <time>2017-06-05T15:05:51.000Z</time>
      </trkpt>
      <trkpt lat="44.817577" lon="4.801457">
        <ele>150.745386</ele>
        <time>2017-06-05T15:05:53.000Z</time>
      </trkpt>
      <trkpt lat="44.817470" lon="4.801457">
        <ele>150.783119</ele>
        <time>2017-06-05T15:05:55.000Z</time>
      </trkpt>
      <trkpt lat="44.817370" lon="4.801465">
        <ele>150.818441</ele>
        <time>2017-06-05T15:05:57.000Z</time>
      </trkpt>
      <trkpt lat="44.817272" lon="4.801482">
        <ele>150.810221</ele>
        <time>2017-06-05T15:05:59.000Z</time>
      </trkpt>
      <trkpt lat="44.817173" lon="4.801496">
        <ele>150.786977</ele>
        <time>2017-06-05T15:06:01.000Z</time>
      </trkpt>
      <trkpt lat="44.817066" lon="4.801493">
        <ele>150.761975</ele>
        <time>2017-06-05T15:06:03.000Z</time>
      </trkpt>
      <trkpt lat="44.816967" lon="4.801482">
        <ele>150.738775</ele>
        <time>2017-06-05T15:06:05.000Z</time>
      </trkpt>
      <trkpt lat="44.816864" lon="4.801482">
        <ele>150.714713</ele>
        <time>2017-06-05T15:06:07.000Z</time>
      </trkpt>
      <trkpt lat="44.816760" lon="4.801472">
        <ele>150.690360</ele>
        <time>2017-06-05T15:06:09.000Z</time>
      </trkpt>
      <trkpt lat="44.816647" lon="4.801469">
        <ele>150.663957</ele>
        <time>2017-06-05T15:06:11.000Z</time>
      </trkpt>
      <trkpt lat="44.816544" lon="4.801462">
        <ele>150.639867</ele>
        <time>2017-06-05T15:06:13.000Z</time>
      </trkpt>
      <trkpt lat="44.816437" lon="4.801463">
        <ele>150.614869</ele>
        <time>2017-06-05T15:06:15.000Z</time>
      </trkpt>
      <trkpt lat="44.816334" lon="4.801462">
        <ele>150.590806</ele>
        <time>2017-06-05T15:06:17.000Z</time>
      </trkpt>
      <trkpt lat="44.816223" lon="4.801446">
        <ele>150.564740</ele>
        <time>2017-06-05T15:06:19.000Z</time>
      </trkpt>
      <trkpt lat="44.816120" lon="4.801446">
        <ele>150.540677</ele>
        <time>2017-06-05T15:06:21.000Z</time>
      </trkpt>
      <trkpt lat="44.816013" lon="4.801443">
        <ele>150.515676</ele>
        <time>2017-06-05T15:06:23.000Z</time>
      </trkpt>
      <trkpt lat="44.815920" lon="4.801436">
        <ele>150.493918</ele>
        <time>2017-06-05T15:06:25.000Z</time>
      </trkpt>
      <trkpt lat="44.815826" lon="4.801437">
        <ele>150.471958</ele>
        <time>2017-06-05T15:06:28.000Z</time>
      </trkpt>
      <trkpt lat="44.815716" lon="4.801425">
        <ele>150.446183</ele>
        <time>2017-06-05T15:06:30.000Z</time>
      </trkpt>
      <trkpt lat="44.815600" lon="4.801403">
        <ele>150.418840</ele>
        <time>2017-06-05T15:06:32.000Z</time>
      </trkpt>
      <trkpt lat="44.815495" lon="4.801383">
        <ele>150.429058</ele>
        <time>2017-06-05T15:06:34.000Z</time>
      </trkpt>
      <trkpt lat="44.815384" lon="4.801374">
        <ele>150.472460</ele>
        <time>2017-06-05T15:06:36.000Z</time>
      </trkpt>
      <trkpt lat="44.815273" lon="4.801356">
        <ele>150.516076</ele>
        <time>2017-06-05T15:06:38.000Z</time>
      </trkpt>
      <trkpt lat="44.815163" lon="4.801326">
        <ele>150.559812</ele>
        <time>2017-06-05T15:06:40.000Z</time>
      </trkpt>
      <trkpt lat="44.815056" lon="4.801304">
        <ele>150.602022</ele>
        <time>2017-06-05T15:06:42.000Z</time>
      </trkpt>
      <trkpt lat="44.814953" lon="4.801292">
        <ele>150.642367</ele>
        <time>2017-06-05T15:06:44.000Z</time>
      </trkpt>
      <trkpt lat="44.814810" lon="4.801286">
        <ele>150.698213</ele>
        <time>2017-06-05T15:06:47.000Z</time>
      </trkpt>
      <trkpt lat="44.814660" lon="4.801256">
        <ele>150.757354</ele>
        <time>2017-06-05T15:06:50.000Z</time>
      </trkpt>
      <trkpt lat="44.814556" lon="4.801219">
        <ele>150.799224</ele>
        <time>2017-06-05T15:06:52.000Z</time>
      </trkpt>
      <trkpt lat="44.814440" lon="4.801191">
        <ele>150.845165</ele>
        <time>2017-06-05T15:06:54.000Z</time>
      </trkpt>
      <trkpt lat="44.814335" lon="4.801172">
        <ele>150.886490</ele>
        <time>2017-06-05T15:06:56.000Z</time>
      </trkpt>
      <trkpt lat="44.814213" lon="4.801153">
        <ele>150.934404</ele>
        <time>2017-06-05T15:06:58.000Z</time>
      </trkpt>
      <trkpt lat="44.814117" lon="4.801146">
        <ele>150.971928</ele>
        <time>2017-06-05T15:07:00.000Z</time>
      </trkpt>
      <trkpt lat="44.814026" lon="4.801143">
        <ele>151.007461</ele>
        <time>2017-06-05T15:07:03.000Z</time>
      </trkpt>
      <trkpt lat="44.813910" lon="4.801130">
        <ele>151.052886</ele>
        <time>2017-06-05T15:07:06.000Z</time>
      </trkpt>
      <trkpt lat="44.813778" lon="4.801111">
        <ele>151.104681</ele>
        <time>2017-06-05T15:07:09.000Z</time>
      </trkpt>
      <trkpt lat="44.813633" lon="4.801060">
        <ele>151.128708</ele>
        <time>2017-06-05T15:07:11.000Z</time>
      </trkpt>
      <trkpt lat="44.813490" lon="4.801043">
        <ele>151.148946</ele>
        <time>2017-06-05T15:07:13.000Z</time>
      </trkpt>
      <trkpt lat="44.813374" lon="4.801020">
        <ele>151.165466</ele>
        <time>2017-06-05T15:07:15.000Z</time>
      </trkpt>
      <trkpt lat="44.813250" lon="4.800992">
        <ele>151.183176</ele>
        <time>2017-06-05T15:07:17.000Z</time>
      </trkpt>
      <trkpt lat="44.813118" lon="4.800953">
        <ele>151.202196</ele>
        <time>2017-06-05T15:07:19.000Z</time>
      </trkpt>
      <trkpt lat="44.813004" lon="4.800940">
        <ele>151.218325</ele>
        <time>2017-06-05T15:07:21.000Z</time>
      </trkpt>
      <trkpt lat="44.812893" lon="4.800958">
        <ele>151.234082</ele>
        <time>2017-06-05T15:07:23.000Z</time>
      </trkpt>
      <trkpt lat="44.812790" lon="4.800977">
        <ele>151.248732</ele>
        <time>2017-06-05T15:07:25.000Z</time>
      </trkpt>
      <trkpt lat="44.812680" lon="4.801008">
        <ele>151.264551</ele>
        <time>2017-06-05T15:07:28.000Z</time>
      </trkpt>
      <trkpt lat="44.812580" lon="4.801008">
        <ele>151.278654</ele>
        <time>2017-06-05T15:07:30.000Z</time>
      </trkpt>
      <trkpt lat="44.812477" lon="4.800993">
        <ele>151.293257</ele>
        <time>2017-06-05T15:07:32.000Z</time>
      </trkpt>
      <trkpt lat="44.812363" lon="4.800978">
        <ele>151.309404</ele>
        <time>2017-06-05T15:07:34.000Z</time>
      </trkpt>
      <trkpt lat="44.812244" lon="4.800963">
        <ele>151.326252</ele>
        <time>2017-06-05T15:07:36.000Z</time>
      </trkpt>
      <trkpt lat="44.812140" lon="4.800949">
        <ele>151.340986</ele>
        <time>2017-06-05T15:07:38.000Z</time>
      </trkpt>
      <trkpt lat="44.812050" lon="4.800925">
        <ele>151.353903</ele>
        <time>2017-06-05T15:07:40.000Z</time>
      </trkpt>
      <trkpt lat="44.811947" lon="4.800919">
        <ele>151.343088</ele>
        <time>2017-06-05T15:07:43.000Z</time>
      </trkpt>
      <trkpt lat="44.811820" lon="4.800905">
        <ele>151.278029</ele>
        <time>2017-06-05T15:07:45.000Z</time>
      </trkpt>
      <trkpt lat="44.811710" lon="4.800870">
        <ele>151.220437</ele>
        <time>2017-06-05T15:07:47.000Z</time>
      </trkpt>
      <trkpt lat="44.811584" lon="4.800853">
        <ele>151.155792</ele>
        <time>2017-06-05T15:07:49.000Z</time>
      </trkpt>
      <trkpt lat="44.811470" lon="4.800841">
        <ele>151.097409</ele>
        <time>2017-06-05T15:07:51.000Z</time>
      </trkpt>
      <trkpt lat="44.811370" lon="4.800806">
        <ele>151.044786</ele>
        <time>2017-06-05T15:07:53.000Z</time>
      </trkpt>
      <trkpt lat="44.811237" lon="4.800780">
        <ele>150.976211</ele>
        <time>2017-06-05T15:07:56.000Z</time>
      </trkpt>
      <trkpt lat="44.811130" lon="4.800767">
        <ele>150.921362</ele>
        <time>2017-06-05T15:07:58.000Z</time>
      </trkpt>
      <trkpt lat="44.811020" lon="4.800758">
        <ele>150.865089</ele>
        <time>2017-06-05T15:08:01.000Z</time>
      </trkpt>
      <trkpt lat="44.810890" lon="4.800733">
        <ele>150.798081</ele>
        <time>2017-06-05T15:08:03.000Z</time>
      </trkpt>
      <trkpt lat="44.810764" lon="4.800720">
        <ele>150.733559</ele>
        <time>2017-06-05T15:08:05.000Z</time>
      </trkpt>
      <trkpt lat="44.810670" lon="4.800714">
        <ele>150.685502</ele>
        <time>2017-06-05T15:08:07.000Z</time>
      </trkpt>
      <trkpt lat="44.810570" lon="4.800678">
        <ele>150.632791</ele>
        <time>2017-06-05T15:08:09.000Z</time>
      </trkpt>
      <trkpt lat="44.810444" lon="4.800642">
        <ele>150.567133</ele>
        <time>2017-06-05T15:08:11.000Z</time>
      </trkpt>
      <trkpt lat="44.810345" lon="4.800622">
        <ele>150.516055</ele>
        <time>2017-06-05T15:08:13.000Z</time>
      </trkpt>
      <trkpt lat="44.810250" lon="4.800601">
        <ele>150.466944</ele>
        <time>2017-06-05T15:08:15.000Z</time>
      </trkpt>
      <trkpt lat="44.810146" lon="4.800556">
        <ele>150.419687</ele>
        <time>2017-06-05T15:08:17.000Z</time>
      </trkpt>
      <trkpt lat="44.810036" lon="4.800528">
        <ele>150.376974</ele>
        <time>2017-06-05T15:08:19.000Z</time>
      </trkpt>
      <trkpt lat="44.809930" lon="4.800494">
        <ele>150.335434</ele>
        <time>2017-06-05T15:08:21.000Z</time>
      </trkpt>
      <trkpt lat="44.809837" lon="4.800463">
        <ele>150.298917</ele>
        <time>2017-06-05T15:08:23.000Z</time>
      </trkpt>
      <trkpt lat="44.809746" lon="4.800405">
        <ele>150.260754</ele>
        <time>2017-06-05T15:08:25.000Z</time>
      </trkpt>
      <trkpt lat="44.809647" lon="4.800361">
        <ele>150.221088</ele>
        <time>2017-06-05T15:08:27.000Z</time>
      </trkpt>
      <trkpt lat="44.809560" lon="4.800303">
        <ele>150.184313</ele>
        <time>2017-06-05T15:08:29.000Z</time>
      </trkpt>
      <trkpt lat="44.809460" lon="4.800235">
        <ele>150.141887</ele>
        <time>2017-06-05T15:08:31.000Z</time>
      </trkpt>
      <trkpt lat="44.809380" lon="4.800171">
        <ele>150.106736</ele>
        <time>2017-06-05T15:08:33.000Z</time>
      </trkpt>
      <trkpt lat="44.809265" lon="4.800085">
        <ele>150.056991</ele>
        <time>2017-06-05T15:08:36.000Z</time>
      </trkpt>
      <trkpt lat="44.809147" lon="4.800022">
        <ele>150.008775</ele>
        <time>2017-06-05T15:08:39.000Z</time>
      </trkpt>
      <trkpt lat="44.809070" lon="4.799956">
        <ele>149.974338</ele>
        <time>2017-06-05T15:08:41.000Z</time>
      </trkpt>
      <trkpt lat="44.808960" lon="4.799879">
        <ele>149.927407</ele>
        <time>2017-06-05T15:08:44.000Z</time>
      </trkpt>
      <trkpt lat="44.808865" lon="4.799826">
        <ele>149.888366</ele>
        <time>2017-06-05T15:08:47.000Z</time>
      </trkpt>
      <trkpt lat="44.808765" lon="4.799748">
        <ele>149.844693</ele>
        <time>2017-06-05T15:08:50.000Z</time>
      </trkpt>
      <trkpt lat="44.808680" lon="4.799661">
        <ele>149.804553</ele>
        <time>2017-06-05T15:08:53.000Z</time>
      </trkpt>
      <trkpt lat="44.808605" lon="4.799579">
        <ele>149.768282</ele>
        <time>2017-06-05T15:08:56.000Z</time>
      </trkpt>
      <trkpt lat="44.808514" lon="4.799512">
        <ele>149.675443</ele>
        <time>2017-06-05T15:08:59.000Z</time>
      </trkpt>
      <trkpt lat="44.808434" lon="4.799423">
        <ele>149.561969</ele>
        <time>2017-06-05T15:09:01.000Z</time>
      </trkpt>
      <trkpt lat="44.808342" lon="4.799363">
        <ele>149.449103</ele>
        <time>2017-06-05T15:09:03.000Z</time>
      </trkpt>
      <trkpt lat="44.808258" lon="4.799287">
        <ele>149.337968</ele>
        <time>2017-06-05T15:09:05.000Z</time>
      </trkpt>
      <trkpt lat="44.808167" lon="4.799206">
        <ele>149.218137</ele>
        <time>2017-06-05T15:09:08.000Z</time>
      </trkpt>
      <trkpt lat="44.808064" lon="4.799129">
        <ele>149.088325</ele>
        <time>2017-06-05T15:09:11.000Z</time>
      </trkpt>
      <trkpt lat="44.807970" lon="4.799040">
        <ele>148.962245</ele>
        <time>2017-06-05T15:09:14.000Z</time>
      </trkpt>
      <trkpt lat="44.807854" lon="4.798959">
        <ele>148.818110</ele>
        <time>2017-06-05T15:09:17.000Z</time>
      </trkpt>
      <trkpt lat="44.807740" lon="4.798879">
        <ele>148.676321</ele>
        <time>2017-06-05T15:09:20.000Z</time>
      </trkpt>
      <trkpt lat="44.807648" lon="4.798828">
        <ele>148.566251</ele>
        <time>2017-06-05T15:09:22.000Z</time>
      </trkpt>
      <trkpt lat="44.807568" lon="4.798756">
        <ele>148.460570</ele>
        <time>2017-06-05T15:09:24.000Z</time>
      </trkpt>
      <trkpt lat="44.807487" lon="4.798624">
        <ele>148.322708</ele>
        <time>2017-06-05T15:09:27.000Z</time>
      </trkpt>
      <trkpt lat="44.807410" lon="4.798485">
        <ele>148.183402</ele>
        <time>2017-06-05T15:09:29.000Z</time>
      </trkpt>
      <trkpt lat="44.807330" lon="4.798372">
        <ele>148.057300</ele>
        <time>2017-06-05T15:09:31.000Z</time>
      </trkpt>
      <trkpt lat="44.807240" lon="4.798278">
        <ele>147.932581</ele>
        <time>2017-06-05T15:09:33.000Z</time>
      </trkpt>
      <trkpt lat="44.807117" lon="4.798191">
        <ele>147.779357</ele>
        <time>2017-06-05T15:09:36.000Z</time>
      </trkpt>
      <trkpt lat="44.807030" lon="4.798108">
        <ele>147.790459</ele>
        <time>2017-06-05T15:09:38.000Z</time>
      </trkpt>
      <trkpt lat="44.806946" lon="4.798001">
        <ele>147.839754</ele>
        <time>2017-06-05T15:09:40.000Z</time>
      </trkpt>
      <trkpt lat="44.806873" lon="4.797908">
        <ele>147.882596</ele>
        <time>2017-06-05T15:09:42.000Z</time>
      </trkpt>
      <trkpt lat="44.806800" lon="4.797824">
        <ele>147.923626</ele>
        <time>2017-06-05T15:09:44.000Z</time>
      </trkpt>
      <trkpt lat="44.806717" lon="4.797738">
        <ele>147.968477</ele>
        <time>2017-06-05T15:09:46.000Z</time>
      </trkpt>
      <trkpt lat="44.806630" lon="4.797635">
        <ele>148.017945</ele>
        <time>2017-06-05T15:09:48.000Z</time>
      </trkpt>
      <trkpt lat="44.806538" lon="4.797547">
        <ele>148.066353</ele>
        <time>2017-06-05T15:09:50.000Z</time>
      </trkpt>
      <trkpt lat="44.806450" lon="4.797478">
        <ele>148.110197</ele>
        <time>2017-06-05T15:09:52.000Z</time>
      </trkpt>
      <trkpt lat="44.806374" lon="4.797406">
        <ele>148.150066</ele>
        <time>2017-06-05T15:09:54.000Z</time>
      </trkpt>
      <trkpt lat="44.806290" lon="4.797333">
        <ele>148.193032</ele>
        <time>2017-06-05T15:09:56.000Z</time>
      </trkpt>
      <trkpt lat="44.806210" lon="4.797274">
        <ele>148.232342</ele>
        <time>2017-06-05T15:09:58.000Z</time>
      </trkpt>
      <trkpt lat="44.806137" lon="4.797193">
        <ele>148.272793</ele>
        <time>2017-06-05T15:10:00.000Z</time>
      </trkpt>
      <trkpt lat="44.806020" lon="4.797090">
        <ele>148.332853</ele>
        <time>2017-06-05T15:10:03.000Z</time>
      </trkpt>
      <trkpt lat="44.805954" lon="4.796990">
        <ele>148.375042</ele>
        <time>2017-06-05T15:10:05.000Z</time>
      </trkpt>
      <trkpt lat="44.805897" lon="4.796879">
        <ele>148.417369</ele>
        <time>2017-06-05T15:10:07.000Z</time>
      </trkpt>
      <trkpt lat="44.805840" lon="4.796728">
        <ele>148.470205</ele>
        <time>2017-06-05T15:10:10.000Z</time>
      </trkpt>
      <trkpt lat="44.805767" lon="4.796577">
        <ele>148.526649</ele>
        <time>2017-06-05T15:10:12.000Z</time>
      </trkpt>
      <trkpt lat="44.805714" lon="4.796424">
        <ele>148.445110</ele>
        <time>2017-06-05T15:10:14.000Z</time>
      </trkpt>
      <trkpt lat="44.805660" lon="4.796280">
        <ele>148.333524</ele>
        <time>2017-06-05T15:10:16.000Z</time>
      </trkpt>
      <trkpt lat="44.805610" lon="4.796131">
        <ele>148.220603</ele>
        <time>2017-06-05T15:10:18.000Z</time>
      </trkpt>
      <trkpt lat="44.805573" lon="4.796008">
        <ele>148.129075</ele>
        <time>2017-06-05T15:10:20.000Z</time>
      </trkpt>
      <trkpt lat="44.805546" lon="4.795878">
        <ele>148.036274</ele>
        <time>2017-06-05T15:10:22.000Z</time>
      </trkpt>
      <trkpt lat="44.805515" lon="4.795744">
        <ele>147.939714</ele>
        <time>2017-06-05T15:10:24.000Z</time>
      </trkpt>
      <trkpt lat="44.805492" lon="4.795596">
        <ele>147.835916</ele>
        <time>2017-06-05T15:10:26.000Z</time>
      </trkpt>
      <trkpt lat="44.805473" lon="4.795454">
        <ele>147.736917</ele>
        <time>2017-06-05T15:10:28.000Z</time>
      </trkpt>
      <trkpt lat="44.805440" lon="4.795316">
        <ele>147.637148</ele>
        <time>2017-06-05T15:10:30.000Z</time>
      </trkpt>
      <trkpt lat="44.805410" lon="4.795172">
        <ele>147.534328</ele>
        <time>2017-06-05T15:10:32.000Z</time>
      </trkpt>
      <trkpt lat="44.805393" lon="4.795026">
        <ele>147.432965</ele>
        <time>2017-06-05T15:10:34.000Z</time>
      </trkpt>
      <trkpt lat="44.805363" lon="4.794883">
        <ele>147.330803</ele>
        <time>2017-06-05T15:10:36.000Z</time>
      </trkpt>
      <trkpt lat="44.805340" lon="4.794737">
        <ele>147.228342</ele>
        <time>2017-06-05T15:10:38.000Z</time>
      </trkpt>
      <trkpt lat="44.805310" lon="4.794577">
        <ele>147.114963</ele>
        <time>2017-06-05T15:10:41.000Z</time>
      </trkpt>
      <trkpt lat="44.805286" lon="4.794409">
        <ele>146.997556</ele>
        <time>2017-06-05T15:10:44.000Z</time>
      </trkpt>
      <trkpt lat="44.805283" lon="4.794242">
        <ele>146.883108</ele>
        <time>2017-06-05T15:10:47.000Z</time>
      </trkpt>
      <trkpt lat="44.805206" lon="4.794135">
        <ele>146.815327</ele>
        <time>2017-06-05T15:10:51.000Z</time>
      </trkpt>
      <trkpt lat="44.805120" lon="4.794040">
        <ele>146.884812</ele>
        <time>2017-06-05T15:10:55.000Z</time>
      </trkpt>
      <trkpt lat="44.805084" lon="4.793906">
        <ele>146.949460</ele>
        <time>2017-06-05T15:10:58.000Z</time>
      </trkpt>
      <trkpt lat="44.805046" lon="4.793754">
        <ele>147.022174</ele>
        <time>2017-06-05T15:11:01.000Z</time>
      </trkpt>
      <trkpt lat="44.804977" lon="4.793588">
        <ele>147.108978</ele>
        <time>2017-06-05T15:11:04.000Z</time>
      </trkpt>
      <trkpt lat="44.804920" lon="4.793439">
        <ele>147.185355</ele>
        <time>2017-06-05T15:11:07.000Z</time>
      </trkpt>
      <trkpt lat="44.804840" lon="4.793351">
        <ele>147.249889</ele>
        <time>2017-06-05T15:11:09.000Z</time>
      </trkpt>
      <trkpt lat="44.804760" lon="4.793234">
        <ele>147.323202</ele>
        <time>2017-06-05T15:11:12.000Z</time>
      </trkpt>
      <trkpt lat="44.804690" lon="4.793138">
        <ele>147.385312</ele>
        <time>2017-06-05T15:11:15.000Z</time>
      </trkpt>
      <trkpt lat="44.804615" lon="4.793011">
        <ele>147.459866</ele>
        <time>2017-06-05T15:11:19.000Z</time>
      </trkpt>
      <trkpt lat="44.804600" lon="4.792855">
        <ele>147.530895</ele>
        <time>2017-06-05T15:11:22.000Z</time>
      </trkpt>
      <trkpt lat="44.804585" lon="4.792671">
        <ele>147.614461</ele>
        <time>2017-06-05T15:11:25.000Z</time>
      </trkpt>
      <trkpt lat="44.804530" lon="4.792517">
        <ele>147.692252</ele>
        <time>2017-06-05T15:11:28.000Z</time>
      </trkpt>
      <trkpt lat="44.804432" lon="4.792436">
        <ele>147.764497</ele>
        <time>2017-06-05T15:11:30.000Z</time>
      </trkpt>
      <trkpt lat="44.804363" lon="4.792350">
        <ele>147.823072</ele>
        <time>2017-06-05T15:11:32.000Z</time>
      </trkpt>
      <trkpt lat="44.804310" lon="4.792229">
        <ele>147.887232</ele>
        <time>2017-06-05T15:11:34.000Z</time>
      </trkpt>
      <trkpt lat="44.804256" lon="4.792117">
        <ele>147.942258</ele>
        <time>2017-06-05T15:11:36.000Z</time>
      </trkpt>
      <trkpt lat="44.804203" lon="4.792011">
        <ele>147.906168</ele>
        <time>2017-06-05T15:11:38.000Z</time>
      </trkpt>
      <trkpt lat="44.804153" lon="4.791897">
        <ele>147.868867</ele>
        <time>2017-06-05T15:11:40.000Z</time>
      </trkpt>
      <trkpt lat="44.804108" lon="4.791788">
        <ele>147.833770</ele>
        <time>2017-06-05T15:11:42.000Z</time>
      </trkpt>
      <trkpt lat="44.804054" lon="4.791663">
        <ele>147.793039</ele>
        <time>2017-06-05T15:11:45.000Z</time>
      </trkpt>
      <trkpt lat="44.804016" lon="4.791538">
        <ele>147.755191</ele>
        <time>2017-06-05T15:11:48.000Z</time>
      </trkpt>
      <trkpt lat="44.803970" lon="4.791387">
        <ele>147.709456</ele>
        <time>2017-06-05T15:11:51.000Z</time>
      </trkpt>
      <trkpt lat="44.803970" lon="4.791234">
        <ele>147.666874</ele>
        <time>2017-06-05T15:11:54.000Z</time>
      </trkpt>
      <trkpt lat="44.803997" lon="4.791111">
        <ele>147.631041</ele>
        <time>2017-06-05T15:11:57.000Z</time>
      </trkpt>
      <trkpt lat="44.803990" lon="4.790972">
        <ele>147.592258</ele>
        <time>2017-06-05T15:12:02.000Z</time>
      </trkpt>
      <trkpt lat="44.803936" lon="4.790822">
        <ele>147.545444</ele>
        <time>2017-06-05T15:12:06.000Z</time>
      </trkpt>
      <trkpt lat="44.803898" lon="4.790702">
        <ele>147.508871</ele>
        <time>2017-06-05T15:12:08.000Z</time>
      </trkpt>
      <trkpt lat="44.803844" lon="4.790539">
        <ele>147.458805</ele>
        <time>2017-06-05T15:12:10.000Z</time>
      </trkpt>
      <trkpt lat="44.803802" lon="4.790422">
        <ele>147.422312</ele>
        <time>2017-06-05T15:12:12.000Z</time>
      </trkpt>
      <trkpt lat="44.803750" lon="4.790296">
        <ele>147.381743</ele>
        <time>2017-06-05T15:12:15.000Z</time>
      </trkpt>
      <trkpt lat="44.803690" lon="4.790157">
        <ele>147.336461</ele>
        <time>2017-06-05T15:12:19.000Z</time>
      </trkpt>
      <trkpt lat="44.803635" lon="4.790056">
        <ele>147.301026</ele>
        <time>2017-06-05T15:12:22.000Z</time>
      </trkpt>
      <trkpt lat="44.803555" lon="4.789940">
        <ele>147.256004</ele>
        <time>2017-06-05T15:12:26.000Z</time>
      </trkpt>
      <trkpt lat="44.803516" lon="4.789798">
        <ele>147.200585</ele>
        <time>2017-06-05T15:12:29.000Z</time>
      </trkpt>
      <trkpt lat="44.803480" lon="4.789673">
        <ele>147.143779</ele>
        <time>2017-06-05T15:12:31.000Z</time>
      </trkpt>
      <trkpt lat="44.803448" lon="4.789543">
        <ele>147.085837</ele>
        <time>2017-06-05T15:12:33.000Z</time>
      </trkpt>
      <trkpt lat="44.803368" lon="4.789371">
        <ele>146.999237</ele>
        <time>2017-06-05T15:12:35.000Z</time>
      </trkpt>
      <trkpt lat="44.803345" lon="4.789234">
        <ele>146.939955</ele>
        <time>2017-06-05T15:12:37.000Z</time>
      </trkpt>
      <trkpt lat="44.803314" lon="4.789106">
        <ele>146.883003</ele>
        <time>2017-06-05T15:12:39.000Z</time>
      </trkpt>
      <trkpt lat="44.803272" lon="4.788983">
        <ele>146.825524</ele>
        <time>2017-06-05T15:12:41.000Z</time>
      </trkpt>
      <trkpt lat="44.803204" lon="4.788806">
        <ele>146.740768</ele>
        <time>2017-06-05T15:12:44.000Z</time>
      </trkpt>
      <trkpt lat="44.803154" lon="4.788669">
        <ele>146.675895</ele>
        <time>2017-06-05T15:12:46.000Z</time>
      </trkpt>
      <trkpt lat="44.803116" lon="4.788541">
        <ele>146.617468</ele>
        <time>2017-06-05T15:12:48.000Z</time>
      </trkpt>
      <trkpt lat="44.803080" lon="4.788412">
        <ele>146.559097</ele>
        <time>2017-06-05T15:12:50.000Z</time>
      </trkpt>
      <trkpt lat="44.803036" lon="4.788234">
        <ele>146.479725</ele>
        <time>2017-06-05T15:12:53.000Z</time>
      </trkpt>
      <trkpt lat="44.803005" lon="4.788109">
        <ele>146.423967</ele>
        <time>2017-06-05T15:12:55.000Z</time>
      </trkpt>
      <trkpt lat="44.802980" lon="4.787971">
        <ele>146.363993</ele>
        <time>2017-06-05T15:12:57.000Z</time>
      </trkpt>
      <trkpt lat="44.802963" lon="4.787822">
        <ele>146.300445</ele>
        <time>2017-06-05T15:12:59.000Z</time>
      </trkpt>
      <trkpt lat="44.802914" lon="4.787660">
        <ele>146.226289</ele>
        <time>2017-06-05T15:13:02.000Z</time>
      </trkpt>
      <trkpt lat="44.802883" lon="4.787520">
        <ele>146.177588</ele>
        <time>2017-06-05T15:13:05.000Z</time>
      </trkpt>
      <trkpt lat="44.802845" lon="4.787379">
        <ele>146.231289</ele>
        <time>2017-06-05T15:13:08.000Z</time>
      </trkpt>
      <trkpt lat="44.802790" lon="4.787244">
        <ele>146.286715</ele>
        <time>2017-06-05T15:13:11.000Z</time>
      </trkpt>
      <trkpt lat="44.802734" lon="4.787099">
        <ele>146.345493</ele>
        <time>2017-06-05T15:13:15.000Z</time>
      </trkpt>
      <trkpt lat="44.802677" lon="4.786969">
        <ele>146.399903</ele>
        <time>2017-06-05T15:13:17.000Z</time>
      </trkpt>
      <trkpt lat="44.802630" lon="4.786850">
        <ele>146.448393</ele>
        <time>2017-06-05T15:13:19.000Z</time>
      </trkpt>
      <trkpt lat="44.802574" lon="4.786719">
        <ele>146.502846</ele>
        <time>2017-06-05T15:13:21.000Z</time>
      </trkpt>
      <trkpt lat="44.802532" lon="4.786593">
        <ele>146.552411</ele>
        <time>2017-06-05T15:13:23.000Z</time>
      </trkpt>
      <trkpt lat="44.802480" lon="4.786461">
        <ele>146.606166</ele>
        <time>2017-06-05T15:13:25.000Z</time>
      </trkpt>
      <trkpt lat="44.802430" lon="4.786331">
        <ele>146.658814</ele>
        <time>2017-06-05T15:13:27.000Z</time>
      </trkpt>
      <trkpt lat="44.802387" lon="4.786217">
        <ele>146.704782</ele>
        <time>2017-06-05T15:13:29.000Z</time>
      </trkpt>
      <trkpt lat="44.802340" lon="4.786092">
        <ele>146.755150</ele>
        <time>2017-06-05T15:13:31.000Z</time>
      </trkpt>
      <trkpt lat="44.802288" lon="4.785950">
        <ele>146.812045</ele>
        <time>2017-06-05T15:13:33.000Z</time>
      </trkpt>
      <trkpt lat="44.802250" lon="4.785825">
        <ele>146.860463</ele>
        <time>2017-06-05T15:13:35.000Z</time>
      </trkpt>
      <trkpt lat="44.802216" lon="4.785707">
        <ele>146.905809</ele>
        <time>2017-06-05T15:13:37.000Z</time>
      </trkpt>
      <trkpt lat="44.802166" lon="4.785599">
        <ele>146.951723</ele>
        <time>2017-06-05T15:13:39.000Z</time>
      </trkpt>
      <trkpt lat="44.802094" lon="4.785439">
        <ele>147.019181</ele>
        <time>2017-06-05T15:13:42.000Z</time>
      </trkpt>
      <trkpt lat="44.802044" lon="4.785308">
        <ele>147.072143</ele>
        <time>2017-06-05T15:13:44.000Z</time>
      </trkpt>
      <trkpt lat="44.801975" lon="4.785165">
        <ele>147.202142</ele>
        <time>2017-06-05T15:13:46.000Z</time>
      </trkpt>
      <trkpt lat="44.801914" lon="4.785038">
        <ele>147.319480</ele>
        <time>2017-06-05T15:13:48.000Z</time>
      </trkpt>
      <trkpt lat="44.801860" lon="4.784913">
        <ele>147.431449</ele>
        <time>2017-06-05T15:13:50.000Z</time>
      </trkpt>
      <trkpt lat="44.801815" lon="4.784763">
        <ele>147.556051</ele>
        <time>2017-06-05T15:13:53.000Z</time>
      </trkpt>
      <trkpt lat="44.801760" lon="4.784642">
        <ele>147.665996</ele>
        <time>2017-06-05T15:13:56.000Z</time>
      </trkpt>
      <trkpt lat="44.801697" lon="4.784552">
        <ele>147.762725</ele>
        <time>2017-06-05T15:13:59.000Z</time>
      </trkpt>
      <trkpt lat="44.801630" lon="4.784452">
        <ele>147.867955</ele>
        <time>2017-06-05T15:14:04.000Z</time>
      </trkpt>
      <trkpt lat="44.801570" lon="4.784343">
        <ele>147.973505</ele>
        <time>2017-06-05T15:14:07.000Z</time>
      </trkpt>
      <trkpt lat="44.801502" lon="4.784214">
        <ele>148.096460</ele>
        <time>2017-06-05T15:14:10.000Z</time>
      </trkpt>
      <trkpt lat="44.801440" lon="4.784115">
        <ele>148.197489</ele>
        <time>2017-06-05T15:14:12.000Z</time>
      </trkpt>
      <trkpt lat="44.801376" lon="4.784021">
        <ele>148.297164</ele>
        <time>2017-06-05T15:14:14.000Z</time>
      </trkpt>
      <trkpt lat="44.801304" lon="4.783917">
        <ele>148.408336</ele>
        <time>2017-06-05T15:14:16.000Z</time>
      </trkpt>
      <trkpt lat="44.801224" lon="4.783823">
        <ele>148.520648</ele>
        <time>2017-06-05T15:14:18.000Z</time>
      </trkpt>
      <trkpt lat="44.801140" lon="4.783726">
        <ele>148.637747</ele>
        <time>2017-06-05T15:14:20.000Z</time>
      </trkpt>
      <trkpt lat="44.801056" lon="4.783632">
        <ele>148.753405</ele>
        <time>2017-06-05T15:14:22.000Z</time>
      </trkpt>
      <trkpt lat="44.800972" lon="4.783535">
        <ele>148.870504</ele>
        <time>2017-06-05T15:14:24.000Z</time>
      </trkpt>
      <trkpt lat="44.800880" lon="4.783437">
        <ele>148.994856</ele>
        <time>2017-06-05T15:14:26.000Z</time>
      </trkpt>
      <trkpt lat="44.800793" lon="4.783334">
        <ele>149.068833</ele>
        <time>2017-06-05T15:14:28.000Z</time>
      </trkpt>
      <trkpt lat="44.800720" lon="4.783235">
        <ele>149.126962</ele>
        <time>2017-06-05T15:14:30.000Z</time>
      </trkpt>
      <trkpt lat="44.800660" lon="4.783138">
        <ele>149.179352</ele>
        <time>2017-06-05T15:14:32.000Z</time>
      </trkpt>
      <trkpt lat="44.800575" lon="4.783008">
        <ele>149.251323</ele>
        <time>2017-06-05T15:14:35.000Z</time>
      </trkpt>
      <trkpt lat="44.800480" lon="4.782884">
        <ele>149.325619</ele>
        <time>2017-06-05T15:14:38.000Z</time>
      </trkpt>
      <trkpt lat="44.800440" lon="4.782769">
        <ele>149.377761</ele>
        <time>2017-06-05T15:14:40.000Z</time>
      </trkpt>
      <trkpt lat="44.800385" lon="4.782650">
        <ele>149.435581</ele>
        <time>2017-06-05T15:14:43.000Z</time>
      </trkpt>
      <trkpt lat="44.800320" lon="4.782538">
        <ele>149.494489</ele>
        <time>2017-06-05T15:14:46.000Z</time>
      </trkpt>
      <trkpt lat="44.800250" lon="4.782435">
        <ele>149.552555</ele>
        <time>2017-06-05T15:14:49.000Z</time>
      </trkpt>
      <trkpt lat="44.800170" lon="4.782314">
        <ele>149.619889</ele>
        <time>2017-06-05T15:14:53.000Z</time>
      </trkpt>
      <trkpt lat="44.800090" lon="4.782214">
        <ele>149.681245</ele>
        <time>2017-06-05T15:14:57.000Z</time>
      </trkpt>
      <trkpt lat="44.800034" lon="4.782112">
        <ele>149.733751</ele>
        <time>2017-06-05T15:15:02.000Z</time>
      </trkpt>
      <trkpt lat="44.800080" lon="4.781922">
        <ele>149.815485</ele>
        <time>2017-06-05T15:15:23.000Z</time>
      </trkpt>
      <trkpt lat="44.800144" lon="4.782016">
        <ele>149.868524</ele>
        <time>2017-06-05T15:15:29.000Z</time>
      </trkpt>
      <trkpt lat="44.800255" lon="4.782014">
        <ele>149.932218</ele>
        <time>2017-06-05T15:31:42.000Z</time>
      </trkpt>
      <trkpt lat="44.800320" lon="4.782130">
        <ele>149.992395</ele>
        <time>2017-06-05T15:31:50.000Z</time>
      </trkpt>
      <trkpt lat="44.800365" lon="4.782272">
        <ele>150.103668</ele>
        <time>2017-06-05T15:31:55.000Z</time>
      </trkpt>
      <trkpt lat="44.800410" lon="4.782385">
        <ele>150.407633</ele>
        <time>2017-06-05T15:31:59.000Z</time>
      </trkpt>
      <trkpt lat="44.800480" lon="4.782494">
        <ele>150.752494</ele>
        <time>2017-06-05T15:32:03.000Z</time>
      </trkpt>
      <trkpt lat="44.800556" lon="4.782599">
        <ele>151.104336</ele>
        <time>2017-06-05T15:32:07.000Z</time>
      </trkpt>
      <trkpt lat="44.800648" lon="4.782691">
        <ele>151.477268</ele>
        <time>2017-06-05T15:32:11.000Z</time>
      </trkpt>
      <trkpt lat="44.800735" lon="4.782785">
        <ele>151.839681</ele>
        <time>2017-06-05T15:32:15.000Z</time>
      </trkpt>
      <trkpt lat="44.800830" lon="4.782879">
        <ele>152.223420</ele>
        <time>2017-06-05T15:32:19.000Z</time>
      </trkpt>
      <trkpt lat="44.800910" lon="4.782939">
        <ele>152.523012</ele>
        <time>2017-06-05T15:32:22.000Z</time>
      </trkpt>
      <trkpt lat="44.801014" lon="4.783010">
        <ele>152.905043</ele>
        <time>2017-06-05T15:32:26.000Z</time>
      </trkpt>
      <trkpt lat="44.801086" lon="4.783130">
        <ele>153.273679</ele>
        <time>2017-06-05T15:32:30.000Z</time>
      </trkpt>
      <trkpt lat="44.801144" lon="4.783241">
        <ele>153.597039</ele>
        <time>2017-06-05T15:32:35.000Z</time>
      </trkpt>
      <trkpt lat="44.801075" lon="4.783334">
        <ele>153.912673</ele>
        <time>2017-06-05T15:32:41.000Z</time>
      </trkpt>
      <trkpt lat="44.801018" lon="4.783440">
        <ele>154.224658</ele>
        <time>2017-06-05T15:32:47.000Z</time>
      </trkpt>
      <trkpt lat="44.800922" lon="4.783523">
        <ele>154.596988</ele>
        <time>2017-06-05T15:32:51.000Z</time>
      </trkpt>
      <trkpt lat="44.800840" lon="4.783623">
        <ele>154.955475</ele>
        <time>2017-06-05T15:32:55.000Z</time>
      </trkpt>
      <trkpt lat="44.800750" lon="4.783721">
        <ele>155.331470</ele>
        <time>2017-06-05T15:32:59.000Z</time>
      </trkpt>
      <trkpt lat="44.800674" lon="4.783806">
        <ele>155.652223</ele>
        <time>2017-06-05T15:33:03.000Z</time>
      </trkpt>
      <trkpt lat="44.800583" lon="4.783893">
        <ele>155.991359</ele>
        <time>2017-06-05T15:33:08.000Z</time>
      </trkpt>
      <trkpt lat="44.800507" lon="4.783984">
        <ele>155.985120</ele>
        <time>2017-06-05T15:33:12.000Z</time>
      </trkpt>
      <trkpt lat="44.800426" lon="4.784061">
        <ele>155.979006</ele>
        <time>2017-06-05T15:33:16.000Z</time>
      </trkpt>
      <trkpt lat="44.800335" lon="4.784158">
        <ele>155.971867</ele>
        <time>2017-06-05T15:33:20.000Z</time>
      </trkpt>
      <trkpt lat="44.800260" lon="4.784243">
        <ele>155.965845</ele>
        <time>2017-06-05T15:33:23.000Z</time>
      </trkpt>
      <trkpt lat="44.800182" lon="4.784324">
        <ele>155.959783</ele>
        <time>2017-06-05T15:33:26.000Z</time>
      </trkpt>
      <trkpt lat="44.800090" lon="4.784402">
        <ele>155.953065</ele>
        <time>2017-06-05T15:33:30.000Z</time>
      </trkpt>
      <trkpt lat="44.800020" lon="4.784484">
        <ele>155.947370</ele>
        <time>2017-06-05T15:33:33.000Z</time>
      </trkpt>
      <trkpt lat="44.799942" lon="4.784565">
        <ele>155.941308</ele>
        <time>2017-06-05T15:33:36.000Z</time>
      </trkpt>
      <trkpt lat="44.799860" lon="4.784655">
        <ele>155.934804</ele>
        <time>2017-06-05T15:33:40.000Z</time>
      </trkpt>
      <trkpt lat="44.799763" lon="4.784748">
        <ele>155.927464</ele>
        <time>2017-06-05T15:33:44.000Z</time>
      </trkpt>
      <trkpt lat="44.799670" lon="4.784841">
        <ele>155.920329</ele>
        <time>2017-06-05T15:33:47.000Z</time>
      </trkpt>
      <trkpt lat="44.799583" lon="4.784952">
        <ele>155.912986</ele>
        <time>2017-06-05T15:33:50.000Z</time>
      </trkpt>
      <trkpt lat="44.799480" lon="4.785054">
        <ele>155.905109</ele>
        <time>2017-06-05T15:33:53.000Z</time>
      </trkpt>
      <trkpt lat="44.799385" lon="4.785152">
        <ele>155.897743</ele>
        <time>2017-06-05T15:33:56.000Z</time>
      </trkpt>
      <trkpt lat="44.799267" lon="4.785258">
        <ele>155.888987</ele>
        <time>2017-06-05T15:33:59.000Z</time>
      </trkpt>
      <trkpt lat="44.799183" lon="4.785349">
        <ele>155.882358</ele>
        <time>2017-06-05T15:34:01.000Z</time>
      </trkpt>
      <trkpt lat="44.799095" lon="4.785449">
        <ele>155.773669</ele>
        <time>2017-06-05T15:34:03.000Z</time>
      </trkpt>
      <trkpt lat="44.799020" lon="4.785528">
        <ele>155.618501</ele>
        <time>2017-06-05T15:34:05.000Z</time>
      </trkpt>
      <trkpt lat="44.798912" lon="4.785632">
        <ele>155.401736</ele>
        <time>2017-06-05T15:34:08.000Z</time>
      </trkpt>
      <trkpt lat="44.798800" lon="4.785666">
        <ele>155.211877</ele>
        <time>2017-06-05T15:34:11.000Z</time>
      </trkpt>
      <trkpt lat="44.798710" lon="4.785602">
        <ele>155.044820</ele>
        <time>2017-06-05T15:34:13.000Z</time>
      </trkpt>
      <trkpt lat="44.798615" lon="4.785512">
        <ele>154.855124</ele>
        <time>2017-06-05T15:34:15.000Z</time>
      </trkpt>
      <trkpt lat="44.798510" lon="4.785409">
        <ele>154.643119</ele>
        <time>2017-06-05T15:34:17.000Z</time>
      </trkpt>
      <trkpt lat="44.798393" lon="4.785301">
        <ele>154.411341</ele>
        <time>2017-06-05T15:34:19.000Z</time>
      </trkpt>
      <trkpt lat="44.798280" lon="4.785194">
        <ele>154.185737</ele>
        <time>2017-06-05T15:34:21.000Z</time>
      </trkpt>
      <trkpt lat="44.798176" lon="4.785093">
        <ele>153.976432</ele>
        <time>2017-06-05T15:34:23.000Z</time>
      </trkpt>
      <trkpt lat="44.798070" lon="4.785000">
        <ele>153.769513</ele>
        <time>2017-06-05T15:34:25.000Z</time>
      </trkpt>
      <trkpt lat="44.797966" lon="4.784906">
        <ele>153.564767</ele>
        <time>2017-06-05T15:34:27.000Z</time>
      </trkpt>
      <trkpt lat="44.797863" lon="4.784813">
        <ele>153.362050</ele>
        <time>2017-06-05T15:34:29.000Z</time>
      </trkpt>
      <trkpt lat="44.797760" lon="4.784721">
        <ele>153.159966</ele>
        <time>2017-06-05T15:34:31.000Z</time>
      </trkpt>
      <trkpt lat="44.797660" lon="4.784633">
        <ele>152.964594</ele>
        <time>2017-06-05T15:34:33.000Z</time>
      </trkpt>
      <trkpt lat="44.797565" lon="4.784554">
        <ele>152.928659</ele>
        <time>2017-06-05T15:34:35.000Z</time>
      </trkpt>
      <trkpt lat="44.797478" lon="4.784478">
        <ele>152.972262</ele>
        <time>2017-06-05T15:34:37.000Z</time>
      </trkpt>
      <trkpt lat="44.797394" lon="4.784407">
        <ele>153.013986</ele>
        <time>2017-06-05T15:34:39.000Z</time>
      </trkpt>
      <trkpt lat="44.797302" lon="4.784335">
        <ele>153.058814</ele>
        <time>2017-06-05T15:34:41.000Z</time>
      </trkpt>
      <trkpt lat="44.797207" lon="4.784249">
        <ele>153.106912</ele>
        <time>2017-06-05T15:34:43.000Z</time>
      </trkpt>
      <trkpt lat="44.797115" lon="4.784163">
        <ele>153.153939</ele>
        <time>2017-06-05T15:34:45.000Z</time>
      </trkpt>
      <trkpt lat="44.797024" lon="4.784078">
        <ele>153.200445</ele>
        <time>2017-06-05T15:34:47.000Z</time>
      </trkpt>
      <trkpt lat="44.796936" lon="4.784013">
        <ele>153.242768</ele>
        <time>2017-06-05T15:34:49.000Z</time>
      </trkpt>
      <trkpt lat="44.796852" lon="4.783939">
        <ele>153.284966</ele>
        <time>2017-06-05T15:34:51.000Z</time>
      </trkpt>
      <trkpt lat="44.796772" lon="4.783866">
        <ele>153.325565</ele>
        <time>2017-06-05T15:34:53.000Z</time>
      </trkpt>
      <trkpt lat="44.796688" lon="4.783799">
        <ele>153.366680</ele>
        <time>2017-06-05T15:34:55.000Z</time>
      </trkpt>
      <trkpt lat="44.796597" lon="4.783731">
        <ele>153.410557</ele>
        <time>2017-06-05T15:34:57.000Z</time>
      </trkpt>
      <trkpt lat="44.796505" lon="4.783665">
        <ele>153.454532</ele>
        <time>2017-06-05T15:34:59.000Z</time>
      </trkpt>
      <trkpt lat="44.796420" lon="4.783601">
        <ele>153.495584</ele>
        <time>2017-06-05T15:35:01.000Z</time>
      </trkpt>
      <trkpt lat="44.796303" lon="4.783517">
        <ele>153.551519</ele>
        <time>2017-06-05T15:35:04.000Z</time>
      </trkpt>
      <trkpt lat="44.796177" lon="4.783433">
        <ele>153.610895</ele>
        <time>2017-06-05T15:35:07.000Z</time>
      </trkpt>
      <trkpt lat="44.796085" lon="4.783382">
        <ele>153.653008</ele>
        <time>2017-06-05T15:35:09.000Z</time>
      </trkpt>
      <trkpt lat="44.795994" lon="4.783335">
        <ele>153.733636</ele>
        <time>2017-06-05T15:35:11.000Z</time>
      </trkpt>
      <trkpt lat="44.795895" lon="4.783295">
        <ele>153.836041</ele>
        <time>2017-06-05T15:35:13.000Z</time>
      </trkpt>
      <trkpt lat="44.795810" lon="4.783238">
        <ele>153.929641</ele>
        <time>2017-06-05T15:35:15.000Z</time>
      </trkpt>
      <trkpt lat="44.795720" lon="4.783188">
        <ele>154.025834</ele>
        <time>2017-06-05T15:35:17.000Z</time>
      </trkpt>
      <trkpt lat="44.795624" lon="4.783140">
        <ele>154.127121</ele>
        <time>2017-06-05T15:35:19.000Z</time>
      </trkpt>
      <trkpt lat="44.795530" lon="4.783080">
        <ele>154.229729</ele>
        <time>2017-06-05T15:35:21.000Z</time>
      </trkpt>
      <trkpt lat="44.795440" lon="4.783013">
        <ele>154.330939</ele>
        <time>2017-06-05T15:35:23.000Z</time>
      </trkpt>
      <trkpt lat="44.795357" lon="4.782966">
        <ele>154.419882</ele>
        <time>2017-06-05T15:35:25.000Z</time>
      </trkpt>
      <trkpt lat="44.795265" lon="4.782913">
        <ele>154.518710</ele>
        <time>2017-06-05T15:35:27.000Z</time>
      </trkpt>
      <trkpt lat="44.795174" lon="4.782869">
        <ele>154.614372</ele>
        <time>2017-06-05T15:35:29.000Z</time>
      </trkpt>
      <trkpt lat="44.795080" lon="4.782815">
        <ele>154.715308</ele>
        <time>2017-06-05T15:35:31.000Z</time>
      </trkpt>
      <trkpt lat="44.794980" lon="4.782752">
        <ele>154.824225</ele>
        <time>2017-06-05T15:35:33.000Z</time>
      </trkpt>
      <trkpt lat="44.794895" lon="4.782677">
        <ele>154.923945</ele>
        <time>2017-06-05T15:35:35.000Z</time>
      </trkpt>
      <trkpt lat="44.794820" lon="4.782607">
        <ele>155.013393</ele>
        <time>2017-06-05T15:35:37.000Z</time>
      </trkpt>
      <trkpt lat="44.794716" lon="4.782506">
        <ele>155.138983</ele>
        <time>2017-06-05T15:35:40.000Z</time>
      </trkpt>
      <trkpt lat="44.794624" lon="4.782386">
        <ele>155.263634</ele>
        <time>2017-06-05T15:35:43.000Z</time>
      </trkpt>
      <trkpt lat="44.794533" lon="4.782273">
        <ele>155.384237</ele>
        <time>2017-06-05T15:35:46.000Z</time>
      </trkpt>
      <trkpt lat="44.794460" lon="4.782157">
        <ele>155.389361</ele>
        <time>2017-06-05T15:35:49.000Z</time>
      </trkpt>
      <trkpt lat="44.794360" lon="4.782026">
        <ele>155.174558</ele>
        <time>2017-06-05T15:35:52.000Z</time>
      </trkpt>
      <trkpt lat="44.794277" lon="4.781946">
        <ele>155.016355</ele>
        <time>2017-06-05T15:35:54.000Z</time>
      </trkpt>
      <trkpt lat="44.794197" lon="4.781882">
        <ele>154.871628</ele>
        <time>2017-06-05T15:35:56.000Z</time>
      </trkpt>
      <trkpt lat="44.794120" lon="4.781813">
        <ele>154.728070</ele>
        <time>2017-06-05T15:35:58.000Z</time>
      </trkpt>
      <trkpt lat="44.794014" lon="4.781738">
        <ele>154.541466</ele>
        <time>2017-06-05T15:36:01.000Z</time>
      </trkpt>
      <trkpt lat="44.793938" lon="4.781667">
        <ele>154.398010</ele>
        <time>2017-06-05T15:36:03.000Z</time>
      </trkpt>
      <trkpt lat="44.793846" lon="4.781646">
        <ele>154.251386</ele>
        <time>2017-06-05T15:36:05.000Z</time>
      </trkpt>
      <trkpt lat="44.793736" lon="4.781606">
        <ele>154.072660</ele>
        <time>2017-06-05T15:36:08.000Z</time>
      </trkpt>
      <trkpt lat="44.793648" lon="4.781580">
        <ele>153.931205</ele>
        <time>2017-06-05T15:36:11.000Z</time>
      </trkpt>
      <trkpt lat="44.793545" lon="4.781529">
        <ele>153.759449</ele>
        <time>2017-06-05T15:36:15.000Z</time>
      </trkpt>
      <trkpt lat="44.793465" lon="4.781467">
        <ele>153.615811</ele>
        <time>2017-06-05T15:36:18.000Z</time>
      </trkpt>
      <trkpt lat="44.793354" lon="4.781376">
        <ele>153.413777</ele>
        <time>2017-06-05T15:36:21.000Z</time>
      </trkpt>
      <trkpt lat="44.793274" lon="4.781294">
        <ele>153.258144</ele>
        <time>2017-06-05T15:36:23.000Z</time>
      </trkpt>
      <trkpt lat="44.793186" lon="4.781205">
        <ele>153.087732</ele>
        <time>2017-06-05T15:36:25.000Z</time>
      </trkpt>
      <trkpt lat="44.793106" lon="4.781127">
        <ele>152.934682</ele>
        <time>2017-06-05T15:36:27.000Z</time>
      </trkpt>
      <trkpt lat="44.793026" lon="4.781046">
        <ele>152.779703</ele>
        <time>2017-06-05T15:36:29.000Z</time>
      </trkpt>
      <trkpt lat="44.792946" lon="4.780969">
        <ele>152.627286</ele>
        <time>2017-06-05T15:36:31.000Z</time>
      </trkpt>
      <trkpt lat="44.792854" lon="4.780902">
        <ele>152.714923</ele>
        <time>2017-06-05T15:36:33.000Z</time>
      </trkpt>
      <trkpt lat="44.792755" lon="4.780837">
        <ele>152.813535</ele>
        <time>2017-06-05T15:36:35.000Z</time>
      </trkpt>
      <trkpt lat="44.792660" lon="4.780790">
        <ele>152.904441</ele>
        <time>2017-06-05T15:36:37.000Z</time>
      </trkpt>
      <trkpt lat="44.792564" lon="4.780742">
        <ele>152.996413</ele>
        <time>2017-06-05T15:36:39.000Z</time>
      </trkpt>
      <trkpt lat="44.792465" lon="4.780700">
        <ele>153.089761</ele>
        <time>2017-06-05T15:36:41.000Z</time>
      </trkpt>
      <trkpt lat="44.792377" lon="4.780648">
        <ele>153.175918</ele>
        <time>2017-06-05T15:36:43.000Z</time>
      </trkpt>
      <trkpt lat="44.792255" lon="4.780554">
        <ele>153.301461</ele>
        <time>2017-06-05T15:36:46.000Z</time>
      </trkpt>
      <trkpt lat="44.792175" lon="4.780487">
        <ele>153.385486</ele>
        <time>2017-06-05T15:36:48.000Z</time>
      </trkpt>
      <trkpt lat="44.792090" lon="4.780422">
        <ele>153.472804</ele>
        <time>2017-06-05T15:36:50.000Z</time>
      </trkpt>
      <trkpt lat="44.792007" lon="4.780356">
        <ele>153.558852</ele>
        <time>2017-06-05T15:36:52.000Z</time>
      </trkpt>
      <trkpt lat="44.791927" lon="4.780293">
        <ele>153.641597</ele>
        <time>2017-06-05T15:36:54.000Z</time>
      </trkpt>
      <trkpt lat="44.791843" lon="4.780222">
        <ele>153.730037</ele>
        <time>2017-06-05T15:36:56.000Z</time>
      </trkpt>
      <trkpt lat="44.791760" lon="4.780149">
        <ele>153.818376</ele>
        <time>2017-06-05T15:36:58.000Z</time>
      </trkpt>
      <trkpt lat="44.791668" lon="4.780067">
        <ele>153.916664</ele>
        <time>2017-06-05T15:37:00.000Z</time>
      </trkpt>
      <trkpt lat="44.791580" lon="4.779991">
        <ele>154.009853</ele>
        <time>2017-06-05T15:37:02.000Z</time>
      </trkpt>
      <trkpt lat="44.791490" lon="4.779920">
        <ele>154.102981</ele>
        <time>2017-06-05T15:37:04.000Z</time>
      </trkpt>
      <trkpt lat="44.791393" lon="4.779841">
        <ele>154.204137</ele>
        <time>2017-06-05T15:37:06.000Z</time>
      </trkpt>
      <trkpt lat="44.791300" lon="4.779757">
        <ele>154.223726</ele>
        <time>2017-06-05T15:37:08.000Z</time>
      </trkpt>
      <trkpt lat="44.791206" lon="4.779670">
        <ele>154.180850</ele>
        <time>2017-06-05T15:37:10.000Z</time>
      </trkpt>
      <trkpt lat="44.791107" lon="4.779591">
        <ele>154.137474</ele>
        <time>2017-06-05T15:37:12.000Z</time>
      </trkpt>
      <trkpt lat="44.791008" lon="4.779519">
        <ele>154.095000</ele>
        <time>2017-06-05T15:37:14.000Z</time>
      </trkpt>
      <trkpt lat="44.790905" lon="4.779441">
        <ele>154.050420</ele>
        <time>2017-06-05T15:37:16.000Z</time>
      </trkpt>
      <trkpt lat="44.790802" lon="4.779362">
        <ele>154.005711</ele>
        <time>2017-06-05T15:37:18.000Z</time>
      </trkpt>
      <trkpt lat="44.790700" lon="4.779279">
        <ele>153.960805</ele>
        <time>2017-06-05T15:37:20.000Z</time>
      </trkpt>
      <trkpt lat="44.790592" lon="4.779184">
        <ele>153.912266</ele>
        <time>2017-06-05T15:37:22.000Z</time>
      </trkpt>
      <trkpt lat="44.790493" lon="4.779097">
        <ele>153.867784</ele>
        <time>2017-06-05T15:37:24.000Z</time>
      </trkpt>
      <trkpt lat="44.790390" lon="4.779012">
        <ele>153.822276</ele>
        <time>2017-06-05T15:37:26.000Z</time>
      </trkpt>
      <trkpt lat="44.790290" lon="4.778932">
        <ele>153.778435</ele>
        <time>2017-06-05T15:37:28.000Z</time>
      </trkpt>
      <trkpt lat="44.790184" lon="4.778845">
        <ele>153.731667</ele>
        <time>2017-06-05T15:37:30.000Z</time>
      </trkpt>
      <trkpt lat="44.790080" lon="4.778748">
        <ele>153.684118</ele>
        <time>2017-06-05T15:37:32.000Z</time>
      </trkpt>
      <trkpt lat="44.789974" lon="4.778651">
        <ele>153.635932</ele>
        <time>2017-06-05T15:37:34.000Z</time>
      </trkpt>
      <trkpt lat="44.789870" lon="4.778556">
        <ele>153.588679</ele>
        <time>2017-06-05T15:37:36.000Z</time>
      </trkpt>
      <trkpt lat="44.789772" lon="4.778452">
        <ele>153.566574</ele>
        <time>2017-06-05T15:37:38.000Z</time>
      </trkpt>
      <trkpt lat="44.789670" lon="4.778351">
        <ele>153.578000</ele>
        <time>2017-06-05T15:37:40.000Z</time>
      </trkpt>
      <trkpt lat="44.789566" lon="4.778250">
        <ele>153.589576</ele>
        <time>2017-06-05T15:37:42.000Z</time>
      </trkpt>
      <trkpt lat="44.789460" lon="4.778151">
        <ele>153.601230</ele>
        <time>2017-06-05T15:37:44.000Z</time>
      </trkpt>
      <trkpt lat="44.789352" lon="4.778050">
        <ele>153.613110</ele>
        <time>2017-06-05T15:37:46.000Z</time>
      </trkpt>
      <trkpt lat="44.789240" lon="4.777958">
        <ele>153.624991</ele>
        <time>2017-06-05T15:37:48.000Z</time>
      </trkpt>
      <trkpt lat="44.789140" lon="4.777857">
        <ele>153.636267</ele>
        <time>2017-06-05T15:37:50.000Z</time>
      </trkpt>
      <trkpt lat="44.789032" lon="4.777759">
        <ele>153.648040</ele>
        <time>2017-06-05T15:37:52.000Z</time>
      </trkpt>
      <trkpt lat="44.788930" lon="4.777675">
        <ele>153.658868</ele>
        <time>2017-06-05T15:37:54.000Z</time>
      </trkpt>
      <trkpt lat="44.788826" lon="4.777583">
        <ele>153.670122</ele>
        <time>2017-06-05T15:37:56.000Z</time>
      </trkpt>
      <trkpt lat="44.788723" lon="4.777494">
        <ele>153.681195</ele>
        <time>2017-06-05T15:37:58.000Z</time>
      </trkpt>
      <trkpt lat="44.788616" lon="4.777414">
        <ele>153.692296</ele>
        <time>2017-06-05T15:38:00.000Z</time>
      </trkpt>
      <trkpt lat="44.788517" lon="4.777326">
        <ele>153.703024</ele>
        <time>2017-06-05T15:38:02.000Z</time>
      </trkpt>
      <trkpt lat="44.788414" lon="4.777231">
        <ele>153.714306</ele>
        <time>2017-06-05T15:38:04.000Z</time>
      </trkpt>
      <trkpt lat="44.788320" lon="4.777144">
        <ele>153.724613</ele>
        <time>2017-06-05T15:38:06.000Z</time>
      </trkpt>
      <trkpt lat="44.788216" lon="4.777058">
        <ele>153.664795</ele>
        <time>2017-06-05T15:38:08.000Z</time>
      </trkpt>
      <trkpt lat="44.788110" lon="4.776963">
        <ele>153.585956</ele>
        <time>2017-06-05T15:38:10.000Z</time>
      </trkpt>
      <trkpt lat="44.788002" lon="4.776880">
        <ele>153.508752</ele>
        <time>2017-06-05T15:38:12.000Z</time>
      </trkpt>
      <trkpt lat="44.787890" lon="4.776790">
        <ele>153.427837</ele>
        <time>2017-06-05T15:38:14.000Z</time>
      </trkpt>
      <trkpt lat="44.787792" lon="4.776712">
        <ele>153.357201</ele>
        <time>2017-06-05T15:38:16.000Z</time>
      </trkpt>
      <trkpt lat="44.787693" lon="4.776641">
        <ele>153.287487</ele>
        <time>2017-06-05T15:38:18.000Z</time>
      </trkpt>
      <trkpt lat="44.787582" lon="4.776562">
        <ele>153.209444</ele>
        <time>2017-06-05T15:38:20.000Z</time>
      </trkpt>
      <trkpt lat="44.787464" lon="4.776495">
        <ele>153.129604</ele>
        <time>2017-06-05T15:38:22.000Z</time>
      </trkpt>
      <trkpt lat="44.787346" lon="4.776436">
        <ele>153.051026</ele>
        <time>2017-06-05T15:38:24.000Z</time>
      </trkpt>
      <trkpt lat="44.787235" lon="4.776372">
        <ele>152.975759</ele>
        <time>2017-06-05T15:38:26.000Z</time>
      </trkpt>
      <trkpt lat="44.787140" lon="4.776310">
        <ele>152.910055</ele>
        <time>2017-06-05T15:38:28.000Z</time>
      </trkpt>
      <trkpt lat="44.787045" lon="4.776252">
        <ele>152.845079</ele>
        <time>2017-06-05T15:38:30.000Z</time>
      </trkpt>
      <trkpt lat="44.786950" lon="4.776191">
        <ele>152.779561</ele>
        <time>2017-06-05T15:38:32.000Z</time>
      </trkpt>
      <trkpt lat="44.786858" lon="4.776127">
        <ele>152.715171</ele>
        <time>2017-06-05T15:38:34.000Z</time>
      </trkpt>
      <trkpt lat="44.786770" lon="4.776065">
        <ele>152.653425</ele>
        <time>2017-06-05T15:38:36.000Z</time>
      </trkpt>
      <trkpt lat="44.786655" lon="4.775994">
        <ele>152.578668</ele>
        <time>2017-06-05T15:38:39.000Z</time>
      </trkpt>
      <trkpt lat="44.786537" lon="4.775912">
        <ele>152.510450</ele>
        <time>2017-06-05T15:38:42.000Z</time>
      </trkpt>
      <trkpt lat="44.786453" lon="4.775850">
        <ele>152.461284</ele>
        <time>2017-06-05T15:38:44.000Z</time>
      </trkpt>
      <trkpt lat="44.786373" lon="4.775789">
        <ele>152.414120</ele>
        <time>2017-06-05T15:38:46.000Z</time>
      </trkpt>
      <trkpt lat="44.786280" lon="4.775729">
        <ele>152.361087</ele>
        <time>2017-06-05T15:38:48.000Z</time>
      </trkpt>
      <trkpt lat="44.786190" lon="4.775673">
        <ele>152.310076</ele>
        <time>2017-06-05T15:38:50.000Z</time>
      </trkpt>
      <trkpt lat="44.786106" lon="4.775611">
        <ele>152.260909</ele>
        <time>2017-06-05T15:38:52.000Z</time>
      </trkpt>
      <trkpt lat="44.785988" lon="4.775528">
        <ele>152.192528</ele>
        <time>2017-06-05T15:38:55.000Z</time>
      </trkpt>
      <trkpt lat="44.785908" lon="4.775473">
        <ele>152.146375</ele>
        <time>2017-06-05T15:38:57.000Z</time>
      </trkpt>
      <trkpt lat="44.785780" lon="4.775413">
        <ele>152.076432</ele>
        <time>2017-06-05T15:39:00.000Z</time>
      </trkpt>
      <trkpt lat="44.785670" lon="4.775359">
        <ele>152.016037</ele>
        <time>2017-06-05T15:39:03.000Z</time>
      </trkpt>
      <trkpt lat="44.785545" lon="4.775337">
        <ele>151.950723</ele>
        <time>2017-06-05T15:39:06.000Z</time>
      </trkpt>
      <trkpt lat="44.785427" lon="4.775295">
        <ele>151.887619</ele>
        <time>2017-06-05T15:39:09.000Z</time>
      </trkpt>
      <trkpt lat="44.785305" lon="4.775245">
        <ele>151.821743</ele>
        <time>2017-06-05T15:39:12.000Z</time>
      </trkpt>
      <trkpt lat="44.785190" lon="4.775202">
        <ele>151.760053</ele>
        <time>2017-06-05T15:39:15.000Z</time>
      </trkpt>
      <trkpt lat="44.785072" lon="4.775161">
        <ele>151.697039</ele>
        <time>2017-06-05T15:39:18.000Z</time>
      </trkpt>
      <trkpt lat="44.784946" lon="4.775112">
        <ele>151.626731</ele>
        <time>2017-06-05T15:39:21.000Z</time>
      </trkpt>
      <trkpt lat="44.784863" lon="4.775080">
        <ele>151.578974</ele>
        <time>2017-06-05T15:39:23.000Z</time>
      </trkpt>
      <trkpt lat="44.784767" lon="4.775056">
        <ele>151.524863</ele>
        <time>2017-06-05T15:39:25.000Z</time>
      </trkpt>
      <trkpt lat="44.784676" lon="4.775030">
        <ele>151.473331</ele>
        <time>2017-06-05T15:39:27.000Z</time>
      </trkpt>
      <trkpt lat="44.784588" lon="4.775003">
        <ele>151.423348</ele>
        <time>2017-06-05T15:39:29.000Z</time>
      </trkpt>
      <trkpt lat="44.784496" lon="4.774966">
        <ele>151.370250</ele>
        <time>2017-06-05T15:39:31.000Z</time>
      </trkpt>
      <trkpt lat="44.784397" lon="4.774926">
        <ele>151.313091</ele>
        <time>2017-06-05T15:39:33.000Z</time>
      </trkpt>
      <trkpt lat="44.784300" lon="4.774889">
        <ele>151.257319</ele>
        <time>2017-06-05T15:39:35.000Z</time>
      </trkpt>
      <trkpt lat="44.784206" lon="4.774862">
        <ele>151.204078</ele>
        <time>2017-06-05T15:39:37.000Z</time>
      </trkpt>
      <trkpt lat="44.784092" lon="4.774812">
        <ele>151.137814</ele>
        <time>2017-06-05T15:39:40.000Z</time>
      </trkpt>
      <trkpt lat="44.783966" lon="4.774778">
        <ele>151.066615</ele>
        <time>2017-06-05T15:39:43.000Z</time>
      </trkpt>
      <trkpt lat="44.783844" lon="4.774742">
        <ele>150.997438</ele>
        <time>2017-06-05T15:39:46.000Z</time>
      </trkpt>
      <trkpt lat="44.783714" lon="4.774691">
        <ele>150.922545</ele>
        <time>2017-06-05T15:39:49.000Z</time>
      </trkpt>
      <trkpt lat="44.783610" lon="4.774652">
        <ele>150.862816</ele>
        <time>2017-06-05T15:39:51.000Z</time>
      </trkpt>
      <trkpt lat="44.783504" lon="4.774607">
        <ele>150.801375</ele>
        <time>2017-06-05T15:39:53.000Z</time>
      </trkpt>
      <trkpt lat="44.783405" lon="4.774565">
        <ele>150.743995</ele>
        <time>2017-06-05T15:39:55.000Z</time>
      </trkpt>
      <trkpt lat="44.783302" lon="4.774539">
        <ele>150.685921</ele>
        <time>2017-06-05T15:39:57.000Z</time>
      </trkpt>
      <trkpt lat="44.783203" lon="4.774511">
        <ele>150.610880</ele>
        <time>2017-06-05T15:39:59.000Z</time>
      </trkpt>
      <trkpt lat="44.783104" lon="4.774484">
        <ele>150.526322</ele>
        <time>2017-06-05T15:40:01.000Z</time>
      </trkpt>
      <trkpt lat="44.782970" lon="4.774445">
        <ele>150.411583</ele>
        <time>2017-06-05T15:40:04.000Z</time>
      </trkpt>
      <trkpt lat="44.782852" lon="4.774405">
        <ele>150.309810</ele>
        <time>2017-06-05T15:40:06.000Z</time>
      </trkpt>
      <trkpt lat="44.782740" lon="4.774368">
        <ele>150.213345</ele>
        <time>2017-06-05T15:40:08.000Z</time>
      </trkpt>
      <trkpt lat="44.782623" lon="4.774321">
        <ele>150.111324</ele>
        <time>2017-06-05T15:40:10.000Z</time>
      </trkpt>
      <trkpt lat="44.782516" lon="4.774287">
        <ele>150.019345</ele>
        <time>2017-06-05T15:40:12.000Z</time>
      </trkpt>
      <trkpt lat="44.782417" lon="4.774247">
        <ele>149.932982</ele>
        <time>2017-06-05T15:40:14.000Z</time>
      </trkpt>
      <trkpt lat="44.782320" lon="4.774210">
        <ele>149.848714</ele>
        <time>2017-06-05T15:40:16.000Z</time>
      </trkpt>
      <trkpt lat="44.782200" lon="4.774143">
        <ele>149.740473</ele>
        <time>2017-06-05T15:40:19.000Z</time>
      </trkpt>
      <trkpt lat="44.782074" lon="4.774038">
        <ele>149.617716</ele>
        <time>2017-06-05T15:40:22.000Z</time>
      </trkpt>
      <trkpt lat="44.781970" lon="4.773938">
        <ele>149.512132</ele>
        <time>2017-06-05T15:40:25.000Z</time>
      </trkpt>
      <trkpt lat="44.781864" lon="4.773847">
        <ele>149.408043</ele>
        <time>2017-06-05T15:40:28.000Z</time>
      </trkpt>
      <trkpt lat="44.781790" lon="4.773772">
        <ele>149.331602</ele>
        <time>2017-06-05T15:40:30.000Z</time>
      </trkpt>
      <trkpt lat="44.781704" lon="4.773696">
        <ele>149.246473</ele>
        <time>2017-06-05T15:40:32.000Z</time>
      </trkpt>
      <trkpt lat="44.781590" lon="4.773663">
        <ele>149.173580</ele>
        <time>2017-06-05T15:40:34.000Z</time>
      </trkpt>
      <trkpt lat="44.781500" lon="4.773702">
        <ele>149.291004</ele>
        <time>2017-06-05T15:40:36.000Z</time>
      </trkpt>
      <trkpt lat="44.781420" lon="4.773829">
        <ele>149.441304</ele>
        <time>2017-06-05T15:40:39.000Z</time>
      </trkpt>
      <trkpt lat="44.781456" lon="4.773987">
        <ele>149.588187</ele>
        <time>2017-06-05T15:40:42.000Z</time>
      </trkpt>
      <trkpt lat="44.781498" lon="4.774124">
        <ele>149.720281</ele>
        <time>2017-06-05T15:40:45.000Z</time>
      </trkpt>
      <trkpt lat="44.781425" lon="4.774209">
        <ele>149.838384</ele>
        <time>2017-06-05T15:40:50.000Z</time>
      </trkpt>
      <trkpt lat="44.781345" lon="4.774129">
        <ele>149.960725</ele>
        <time>2017-06-05T15:40:53.000Z</time>
      </trkpt>
      <trkpt lat="44.781235" lon="4.774146">
        <ele>150.098724</ele>
        <time>2017-06-05T15:40:56.000Z</time>
      </trkpt>
      <trkpt lat="44.781128" lon="4.774272">
        <ele>150.272632</ele>
        <time>2017-06-05T15:40:59.000Z</time>
      </trkpt>
      <trkpt lat="44.781055" lon="4.774349">
        <ele>150.386354</ele>
        <time>2017-06-05T15:41:01.000Z</time>
      </trkpt>
      <trkpt lat="44.780933" lon="4.774346">
        <ele>150.538518</ele>
        <time>2017-06-05T15:41:04.000Z</time>
      </trkpt>
      <trkpt lat="44.780870" lon="4.774210">
        <ele>150.682269</ele>
        <time>2017-06-05T15:41:07.000Z</time>
      </trkpt>
      <trkpt lat="44.780834" lon="4.774045">
        <ele>150.835065</ele>
        <time>2017-06-05T15:41:10.000Z</time>
      </trkpt>
      <trkpt lat="44.780796" lon="4.773912">
        <ele>150.961972</ele>
        <time>2017-06-05T15:41:13.000Z</time>
      </trkpt>
      <trkpt lat="44.780766" lon="4.773789">
        <ele>151.077096</ele>
        <time>2017-06-05T15:41:16.000Z</time>
      </trkpt>
      <trkpt lat="44.780710" lon="4.773658">
        <ele>151.212459</ele>
        <time>2017-06-05T15:41:20.000Z</time>
      </trkpt>
      <trkpt lat="44.780666" lon="4.773538">
        <ele>151.332014</ele>
        <time>2017-06-05T15:41:24.000Z</time>
      </trkpt>
      <trkpt lat="44.780620" lon="4.773427">
        <ele>151.392451</ele>
        <time>2017-06-05T15:41:28.000Z</time>
      </trkpt>
      <trkpt lat="44.780563" lon="4.773319">
        <ele>151.367075</ele>
        <time>2017-06-05T15:41:33.000Z</time>
      </trkpt>
      <trkpt lat="44.780495" lon="4.773204">
        <ele>151.338854</ele>
        <time>2017-06-05T15:41:39.000Z</time>
      </trkpt>
      <trkpt lat="44.780430" lon="4.773066">
        <ele>151.307627</ele>
        <time>2017-06-05T15:41:44.000Z</time>
      </trkpt>
      <trkpt lat="44.780357" lon="4.772926">
        <ele>151.274873</ele>
        <time>2017-06-05T15:41:48.000Z</time>
      </trkpt>
      <trkpt lat="44.780277" lon="4.772788">
        <ele>151.241278</ele>
        <time>2017-06-05T15:41:51.000Z</time>
      </trkpt>
      <trkpt lat="44.780220" lon="4.772683">
        <ele>151.216355</ele>
        <time>2017-06-05T15:41:53.000Z</time>
      </trkpt>
      <trkpt lat="44.780140" lon="4.772535">
        <ele>151.181279</ele>
        <time>2017-06-05T15:41:56.000Z</time>
      </trkpt>
      <trkpt lat="44.780064" lon="4.772387">
        <ele>151.146837</ele>
        <time>2017-06-05T15:41:59.000Z</time>
      </trkpt>
      <trkpt lat="44.780018" lon="4.772277">
        <ele>151.122764</ele>
        <time>2017-06-05T15:42:01.000Z</time>
      </trkpt>
      <trkpt lat="44.779972" lon="4.772163">
        <ele>151.098039</ele>
        <time>2017-06-05T15:42:03.000Z</time>
      </trkpt>
      <trkpt lat="44.779930" lon="4.772044">
        <ele>151.072981</ele>
        <time>2017-06-05T15:42:05.000Z</time>
      </trkpt>
      <trkpt lat="44.779865" lon="4.771882">
        <ele>151.037894</ele>
        <time>2017-06-05T15:42:08.000Z</time>
      </trkpt>
      <trkpt lat="44.779820" lon="4.771757">
        <ele>151.011467</ele>
        <time>2017-06-05T15:42:10.000Z</time>
      </trkpt>
      <trkpt lat="44.779760" lon="4.771643">
        <ele>150.984708</ele>
        <time>2017-06-05T15:42:12.000Z</time>
      </trkpt>
      <trkpt lat="44.779705" lon="4.771523">
        <ele>150.957775</ele>
        <time>2017-06-05T15:42:14.000Z</time>
      </trkpt>
      <trkpt lat="44.779648" lon="4.771408">
        <ele>150.931328</ele>
        <time>2017-06-05T15:42:16.000Z</time>
      </trkpt>
      <trkpt lat="44.779587" lon="4.771293">
        <ele>150.989392</ele>
        <time>2017-06-05T15:42:18.000Z</time>
      </trkpt>
      <trkpt lat="44.779533" lon="4.771189">
        <ele>151.069665</ele>
        <time>2017-06-05T15:42:20.000Z</time>
      </trkpt>
      <trkpt lat="44.779480" lon="4.771081">
        <ele>151.151460</ele>
        <time>2017-06-05T15:42:22.000Z</time>
      </trkpt>
      <trkpt lat="44.779396" lon="4.770934">
        <ele>151.269025</ele>
        <time>2017-06-05T15:42:25.000Z</time>
      </trkpt>
      <trkpt lat="44.779310" lon="4.770802">
        <ele>151.380646</ele>
        <time>2017-06-05T15:42:28.000Z</time>
      </trkpt>
      <trkpt lat="44.779243" lon="4.770707">
        <ele>151.464074</ele>
        <time>2017-06-05T15:42:30.000Z</time>
      </trkpt>
      <trkpt lat="44.779175" lon="4.770604">
        <ele>151.551705</ele>
        <time>2017-06-05T15:42:32.000Z</time>
      </trkpt>
      <trkpt lat="44.779114" lon="4.770502">
        <ele>151.634795</ele>
        <time>2017-06-05T15:42:34.000Z</time>
      </trkpt>
      <trkpt lat="44.779050" lon="4.770409">
        <ele>151.715491</ele>
        <time>2017-06-05T15:42:36.000Z</time>
      </trkpt>
      <trkpt lat="44.778988" lon="4.770315">
        <ele>151.795430</ele>
        <time>2017-06-05T15:42:38.000Z</time>
      </trkpt>
      <trkpt lat="44.778920" lon="4.770228">
        <ele>151.876048</ele>
        <time>2017-06-05T15:42:40.000Z</time>
      </trkpt>
      <trkpt lat="44.778854" lon="4.770139">
        <ele>151.956232</ele>
        <time>2017-06-05T15:42:42.000Z</time>
      </trkpt>
      <trkpt lat="44.778750" lon="4.770025">
        <ele>152.071883</ele>
        <time>2017-06-05T15:42:45.000Z</time>
      </trkpt>
      <trkpt lat="44.778652" lon="4.769904">
        <ele>152.186250</ele>
        <time>2017-06-05T15:42:48.000Z</time>
      </trkpt>
      <trkpt lat="44.778550" lon="4.769791">
        <ele>152.300135</ele>
        <time>2017-06-05T15:42:51.000Z</time>
      </trkpt>
      <trkpt lat="44.778477" lon="4.769710">
        <ele>152.381690</ele>
        <time>2017-06-05T15:42:53.000Z</time>
      </trkpt>
      <trkpt lat="44.778404" lon="4.769628">
        <ele>152.463631</ele>
        <time>2017-06-05T15:42:55.000Z</time>
      </trkpt>
      <trkpt lat="44.778320" lon="4.769556">
        <ele>152.523619</ele>
        <time>2017-06-05T15:42:57.000Z</time>
      </trkpt>
      <trkpt lat="44.778240" lon="4.769487">
        <ele>152.560162</ele>
        <time>2017-06-05T15:42:59.000Z</time>
      </trkpt>
      <trkpt lat="44.778126" lon="4.769376">
        <ele>152.614151</ele>
        <time>2017-06-05T15:43:02.000Z</time>
      </trkpt>
      <trkpt lat="44.778050" lon="4.769301">
        <ele>152.650301</ele>
        <time>2017-06-05T15:43:04.000Z</time>
      </trkpt>
      <trkpt lat="44.777977" lon="4.769225">
        <ele>152.685663</ele>
        <time>2017-06-05T15:43:06.000Z</time>
      </trkpt>
      <trkpt lat="44.777900" lon="4.769149">
        <ele>152.722291</ele>
        <time>2017-06-05T15:43:08.000Z</time>
      </trkpt>
      <trkpt lat="44.777820" lon="4.769072">
        <ele>152.760037</ele>
        <time>2017-06-05T15:43:10.000Z</time>
      </trkpt>
      <trkpt lat="44.777744" lon="4.769002">
        <ele>152.795412</ele>
        <time>2017-06-05T15:43:12.000Z</time>
      </trkpt>
      <trkpt lat="44.777637" lon="4.768884">
        <ele>152.848351</ele>
        <time>2017-06-05T15:43:15.000Z</time>
      </trkpt>
      <trkpt lat="44.777560" lon="4.768802">
        <ele>152.885956</ele>
        <time>2017-06-05T15:43:17.000Z</time>
      </trkpt>
      <trkpt lat="44.777480" lon="4.768728">
        <ele>152.923240</ele>
        <time>2017-06-05T15:43:19.000Z</time>
      </trkpt>
      <trkpt lat="44.777405" lon="4.768652">
        <ele>152.959233</ele>
        <time>2017-06-05T15:43:21.000Z</time>
      </trkpt>
      <trkpt lat="44.777332" lon="4.768571">
        <ele>152.995435</ele>
        <time>2017-06-05T15:43:23.000Z</time>
      </trkpt>
      <trkpt lat="44.777260" lon="4.768496">
        <ele>153.030320</ele>
        <time>2017-06-05T15:43:25.000Z</time>
      </trkpt>
      <trkpt lat="44.777187" lon="4.768418">
        <ele>153.066015</ele>
        <time>2017-06-05T15:43:27.000Z</time>
      </trkpt>
      <trkpt lat="44.777110" lon="4.768348">
        <ele>153.101716</ele>
        <time>2017-06-05T15:43:29.000Z</time>
      </trkpt>
      <trkpt lat="44.777010" lon="4.768243">
        <ele>153.150306</ele>
        <time>2017-06-05T15:43:32.000Z</time>
      </trkpt>
      <trkpt lat="44.776913" lon="4.768144">
        <ele>153.196970</ele>
        <time>2017-06-05T15:43:35.000Z</time>
      </trkpt>
      <trkpt lat="44.776806" lon="4.768032">
        <ele>153.484171</ele>
        <time>2017-06-05T15:43:38.000Z</time>
      </trkpt>
      <trkpt lat="44.776703" lon="4.767925">
        <ele>153.791464</ele>
        <time>2017-06-05T15:43:41.000Z</time>
      </trkpt>
      <trkpt lat="44.776600" lon="4.767817">
        <ele>154.099772</ele>
        <time>2017-06-05T15:43:44.000Z</time>
      </trkpt>
      <trkpt lat="44.776505" lon="4.767699">
        <ele>154.403889</ele>
        <time>2017-06-05T15:43:47.000Z</time>
      </trkpt>
      <trkpt lat="44.776410" lon="4.767580">
        <ele>154.709136</ele>
        <time>2017-06-05T15:43:50.000Z</time>
      </trkpt>
      <trkpt lat="44.776314" lon="4.767479">
        <ele>154.996837</ele>
        <time>2017-06-05T15:43:53.000Z</time>
      </trkpt>
      <trkpt lat="44.776210" lon="4.767422">
        <ele>155.264792</ele>
        <time>2017-06-05T15:43:56.000Z</time>
      </trkpt>
      <trkpt lat="44.776090" lon="4.767421">
        <ele>155.552936</ele>
        <time>2017-06-05T15:43:59.000Z</time>
      </trkpt>
      <trkpt lat="44.775978" lon="4.767446">
        <ele>155.825221</ele>
        <time>2017-06-05T15:44:02.000Z</time>
      </trkpt>
      <trkpt lat="44.775880" lon="4.767481">
        <ele>156.067979</ele>
        <time>2017-06-05T15:44:05.000Z</time>
      </trkpt>
      <trkpt lat="44.775770" lon="4.767534">
        <ele>156.347129</ele>
        <time>2017-06-05T15:44:08.000Z</time>
      </trkpt>
      <trkpt lat="44.775646" lon="4.767590">
        <ele>156.659798</ele>
        <time>2017-06-05T15:44:11.000Z</time>
      </trkpt>
      <trkpt lat="44.775524" lon="4.767650">
        <ele>156.970079</ele>
        <time>2017-06-05T15:44:14.000Z</time>
      </trkpt>
      <trkpt lat="44.775414" lon="4.767698">
        <ele>157.246588</ele>
        <time>2017-06-05T15:44:17.000Z</time>
      </trkpt>
      <trkpt lat="44.775310" lon="4.767742">
        <ele>157.507328</ele>
        <time>2017-06-05T15:44:20.000Z</time>
      </trkpt>
      <trkpt lat="44.775192" lon="4.767780">
        <ele>157.575380</ele>
        <time>2017-06-05T15:44:23.000Z</time>
      </trkpt>
      <trkpt lat="44.775078" lon="4.767798">
        <ele>157.628523</ele>
        <time>2017-06-05T15:44:26.000Z</time>
      </trkpt>
      <trkpt lat="44.774952" lon="4.767837">
        <ele>157.688287</ele>
        <time>2017-06-05T15:44:29.000Z</time>
      </trkpt>
      <trkpt lat="44.774857" lon="4.767832">
        <ele>157.732328</ele>
        <time>2017-06-05T15:44:31.000Z</time>
      </trkpt>
      <trkpt lat="44.774742" lon="4.767853">
        <ele>157.786050</ele>
        <time>2017-06-05T15:44:34.000Z</time>
      </trkpt>
      <trkpt lat="44.774635" lon="4.767852">
        <ele>157.835620</ele>
        <time>2017-06-05T15:44:37.000Z</time>
      </trkpt>
      <trkpt lat="44.774532" lon="4.767855">
        <ele>157.883347</ele>
        <time>2017-06-05T15:44:40.000Z</time>
      </trkpt>
      <trkpt lat="44.774403" lon="4.767834">
        <ele>157.943506</ele>
        <time>2017-06-05T15:44:43.000Z</time>
      </trkpt>
      <trkpt lat="44.774277" lon="4.767824">
        <ele>158.001971</ele>
        <time>2017-06-05T15:44:46.000Z</time>
      </trkpt>
      <trkpt lat="44.774147" lon="4.767807">
        <ele>158.062454</ele>
        <time>2017-06-05T15:44:49.000Z</time>
      </trkpt>
      <trkpt lat="44.774020" lon="4.767774">
        <ele>158.122282</ele>
        <time>2017-06-05T15:44:52.000Z</time>
      </trkpt>
      <trkpt lat="44.773922" lon="4.767746">
        <ele>158.168607</ele>
        <time>2017-06-05T15:44:54.000Z</time>
      </trkpt>
      <trkpt lat="44.773796" lon="4.767695">
        <ele>158.229340</ele>
        <time>2017-06-05T15:44:57.000Z</time>
      </trkpt>
      <trkpt lat="44.773670" lon="4.767645">
        <ele>158.289984</ele>
        <time>2017-06-05T15:45:00.000Z</time>
      </trkpt>
      <trkpt lat="44.773552" lon="4.767624">
        <ele>158.345084</ele>
        <time>2017-06-05T15:45:03.000Z</time>
      </trkpt>
      <trkpt lat="44.773422" lon="4.767592">
        <ele>158.106325</ele>
        <time>2017-06-05T15:45:06.000Z</time>
      </trkpt>
      <trkpt lat="44.773290" lon="4.767593">
        <ele>157.806477</ele>
        <time>2017-06-05T15:45:09.000Z</time>
      </trkpt>
      <trkpt lat="44.773180" lon="4.767591">
        <ele>157.556587</ele>
        <time>2017-06-05T15:45:12.000Z</time>
      </trkpt>
      <trkpt lat="44.773080" lon="4.767617">
        <ele>157.325596</ele>
        <time>2017-06-05T15:45:15.000Z</time>
      </trkpt>
      <trkpt lat="44.772987" lon="4.767609">
        <ele>157.113949</ele>
        <time>2017-06-05T15:45:18.000Z</time>
      </trkpt>
      <trkpt lat="44.772860" lon="4.767595">
        <ele>156.824581</ele>
        <time>2017-06-05T15:45:21.000Z</time>
      </trkpt>
      <trkpt lat="44.772760" lon="4.767597">
        <ele>156.597404</ele>
        <time>2017-06-05T15:45:23.000Z</time>
      </trkpt>
      <trkpt lat="44.772655" lon="4.767675">
        <ele>156.327758</ele>
        <time>2017-06-05T15:45:25.000Z</time>
      </trkpt>
      <trkpt lat="44.772606" lon="4.767815">
        <ele>156.076049</ele>
        <time>2017-06-05T15:45:27.000Z</time>
      </trkpt>
      <trkpt lat="44.772594" lon="4.767964">
        <ele>155.834233</ele>
        <time>2017-06-05T15:45:29.000Z</time>
      </trkpt>
      <trkpt lat="44.772575" lon="4.768114">
        <ele>155.588525</ele>
        <time>2017-06-05T15:45:31.000Z</time>
      </trkpt>
      <trkpt lat="44.772545" lon="4.768281">
        <ele>155.310735</ele>
        <time>2017-06-05T15:45:34.000Z</time>
      </trkpt>
      <trkpt lat="44.772520" lon="4.768433">
        <ele>155.059129</ele>
        <time>2017-06-05T15:45:38.000Z</time>
      </trkpt>
      <trkpt lat="44.772507" lon="4.768573">
        <ele>154.831444</ele>
        <time>2017-06-05T15:45:42.000Z</time>
      </trkpt>
      <trkpt lat="44.772495" lon="4.768721">
        <ele>154.591229</ele>
        <time>2017-06-05T15:45:46.000Z</time>
      </trkpt>
      <trkpt lat="44.772490" lon="4.768882">
        <ele>154.331354</ele>
        <time>2017-06-05T15:45:50.000Z</time>
      </trkpt>
      <trkpt lat="44.772472" lon="4.769009">
        <ele>154.296515</ele>
        <time>2017-06-05T15:45:54.000Z</time>
      </trkpt>
      <trkpt lat="44.772370" lon="4.769057">
        <ele>154.340966</ele>
        <time>2017-06-05T15:46:01.000Z</time>
      </trkpt>
      <trkpt lat="44.772260" lon="4.769052">
        <ele>154.386458</ele>
        <time>2017-06-05T15:46:05.000Z</time>
      </trkpt>
      <trkpt lat="44.772150" lon="4.769043">
        <ele>154.432003</ele>
        <time>2017-06-05T15:46:09.000Z</time>
      </trkpt>
      <trkpt lat="44.772026" lon="4.769033">
        <ele>154.483342</ele>
        <time>2017-06-05T15:46:13.000Z</time>
      </trkpt>
      <trkpt lat="44.771935" lon="4.769023">
        <ele>154.521071</ele>
        <time>2017-06-05T15:46:16.000Z</time>
      </trkpt>
      <trkpt lat="44.771816" lon="4.769014">
        <ele>154.570330</ele>
        <time>2017-06-05T15:46:20.000Z</time>
      </trkpt>
      <trkpt lat="44.771725" lon="4.769007">
        <ele>154.608001</ele>
        <time>2017-06-05T15:46:24.000Z</time>
      </trkpt>
      <trkpt lat="44.771630" lon="4.768997">
        <ele>154.647378</ele>
        <time>2017-06-05T15:46:28.000Z</time>
      </trkpt>
      <trkpt lat="44.771526" lon="4.768996">
        <ele>154.690367</ele>
        <time>2017-06-05T15:46:32.000Z</time>
      </trkpt>
      <trkpt lat="44.771423" lon="4.768993">
        <ele>154.732951</ele>
        <time>2017-06-05T15:46:37.000Z</time>
      </trkpt>
      <trkpt lat="44.771290" lon="4.768992">
        <ele>154.787927</ele>
        <time>2017-06-05T15:47:13.000Z</time>
      </trkpt>
      <trkpt lat="44.771190" lon="4.768974">
        <ele>154.829598</ele>
        <time>2017-06-05T15:47:18.000Z</time>
      </trkpt>
      <trkpt lat="44.771095" lon="4.768969">
        <ele>154.868893</ele>
        <time>2017-06-05T15:47:21.000Z</time>
      </trkpt>
      <trkpt lat="44.770996" lon="4.768962">
        <ele>154.909866</ele>
        <time>2017-06-05T15:47:24.000Z</time>
      </trkpt>
      <trkpt lat="44.770900" lon="4.768957">
        <ele>154.949574</ele>
        <time>2017-06-05T15:47:27.000Z</time>
      </trkpt>
      <trkpt lat="44.770805" lon="4.768960">
        <ele>154.988852</ele>
        <time>2017-06-05T15:47:30.000Z</time>
      </trkpt>
      <trkpt lat="44.770740" lon="4.768823">
        <ele>154.880472</ele>
        <time>2017-06-05T15:47:35.000Z</time>
      </trkpt>
      <trkpt lat="44.770752" lon="4.768686">
        <ele>154.656618</ele>
        <time>2017-06-05T15:47:38.000Z</time>
      </trkpt>
      <trkpt lat="44.770782" lon="4.768566">
        <ele>154.450303</ele>
        <time>2017-06-05T15:47:41.000Z</time>
      </trkpt>
      <trkpt lat="44.770794" lon="4.768427">
        <ele>154.223229</ele>
        <time>2017-06-05T15:47:45.000Z</time>
      </trkpt>
      <trkpt lat="44.770798" lon="4.768264">
        <ele>153.958738</ele>
        <time>2017-06-05T15:47:49.000Z</time>
      </trkpt>
      <trkpt lat="44.770794" lon="4.768097">
        <ele>153.687764</ele>
        <time>2017-06-05T15:47:52.000Z</time>
      </trkpt>
      <trkpt lat="44.770782" lon="4.767945">
        <ele>153.439750</ele>
        <time>2017-06-05T15:47:55.000Z</time>
      </trkpt>
      <trkpt lat="44.770782" lon="4.767803">
        <ele>153.209472</ele>
        <time>2017-06-05T15:47:58.000Z</time>
      </trkpt>
      <trkpt lat="44.770786" lon="4.767660">
        <ele>152.977392</ele>
        <time>2017-06-05T15:48:01.000Z</time>
      </trkpt>
      <trkpt lat="44.770782" lon="4.767518">
        <ele>152.746933</ele>
        <time>2017-06-05T15:48:04.000Z</time>
      </trkpt>
      <trkpt lat="44.770780" lon="4.767364">
        <ele>152.497153</ele>
        <time>2017-06-05T15:48:07.000Z</time>
      </trkpt>
      <trkpt lat="44.770775" lon="4.767200">
        <ele>152.230952</ele>
        <time>2017-06-05T15:48:10.000Z</time>
      </trkpt>
      <trkpt lat="44.770770" lon="4.767017">
        <ele>151.933966</ele>
        <time>2017-06-05T15:48:13.000Z</time>
      </trkpt>
      <trkpt lat="44.770760" lon="4.766846">
        <ele>151.655720</ele>
        <time>2017-06-05T15:48:16.000Z</time>
      </trkpt>
      <trkpt lat="44.770740" lon="4.766673">
        <ele>151.371474</ele>
        <time>2017-06-05T15:48:19.000Z</time>
      </trkpt>
      <trkpt lat="44.770714" lon="4.766542">
        <ele>151.150888</ele>
        <time>2017-06-05T15:48:22.000Z</time>
      </trkpt>
      <trkpt lat="44.770650" lon="4.766638">
        <ele>150.937325</ele>
        <time>2017-06-05T15:48:27.000Z</time>
      </trkpt>
      <trkpt lat="44.770640" lon="4.766841">
        <ele>150.762129</ele>
        <time>2017-06-05T15:48:30.000Z</time>
      </trkpt>
      <trkpt lat="44.770630" lon="4.767017">
        <ele>150.624905</ele>
        <time>2017-06-05T15:48:33.000Z</time>
      </trkpt>
      <trkpt lat="44.770557" lon="4.766909">
        <ele>150.509008</ele>
        <time>2017-06-05T15:48:40.000Z</time>
      </trkpt>
      <trkpt lat="44.770554" lon="4.766773">
        <ele>150.403259</ele>
        <time>2017-06-05T15:48:43.000Z</time>
      </trkpt>
      <trkpt lat="44.770554" lon="4.766621">
        <ele>150.285125</ele>
        <time>2017-06-05T15:48:46.000Z</time>
      </trkpt>
      <trkpt lat="44.770542" lon="4.766493">
        <ele>150.184780</ele>
        <time>2017-06-05T15:48:48.000Z</time>
      </trkpt>
      <trkpt lat="44.770520" lon="4.766332">
        <ele>150.057355</ele>
        <time>2017-06-05T15:48:51.000Z</time>
      </trkpt>
      <trkpt lat="44.770490" lon="4.766157">
        <ele>149.917437</ele>
        <time>2017-06-05T15:48:54.000Z</time>
      </trkpt>
      <trkpt lat="44.770462" lon="4.765978">
        <ele>149.774981</ele>
        <time>2017-06-05T15:48:57.000Z</time>
      </trkpt>
      <trkpt lat="44.770454" lon="4.765831">
        <ele>149.660398</ele>
        <time>2017-06-05T15:49:00.000Z</time>
      </trkpt>
      <trkpt lat="44.770440" lon="4.765700">
        <ele>149.557438</ele>
        <time>2017-06-05T15:49:05.000Z</time>
      </trkpt>
      <trkpt lat="44.770420" lon="4.765550">
        <ele>149.438821</ele>
        <time>2017-06-05T15:49:09.000Z</time>
      </trkpt>
      <trkpt lat="44.770405" lon="4.765404">
        <ele>149.324168</ele>
        <time>2017-06-05T15:49:12.000Z</time>
      </trkpt>
      <trkpt lat="44.770374" lon="4.765251">
        <ele>149.200508</ele>
        <time>2017-06-05T15:49:15.000Z</time>
      </trkpt>
      <trkpt lat="44.770340" lon="4.765081">
        <ele>149.063242</ele>
        <time>2017-06-05T15:49:18.000Z</time>
      </trkpt>
      <trkpt lat="44.770310" lon="4.764906">
        <ele>148.926021</ele>
        <time>2017-06-05T15:49:21.000Z</time>
      </trkpt>
      <trkpt lat="44.770287" lon="4.764780">
        <ele>148.847251</ele>
        <time>2017-06-05T15:49:23.000Z</time>
      </trkpt>
      <trkpt lat="44.770252" lon="4.764599">
        <ele>148.733669</ele>
        <time>2017-06-05T15:49:26.000Z</time>
      </trkpt>
      <trkpt lat="44.770230" lon="4.764477">
        <ele>148.657456</ele>
        <time>2017-06-05T15:49:28.000Z</time>
      </trkpt>
      <trkpt lat="44.770203" lon="4.764354">
        <ele>148.579505</ele>
        <time>2017-06-05T15:49:30.000Z</time>
      </trkpt>
      <trkpt lat="44.770172" lon="4.764231">
        <ele>148.500478</ele>
        <time>2017-06-05T15:49:32.000Z</time>
      </trkpt>
      <trkpt lat="44.770145" lon="4.764107">
        <ele>148.421948</ele>
        <time>2017-06-05T15:49:34.000Z</time>
      </trkpt>
      <trkpt lat="44.770115" lon="4.763987">
        <ele>148.344919</ele>
        <time>2017-06-05T15:49:36.000Z</time>
      </trkpt>
      <trkpt lat="44.770084" lon="4.763866">
        <ele>148.267033</ele>
        <time>2017-06-05T15:49:38.000Z</time>
      </trkpt>
      <trkpt lat="44.770054" lon="4.763740">
        <ele>148.186567</ele>
        <time>2017-06-05T15:49:40.000Z</time>
      </trkpt>
      <trkpt lat="44.770027" lon="4.763613">
        <ele>148.106299</ele>
        <time>2017-06-05T15:49:42.000Z</time>
      </trkpt>
      <trkpt lat="44.769990" lon="4.763474">
        <ele>148.016417</ele>
        <time>2017-06-05T15:49:44.000Z</time>
      </trkpt>
      <trkpt lat="44.769950" lon="4.763334">
        <ele>147.925044</ele>
        <time>2017-06-05T15:49:46.000Z</time>
      </trkpt>
      <trkpt lat="44.769913" lon="4.763198">
        <ele>147.836861</ele>
        <time>2017-06-05T15:49:48.000Z</time>
      </trkpt>
      <trkpt lat="44.769875" lon="4.763069">
        <ele>147.752298</ele>
        <time>2017-06-05T15:49:50.000Z</time>
      </trkpt>
      <trkpt lat="44.769836" lon="4.762943">
        <ele>147.669073</ele>
        <time>2017-06-05T15:49:52.000Z</time>
      </trkpt>
      <trkpt lat="44.769800" lon="4.762827">
        <ele>147.592421</ele>
        <time>2017-06-05T15:49:54.000Z</time>
      </trkpt>
      <trkpt lat="44.769756" lon="4.762711">
        <ele>147.512790</ele>
        <time>2017-06-05T15:49:56.000Z</time>
      </trkpt>
      <trkpt lat="44.769710" lon="4.762584">
        <ele>147.426466</ele>
        <time>2017-06-05T15:49:58.000Z</time>
      </trkpt>
      <trkpt lat="44.769670" lon="4.762453">
        <ele>147.484755</ele>
        <time>2017-06-05T15:50:00.000Z</time>
      </trkpt>
      <trkpt lat="44.769623" lon="4.762323">
        <ele>147.604353</ele>
        <time>2017-06-05T15:50:02.000Z</time>
      </trkpt>
      <trkpt lat="44.769573" lon="4.762185">
        <ele>147.731367</ele>
        <time>2017-06-05T15:50:04.000Z</time>
      </trkpt>
      <trkpt lat="44.769520" lon="4.762052">
        <ele>147.856403</ele>
        <time>2017-06-05T15:50:06.000Z</time>
      </trkpt>
      <trkpt lat="44.769478" lon="4.761931">
        <ele>147.966820</ele>
        <time>2017-06-05T15:50:08.000Z</time>
      </trkpt>
      <trkpt lat="44.769430" lon="4.761812">
        <ele>148.079023</ele>
        <time>2017-06-05T15:50:10.000Z</time>
      </trkpt>
      <trkpt lat="44.769375" lon="4.761701">
        <ele>148.189993</ele>
        <time>2017-06-05T15:50:12.000Z</time>
      </trkpt>
      <trkpt lat="44.769320" lon="4.761590">
        <ele>148.300963</ele>
        <time>2017-06-05T15:50:14.000Z</time>
      </trkpt>
      <trkpt lat="44.769253" lon="4.761478">
        <ele>148.421031</ele>
        <time>2017-06-05T15:50:16.000Z</time>
      </trkpt>
      <trkpt lat="44.769188" lon="4.761363">
        <ele>148.541539</ele>
        <time>2017-06-05T15:50:18.000Z</time>
      </trkpt>
      <trkpt lat="44.769120" lon="4.761241">
        <ele>148.668697</ele>
        <time>2017-06-05T15:50:20.000Z</time>
      </trkpt>
      <trkpt lat="44.769054" lon="4.761124">
        <ele>148.791206</ele>
        <time>2017-06-05T15:50:22.000Z</time>
      </trkpt>
      <trkpt lat="44.768982" lon="4.761021">
        <ele>148.909708</ele>
        <time>2017-06-05T15:50:24.000Z</time>
      </trkpt>
      <trkpt lat="44.768917" lon="4.760920">
        <ele>149.021465</ele>
        <time>2017-06-05T15:50:26.000Z</time>
      </trkpt>
      <trkpt lat="44.768850" lon="4.760831">
        <ele>149.127811</ele>
        <time>2017-06-05T15:50:28.000Z</time>
      </trkpt>
      <trkpt lat="44.768780" lon="4.760744">
        <ele>149.235611</ele>
        <time>2017-06-05T15:50:30.000Z</time>
      </trkpt>
      <trkpt lat="44.768707" lon="4.760660">
        <ele>149.344460</ele>
        <time>2017-06-05T15:50:32.000Z</time>
      </trkpt>
      <trkpt lat="44.768630" lon="4.760572">
        <ele>149.458962</ele>
        <time>2017-06-05T15:50:34.000Z</time>
      </trkpt>
      <trkpt lat="44.768555" lon="4.760480">
        <ele>149.423148</ele>
        <time>2017-06-05T15:50:36.000Z</time>
      </trkpt>
      <trkpt lat="44.768475" lon="4.760389">
        <ele>149.354123</ele>
        <time>2017-06-05T15:50:38.000Z</time>
      </trkpt>
      <trkpt lat="44.768387" lon="4.760305">
        <ele>149.282765</ele>
        <time>2017-06-05T15:50:40.000Z</time>
      </trkpt>
      <trkpt lat="44.768295" lon="4.760232">
        <ele>149.211884</ele>
        <time>2017-06-05T15:50:42.000Z</time>
      </trkpt>
      <trkpt lat="44.768200" lon="4.760153">
        <ele>149.137830</ele>
        <time>2017-06-05T15:50:44.000Z</time>
      </trkpt>
      <trkpt lat="44.768097" lon="4.760078">
        <ele>149.059998</ele>
        <time>2017-06-05T15:50:46.000Z</time>
      </trkpt>
      <trkpt lat="44.767994" lon="4.760006">
        <ele>148.982811</ele>
        <time>2017-06-05T15:50:48.000Z</time>
      </trkpt>
      <trkpt lat="44.767895" lon="4.759927">
        <ele>148.906433</ele>
        <time>2017-06-05T15:50:50.000Z</time>
      </trkpt>
      <trkpt lat="44.767800" lon="4.759862">
        <ele>148.835537</ele>
        <time>2017-06-05T15:50:52.000Z</time>
      </trkpt>
      <trkpt lat="44.767700" lon="4.759791">
        <ele>148.760365</ele>
        <time>2017-06-05T15:50:54.000Z</time>
      </trkpt>
      <trkpt lat="44.767605" lon="4.759739">
        <ele>148.691950</ele>
        <time>2017-06-05T15:50:56.000Z</time>
      </trkpt>
      <trkpt lat="44.767513" lon="4.759690">
        <ele>148.625926</ele>
        <time>2017-06-05T15:50:58.000Z</time>
      </trkpt>
      <trkpt lat="44.767420" lon="4.759650">
        <ele>148.560653</ele>
        <time>2017-06-05T15:51:00.000Z</time>
      </trkpt>
      <trkpt lat="44.767330" lon="4.759608">
        <ele>148.497010</ele>
        <time>2017-06-05T15:51:02.000Z</time>
      </trkpt>
      <trkpt lat="44.767240" lon="4.759570">
        <ele>148.433941</ele>
        <time>2017-06-05T15:51:04.000Z</time>
      </trkpt>
      <trkpt lat="44.767147" lon="4.759517">
        <ele>148.366597</ele>
        <time>2017-06-05T15:51:06.000Z</time>
      </trkpt>
      <trkpt lat="44.767040" lon="4.759475">
        <ele>148.292035</ele>
        <time>2017-06-05T15:51:08.000Z</time>
      </trkpt>
      <trkpt lat="44.766945" lon="4.759435">
        <ele>148.206633</ele>
        <time>2017-06-05T15:51:10.000Z</time>
      </trkpt>
      <trkpt lat="44.766840" lon="4.759393">
        <ele>148.103149</ele>
        <time>2017-06-05T15:51:12.000Z</time>
      </trkpt>
      <trkpt lat="44.766740" lon="4.759359">
        <ele>148.005620</ele>
        <time>2017-06-05T15:51:14.000Z</time>
      </trkpt>
      <trkpt lat="44.766644" lon="4.759323">
        <ele>147.911434</ele>
        <time>2017-06-05T15:51:16.000Z</time>
      </trkpt>
      <trkpt lat="44.766544" lon="4.759279">
        <ele>147.812109</ele>
        <time>2017-06-05T15:51:18.000Z</time>
      </trkpt>
      <trkpt lat="44.766453" lon="4.759233">
        <ele>147.720447</ele>
        <time>2017-06-05T15:51:20.000Z</time>
      </trkpt>
      <trkpt lat="44.766357" lon="4.759189">
        <ele>147.624735</ele>
        <time>2017-06-05T15:51:22.000Z</time>
      </trkpt>
      <trkpt lat="44.766266" lon="4.759135">
        <ele>147.531116</ele>
        <time>2017-06-05T15:51:24.000Z</time>
      </trkpt>
      <trkpt lat="44.766140" lon="4.759066">
        <ele>147.402948</ele>
        <time>2017-06-05T15:51:27.000Z</time>
      </trkpt>
      <trkpt lat="44.766018" lon="4.759015">
        <ele>147.282297</ele>
        <time>2017-06-05T15:51:30.000Z</time>
      </trkpt>
      <trkpt lat="44.765890" lon="4.758959">
        <ele>147.155225</ele>
        <time>2017-06-05T15:51:33.000Z</time>
      </trkpt>
      <trkpt lat="44.765804" lon="4.758918">
        <ele>147.069147</ele>
        <time>2017-06-05T15:51:35.000Z</time>
      </trkpt>
      <trkpt lat="44.765675" lon="4.758858">
        <ele>146.940350</ele>
        <time>2017-06-05T15:51:38.000Z</time>
      </trkpt>
      <trkpt lat="44.765587" lon="4.758828">
        <ele>146.854511</ele>
        <time>2017-06-05T15:51:40.000Z</time>
      </trkpt>
      <trkpt lat="44.765495" lon="4.758785">
        <ele>146.762612</ele>
        <time>2017-06-05T15:51:42.000Z</time>
      </trkpt>
      <trkpt lat="44.765400" lon="4.758743">
        <ele>146.668212</ele>
        <time>2017-06-05T15:51:44.000Z</time>
      </trkpt>
      <trkpt lat="44.765310" lon="4.758695">
        <ele>146.576974</ele>
        <time>2017-06-05T15:51:46.000Z</time>
      </trkpt>
      <trkpt lat="44.765198" lon="4.758647">
        <ele>146.616407</ele>
        <time>2017-06-05T15:51:48.000Z</time>
      </trkpt>
      <trkpt lat="44.765102" lon="4.758602">
        <ele>146.664842</ele>
        <time>2017-06-05T15:51:50.000Z</time>
      </trkpt>
      <trkpt lat="44.765007" lon="4.758558">
        <ele>146.712716</ele>
        <time>2017-06-05T15:51:52.000Z</time>
      </trkpt>
      <trkpt lat="44.764910" lon="4.758512">
        <ele>146.761712</ele>
        <time>2017-06-05T15:51:54.000Z</time>
      </trkpt>
      <trkpt lat="44.764812" lon="4.758465">
        <ele>146.811271</ele>
        <time>2017-06-05T15:51:56.000Z</time>
      </trkpt>
      <trkpt lat="44.764713" lon="4.758426">
        <ele>146.860483</ele>
        <time>2017-06-05T15:51:58.000Z</time>
      </trkpt>
      <trkpt lat="44.764618" lon="4.758384">
        <ele>146.908149</ele>
        <time>2017-06-05T15:52:00.000Z</time>
      </trkpt>
      <trkpt lat="44.764523" lon="4.758337">
        <ele>146.956351</ele>
        <time>2017-06-05T15:52:02.000Z</time>
      </trkpt>
      <trkpt lat="44.764427" lon="4.758293">
        <ele>147.004679</ele>
        <time>2017-06-05T15:52:04.000Z</time>
      </trkpt>
      <trkpt lat="44.764336" lon="4.758250">
        <ele>147.050628</ele>
        <time>2017-06-05T15:52:06.000Z</time>
      </trkpt>
      <trkpt lat="44.764240" lon="4.758202">
        <ele>147.099395</ele>
        <time>2017-06-05T15:52:08.000Z</time>
      </trkpt>
      <trkpt lat="44.764153" lon="4.758158">
        <ele>147.143647</ele>
        <time>2017-06-05T15:52:10.000Z</time>
      </trkpt>
      <trkpt lat="44.764057" lon="4.758113">
        <ele>147.192082</ele>
        <time>2017-06-05T15:52:12.000Z</time>
      </trkpt>
      <trkpt lat="44.763960" lon="4.758068">
        <ele>147.240971</ele>
        <time>2017-06-05T15:52:14.000Z</time>
      </trkpt>
      <trkpt lat="44.763860" lon="4.758018">
        <ele>147.291769</ele>
        <time>2017-06-05T15:52:16.000Z</time>
      </trkpt>
      <trkpt lat="44.763756" lon="4.757968">
        <ele>147.344376</ele>
        <time>2017-06-05T15:52:18.000Z</time>
      </trkpt>
      <trkpt lat="44.763657" lon="4.757926">
        <ele>147.393872</ele>
        <time>2017-06-05T15:52:20.000Z</time>
      </trkpt>
      <trkpt lat="44.763565" lon="4.757880">
        <ele>147.428201</ele>
        <time>2017-06-05T15:52:22.000Z</time>
      </trkpt>
      <trkpt lat="44.763466" lon="4.757837">
        <ele>147.432674</ele>
        <time>2017-06-05T15:52:24.000Z</time>
      </trkpt>
      <trkpt lat="44.763363" lon="4.757796">
        <ele>147.437294</ele>
        <time>2017-06-05T15:52:26.000Z</time>
      </trkpt>
      <trkpt lat="44.763260" lon="4.757746">
        <ele>147.441997</ele>
        <time>2017-06-05T15:52:28.000Z</time>
      </trkpt>
      <trkpt lat="44.763157" lon="4.757701">
        <ele>147.446653</ele>
        <time>2017-06-05T15:52:30.000Z</time>
      </trkpt>
      <trkpt lat="44.763058" lon="4.757652">
        <ele>147.451183</ele>
        <time>2017-06-05T15:52:32.000Z</time>
      </trkpt>
      <trkpt lat="44.762966" lon="4.757608">
        <ele>147.455377</ele>
        <time>2017-06-05T15:52:34.000Z</time>
      </trkpt>
      <trkpt lat="44.762867" lon="4.757564">
        <ele>147.459859</ele>
        <time>2017-06-05T15:52:36.000Z</time>
      </trkpt>
      <trkpt lat="44.762768" lon="4.757510">
        <ele>147.464442</ele>
        <time>2017-06-05T15:52:38.000Z</time>
      </trkpt>
      <trkpt lat="44.762670" lon="4.757459">
        <ele>147.468952</ele>
        <time>2017-06-05T15:52:40.000Z</time>
      </trkpt>
      <trkpt lat="44.762573" lon="4.757414">
        <ele>147.473361</ele>
        <time>2017-06-05T15:52:42.000Z</time>
      </trkpt>
      <trkpt lat="44.762463" lon="4.757371">
        <ele>147.478289</ele>
        <time>2017-06-05T15:52:44.000Z</time>
      </trkpt>
      <trkpt lat="44.762356" lon="4.757328">
        <ele>147.483092</ele>
        <time>2017-06-05T15:52:46.000Z</time>
      </trkpt>
      <trkpt lat="44.762253" lon="4.757277">
        <ele>147.487806</ele>
        <time>2017-06-05T15:52:48.000Z</time>
      </trkpt>
      <trkpt lat="44.762154" lon="4.757225">
        <ele>147.492367</ele>
        <time>2017-06-05T15:52:50.000Z</time>
      </trkpt>
      <trkpt lat="44.762060" lon="4.757182">
        <ele>147.496633</ele>
        <time>2017-06-05T15:52:52.000Z</time>
      </trkpt>
      <trkpt lat="44.761963" lon="4.757134">
        <ele>147.501072</ele>
        <time>2017-06-05T15:52:54.000Z</time>
      </trkpt>
      <trkpt lat="44.761864" lon="4.757088">
        <ele>147.519354</ele>
        <time>2017-06-05T15:52:56.000Z</time>
      </trkpt>
      <trkpt lat="44.761760" lon="4.757032">
        <ele>147.593573</ele>
        <time>2017-06-05T15:52:58.000Z</time>
      </trkpt>
      <trkpt lat="44.761658" lon="4.756987">
        <ele>147.664823</ele>
        <time>2017-06-05T15:53:00.000Z</time>
      </trkpt>
      <trkpt lat="44.761555" lon="4.756940">
        <ele>147.736996</ele>
        <time>2017-06-05T15:53:02.000Z</time>
      </trkpt>
      <trkpt lat="44.761450" lon="4.756895">
        <ele>147.810157</ele>
        <time>2017-06-05T15:53:04.000Z</time>
      </trkpt>
      <trkpt lat="44.761353" lon="4.756853">
        <ele>147.877803</ele>
        <time>2017-06-05T15:53:06.000Z</time>
      </trkpt>
      <trkpt lat="44.761250" lon="4.756805">
        <ele>147.950123</ele>
        <time>2017-06-05T15:53:08.000Z</time>
      </trkpt>
      <trkpt lat="44.761147" lon="4.756763">
        <ele>148.021602</ele>
        <time>2017-06-05T15:53:10.000Z</time>
      </trkpt>
      <trkpt lat="44.761040" lon="4.756718">
        <ele>148.096039</ele>
        <time>2017-06-05T15:53:12.000Z</time>
      </trkpt>
      <trkpt lat="44.760933" lon="4.756668">
        <ele>148.171188</ele>
        <time>2017-06-05T15:53:14.000Z</time>
      </trkpt>
      <trkpt lat="44.760826" lon="4.756620">
        <ele>148.246044</ele>
        <time>2017-06-05T15:53:16.000Z</time>
      </trkpt>
      <trkpt lat="44.760720" lon="4.756569">
        <ele>148.320713</ele>
        <time>2017-06-05T15:53:18.000Z</time>
      </trkpt>
      <trkpt lat="44.760616" lon="4.756519">
        <ele>148.393966</ele>
        <time>2017-06-05T15:53:20.000Z</time>
      </trkpt>
      <trkpt lat="44.760520" lon="4.756470">
        <ele>148.462032</ele>
        <time>2017-06-05T15:53:22.000Z</time>
      </trkpt>
      <trkpt lat="44.760420" lon="4.756425">
        <ele>148.532011</ele>
        <time>2017-06-05T15:53:24.000Z</time>
      </trkpt>
      <trkpt lat="44.760326" lon="4.756377">
        <ele>148.598663</ele>
        <time>2017-06-05T15:53:26.000Z</time>
      </trkpt>
      <trkpt lat="44.760240" lon="4.756336">
        <ele>148.659185</ele>
        <time>2017-06-05T15:53:28.000Z</time>
      </trkpt>
      <trkpt lat="44.760136" lon="4.756298">
        <ele>148.664770</ele>
        <time>2017-06-05T15:53:30.000Z</time>
      </trkpt>
      <trkpt lat="44.760040" lon="4.756249">
        <ele>148.567758</ele>
        <time>2017-06-05T15:53:32.000Z</time>
      </trkpt>
      <trkpt lat="44.759937" lon="4.756204">
        <ele>148.465301</ele>
        <time>2017-06-05T15:53:34.000Z</time>
      </trkpt>
      <trkpt lat="44.759842" lon="4.756162">
        <ele>148.370703</ele>
        <time>2017-06-05T15:53:36.000Z</time>
      </trkpt>
      <trkpt lat="44.759743" lon="4.756115">
        <ele>148.271446</ele>
        <time>2017-06-05T15:53:38.000Z</time>
      </trkpt>
      <trkpt lat="44.759650" lon="4.756069">
        <ele>148.177800</ele>
        <time>2017-06-05T15:53:40.000Z</time>
      </trkpt>
      <trkpt lat="44.759556" lon="4.756023">
        <ele>148.083256</ele>
        <time>2017-06-05T15:53:42.000Z</time>
      </trkpt>
      <trkpt lat="44.759460" lon="4.755983">
        <ele>147.988142</ele>
        <time>2017-06-05T15:53:44.000Z</time>
      </trkpt>
      <trkpt lat="44.759360" lon="4.755943">
        <ele>147.889378</ele>
        <time>2017-06-05T15:53:46.000Z</time>
      </trkpt>
      <trkpt lat="44.759262" lon="4.755896">
        <ele>147.791021</ele>
        <time>2017-06-05T15:53:48.000Z</time>
      </trkpt>
      <trkpt lat="44.759148" lon="4.755855">
        <ele>147.679238</ele>
        <time>2017-06-05T15:53:50.000Z</time>
      </trkpt>
      <trkpt lat="44.759014" lon="4.755819">
        <ele>147.549634</ele>
        <time>2017-06-05T15:53:52.000Z</time>
      </trkpt>
      <trkpt lat="44.758873" lon="4.755784">
        <ele>147.413610</ele>
        <time>2017-06-05T15:53:54.000Z</time>
      </trkpt>
      <trkpt lat="44.758724" lon="4.755747">
        <ele>147.269867</ele>
        <time>2017-06-05T15:53:56.000Z</time>
      </trkpt>
      <trkpt lat="44.758580" lon="4.755710">
        <ele>147.130800</ele>
        <time>2017-06-05T15:53:58.000Z</time>
      </trkpt>
      <trkpt lat="44.758442" lon="4.755673">
        <ele>146.997337</ele>
        <time>2017-06-05T15:54:00.000Z</time>
      </trkpt>
      <trkpt lat="44.758305" lon="4.755642">
        <ele>147.196314</ele>
        <time>2017-06-05T15:54:02.000Z</time>
      </trkpt>
      <trkpt lat="44.758167" lon="4.755617">
        <ele>147.402462</ele>
        <time>2017-06-05T15:54:04.000Z</time>
      </trkpt>
      <trkpt lat="44.758022" lon="4.755593">
        <ele>147.618776</ele>
        <time>2017-06-05T15:54:06.000Z</time>
      </trkpt>
      <trkpt lat="44.757862" lon="4.755572">
        <ele>147.856862</ele>
        <time>2017-06-05T15:54:08.000Z</time>
      </trkpt>
      <trkpt lat="44.757698" lon="4.755550">
        <ele>148.100947</ele>
        <time>2017-06-05T15:54:10.000Z</time>
      </trkpt>
      <trkpt lat="44.757526" lon="4.755518">
        <ele>148.358000</ele>
        <time>2017-06-05T15:54:12.000Z</time>
      </trkpt>
      <trkpt lat="44.757378" lon="4.755484">
        <ele>148.580178</ele>
        <time>2017-06-05T15:54:14.000Z</time>
      </trkpt>
      <trkpt lat="44.757260" lon="4.755422">
        <ele>148.766781</ele>
        <time>2017-06-05T15:54:16.000Z</time>
      </trkpt>
      <trkpt lat="44.757183" lon="4.755344">
        <ele>148.907314</ele>
        <time>2017-06-05T15:54:18.000Z</time>
      </trkpt>
      <trkpt lat="44.757114" lon="4.755261">
        <ele>149.041764</ele>
        <time>2017-06-05T15:54:21.000Z</time>
      </trkpt>
      <trkpt lat="44.757046" lon="4.755160">
        <ele>149.188195</ele>
        <time>2017-06-05T15:54:26.000Z</time>
      </trkpt>
      <trkpt lat="44.756960" lon="4.755052">
        <ele>149.358919</ele>
        <time>2017-06-05T15:54:31.000Z</time>
      </trkpt>
      <trkpt lat="44.756870" lon="4.755064">
        <ele>149.492861</ele>
        <time>2017-06-05T15:54:35.000Z</time>
      </trkpt>
      <trkpt lat="44.756794" lon="4.755168">
        <ele>149.649870</ele>
        <time>2017-06-05T15:54:40.000Z</time>
      </trkpt>
      <trkpt lat="44.756700" lon="4.755164">
        <ele>149.659657</ele>
        <time>2017-06-05T15:54:43.000Z</time>
      </trkpt>
      <trkpt lat="44.756580" lon="4.755147">
        <ele>149.659657</ele>
        <time>2017-06-05T15:54:46.000Z</time>
      </trkpt>
      <trkpt lat="44.756474" lon="4.755158">
        <ele>149.659657</ele>
        <time>2017-06-05T15:54:49.000Z</time>
      </trkpt>
      <trkpt lat="44.756382" lon="4.755258">
        <ele>149.659657</ele>
        <time>2017-06-05T15:54:53.000Z</time>
      </trkpt>
      <trkpt lat="44.756350" lon="4.755382">
        <ele>149.659657</ele>
        <time>2017-06-05T15:54:56.000Z</time>
      </trkpt>
      <trkpt lat="44.756350" lon="4.755510">
        <ele>149.659657</ele>
        <time>2017-06-05T15:54:59.000Z</time>
      </trkpt>
      <trkpt lat="44.756348" lon="4.755675">
        <ele>149.659657</ele>
        <time>2017-06-05T15:55:03.000Z</time>
      </trkpt>
      <trkpt lat="44.756348" lon="4.755835">
        <ele>149.659657</ele>
        <time>2017-06-05T15:55:07.000Z</time>
      </trkpt>
      <trkpt lat="44.756348" lon="4.755972">
        <ele>149.659657</ele>
        <time>2017-06-05T15:55:11.000Z</time>
      </trkpt>
      <trkpt lat="44.756340" lon="4.756115">
        <ele>149.659657</ele>
        <time>2017-06-05T15:55:15.000Z</time>
      </trkpt>
      <trkpt lat="44.756340" lon="4.756255">
        <ele>149.659657</ele>
        <time>2017-06-05T15:55:18.000Z</time>
      </trkpt>
      <trkpt lat="44.756344" lon="4.756399">
        <ele>149.659657</ele>
        <time>2017-06-05T15:55:21.000Z</time>
      </trkpt>
      <trkpt lat="44.756336" lon="4.756540">
        <ele>149.659657</ele>
        <time>2017-06-05T15:55:24.000Z</time>
      </trkpt>
      <trkpt lat="44.756330" lon="4.756670">
        <ele>149.659657</ele>
        <time>2017-06-05T15:55:27.000Z</time>
      </trkpt>
      <trkpt lat="44.756374" lon="4.756800">
        <ele>149.659657</ele>
        <time>2017-06-05T15:55:32.000Z</time>
      </trkpt>
      <trkpt lat="44.756450" lon="4.756719">
        <ele>149.659657</ele>
        <time>2017-06-05T15:55:37.000Z</time>
      </trkpt>
      <trkpt lat="44.756428" lon="4.756554">
        <ele>149.659657</ele>
        <time>2017-06-05T15:55:41.000Z</time>
      </trkpt>
      <trkpt lat="44.756430" lon="4.756407">
        <ele>149.659657</ele>
        <time>2017-06-05T15:55:44.000Z</time>
      </trkpt>
      <trkpt lat="44.756435" lon="4.756262">
        <ele>149.659657</ele>
        <time>2017-06-05T15:55:47.000Z</time>
      </trkpt>
      <trkpt lat="44.756430" lon="4.756129">
        <ele>149.659657</ele>
        <time>2017-06-05T15:55:50.000Z</time>
      </trkpt>
      <trkpt lat="44.756435" lon="4.755978">
        <ele>149.659657</ele>
        <time>2017-06-05T15:55:54.000Z</time>
      </trkpt>
      <trkpt lat="44.756454" lon="4.755821">
        <ele>149.659657</ele>
        <time>2017-06-05T15:55:59.000Z</time>
      </trkpt>
      <trkpt lat="44.756540" lon="4.755738">
        <ele>149.659657</ele>
        <time>2017-06-05T15:56:06.000Z</time>
      </trkpt>
    </trkseg>
  </trk>
</gpx>